
Distance (Route):
Temperature : 18.5°C
Humidity : 77%
Pressure : 976.1hPa| Receiver | Frames | First received | Last received |
|---|---|---|---|
| DO2JMG | 942 | 2026-08-30 11:02:41 | 2026-08-30 13:26:53 |
| BIOWL1-15 | 900 | 2026-08-30 10:46:26 | 2026-08-30 13:27:28 |
| DM0DOS-11 | 750 | 2026-08-30 10:45:58 | 2026-08-30 13:27:28 |
| DL1XH-west | 661 | 2026-08-30 11:06:46 | 2026-08-30 13:15:37 |
| HSKMA3-T | 539 | 2026-08-30 11:14:22 | 2026-08-30 13:22:28 |
| DL1XH1-15 | 444 | 2026-08-30 11:08:51 | 2026-08-30 13:14:55 |
| AA1-15 | 355 | 2026-08-30 11:26:34 | 2026-08-30 12:58:44 |
| DL1NUX | 340 | 2026-08-30 11:23:15 | 2026-08-30 13:08:02 |
| DL1XH-15 | 325 | 2026-08-30 11:18:53 | 2026-08-30 13:06:38 |
| DD8BA-10 | 185 | 2026-08-30 10:54:36 | 2026-08-30 13:18:28 |
| DO3DL | 167 | 2026-08-30 10:45:42 | 2026-08-30 13:17:23 |
| DJ2DS-15 | 147 | 2026-08-30 10:56:55 | 2026-08-30 13:17:34 |
| GOEST3-10 | 142 | 2026-08-30 11:24:21 | 2026-08-30 13:03:08 |
| DL3AQ-11 | 135 | 2026-08-30 10:58:48 | 2026-08-30 13:21:43 |
| DF8AY | 128 | 2026-08-30 11:41:27 | 2026-08-30 12:58:41 |
| DB0UT-7 | 92 | 2026-08-30 10:51:43 | 2026-08-30 13:17:13 |
| DO2SHX-10 | 92 | 2026-08-30 11:44:29 | 2026-08-30 12:44:50 |
| DO9LL-15 | 86 | 2026-08-30 10:47:35 | 2026-08-30 13:19:13 |
| DB0DAN | 70 | 2026-08-30 11:41:40 | 2026-08-30 13:21:10 |
| DH3RM | 65 | 2026-08-30 10:47:38 | 2026-08-30 11:24:14 |
| DJ2KF-10 | 64 | 2026-08-30 10:47:46 | 2026-08-30 13:01:46 |
| BIOWL9-15 | 62 | 2026-08-30 10:47:07 | 2026-08-30 13:25:59 |
| DL4BBY-15 | 62 | 2026-08-30 11:06:37 | 2026-08-30 13:14:09 |
| DB0NH | 57 | 2026-08-30 11:10:08 | 2026-08-30 13:12:36 |
| DD1CC8 | 50 | 2026-08-30 10:50:02 | 2026-08-30 13:20:38 |
| DD1CC3-15 | 48 | 2026-08-30 10:47:31 | 2026-08-30 13:24:22 |
| DO2KSM | 46 | 2026-08-30 10:47:27 | 2026-08-30 13:08:40 |
| BUE01 | 44 | 2026-08-30 11:10:26 | 2026-08-30 13:18:47 |
| DD1CC1-15 | 43 | 2026-08-30 10:47:43 | 2026-08-30 13:21:12 |
| DK9SH | 43 | 2026-08-30 11:02:37 | 2026-08-30 13:27:09 |
| DJ8HS-15 | 43 | 2026-08-30 11:35:07 | 2026-08-30 12:51:18 |
| WPPR-10 | 42 | 2026-08-30 10:47:33 | 2026-08-30 12:41:57 |
| AU51GT2 | 40 | 2026-08-30 10:54:47 | 2026-08-30 12:50:39 |
| DD1CC2-15 | 39 | 2026-08-30 10:49:49 | 2026-08-30 13:21:42 |
| SONCRA | 39 | 2026-08-30 11:16:15 | 2026-08-30 13:19:57 |
| DL8DAS-14 | 38 | 2026-08-30 10:50:04 | 2026-08-30 13:00:53 |
| SO1NDE-10 | 38 | 2026-08-30 11:25:13 | 2026-08-30 13:06:07 |
| DL4XJ-10 | 38 | 2026-08-30 11:43:30 | 2026-08-30 13:13:45 |
| DO1YAY-16 | 35 | 2026-08-30 10:49:09 | 2026-08-30 12:54:25 |
| DL1ZP-14 | 34 | 2026-08-30 11:04:45 | 2026-08-30 13:12:40 |
| DF5WG-10 | 31 | 2026-08-30 11:41:09 | 2026-08-30 12:42:42 |
| DL8DAS-15 | 30 | 2026-08-30 10:47:38 | 2026-08-30 12:57:52 |
| DC4HF-4 | 29 | 2026-08-30 11:16:56 | 2026-08-30 13:11:46 |
| DO3MHA-11 | 27 | 2026-08-30 11:40:21 | 2026-08-30 12:11:08 |
| DB0ND-19 | 25 | 2026-08-30 11:10:32 | 2026-08-30 13:11:02 |
| HTAHTA | 23 | 2026-08-30 10:59:49 | 2026-08-30 13:00:55 |
| DL1CLM-18 | 23 | 2026-08-30 11:09:17 | 2026-08-30 13:17:16 |
| DL1KLB | 22 | 2026-08-30 10:55:23 | 2026-08-30 12:44:24 |
| DF7PN | 20 | 2026-08-30 11:36:45 | 2026-08-30 12:57:33 |
| S3001 | 19 | 2026-08-30 11:34:16 | 2026-08-30 12:58:37 |
| EDDB2-11 | 16 | 2026-08-30 11:39:24 | 2026-08-30 12:55:27 |
| DO3MHA-12 | 15 | 2026-08-30 11:50:36 | 2026-08-30 12:44:44 |
| BIOWL7-15 | 13 | 2026-08-30 10:55:58 | 2026-08-30 13:25:58 |
| DL3OBA | 11 | 2026-08-30 12:30:21 | 2026-08-30 13:20:28 |
| DJ3KS | 10 | 2026-08-30 10:56:18 | 2026-08-30 12:45:21 |
| NBG1-10 | 9 | 2026-08-30 11:25:05 | 2026-08-30 13:02:21 |
| WEDDY | 8 | 2026-08-30 12:01:21 | 2026-08-30 12:57:43 |
| SMARD9-15 | 8 | 2026-08-30 12:14:03 | 2026-08-30 12:41:59 |
| DL8OAI-8 | 8 | 2026-08-30 12:56:56 | 2026-08-30 13:15:39 |
| DL1LOL-11 | 6 | 2026-08-30 11:22:44 | 2026-08-30 13:13:15 |
| DL9SK-14 | 6 | 2026-08-30 12:57:22 | 2026-08-30 13:03:04 |
| EDDB2-12 | 5 | 2026-08-30 12:39:01 | 2026-08-30 12:52:59 |
| AM1SDL-15 | 4 | 2026-08-30 11:46:54 | 2026-08-30 13:00:34 |
| SONDE2-11 | 3 | 2026-08-30 12:37:06 | 2026-08-30 12:53:40 |
| DJTTGO | 2 | 2026-08-30 12:13:09 | 2026-08-30 12:35:09 |
| SMARD9-10 | 2 | 2026-08-30 12:39:07 | 2026-08-30 12:41:27 |
| Receiver | Date | Latitude | Longitude | Direction | Speed | Altitude | Climb | Temperature | Humidity | Pressure | Voltage | Killtimer | Uptime | BKT | XDATA |
|---|---|---|---|---|---|---|---|---|---|---|---|---|---|---|---|
| BIOWL1-15 | 2026-08-30 13:27:28 | 51.79442 | 8.88735 | 80° | 22km/h | 347m | -4.6m/s | 18.5°C | 77% | 976.1hPa | 2.8V | 07:37:33 | 03:09:37 | 00:00:00 | |
| DM0DOS-11 | 2026-08-30 13:27:28 | 51.79441 | 8.88725 | 83° | 27km/h | 352m | -5.4m/s | 18.4°C | 72.3% | 975.5hPa | 2.8V | 07:37:30 | 03:09:36 | 00:00:00 | |
| DM0DOS-11 | 2026-08-30 13:27:28 | 51.79440 | 8.88702 | 81° | 31km/h | 363m | -5.2m/s | 18.4°C | 71.5% | 974.5hPa | 2.8V | 07:37:32 | 03:09:34 | 00:00:00 | |
| BIOWL1-15 | 2026-08-30 13:27:26 | 51.79440 | 8.88714 | 83° | 27km/h | 358m | -5.4m/s | 18.4°C | 75.9% | 974.9hPa | 2.8V | 07:37:33 | 03:09:35 | 00:00:00 | |
| BIOWL1-15 | 2026-08-30 13:27:25 | 51.79440 | 8.88703 | 82° | 31km/h | 363m | -5.2m/s | 18.3°C | 76.2% | 974.5hPa | 2.8V | 07:37:33 | 03:09:34 | 00:00:00 | |
| BIOWL1-15 | 2026-08-30 13:27:23 | 51.79435 | 8.88639 | 81° | 31km/h | 383m | -4.4m/s | 18.2°C | 77.3% | 972.4hPa | 2.8V | 07:38:24 | 03:09:29 | 00:00:00 | |
| BIOWL1-15 | 2026-08-30 13:27:23 | 51.79434 | 8.88627 | 86° | 31km/h | 387m | -4.6m/s | 18.1°C | 77.9% | 971.9hPa | 2.8V | 07:38:24 | 03:09:28 | 00:00:00 | |
| BIOWL1-15 | 2026-08-30 13:27:17 | 51.79431 | 8.88588 | 83° | 33km/h | 400m | -3.4m/s | 18°C | 78.1% | 970.7hPa | 2.8V | 07:38:24 | 03:09:25 | 00:00:00 | |
| BIOWL1-15 | 2026-08-30 13:27:17 | 51.79430 | 8.88575 | 84° | 33km/h | 403m | -2.3m/s | 17.9°C | 78% | 970.3hPa | 2.7V | 07:38:24 | 03:09:24 | 00:00:00 | |
| DM0DOS-11 | 2026-08-30 13:27:13 | 51.79423 | 8.88517 | 70° | 40km/h | 412m | -2.5m/s | 17.8°C | 73.1% | 969.3hPa | 2.8V | 07:37:46 | 03:09:20 | 00:00:00 | |
| BIOWL1-15 | 2026-08-30 13:27:13 | 51.79428 | 8.88548 | 78° | 35km/h | 407m | -1.9m/s | 17.9°C | 78.9% | 969.7hPa | 2.8V | 07:38:24 | 03:09:22 | 00:00:00 | |
| BIOWL1-15 | 2026-08-30 13:27:11 | 51.79411 | 8.88456 | 73° | 40km/h | 424m | -3.2m/s | 17.7°C | 78.9% | 968.1hPa | 2.8V | 07:38:24 | 03:09:16 | 00:00:00 | |
| DK9SH | 2026-08-30 13:27:09 | 51.79420 | 8.88501 | 73° | 40km/h | 415m | -2.8m/s | 17.8°C | 73.3% | 969.1hPa | 2.8V | 07:38:00 | 00:00:00 | 00:00:00 | |
| DM0DOS-11 | 2026-08-30 13:27:08 | 51.79396 | 8.88387 | 67° | 47km/h | 437m | -3m/s | 17.5°C | 74.2% | 966.5hPa | 2.8V | 07:37:54 | 03:09:12 | 00:00:00 | |
| BIOWL1-15 | 2026-08-30 13:27:06 | 51.79405 | 8.88423 | 70° | 46km/h | 430m | -3.3m/s | 17.6°C | 77.8% | 967.2hPa | 2.8V | 07:38:24 | 03:09:14 | 00:00:00 | |
| BIOWL1-15 | 2026-08-30 13:27:06 | 51.79401 | 8.88405 | 69° | 47km/h | 433m | -3.5m/s | 17.6°C | 78.5% | 966.8hPa | 2.8V | 07:38:24 | 03:09:13 | 00:00:00 | |
| BIOWL1-15 | 2026-08-30 13:27:03 | 51.79396 | 8.88387 | 68° | 47km/h | 437m | -3.1m/s | 17.5°C | 79% | 966.5hPa | 2.8V | 07:38:24 | 03:09:12 | 00:00:00 | |
| DM0DOS-11 | 2026-08-30 13:27:03 | 51.79387 | 8.88353 | 66° | 44km/h | 443m | -3.3m/s | 17.5°C | 74.1% | 965.7hPa | 2.7V | 07:37:56 | 03:09:10 | 00:00:00 | |
| BIOWL1-15 | 2026-08-30 13:27:01 | 51.79387 | 8.88353 | 67° | 44km/h | 443m | -3.3m/s | 17.5°C | 79% | 965.7hPa | 2.7V | 07:38:24 | 03:09:10 | 00:00:00 | |
| BIOWL1-15 | 2026-08-30 13:26:59 | 51.79379 | 8.88321 | 71° | 40km/h | 449m | -2.7m/s | 17.4°C | 78.8% | 965hPa | 2.8V | 07:38:24 | 03:09:08 | 00:00:00 | |
| BIOWL1-15 | 2026-08-30 13:26:57 | 51.79374 | 8.88290 | 79° | 40km/h | 455m | -3.1m/s | 17.4°C | 79.7% | 964.5hPa | 2.8V | 07:38:24 | 03:09:06 | 00:00:00 | |
| BIOWL1-15 | 2026-08-30 13:26:56 | 51.79373 | 8.88273 | 81° | 42km/h | 458m | -3.7m/s | 17.4°C | 79.6% | 964hPa | 2.8V | 07:38:24 | 03:09:05 | 00:00:00 | |
| BIOWL1-15 | 2026-08-30 13:26:54 | 51.79369 | 8.88239 | 79° | 42km/h | 465m | -3.7m/s | 17.3°C | 79.9% | 963.2hPa | 2.8V | 07:38:24 | 03:09:03 | 00:00:00 | |
| DO2JMG | 2026-08-30 13:26:53 | 51.79367 | 8.88222 | 77° | 44km/h | 469m | -3.6m/s | 17.3°C | 79.9% | 962.9hPa | 2.8V | 07:38:24 | 03:09:02 | 00:00:00 | |
| BIOWL1-15 | 2026-08-30 13:26:52 | 51.79364 | 8.88205 | 75° | 44km/h | 472m | -3.5m/s | 17.2°C | 80.2% | 962.4hPa | 2.8V | 07:38:24 | 03:09:01 | 00:00:00 | |
| DO2JMG | 2026-08-30 13:26:51 | 51.79361 | 8.88188 | 74° | 46km/h | 475m | -3.2m/s | 17.2°C | 80% | 962.2hPa | 2.8V | 07:38:24 | 03:09:00 | 00:00:00 | |
| DO2JMG | 2026-08-30 13:26:50 | 51.79358 | 8.88170 | 73° | 46km/h | 479m | -3.9m/s | 17.2°C | 80.1% | 961.7hPa | 2.8V | 07:38:24 | 03:08:59 | 00:00:00 | |
| DO2JMG | 2026-08-30 13:26:49 | 51.79354 | 8.88152 | 71° | 46km/h | 483m | -3.4m/s | 17.1°C | 79.8% | 961.3hPa | 2.8V | 07:38:24 | 03:08:58 | 00:00:00 | |
| DO2JMG | 2026-08-30 13:26:48 | 51.79350 | 8.88135 | 71° | 46km/h | 486m | -3.2m/s | 17.1°C | 79.4% | 960.9hPa | 2.7V | 07:38:24 | 03:08:57 | 00:00:00 | |
| BIOWL1-15 | 2026-08-30 13:26:46 | 51.79330 | 8.88038 | 71° | 38km/h | 504m | -2.4m/s | 16.8°C | 80.5% | 958.9hPa | 2.8V | 07:38:24 | 03:08:51 | 00:00:00 | |
| DO2JMG | 2026-08-30 13:26:46 | 51.79343 | 8.88101 | 72° | 42km/h | 492m | -2.9m/s | 17°C | 79.2% | 960.2hPa | 2.8V | 07:38:24 | 03:08:55 | 00:00:00 | |
| DO2JMG | 2026-08-30 13:26:44 | 51.79336 | 8.88069 | 72° | 40km/h | 498m | -2.9m/s | 16.9°C | 79.8% | 959.6hPa | 2.8V | 07:38:24 | 03:08:53 | 00:00:00 | |
| DO2JMG | 2026-08-30 13:26:43 | 51.79333 | 8.88053 | 72° | 40km/h | 501m | -2.9m/s | 16.9°C | 79.7% | 959.1hPa | 2.8V | 07:38:24 | 03:08:52 | 00:00:00 | |
| DO2JMG | 2026-08-30 13:26:41 | 51.79327 | 8.88023 | 69° | 38km/h | 507m | -3.4m/s | 16.9°C | 81.2% | 958.5hPa | 2.8V | 07:38:24 | 03:08:50 | 00:00:00 | |
| DO2JMG | 2026-08-30 13:26:39 | 51.79320 | 8.87995 | 72° | 35km/h | 514m | -3.7m/s | 16.8°C | 81.5% | 957.6hPa | 2.8V | 07:38:24 | 03:08:48 | 00:00:00 | |
| DO2JMG | 2026-08-30 13:26:38 | 51.79318 | 8.87981 | 76° | 35km/h | 518m | -4m/s | 16.8°C | 81.8% | 957.3hPa | 2.8V | 07:38:24 | 03:08:47 | 00:00:00 | |
| BIOWL1-15 | 2026-08-30 13:26:37 | 51.79315 | 8.87967 | 72° | 38km/h | 522m | -3.6m/s | 16.8°C | 82.1% | 956.8hPa | 2.8V | 07:38:24 | 03:08:46 | 00:00:00 | |
| DO2JMG | 2026-08-30 13:26:35 | 51.79309 | 8.87938 | 68° | 38km/h | 529m | -3.2m/s | 16.7°C | 82% | 956hPa | 2.8V | 07:38:24 | 03:08:44 | 00:00:00 | |
| DO2JMG | 2026-08-30 13:26:34 | 51.79305 | 8.87923 | 64° | 40km/h | 532m | -3.5m/s | 16.7°C | 82% | 955.6hPa | 2.8V | 07:38:24 | 03:08:43 | 00:00:00 | |
| DO2JMG | 2026-08-30 13:26:33 | 51.79300 | 8.87909 | 62° | 40km/h | 536m | -3.5m/s | 16.7°C | 82.6% | 955.1hPa | 2.8V | 07:38:24 | 03:08:42 | 00:00:00 | |
| DM0DOS-11 | 2026-08-30 13:26:32 | 51.79274 | 8.87832 | 63° | 31km/h | 555m | -2.9m/s | 16.5°C | 78.2% | 953.2hPa | 2.8V | 07:38:30 | 03:08:36 | 00:00:00 | |
| BIOWL1-15 | 2026-08-30 13:26:32 | 51.79296 | 8.87894 | 62° | 40km/h | 539m | -3.5m/s | 16.6°C | 82.8% | 954.8hPa | 2.8V | 07:39:15 | 03:08:41 | 00:00:00 | |
| DO2JMG | 2026-08-30 13:26:31 | 51.79291 | 8.87880 | 61° | 38km/h | 543m | -3.6m/s | 16.6°C | 82.6% | 954.5hPa | 2.8V | 07:39:15 | 03:08:40 | 00:00:00 | |
| DO2JMG | 2026-08-30 13:26:29 | 51.79282 | 8.87855 | 60° | 33km/h | 549m | -3.4m/s | 16.6°C | 82.7% | 953.6hPa | 2.8V | 07:39:15 | 03:08:38 | 00:00:00 | |
| DO2JMG | 2026-08-30 13:26:27 | 51.79275 | 8.87832 | 64° | 31km/h | 555m | -2.9m/s | 16.5°C | 82.7% | 953.2hPa | 2.8V | 07:39:15 | 03:08:36 | 00:00:00 | |
| DK9SH | 2026-08-30 13:26:26 | 51.79274 | 8.87832 | 65° | 31km/h | 555m | -2.9m/s | 16.5°C | 78.1% | 953.2hPa | 2.8V | 07:39:00 | 00:00:00 | 00:00:00 | |
| DM0DOS-11 | 2026-08-30 13:26:26 | 51.79263 | 8.87785 | 71° | 33km/h | 567m | -2.8m/s | 16.4°C | 78.6% | 951.9hPa | 2.8V | 07:38:34 | 03:08:32 | 00:00:00 | |
| DO2JMG | 2026-08-30 13:26:25 | 51.79268 | 8.87810 | 69° | 31km/h | 561m | -2.7m/s | 16.4°C | 82.6% | 952.4hPa | 2.8V | 07:39:15 | 03:08:34 | 00:00:00 | |
| DO2JMG | 2026-08-30 13:26:24 | 51.79266 | 8.87798 | 73° | 31km/h | 564m | -2.7m/s | 16.4°C | 82.9% | 952.1hPa | 2.7V | 07:39:15 | 03:08:33 | 00:00:00 | |
| DO2JMG | 2026-08-30 13:26:23 | 51.79263 | 8.87785 | 72° | 33km/h | 567m | -2.8m/s | 16.4°C | 82.9% | 951.9hPa | 2.8V | 07:39:15 | 03:08:32 | 00:00:00 | |
| BIOWL1-15 | 2026-08-30 13:26:22 | 51.79260 | 8.87772 | 69° | 35km/h | 569m | -2.2m/s | 16.4°C | 82.8% | 951.6hPa | 2.8V | 07:39:15 | 03:08:31 | 00:00:00 | |
| DO2JMG | 2026-08-30 13:26:21 | 51.79257 | 8.87759 | 70° | 35km/h | 572m | -3.5m/s | 16.3°C | 82.4% | 951.3hPa | 2.8V | 07:39:15 | 03:08:30 | 00:00:00 | |
| BIOWL1-15 | 2026-08-30 13:26:20 | 51.79247 | 8.87705 | 75° | 37km/h | 583m | -3.1m/s | 16.3°C | 82.6% | 950hPa | 2.8V | 07:39:15 | 03:08:26 | 00:00:00 | |
| DO2JMG | 2026-08-30 13:26:19 | 51.79252 | 8.87733 | 73° | 33km/h | 578m | -2.6m/s | 16.3°C | 82% | 950.6hPa | 2.8V | 07:39:15 | 03:08:28 | 00:00:00 | |
| DO2JMG | 2026-08-30 13:26:18 | 51.79250 | 8.87719 | 75° | 37km/h | 580m | -2.8m/s | 16.3°C | 82.4% | 950.3hPa | 2.8V | 07:39:15 | 03:08:27 | 00:00:00 | |
| DO2JMG | 2026-08-30 13:26:16 | 51.79245 | 8.87691 | 74° | 37km/h | 586m | -3.1m/s | 16.2°C | 83.1% | 949.7hPa | 2.8V | 07:39:15 | 03:08:25 | 00:00:00 | |
| DO2JMG | 2026-08-30 13:26:15 | 51.79242 | 8.87677 | 73° | 35km/h | 589m | -2.7m/s | 16.2°C | 83.8% | 949.4hPa | 2.8V | 07:39:15 | 03:08:24 | 00:00:00 | |
| BIOWL1-15 | 2026-08-30 13:26:14 | 51.79240 | 8.87663 | 76° | 37km/h | 592m | -3.5m/s | 16.2°C | 84.4% | 949.1hPa | 2.8V | 07:39:15 | 03:08:23 | 00:00:00 | |
| DO2JMG | 2026-08-30 13:26:13 | 51.79238 | 8.87648 | 76° | 37km/h | 596m | -4.3m/s | 16.1°C | 84.6% | 948.7hPa | 2.8V | 07:39:15 | 03:08:22 | 00:00:00 | |
| DO2JMG | 2026-08-30 13:26:12 | 51.79235 | 8.87634 | 75° | 38km/h | 600m | -4.1m/s | 16.1°C | 84.8% | 948.1hPa | 2.7V | 07:39:15 | 03:08:21 | 00:00:00 | |
| DO2JMG | 2026-08-30 13:26:10 | 51.79230 | 8.87603 | 72° | 38km/h | 608m | -4m/s | 16°C | 85.2% | 947.1hPa | 2.8V | 07:39:15 | 03:08:19 | 00:00:00 | |
| BIOWL1-15 | 2026-08-30 13:26:09 | 51.79227 | 8.87588 | 73° | 42km/h | 612m | -3.7m/s | 16°C | 85.3% | 946.8hPa | 2.8V | 07:39:15 | 03:08:18 | 00:00:00 | |
| DO2JMG | 2026-08-30 13:26:08 | 51.79224 | 8.87572 | 73° | 40km/h | 615m | -3.7m/s | 15.9°C | 85.6% | 946.3hPa | 2.8V | 07:39:15 | 03:08:17 | 00:00:00 | |
| DO2JMG | 2026-08-30 13:26:06 | 51.79218 | 8.87542 | 72° | 37km/h | 623m | -4.1m/s | 15.9°C | 86.1% | 945.6hPa | 2.8V | 07:39:15 | 03:08:15 | 00:00:00 | |
| DO2JMG | 2026-08-30 13:26:05 | 51.79215 | 8.87527 | 72° | 38km/h | 627m | -4.5m/s | 15.8°C | 85.8% | 945hPa | 2.8V | 07:39:15 | 03:08:14 | 00:00:00 | |
| DO2JMG | 2026-08-30 13:26:03 | 51.79208 | 8.87497 | 68° | 42km/h | 634m | -3.3m/s | 15.7°C | 86.2% | 944.3hPa | 2.8V | 07:39:15 | 03:08:12 | 00:00:00 | |
| DO2JMG | 2026-08-30 13:26:02 | 51.79204 | 8.87481 | 65° | 40km/h | 638m | -3.1m/s | 15.7°C | 86.2% | 944hPa | 2.8V | 07:39:15 | 03:08:11 | 00:00:00 | |
| BIOWL1-15 | 2026-08-30 13:26:01 | 51.79196 | 8.87453 | 67° | 37km/h | 644m | -3.2m/s | 15.6°C | 85% | 943.2hPa | 2.8V | 07:39:15 | 03:08:09 | 00:00:00 | |
| DO2JMG | 2026-08-30 13:26:01 | 51.79200 | 8.87467 | 65° | 38km/h | 640m | -2.9m/s | 15.6°C | 86.1% | 943.5hPa | 2.7V | 07:39:15 | 03:08:10 | 00:00:00 | |
| BIOWL9-15 | 2026-08-30 13:25:59 | 51.79193 | 8.87440 | 72° | 33km/h | 646m | -3.0m/s | 0°C | -1.0% | -1.0hPa | 2.8V | 00:00:00 | 00:00:00 | 00:00:00 | |
| DO2JMG | 2026-08-30 13:25:59 | 51.79193 | 8.87440 | 73° | 35km/h | 646m | -3m/s | 15.6°C | 85.6% | 942.8hPa | 2.8V | 07:39:15 | 03:08:08 | 00:00:00 | |
| BIOWL7-15 | 2026-08-30 13:25:58 | 51.79193 | 8.87440 | 74° | 35km/h | 646m | -3.0m/s | 15.6°C | 80.9% | 942.8hPa | 2.8V | 00:00:00 | 00:00:00 | 00:00:00 | |
| DM0DOS-11 | 2026-08-30 13:25:58 | 51.79186 | 8.87379 | 81° | 44km/h | 660m | -3.8m/s | 15.4°C | 80.1% | 941.5hPa | 2.8V | 07:39:02 | 03:08:04 | 00:00:00 | |
| DO2JMG | 2026-08-30 13:25:57 | 51.79189 | 8.87412 | 80° | 37km/h | 653m | -3.4m/s | 15.5°C | 86.7% | 942.2hPa | 2.8V | 07:39:15 | 03:08:06 | 00:00:00 | |
| DO2JMG | 2026-08-30 13:25:56 | 51.79187 | 8.87396 | 81° | 40km/h | 657m | -3.3m/s | 15.4°C | 85.6% | 941.8hPa | 2.8V | 07:39:15 | 03:08:05 | 00:00:00 | |
| DO2JMG | 2026-08-30 13:25:55 | 51.79186 | 8.87379 | 82° | 44km/h | 660m | -3.8m/s | 15.4°C | 84.4% | 941.5hPa | 2.8V | 07:39:15 | 03:08:04 | 00:00:00 | |
| BIOWL1-15 | 2026-08-30 13:25:54 | 51.79184 | 8.87361 | 80° | 46km/h | 664m | -3.7m/s | 15.4°C | 81.4% | 941hPa | 2.8V | 07:39:15 | 03:08:03 | 00:00:00 | |
| BIOWL1-15 | 2026-08-30 13:25:53 | 51.79182 | 8.87343 | 79° | 47km/h | 668m | -3.7m/s | 15.4°C | 81% | 940.6hPa | 2.8V | 07:39:15 | 03:08:02 | 00:00:00 | |
| BIOWL1-15 | 2026-08-30 13:25:51 | 51.79160 | 8.87220 | 75° | 44km/h | 690m | -3m/s | 15.2°C | 82.5% | 938hPa | 2.8V | 07:39:15 | 03:07:55 | 00:00:00 | |
| DO2JMG | 2026-08-30 13:25:51 | 51.79177 | 8.87306 | 75° | 46km/h | 674m | -3.2m/s | 15.3°C | 82.3% | 939.7hPa | 2.8V | 07:39:15 | 03:08:00 | 00:00:00 | |
| DO2JMG | 2026-08-30 13:25:50 | 51.79173 | 8.87288 | 73° | 44km/h | 677m | -3.2m/s | 15.3°C | 81.2% | 939.6hPa | 2.7V | 07:39:15 | 03:07:59 | 00:00:00 | |
| DO2JMG | 2026-08-30 13:25:49 | 51.79170 | 8.87271 | 72° | 44km/h | 681m | -3.1m/s | 15.3°C | 81.8% | 939hPa | 2.8V | 07:39:15 | 03:07:58 | 00:00:00 | |
| DO2JMG | 2026-08-30 13:25:47 | 51.79164 | 8.87237 | 73° | 44km/h | 687m | -3.1m/s | 15.2°C | 82.4% | 938.2hPa | 2.8V | 07:39:15 | 03:07:56 | 00:00:00 | |
| DO2JMG | 2026-08-30 13:25:45 | 51.79157 | 8.87203 | 74° | 46km/h | 693m | -3.1m/s | 15.1°C | 83% | 937.6hPa | 2.8V | 07:39:15 | 03:07:54 | 00:00:00 | |
| BIOWL1-15 | 2026-08-30 13:25:44 | 51.79154 | 8.87185 | 75° | 44km/h | 696m | -3.3m/s | 15.1°C | 82.8% | 937.2hPa | 2.8V | 07:39:15 | 03:07:53 | 00:00:00 | |
| DO2JMG | 2026-08-30 13:25:43 | 51.79151 | 8.87168 | 72° | 44km/h | 700m | -3.6m/s | 15.1°C | 82.8% | 937hPa | 2.8V | 07:39:15 | 03:07:52 | 00:00:00 | |
| DO2JMG | 2026-08-30 13:25:41 | 51.79146 | 8.87135 | 78° | 42km/h | 707m | -3.7m/s | 15°C | 84.2% | 936.2hPa | 2.8V | 07:40:06 | 03:07:50 | 00:00:00 | |
| DO2JMG | 2026-08-30 13:25:40 | 51.79144 | 8.87118 | 80° | 42km/h | 711m | -4m/s | 14.9°C | 84.4% | 935.7hPa | 2.8V | 07:40:06 | 03:07:49 | 00:00:00 | |
| DM0DOS-11 | 2026-08-30 13:25:39 | 51.79142 | 8.87101 | 81° | 44km/h | 715m | -4m/s | 14.9°C | 79.7% | 935.5hPa | 2.7V | 07:39:18 | 03:07:48 | 00:00:00 | |
| DO2JMG | 2026-08-30 13:25:38 | 51.79140 | 8.87083 | 81° | 44km/h | 719m | -4m/s | 14.9°C | 84.7% | 934.8hPa | 2.8V | 07:40:06 | 03:07:47 | 00:00:00 | |
| DO2JMG | 2026-08-30 13:25:37 | 51.79138 | 8.87065 | 81° | 46km/h | 723m | -4m/s | 14.8°C | 84.5% | 934.5hPa | 2.8V | 07:40:06 | 03:07:46 | 00:00:00 | |
| BIOWL1-15 | 2026-08-30 13:25:36 | 51.79133 | 8.87010 | 81° | 47km/h | 735m | -4.2m/s | 14.8°C | 83.8% | 933.1hPa | 2.8V | 07:40:06 | 03:07:43 | 00:00:00 | |
| DO2JMG | 2026-08-30 13:25:35 | 51.79135 | 8.87029 | 83° | 46km/h | 731m | -4m/s | 14.8°C | 84.7% | 933.5hPa | 2.8V | 07:40:06 | 03:07:44 | 00:00:00 | |
| DM0DOS-11 | 2026-08-30 13:25:34 | 51.79125 | 8.86951 | 72° | 47km/h | 746m | -3.9m/s | 14.7°C | 79.6% | 931.8hPa | 2.8V | 07:39:26 | 03:07:40 | 00:00:00 | |
| DM0DOS-11 | 2026-08-30 13:25:34 | 51.79117 | 8.86915 | 71° | 46km/h | 754m | -3.8m/s | 14.7°C | 76.9% | 931hPa | 2.8V | 07:39:28 | 03:07:38 | 00:00:00 | |
| DO2JMG | 2026-08-30 13:25:33 | 51.79131 | 8.86990 | 78° | 49km/h | 739m | -3.8m/s | 14.7°C | 82.9% | 932.8hPa | 2.8V | 07:40:06 | 03:07:42 | 00:00:00 | |
| BIOWL1-15 | 2026-08-30 13:25:32 | 51.79128 | 8.86970 | 75° | 49km/h | 743m | -3.6m/s | 14.7°C | 84.4% | 932.2hPa | 2.8V | 07:40:06 | 03:07:41 | 00:00:00 | |
| DO2JMG | 2026-08-30 13:25:31 | 51.79125 | 8.86951 | 73° | 47km/h | 746m | -3.9m/s | 14.7°C | 83.4% | 931.8hPa | 2.8V | 07:40:06 | 03:07:40 | 00:00:00 | |
| BIOWL1-15 | 2026-08-30 13:25:30 | 51.79121 | 8.86933 | 71° | 47km/h | 750m | -3.8m/s | 14.7°C | 81% | 931.4hPa | 2.8V | 07:40:06 | 03:07:39 | 00:00:00 | |
| DO2JMG | 2026-08-30 13:25:29 | 51.79117 | 8.86915 | 72° | 46km/h | 754m | -3.8m/s | 14.7°C | 81.1% | 931hPa | 2.8V | 07:40:06 | 03:07:38 | 00:00:00 | |
| BIOWL1-15 | 2026-08-30 13:25:28 | 51.79114 | 8.86898 | 74° | 44km/h | 758m | -3.9m/s | 14.6°C | 81.1% | 930.6hPa | 2.7V | 07:40:06 | 03:07:37 | 00:00:00 | |
| DO2JMG | 2026-08-30 13:25:27 | 51.79111 | 8.86880 | 76° | 44km/h | 762m | -3.8m/s | 14.6°C | 81.3% | 930.2hPa | 2.8V | 07:40:06 | 03:07:36 | 00:00:00 | |
| BIOWL1-15 | 2026-08-30 13:25:26 | 51.79106 | 8.86844 | 79° | 47km/h | 769m | -3.7m/s | 14.5°C | 81.5% | 929.4hPa | 2.8V | 07:40:06 | 03:07:34 | 00:00:00 | |
| DO2JMG | 2026-08-30 13:25:26 | 51.79108 | 8.86863 | 78° | 46km/h | 766m | -3.8m/s | 14.6°C | 81.3% | 929.8hPa | 2.8V | 07:40:06 | 03:07:35 | 00:00:00 | |
| DO2JMG | 2026-08-30 13:25:24 | 51.79104 | 8.86825 | 78° | 49km/h | 773m | -4m/s | 14.5°C | 82.2% | 928.8hPa | 2.8V | 07:40:06 | 03:07:33 | 00:00:00 | |
| DO2JMG | 2026-08-30 13:25:22 | 51.79098 | 8.86786 | 75° | 49km/h | 781m | -4.2m/s | 14.4°C | 82.1% | 928hPa | 2.8V | 07:40:06 | 03:07:31 | 00:00:00 | |
| DO2JMG | 2026-08-30 13:25:21 | 51.79094 | 8.86767 | 73° | 49km/h | 785m | -3.8m/s | 14.3°C | 82.2% | 927.6hPa | 2.8V | 07:40:06 | 03:07:30 | 00:00:00 | |
| BIOWL1-15 | 2026-08-30 13:25:19 | 51.79054 | 8.86553 | 72° | 44km/h | 827m | -3.4m/s | 14.1°C | 81.2% | 922.9hPa | 2.8V | 07:40:06 | 03:07:19 | 00:00:00 | |
| DO2JMG | 2026-08-30 13:25:19 | 51.79087 | 8.86729 | 76° | 49km/h | 793m | -3.7m/s | 14.3°C | 82.8% | 926.6hPa | 2.7V | 07:40:06 | 03:07:28 | 00:00:00 | |
| DO2JMG | 2026-08-30 13:25:17 | 51.79081 | 8.86689 | 77° | 51km/h | 800m | -3.7m/s | 14.2°C | 83.3% | 925.8hPa | 2.8V | 07:40:06 | 03:07:26 | 00:00:00 | |
| DO2JMG | 2026-08-30 13:25:16 | 51.79078 | 8.86668 | 75° | 53km/h | 804m | -4m/s | 14.3°C | 82.5% | 925.6hPa | 2.8V | 07:40:06 | 03:07:25 | 00:00:00 | |
| DO2JMG | 2026-08-30 13:25:14 | 51.79070 | 8.86627 | 71° | 51km/h | 813m | -4.3m/s | 14.2°C | 82.4% | 924.7hPa | 2.8V | 07:40:06 | 03:07:23 | 00:00:00 | |
| DO2JMG | 2026-08-30 13:25:12 | 51.79062 | 8.86589 | 70° | 47km/h | 821m | -3.7m/s | 14.1°C | 81.1% | 923.7hPa | 2.8V | 07:40:06 | 03:07:21 | 00:00:00 | |
| DO2JMG | 2026-08-30 13:25:11 | 51.79058 | 8.86571 | 71° | 46km/h | 824m | -3.4m/s | 14.1°C | 81.3% | 923.4hPa | 2.8V | 07:40:06 | 03:07:20 | 00:00:00 | |
| DO2JMG | 2026-08-30 13:25:09 | 51.79051 | 8.86536 | 75° | 46km/h | 831m | -3.6m/s | 14°C | 81.6% | 922.6hPa | 2.8V | 07:40:06 | 03:07:18 | 00:00:00 | |
| DO2JMG | 2026-08-30 13:25:07 | 51.79046 | 8.86500 | 79° | 47km/h | 838m | -3.6m/s | 14°C | 81.8% | 921.7hPa | 2.8V | 07:40:06 | 03:07:16 | 00:00:00 | |
| DM0DOS-11 | 2026-08-30 13:25:06 | 51.79036 | 8.86422 | 77° | 47km/h | 853m | -3.9m/s | 13.8°C | 77.7% | 920.2hPa | 2.8V | 07:39:54 | 03:07:12 | 00:00:00 | |
| DO2JMG | 2026-08-30 13:25:05 | 51.79041 | 8.86461 | 78° | 49km/h | 845m | -3.7m/s | 13.9°C | 82% | 921hPa | 2.8V | 07:40:06 | 03:07:14 | 00:00:00 | |
| DO2JMG | 2026-08-30 13:25:04 | 51.79038 | 8.86441 | 77° | 49km/h | 849m | -3.8m/s | 13.9°C | 81.9% | 920.5hPa | 2.8V | 07:40:06 | 03:07:13 | 00:00:00 | |
| DO2JMG | 2026-08-30 13:25:03 | 51.79036 | 8.86422 | 77° | 47km/h | 853m | -3.9m/s | 13.9°C | 82% | 920.2hPa | 2.8V | 07:40:06 | 03:07:12 | 00:00:00 | |
| BIOWL1-15 | 2026-08-30 13:25:02 | 51.79033 | 8.86403 | 77° | 49km/h | 857m | -3.9m/s | 13.8°C | 82.7% | 919.7hPa | 2.8V | 07:40:06 | 03:07:11 | 00:00:00 | |
| DO2JMG | 2026-08-30 13:25:01 | 51.79030 | 8.86383 | 79° | 49km/h | 860m | -3.8m/s | 13.8°C | 83.5% | 919.5hPa | 2.8V | 07:40:06 | 03:07:10 | 00:00:00 | |
| DM0DOS-11 | 2026-08-30 13:25:00 | 51.79025 | 8.86342 | 77° | 53km/h | 868m | -3.7m/s | 13.7°C | 80.1% | 918.5hPa | 2.8V | 07:39:58 | 03:07:08 | 00:00:00 | |
| DO2JMG | 2026-08-30 13:24:59 | 51.79025 | 8.86342 | 78° | 53km/h | 868m | -3.7m/s | 13.7°C | 84.4% | 918.5hPa | 2.8V | 07:40:06 | 03:07:08 | 00:00:00 | |
| DO2JMG | 2026-08-30 13:24:58 | 51.79022 | 8.86321 | 77° | 55km/h | 872m | -3.7m/s | 13.7°C | 83.4% | 918.2hPa | 2.7V | 07:40:06 | 03:07:07 | 00:00:00 | |
| DO2JMG | 2026-08-30 13:24:57 | 51.79019 | 8.86299 | 74° | 55km/h | 875m | -3.5m/s | 13.7°C | 83.4% | 917.8hPa | 2.8V | 07:40:06 | 03:07:06 | 00:00:00 | |
| DO2JMG | 2026-08-30 13:24:56 | 51.79015 | 8.86278 | 73° | 53km/h | 879m | -3.7m/s | 13.7°C | 83.2% | 917.3hPa | 2.8V | 07:40:06 | 03:07:05 | 00:00:00 | |
| DO2JMG | 2026-08-30 13:24:55 | 51.79011 | 8.86258 | 73° | 51km/h | 882m | -3.8m/s | 13.7°C | 82.3% | 917hPa | 2.8V | 07:40:06 | 03:07:04 | 00:00:00 | |
| BIOWL1-15 | 2026-08-30 13:24:54 | 51.79007 | 8.86238 | 74° | 49km/h | 886m | -3.9m/s | 13.6°C | 82.7% | 916.6hPa | 2.8V | 07:40:06 | 03:07:03 | 00:00:00 | |
| DO2JMG | 2026-08-30 13:24:53 | 51.79004 | 8.86219 | 76° | 49km/h | 890m | -3.8m/s | 13.6°C | 83% | 916.2hPa | 2.8V | 07:40:06 | 03:07:02 | 00:00:00 | |
| BIOWL1-15 | 2026-08-30 13:24:52 | 51.79001 | 8.86199 | 79° | 49km/h | 894m | -4m/s | 13.6°C | 83% | 915.9hPa | 2.8V | 07:40:06 | 03:07:01 | 00:00:00 | |
| DO2JMG | 2026-08-30 13:24:51 | 51.78999 | 8.86179 | 81° | 51km/h | 898m | -3.9m/s | 13.5°C | 83.5% | 915.4hPa | 2.7V | 07:40:06 | 03:07:00 | 00:00:00 | |
| DO2JMG | 2026-08-30 13:24:49 | 51.78994 | 8.86136 | 80° | 55km/h | 906m | -4m/s | 13.4°C | 83.8% | 914.5hPa | 2.8V | 07:40:57 | 03:06:58 | 00:00:00 | |
| DO2JMG | 2026-08-30 13:24:48 | 51.78992 | 8.86114 | 78° | 57km/h | 910m | -4.3m/s | 13.4°C | 84.7% | 914.1hPa | 2.7V | 07:40:57 | 03:06:57 | 00:00:00 | |
| BIOWL1-15 | 2026-08-30 13:24:46 | 51.78985 | 8.86069 | 76° | 57km/h | 918m | -4.4m/s | 13.3°C | 84.4% | 913.2hPa | 2.8V | 07:40:57 | 03:06:55 | 00:00:00 | |
| DO2JMG | 2026-08-30 13:24:45 | 51.78982 | 8.86047 | 74° | 57km/h | 922m | -3.7m/s | 13.3°C | 84.2% | 912.8hPa | 2.8V | 07:40:57 | 03:06:54 | 00:00:00 | |
| DO2JMG | 2026-08-30 13:24:44 | 51.78977 | 8.86026 | 73° | 55km/h | 926m | -3.8m/s | 13.3°C | 85.7% | 912.3hPa | 2.8V | 07:40:57 | 03:06:53 | 00:00:00 | |
| DO2JMG | 2026-08-30 13:24:42 | 51.78969 | 8.85984 | 72° | 51km/h | 934m | -3.7m/s | 13.2°C | 84.3% | 911.5hPa | 2.8V | 07:40:57 | 03:06:51 | 00:00:00 | |
| BIOWL1-15 | 2026-08-30 13:24:41 | 51.78965 | 8.85965 | 73° | 51km/h | 937m | -3.9m/s | 13.1°C | 84.5% | 911.2hPa | 2.8V | 07:40:57 | 03:06:50 | 00:00:00 | |
| DO2JMG | 2026-08-30 13:24:40 | 51.78962 | 8.85945 | 74° | 49km/h | 941m | -3.9m/s | 13.1°C | 84.7% | 910.9hPa | 2.7V | 07:40:57 | 03:06:49 | 00:00:00 | |
| DO2JMG | 2026-08-30 13:24:39 | 51.78958 | 8.85925 | 74° | 51km/h | 945m | -4m/s | 13.1°C | 84.7% | 910.5hPa | 2.7V | 07:40:57 | 03:06:48 | 00:00:00 | |
| BIOWL1-15 | 2026-08-30 13:24:38 | 51.78954 | 8.85906 | 74° | 49km/h | 949m | -3.9m/s | 13°C | 84.7% | 909.8hPa | 2.7V | 07:40:57 | 03:06:47 | 00:00:00 | |
| DO2JMG | 2026-08-30 13:24:37 | 51.78951 | 8.85886 | 73° | 49km/h | 953m | -3.8m/s | 13°C | 84.9% | 909.5hPa | 2.8V | 07:40:57 | 03:06:46 | 00:00:00 | |
| DO2JMG | 2026-08-30 13:24:35 | 51.78944 | 8.85849 | 75° | 46km/h | 960m | -3.9m/s | 12.9°C | 85% | 908.7hPa | 2.7V | 07:40:57 | 03:06:44 | 00:00:00 | |
| BIOWL1-15 | 2026-08-30 13:24:34 | 51.78941 | 8.85831 | 76° | 47km/h | 964m | -4.1m/s | 12.9°C | 85.5% | 908.2hPa | 2.7V | 07:40:57 | 03:06:43 | 00:00:00 | |
| DO2JMG | 2026-08-30 13:24:33 | 51.78938 | 8.85812 | 77° | 49km/h | 968m | -3.9m/s | 12.9°C | 84.9% | 907.8hPa | 2.8V | 07:40:57 | 03:06:42 | 00:00:00 | |
| DO2JMG | 2026-08-30 13:24:31 | 51.78932 | 8.85770 | 76° | 53km/h | 976m | -3.9m/s | 12.8°C | 85.2% | 907hPa | 2.8V | 07:40:57 | 03:06:40 | 00:00:00 | |
| DO2JMG | 2026-08-30 13:24:30 | 51.78929 | 8.85749 | 76° | 53km/h | 980m | -3.9m/s | 12.8°C | 85.4% | 906.7hPa | 2.7V | 07:40:57 | 03:06:39 | 00:00:00 | |
| DO2JMG | 2026-08-30 13:24:29 | 51.78925 | 8.85728 | 76° | 53km/h | 984m | -4m/s | 12.8°C | 85.4% | 906.2hPa | 2.7V | 07:40:57 | 03:06:38 | 00:00:00 | |
| BIOWL1-15 | 2026-08-30 13:24:28 | 51.78911 | 8.85622 | 77° | 57km/h | 1003m | -4.1m/s | 12.6°C | 86.3% | 904hPa | 2.8V | 07:40:57 | 03:06:33 | 00:00:00 | |
| DO2JMG | 2026-08-30 13:24:27 | 51.78919 | 8.85686 | 78° | 51km/h | 992m | -3.9m/s | 12.7°C | 86% | 905.4hPa | 2.8V | 07:40:57 | 03:06:36 | 00:00:00 | |
| DO2JMG | 2026-08-30 13:24:25 | 51.78914 | 8.85644 | 79° | 55km/h | 999m | -4.1m/s | 12.6°C | 86.3% | 904.5hPa | 2.7V | 07:40:57 | 03:06:34 | 00:00:00 | |
| DO2JMG | 2026-08-30 13:24:23 | 51.78907 | 8.85600 | 74° | 57km/h | 1007m | -3.7m/s | 12.5°C | 86.2% | 903.6hPa | 2.8V | 07:40:57 | 03:06:32 | 00:00:00 | |
| DD1CC3-15 | 2026-08-30 13:24:22 | 51.78907 | 8.85600 | 75° | 57km/h | 1007m | -3.7m/s | 12.5°C | 81.6% | 903.6hPa | 2.7V | 07:40:00 | 00:00:00 | 00:00:00 | |
| DM0DOS-11 | 2026-08-30 13:24:22 | 51.78889 | 8.85518 | 69° | 49km/h | 1023m | -3.9m/s | 12.4°C | 82% | 901.9hPa | 2.7V | 07:40:38 | 03:06:28 | 00:00:00 | |
| BIOWL1-15 | 2026-08-30 13:24:22 | 51.78893 | 8.85537 | 68° | 51km/h | 1019m | -4.1m/s | 12.4°C | 86.4% | 902.4hPa | 2.8V | 07:40:57 | 03:06:29 | 00:00:00 | |
| DO2JMG | 2026-08-30 13:24:21 | 51.78898 | 8.85557 | 69° | 53km/h | 1015m | -3.8m/s | 12.5°C | 86.2% | 902.8hPa | 2.8V | 07:40:57 | 03:06:30 | 00:00:00 | |
| DO2JMG | 2026-08-30 13:24:19 | 51.78889 | 8.85518 | 70° | 49km/h | 1023m | -3.9m/s | 12.4°C | 86.5% | 901.9hPa | 2.7V | 07:40:57 | 03:06:28 | 00:00:00 | |
| DO2JMG | 2026-08-30 13:24:18 | 51.78885 | 8.85500 | 73° | 47km/h | 1027m | -3.9m/s | 12.4°C | 86.7% | 901.4hPa | 2.8V | 07:40:57 | 03:06:27 | 00:00:00 | |
| BIOWL1-15 | 2026-08-30 13:24:17 | 51.78882 | 8.85481 | 76° | 49km/h | 1031m | -4m/s | 12.3°C | 86.7% | 901.1hPa | 2.7V | 07:40:57 | 03:06:26 | 00:00:00 | |
| DO2JMG | 2026-08-30 13:24:16 | 51.78879 | 8.85461 | 78° | 51km/h | 1034m | -3.8m/s | 12.3°C | 86.9% | 900.7hPa | 2.7V | 07:40:57 | 03:06:25 | 00:00:00 | |
| DO2JMG | 2026-08-30 13:24:15 | 51.78876 | 8.85440 | 78° | 53km/h | 1038m | -4.1m/s | 12.3°C | 87.2% | 900.2hPa | 2.8V | 07:40:57 | 03:06:24 | 00:00:00 | |
| DO2JMG | 2026-08-30 13:24:14 | 51.78873 | 8.85418 | 77° | 57km/h | 1042m | -3.8m/s | 12.2°C | 87.9% | 899.8hPa | 2.7V | 07:40:57 | 03:06:23 | 00:00:00 | |
| BIOWL1-15 | 2026-08-30 13:24:13 | 51.78870 | 8.85396 | 75° | 57km/h | 1046m | -3.9m/s | 12.2°C | 87.5% | 899.5hPa | 2.7V | 07:40:57 | 03:06:22 | 00:00:00 | |
| DO2JMG | 2026-08-30 13:24:12 | 51.78866 | 8.85373 | 73° | 58km/h | 1050m | -4m/s | 12.2°C | 87.4% | 899.1hPa | 2.7V | 07:40:57 | 03:06:21 | 00:00:00 | |
| BIOWL1-15 | 2026-08-30 13:24:11 | 51.78861 | 8.85351 | 71° | 57km/h | 1054m | -4m/s | 12.2°C | 87.3% | 898.6hPa | 2.7V | 07:40:57 | 03:06:20 | 00:00:00 | |
| DM0DOS-11 | 2026-08-30 13:24:11 | 51.78838 | 8.85227 | 76° | 53km/h | 1077m | -4m/s | 11.9°C | 83.8% | 896.1hPa | 2.7V | 07:40:52 | 03:06:14 | 00:00:00 | |
| DO2JMG | 2026-08-30 13:24:10 | 51.78857 | 8.85329 | 72° | 57km/h | 1058m | -4m/s | 12.1°C | 87.4% | 898.2hPa | 2.7V | 07:40:57 | 03:06:19 | 00:00:00 | |
| DO2JMG | 2026-08-30 13:24:09 | 51.78852 | 8.85308 | 71° | 55km/h | 1062m | -3.8m/s | 12.1°C | 87.2% | 897.8hPa | 2.8V | 07:40:57 | 03:06:18 | 00:00:00 | |
| BIOWL1-15 | 2026-08-30 13:24:08 | 51.78848 | 8.85287 | 72° | 51km/h | 1066m | -3.6m/s | 12°C | 87.3% | 897.5hPa | 2.7V | 07:40:57 | 03:06:17 | 00:00:00 | |
| DO2JMG | 2026-08-30 13:24:07 | 51.78844 | 8.85267 | 74° | 51km/h | 1070m | -3.4m/s | 12°C | 87.7% | 897.1hPa | 2.7V | 07:40:57 | 03:06:16 | 00:00:00 | |
| DO2JMG | 2026-08-30 13:24:06 | 51.78841 | 8.85248 | 76° | 49km/h | 1073m | -3.8m/s | 12°C | 87.8% | 896.4hPa | 2.7V | 07:40:57 | 03:06:15 | 00:00:00 | |
| BIOWL1-15 | 2026-08-30 13:24:05 | 51.78838 | 8.85227 | 77° | 53km/h | 1077m | -4m/s | 11.9°C | 88.1% | 896.1hPa | 2.7V | 07:40:57 | 03:06:14 | 00:00:00 | |
| DM0DOS-11 | 2026-08-30 13:24:04 | 51.78823 | 8.85140 | 70° | 57km/h | 1092m | -3.9m/s | 11.8°C | 84.9% | 894.5hPa | 2.7V | 07:40:56 | 03:06:10 | 00:00:00 | |
| DO2JMG | 2026-08-30 13:24:04 | 51.78835 | 8.85206 | 77° | 55km/h | 1081m | -3.8m/s | 11.9°C | 88.8% | 895.7hPa | 2.7V | 07:40:57 | 03:06:13 | 00:00:00 | |
| DO2JMG | 2026-08-30 13:24:02 | 51.78827 | 8.85162 | 73° | 57km/h | 1088m | -4m/s | 11.8°C | 88.5% | 894.9hPa | 2.7V | 07:40:57 | 03:06:11 | 00:00:00 | |
| DO2JMG | 2026-08-30 13:24:01 | 51.78823 | 8.85140 | 71° | 57km/h | 1092m | -3.9m/s | 11.8°C | 89% | 894.5hPa | 2.7V | 07:40:57 | 03:06:10 | 00:00:00 | |
| DO2JMG | 2026-08-30 13:23:59 | 51.78813 | 8.85097 | 69° | 55km/h | 1100m | -3.8m/s | 11.7°C | 88.7% | 893.7hPa | 2.7V | 07:41:48 | 03:06:08 | 00:00:00 | |
| DO2JMG | 2026-08-30 13:23:58 | 51.78808 | 8.85077 | 70° | 53km/h | 1104m | -3.6m/s | 11.7°C | 88.9% | 893.2hPa | 2.7V | 07:41:48 | 03:06:07 | 00:00:00 | |
| DO2JMG | 2026-08-30 13:23:57 | 51.78804 | 8.85057 | 71° | 53km/h | 1108m | -3.9m/s | 11.7°C | 88.8% | 892.8hPa | 2.7V | 07:41:48 | 03:06:06 | 00:00:00 | |
| DO2JMG | 2026-08-30 13:23:55 | 51.78795 | 8.85015 | 69° | 53km/h | 1116m | -4.1m/s | 11.6°C | 89.3% | 892hPa | 2.7V | 07:41:48 | 03:06:04 | 00:00:00 | |
| BIOWL1-15 | 2026-08-30 13:23:54 | 51.78790 | 8.84995 | 68° | 53km/h | 1120m | -4m/s | 11.6°C | 89.3% | 891.7hPa | 2.7V | 07:41:48 | 03:06:03 | 00:00:00 | |
| DO2JMG | 2026-08-30 13:23:53 | 51.78785 | 8.84975 | 69° | 51km/h | 1123m | -3.9m/s | 11.6°C | 89.6% | 891.2hPa | 2.7V | 07:41:48 | 03:06:02 | 00:00:00 | |
| BIOWL1-15 | 2026-08-30 13:23:52 | 51.78781 | 8.84956 | 71° | 51km/h | 1127m | -4m/s | 11.5°C | 89.7% | 890.7hPa | 2.7V | 07:41:48 | 03:06:01 | 00:00:00 | |
| DO2JMG | 2026-08-30 13:23:51 | 51.78777 | 8.84936 | 73° | 51km/h | 1131m | -3.7m/s | 11.5°C | 89.6% | 890.4hPa | 2.7V | 07:41:48 | 03:06:00 | 00:00:00 | |
| DO2JMG | 2026-08-30 13:23:50 | 51.78773 | 8.84915 | 75° | 53km/h | 1135m | -3.7m/s | 11.5°C | 89.9% | 889.9hPa | 2.7V | 07:41:48 | 03:05:59 | 00:00:00 | |
| BIOWL1-15 | 2026-08-30 13:23:49 | 51.78761 | 8.84850 | 72° | 57km/h | 1146m | -4m/s | 11.4°C | 90.1% | 888.8hPa | 2.7V | 07:41:48 | 03:05:56 | 00:00:00 | |
| DO2JMG | 2026-08-30 13:23:48 | 51.78765 | 8.84872 | 73° | 57km/h | 1143m | -3.8m/s | 11.4°C | 89.9% | 889hPa | 2.8V | 07:41:48 | 03:05:57 | 00:00:00 | |
| DO2JMG | 2026-08-30 13:23:46 | 51.78757 | 8.84829 | 71° | 55km/h | 1150m | -4m/s | 11.4°C | 89.9% | 888.3hPa | 2.7V | 07:41:48 | 03:05:55 | 00:00:00 | |
| DM0DOS-11 | 2026-08-30 13:23:45 | 51.78752 | 8.84807 | 71° | 55km/h | 1154m | -4.1m/s | 11.3°C | 86.2% | 887.8hPa | 2.7V | 07:41:12 | 03:05:54 | 00:00:00 | |
| BIOWL1-15 | 2026-08-30 13:23:45 | 51.78743 | 8.84764 | 72° | 57km/h | 1163m | -3.7m/s | 11.3°C | 90% | 887hPa | 2.7V | 07:41:48 | 03:05:52 | 00:00:00 | |
| DO2JMG | 2026-08-30 13:23:44 | 51.78748 | 8.84786 | 72° | 57km/h | 1159m | -4.1m/s | 11.3°C | 90% | 887.5hPa | 2.7V | 07:41:48 | 03:05:53 | 00:00:00 | |
| DO2JMG | 2026-08-30 13:23:42 | 51.78738 | 8.84742 | 70° | 57km/h | 1166m | -4m/s | 11.3°C | 90.3% | 886.7hPa | 2.7V | 07:41:48 | 03:05:51 | 00:00:00 | |
| BIOWL1-15 | 2026-08-30 13:23:41 | 51.78729 | 8.84700 | 69° | 55km/h | 1174m | -4m/s | 11.2°C | 90.5% | 885.7hPa | 2.7V | 07:41:48 | 03:05:49 | 00:00:00 | |
| DO2JMG | 2026-08-30 13:23:41 | 51.78734 | 8.84721 | 69° | 55km/h | 1170m | -4m/s | 11.2°C | 90.4% | 886.2hPa | 2.7V | 07:41:48 | 03:05:50 | 00:00:00 | |
| DM0DOS-11 | 2026-08-30 13:23:40 | 51.78724 | 8.84679 | 70° | 53km/h | 1178m | -4.1m/s | 11.2°C | 86.9% | 885.2hPa | 2.7V | 07:41:18 | 03:05:48 | 00:00:00 | |
| DM0DOS-11 | 2026-08-30 13:23:40 | 51.78715 | 8.84637 | 71° | 57km/h | 1187m | -4.1m/s | 11.1°C | 87.1% | 884.5hPa | 2.7V | 07:41:20 | 03:05:46 | 00:00:00 | |
| DO2JMG | 2026-08-30 13:23:39 | 51.78724 | 8.84679 | 71° | 53km/h | 1178m | -4.1m/s | 11.2°C | 90.6% | 885.2hPa | 2.7V | 07:41:48 | 03:05:48 | 00:00:00 | |
| DO2JMG | 2026-08-30 13:23:37 | 51.78715 | 8.84637 | 71° | 57km/h | 1187m | -4.1m/s | 11.1°C | 90.6% | 884.5hPa | 2.7V | 07:41:48 | 03:05:46 | 00:00:00 | |
| DO2JMG | 2026-08-30 13:23:36 | 51.78710 | 8.84615 | 70° | 58km/h | 1191m | -3.8m/s | 11°C | 91.1% | 883.9hPa | 2.7V | 07:41:48 | 03:05:45 | 00:00:00 | |
| DO2JMG | 2026-08-30 13:23:35 | 51.78705 | 8.84593 | 69° | 58km/h | 1195m | -3.9m/s | 11°C | 91.1% | 883.6hPa | 2.7V | 07:41:48 | 03:05:44 | 00:00:00 | |
| DO2JMG | 2026-08-30 13:23:33 | 51.78694 | 8.84550 | 66° | 55km/h | 1203m | -4.2m/s | 10.9°C | 91.5% | 882.7hPa | 2.7V | 07:41:48 | 03:05:42 | 00:00:00 | |
| DO2JMG | 2026-08-30 13:23:32 | 51.78688 | 8.84529 | 67° | 55km/h | 1207m | -4.2m/s | 10.9°C | 91.9% | 882.2hPa | 2.7V | 07:41:48 | 03:05:41 | 00:00:00 | |
| BIOWL1-15 | 2026-08-30 13:23:31 | 51.78683 | 8.84509 | 68° | 55km/h | 1211m | -4.1m/s | 10.9°C | 91.9% | 882hPa | 2.7V | 07:41:48 | 03:05:40 | 00:00:00 | |
| BIOWL1-15 | 2026-08-30 13:23:30 | 51.78678 | 8.84488 | 70° | 55km/h | 1215m | -4.2m/s | 10.8°C | 91.8% | 881.5hPa | 2.7V | 07:41:48 | 03:05:39 | 00:00:00 | |
| DO2JMG | 2026-08-30 13:23:28 | 51.78668 | 8.84445 | 69° | 57km/h | 1223m | -4.2m/s | 10.8°C | 92.3% | 880.6hPa | 2.7V | 07:41:48 | 03:05:37 | 00:00:00 | |
| BIOWL1-15 | 2026-08-30 13:23:27 | 51.78662 | 8.84423 | 68° | 57km/h | 1228m | -4.1m/s | 10.7°C | 92.3% | 880.2hPa | 2.7V | 07:41:48 | 03:05:36 | 00:00:00 | |
| DO2JMG | 2026-08-30 13:23:26 | 51.78657 | 8.84402 | 69° | 57km/h | 1232m | -4.4m/s | 10.7°C | 92.6% | 879.8hPa | 2.7V | 07:41:48 | 03:05:35 | 00:00:00 | |
| DO2JMG | 2026-08-30 13:23:25 | 51.78652 | 8.84380 | 69° | 58km/h | 1236m | -4.4m/s | 10.7°C | 92.8% | 879.2hPa | 2.7V | 07:41:48 | 03:05:34 | 00:00:00 | |
| DO2JMG | 2026-08-30 13:23:24 | 51.78647 | 8.84358 | 69° | 58km/h | 1241m | -4.4m/s | 10.6°C | 93.2% | 878.8hPa | 2.7V | 07:41:48 | 03:05:33 | 00:00:00 | |
| DO2JMG | 2026-08-30 13:23:22 | 51.78636 | 8.84313 | 68° | 58km/h | 1250m | -4.1m/s | 10.6°C | 93.7% | 878hPa | 2.7V | 07:41:48 | 03:05:31 | 00:00:00 | |
| DM0DOS-11 | 2026-08-30 13:23:20 | 51.78618 | 8.84244 | 66° | 62km/h | 1262m | -3.8m/s | 10.6°C | 90.1% | 876.6hPa | 2.7V | 07:41:38 | 03:05:28 | 00:00:00 | |
| DM0DOS-11 | 2026-08-30 13:23:20 | 51.78605 | 8.84199 | 64° | 60km/h | 1269m | -4.2m/s | 10.6°C | 89.9% | 875.7hPa | 2.7V | 07:41:40 | 03:05:26 | 00:00:00 | |
| DO2JMG | 2026-08-30 13:23:20 | 51.78624 | 8.84268 | 67° | 62km/h | 1258m | -3.8m/s | 10.6°C | 93.6% | 877hPa | 2.7V | 07:41:48 | 03:05:29 | 00:00:00 | |
| BIOWL1-15 | 2026-08-30 13:23:19 | 51.78618 | 8.84244 | 67° | 62km/h | 1262m | -3.8m/s | 10.6°C | 94% | 876.6hPa | 2.7V | 07:41:48 | 03:05:28 | 00:00:00 | |
| DO2JMG | 2026-08-30 13:23:18 | 51.78612 | 8.84221 | 66° | 62km/h | 1266m | -4.1m/s | 10.6°C | 93.9% | 876.1hPa | 2.7V | 07:41:48 | 03:05:27 | 00:00:00 | |
| BIOWL1-15 | 2026-08-30 13:23:17 | 51.78605 | 8.84199 | 65° | 60km/h | 1270m | -4.2m/s | 10.6°C | 94% | 875.7hPa | 2.7V | 07:41:48 | 03:05:26 | 00:00:00 | |
| DO2JMG | 2026-08-30 13:23:16 | 51.78599 | 8.84177 | 64° | 60km/h | 1274m | -4.2m/s | 10.5°C | 93.8% | 875.2hPa | 2.7V | 07:41:48 | 03:05:25 | 00:00:00 | |
| DO2JMG | 2026-08-30 13:23:15 | 51.78592 | 8.84155 | 63° | 58km/h | 1278m | -4.1m/s | 10.5°C | 93.5% | 874.8hPa | 2.7V | 07:41:48 | 03:05:24 | 00:00:00 | |
| BIOWL1-15 | 2026-08-30 13:23:13 | 51.78561 | 8.84044 | 65° | 62km/h | 1299m | -4.5m/s | 10.4°C | 93.9% | 872.7hPa | 2.7V | 07:41:48 | 03:05:19 | 00:00:00 | |
| DO2JMG | 2026-08-30 13:23:13 | 51.78580 | 8.84112 | 66° | 58km/h | 1286m | -4.1m/s | 10.4°C | 93.6% | 874hPa | 2.7V | 07:41:48 | 03:05:22 | 00:00:00 | |
| DO2JMG | 2026-08-30 13:23:12 | 51.78573 | 8.84090 | 66° | 60km/h | 1290m | -4.1m/s | 10.4°C | 94.1% | 873.6hPa | 2.7V | 07:41:48 | 03:05:21 | 00:00:00 | |
| DO2JMG | 2026-08-30 13:23:11 | 51.78567 | 8.84067 | 66° | 62km/h | 1294m | -4.2m/s | 10.4°C | 94.4% | 873.1hPa | 2.7V | 07:41:48 | 03:05:20 | 00:00:00 | |
| DO2JMG | 2026-08-30 13:23:09 | 51.78554 | 8.84022 | 63° | 60km/h | 1303m | -4.5m/s | 10.3°C | 93.9% | 872.2hPa | 2.7V | 07:41:48 | 03:05:18 | 00:00:00 | |
| BIOWL1-15 | 2026-08-30 13:23:08 | 51.78547 | 8.84000 | 62° | 58km/h | 1308m | -4.3m/s | 10.3°C | 94.5% | 871.8hPa | 2.7V | 07:42:39 | 03:05:17 | 00:00:00 | |
| DO2JMG | 2026-08-30 13:23:07 | 51.78540 | 8.83979 | 63° | 57km/h | 1312m | -4.4m/s | 10.2°C | 95% | 871.2hPa | 2.7V | 07:42:39 | 03:05:16 | 00:00:00 | |
| DO2JMG | 2026-08-30 13:23:06 | 51.78534 | 8.83959 | 63° | 55km/h | 1316m | -4.2m/s | 10.2°C | 94.3% | 870.9hPa | 2.7V | 07:42:39 | 03:05:15 | 00:00:00 | |
| BIOWL1-15 | 2026-08-30 13:23:05 | 51.78528 | 8.83938 | 66° | 55km/h | 1320m | -4.3m/s | 10.2°C | 94.7% | 870.4hPa | 2.7V | 07:42:39 | 03:05:14 | 00:00:00 | |
| DO2JMG | 2026-08-30 13:23:04 | 51.78522 | 8.83917 | 67° | 57km/h | 1325m | -4m/s | 10.1°C | 94.2% | 870hPa | 2.7V | 07:42:39 | 03:05:13 | 00:00:00 | |
| DO2JMG | 2026-08-30 13:23:02 | 51.78511 | 8.83873 | 68° | 60km/h | 1333m | -4.3m/s | 10.2°C | 93.7% | 869hPa | 2.7V | 07:42:39 | 03:05:11 | 00:00:00 | |
| DO2JMG | 2026-08-30 13:23:00 | 51.78498 | 8.83828 | 65° | 62km/h | 1342m | -4.2m/s | 10.1°C | 93.8% | 868.2hPa | 2.7V | 07:42:39 | 03:05:09 | 00:00:00 | |
| DO2JMG | 2026-08-30 13:22:59 | 51.78491 | 8.83805 | 62° | 62km/h | 1346m | -4.6m/s | 10°C | 93.4% | 867.7hPa | 2.7V | 07:42:39 | 03:05:08 | 00:00:00 | |
| BIOWL1-15 | 2026-08-30 13:22:57 | 51.78471 | 8.83742 | 65° | 55km/h | 1359m | -4.2m/s | 9.9°C | 93.5% | 866.4hPa | 2.7V | 07:42:39 | 03:05:05 | 00:00:00 | |
| DO2JMG | 2026-08-30 13:22:57 | 51.78477 | 8.83762 | 63° | 57km/h | 1355m | -4.4m/s | 10°C | 93.8% | 866.8hPa | 2.7V | 07:42:39 | 03:05:06 | 00:00:00 | |
| DO2JMG | 2026-08-30 13:22:55 | 51.78466 | 8.83721 | 68° | 57km/h | 1363m | -4.2m/s | 9.9°C | 94.6% | 865.9hPa | 2.7V | 07:42:39 | 03:05:04 | 00:00:00 | |
| DO2JMG | 2026-08-30 13:22:54 | 51.78460 | 8.83700 | 68° | 57km/h | 1367m | -4.2m/s | 9.8°C | 94.6% | 865.4hPa | 2.7V | 07:42:39 | 03:05:03 | 00:00:00 | |
| DM0DOS-11 | 2026-08-30 13:22:53 | 51.78444 | 8.83635 | 65° | 58km/h | 1380m | -4m/s | 9.7°C | 91.7% | 864.1hPa | 2.7V | 07:42:06 | 03:05:00 | 00:00:00 | |
| DM0DOS-11 | 2026-08-30 13:22:53 | 51.78431 | 8.83593 | 64° | 58km/h | 1389m | -4.4m/s | 9.6°C | 91.9% | 863.2hPa | 2.7V | 07:42:08 | 03:04:58 | 00:00:00 | |
| DO2JMG | 2026-08-30 13:22:53 | 51.78455 | 8.83678 | 68° | 58km/h | 1372m | -4.4m/s | 9.8°C | 94.3% | 865.3hPa | 2.7V | 07:42:39 | 03:05:02 | 00:00:00 | |
| BIOWL1-15 | 2026-08-30 13:22:52 | 51.78449 | 8.83656 | 66° | 57km/h | 1376m | -4.2m/s | 9.7°C | 94.5% | 864.6hPa | 2.6V | 07:42:39 | 03:05:01 | 00:00:00 | |
| DO2JMG | 2026-08-30 13:22:51 | 51.78443 | 8.83635 | 66° | 58km/h | 1380m | -4.1m/s | 9.7°C | 94.9% | 864.1hPa | 2.7V | 07:42:39 | 03:05:00 | 00:00:00 | |
| BIOWL1-15 | 2026-08-30 13:22:50 | 51.78425 | 8.83571 | 63° | 60km/h | 1393m | -4.1m/s | 9.6°C | 95% | 862.8hPa | 2.7V | 07:42:39 | 03:04:57 | 00:00:00 | |
| DO2JMG | 2026-08-30 13:22:49 | 51.78431 | 8.83593 | 64° | 58km/h | 1389m | -4.4m/s | 9.6°C | 95% | 863.2hPa | 2.7V | 07:42:39 | 03:04:58 | 00:00:00 | |
| DM0DOS-11 | 2026-08-30 13:22:48 | 51.78418 | 8.83549 | 61° | 60km/h | 1397m | -4.1m/s | 9.6°C | 92.8% | 862.3hPa | 2.7V | 07:42:10 | 03:04:56 | 00:00:00 | |
| BIOWL1-15 | 2026-08-30 13:22:47 | 51.78403 | 8.83509 | 60° | 55km/h | 1406m | -4.3m/s | 9.5°C | 96% | 861.5hPa | 2.7V | 07:42:39 | 03:04:54 | 00:00:00 | |
| DO2JMG | 2026-08-30 13:22:47 | 51.78418 | 8.83549 | 62° | 60km/h | 1397m | -4.1m/s | 9.5°C | 95.8% | 862.3hPa | 2.7V | 07:42:39 | 03:04:56 | 00:00:00 | |
| DO2JMG | 2026-08-30 13:22:46 | 51.78410 | 8.83529 | 61° | 57km/h | 1401m | -4.4m/s | 9.5°C | 95.9% | 861.9hPa | 2.7V | 07:42:39 | 03:04:55 | 00:00:00 | |
| DO2JMG | 2026-08-30 13:22:44 | 51.78397 | 8.83489 | 61° | 53km/h | 1410m | -4.1m/s | 9.6°C | 98% | 861hPa | 2.6V | 07:42:39 | 03:04:53 | 00:00:00 | |
| DM0DOS-11 | 2026-08-30 13:22:43 | 51.78378 | 8.83432 | 63° | 53km/h | 1423m | -4.2m/s | 9.4°C | 95.7% | 859.7hPa | 2.7V | 07:42:16 | 03:04:50 | 00:00:00 | |
| BIOWL1-15 | 2026-08-30 13:22:43 | 51.78390 | 8.83470 | 63° | 53km/h | 1414m | -4.2m/s | 9.6°C | 99% | 860.6hPa | 2.7V | 07:42:39 | 03:04:52 | 00:00:00 | |
| DO2JMG | 2026-08-30 13:22:42 | 51.78384 | 8.83451 | 64° | 53km/h | 1418m | -4.3m/s | 9.5°C | 98.6% | 860.2hPa | 2.7V | 07:42:39 | 03:04:51 | 00:00:00 | |
| DO2JMG | 2026-08-30 13:22:41 | 51.78378 | 8.83432 | 64° | 53km/h | 1423m | -4.2m/s | 9.5°C | 99% | 859.7hPa | 2.7V | 07:42:39 | 03:04:50 | 00:00:00 | |
| DO2JMG | 2026-08-30 13:22:40 | 51.78372 | 8.83413 | 63° | 53km/h | 1427m | -4.3m/s | 9.4°C | 99.4% | 859.4hPa | 2.7V | 07:42:39 | 03:04:49 | 00:00:00 | |
| BIOWL1-15 | 2026-08-30 13:22:39 | 51.78366 | 8.83394 | 62° | 53km/h | 1431m | -4.4m/s | 9.4°C | 99.7% | 859hPa | 2.7V | 07:42:39 | 03:04:48 | 00:00:00 | |
| DM0DOS-11 | 2026-08-30 13:22:38 | 51.78354 | 8.83356 | 62° | 51km/h | 1440m | -4.5m/s | 9.2°C | 96.7% | 858hPa | 2.7V | 07:42:20 | 03:04:46 | 00:00:00 | |
| DO2JMG | 2026-08-30 13:22:38 | 51.78360 | 8.83375 | 62° | 51km/h | 1436m | -4.7m/s | 9.3°C | 99.9% | 858.5hPa | 2.7V | 07:42:39 | 03:04:47 | 00:00:00 | |
| DO2JMG | 2026-08-30 13:22:37 | 51.78354 | 8.83356 | 63° | 51km/h | 1440m | -4.5m/s | 9.2°C | 99.9% | 858hPa | 2.7V | 07:42:39 | 03:04:46 | 00:00:00 | |
| DO2JMG | 2026-08-30 13:22:36 | 51.78348 | 8.83337 | 65° | 51km/h | 1444m | -4.1m/s | 9.2°C | 98.5% | 857.5hPa | 2.7V | 07:42:39 | 03:04:45 | 00:00:00 | |
| DO2JMG | 2026-08-30 13:22:34 | 51.78338 | 8.83299 | 66° | 53km/h | 1453m | -4.3m/s | 9.2°C | 100% | 856.6hPa | 2.7V | 07:42:39 | 03:04:43 | 00:00:00 | |
| DO2JMG | 2026-08-30 13:22:32 | 51.78326 | 8.83260 | 63° | 51km/h | 1462m | -4.5m/s | 9.2°C | 100% | 855.7hPa | 2.7V | 07:42:39 | 03:04:41 | 00:00:00 | |
| DO2JMG | 2026-08-30 13:22:30 | 51.78315 | 8.83224 | 65° | 47km/h | 1470m | -4.4m/s | 9.2°C | 100% | 854.8hPa | 2.7V | 07:42:39 | 03:04:39 | 00:00:00 | |
| DO2JMG | 2026-08-30 13:22:29 | 51.78310 | 8.83207 | 65° | 47km/h | 1475m | -4.7m/s | 9.1°C | 100% | 854.2hPa | 2.7V | 07:42:39 | 03:04:38 | 00:00:00 | |
| DM0DOS-11 | 2026-08-30 13:22:28 | 51.78301 | 8.83172 | 66° | 46km/h | 1484m | -4.4m/s | 9.1°C | 98.9% | 853.4hPa | 2.7V | 07:42:30 | 03:04:36 | 00:00:00 | |
| HSKMA3-T | 2026-08-30 13:22:28 | 51.78305 | 8.83189 | 67° | 46km/h | 1479m | -4.6m/s | 9.1°C | 100% | 853.9hPa | 2.6V | 07:42:39 | 03:04:37 | 00:00:00 | |
| DO2JMG | 2026-08-30 13:22:27 | 51.78301 | 8.83172 | 67° | 46km/h | 1484m | -4.4m/s | 9.1°C | 100% | 853.4hPa | 2.7V | 07:42:39 | 03:04:36 | 00:00:00 | |
| DO2JMG | 2026-08-30 13:22:26 | 51.78296 | 8.83154 | 67° | 47km/h | 1488m | -4.4m/s | 9.1°C | 100% | 852.8hPa | 2.7V | 07:42:39 | 03:04:35 | 00:00:00 | |
| DO2JMG | 2026-08-30 13:22:24 | 51.78286 | 8.83119 | 64° | 47km/h | 1497m | -4.5m/s | 9.1°C | 100% | 852hPa | 2.7V | 07:42:39 | 03:04:33 | 00:00:00 | |
| DM0DOS-11 | 2026-08-30 13:22:23 | 51.78258 | 8.83034 | 64° | 46km/h | 1519m | -4.4m/s | 8.9°C | 99.6% | 849.9hPa | 2.7V | 07:42:38 | 03:04:28 | 00:00:00 | |
| DO2JMG | 2026-08-30 13:22:23 | 51.78281 | 8.83101 | 62° | 49km/h | 1502m | -4.3m/s | 9°C | 100% | 851.5hPa | 2.7V | 07:42:39 | 03:04:32 | 00:00:00 | |
| DO2JMG | 2026-08-30 13:22:22 | 51.78275 | 8.83084 | 61° | 47km/h | 1506m | -4.6m/s | 9°C | 100% | 851.1hPa | 2.7V | 07:42:39 | 03:04:31 | 00:00:00 | |
| DO2JMG | 2026-08-30 13:22:20 | 51.78263 | 8.83051 | 62° | 46km/h | 1515m | -4.4m/s | 9°C | 100% | 850.1hPa | 2.6V | 07:42:39 | 03:04:29 | 00:00:00 | |
| DO2JMG | 2026-08-30 13:22:19 | 51.78258 | 8.83034 | 64° | 46km/h | 1519m | -4.4m/s | 8.9°C | 100% | 849.9hPa | 2.7V | 07:42:39 | 03:04:28 | 00:00:00 | |
| HSKMA3-T | 2026-08-30 13:22:18 | 51.78253 | 8.83017 | 66° | 46km/h | 1524m | -4.2m/s | 8.9°C | 100% | 849.4hPa | 2.7V | 07:42:39 | 03:04:27 | 00:00:00 | |
| BIOWL1-15 | 2026-08-30 13:22:17 | 51.78243 | 8.82981 | 66° | 51km/h | 1532m | -4.2m/s | 8.9°C | 100% | 848.6hPa | 2.7V | 07:43:30 | 03:04:25 | 00:00:00 | |
| DO2JMG | 2026-08-30 13:22:17 | 51.78248 | 8.82999 | 67° | 49km/h | 1528m | -4.3m/s | 8.9°C | 100% | 848.9hPa | 2.7V | 07:43:30 | 03:04:26 | 00:00:00 | |
| DO2JMG | 2026-08-30 13:22:15 | 51.78238 | 8.82962 | 64° | 53km/h | 1536m | -4.4m/s | 8.8°C | 100% | 848hPa | 2.7V | 07:43:30 | 03:04:24 | 00:00:00 | |
| BIOWL1-15 | 2026-08-30 13:22:14 | 51.78232 | 8.82943 | 62° | 51km/h | 1541m | -4.6m/s | 8.8°C | 100% | 847.5hPa | 2.7V | 07:43:30 | 03:04:23 | 00:00:00 | |
| DO2JMG | 2026-08-30 13:22:13 | 51.78225 | 8.82925 | 61° | 49km/h | 1546m | -4.6m/s | 8.8°C | 100% | 847.2hPa | 2.7V | 07:43:30 | 03:04:22 | 00:00:00 | |
| DO2JMG | 2026-08-30 13:22:12 | 51.78219 | 8.82907 | 62° | 49km/h | 1550m | -4.5m/s | 8.7°C | 100% | 846.6hPa | 2.6V | 07:43:30 | 03:04:21 | 00:00:00 | |
| DO2JMG | 2026-08-30 13:22:10 | 51.78208 | 8.82872 | 64° | 47km/h | 1559m | -4.4m/s | 8.7°C | 100% | 845.8hPa | 2.7V | 07:43:30 | 03:04:19 | 00:00:00 | |
| BIOWL1-15 | 2026-08-30 13:22:09 | 51.78203 | 8.82854 | 64° | 49km/h | 1563m | -4.3m/s | 8.6°C | 100% | 845.5hPa | 2.7V | 07:43:30 | 03:04:18 | 00:00:00 | |
| DO2JMG | 2026-08-30 13:22:08 | 51.78197 | 8.82836 | 63° | 49km/h | 1568m | -4.4m/s | 8.6°C | 100% | 844.8hPa | 2.7V | 07:43:30 | 03:04:17 | 00:00:00 | |
| DO2JMG | 2026-08-30 13:22:07 | 51.78192 | 8.82819 | 63° | 47km/h | 1572m | -4.4m/s | 8.6°C | 100% | 844.3hPa | 2.7V | 07:43:30 | 03:04:16 | 00:00:00 | |
| HSKMA3-T | 2026-08-30 13:22:06 | 51.78186 | 8.82801 | 64° | 47km/h | 1576m | -4.5m/s | 8.6°C | 100% | 844hPa | 2.7V | 07:43:30 | 03:04:15 | 00:00:00 | |
| DO2JMG | 2026-08-30 13:22:05 | 51.78181 | 8.82783 | 64° | 49km/h | 1581m | -4.2m/s | 8.6°C | 100% | 843.5hPa | 2.7V | 07:43:30 | 03:04:14 | 00:00:00 | |
| DO2JMG | 2026-08-30 13:22:04 | 51.78176 | 8.82766 | 65° | 47km/h | 1585m | -4.6m/s | 8.5°C | 100% | 843hPa | 2.6V | 07:43:30 | 03:04:13 | 00:00:00 | |
| BIOWL1-15 | 2026-08-30 13:22:03 | 51.78161 | 8.82713 | 65° | 47km/h | 1598m | -4.4m/s | 8.5°C | 100% | 841.7hPa | 2.7V | 07:43:30 | 03:04:10 | 00:00:00 | |
| DM0DOS-11 | 2026-08-30 13:22:02 | 51.78151 | 8.82678 | 65° | 46km/h | 1607m | -4.5m/s | 8.5°C | 0% | 840.9hPa | 2.7V | 07:42:58 | 03:04:08 | 00:00:00 | |
| DO2JMG | 2026-08-30 13:22:02 | 51.78166 | 8.82730 | 66° | 47km/h | 1594m | -4.5m/s | 8.5°C | 100% | 842.1hPa | 2.7V | 07:43:30 | 03:04:11 | 00:00:00 | |
| DO2JMG | 2026-08-30 13:22:00 | 51.78156 | 8.82695 | 65° | 46km/h | 1603m | -4.2m/s | 8.5°C | 100% | 841.2hPa | 2.7V | 07:43:30 | 03:04:09 | 00:00:00 | |
| BIOWL1-15 | 2026-08-30 13:21:59 | 51.78151 | 8.82678 | 65° | 46km/h | 1607m | -4.5m/s | 8.5°C | 100% | 840.9hPa | 2.7V | 07:43:30 | 03:04:08 | 00:00:00 | |
| DO2JMG | 2026-08-30 13:21:58 | 51.78146 | 8.82662 | 64° | 46km/h | 1611m | -4.4m/s | 8.5°C | 100% | 840.3hPa | 2.7V | 07:43:30 | 03:04:07 | 00:00:00 | |
| DO2JMG | 2026-08-30 13:21:57 | 51.78141 | 8.82645 | 62° | 44km/h | 1616m | -4.6m/s | 8.4°C | 100% | 839.9hPa | 2.6V | 07:43:30 | 03:04:06 | 00:00:00 | |
| HSKMA3-T | 2026-08-30 13:21:56 | 51.78136 | 8.82629 | 63° | 44km/h | 1621m | -4.4m/s | 8.4°C | 100% | 839.6hPa | 2.7V | 07:43:30 | 03:04:05 | 00:00:00 | |
| DO2JMG | 2026-08-30 13:21:55 | 51.78131 | 8.82614 | 63° | 44km/h | 1625m | -4.7m/s | 8.4°C | 100% | 839hPa | 2.7V | 07:43:30 | 03:04:04 | 00:00:00 | |
| BIOWL1-15 | 2026-08-30 13:21:54 | 51.78126 | 8.82598 | 63° | 42km/h | 1629m | -4.3m/s | 8.3°C | 100% | 838.6hPa | 2.7V | 07:43:30 | 03:04:03 | 00:00:00 | |
| DO2JMG | 2026-08-30 13:21:53 | 51.78121 | 8.82583 | 64° | 42km/h | 1634m | -4.8m/s | 8.3°C | 100% | 838.1hPa | 2.7V | 07:43:30 | 03:04:02 | 00:00:00 | |
| DM0DOS-11 | 2026-08-30 13:21:52 | 51.78112 | 8.82552 | 65° | 42km/h | 1643m | -4.7m/s | 8.3°C | 0% | 837.1hPa | 2.7V | 07:43:06 | 03:04:00 | 00:00:00 | |
| DO2JMG | 2026-08-30 13:21:51 | 51.78112 | 8.82552 | 66° | 42km/h | 1643m | -4.7m/s | 8.3°C | 100% | 837.1hPa | 2.7V | 07:43:30 | 03:04:00 | 00:00:00 | |
| BIOWL1-15 | 2026-08-30 13:21:50 | 51.78108 | 8.82536 | 66° | 42km/h | 1648m | -4.8m/s | 8.2°C | 100% | 836.6hPa | 2.7V | 07:43:30 | 03:03:59 | 00:00:00 | |
| DO2JMG | 2026-08-30 13:21:49 | 51.78104 | 8.82521 | 70° | 42km/h | 1653m | -4.9m/s | 8.2°C | 100% | 836.2hPa | 2.6V | 07:43:30 | 03:03:58 | 00:00:00 | |
| BIOWL1-15 | 2026-08-30 13:21:48 | 51.78100 | 8.82505 | 70° | 42km/h | 1658m | -4.8m/s | 8.2°C | 100% | 835.7hPa | 2.7V | 07:43:30 | 03:03:57 | 00:00:00 | |
| DO2JMG | 2026-08-30 13:21:47 | 51.78096 | 8.82488 | 70° | 44km/h | 1662m | -4.2m/s | 8.2°C | 100% | 835.1hPa | 2.7V | 07:43:30 | 03:03:56 | 00:00:00 | |
| DO2JMG | 2026-08-30 13:21:46 | 51.78092 | 8.82471 | 69° | 46km/h | 1667m | -4.4m/s | 8.1°C | 100% | 834.8hPa | 2.7V | 07:43:30 | 03:03:55 | 00:00:00 | |
| HSKMA3-T | 2026-08-30 13:21:45 | 51.78088 | 8.82453 | 67° | 47km/h | 1671m | -4.5m/s | 8.1°C | 100% | 834.2hPa | 2.7V | 07:43:30 | 03:03:54 | 00:00:00 | |
| DO2JMG | 2026-08-30 13:21:44 | 51.78083 | 8.82436 | 64° | 46km/h | 1676m | -4.4m/s | 8.1°C | 100% | 833.9hPa | 2.7V | 07:43:30 | 03:03:53 | 00:00:00 | |
| DL3AQ-11 | 2026-08-30 13:21:43 | 51.78078 | 8.82419 | 63° | 44km/h | 1680m | -4.4m/s | 8.1°C | 100.0% | 833.4hPa | 2.7V | 00:00:00 | 00:00:00 | 00:00:00 | |
| DD1CC2-15 | 2026-08-30 13:21:42 | 51.78078 | 8.82419 | 64° | 44km/h | 1680m | -4.4m/s | 8.1°C | 104.1% | 833.4hPa | 2.7V | 00:00:00 | 00:00:00 | 00:00:00 | |
| DM0DOS-11 | 2026-08-30 13:21:42 | 51.78051 | 8.82322 | 65° | 44km/h | 1707m | -4.6m/s | 8°C | 0% | 830.6hPa | 2.7V | 07:43:20 | 03:03:46 | 00:00:00 | |
| DO2JMG | 2026-08-30 13:21:42 | 51.78073 | 8.82403 | 63° | 42km/h | 1685m | -4.5m/s | 8.1°C | 100% | 833.1hPa | 2.7V | 07:43:30 | 03:03:51 | 00:00:00 | |
| BIOWL1-15 | 2026-08-30 13:21:41 | 51.78068 | 8.82387 | 65° | 42km/h | 1689m | -4.3m/s | 8.1°C | 100% | 832.4hPa | 2.6V | 07:43:30 | 03:03:50 | 00:00:00 | |
| DO2JMG | 2026-08-30 13:21:40 | 51.78064 | 8.82371 | 67° | 42km/h | 1693m | -4.6m/s | 8°C | 100% | 832.1hPa | 2.7V | 07:43:30 | 03:03:49 | 00:00:00 | |
| DO2JMG | 2026-08-30 13:21:39 | 51.78060 | 8.82355 | 68° | 44km/h | 1698m | -4.5m/s | 8°C | 100% | 831.6hPa | 2.7V | 07:43:30 | 03:03:48 | 00:00:00 | |
| DO2JMG | 2026-08-30 13:21:37 | 51.78051 | 8.82322 | 66° | 44km/h | 1707m | -4.6m/s | 8°C | 100% | 830.6hPa | 2.7V | 07:43:30 | 03:03:46 | 00:00:00 | |
| DO2JMG | 2026-08-30 13:21:36 | 51.78047 | 8.82306 | 67° | 42km/h | 1711m | -4.4m/s | 8°C | 100% | 830.2hPa | 2.7V | 07:43:30 | 03:03:45 | 00:00:00 | |
| DO2JMG | 2026-08-30 13:21:34 | 51.78039 | 8.82274 | 71° | 42km/h | 1720m | -4.5m/s | 7.9°C | 100% | 829.3hPa | 2.6V | 07:43:30 | 03:03:43 | 00:00:00 | |
| DO2JMG | 2026-08-30 13:21:33 | 51.78035 | 8.82257 | 71° | 44km/h | 1724m | -4.6m/s | 7.9°C | 100% | 829hPa | 2.7V | 07:43:30 | 03:03:42 | 00:00:00 | |
| BIOWL1-15 | 2026-08-30 13:21:32 | 51.78032 | 8.82240 | 70° | 46km/h | 1729m | -4.8m/s | 7.9°C | 100% | 828.6hPa | 2.7V | 07:43:30 | 03:03:41 | 00:00:00 | |
| DO2JMG | 2026-08-30 13:21:31 | 51.78028 | 8.82223 | 68° | 44km/h | 1734m | -4.6m/s | 7.9°C | 100% | 828hPa | 2.7V | 07:43:30 | 03:03:40 | 00:00:00 | |
| BIOWL1-15 | 2026-08-30 13:21:30 | 51.78023 | 8.82207 | 66° | 42km/h | 1738m | -4.4m/s | 7.9°C | 100% | 827.6hPa | 2.7V | 07:43:30 | 03:03:39 | 00:00:00 | |
| DO2JMG | 2026-08-30 13:21:29 | 51.78019 | 8.82191 | 65° | 40km/h | 1743m | -4.6m/s | 7.9°C | 100% | 827hPa | 2.7V | 07:43:30 | 03:03:38 | 00:00:00 | |
| BIOWL1-15 | 2026-08-30 13:21:28 | 51.78015 | 8.82177 | 66° | 40km/h | 1747m | -4.8m/s | 7.9°C | 100% | 826.8hPa | 2.7V | 07:43:30 | 03:03:37 | 00:00:00 | |
| DL3AQ-11 | 2026-08-30 13:21:27 | 51.78011 | 8.82162 | 69° | 38km/h | 1752m | -5.1m/s | 7.8°C | 100.0% | 826.1hPa | 2.7V | 00:00:00 | 00:00:00 | 00:00:00 | |
| DM0DOS-11 | 2026-08-30 13:21:27 | 51.78005 | 8.82132 | 73° | 40km/h | 1762m | -4.8m/s | 7.8°C | 0% | 825.2hPa | 2.7V | 07:43:32 | 03:03:34 | 00:00:00 | |
| BIOWL1-15 | 2026-08-30 13:21:27 | 51.78011 | 8.82162 | 70° | 38km/h | 1752m | -5.1m/s | 7.8°C | 100% | 826.1hPa | 2.7V | 07:43:30 | 03:03:36 | 00:00:00 | |
| DO2JMG | 2026-08-30 13:21:25 | 51.78005 | 8.82132 | 73° | 40km/h | 1762m | -4.8m/s | 7.8°C | 100% | 825.2hPa | 2.7V | 07:44:21 | 03:03:34 | 00:00:00 | |
| DO2JMG | 2026-08-30 13:21:24 | 51.78002 | 8.82115 | 74° | 42km/h | 1766m | -4.5m/s | 7.9°C | 100% | 824.7hPa | 2.7V | 07:44:21 | 03:03:33 | 00:00:00 | |
| BIOWL1-15 | 2026-08-30 13:21:23 | 51.77999 | 8.82099 | 72° | 44km/h | 1771m | -5m/s | 7.8°C | 100% | 824.3hPa | 2.7V | 07:44:21 | 03:03:32 | 00:00:00 | |
| BIOWL1-15 | 2026-08-30 13:21:22 | 51.77995 | 8.82082 | 69° | 44km/h | 1776m | -4.8m/s | 7.8°C | 100% | 823.9hPa | 2.6V | 07:44:21 | 03:03:31 | 00:00:00 | |
| BIOWL1-15 | 2026-08-30 13:21:21 | 51.77983 | 8.82033 | 67° | 42km/h | 1791m | -4.8m/s | 7.8°C | 100% | 822.5hPa | 2.7V | 07:44:21 | 03:03:28 | 00:00:00 | |
| DO2JMG | 2026-08-30 13:21:20 | 51.77987 | 8.82049 | 69° | 42km/h | 1786m | -5m/s | 7.8°C | 100% | 822.9hPa | 2.7V | 07:44:21 | 03:03:29 | 00:00:00 | |
| DO2JMG | 2026-08-30 13:21:18 | 51.77979 | 8.82017 | 67° | 42km/h | 1795m | -5m/s | 7.8°C | 100% | 821.9hPa | 2.7V | 07:44:21 | 03:03:27 | 00:00:00 | |
| DM0DOS-11 | 2026-08-30 13:21:17 | 51.77968 | 8.81970 | 73° | 40km/h | 1810m | -4.8m/s | 7.7°C | 0% | 820.5hPa | 2.7V | 07:43:42 | 03:03:24 | 00:00:00 | |
| DO2JMG | 2026-08-30 13:21:17 | 51.77975 | 8.82001 | 68° | 40km/h | 1800m | -4.8m/s | 7.7°C | 100% | 821.4hPa | 2.7V | 07:44:21 | 03:03:26 | 00:00:00 | |
| BIOWL1-15 | 2026-08-30 13:21:16 | 51.77965 | 8.81954 | 76° | 42km/h | 1814m | -4.9m/s | 7.7°C | 100% | 820hPa | 2.7V | 07:44:21 | 03:03:23 | 00:00:00 | |
| DO2JMG | 2026-08-30 13:21:15 | 51.77968 | 8.81970 | 74° | 40km/h | 1810m | -4.8m/s | 7.7°C | 100% | 820.5hPa | 2.7V | 07:44:21 | 03:03:24 | 00:00:00 | |
| DO2JMG | 2026-08-30 13:21:13 | 51.77963 | 8.81937 | 75° | 42km/h | 1819m | -4.8m/s | 7.7°C | 100% | 819.5hPa | 2.6V | 07:44:21 | 03:03:22 | 00:00:00 | |
| DD1CC3-15 | 2026-08-30 13:21:12 | 51.77963 | 8.81937 | 76° | 44km/h | 1819m | -4.8m/s | 7.7°C | 104.6% | 819.5hPa | 2.7V | 07:44:00 | 00:00:00 | 00:00:00 | |
| DD1CC1-15 | 2026-08-30 13:21:12 | 51.77963 | 8.81937 | 76° | 44km/h | 1819m | -4.8m/s | 7.7°C | 104.6% | 819.5hPa | 2.7V | 07:44:00 | 00:00:00 | 00:00:00 | |
| DM0DOS-11 | 2026-08-30 13:21:12 | 51.77950 | 8.81871 | 74° | 40km/h | 1838m | -4.7m/s | 7.6°C | 0% | 817.5hPa | 2.7V | 07:43:48 | 03:03:18 | 00:00:00 | |
| DM0DOS-11 | 2026-08-30 13:21:12 | 51.77945 | 8.81839 | 74° | 42km/h | 1848m | -4.7m/s | 7.6°C | 0% | 816.6hPa | 2.7V | 07:43:50 | 03:03:16 | 00:00:00 | |
| DO2JMG | 2026-08-30 13:21:12 | 51.77960 | 8.81920 | 74° | 44km/h | 1824m | -4.8m/s | 7.7°C | 100% | 819hPa | 2.7V | 07:44:21 | 03:03:21 | 00:00:00 | |
| DO2JMG | 2026-08-30 13:21:11 | 51.77956 | 8.81903 | 72° | 42km/h | 1829m | -4.7m/s | 7.6°C | 100% | 818.4hPa | 2.7V | 07:44:21 | 03:03:20 | 00:00:00 | |
| DB0DAN | 2026-08-30 13:21:10 | 51.77953 | 8.81887 | 73° | 40km/h | 1834m | -4.8m/s | 7.6°C | 100% | 818.04hPa | 2.7V | 00:00:00 | 00:00:00 | 00:00:00 | |
| DO2JMG | 2026-08-30 13:21:10 | 51.77953 | 8.81887 | 73° | 42km/h | 1834m | -4.8m/s | 7.6°C | 100% | 818hPa | 2.7V | 07:44:21 | 03:03:19 | 00:00:00 | |
| BIOWL1-15 | 2026-08-30 13:21:08 | 51.77942 | 8.81822 | 73° | 42km/h | 1852m | -4.5m/s | 7.6°C | 100% | 816.3hPa | 2.6V | 07:44:21 | 03:03:15 | 00:00:00 | |
| DO2JMG | 2026-08-30 13:21:08 | 51.77948 | 8.81855 | 75° | 40km/h | 1843m | -4.8m/s | 7.6°C | 100% | 817.1hPa | 2.7V | 07:44:21 | 03:03:17 | 00:00:00 | |
| DO2JMG | 2026-08-30 13:21:07 | 51.77945 | 8.81839 | 75° | 42km/h | 1848m | -4.7m/s | 7.6°C | 100% | 816.6hPa | 2.7V | 07:44:21 | 03:03:16 | 00:00:00 | |
| DO2JMG | 2026-08-30 13:21:05 | 51.77939 | 8.81806 | 72° | 40km/h | 1857m | -4.8m/s | 7.5°C | 100% | 815.7hPa | 2.7V | 07:44:21 | 03:03:14 | 00:00:00 | |
| DO2JMG | 2026-08-30 13:21:03 | 51.77933 | 8.81776 | 73° | 38km/h | 1866m | -4.7m/s | 7.5°C | 100% | 814.8hPa | 2.7V | 07:44:21 | 03:03:12 | 00:00:00 | |
| HSKMA3-T | 2026-08-30 13:21:02 | 51.77930 | 8.81760 | 73° | 40km/h | 1871m | -4.4m/s | 7.5°C | 100% | 814.4hPa | 2.7V | 07:44:21 | 03:03:11 | 00:00:00 | |
| DO2JMG | 2026-08-30 13:21:01 | 51.77927 | 8.81745 | 72° | 40km/h | 1875m | -4.5m/s | 7.5°C | 100% | 813.9hPa | 2.7V | 07:44:21 | 03:03:10 | 00:00:00 | |
| DO2JMG | 2026-08-30 13:21:00 | 51.77924 | 8.81729 | 71° | 38km/h | 1880m | -4.3m/s | 7.5°C | 100% | 813.5hPa | 2.7V | 07:44:21 | 03:03:09 | 00:00:00 | |
| DO2JMG | 2026-08-30 13:20:58 | 51.77918 | 8.81700 | 75° | 37km/h | 1889m | -4.8m/s | 7.4°C | 100% | 812.5hPa | 2.7V | 07:44:21 | 03:03:07 | 00:00:00 | |
| DM0DOS-11 | 2026-08-30 13:20:57 | 51.77905 | 8.81625 | 72° | 37km/h | 1912m | -4.5m/s | 7.3°C | 0% | 810.2hPa | 2.7V | 07:44:04 | 03:03:02 | 00:00:00 | |
| DO2JMG | 2026-08-30 13:20:57 | 51.77916 | 8.81685 | 77° | 38km/h | 1893m | -4.9m/s | 7.4°C | 100% | 812.1hPa | 2.7V | 07:44:21 | 03:03:06 | 00:00:00 | |
| DO2JMG | 2026-08-30 13:20:56 | 51.77913 | 8.81670 | 77° | 38km/h | 1898m | -4.7m/s | 7.4°C | 100% | 811.6hPa | 2.7V | 07:44:21 | 03:03:05 | 00:00:00 | |
| DB0DAN | 2026-08-30 13:20:55 | 51.77911 | 8.81654 | 74° | 37km/h | 1903m | -4.6m/s | 7.4°C | 100% | 811.14hPa | 2.7V | 00:00:00 | 00:00:00 | 00:00:00 | |
| DO2JMG | 2026-08-30 13:20:55 | 51.77911 | 8.81654 | 74° | 38km/h | 1903m | -4.6m/s | 7.4°C | 100% | 811.1hPa | 2.7V | 07:44:21 | 03:03:04 | 00:00:00 | |
| DO2JMG | 2026-08-30 13:20:54 | 51.77908 | 8.81639 | 72° | 38km/h | 1907m | -4.7m/s | 7.3°C | 100% | 810.8hPa | 2.7V | 07:44:21 | 03:03:03 | 00:00:00 | |
| DD1CC3-15 | 2026-08-30 13:20:52 | 51.77905 | 8.81625 | 74° | 37km/h | 1912m | -4.5m/s | 7.3°C | 103.1% | 810.3hPa | 2.7V | 07:44:00 | 00:00:00 | 00:00:00 | |
| DM0DOS-11 | 2026-08-30 13:20:52 | 51.77897 | 8.81565 | 79° | 38km/h | 1931m | -4.7m/s | 7.2°C | 0% | 808.4hPa | 2.7V | 07:44:08 | 03:02:58 | 00:00:00 | |
| DO2JMG | 2026-08-30 13:20:52 | 51.77903 | 8.81610 | 76° | 37km/h | 1917m | -5.2m/s | 7.3°C | 100% | 809.9hPa | 2.6V | 07:44:21 | 03:03:01 | 00:00:00 | |
| DO2JMG | 2026-08-30 13:20:50 | 51.77899 | 8.81581 | 81° | 38km/h | 1927m | -4.7m/s | 7.2°C | 100% | 808.8hPa | 2.7V | 07:44:21 | 03:02:59 | 00:00:00 | |
| BIOWL1-15 | 2026-08-30 13:20:49 | 51.77897 | 8.81565 | 79° | 40km/h | 1932m | -4.7m/s | 7.2°C | 100% | 808.4hPa | 2.7V | 07:44:21 | 03:02:58 | 00:00:00 | |
| DO2JMG | 2026-08-30 13:20:48 | 51.77895 | 8.81549 | 78° | 42km/h | 1936m | -4.8m/s | 7.2°C | 100% | 807.9hPa | 2.7V | 07:44:21 | 03:02:57 | 00:00:00 | |
| DL3AQ-11 | 2026-08-30 13:20:48 | 51.77893 | 8.81533 | 75° | 40km/h | 1941m | -4.6m/s | 7.2°C | 100.0% | 807.5hPa | 2.7V | 00:00:00 | 00:00:00 | 00:00:00 | |
| DM0DOS-11 | 2026-08-30 13:20:47 | 51.77882 | 8.81470 | 76° | 40km/h | 1960m | -4.8m/s | 7.1°C | 0% | 805.6hPa | 2.7V | 07:44:14 | 03:02:52 | 00:00:00 | |
| DO2JMG | 2026-08-30 13:20:47 | 51.77893 | 8.81533 | 76° | 42km/h | 1941m | -4.6m/s | 7.2°C | 100% | 807.5hPa | 2.7V | 07:44:21 | 03:02:56 | 00:00:00 | |
| DO2JMG | 2026-08-30 13:20:45 | 51.77887 | 8.81501 | 75° | 40km/h | 1950m | -4.8m/s | 7.1°C | 100% | 806.7hPa | 2.6V | 07:44:21 | 03:02:54 | 00:00:00 | |
| DO2JMG | 2026-08-30 13:20:44 | 51.77885 | 8.81486 | 76° | 40km/h | 1955m | -4.9m/s | 7.1°C | 100% | 805.9hPa | 2.7V | 07:44:21 | 03:02:53 | 00:00:00 | |
| DO2JMG | 2026-08-30 13:20:43 | 51.77882 | 8.81470 | 76° | 40km/h | 1960m | -4.8m/s | 7.1°C | 100% | 805.6hPa | 2.7V | 07:44:21 | 03:02:52 | 00:00:00 | |
| DK9SH | 2026-08-30 13:20:42 | 51.77882 | 8.81470 | 77° | 40km/h | 1960m | -4.8m/s | 7.1°C | 0% | 805.6hPa | 2.7V | 00:00:00 | 00:00:00 | 00:00:00 | |
| DD1CC2-15 | 2026-08-30 13:20:42 | 51.77882 | 8.81470 | 77° | 40km/h | 1960m | -4.8m/s | 7.1°C | 102.5% | 805.6hPa | 2.7V | 00:00:00 | 00:00:00 | 00:00:00 | |
| DM0DOS-11 | 2026-08-30 13:20:42 | 51.77872 | 8.81408 | 77° | 40km/h | 1979m | -4.8m/s | 7°C | 0% | 803.8hPa | 2.7V | 07:44:18 | 03:02:48 | 00:00:00 | |
| DM0DOS-11 | 2026-08-30 13:20:42 | 51.77868 | 8.81376 | 75° | 42km/h | 1988m | -4.9m/s | 7°C | 0% | 802.9hPa | 2.7V | 07:44:20 | 03:02:46 | 00:00:00 | |
| DO2JMG | 2026-08-30 13:20:42 | 51.77880 | 8.81454 | 75° | 38km/h | 1964m | -4.9m/s | 7.1°C | 100% | 805.1hPa | 2.7V | 07:44:21 | 03:02:51 | 00:00:00 | |
| BIOWL1-15 | 2026-08-30 13:20:41 | 51.77872 | 8.81408 | 77° | 40km/h | 1979m | -4.9m/s | 7°C | 100% | 803.8hPa | 2.7V | 07:44:21 | 03:02:48 | 00:00:00 | |
| HSKMA3-T | 2026-08-30 13:20:41 | 51.77877 | 8.81439 | 74° | 38km/h | 1969m | -4.9m/s | 7.1°C | 100% | 804.6hPa | 2.7V | 07:44:21 | 03:02:50 | 00:00:00 | |
| DO2JMG | 2026-08-30 13:20:40 | 51.77875 | 8.81423 | 76° | 38km/h | 1974m | -4.7m/s | 7°C | 100% | 804.3hPa | 2.7V | 07:44:21 | 03:02:49 | 00:00:00 | |
| DB0DAN | 2026-08-30 13:20:40 | 51.77875 | 8.81423 | 76° | 37km/h | 1974m | -4.7m/s | 7°C | 100% | 804.27hPa | 2.7V | 00:00:00 | 00:00:00 | 00:00:00 | |
| DO2JMG | 2026-08-30 13:20:38 | 51.77870 | 8.81392 | 78° | 40km/h | 1983m | -4.6m/s | 7°C | 100% | 803.2hPa | 2.7V | 07:44:21 | 03:02:47 | 00:00:00 | |
| DD1CC8 | 2026-08-30 13:20:38 | 51.77868 | 8.81376 | 75° | 40km/h | 1988m | -4.9m/s | 7.0°C | 100.0% | 802.9hPa | 2.7V | 00:00:00 | 00:00:00 | 00:00:00 | |
| DM0DOS-11 | 2026-08-30 13:20:37 | 51.77862 | 8.81344 | 72° | 38km/h | 1998m | -4.9m/s | 6.9°C | 0% | 801.9hPa | 2.7V | 07:44:22 | 03:02:44 | 00:00:00 | |
| DM0DOS-11 | 2026-08-30 13:20:37 | 51.77857 | 8.81314 | 77° | 37km/h | 2007m | -4.4m/s | 6.9°C | 0% | 801.1hPa | 2.6V | 07:44:24 | 03:02:42 | 00:00:00 | |
| DO2JMG | 2026-08-30 13:20:36 | 51.77865 | 8.81359 | 73° | 42km/h | 1993m | -4.7m/s | 6.9°C | 100% | 802.5hPa | 2.7V | 07:44:21 | 03:02:45 | 00:00:00 | |
| DO2JMG | 2026-08-30 13:20:35 | 51.77862 | 8.81344 | 73° | 38km/h | 1998m | -4.9m/s | 6.9°C | 100% | 801.9hPa | 2.7V | 07:45:12 | 03:02:44 | 00:00:00 | |
| HSKMA3-T | 2026-08-30 13:20:31 | 51.77853 | 8.81282 | 80° | 40km/h | 2017m | -4.9m/s | 6.8°C | 100% | 800hPa | 2.7V | 07:45:12 | 03:02:40 | 00:00:00 | |
| BIOWL1-15 | 2026-08-30 13:20:29 | 51.77849 | 8.81249 | 78° | 42km/h | 2026m | -4.7m/s | 6.8°C | 100% | 799.2hPa | 2.7V | 07:45:12 | 03:02:38 | 00:00:00 | |
| DL3OBA | 2026-08-30 13:20:28 | 51.77849 | 8.81249 | 79° | 42km/h | 2026m | -4.7m/s | 6.8°C | 0% | 799.2hPa | 2.7V | 07:45:00 | 00:00:00 | 00:00:00 | |
| DM0DOS-11 | 2026-08-30 13:20:26 | 51.77832 | 8.81148 | 70° | 40km/h | 2056m | -5.2m/s | 6.6°C | 0% | 796.3hPa | 2.7V | 07:44:34 | 03:02:32 | 00:00:00 | |
| DB0DAN | 2026-08-30 13:20:25 | 51.77839 | 8.81181 | 74° | 42km/h | 2046m | -5.1m/s | 6.6°C | 100% | 797.19hPa | 2.7V | 00:00:00 | 00:00:00 | 00:00:00 | |
| DO2JMG | 2026-08-30 13:20:25 | 51.77839 | 8.81181 | 74° | 44km/h | 2046m | -5.1m/s | 6.6°C | 100% | 797.2hPa | 2.7V | 07:45:12 | 03:02:34 | 00:00:00 | |
| HSKMA3-T | 2026-08-30 13:20:20 | 51.77824 | 8.81102 | 75° | 38km/h | 2072m | -5.5m/s | 6.5°C | 100% | 794.7hPa | 2.7V | 07:45:12 | 03:02:29 | 00:00:00 | |
| BIOWL9-15 | 2026-08-30 13:20:17 | 51.77817 | 8.81057 | 78° | 37km/h | 2088m | -5.1m/s | 6.3°C | 100.0% | 793.1hPa | 2.7V | 00:00:00 | 00:00:00 | 00:00:00 | |
| DM0DOS-11 | 2026-08-30 13:20:16 | 51.77810 | 8.80994 | 76° | 40km/h | 2109m | -5.1m/s | 6.2°C | 0% | 791.1hPa | 2.7V | 07:44:44 | 03:02:22 | 00:00:00 | |
| DO2JMG | 2026-08-30 13:20:14 | 51.77812 | 8.81010 | 78° | 40km/h | 2104m | -5.3m/s | 6.2°C | 100% | 791.6hPa | 2.6V | 07:45:12 | 03:02:23 | 00:00:00 | |
| BIOWL1-15 | 2026-08-30 13:20:12 | 51.77807 | 8.80979 | 76° | 38km/h | 2114m | -5.2m/s | 6.2°C | 100% | 790.7hPa | 2.7V | 07:45:12 | 03:02:21 | 00:00:00 | |
| DB0DAN | 2026-08-30 13:20:10 | 51.77803 | 8.80947 | 76° | 40km/h | 2124m | -5.2m/s | 6.1°C | 100% | 789.67hPa | 2.7V | 00:00:00 | 00:00:00 | 00:00:00 | |
| HSKMA3-T | 2026-08-30 13:20:09 | 51.77800 | 8.80930 | 75° | 44km/h | 2129m | -4.9m/s | 6.1°C | 100% | 789.1hPa | 2.7V | 07:45:12 | 03:02:18 | 00:00:00 | |
| DL3OBA | 2026-08-30 13:20:07 | 51.77797 | 8.80913 | 74° | 42km/h | 2135m | -5.1m/s | 6.1°C | 0% | 788.7hPa | 2.7V | 07:45:00 | 00:00:00 | 00:00:00 | |
| DM0DOS-11 | 2026-08-30 13:20:06 | 51.77782 | 8.80831 | 72° | 42km/h | 2159m | -5.5m/s | 6°C | 0% | 786.5hPa | 2.7V | 07:44:54 | 03:02:12 | 00:00:00 | |
| DO2JMG | 2026-08-30 13:20:03 | 51.77782 | 8.80831 | 73° | 42km/h | 2159m | -5.5m/s | 6°C | 100% | 786.5hPa | 2.7V | 07:45:12 | 03:02:12 | 00:00:00 | |
| BIOWL1-15 | 2026-08-30 13:20:02 | 51.77779 | 8.80815 | 73° | 40km/h | 2165m | -5.5m/s | 5.9°C | 100% | 785.9hPa | 2.7V | 07:45:12 | 03:02:11 | 00:00:00 | |
| HSKMA3-T | 2026-08-30 13:19:59 | 51.77770 | 8.80769 | 73° | 38km/h | 2181m | -5.2m/s | 5.8°C | 100% | 784.2hPa | 2.7V | 07:45:12 | 03:02:08 | 00:00:00 | |
| SONCRA | 2026-08-30 13:19:57 | 51.77753 | 8.80664 | 79° | 42km/h | 2216m | -4.5m/s | 5.7°C | 100.0% | 781.0hPa | 2.7V | 00:00:00 | 00:00:00 | 00:00:00 | |
| DB0DAN | 2026-08-30 13:19:55 | 51.77759 | 8.80711 | 77° | 35km/h | 2201m | -4.7m/s | 5.7°C | 100% | 782.3hPa | 2.7V | 00:00:00 | 00:00:00 | 00:00:00 | |
| BIOWL1-15 | 2026-08-30 13:19:53 | 51.77751 | 8.80646 | 77° | 44km/h | 2220m | -4.5m/s | 5.7°C | 100% | 780.4hPa | 2.7V | 07:45:12 | 03:02:00 | 00:00:00 | |
| DO2JMG | 2026-08-30 13:19:52 | 51.77753 | 8.80664 | 79° | 44km/h | 2216m | -4.5m/s | 5.7°C | 100% | 781hPa | 2.7V | 07:45:12 | 03:02:01 | 00:00:00 | |
| DM0DOS-11 | 2026-08-30 13:19:51 | 51.77742 | 8.80594 | 71° | 44km/h | 2234m | -5m/s | 5.5°C | 0% | 779.1hPa | 2.7V | 07:45:09 | 03:01:57 | 00:00:00 | |
| HSKMA3-T | 2026-08-30 13:19:48 | 51.77742 | 8.80594 | 72° | 44km/h | 2234m | -5m/s | 5.6°C | 100% | 779.1hPa | 2.7V | 07:45:12 | 03:01:57 | 00:00:00 | |
| DL3OBA | 2026-08-30 13:19:47 | 51.77742 | 8.80593 | 73° | 44km/h | 2234m | -5.0m/s | 5.6°C | 0% | 779.1hPa | 2.7V | 07:45:00 | 00:00:00 | 00:00:00 | |
| DM0DOS-11 | 2026-08-30 13:19:46 | 51.77723 | 8.80512 | 67° | 40km/h | 2258m | -4.7m/s | 5.5°C | 0% | 776.9hPa | 2.7V | 07:45:14 | 03:01:52 | 00:00:00 | |
| DO2JMG | 2026-08-30 13:19:42 | 51.77720 | 8.80496 | 70° | 40km/h | 2263m | -4.5m/s | 5.4°C | 100% | 776.3hPa | 2.7V | 07:46:03 | 03:01:51 | 00:00:00 | |
| DM0DOS-11 | 2026-08-30 13:19:41 | 51.77711 | 8.80432 | 82° | 42km/h | 2282m | -5.2m/s | 5.3°C | 0% | 774.6hPa | 2.7V | 07:45:19 | 03:01:47 | 00:00:00 | |
| DB0DAN | 2026-08-30 13:19:40 | 51.77714 | 8.80465 | 79° | 38km/h | 2272m | -4.6m/s | 5.4°C | 100% | 775.49hPa | 2.7V | 00:00:00 | 00:00:00 | 00:00:00 | |
| BIOWL1-15 | 2026-08-30 13:19:40 | 51.77714 | 8.80465 | 79° | 40km/h | 2272m | -4.6m/s | 5.4°C | 100% | 775.5hPa | 2.7V | 07:46:03 | 03:01:49 | 00:00:00 | |
| HSKMA3-T | 2026-08-30 13:19:37 | 51.77710 | 8.80415 | 84° | 42km/h | 2287m | -5.2m/s | 5.3°C | 100% | 774.2hPa | 2.7V | 07:46:03 | 03:01:46 | 00:00:00 | |
| DM0DOS-11 | 2026-08-30 13:19:36 | 51.77706 | 8.80345 | 82° | 44km/h | 2308m | -5.5m/s | 5.2°C | 0% | 772.2hPa | 2.7V | 07:45:24 | 03:01:42 | 00:00:00 | |
| DD1CC8 | 2026-08-30 13:19:35 | 51.77708 | 8.80381 | 85° | 42km/h | 2298m | -5.1m/s | 5.2°C | 100.0% | 773.2hPa | 2.7V | 00:00:00 | 00:00:00 | 00:00:00 | |
| DM0DOS-11 | 2026-08-30 13:19:31 | 51.77695 | 8.80256 | 77° | 46km/h | 2334m | -5.3m/s | 5°C | 0% | 769.6hPa | 2.7V | 07:45:29 | 03:01:37 | 00:00:00 | |
| DO2JMG | 2026-08-30 13:19:31 | 51.77702 | 8.80309 | 80° | 46km/h | 2319m | -5.1m/s | 5.2°C | 100% | 771.1hPa | 2.6V | 07:46:03 | 03:01:40 | 00:00:00 | |
| BIOWL1-15 | 2026-08-30 13:19:30 | 51.77700 | 8.80291 | 78° | 46km/h | 2324m | -5m/s | 5.1°C | 100% | 770.6hPa | 2.6V | 07:46:03 | 03:01:39 | 00:00:00 | |
| DD1CC3-15 | 2026-08-30 13:19:28 | 51.77698 | 8.80273 | 80° | 44km/h | 2329m | -5.2m/s | 5.1°C | 101.3% | 770.1hPa | 2.6V | 07:46:00 | 00:00:00 | 00:00:00 | |
| DL3AQ-11 | 2026-08-30 13:19:27 | 51.77693 | 8.80237 | 76° | 46km/h | 2339m | -5.2m/s | 4.9°C | 98.3% | 769.1hPa | 2.6V | 00:00:00 | 00:00:00 | 00:00:00 | |
| DM0DOS-11 | 2026-08-30 13:19:26 | 51.77684 | 8.80167 | 82° | 44km/h | 2359m | -5m/s | 4.9°C | 98.2% | 767.3hPa | 2.6V | 07:45:34 | 03:01:32 | 00:00:00 | |
| HSKMA3-T | 2026-08-30 13:19:26 | 51.77690 | 8.80220 | 76° | 44km/h | 2344m | -5m/s | 4.9°C | 100% | 768.6hPa | 2.7V | 07:46:03 | 03:01:35 | 00:00:00 | |
| DB0DAN | 2026-08-30 13:19:25 | 51.77688 | 8.80202 | 77° | 42km/h | 2349m | -4.9m/s | 4.9°C | 98.2% | 768.24hPa | 2.7V | 00:00:00 | 00:00:00 | 00:00:00 | |
| DM0DOS-11 | 2026-08-30 13:19:21 | 51.77677 | 8.80075 | 82° | 49km/h | 2384m | -4.9m/s | 5.7°C | 91% | 764.9hPa | 2.7V | 07:45:39 | 03:01:27 | 00:00:00 | |
| DO2JMG | 2026-08-30 13:19:21 | 51.77681 | 8.80131 | 83° | 46km/h | 2369m | -5.1m/s | 5°C | 97% | 766.5hPa | 2.7V | 07:46:03 | 03:01:30 | 00:00:00 | |
| BIOWL1-15 | 2026-08-30 13:19:19 | 51.77679 | 8.80095 | 84° | 47km/h | 2379m | -5.1m/s | 5.6°C | 94.2% | 765.6hPa | 2.7V | 07:46:03 | 03:01:28 | 00:00:00 | |
| HSKMA3-T | 2026-08-30 13:19:15 | 51.77670 | 8.80017 | 78° | 47km/h | 2398m | -4.9m/s | 5.9°C | 90.7% | 763.6hPa | 2.7V | 07:46:03 | 03:01:24 | 00:00:00 | |
| DL3AQ-11 | 2026-08-30 13:19:15 | 51.77668 | 8.79998 | 78° | 46km/h | 2403m | -4.7m/s | 5.9°C | 85.9% | 763.1hPa | 2.7V | 00:00:00 | 00:00:00 | 00:00:00 | |
| DO9LL-15 | 2026-08-30 13:19:13 | 51.77665 | 8.79980 | 80° | 46km/h | 2408m | -4.5m/s | 5.8°C | 86.3% | 762.6hPa | 2.7V | 00:00:00 | 03:01:22 | 00:00:00 | |
| DM0DOS-11 | 2026-08-30 13:19:11 | 51.77655 | 8.79889 | 81° | 44km/h | 2432m | -4.8m/s | 5.7°C | 86.7% | 760.6hPa | 2.7V | 07:45:49 | 03:01:17 | 00:00:00 | |
| DB0DAN | 2026-08-30 13:19:10 | 51.77659 | 8.79924 | 78° | 42km/h | 2422m | -5m/s | 5.7°C | 86.2% | 761.45hPa | 2.7V | 00:00:00 | 00:00:00 | 00:00:00 | |
| DO2JMG | 2026-08-30 13:19:10 | 51.77659 | 8.79924 | 78° | 46km/h | 2422m | -5m/s | 5.7°C | 90.9% | 761.5hPa | 2.7V | 07:46:03 | 03:01:19 | 00:00:00 | |
| BIOWL1-15 | 2026-08-30 13:19:08 | 51.77655 | 8.79889 | 82° | 44km/h | 2432m | -4.8m/s | 5.7°C | 90.9% | 760.6hPa | 2.7V | 07:46:03 | 03:01:17 | 00:00:00 | |
| DM0DOS-11 | 2026-08-30 13:19:06 | 51.77647 | 8.79796 | 82° | 46km/h | 2455m | -4.7m/s | 5.5°C | 88% | 758.4hPa | 2.7V | 07:45:54 | 03:01:12 | 00:00:00 | |
| HSKMA3-T | 2026-08-30 13:19:04 | 51.77648 | 8.79815 | 82° | 46km/h | 2451m | -4.8m/s | 5.5°C | 91.4% | 758.9hPa | 2.7V | 07:46:03 | 03:01:13 | 00:00:00 | |
| DO2JMG | 2026-08-30 13:19:00 | 51.77641 | 8.79740 | 80° | 46km/h | 2470m | -5m/s | 5.4°C | 91.4% | 757.1hPa | 2.7V | 07:46:03 | 03:01:09 | 00:00:00 | |
| BIOWL1-15 | 2026-08-30 13:18:59 | 51.77635 | 8.79686 | 81° | 46km/h | 2484m | -4.8m/s | 5.3°C | 94.5% | 755.7hPa | 2.7V | 07:46:03 | 03:01:06 | 00:00:00 | |
| BIOWL7-15 | 2026-08-30 13:18:58 | 51.77638 | 8.79722 | 82° | 44km/h | 2475m | -4.9m/s | 5.3°C | 87.4% | 756.6hPa | 2.7V | 00:00:00 | 00:00:00 | 00:00:00 | |
| DM0DOS-11 | 2026-08-30 13:18:56 | 51.77628 | 8.79613 | 80° | 46km/h | 2503m | -4.8m/s | 5.2°C | 90.5% | 753.9hPa | 2.7V | 07:46:04 | 03:01:02 | 00:00:00 | |
| DB0DAN | 2026-08-30 13:18:55 | 51.77631 | 8.79650 | 82° | 44km/h | 2494m | -4.8m/s | 5.2°C | 90.5% | 754.83hPa | 2.6V | 00:00:00 | 00:00:00 | 00:00:00 | |
| HSKMA3-T | 2026-08-30 13:18:53 | 51.77628 | 8.79613 | 81° | 46km/h | 2503m | -4.8m/s | 5.2°C | 94.4% | 753.9hPa | 2.7V | 07:46:54 | 03:01:02 | 00:00:00 | |
| DO2JMG | 2026-08-30 13:18:49 | 51.77622 | 8.79538 | 83° | 46km/h | 2523m | -5.1m/s | 5°C | 94.8% | 752.1hPa | 2.7V | 07:46:54 | 03:00:58 | 00:00:00 | |
| BIOWL1-15 | 2026-08-30 13:18:48 | 51.77618 | 8.79483 | 85° | 46km/h | 2537m | -5.2m/s | 4.9°C | 94.3% | 750.9hPa | 2.7V | 07:46:54 | 03:00:55 | 00:00:00 | |
| BUE01 | 2026-08-30 13:18:47 | 51.77618 | 8.79483 | 84° | 46km/h | 2537m | -5.2m/s | 4.9°C | 89.6% | 750.9hPa | 2.7V | 00:00:00 | 00:00:00 | 00:00:00 | |
| DM0DOS-11 | 2026-08-30 13:18:46 | 51.77615 | 8.79427 | 85° | 46km/h | 2552m | -5m/s | 4.7°C | 91.1% | 749.5hPa | 2.7V | 07:46:14 | 03:00:52 | 00:00:00 | |
| BIOWL9-15 | 2026-08-30 13:18:44 | 51.77616 | 8.79446 | 83° | 44km/h | 2547m | -4.9m/s | 4.8°C | 89.9% | 749.9hPa | 2.6V | 00:00:00 | 00:00:00 | 00:00:00 | |
| HSKMA3-T | 2026-08-30 13:18:42 | 51.77613 | 8.79409 | 83° | 46km/h | 2557m | -5m/s | 4.7°C | 95.2% | 749.1hPa | 2.6V | 07:46:54 | 03:00:51 | 00:00:00 | |
| DD1CC1-15 | 2026-08-30 13:18:41 | 51.77613 | 8.79409 | 84° | 46km/h | 2557m | -5.0m/s | 4.7°C | 90.3% | 749.1hPa | 2.7V | 07:46:00 | 00:00:00 | 00:00:00 | |
| DB0DAN | 2026-08-30 13:18:40 | 51.77610 | 8.79373 | 82° | 42km/h | 2567m | -5m/s | 4.6°C | 91.6% | 748.18hPa | 2.7V | 00:00:00 | 00:00:00 | 00:00:00 | |
| DO2JMG | 2026-08-30 13:18:39 | 51.77609 | 8.79356 | 84° | 44km/h | 2572m | -4.9m/s | 4.5°C | 95.9% | 747.6hPa | 2.7V | 07:46:54 | 03:00:48 | 00:00:00 | |
| DK9SH | 2026-08-30 13:18:38 | 51.77609 | 8.79356 | 85° | 44km/h | 2572m | -4.9m/s | 4.5°C | 91.5% | 747.6hPa | 2.6V | 07:46:00 | 00:00:00 | 00:00:00 | |
| DM0DOS-11 | 2026-08-30 13:18:36 | 51.77604 | 8.79250 | 87° | 44km/h | 2601m | -4.9m/s | 4.5°C | 84.1% | 745.1hPa | 2.6V | 07:46:24 | 03:00:42 | 00:00:00 | |
| HSKMA3-T | 2026-08-30 13:18:32 | 51.77603 | 8.79232 | 87° | 44km/h | 2606m | -5m/s | 4.4°C | 87.9% | 744.5hPa | 2.6V | 07:46:54 | 03:00:41 | 00:00:00 | |
| DO2JMG | 2026-08-30 13:18:28 | 51.77600 | 8.79159 | 86° | 44km/h | 2626m | -4.8m/s | 4.3°C | 89.1% | 742.8hPa | 2.7V | 07:46:54 | 03:00:37 | 00:00:00 | |
| DD8BA-10 | 2026-08-30 13:18:28 | 51.77600 | 8.79159 | 86° | 42km/h | 2626m | -4.8m/s | 4.3°C | 85.9% | 742.8hPa | 2.7V | 00:00:00 | 00:00:00 | 00:00:00 | |
| DD1CC3-15 | 2026-08-30 13:18:27 | 51.77600 | 8.79159 | 87° | 44km/h | 2626m | -4.8m/s | 4.3°C | 85.1% | 742.8hPa | 2.7V | 07:46:00 | 00:00:00 | 00:00:00 | |
| DB0DAN | 2026-08-30 13:18:25 | 51.77597 | 8.79107 | 86° | 38km/h | 2640m | -4.9m/s | 4.3°C | 85.4% | 741.44hPa | 2.7V | 00:00:00 | 00:00:00 | 00:00:00 | |
| HSKMA3-T | 2026-08-30 13:18:22 | 51.77595 | 8.79056 | 86° | 42km/h | 2655m | -4.9m/s | 4.2°C | 88.9% | 740.2hPa | 2.6V | 07:46:54 | 03:00:31 | 00:00:00 | |
| DM0DOS-11 | 2026-08-30 13:18:21 | 51.77594 | 8.78990 | 92° | 42km/h | 2674m | -4.9m/s | 4.1°C | 85.5% | 738.3hPa | 2.7V | 07:46:39 | 03:00:27 | 00:00:00 | |
| BIOWL1-15 | 2026-08-30 13:18:21 | 51.77594 | 8.79040 | 87° | 40km/h | 2660m | -4.9m/s | 4.2°C | 88.9% | 739.7hPa | 2.6V | 07:46:54 | 03:00:30 | 00:00:00 | |
| DO2JMG | 2026-08-30 13:18:18 | 51.77594 | 8.78990 | 93° | 42km/h | 2674m | -4.9m/s | 4.1°C | 88.4% | 738.3hPa | 2.7V | 07:46:54 | 03:00:27 | 00:00:00 | |
| BIOWL1-15 | 2026-08-30 13:18:16 | 51.77592 | 8.78853 | 86° | 40km/h | 2713m | -5m/s | 3.9°C | 85.7% | 734.8hPa | 2.7V | 07:46:54 | 03:00:19 | 00:00:00 | |
| HSKMA3-T | 2026-08-30 13:18:12 | 51.77594 | 8.78887 | 88° | 42km/h | 2704m | -4.8m/s | 3.9°C | 87.5% | 735.7hPa | 2.7V | 07:46:54 | 03:00:21 | 00:00:00 | |
| DM0DOS-11 | 2026-08-30 13:18:11 | 51.77591 | 8.78820 | 85° | 40km/h | 2723m | -5.1m/s | 3.8°C | 81.5% | 734hPa | 2.7V | 07:46:49 | 03:00:17 | 00:00:00 | |
| DB0DAN | 2026-08-30 13:18:10 | 51.77592 | 8.78853 | 86° | 38km/h | 2713m | -5m/s | 3.9°C | 82.4% | 734.83hPa | 2.7V | 00:00:00 | 00:00:00 | 00:00:00 | |
| DO2JMG | 2026-08-30 13:18:07 | 51.77590 | 8.78804 | 86° | 38km/h | 2728m | -4.8m/s | 3.8°C | 83% | 733.5hPa | 2.7V | 07:46:54 | 03:00:16 | 00:00:00 | |
| DD8BA-10 | 2026-08-30 13:18:07 | 51.77590 | 8.78804 | 86° | 40km/h | 2728m | -4.7m/s | 3.7°C | 81.4% | 733.5hPa | 2.7V | 00:00:00 | 00:00:00 | 00:00:00 | |
| DM0DOS-11 | 2026-08-30 13:18:06 | 51.77588 | 8.78740 | 85° | 40km/h | 2747m | -4.9m/s | 3.7°C | 81.4% | 731.7hPa | 2.7V | 07:46:54 | 03:00:12 | 00:00:00 | |
| BIOWL1-15 | 2026-08-30 13:18:04 | 51.77586 | 8.78692 | 87° | 38km/h | 2762m | -4.8m/s | 3.6°C | 84.6% | 730.4hPa | 2.7V | 07:47:45 | 03:00:09 | 00:00:00 | |
| DD1CC8 | 2026-08-30 13:18:02 | 51.77587 | 8.78708 | 86° | 37km/h | 2757m | -4.9m/s | 3.6°C | 81.8% | 730.8hPa | 2.7V | 00:00:00 | 00:00:00 | 00:00:00 | |
| DM0DOS-11 | 2026-08-30 13:18:01 | 51.77584 | 8.78661 | 83° | 38km/h | 2772m | -5m/s | 3.5°C | 81.8% | 729.6hPa | 2.7V | 07:46:59 | 03:00:07 | 00:00:00 | |
| HSKMA3-T | 2026-08-30 13:18:01 | 51.77587 | 8.78708 | 86° | 38km/h | 2757m | -4.9m/s | 3.6°C | 83.5% | 730.8hPa | 2.7V | 07:47:45 | 03:00:10 | 00:00:00 | |
| DO2JMG | 2026-08-30 13:17:57 | 51.77583 | 8.78645 | 84° | 38km/h | 2777m | -5m/s | 3.6°C | 83.5% | 729hPa | 2.7V | 07:47:45 | 03:00:06 | 00:00:00 | |
| DM0DOS-11 | 2026-08-30 13:17:56 | 51.77577 | 8.78584 | 80° | 37km/h | 2796m | -5m/s | 3.7°C | 79% | 727.2hPa | 2.7V | 07:47:04 | 03:00:02 | 00:00:00 | |
| DB0DAN | 2026-08-30 13:17:55 | 51.77581 | 8.78614 | 80° | 37km/h | 2787m | -5m/s | 3.6°C | 83.6% | 728.15hPa | 2.6V | 00:00:00 | 00:00:00 | 00:00:00 | |
| DL3AQ-11 | 2026-08-30 13:17:55 | 51.77579 | 8.78599 | 79° | 37km/h | 2791m | -4.8m/s | 3.6°C | 85.0% | 727.7hPa | 2.7V | 00:00:00 | 00:00:00 | 00:00:00 | |
| SONCRA | 2026-08-30 13:17:52 | 51.77576 | 8.78569 | 83° | 35km/h | 2801m | -5.0m/s | 3.8°C | 70.2% | 726.8hPa | 2.7V | 00:00:00 | 00:00:00 | 00:00:00 | |
| DM0DOS-11 | 2026-08-30 13:17:51 | 51.77573 | 8.78506 | 83° | 42km/h | 2821m | -4.9m/s | 4°C | 58.6% | 725.1hPa | 2.7V | 07:47:09 | 02:59:57 | 00:00:00 | |
| HSKMA3-T | 2026-08-30 13:17:51 | 51.77575 | 8.78554 | 86° | 37km/h | 2806m | -4.9m/s | 3.8°C | 70.3% | 726.4hPa | 2.7V | 07:47:45 | 03:00:00 | 00:00:00 | |
| BIOWL1-15 | 2026-08-30 13:17:50 | 51.77575 | 8.78539 | 88° | 40km/h | 2811m | -4.9m/s | 3.9°C | 69.1% | 725.9hPa | 2.7V | 07:47:45 | 02:59:59 | 00:00:00 | |
| DM0DOS-11 | 2026-08-30 13:17:46 | 51.77566 | 8.78423 | 81° | 40km/h | 2846m | -4.9m/s | 4.5°C | 35.2% | 722.9hPa | 2.7V | 07:47:14 | 02:59:52 | 00:00:00 | |
| DO2JMG | 2026-08-30 13:17:46 | 51.77570 | 8.78473 | 82° | 40km/h | 2831m | -5.1m/s | 4.3°C | 47.2% | 724.2hPa | 2.6V | 07:47:45 | 02:59:55 | 00:00:00 | |
| BUE01 | 2026-08-30 13:17:45 | 51.77567 | 8.78440 | 81° | 40km/h | 2841m | -5.0m/s | 4.4°C | 36.9% | 723.4hPa | 2.7V | 00:00:00 | 00:00:00 | 00:00:00 | |
| DL3AQ-11 | 2026-08-30 13:17:44 | 51.77566 | 8.78423 | 81° | 38km/h | 2846m | -4.9m/s | 4.5°C | 34.9% | 722.9hPa | 2.7V | 00:00:00 | 00:00:00 | 00:00:00 | |
| BIOWL9-15 | 2026-08-30 13:17:42 | 51.77564 | 8.78407 | 82° | 38km/h | 2850m | -5.0m/s | 4.5°C | 33.4% | 722.5hPa | 2.7V | 00:00:00 | 00:00:00 | 00:00:00 | |
| DM0DOS-11 | 2026-08-30 13:17:41 | 51.77560 | 8.78341 | 85° | 40km/h | 2870m | -4.9m/s | 4.7°C | 24.8% | 720.7hPa | 2.7V | 07:47:19 | 02:59:47 | 00:00:00 | |
| HSKMA3-T | 2026-08-30 13:17:41 | 51.77563 | 8.78391 | 83° | 40km/h | 2855m | -4.9m/s | 4.6°C | 34.6% | 722hPa | 2.7V | 07:47:45 | 02:59:50 | 00:00:00 | |
| BIOWL1-15 | 2026-08-30 13:17:41 | 51.77561 | 8.78358 | 83° | 40km/h | 2865m | -5m/s | 4.7°C | 29.4% | 721.2hPa | 2.7V | 07:47:45 | 02:59:48 | 00:00:00 | |
| DB0DAN | 2026-08-30 13:17:40 | 51.77562 | 8.78374 | 83° | 38km/h | 2861m | -5.1m/s | 4.6°C | 28.9% | 721.53hPa | 2.7V | 00:00:00 | 00:00:00 | 00:00:00 | |
| DO2JMG | 2026-08-30 13:17:36 | 51.77557 | 8.78307 | 84° | 42km/h | 2880m | -5m/s | 4.7°C | 25.6% | 719.7hPa | 2.6V | 07:47:45 | 02:59:45 | 00:00:00 | |
| DJ2DS-15 | 2026-08-30 13:17:34 | 51.77554 | 8.78258 | 85° | 40km/h | 2895m | -4.9m/s | 4.7°C | 21.3% | 718.5hPa | 2.7V | 00:00:00 | 00:00:00 | 00:00:00 | |
| DO9LL-15 | 2026-08-30 13:17:33 | 51.77554 | 8.78258 | 86° | 42km/h | 2895m | -4.9m/s | 4.7°C | 21.5% | 718.4hPa | 2.7V | 00:00:00 | 02:59:42 | 00:00:00 | |
| DM0DOS-11 | 2026-08-30 13:17:31 | 51.77551 | 8.78172 | 87° | 42km/h | 2921m | -5.1m/s | 4.6°C | 20.1% | 716.2hPa | 2.7V | 07:47:29 | 02:59:37 | 00:00:00 | |
| HSKMA3-T | 2026-08-30 13:17:31 | 51.77553 | 8.78223 | 86° | 42km/h | 2905m | -5.1m/s | 4.7°C | 23.3% | 717.6hPa | 2.7V | 07:47:45 | 02:59:40 | 00:00:00 | |
| BIOWL1-15 | 2026-08-30 13:17:30 | 51.77551 | 8.78172 | 87° | 42km/h | 2921m | -5.1m/s | 4.6°C | 22.7% | 716.2hPa | 2.7V | 07:47:45 | 02:59:37 | 00:00:00 | |
| BIOWL7-15 | 2026-08-30 13:17:28 | 51.77551 | 8.78189 | 87° | 42km/h | 2915m | -5.2m/s | 4.6°C | 20.1% | 716.7hPa | 2.7V | 00:00:00 | 00:00:00 | 00:00:00 | |
| DL3AQ-11 | 2026-08-30 13:17:27 | 51.77550 | 8.78155 | 89° | 40km/h | 2925m | -5.2m/s | 4.6°C | 19.9% | 715.8hPa | 2.7V | 00:00:00 | 00:00:00 | 00:00:00 | |
| DB0DAN | 2026-08-30 13:17:25 | 51.77550 | 8.78121 | 89° | 40km/h | 2936m | -5.2m/s | 4.5°C | 20% | 714.96hPa | 2.7V | 00:00:00 | 00:00:00 | 00:00:00 | |
| DO2JMG | 2026-08-30 13:17:25 | 51.77550 | 8.78121 | 89° | 42km/h | 2936m | -5.2m/s | 4.5°C | 22.6% | 715hPa | 2.7V | 07:47:45 | 02:59:34 | 00:00:00 | |
| DL3OBA | 2026-08-30 13:17:24 | 51.77550 | 8.78121 | 90° | 42km/h | 2936m | -5.2m/s | 4.5°C | 20.0% | 715.0hPa | 2.7V | 07:47:00 | 00:00:00 | 00:00:00 | |
| DO3DL | 2026-08-30 13:17:23 | 51.77550 | 8.78103 | 89° | 42km/h | 2941m | -5.0m/s | 4.5°C | 19.9% | 714.5hPa | 2.7V | 07:47:00 | 00:00:00 | 00:00:00 | |
| DM0DOS-11 | 2026-08-30 13:17:21 | 51.77548 | 8.78004 | 89° | 40km/h | 2971m | -4.9m/s | 4.7°C | 18.1% | 711.9hPa | 2.7V | 07:47:39 | 02:59:27 | 00:00:00 | |
| HSKMA3-T | 2026-08-30 13:17:20 | 51.77549 | 8.78037 | 87° | 40km/h | 2961m | -5.1m/s | 4.7°C | 20.2% | 712.7hPa | 2.7V | 07:47:45 | 02:59:29 | 00:00:00 | |
| BIOWL1-15 | 2026-08-30 13:17:17 | 51.77548 | 8.77987 | 90° | 42km/h | 2976m | -4.9m/s | 4.6°C | 20.3% | 711.5hPa | 2.7V | 07:47:45 | 02:59:26 | 00:00:00 | |
| DL1CLM-18 | 2026-08-30 13:17:16 | 51.77548 | 8.77987 | 91° | 42km/h | 2976m | -4.9m/s | 4.6°C | 18.0% | 711.5hPa | 2.7V | 07:47:00 | 00:00:00 | 00:00:00 | |
| DM0DOS-11 | 2026-08-30 13:17:15 | 51.77547 | 8.77915 | 90° | 44km/h | 2996m | -5.2m/s | 4.5°C | 18% | 709.6hPa | 2.7V | 07:47:44 | 02:59:22 | 00:00:00 | |
| DO2JMG | 2026-08-30 13:17:15 | 51.77548 | 8.77951 | 89° | 44km/h | 2986m | -5.1m/s | 4.5°C | 20.3% | 710.6hPa | 2.6V | 07:47:45 | 02:59:24 | 00:00:00 | |
| BUE01 | 2026-08-30 13:17:14 | 51.77548 | 8.77915 | 90° | 44km/h | 2996m | -5.2m/s | 4.5°C | 17.9% | 709.6hPa | 2.7V | 00:00:00 | 00:00:00 | 00:00:00 | |
| DB0UT-7 | 2026-08-30 13:17:13 | 51.77547 | 8.77915 | 91° | 44km/h | 2996m | -5.1m/s | 4.5°C | 18.0% | 709.6hPa | 2.7V | 00:00:00 | 00:00:00 | 00:00:00 | |
| BIOWL9-15 | 2026-08-30 13:17:11 | 51.77548 | 8.77878 | 89° | 44km/h | 3007m | -5.2m/s | 4.5°C | 17.6% | 708.8hPa | 2.7V | 00:00:00 | 00:00:00 | 00:00:00 | |
| DM0DOS-11 | 2026-08-30 13:17:10 | 51.77547 | 8.77824 | 88° | 44km/h | 3022m | -5.1m/s | 4.4°C | 17.9% | 707.4hPa | 2.7V | 07:47:49 | 02:59:17 | 00:00:00 | |
| DB0DAN | 2026-08-30 13:17:10 | 51.77547 | 8.77860 | 88° | 42km/h | 3012m | -5m/s | 4.5°C | 17.6% | 708.34hPa | 2.7V | 00:00:00 | 00:00:00 | 00:00:00 | |
| HSKMA3-T | 2026-08-30 13:17:09 | 51.77547 | 8.77842 | 89° | 44km/h | 3017m | -5.2m/s | 4.4°C | 20% | 708hPa | 2.7V | 07:48:36 | 02:59:18 | 00:00:00 | |
| BIOWL1-15 | 2026-08-30 13:17:07 | 51.77546 | 8.77807 | 86° | 44km/h | 3027m | -4.8m/s | 4.4°C | 20.1% | 706.9hPa | 2.7V | 07:48:36 | 02:59:16 | 00:00:00 | |
| DO2JMG | 2026-08-30 13:17:04 | 51.77545 | 8.77755 | 91° | 42km/h | 3042m | -4.9m/s | 4.3°C | 20.3% | 705.7hPa | 2.7V | 07:48:36 | 02:59:13 | 00:00:00 | |
| DL3OBA | 2026-08-30 13:17:03 | 51.77545 | 8.77755 | 92° | 42km/h | 3042m | -4.9m/s | 4.3°C | 18.0% | 705.7hPa | 2.7V | 07:48:00 | 00:00:00 | 00:00:00 | |
| DM0DOS-11 | 2026-08-30 13:17:00 | 51.77547 | 8.77649 | 91° | 44km/h | 3072m | -5.3m/s | 4.1°C | 18.6% | 703hPa | 2.7V | 07:47:59 | 02:59:07 | 00:00:00 | |
| HSKMA3-T | 2026-08-30 13:16:58 | 51.77547 | 8.77649 | 92° | 44km/h | 3072m | -5.3m/s | 4.1°C | 20.6% | 703hPa | 2.7V | 07:48:36 | 02:59:07 | 00:00:00 | |
| DD1CC1-15 | 2026-08-30 13:16:57 | 51.77547 | 8.77649 | 93° | 44km/h | 3072m | -5.3m/s | 4.1°C | 18.4% | 703.0hPa | 2.7V | 07:48:00 | 00:00:00 | 00:00:00 | |
| DB0DAN | 2026-08-30 13:16:55 | 51.77547 | 8.77595 | 90° | 42km/h | 3088m | -4.9m/s | 4°C | 18.6% | 701.75hPa | 2.7V | 00:00:00 | 00:00:00 | 00:00:00 | |
| DM0DOS-11 | 2026-08-30 13:16:55 | 51.77548 | 8.77559 | 91° | 44km/h | 3098m | -5.1m/s | 3.9°C | 18.9% | 700.8hPa | 2.7V | 07:48:04 | 02:59:02 | 00:00:00 | |
| DO2JMG | 2026-08-30 13:16:54 | 51.77548 | 8.77577 | 91° | 42km/h | 3093m | -5.1m/s | 4°C | 20.8% | 701.3hPa | 2.7V | 07:48:36 | 02:59:03 | 00:00:00 | |
| DO3DL | 2026-08-30 13:16:51 | 51.77548 | 8.77541 | 92° | 44km/h | 3103m | -5.1m/s | 3.9°C | 18.7% | 700.4hPa | 2.7V | 07:48:00 | 00:00:00 | 00:00:00 | |
| DM0DOS-11 | 2026-08-30 13:16:50 | 51.77550 | 8.77468 | 93° | 46km/h | 3123m | -5.4m/s | 3.9°C | 18.5% | 698.5hPa | 2.7V | 07:48:09 | 02:58:57 | 00:00:00 | |
| HSKMA3-T | 2026-08-30 13:16:47 | 51.77550 | 8.77450 | 93° | 46km/h | 3129m | -5.4m/s | 4°C | 20.2% | 698.1hPa | 2.7V | 07:48:36 | 02:58:56 | 00:00:00 | |
| DM0DOS-11 | 2026-08-30 13:16:45 | 51.77551 | 8.77374 | 89° | 47km/h | 3149m | -5.2m/s | 4.2°C | 10.3% | 696.4hPa | 2.6V | 07:48:14 | 02:58:52 | 00:00:00 | |
| BIOWL1-15 | 2026-08-30 13:16:45 | 51.77551 | 8.77412 | 90° | 47km/h | 3139m | -5.1m/s | 4°C | 15.9% | 697.3hPa | 2.7V | 07:48:36 | 02:58:54 | 00:00:00 | |
| DO2JMG | 2026-08-30 13:16:43 | 51.77551 | 8.77374 | 90° | 47km/h | 3149m | -5.2m/s | 4.1°C | 10.2% | 696.4hPa | 2.6V | 07:48:36 | 02:58:52 | 00:00:00 | |
| DB0UT-7 | 2026-08-30 13:16:43 | 51.77551 | 8.77374 | 90° | 46km/h | 3149m | -5.1m/s | 4.1°C | 10.3% | 696.3hPa | 2.7V | 00:00:00 | 02:58:52 | 00:00:00 | |
| DL3OBA | 2026-08-30 13:16:42 | 51.77551 | 8.77374 | 91° | 47km/h | 3149m | -5.2m/s | 4.2°C | 10.2% | 696.4hPa | 2.7V | 07:48:00 | 00:00:00 | 00:00:00 | |
| DB0DAN | 2026-08-30 13:16:40 | 51.77550 | 8.77317 | 88° | 44km/h | 3165m | -5m/s | 4.3°C | 7.6% | 695.08hPa | 2.7V | 00:00:00 | 00:00:00 | 00:00:00 | |
| DM0DOS-11 | 2026-08-30 13:16:40 | 51.77550 | 8.77280 | 89° | 46km/h | 3175m | -5.1m/s | 4.4°C | 8.1% | 694.1hPa | 2.7V | 07:48:19 | 02:58:47 | 00:00:00 | |
| HSKMA3-T | 2026-08-30 13:16:36 | 51.77550 | 8.77243 | 87° | 46km/h | 3185m | -5.1m/s | 4.3°C | 13.2% | 693.3hPa | 2.7V | 07:48:36 | 02:58:45 | 00:00:00 | |
| BIOWL1-15 | 2026-08-30 13:16:34 | 51.77548 | 8.77206 | 87° | 44km/h | 3195m | -5.1m/s | 4.2°C | 15% | 692.5hPa | 2.6V | 07:48:36 | 02:58:43 | 00:00:00 | |
| DM0DOS-11 | 2026-08-30 13:16:33 | 51.77548 | 8.77189 | 88° | 42km/h | 3200m | -5m/s | 4.3°C | 13.5% | 692hPa | 2.6V | 07:48:24 | 02:58:42 | 00:00:00 | |
| DO2JMG | 2026-08-30 13:16:33 | 51.77548 | 8.77189 | 89° | 42km/h | 3200m | -5m/s | 4.3°C | 14.6% | 692hPa | 2.6V | 07:48:36 | 02:58:42 | 00:00:00 | |
| DD8BA-10 | 2026-08-30 13:16:30 | 51.77547 | 8.77135 | 90° | 46km/h | 3216m | -5.2m/s | 4.2°C | 11.3% | 690.6hPa | 2.7V | 00:00:00 | 00:00:00 | 00:00:00 | |
| DD1CC8 | 2026-08-30 13:16:29 | 51.77547 | 8.77117 | 89° | 44km/h | 3221m | -5.1m/s | 4.1°C | 11.4% | 690.4hPa | 2.7V | 00:00:00 | 00:00:00 | 00:00:00 | |
| DM0DOS-11 | 2026-08-30 13:16:28 | 51.77545 | 8.77005 | 88° | 44km/h | 3251m | -5m/s | 4°C | 12.3% | 687.6hPa | 2.7V | 07:48:34 | 02:58:32 | 00:00:00 | |
| DB0DAN | 2026-08-30 13:16:25 | 51.77546 | 8.77042 | 87° | 44km/h | 3241m | -5.1m/s | 4.1°C | 11.1% | 688.54hPa | 2.6V | 00:00:00 | 00:00:00 | 00:00:00 | |
| HSKMA3-T | 2026-08-30 13:16:25 | 51.77546 | 8.77042 | 87° | 46km/h | 3241m | -5.1m/s | 4.1°C | 11.5% | 688.5hPa | 2.6V | 07:48:36 | 02:58:34 | 00:00:00 | |
| BIOWL1-15 | 2026-08-30 13:16:24 | 51.77546 | 8.77023 | 86° | 46km/h | 3246m | -5.2m/s | 4°C | 12.3% | 688.1hPa | 2.6V | 07:48:36 | 02:58:33 | 00:00:00 | |
| DM0DOS-11 | 2026-08-30 13:16:23 | 51.77543 | 8.76897 | 90° | 44km/h | 3281m | -5m/s | 4°C | 13.1% | 685.1hPa | 2.7V | 07:48:40 | 02:58:26 | 00:00:00 | |
| DO2JMG | 2026-08-30 13:16:23 | 51.77545 | 8.77005 | 88° | 44km/h | 3251m | -5m/s | 4.1°C | 13% | 687.6hPa | 2.7V | 07:48:36 | 02:58:32 | 00:00:00 | |
| DL3OBA | 2026-08-30 13:16:22 | 51.77545 | 8.77005 | 89° | 44km/h | 3251m | -5.0m/s | 4.1°C | 12.2% | 687.6hPa | 2.7V | 07:48:00 | 00:00:00 | 00:00:00 | |
| BIOWL7-15 | 2026-08-30 13:16:21 | 51.77544 | 8.76969 | 90° | 46km/h | 3261m | -5.1m/s | 4.0°C | 12.7% | 686.8hPa | 2.7V | 07:48:00 | 00:00:00 | 00:00:00 | |
| DD8BA-10 | 2026-08-30 13:16:20 | 51.77544 | 8.76951 | 88° | 46km/h | 3267m | -5.0m/s | 4.0°C | 12.7% | 686.3hPa | 2.7V | 00:00:00 | 00:00:00 | 00:00:00 | |
| SONCRA | 2026-08-30 13:16:19 | 51.77544 | 8.76932 | 86° | 42km/h | 3271m | -5.1m/s | 4.0°C | 12.5% | 686.0hPa | 2.7V | 00:00:00 | 00:00:00 | 00:00:00 | |
| DO3DL | 2026-08-30 13:16:18 | 51.77543 | 8.76932 | 88° | 44km/h | 3271m | -5.1m/s | 4.0°C | 12.5% | 686.0hPa | 2.7V | 07:49:00 | 00:00:00 | 00:00:00 | |
| DM0DOS-11 | 2026-08-30 13:16:17 | 51.77544 | 8.76804 | 91° | 47km/h | 3306m | -5.1m/s | 3.8°C | 13.8% | 683hPa | 2.7V | 07:48:45 | 02:58:21 | 00:00:00 | |
| HSKMA3-T | 2026-08-30 13:16:15 | 51.77543 | 8.76860 | 90° | 46km/h | 3292m | -5m/s | 3.9°C | 15% | 684.3hPa | 2.6V | 07:49:27 | 02:58:24 | 00:00:00 | |
| DO2JMG | 2026-08-30 13:16:12 | 51.77544 | 8.76804 | 92° | 47km/h | 3306m | -5.1m/s | 3.8°C | 15.1% | 683hPa | 2.7V | 07:49:27 | 02:58:21 | 00:00:00 | |
| DO3DL | 2026-08-30 13:16:12 | 51.77543 | 8.76804 | 93° | 47km/h | 3307m | -5.1m/s | 3.8°C | 13.6% | 683.0hPa | 2.6V | 07:49:00 | 00:00:00 | 00:00:00 | |
| DB0DAN | 2026-08-30 13:16:10 | 51.77544 | 8.76765 | 90° | 46km/h | 3317m | -5m/s | 3.7°C | 13.6% | 682.11hPa | 2.6V | 00:00:00 | 00:00:00 | 00:00:00 | |
| DD8BA-10 | 2026-08-30 13:16:10 | 51.77544 | 8.76764 | 91° | 47km/h | 3317m | -4.9m/s | 3.7°C | 13.7% | 682.1hPa | 2.6V | 00:00:00 | 00:00:00 | 00:00:00 | |
| BIOWL9-15 | 2026-08-30 13:16:09 | 51.77544 | 8.76745 | 87° | 47km/h | 3321m | -4.9m/s | 3.7°C | 13.5% | 681.7hPa | 2.6V | 00:00:00 | 00:00:00 | 00:00:00 | |
| DM0DOS-11 | 2026-08-30 13:16:07 | 51.77542 | 8.76612 | 88° | 47km/h | 3357m | -5.2m/s | 3.6°C | 10.9% | 678.8hPa | 2.6V | 07:48:55 | 02:58:11 | 00:00:00 | |
| HSKMA3-T | 2026-08-30 13:16:04 | 51.77542 | 8.76650 | 88° | 46km/h | 3347m | -5.2m/s | 3.6°C | 12.2% | 679.6hPa | 2.7V | 07:49:27 | 02:58:13 | 00:00:00 | |
| BIOWL1-15 | 2026-08-30 13:16:04 | 51.77541 | 8.76573 | 87° | 47km/h | 3367m | -5.1m/s | 3.6°C | 11.2% | 677.9hPa | 2.7V | 07:49:27 | 02:58:09 | 00:00:00 | |
| DD1CC3-15 | 2026-08-30 13:16:03 | 51.77542 | 8.76650 | 89° | 46km/h | 3347m | -5.2m/s | 3.6°C | 11.5% | 679.6hPa | 2.7V | 07:49:00 | 00:00:00 | 00:00:00 | |
| DM0DOS-11 | 2026-08-30 13:16:02 | 51.77540 | 8.76515 | 90° | 47km/h | 3382m | -5.1m/s | 3.5°C | 10.9% | 676.6hPa | 2.7V | 07:49:00 | 02:58:06 | 00:00:00 | |
| DO2JMG | 2026-08-30 13:16:01 | 51.77541 | 8.76592 | 87° | 47km/h | 3362m | -5.1m/s | 3.6°C | 11.1% | 678.4hPa | 2.7V | 07:49:27 | 02:58:10 | 00:00:00 | |
| DD1CC8 | 2026-08-30 13:15:58 | 51.77540 | 8.76535 | 89° | 46km/h | 3377m | -5.2m/s | 3.6°C | 10.8% | 677.1hPa | 2.7V | 00:00:00 | 00:00:00 | 00:00:00 | |
| DM0DOS-11 | 2026-08-30 13:15:57 | 51.77539 | 8.76415 | 88° | 51km/h | 3408m | -5m/s | 3.5°C | 10.5% | 674.5hPa | 2.7V | 07:49:05 | 02:58:01 | 00:00:00 | |
| DD1CC1-15 | 2026-08-30 13:15:56 | 51.77540 | 8.76515 | 91° | 47km/h | 3383m | -5.1m/s | 3.6°C | 10.8% | 676.7hPa | 2.7V | 07:49:00 | 00:00:00 | 00:00:00 | |
| DB0DAN | 2026-08-30 13:15:55 | 51.77540 | 8.76476 | 90° | 46km/h | 3393m | -5.4m/s | 3.5°C | 10.6% | 675.78hPa | 2.7V | 00:00:00 | 00:00:00 | 00:00:00 | |
| HSKMA3-T | 2026-08-30 13:15:54 | 51.77540 | 8.76456 | 91° | 49km/h | 3398m | -5.1m/s | 3.5°C | 11% | 675.4hPa | 2.6V | 07:49:27 | 02:58:03 | 00:00:00 | |
| DK9SH | 2026-08-30 13:15:54 | 51.77540 | 8.76456 | 92° | 49km/h | 3398m | -5.1m/s | 3.5°C | 10.5% | 675.4hPa | 2.7V | 07:49:00 | 00:00:00 | 00:00:00 | |
| DM0DOS-11 | 2026-08-30 13:15:52 | 51.77538 | 8.76311 | 87° | 51km/h | 3434m | -5m/s | 3.3°C | 11% | 672.3hPa | 2.7V | 07:49:10 | 02:57:56 | 00:00:00 | |
| DO2JMG | 2026-08-30 13:15:51 | 51.77539 | 8.76394 | 88° | 49km/h | 3413m | -5m/s | 3.4°C | 10.8% | 674.1hPa | 2.7V | 07:49:27 | 02:58:00 | 00:00:00 | |
| BIOWL1-15 | 2026-08-30 13:15:49 | 51.77539 | 8.76353 | 90° | 51km/h | 3424m | -5.4m/s | 3.4°C | 11% | 673.3hPa | 2.7V | 07:49:27 | 02:57:58 | 00:00:00 | |
| HSKMA3-T | 2026-08-30 13:15:44 | 51.77538 | 8.76249 | 91° | 51km/h | 3449m | -5.2m/s | 3.2°C | 12.2% | 671.2hPa | 2.7V | 07:49:27 | 02:57:53 | 00:00:00 | |
| BIOWL1-15 | 2026-08-30 13:15:41 | 51.77536 | 8.76145 | 87° | 49km/h | 3474m | -4.9m/s | 3°C | 13.1% | 669.1hPa | 2.7V | 07:49:27 | 02:57:48 | 00:00:00 | |
| DB0DAN | 2026-08-30 13:15:40 | 51.77537 | 8.76165 | 87° | 47km/h | 3469m | -4.8m/s | 3°C | 12% | 669.45hPa | 2.7V | 00:00:00 | 00:00:00 | 00:00:00 | |
| DO2JMG | 2026-08-30 13:15:40 | 51.77537 | 8.76165 | 87° | 49km/h | 3469m | -4.8m/s | 3°C | 12.8% | 669.5hPa | 2.7V | 07:49:27 | 02:57:49 | 00:00:00 | |
| DD8BA-10 | 2026-08-30 13:15:40 | 51.77537 | 8.76165 | 88° | 51km/h | 3469m | -4.8m/s | 3.0°C | 12.1% | 669.4hPa | 2.6V | 00:00:00 | 00:00:00 | 00:00:00 | |
| DL8OAI-8 | 2026-08-30 13:15:39 | 51.77537 | 8.76165 | 88° | 49km/h | 3469m | -4.8m/s | 3.0°C | 12.0% | 669.4hPa | 2.6V | 07:49:00 | 00:00:00 | 00:00:00 | |
| DM0DOS-11 | 2026-08-30 13:15:38 | 51.77536 | 8.76104 | 89° | 51km/h | 3484m | -5.1m/s | 3°C | 11.8% | 668.3hPa | 2.6V | 07:49:20 | 02:57:46 | 00:00:00 | |
| DL1XH-west | 2026-08-30 13:15:37 | 51.77536 | 8.76104 | 89° | 51km/h | 3484m | -5.1m/s | 3°C | 12.5% | 668.3hPa | 2.6V | 07:50:18 | 02:57:46 | 00:00:00 | |
| HSKMA3-T | 2026-08-30 13:15:33 | 51.77534 | 8.76019 | 88° | 51km/h | 3504m | -5m/s | 3.1°C | 7.4% | 666.6hPa | 2.7V | 07:49:27 | 02:57:42 | 00:00:00 | |
| DM0DOS-11 | 2026-08-30 13:15:32 | 51.77533 | 8.75998 | 89° | 51km/h | 3509m | -5.1m/s | 3.1°C | 8% | 666.1hPa | 2.7V | 07:49:25 | 02:57:41 | 00:00:00 | |
| DM0DOS-11 | 2026-08-30 13:15:32 | 51.77534 | 8.75894 | 91° | 53km/h | 3534m | -5m/s | 2.9°C | 9.2% | 664hPa | 2.7V | 07:49:30 | 02:57:36 | 00:00:00 | |
| DO2JMG | 2026-08-30 13:15:29 | 51.77533 | 8.75936 | 92° | 49km/h | 3524m | -5m/s | 3°C | 8.3% | 664.9hPa | 2.6V | 07:50:18 | 02:57:38 | 00:00:00 | |
| BIOWL1-15 | 2026-08-30 13:15:28 | 51.77534 | 8.75916 | 92° | 51km/h | 3529m | -5.3m/s | 2.9°C | 8.6% | 664.5hPa | 2.6V | 07:50:18 | 02:57:37 | 00:00:00 | |
| DL3AQ-11 | 2026-08-30 13:15:28 | 51.77534 | 8.75894 | 91° | 51km/h | 3534m | -5.0m/s | 2.9°C | 9.1% | 664.0hPa | 2.7V | 00:00:00 | 00:00:00 | 00:00:00 | |
| DM0DOS-11 | 2026-08-30 13:15:27 | 51.77535 | 8.75790 | 90° | 51km/h | 3559m | -5.1m/s | 2.7°C | 9.9% | 662hPa | 2.7V | 07:49:35 | 02:57:31 | 00:00:00 | |
| DL1XH-west | 2026-08-30 13:15:26 | 51.77534 | 8.75873 | 91° | 53km/h | 3539m | -5.1m/s | 2.9°C | 9% | 663.6hPa | 2.7V | 07:50:18 | 02:57:35 | 00:00:00 | |
| HSKMA3-T | 2026-08-30 13:15:22 | 51.77535 | 8.75790 | 90° | 51km/h | 3559m | -5.1m/s | 2.7°C | 10% | 662hPa | 2.7V | 07:50:18 | 02:57:31 | 00:00:00 | |
| DO2JMG | 2026-08-30 13:15:18 | 51.77534 | 8.75706 | 88° | 53km/h | 3580m | -5.2m/s | 2.6°C | 10.6% | 660.4hPa | 2.7V | 07:50:18 | 02:57:27 | 00:00:00 | |
| DM0DOS-11 | 2026-08-30 13:15:16 | 51.77525 | 8.75539 | 85° | 49km/h | 3620m | -4.9m/s | 2.2°C | 10.5% | 656.9hPa | 2.7V | 07:49:47 | 02:57:19 | 00:00:00 | |
| DL1XH-west | 2026-08-30 13:15:15 | 51.77532 | 8.75642 | 85° | 53km/h | 3595m | -5.1m/s | 2.5°C | 10.8% | 659hPa | 2.7V | 07:50:18 | 02:57:24 | 00:00:00 | |
| HSKMA3-T | 2026-08-30 13:15:12 | 51.77528 | 8.75579 | 84° | 49km/h | 3610m | -5m/s | 2.3°C | 10.9% | 657.8hPa | 2.6V | 07:50:18 | 02:57:21 | 00:00:00 | |
| DK9SH | 2026-08-30 13:15:12 | 51.77527 | 8.75579 | 85° | 49km/h | 3610m | -5.0m/s | 2.3°C | 10.3% | 657.8hPa | 2.7V | 07:50:00 | 00:00:00 | 00:00:00 | |
| DB0DAN | 2026-08-30 13:15:10 | 51.77525 | 8.75540 | 86° | 47km/h | 3620m | -4.9m/s | 2.2°C | 10.4% | 656.89hPa | 2.7V | 00:00:00 | 00:00:00 | 00:00:00 | |
| DM0DOS-11 | 2026-08-30 13:15:10 | 51.77522 | 8.75437 | 89° | 49km/h | 3645m | -5.1m/s | 2.1°C | 10.7% | 655hPa | 2.6V | 07:49:52 | 02:57:14 | 00:00:00 | |
| BIOWL1-15 | 2026-08-30 13:15:08 | 51.77524 | 8.75499 | 87° | 51km/h | 3630m | -4.8m/s | 2.2°C | 11% | 656.3hPa | 2.7V | 07:50:18 | 02:57:17 | 00:00:00 | |
| DJ2DS-15 | 2026-08-30 13:15:08 | 51.77524 | 8.75499 | 87° | 51km/h | 3630m | -4.8m/s | 2.1°C | 10.5% | 656.3hPa | 2.7V | 00:00:00 | 02:57:17 | 00:00:00 | |
| BIOWL9-15 | 2026-08-30 13:15:07 | 51.77523 | 8.75478 | 86° | 49km/h | 3635m | -4.9m/s | 0°C | -1.0% | -1.0hPa | 2.7V | 00:00:00 | 00:00:00 | 00:00:00 | |
| DM0DOS-11 | 2026-08-30 13:15:05 | 51.77521 | 8.75331 | 87° | 51km/h | 3670m | -4.8m/s | 1.9°C | 10.3% | 652.9hPa | 2.7V | 07:49:57 | 02:57:09 | 00:00:00 | |
| DL1XH-west | 2026-08-30 13:15:04 | 51.77522 | 8.75416 | 91° | 51km/h | 3650m | -5.2m/s | 2.1°C | 11.2% | 654.6hPa | 2.6V | 07:50:18 | 02:57:13 | 00:00:00 | |
| HSKMA3-T | 2026-08-30 13:15:01 | 51.77521 | 8.75352 | 88° | 51km/h | 3665m | -5m/s | 2°C | 10.8% | 653.3hPa | 2.7V | 07:50:18 | 02:57:10 | 00:00:00 | |
| DM0DOS-11 | 2026-08-30 13:15:00 | 51.77520 | 8.75228 | 88° | 49km/h | 3695m | -5.3m/s | 1.9°C | 9.6% | 650.9hPa | 2.6V | 07:50:02 | 02:57:04 | 00:00:00 | |
| DO2JMG | 2026-08-30 13:14:58 | 51.77520 | 8.75290 | 89° | 49km/h | 3680m | -5.2m/s | 2°C | 9.8% | 652.2hPa | 2.7V | 07:50:18 | 02:57:07 | 00:00:00 | |
| BIOWL1-15 | 2026-08-30 13:14:57 | 51.77520 | 8.75270 | 89° | 51km/h | 3685m | -5.1m/s | 1.9°C | 9.7% | 651.7hPa | 2.7V | 07:50:18 | 02:57:06 | 00:00:00 | |
| DD1CC8 | 2026-08-30 13:14:56 | 51.77520 | 8.75249 | 88° | 49km/h | 3690m | -5.2m/s | 1.9°C | 9.4% | 651.4hPa | 2.6V | 00:00:00 | 00:00:00 | 00:00:00 | |
| DB0DAN | 2026-08-30 13:14:55 | 51.77519 | 8.75228 | 89° | 47km/h | 3695m | -5.3m/s | 1.9°C | 9.5% | 650.88hPa | 2.6V | 00:00:00 | 00:00:00 | 00:00:00 | |
| DL1XH1-15 | 2026-08-30 13:14:55 | 51.77518 | 8.75124 | 89° | 51km/h | 3721m | -5m/s | 1.8°C | 10% | 648.8hPa | 2.7V | 07:50:07 | 02:56:59 | 00:00:00 | |
| DL1XH-west | 2026-08-30 13:14:53 | 51.77519 | 8.75187 | 90° | 51km/h | 3706m | -5.1m/s | 1.9°C | 10.1% | 650.1hPa | 2.7V | 07:50:18 | 02:57:02 | 00:00:00 | |
| HSKMA3-T | 2026-08-30 13:14:50 | 51.77519 | 8.75124 | 90° | 51km/h | 3721m | -5m/s | 1.8°C | 10.4% | 648.8hPa | 2.7V | 07:50:18 | 02:56:59 | 00:00:00 | |
| DO2JMG | 2026-08-30 13:14:48 | 51.77518 | 8.75081 | 86° | 53km/h | 3731m | -5.2m/s | 1.7°C | 10.4% | 648hPa | 2.6V | 07:50:18 | 02:56:57 | 00:00:00 | |
| BIOWL1-15 | 2026-08-30 13:14:46 | 51.77516 | 8.75039 | 85° | 51km/h | 3741m | -4.9m/s | 1.6°C | 10.7% | 647.2hPa | 2.7V | 07:50:18 | 02:56:55 | 00:00:00 | |
| DO3DL | 2026-08-30 13:14:45 | 51.77514 | 8.75018 | 88° | 51km/h | 3746m | -5.0m/s | 1.6°C | 10.2% | 646.8hPa | 2.7V | 07:50:00 | 00:00:00 | 00:00:00 | |
| DL1XH1-15 | 2026-08-30 13:14:43 | 51.77511 | 8.74868 | 87° | 53km/h | 3782m | -5.1m/s | 1.4°C | 10.4% | 643.9hPa | 2.7V | 07:50:19 | 02:56:47 | 00:00:00 | |
| DL1XH-west | 2026-08-30 13:14:42 | 51.77513 | 8.74955 | 87° | 53km/h | 3762m | -5.2m/s | 1.5°C | 11% | 645.5hPa | 2.7V | 07:50:18 | 02:56:51 | 00:00:00 | |
| HSKMA3-T | 2026-08-30 13:14:40 | 51.77512 | 8.74912 | 89° | 53km/h | 3772m | -5m/s | 1.5°C | 10.8% | 644.7hPa | 2.6V | 07:50:18 | 02:56:49 | 00:00:00 | |
| DB0DAN | 2026-08-30 13:14:40 | 51.77512 | 8.74912 | 89° | 51km/h | 3772m | -5m/s | 1.5°C | 10.2% | 644.74hPa | 2.6V | 00:00:00 | 00:00:00 | 00:00:00 | |
| DO2JMG | 2026-08-30 13:14:38 | 51.77511 | 8.74868 | 88° | 53km/h | 3782m | -5.1m/s | 1.4°C | 10.9% | 643.9hPa | 2.7V | 07:51:09 | 02:56:47 | 00:00:00 | |
| BIOWL1-15 | 2026-08-30 13:14:37 | 51.77509 | 8.74803 | 87° | 53km/h | 3797m | -5.1m/s | 1.3°C | 11.5% | 642.8hPa | 2.7V | 07:51:09 | 02:56:44 | 00:00:00 | |
| DM0DOS-11 | 2026-08-30 13:14:35 | 51.77505 | 8.74695 | 88° | 53km/h | 3823m | -4.8m/s | 1.1°C | 11.4% | 640.7hPa | 2.7V | 07:50:27 | 02:56:39 | 00:00:00 | |
| DL1XH-west | 2026-08-30 13:14:32 | 51.77507 | 8.74738 | 86° | 53km/h | 3812m | -5.3m/s | 1.2°C | 12.2% | 641.5hPa | 2.6V | 07:51:09 | 02:56:41 | 00:00:00 | |
| HSKMA3-T | 2026-08-30 13:14:29 | 51.77505 | 8.74673 | 88° | 53km/h | 3828m | -5m/s | 1.1°C | 12.4% | 640.3hPa | 2.7V | 07:51:09 | 02:56:38 | 00:00:00 | |
| DL1XH1-15 | 2026-08-30 13:14:28 | 51.77504 | 8.74651 | 87° | 53km/h | 3833m | -5.2m/s | 1.1°C | 11.6% | 639.9hPa | 2.7V | 07:50:29 | 02:56:37 | 00:00:00 | |
| DL1XH1-15 | 2026-08-30 13:14:28 | 51.77502 | 8.74542 | 86° | 53km/h | 3858m | -5.1m/s | 0.8°C | 11.8% | 637.8hPa | 2.7V | 07:50:34 | 02:56:32 | 00:00:00 | |
| DO2JMG | 2026-08-30 13:14:28 | 51.77505 | 8.74651 | 88° | 53km/h | 3833m | -5.2m/s | 1°C | 12.7% | 639.9hPa | 2.7V | 07:51:09 | 02:56:37 | 00:00:00 | |
| DO3DL | 2026-08-30 13:14:26 | 51.77504 | 8.74630 | 89° | 53km/h | 3838m | -5.2m/s | 1.0°C | 11.5% | 639.5hPa | 2.6V | 07:51:00 | 00:00:00 | 00:00:00 | |
| DM0DOS-11 | 2026-08-30 13:14:25 | 51.77503 | 8.74586 | 88° | 55km/h | 3848m | -5.1m/s | 0.9°C | 11.7% | 638.6hPa | 2.6V | 07:50:32 | 02:56:34 | 00:00:00 | |
| DM0DOS-11 | 2026-08-30 13:14:25 | 51.77498 | 8.74477 | 83° | 53km/h | 3874m | -5.1m/s | 0.7°C | 11.9% | 636.7hPa | 2.7V | 07:50:37 | 02:56:29 | 00:00:00 | |
| BIOWL1-15 | 2026-08-30 13:14:24 | 51.77503 | 8.74564 | 87° | 55km/h | 3853m | -5m/s | 0.9°C | 12.8% | 638.2hPa | 2.6V | 07:51:09 | 02:56:33 | 00:00:00 | |
| DL1XH-west | 2026-08-30 13:14:21 | 51.77500 | 8.74498 | 84° | 53km/h | 3869m | -5.1m/s | 0.7°C | 13% | 637hPa | 2.7V | 07:51:09 | 02:56:30 | 00:00:00 | |
| HSKMA3-T | 2026-08-30 13:14:19 | 51.77497 | 8.74455 | 84° | 53km/h | 3879m | -5.2m/s | 0.6°C | 13.2% | 636.3hPa | 2.7V | 07:51:09 | 02:56:28 | 00:00:00 | |
| DO2JMG | 2026-08-30 13:14:17 | 51.77494 | 8.74413 | 83° | 53km/h | 3889m | -5.1m/s | 0.5°C | 13.2% | 635.4hPa | 2.6V | 07:51:09 | 02:56:26 | 00:00:00 | |
| DL1XH1-15 | 2026-08-30 13:14:16 | 51.77486 | 8.74286 | 87° | 53km/h | 3919m | -5.1m/s | 0.2°C | 12.6% | 633hPa | 2.7V | 07:50:46 | 02:56:20 | 00:00:00 | |
| DM0DOS-11 | 2026-08-30 13:14:15 | 51.77491 | 8.74371 | 84° | 51km/h | 3899m | -5m/s | 0.4°C | 12.2% | 634.5hPa | 2.7V | 07:50:42 | 02:56:24 | 00:00:00 | |
| DM0DOS-11 | 2026-08-30 13:14:15 | 51.77485 | 8.74264 | 87° | 55km/h | 3925m | -5.1m/s | 0.2°C | 12.7% | 632.6hPa | 2.6V | 07:50:47 | 02:56:19 | 00:00:00 | |
| BIOWL1-15 | 2026-08-30 13:14:14 | 51.77488 | 8.74329 | 85° | 53km/h | 3909m | -5m/s | 0.3°C | 13.8% | 633.9hPa | 2.7V | 07:51:09 | 02:56:22 | 00:00:00 | |
| DL1XH-west | 2026-08-30 13:14:11 | 51.77486 | 8.74286 | 87° | 53km/h | 3919m | -5.1m/s | 0.2°C | 13.9% | 633hPa | 2.7V | 07:51:09 | 02:56:20 | 00:00:00 | |
| DD8BA-10 | 2026-08-30 13:14:10 | 51.77485 | 8.74264 | 88° | 55km/h | 3925m | -5.1m/s | 0.1°C | 12.7% | 632.5hPa | 2.6V | 00:00:00 | 00:00:00 | 00:00:00 | |
| DL4BBY-15 | 2026-08-30 13:14:09 | 51.77484 | 8.74240 | 88° | 55km/h | 3929m | -4.9m/s | 0.7°C | 0% | 0hPa | 2.6V | 00:00:00 | 00:00:00 | 00:00:00 | |
| DL1XH1-15 | 2026-08-30 13:14:08 | 51.77475 | 8.74103 | 82° | 55km/h | 3959m | -5.1m/s | -0.1°C | 13% | 629.8hPa | 2.6V | 07:50:54 | 02:56:12 | 00:00:00 | |
| HSKMA3-T | 2026-08-30 13:14:08 | 51.77484 | 8.74217 | 85° | 58km/h | 3935m | -5.1m/s | 0.1°C | 14.2% | 631.7hPa | 2.7V | 07:51:09 | 02:56:17 | 00:00:00 | |
| DO2JMG | 2026-08-30 13:14:06 | 51.77480 | 8.74171 | 82° | 57km/h | 3944m | -4.8m/s | -0°C | 14.3% | 631hPa | 2.7V | 07:51:09 | 02:56:15 | 00:00:00 | |
| DM0DOS-11 | 2026-08-30 13:14:05 | 51.77470 | 8.74040 | 84° | 49km/h | 3974m | -5.1m/s | -0.2°C | 13% | 628.7hPa | 2.7V | 07:50:57 | 02:56:09 | 00:00:00 | |
| BIOWL1-15 | 2026-08-30 13:14:02 | 51.77473 | 8.74082 | 82° | 53km/h | 3964m | -4.8m/s | -0.2°C | 14.4% | 629.4hPa | 2.6V | 07:51:09 | 02:56:11 | 00:00:00 | |
| DL1XH-west | 2026-08-30 13:14:00 | 51.77470 | 8.74040 | 85° | 51km/h | 3974m | -5.1m/s | -0.2°C | 14.4% | 628.7hPa | 2.7V | 07:51:09 | 02:56:09 | 00:00:00 | |
| HSKMA3-T | 2026-08-30 13:13:57 | 51.77468 | 8.73975 | 86° | 57km/h | 3989m | -5.1m/s | -0.3°C | 13.3% | 627.5hPa | 2.7V | 07:51:09 | 02:56:06 | 00:00:00 | |
| DO2JMG | 2026-08-30 13:13:56 | 51.77467 | 8.73952 | 86° | 58km/h | 3994m | -5.1m/s | -0.3°C | 13.1% | 627hPa | 2.6V | 07:51:09 | 02:56:05 | 00:00:00 | |
| DM0DOS-11 | 2026-08-30 13:13:55 | 51.77466 | 8.73929 | 84° | 58km/h | 3999m | -5m/s | -0.3°C | 11.8% | 626.7hPa | 2.6V | 07:51:02 | 02:56:04 | 00:00:00 | |
| DM0DOS-11 | 2026-08-30 13:13:55 | 51.77460 | 8.73814 | 85° | 55km/h | 4025m | -5.2m/s | -0.5°C | 11% | 624.6hPa | 2.7V | 07:51:07 | 02:55:59 | 00:00:00 | |
| BIOWL1-15 | 2026-08-30 13:13:51 | 51.77461 | 8.73836 | 86° | 57km/h | 4020m | -5.2m/s | -0.4°C | 11.8% | 625hPa | 2.7V | 07:51:09 | 02:56:00 | 00:00:00 | |
| DL1XH-west | 2026-08-30 13:13:49 | 51.77459 | 8.73792 | 86° | 55km/h | 4030m | -5.1m/s | -0.5°C | 11.8% | 624.3hPa | 2.7V | 07:51:09 | 02:55:58 | 00:00:00 | |
| DO2JMG | 2026-08-30 13:13:46 | 51.77457 | 8.73725 | 87° | 57km/h | 4046m | -5.1m/s | -0.7°C | 11.9% | 623.1hPa | 2.7V | 07:52:00 | 02:55:55 | 00:00:00 | |
| DM0DOS-11 | 2026-08-30 13:13:45 | 51.77456 | 8.73702 | 84° | 57km/h | 4050m | -5m/s | -0.7°C | 11.1% | 622.6hPa | 2.7V | 07:51:12 | 02:55:54 | 00:00:00 | |
| DM0DOS-11 | 2026-08-30 13:13:45 | 51.77448 | 8.73587 | 82° | 58km/h | 4075m | -5.2m/s | -0.8°C | 11.2% | 620.7hPa | 2.6V | 07:51:17 | 02:55:49 | 00:00:00 | |
| DL4XJ-10 | 2026-08-30 13:13:45 | 51.77456 | 8.73702 | 85° | 58km/h | 4050m | -5.0m/s | -0.0°C | 0% | 0hPa | 2.6V | 00:00:00 | 00:00:00 | 00:00:00 | |
| DL3AQ-11 | 2026-08-30 13:13:44 | 51.77453 | 8.73656 | 82° | 57km/h | 4060m | -5.0m/s | -0.7°C | 10.9% | 621.9hPa | 2.6V | 00:00:00 | 00:00:00 | 00:00:00 | |
| DO9LL-15 | 2026-08-30 13:13:43 | 51.77453 | 8.73656 | 83° | 57km/h | 4061m | -5.0m/s | -0.7°C | 11.1% | 621.8hPa | 2.6V | 00:00:00 | 02:55:52 | 00:00:00 | |
| DD8BA-10 | 2026-08-30 13:13:40 | 51.77447 | 8.73587 | 83° | 57km/h | 4076m | -5.2m/s | -0.8°C | 11.2% | 620.7hPa | 2.6V | 00:00:00 | 00:00:00 | 00:00:00 | |
| DL4BBY-15 | 2026-08-30 13:13:39 | 51.77445 | 8.73563 | 82° | 57km/h | 4081m | -5.0m/s | -0.2°C | 0% | 0hPa | 2.6V | 00:00:00 | 00:00:00 | 00:00:00 | |
| DL1XH1-15 | 2026-08-30 13:13:38 | 51.77434 | 8.73425 | 81° | 57km/h | 4111m | -5.2m/s | -1°C | 10.7% | 617.9hPa | 2.6V | 07:51:24 | 02:55:42 | 00:00:00 | |
| DL1XH-west | 2026-08-30 13:13:38 | 51.77443 | 8.73540 | 82° | 57km/h | 4086m | -5.2m/s | -1°C | 12.2% | 619.9hPa | 2.7V | 07:52:00 | 02:55:47 | 00:00:00 | |
| HSKMA3-T | 2026-08-30 13:13:36 | 51.77440 | 8.73494 | 82° | 57km/h | 4096m | -5.2m/s | -1°C | 11.6% | 619.1hPa | 2.7V | 07:52:00 | 02:55:45 | 00:00:00 | |
| DM0DOS-11 | 2026-08-30 13:13:35 | 51.77438 | 8.73471 | 81° | 57km/h | 4101m | -5.1m/s | -1°C | 10.7% | 618.6hPa | 2.7V | 07:51:22 | 02:55:44 | 00:00:00 | |
| DO2JMG | 2026-08-30 13:13:35 | 51.77438 | 8.73471 | 82° | 57km/h | 4101m | -5.1m/s | -1°C | 11.5% | 618.6hPa | 2.7V | 07:52:00 | 02:55:44 | 00:00:00 | |
| BIOWL9-15 | 2026-08-30 13:13:34 | 51.77436 | 8.73448 | 82° | 55km/h | 4106m | -5.1m/s | -1.0°C | 10.4% | 618.3hPa | 2.7V | 00:00:00 | 00:00:00 | 00:00:00 | |
| DO3DL | 2026-08-30 13:13:31 | 51.77431 | 8.73402 | 83° | 57km/h | 4116m | -5.1m/s | -1.0°C | 10.3% | 617.5hPa | 2.7V | 07:52:00 | 00:00:00 | 00:00:00 | |
| DM0DOS-11 | 2026-08-30 13:13:30 | 51.77428 | 8.73356 | 82° | 58km/h | 4127m | -5m/s | -1°C | 9.8% | 616.7hPa | 2.7V | 07:51:27 | 02:55:39 | 00:00:00 | |
| DM0DOS-11 | 2026-08-30 13:13:30 | 51.77417 | 8.73238 | 80° | 58km/h | 4152m | -5m/s | -1.1°C | 11.1% | 614.7hPa | 2.7V | 07:51:32 | 02:55:34 | 00:00:00 | |
| DD8BA-10 | 2026-08-30 13:13:30 | 51.77427 | 8.73356 | 83° | 58km/h | 4127m | -5.0m/s | -1.0°C | 9.8% | 616.6hPa | 2.7V | 00:00:00 | 00:00:00 | 00:00:00 | |
| DL1CLM-18 | 2026-08-30 13:13:29 | 51.77428 | 8.73356 | 83° | 58km/h | 4127m | -5.0m/s | -1.0°C | 9.7% | 616.7hPa | 2.7V | 00:00:00 | 00:00:00 | 00:00:00 | |
| DL1XH1-15 | 2026-08-30 13:13:28 | 51.77423 | 8.73309 | 81° | 58km/h | 4137m | -5m/s | -1°C | 10.1% | 615.8hPa | 2.7V | 07:51:29 | 02:55:37 | 00:00:00 | |
| DL1XH-west | 2026-08-30 13:13:28 | 51.77423 | 8.73309 | 82° | 58km/h | 4137m | -5m/s | -1°C | 10.6% | 615.8hPa | 2.7V | 07:52:00 | 02:55:37 | 00:00:00 | |
| HSKMA3-T | 2026-08-30 13:13:26 | 51.77420 | 8.73262 | 82° | 60km/h | 4147m | -5.1m/s | -1.1°C | 12.2% | 615.2hPa | 2.6V | 07:52:00 | 02:55:35 | 00:00:00 | |
| DB0DAN | 2026-08-30 13:13:25 | 51.77417 | 8.73238 | 81° | 57km/h | 4152m | -5m/s | -1.1°C | 10.9% | 614.72hPa | 2.7V | 00:00:00 | 00:00:00 | 00:00:00 | |
| DO2JMG | 2026-08-30 13:13:25 | 51.77417 | 8.73238 | 81° | 58km/h | 4152m | -5m/s | -1.1°C | 12.1% | 614.7hPa | 2.7V | 07:52:00 | 02:55:34 | 00:00:00 | |
| DL4XJ-10 | 2026-08-30 13:13:25 | 51.77417 | 8.73238 | 81° | 57km/h | 4152m | -5.0m/s | -0.5°C | 0% | 0hPa | 2.7V | 00:00:00 | 00:00:00 | 00:00:00 | |
| DO3DL | 2026-08-30 13:13:24 | 51.77417 | 8.73238 | 82° | 58km/h | 4152m | -5.0m/s | -1.1°C | 10.9% | 614.7hPa | 2.7V | 07:52:00 | 00:00:00 | 00:00:00 | |
| DD1CC8 | 2026-08-30 13:13:23 | 51.77410 | 8.73168 | 81° | 57km/h | 4167m | -5.2m/s | -1.3°C | 11.3% | 613.6hPa | 2.7V | 00:00:00 | 00:00:00 | 00:00:00 | |
| DJ2DS-15 | 2026-08-30 13:13:22 | 51.77408 | 8.73145 | 80° | 57km/h | 4172m | -5.0m/s | -1.3°C | 11.5% | 613.1hPa | 2.7V | 00:00:00 | 00:00:00 | 00:00:00 | |
| DM0DOS-11 | 2026-08-30 13:13:20 | 51.77395 | 8.73009 | 82° | 57km/h | 4203m | -5m/s | -1.6°C | 12.9% | 610.8hPa | 2.7V | 07:51:42 | 02:55:24 | 00:00:00 | |
| DD8BA-10 | 2026-08-30 13:13:20 | 51.77405 | 8.73123 | 81° | 57km/h | 4177m | -5.1m/s | -1.4°C | 11.7% | 612.8hPa | 2.6V | 00:00:00 | 00:00:00 | 00:00:00 | |
| DD1CC3-15 | 2026-08-30 13:13:19 | 51.77405 | 8.73123 | 81° | 57km/h | 4177m | -5.2m/s | -1.4°C | 11.5% | 612.8hPa | 2.7V | 07:52:00 | 00:00:00 | 00:00:00 | |
| DL1XH1-15 | 2026-08-30 13:13:18 | 51.77401 | 8.73078 | 82° | 57km/h | 4188m | -5.1m/s | -1.5°C | 12.1% | 612hPa | 2.7V | 07:51:39 | 02:55:27 | 00:00:00 | |
| DL1XH1-15 | 2026-08-30 13:13:18 | 51.77391 | 8.72964 | 81° | 57km/h | 4213m | -5m/s | -1.7°C | 13.2% | 610hPa | 2.6V | 07:51:44 | 02:55:22 | 00:00:00 | |
| DL1XH-west | 2026-08-30 13:13:18 | 51.77401 | 8.73078 | 82° | 57km/h | 4188m | -5.1m/s | -1.5°C | 13.3% | 612hPa | 2.7V | 07:52:00 | 02:55:27 | 00:00:00 | |
| DO2JMG | 2026-08-30 13:13:15 | 51.77395 | 8.73010 | 83° | 57km/h | 4203m | -5m/s | -1.6°C | 14.3% | 610.8hPa | 2.7V | 07:52:00 | 02:55:24 | 00:00:00 | |
| DL1LOL-11 | 2026-08-30 13:13:15 | 51.77395 | 8.73009 | 84° | 57km/h | 4203m | -5.0m/s | -1.6°C | 12.6% | 610.8hPa | 2.6V | 00:00:00 | 00:00:00 | 00:00:00 | |
| DD1CC2-15 | 2026-08-30 13:13:14 | 51.77395 | 8.73009 | 84° | 57km/h | 4203m | -5.0m/s | -1.6°C | 12.6% | 610.8hPa | 2.6V | 07:52:00 | 00:00:00 | 00:00:00 | |
| DO9LL-15 | 2026-08-30 13:13:13 | 51.77391 | 8.72964 | 82° | 55km/h | 4213m | -4.9m/s | -1.6°C | 13.2% | 610.0hPa | 2.6V | 00:00:00 | 02:55:22 | 00:00:00 | |
| DO3DL | 2026-08-30 13:13:11 | 51.77389 | 8.72941 | 82° | 57km/h | 4218m | -5.0m/s | -1.7°C | 12.4% | 609.7hPa | 2.7V | 07:52:00 | 00:00:00 | 00:00:00 | |
| DB0DAN | 2026-08-30 13:13:10 | 51.77385 | 8.72896 | 82° | 53km/h | 4228m | -5.3m/s | -1.8°C | 12.2% | 608.82hPa | 2.7V | 00:00:00 | 00:00:00 | 00:00:00 | |
| DM0DOS-11 | 2026-08-30 13:13:10 | 51.77373 | 8.72760 | 81° | 57km/h | 4259m | -5.2m/s | -2°C | 9.9% | 606.5hPa | 2.7V | 07:51:53 | 02:55:13 | 00:00:00 | |
| DL1XH1-15 | 2026-08-30 13:13:08 | 51.77381 | 8.72851 | 82° | 57km/h | 4239m | -5.2m/s | -1.9°C | 11.8% | 608hPa | 2.7V | 07:51:49 | 02:55:17 | 00:00:00 | |
| DL1XH1-15 | 2026-08-30 13:13:08 | 51.77370 | 8.72737 | 80° | 57km/h | 4264m | -5.4m/s | -2°C | 9.9% | 606.1hPa | 2.7V | 07:51:54 | 02:55:12 | 00:00:00 | |
| DL1XH-west | 2026-08-30 13:13:07 | 51.77379 | 8.72828 | 83° | 57km/h | 4244m | -5.2m/s | -1.9°C | 12.1% | 607.7hPa | 2.7V | 07:52:00 | 02:55:16 | 00:00:00 | |
| BIOWL1-15 | 2026-08-30 13:13:05 | 51.77375 | 8.72783 | 81° | 57km/h | 4254m | -5.1m/s | -2°C | 11% | 606.9hPa | 2.6V | 07:52:00 | 02:55:14 | 00:00:00 | |
| DO2JMG | 2026-08-30 13:13:04 | 51.77373 | 8.72760 | 81° | 57km/h | 4259m | -5.2m/s | -2°C | 10.5% | 606.5hPa | 2.7V | 07:52:00 | 02:55:13 | 00:00:00 | |
| BIOWL9-15 | 2026-08-30 13:13:03 | 51.77368 | 8.72715 | 80° | 55km/h | 4269m | -5.3m/s | -2.1°C | 9.7% | 605.8hPa | 2.7V | 00:00:00 | 00:00:00 | 00:00:00 | |
| DD8BA-10 | 2026-08-30 13:13:00 | 51.77364 | 8.72670 | 83° | 55km/h | 4280m | -5.1m/s | -2.1°C | 10.0% | 604.9hPa | 2.7V | 00:00:00 | 00:00:00 | 00:00:00 | |
| DM0DOS-11 | 2026-08-30 13:12:59 | 51.77354 | 8.72537 | 82° | 55km/h | 4311m | -5.1m/s | -2.4°C | 10.8% | 602.5hPa | 2.7V | 07:52:03 | 02:55:03 | 00:00:00 | |
| DL1XH1-15 | 2026-08-30 13:12:58 | 51.77352 | 8.72515 | 81° | 55km/h | 4316m | -5.1m/s | -2.5°C | 10.8% | 602.1hPa | 2.7V | 07:52:04 | 02:55:02 | 00:00:00 | |
| DL1XH-west | 2026-08-30 13:12:56 | 51.77358 | 8.72581 | 83° | 55km/h | 4300m | -5.2m/s | -2.3°C | 11.5% | 603.4hPa | 2.7V | 07:52:51 | 02:55:05 | 00:00:00 | |
| DB0DAN | 2026-08-30 13:12:55 | 51.77356 | 8.72559 | 83° | 53km/h | 4306m | -5.3m/s | -2.4°C | 10.5% | 602.94hPa | 2.7V | 00:00:00 | 00:00:00 | 00:00:00 | |
| HSKMA3-T | 2026-08-30 13:12:55 | 51.77356 | 8.72559 | 83° | 55km/h | 4306m | -5.3m/s | -2.4°C | 11.5% | 602.9hPa | 2.7V | 07:52:51 | 02:55:04 | 00:00:00 | |
| BIOWL1-15 | 2026-08-30 13:12:54 | 51.77354 | 8.72537 | 82° | 55km/h | 4311m | -5.1m/s | -2.4°C | 11.6% | 602.5hPa | 2.7V | 07:52:51 | 02:55:03 | 00:00:00 | |
| DO2JMG | 2026-08-30 13:12:53 | 51.77352 | 8.72515 | 82° | 55km/h | 4316m | -5.1m/s | -2.5°C | 11.6% | 602.1hPa | 2.7V | 07:52:51 | 02:55:02 | 00:00:00 | |
| DD1CC8 | 2026-08-30 13:12:51 | 51.77349 | 8.72471 | 82° | 53km/h | 4326m | -4.9m/s | -2.5°C | 10.4% | 601.4hPa | 2.7V | 00:00:00 | 00:00:00 | 00:00:00 | |
| DD8BA-10 | 2026-08-30 13:12:50 | 51.77347 | 8.72449 | 83° | 55km/h | 4331m | -4.9m/s | -2.5°C | 10.6% | 601.0hPa | 2.7V | 00:00:00 | 00:00:00 | 00:00:00 | |
| DL1XH1-15 | 2026-08-30 13:12:48 | 51.77335 | 8.72295 | 81° | 55km/h | 4366m | -5.3m/s | -2.8°C | 11.5% | 598.4hPa | 2.7V | 07:52:14 | 02:54:52 | 00:00:00 | |
| BIOWL1-15 | 2026-08-30 13:12:47 | 51.77335 | 8.72295 | 81° | 55km/h | 4366m | -5.3m/s | -2.8°C | 12.7% | 598.4hPa | 2.7V | 07:52:51 | 02:54:52 | 00:00:00 | |
| DL1XH-west | 2026-08-30 13:12:46 | 51.77341 | 8.72361 | 83° | 57km/h | 4350m | -5m/s | -2.7°C | 11.8% | 599.5hPa | 2.7V | 07:52:51 | 02:54:55 | 00:00:00 | |
| DJ2DS-15 | 2026-08-30 13:12:46 | 51.77339 | 8.72339 | 82° | 55km/h | 4355m | -4.9m/s | -2.7°C | 10.7% | 599.1hPa | 2.6V | 00:00:00 | 00:00:00 | 00:00:00 | |
| DM0DOS-11 | 2026-08-30 13:12:44 | 51.77337 | 8.72317 | 80° | 55km/h | 4360m | -5.1m/s | -2.8°C | 11.1% | 598.7hPa | 2.6V | 07:52:13 | 02:54:53 | 00:00:00 | |
| DM0DOS-11 | 2026-08-30 13:12:44 | 51.77326 | 8.72206 | 80° | 55km/h | 4386m | -5.2m/s | -3°C | 12.8% | 596.8hPa | 2.6V | 07:52:18 | 02:54:48 | 00:00:00 | |
| HSKMA3-T | 2026-08-30 13:12:44 | 51.77337 | 8.72317 | 81° | 55km/h | 4360m | -5.1m/s | -2.8°C | 12.2% | 598.7hPa | 2.6V | 07:52:51 | 02:54:53 | 00:00:00 | |
| DO2JMG | 2026-08-30 13:12:42 | 51.77333 | 8.72273 | 82° | 55km/h | 4371m | -5.1m/s | -2.8°C | 13.3% | 598hPa | 2.7V | 07:52:51 | 02:54:51 | 00:00:00 | |
| DL1CLM-18 | 2026-08-30 13:12:41 | 51.77333 | 8.72273 | 83° | 55km/h | 4371m | -5.1m/s | -2.8°C | 11.7% | 598.0hPa | 2.7V | 00:00:00 | 00:00:00 | 00:00:00 | |
| DB0DAN | 2026-08-30 13:12:40 | 51.77328 | 8.72229 | 80° | 53km/h | 4381m | -5.3m/s | -2.9°C | 12.4% | 597.25hPa | 2.7V | 00:00:00 | 00:00:00 | 00:00:00 | |
| DL1ZP-14 | 2026-08-30 13:12:40 | 51.77326 | 8.72206 | 80° | 55km/h | 4386m | -5.2m/s | -3.0°C | 12.5% | 596.8hPa | 2.6V | 00:00:00 | 00:00:00 | 00:00:00 | |
| DL4BBY-15 | 2026-08-30 13:12:39 | 51.77326 | 8.72206 | 81° | 57km/h | 4387m | -5.1m/s | -2.3°C | 0% | 0hPa | 2.7V | 00:00:00 | 00:00:00 | 00:00:00 | |
| DL1XH1-15 | 2026-08-30 13:12:38 | 51.77310 | 8.72073 | 78° | 57km/h | 4417m | -5.2m/s | -3.2°C | 12.2% | 594.5hPa | 2.7V | 07:52:24 | 02:54:42 | 00:00:00 | |
| DL1XH-west | 2026-08-30 13:12:36 | 51.77318 | 8.72140 | 80° | 55km/h | 4402m | -5.1m/s | -3.1°C | 13.8% | 595.7hPa | 2.7V | 07:52:51 | 02:54:45 | 00:00:00 | |
| DB0NH | 2026-08-30 13:12:36 | 51.77318 | 8.72140 | 80° | 57km/h | 4402m | -5.1m/s | -3.0°C | 12.4% | 595.6hPa | 2.7V | 00:00:00 | 02:54:45 | 00:00:00 | |
| DM0DOS-11 | 2026-08-30 13:12:34 | 51.77313 | 8.72095 | 79° | 57km/h | 4412m | -5m/s | -3.1°C | 12.3% | 594.9hPa | 2.7V | 07:52:23 | 02:54:43 | 00:00:00 | |
| DM0DOS-11 | 2026-08-30 13:12:34 | 51.77299 | 8.71981 | 77° | 58km/h | 4438m | -5.3m/s | -3.3°C | 12.1% | 593hPa | 2.7V | 07:52:28 | 02:54:38 | 00:00:00 | |
| HSKMA3-T | 2026-08-30 13:12:34 | 51.77313 | 8.72095 | 79° | 57km/h | 4412m | -5.1m/s | -3.1°C | 13.8% | 594.9hPa | 2.7V | 07:52:51 | 02:54:43 | 00:00:00 | |
| BIOWL1-15 | 2026-08-30 13:12:33 | 51.77310 | 8.72073 | 78° | 57km/h | 4417m | -5.2m/s | -3.2°C | 13.6% | 594.5hPa | 2.7V | 07:52:51 | 02:54:42 | 00:00:00 | |
| DO2JMG | 2026-08-30 13:12:32 | 51.77307 | 8.72050 | 79° | 57km/h | 4422m | -5.2m/s | -3.2°C | 13.6% | 594.2hPa | 2.6V | 07:52:51 | 02:54:41 | 00:00:00 | |
| DL8OAI-8 | 2026-08-30 13:12:31 | 51.77308 | 8.72050 | 80° | 57km/h | 4422m | -5.2m/s | -3.2°C | 11.8% | 594.2hPa | 2.7V | 07:52:00 | 00:00:00 | 00:00:00 | |
| DD8BA-10 | 2026-08-30 13:12:30 | 51.77302 | 8.72004 | 78° | 57km/h | 4432m | -5.3m/s | -3.3°C | 12.1% | 593.3hPa | 2.7V | 00:00:00 | 00:00:00 | 00:00:00 | |
| DL1XH1-15 | 2026-08-30 13:12:28 | 51.77295 | 8.71958 | 76° | 58km/h | 4443m | -5.4m/s | -3.4°C | 12.2% | 592.6hPa | 2.7V | 07:52:29 | 02:54:37 | 00:00:00 | |
| DL1XH1-15 | 2026-08-30 13:12:28 | 51.77280 | 8.71846 | 78° | 57km/h | 4468m | -5m/s | -3.6°C | 12.3% | 590.7hPa | 2.7V | 07:52:34 | 02:54:32 | 00:00:00 | |
| DL1CLM-18 | 2026-08-30 13:12:26 | 51.77292 | 8.71936 | 78° | 57km/h | 4448m | -5.2m/s | -3.4°C | 11.9% | 591.7hPa | 2.6V | 00:00:00 | 00:00:00 | 00:00:00 | |
| DB0DAN | 2026-08-30 13:12:25 | 51.77286 | 8.71891 | 79° | 53km/h | 4458m | -5.1m/s | -3.5°C | 12.1% | 591.43hPa | 2.6V | 00:00:00 | 00:00:00 | 00:00:00 | |
| DL1XH-west | 2026-08-30 13:12:25 | 51.77286 | 8.71891 | 79° | 55km/h | 4458m | -5.1m/s | -3.5°C | 13.9% | 591.4hPa | 2.6V | 07:52:51 | 02:54:34 | 00:00:00 | |
| DM0DOS-11 | 2026-08-30 13:12:24 | 51.77283 | 8.71869 | 78° | 57km/h | 4463m | -5m/s | -3.5°C | 12.3% | 591hPa | 2.6V | 07:52:33 | 02:54:33 | 00:00:00 | |
| HSKMA3-T | 2026-08-30 13:12:24 | 51.77283 | 8.71869 | 79° | 57km/h | 4463m | -5m/s | -3.5°C | 13.9% | 591hPa | 2.6V | 07:52:51 | 02:54:33 | 00:00:00 | |
| BIOWL1-15 | 2026-08-30 13:12:24 | 51.77277 | 8.71824 | 77° | 57km/h | 4473m | -5m/s | -3.6°C | 14% | 590.3hPa | 2.7V | 07:52:51 | 02:54:31 | 00:00:00 | |
| DO2JMG | 2026-08-30 13:12:21 | 51.77274 | 8.71802 | 77° | 55km/h | 4478m | -5.2m/s | -3.7°C | 14% | 590hPa | 2.7V | 07:52:51 | 02:54:30 | 00:00:00 | |
| DD8BA-10 | 2026-08-30 13:12:20 | 51.77271 | 8.71780 | 78° | 57km/h | 4484m | -5.5m/s | -3.7°C | 12.3% | 589.5hPa | 2.7V | 00:00:00 | 00:00:00 | 00:00:00 | |
| DL1XH1-15 | 2026-08-30 13:12:18 | 51.77265 | 8.71736 | 78° | 55km/h | 4494m | -5m/s | -3.8°C | 13.7% | 588.7hPa | 2.6V | 07:52:39 | 02:54:27 | 00:00:00 | |
| DL1XH1-15 | 2026-08-30 13:12:18 | 51.77250 | 8.71624 | 76° | 57km/h | 4519m | -5.4m/s | -4°C | 17.6% | 586.8hPa | 2.7V | 07:52:44 | 02:54:22 | 00:00:00 | |
| DO3DL | 2026-08-30 13:12:17 | 51.77265 | 8.71736 | 79° | 55km/h | 4494m | -5.0m/s | -3.8°C | 13.4% | 588.7hPa | 2.7V | 07:52:00 | 00:00:00 | 00:00:00 | |
| DL3OBA | 2026-08-30 13:12:15 | 51.77260 | 8.71691 | 79° | 57km/h | 4504m | -5.0m/s | -3.9°C | 16.1% | 588.0hPa | 2.7V | 07:52:00 | 00:00:00 | 00:00:00 | |
| DM0DOS-11 | 2026-08-30 13:12:14 | 51.77253 | 8.71646 | 75° | 57km/h | 4514m | -5m/s | -3.9°C | 17.3% | 587.2hPa | 2.7V | 07:52:43 | 02:54:23 | 00:00:00 | |
| DL1XH-west | 2026-08-30 13:12:14 | 51.77253 | 8.71646 | 76° | 57km/h | 4514m | -5m/s | -3.9°C | 20.2% | 587.2hPa | 2.7V | 07:52:51 | 02:54:23 | 00:00:00 | |
| DB0UT-7 | 2026-08-30 13:12:13 | 51.77250 | 8.71624 | 77° | 57km/h | 4519m | -5.3m/s | -3.9°C | 17.6% | 586.8hPa | 2.7V | 00:00:00 | 00:00:00 | 00:00:00 | |
| DD1CC2-15 | 2026-08-30 13:12:12 | 51.77250 | 8.71624 | 77° | 57km/h | 4519m | -5.4m/s | -4.0°C | 17.2% | 586.8hPa | 2.7V | 07:52:00 | 00:00:00 | 00:00:00 | |
| BIOWL1-15 | 2026-08-30 13:12:11 | 51.77168 | 8.71061 | 78° | 58km/h | 4650m | -5.4m/s | -5°C | 16.5% | 577.1hPa | 2.7V | 07:53:42 | 02:53:57 | 00:00:00 | |
| DO2JMG | 2026-08-30 13:12:11 | 51.77243 | 8.71579 | 77° | 57km/h | 4530m | -5.1m/s | -4.1°C | 20.8% | 586hPa | 2.6V | 07:52:51 | 02:54:20 | 00:00:00 | |
| DL1XH1-15 | 2026-08-30 13:12:11 | 51.77234 | 8.71512 | 78° | 58km/h | 4545m | -5.3m/s | -4.2°C | 17.6% | 584.8hPa | 2.7V | 07:52:49 | 02:54:17 | 00:00:00 | |
| DL1XH-west | 2026-08-30 13:12:10 | 51.77189 | 8.71220 | 77° | 57km/h | 4614m | -5.3m/s | -4.7°C | 15.1% | 579.8hPa | 2.7V | 07:53:42 | 02:54:04 | 00:00:00 | |
| HSKMA3-T | 2026-08-30 13:12:10 | 51.77217 | 8.71399 | 77° | 57km/h | 4571m | -5.2m/s | -4.4°C | 18.6% | 582.9hPa | 2.7V | 07:53:42 | 02:54:12 | 00:00:00 | |
| DB0DAN | 2026-08-30 13:12:10 | 51.77240 | 8.71557 | 76° | 53km/h | 4535m | -5.2m/s | -4.1°C | 17.4% | 585.69hPa | 2.7V | 00:00:00 | 00:00:00 | 00:00:00 | |
| DJ2DS-15 | 2026-08-30 13:12:10 | 51.77237 | 8.71535 | 77° | 55km/h | 4540m | -5.3m/s | -4.2°C | 17.5% | 585.2hPa | 2.7V | 00:00:00 | 00:00:00 | 00:00:00 | |
| DM0DOS-11 | 2026-08-30 13:12:09 | 51.77213 | 8.71376 | 75° | 57km/h | 4577m | -5.4m/s | -4.5°C | 14.4% | 582.6hPa | 2.7V | 07:52:55 | 02:54:11 | 00:00:00 | |
| DM0DOS-11 | 2026-08-30 13:12:09 | 51.77180 | 8.71153 | 78° | 57km/h | 4630m | -5.3m/s | -4.8°C | 12.5% | 578.6hPa | 2.6V | 07:53:05 | 02:54:01 | 00:00:00 | |
| DO2JMG | 2026-08-30 13:12:07 | 51.77206 | 8.71332 | 77° | 57km/h | 4587m | -5.4m/s | -4.5°C | 15.3% | 581.8hPa | 2.7V | 07:53:42 | 02:54:09 | 00:00:00 | |
| DB0NH | 2026-08-30 13:12:06 | 51.77227 | 8.71466 | 77° | 57km/h | 4556m | -5.1m/s | -4.3°C | 17.4% | 584.0hPa | 2.6V | 07:52:00 | 02:54:15 | 00:00:00 | |
| DL4XJ-10 | 2026-08-30 13:12:05 | 51.77224 | 8.71444 | 76° | 57km/h | 4561m | -4.9m/s | -3.7°C | 0% | 0hPa | 2.6V | 00:00:00 | 00:00:00 | 00:00:00 | |
| DL1XH1-15 | 2026-08-30 13:12:03 | 51.77183 | 8.71176 | 77° | 57km/h | 4624m | -5.5m/s | -4.8°C | 11.8% | 579hPa | 2.6V | 07:53:04 | 02:54:02 | 00:00:00 | |
| HSKMA3-T | 2026-08-30 13:12:02 | 51.77183 | 8.71176 | 77° | 57km/h | 4624m | -5.5m/s | -4.8°C | 13.3% | 579hPa | 2.6V | 07:53:42 | 02:54:02 | 00:00:00 | |
| BIOWL9-15 | 2026-08-30 13:12:01 | 51.77206 | 8.71332 | 76° | 55km/h | 4587m | -5.4m/s | -4.5°C | 13.1% | 581.8hPa | 2.7V | 00:00:00 | 00:00:00 | 00:00:00 | |
| DD8BA-10 | 2026-08-30 13:12:00 | 51.77206 | 8.71332 | 77° | 57km/h | 4587m | -5.4m/s | -4.5°C | 13.4% | 581.8hPa | 2.7V | 00:00:00 | 00:00:00 | 00:00:00 | |
| DD1CC3-15 | 2026-08-30 13:11:57 | 51.77199 | 8.71287 | 77° | 57km/h | 4598m | -5.3m/s | -4.6°C | 12.0% | 581.0hPa | 2.7V | 07:53:00 | 00:00:00 | 00:00:00 | |
| DB0DAN | 2026-08-30 13:11:55 | 51.77189 | 8.71220 | 77° | 53km/h | 4614m | -5.3m/s | -4.7°C | 12.9% | 579.81hPa | 2.7V | 00:00:00 | 00:00:00 | 00:00:00 | |
| DO2JMG | 2026-08-30 13:11:52 | 51.77171 | 8.71085 | 77° | 58km/h | 4645m | -5.2m/s | -4.9°C | 16.1% | 577.5hPa | 2.7V | 07:53:42 | 02:53:58 | 00:00:00 | |
| DL1XH-west | 2026-08-30 13:11:48 | 51.77165 | 8.71038 | 78° | 58km/h | 4656m | -5.2m/s | -5°C | 17.2% | 576.7hPa | 2.7V | 07:53:42 | 02:53:56 | 00:00:00 | |
| DC4HF-4 | 2026-08-30 13:11:46 | 51.77158 | 8.70991 | 75° | 57km/h | 4666m | -5.4m/s | -5.1°C | 15.7% | 575.9hPa | 2.7V | 00:00:00 | 00:00:00 | 00:00:00 | |
| DM0DOS-11 | 2026-08-30 13:11:45 | 51.77151 | 8.70945 | 76° | 58km/h | 4677m | -5.2m/s | -5.2°C | 16.1% | 575.2hPa | 2.7V | 07:53:14 | 02:53:52 | 00:00:00 | |
| HSKMA3-T | 2026-08-30 13:11:42 | 51.77148 | 8.70922 | 76° | 57km/h | 4682m | -5.3m/s | -5.2°C | 18.2% | 574.9hPa | 2.7V | 07:53:42 | 02:53:51 | 00:00:00 | |
| DB0DAN | 2026-08-30 13:11:40 | 51.77141 | 8.70878 | 78° | 53km/h | 4693m | -5.2m/s | -5.3°C | 16.2% | 573.99hPa | 2.6V | 00:00:00 | 00:00:00 | 00:00:00 | |
| BIOWL1-15 | 2026-08-30 13:11:40 | 51.77141 | 8.70878 | 78° | 57km/h | 4692m | -5.2m/s | -5.3°C | 19.3% | 574hPa | 2.6V | 07:53:42 | 02:53:49 | 00:00:00 | |
| DO2JMG | 2026-08-30 13:11:39 | 51.77138 | 8.70855 | 79° | 57km/h | 4698m | -5.2m/s | -5.4°C | 19.4% | 573.6hPa | 2.6V | 07:53:42 | 02:53:48 | 00:00:00 | |
| DL1XH1-15 | 2026-08-30 13:11:38 | 51.77135 | 8.70832 | 79° | 57km/h | 4703m | -5.4m/s | -5.4°C | 16.9% | 573.2hPa | 2.7V | 07:53:19 | 02:53:47 | 00:00:00 | |
| DL1XH-west | 2026-08-30 13:11:36 | 51.77130 | 8.70786 | 79° | 58km/h | 4714m | -5.3m/s | -5.5°C | 19.7% | 572.6hPa | 2.7V | 07:53:42 | 02:53:45 | 00:00:00 | |
| DB0NH | 2026-08-30 13:11:36 | 51.77130 | 8.70786 | 79° | 58km/h | 4714m | -5.2m/s | -5.5°C | 17.0% | 572.5hPa | 2.6V | 00:00:00 | 02:53:45 | 00:00:00 | |
| DJ2DS-15 | 2026-08-30 13:11:34 | 51.77121 | 8.70716 | 77° | 58km/h | 4729m | -5.3m/s | -5.6°C | 16.6% | 571.4hPa | 2.6V | 00:00:00 | 00:00:00 | 00:00:00 | |
| DL1XH1-15 | 2026-08-30 13:11:33 | 51.77104 | 8.70600 | 76° | 57km/h | 4756m | -5.5m/s | -5.8°C | 18.1% | 569.5hPa | 2.6V | 07:53:29 | 02:53:37 | 00:00:00 | |
| HSKMA3-T | 2026-08-30 13:11:32 | 51.77118 | 8.70692 | 77° | 58km/h | 4735m | -5.1m/s | -5.7°C | 20.4% | 570.9hPa | 2.7V | 07:53:42 | 02:53:41 | 00:00:00 | |
| BIOWL1-15 | 2026-08-30 13:11:29 | 51.77108 | 8.70623 | 77° | 58km/h | 4750m | -5.4m/s | -5.8°C | 20.7% | 569.8hPa | 2.7V | 07:53:42 | 02:53:38 | 00:00:00 | |
| DO2JMG | 2026-08-30 13:11:28 | 51.77104 | 8.70600 | 76° | 58km/h | 4756m | -5.5m/s | -5.8°C | 21% | 569.5hPa | 2.6V | 07:53:42 | 02:53:37 | 00:00:00 | |
| DL3AQ-11 | 2026-08-30 13:11:27 | 51.77101 | 8.70577 | 76° | 57km/h | 4761m | -5.4m/s | -5.9°C | 17.5% | 569.1hPa | 2.7V | 00:00:00 | 00:00:00 | 00:00:00 | |
| DB0DAN | 2026-08-30 13:11:25 | 51.77094 | 8.70532 | 78° | 55km/h | 4772m | -5.3m/s | -5.9°C | 17.7% | 568.31hPa | 2.7V | 00:00:00 | 00:00:00 | 00:00:00 | |
| DL1XH-west | 2026-08-30 13:11:25 | 51.77094 | 8.70532 | 78° | 57km/h | 4772m | -5.3m/s | -5.9°C | 21.1% | 568.3hPa | 2.7V | 07:53:42 | 02:53:34 | 00:00:00 | |
| DK9SH | 2026-08-30 13:11:25 | 51.77094 | 8.70532 | 79° | 57km/h | 4772m | -5.3m/s | -5.9°C | 17.7% | 568.3hPa | 2.7V | 07:53:00 | 00:00:00 | 00:00:00 | |
| DL1XH1-15 | 2026-08-30 13:11:22 | 51.77071 | 8.70346 | 79° | 58km/h | 4814m | -5.3m/s | -6.1°C | 13.7% | 565.2hPa | 2.7V | 07:53:40 | 02:53:26 | 00:00:00 | |
| HSKMA3-T | 2026-08-30 13:11:21 | 51.77082 | 8.70440 | 80° | 57km/h | 4793m | -5.4m/s | -6°C | 20.6% | 566.8hPa | 2.6V | 07:53:42 | 02:53:30 | 00:00:00 | |
| BIOWL1-15 | 2026-08-30 13:11:20 | 51.77074 | 8.70370 | 79° | 58km/h | 4809m | -5.2m/s | -6.1°C | 16.5% | 565.7hPa | 2.7V | 07:53:42 | 02:53:27 | 00:00:00 | |
| DO2JMG | 2026-08-30 13:11:17 | 51.77071 | 8.70346 | 79° | 58km/h | 4814m | -5.3m/s | -6.1°C | 15.7% | 565.2hPa | 2.7V | 07:53:42 | 02:53:26 | 00:00:00 | |
| DL1XH-west | 2026-08-30 13:11:14 | 51.77063 | 8.70274 | 77° | 62km/h | 4830m | -5.3m/s | -6.3°C | 15.6% | 564.1hPa | 2.6V | 07:54:33 | 02:53:23 | 00:00:00 | |
| DO9LL-15 | 2026-08-30 13:11:13 | 51.77059 | 8.70249 | 76° | 58km/h | 4835m | -5.2m/s | -6.3°C | 13.6% | 563.6hPa | 2.7V | 00:00:00 | 02:53:22 | 00:00:00 | |
| DL1XH1-15 | 2026-08-30 13:11:12 | 51.77039 | 8.70112 | 78° | 55km/h | 4867m | -5.4m/s | -6.6°C | 13.5% | 561.3hPa | 2.7V | 07:53:50 | 02:53:16 | 00:00:00 | |
| HSKMA3-T | 2026-08-30 13:11:11 | 51.77052 | 8.70202 | 75° | 58km/h | 4846m | -5.4m/s | -6.4°C | 15.6% | 562.9hPa | 2.7V | 07:54:33 | 02:53:20 | 00:00:00 | |
| DB0DAN | 2026-08-30 13:11:10 | 51.77048 | 8.70179 | 77° | 55km/h | 4851m | -5.4m/s | -6.5°C | 13.3% | 562.63hPa | 2.7V | 00:00:00 | 00:00:00 | 00:00:00 | |
| BIOWL1-15 | 2026-08-30 13:11:07 | 51.77038 | 8.70112 | 78° | 55km/h | 4867m | -5.4m/s | -6.6°C | 15.5% | 561.3hPa | 2.7V | 07:54:33 | 02:53:16 | 00:00:00 | |
| DO2JMG | 2026-08-30 13:11:06 | 51.77036 | 8.70090 | 80° | 57km/h | 4873m | -5.3m/s | -6.7°C | 15.4% | 561hPa | 2.7V | 07:54:33 | 02:53:15 | 00:00:00 | |
| DL1XH-west | 2026-08-30 13:11:04 | 51.77030 | 8.70045 | 77° | 58km/h | 4883m | -5.3m/s | -6.8°C | 15.5% | 560.1hPa | 2.7V | 07:54:33 | 02:53:13 | 00:00:00 | |
| DL8OAI-8 | 2026-08-30 13:11:03 | 51.77030 | 8.70045 | 78° | 58km/h | 4883m | -5.3m/s | -6.8°C | 13.2% | 560.1hPa | 2.6V | 07:54:00 | 00:00:00 | 00:00:00 | |
| DB0ND-19 | 2026-08-30 13:11:02 | 51.77009 | 8.69904 | 73° | 60km/h | 4915m | -5.5m/s | -7.1°C | -1.0% | 557.9hPa | 2.6V | 00:00:00 | 00:00:00 | 00:00:00 | |
| DM0DOS-11 | 2026-08-30 13:11:01 | 51.77005 | 8.69881 | 73° | 60km/h | 4920m | -5.5m/s | -7.1°C | 12.5% | 557.6hPa | 2.6V | 07:54:00 | 02:53:06 | 00:00:00 | |
| HSKMA3-T | 2026-08-30 13:11:00 | 51.77017 | 8.69952 | 77° | 60km/h | 4904m | -5.2m/s | -7°C | 14.5% | 558.7hPa | 2.7V | 07:54:33 | 02:53:09 | 00:00:00 | |
| BIOWL1-15 | 2026-08-30 13:10:57 | 51.77005 | 8.69881 | 74° | 60km/h | 4920m | -5.5m/s | -7.1°C | 14% | 557.6hPa | 2.6V | 07:54:33 | 02:53:06 | 00:00:00 | |
| DO2JMG | 2026-08-30 13:10:56 | 51.77001 | 8.69858 | 74° | 58km/h | 4926m | -5.3m/s | -7.2°C | 14.1% | 557.2hPa | 2.6V | 07:54:33 | 02:53:05 | 00:00:00 | |
| DL1XH-west | 2026-08-30 13:10:53 | 51.76989 | 8.69789 | 76° | 60km/h | 4941m | -5.3m/s | -7.2°C | 13.7% | 556hPa | 2.7V | 07:54:33 | 02:53:02 | 00:00:00 | |
| HSKMA3-T | 2026-08-30 13:10:50 | 51.76978 | 8.69718 | 76° | 60km/h | 4958m | -5.6m/s | -7.3°C | 13% | 555hPa | 2.6V | 07:54:33 | 02:52:59 | 00:00:00 | |
| DD8BA-10 | 2026-08-30 13:10:50 | 51.76978 | 8.69718 | 76° | 58km/h | 4958m | -5.5m/s | -7.3°C | 11.7% | 554.9hPa | 2.6V | 00:00:00 | 00:00:00 | 00:00:00 | |
| DM0DOS-11 | 2026-08-30 13:10:47 | 51.76966 | 8.69649 | 74° | 57km/h | 4973m | -5.1m/s | -7.5°C | 11.6% | 553.8hPa | 2.7V | 07:54:10 | 02:52:56 | 00:00:00 | |
| DD1CC8 | 2026-08-30 13:10:47 | 51.76962 | 8.69627 | 76° | 53km/h | 4978m | -5.3m/s | -7.5°C | 11.3% | 553.4hPa | 2.7V | 00:00:00 | 00:00:00 | 00:00:00 | |
| DL1XH1-15 | 2026-08-30 13:10:46 | 51.76953 | 8.69535 | 81° | 62km/h | 5000m | -5.4m/s | -7.7°C | 12.3% | 551.9hPa | 2.7V | 07:54:15 | 02:52:51 | 00:00:00 | |
| DO2JMG | 2026-08-30 13:10:46 | 51.76962 | 8.69627 | 76° | 55km/h | 4978m | -5.3m/s | -7.5°C | 13.1% | 553.4hPa | 2.7V | 07:54:33 | 02:52:55 | 00:00:00 | |
| DL1XH-west | 2026-08-30 13:10:43 | 51.76955 | 8.69559 | 82° | 58km/h | 4994m | -5.4m/s | -7.7°C | 13.2% | 552.3hPa | 2.7V | 07:54:33 | 02:52:52 | 00:00:00 | |
| HSKMA3-T | 2026-08-30 13:10:40 | 51.76947 | 8.69485 | 77° | 64km/h | 5010m | -5.3m/s | -7.8°C | 13.8% | 551.1hPa | 2.7V | 07:54:33 | 02:52:49 | 00:00:00 | |
| DD8BA-10 | 2026-08-30 13:10:40 | 51.76947 | 8.69484 | 77° | 60km/h | 5010m | -5.2m/s | -7.8°C | 12.3% | 551.1hPa | 2.7V | 00:00:00 | 00:00:00 | 00:00:00 | |
| DL1XH1-15 | 2026-08-30 13:10:39 | 51.76920 | 8.69343 | 75° | 57km/h | 5041m | -5.4m/s | -8°C | 11.9% | 549hPa | 2.7V | 07:54:23 | 02:52:43 | 00:00:00 | |
| DO2JMG | 2026-08-30 13:10:36 | 51.76929 | 8.69388 | 71° | 58km/h | 5031m | -5.2m/s | -7.9°C | 13.5% | 549.8hPa | 2.7V | 07:54:33 | 02:52:45 | 00:00:00 | |
| DL1XH-west | 2026-08-30 13:10:33 | 51.76917 | 8.69320 | 77° | 58km/h | 5047m | -5.2m/s | -8°C | 13.1% | 548.6hPa | 2.6V | 07:54:33 | 02:52:42 | 00:00:00 | |
| DJ2DS-15 | 2026-08-30 13:10:32 | 51.76913 | 8.69297 | 77° | 57km/h | 5052m | -5.4m/s | -7.9°C | 12.0% | 548.2hPa | 2.6V | 00:00:00 | 02:52:41 | 00:00:00 | |
| DB0ND-19 | 2026-08-30 13:10:31 | 51.76909 | 8.69273 | 74° | 60km/h | 5057m | -5.3m/s | -8.0°C | -1.0% | 547.9hPa | 2.6V | 00:00:00 | 00:00:00 | 00:00:00 | |
| DD8BA-10 | 2026-08-30 13:10:30 | 51.76905 | 8.69248 | 74° | 58km/h | 5063m | -5.2m/s | -7.9°C | 11.0% | 547.4hPa | 2.6V | 07:54:00 | 00:00:00 | 00:00:00 | |
| HSKMA3-T | 2026-08-30 13:10:30 | 51.76905 | 8.69248 | 73° | 60km/h | 5063m | -5.3m/s | -8°C | 12.2% | 547.5hPa | 2.7V | 07:54:33 | 02:52:39 | 00:00:00 | |
| DD1CC1-15 | 2026-08-30 13:10:29 | 51.76905 | 8.69248 | 74° | 60km/h | 5063m | -5.3m/s | -8.0°C | 10.6% | 547.5hPa | 2.6V | 07:54:00 | 00:00:00 | 00:00:00 | |
| DM0DOS-11 | 2026-08-30 13:10:28 | 51.76889 | 8.69158 | 76° | 55km/h | 5083m | -5.2m/s | -8°C | 7.8% | 545.9hPa | 2.6V | 07:54:31 | 02:52:35 | 00:00:00 | |
| BIOWL1-15 | 2026-08-30 13:10:27 | 51.76865 | 8.69025 | 71° | 55km/h | 5115m | -5.4m/s | -8.1°C | 6.9% | 543.6hPa | 2.7V | 07:55:24 | 02:52:29 | 00:00:00 | |
| DO2JMG | 2026-08-30 13:10:25 | 51.76886 | 8.69136 | 78° | 57km/h | 5089m | -5.4m/s | -8°C | 7.3% | 545.6hPa | 2.7V | 07:54:33 | 02:52:34 | 00:00:00 | |
| DB0DAN | 2026-08-30 13:10:25 | 51.76886 | 8.69136 | 78° | 55km/h | 5089m | -5.4m/s | -8°C | 7.1% | 545.56hPa | 2.7V | 00:00:00 | 00:00:00 | 00:00:00 | |
| DL1XH-west | 2026-08-30 13:10:22 | 51.76875 | 8.69068 | 72° | 58km/h | 5104m | -5.3m/s | -8.1°C | 6.8% | 544.5hPa | 2.6V | 07:55:24 | 02:52:31 | 00:00:00 | |
| DM0DOS-11 | 2026-08-30 13:10:21 | 51.76849 | 8.68939 | 72° | 57km/h | 5136m | -5.4m/s | -8.2°C | 6.5% | 542.2hPa | 2.6V | 07:54:41 | 02:52:25 | 00:00:00 | |
| HSKMA3-T | 2026-08-30 13:10:19 | 51.76861 | 8.69004 | 72° | 55km/h | 5121m | -5.4m/s | -8.2°C | 6.9% | 543.4hPa | 2.7V | 07:55:24 | 02:52:28 | 00:00:00 | |
| DO2JMG | 2026-08-30 13:10:14 | 51.76840 | 8.68895 | 72° | 57km/h | 5147m | -5.4m/s | -8.3°C | 5.9% | 541.5hPa | 2.7V | 07:55:24 | 02:52:23 | 00:00:00 | |
| BIOWL1-15 | 2026-08-30 13:10:13 | 51.76815 | 8.68768 | 73° | 53km/h | 5181m | -5.6m/s | -8.4°C | 3.3% | 539.1hPa | 2.7V | 07:55:24 | 02:52:17 | 00:00:00 | |
| DL1XH-west | 2026-08-30 13:10:11 | 51.76827 | 8.68831 | 73° | 55km/h | 5164m | -5.4m/s | -8.3°C | 4.6% | 540.3hPa | 2.7V | 07:55:24 | 02:52:20 | 00:00:00 | |
| DM0DOS-11 | 2026-08-30 13:10:10 | 51.76807 | 8.68727 | 71° | 53km/h | 5191m | -5.6m/s | -8.4°C | 4.3% | 538.4hPa | 2.7V | 07:54:51 | 02:52:15 | 00:00:00 | |
| DB0DAN | 2026-08-30 13:10:10 | 51.76823 | 8.68810 | 72° | 51km/h | 5169m | -5.6m/s | -8.4°C | 5% | 539.96hPa | 2.6V | 00:00:00 | 00:00:00 | 00:00:00 | |
| HSKMA3-T | 2026-08-30 13:10:09 | 51.76819 | 8.68789 | 73° | 53km/h | 5175m | -5.7m/s | -8.4°C | 3.8% | 539.6hPa | 2.6V | 07:55:24 | 02:52:18 | 00:00:00 | |
| DL4BBY-15 | 2026-08-30 13:10:09 | 51.76819 | 8.68789 | 74° | 53km/h | 5175m | -5.6m/s | -7.7°C | 0% | 0hPa | 2.6V | 00:00:00 | 00:00:00 | 00:00:00 | |
| DL3AQ-11 | 2026-08-30 13:10:08 | 51.76812 | 8.68748 | 72° | 53km/h | 5186m | -5.4m/s | -8.4°C | 4.2% | 538.8hPa | 2.6V | 00:00:00 | 00:00:00 | 00:00:00 | |
| SONCRA | 2026-08-30 13:10:07 | 51.76807 | 8.68727 | 71° | 51km/h | 5191m | -5.6m/s | -8.4°C | 4.1% | 538.4hPa | 2.6V | 00:00:00 | 00:00:00 | 00:00:00 | |
| DL1XH1-15 | 2026-08-30 13:10:06 | 51.76799 | 8.68687 | 72° | 51km/h | 5203m | -5.7m/s | -8.5°C | 4.3% | 537.7hPa | 2.6V | 07:54:53 | 02:52:13 | 00:00:00 | |
| DO2JMG | 2026-08-30 13:10:03 | 51.76795 | 8.68667 | 74° | 51km/h | 5208m | -5.6m/s | -8.5°C | 2.7% | 537.2hPa | 2.6V | 07:55:24 | 02:52:12 | 00:00:00 | |
| DL1XH-west | 2026-08-30 13:10:01 | 51.76788 | 8.68626 | 73° | 53km/h | 5219m | -5.4m/s | -8.6°C | 2.7% | 536.5hPa | 2.7V | 07:55:24 | 02:52:10 | 00:00:00 | |
| DB0ND-19 | 2026-08-30 13:10:01 | 51.76749 | 8.68362 | 81° | 55km/h | 5290m | -5.5m/s | 0°C | -1.0% | 531.6hPa | 2.7V | 00:00:00 | 00:00:00 | 00:00:00 | |
| DD8BA-10 | 2026-08-30 13:10:00 | 51.76784 | 8.68605 | 74° | 51km/h | 5225m | -5.5m/s | -8.6°C | 4.2% | 536.0hPa | 2.7V | 00:00:00 | 00:00:00 | 00:00:00 | |
| DL1XH1-15 | 2026-08-30 13:09:59 | 51.76765 | 8.68482 | 75° | 51km/h | 5257m | -5.1m/s | -8.9°C | 4.4% | 533.8hPa | 2.7V | 07:55:03 | 02:52:03 | 00:00:00 | |
| HSKMA3-T | 2026-08-30 13:09:58 | 51.76777 | 8.68564 | 76° | 51km/h | 5236m | -5.5m/s | -8.8°C | 2.8% | 535.3hPa | 2.6V | 07:55:24 | 02:52:07 | 00:00:00 | |
| BIOWL1-15 | 2026-08-30 13:09:58 | 51.76765 | 8.68482 | 75° | 51km/h | 5258m | -5.1m/s | -8.9°C | 2.9% | 533.8hPa | 2.7V | 07:55:24 | 02:52:03 | 00:00:00 | |
| DO2JMG | 2026-08-30 13:09:53 | 51.76761 | 8.68462 | 74° | 49km/h | 5263m | -5.3m/s | -9°C | 3% | 533.6hPa | 2.6V | 07:55:24 | 02:52:02 | 00:00:00 | |
| DL1XH-west | 2026-08-30 13:09:51 | 51.76755 | 8.68424 | 78° | 49km/h | 5274m | -6m/s | -9.1°C | 3.1% | 532.8hPa | 2.7V | 07:55:24 | 02:52:00 | 00:00:00 | |
| HSKMA3-T | 2026-08-30 13:09:47 | 51.76747 | 8.68339 | 80° | 58km/h | 5296m | -5.5m/s | -9.3°C | 3.3% | 531.2hPa | 2.6V | 07:55:24 | 02:51:56 | 00:00:00 | |
| DL1XH1-15 | 2026-08-30 13:09:46 | 51.76736 | 8.68270 | 72° | 57km/h | 5312m | -5.5m/s | -9.4°C | 4.7% | 530hPa | 2.7V | 07:55:13 | 02:51:53 | 00:00:00 | |
| BIOWL1-15 | 2026-08-30 13:09:44 | 51.76736 | 8.68270 | 73° | 57km/h | 5313m | -5.5m/s | -9.4°C | 3.4% | 530hPa | 2.7V | 07:55:24 | 02:51:53 | 00:00:00 | |
| DO2JMG | 2026-08-30 13:09:42 | 51.76728 | 8.68228 | 73° | 51km/h | 5324m | -5.6m/s | -9.5°C | 3.4% | 529.3hPa | 2.6V | 07:55:24 | 02:51:51 | 00:00:00 | |
| DK9SH | 2026-08-30 13:09:41 | 51.76728 | 8.68228 | 74° | 51km/h | 5324m | -5.6m/s | -9.5°C | 4.5% | 529.3hPa | 2.6V | 07:55:00 | 00:00:00 | 00:00:00 | |
| DM0DOS-11 | 2026-08-30 13:09:40 | 51.76712 | 8.68105 | 77° | 53km/h | 5356m | -5.3m/s | -9.8°C | 4.8% | 527hPa | 2.6V | 07:55:21 | 02:51:45 | 00:00:00 | |
| DL1XH-west | 2026-08-30 13:09:40 | 51.76722 | 8.68188 | 78° | 49km/h | 5334m | -5.4m/s | -9.6°C | 3.5% | 528.6hPa | 2.6V | 07:55:24 | 02:51:49 | 00:00:00 | |
| DB0DAN | 2026-08-30 13:09:40 | 51.76722 | 8.68188 | 78° | 47km/h | 5334m | -5.4m/s | -9.6°C | 4.5% | 528.58hPa | 2.6V | 00:00:00 | 00:00:00 | 00:00:00 | |
| DD8BA-10 | 2026-08-30 13:09:40 | 51.76722 | 8.68188 | 79° | 53km/h | 5335m | -5.3m/s | -9.6°C | 4.8% | 528.5hPa | 2.7V | 00:00:00 | 00:00:00 | 00:00:00 | |
| DL1XH1-15 | 2026-08-30 13:09:39 | 51.76706 | 8.68064 | 76° | 53km/h | 5367m | -5.6m/s | -9.9°C | 4.8% | 526.3hPa | 2.7V | 07:55:23 | 02:51:43 | 00:00:00 | |
| HSKMA3-T | 2026-08-30 13:09:37 | 51.76715 | 8.68126 | 79° | 53km/h | 5350m | -5.5m/s | -9.8°C | 3.6% | 527.5hPa | 2.7V | 07:55:24 | 02:51:46 | 00:00:00 | |
| BIOWL1-15 | 2026-08-30 13:09:33 | 51.76703 | 8.68043 | 76° | 53km/h | 5373m | -5.9m/s | -10°C | 3.6% | 526hPa | 2.7V | 07:55:24 | 02:51:42 | 00:00:00 | |
| DO2JMG | 2026-08-30 13:09:32 | 51.76699 | 8.68022 | 74° | 53km/h | 5379m | -5.9m/s | -10.1°C | 3.6% | 525.6hPa | 2.7V | 07:56:15 | 02:51:41 | 00:00:00 | |
| DL1XH-west | 2026-08-30 13:09:30 | 51.76692 | 8.67980 | 74° | 53km/h | 5390m | -5.6m/s | -10.2°C | 3.5% | 524.8hPa | 2.6V | 07:56:15 | 02:51:39 | 00:00:00 | |
| DD8BA-10 | 2026-08-30 13:09:30 | 51.76692 | 8.67980 | 74° | 53km/h | 5390m | -5.6m/s | -10.1°C | 4.8% | 524.8hPa | 2.6V | 00:00:00 | 00:00:00 | 00:00:00 | |
| DB0ND-19 | 2026-08-30 13:09:29 | 51.76684 | 8.67939 | 73° | 53km/h | 5401m | -5.6m/s | 0°C | -1.0% | 524.1hPa | 2.6V | 00:00:00 | 00:00:00 | 00:00:00 | |
| BUE01 | 2026-08-30 13:09:28 | 51.76684 | 8.67939 | 73° | 53km/h | 5401m | -5.6m/s | -10.2°C | 4.5% | 524.1hPa | 2.6V | 00:00:00 | 00:00:00 | 00:00:00 | |
| DD1CC2-15 | 2026-08-30 13:09:27 | 51.76684 | 8.67938 | 75° | 53km/h | 5401m | -5.6m/s | -10.2°C | 4.5% | 524.1hPa | 2.6V | 07:56:00 | 00:00:00 | 00:00:00 | |
| DL1XH1-15 | 2026-08-30 13:09:26 | 51.76671 | 8.67857 | 77° | 53km/h | 5423m | -5.6m/s | -10.4°C | 4.6% | 522.5hPa | 2.6V | 07:55:33 | 02:51:33 | 00:00:00 | |
| HSKMA3-T | 2026-08-30 13:09:26 | 51.76677 | 8.67898 | 76° | 51km/h | 5412m | -5.6m/s | -10.3°C | 3.4% | 523.3hPa | 2.7V | 07:56:15 | 02:51:35 | 00:00:00 | |
| DB0DAN | 2026-08-30 13:09:25 | 51.76674 | 8.67878 | 77° | 49km/h | 5418m | -5.6m/s | -10.4°C | 4.3% | 522.88hPa | 2.6V | 00:00:00 | 00:00:00 | 00:00:00 | |
| BIOWL1-15 | 2026-08-30 13:09:23 | 51.76665 | 8.67816 | 76° | 51km/h | 5434m | -5.6m/s | -10.5°C | 3.3% | 521.8hPa | 2.7V | 07:56:15 | 02:51:31 | 00:00:00 | |
| DO2JMG | 2026-08-30 13:09:21 | 51.76662 | 8.67795 | 77° | 51km/h | 5440m | -5.5m/s | -10.5°C | 3.3% | 521.4hPa | 2.6V | 07:56:15 | 02:51:30 | 00:00:00 | |
| DD8BA-10 | 2026-08-30 13:09:20 | 51.76659 | 8.67775 | 79° | 53km/h | 5446m | -5.4m/s | -10.5°C | 4.6% | 520.9hPa | 2.6V | 00:00:00 | 00:00:00 | 00:00:00 | |
| DL1XH1-15 | 2026-08-30 13:09:19 | 51.76637 | 8.67646 | 67° | 51km/h | 5479m | -5.8m/s | -10.8°C | 4.7% | 518.8hPa | 2.6V | 07:55:43 | 02:51:23 | 00:00:00 | |
| DL1XH-west | 2026-08-30 13:09:19 | 51.76657 | 8.67754 | 79° | 53km/h | 5451m | -5.6m/s | -10.6°C | 3.2% | 520.7hPa | 2.6V | 07:56:15 | 02:51:28 | 00:00:00 | |
| HSKMA3-T | 2026-08-30 13:09:15 | 51.76642 | 8.67667 | 70° | 57km/h | 5473m | -5.7m/s | -10.8°C | 3.6% | 519.2hPa | 2.7V | 07:56:15 | 02:51:24 | 00:00:00 | |
| BIOWL1-15 | 2026-08-30 13:09:11 | 51.76625 | 8.67590 | 74° | 47km/h | 5496m | -5.4m/s | -11°C | 3.5% | 517.6hPa | 2.6V | 07:56:15 | 02:51:20 | 00:00:00 | |
| DB0DAN | 2026-08-30 13:09:10 | 51.76623 | 8.67572 | 79° | 46km/h | 5501m | -5.5m/s | -11°C | 4.5% | 517.33hPa | 2.7V | 00:00:00 | 00:00:00 | 00:00:00 | |
| DO2JMG | 2026-08-30 13:09:10 | 51.76623 | 8.67572 | 79° | 47km/h | 5501m | -5.5m/s | -11°C | 3.5% | 517.3hPa | 2.7V | 07:56:15 | 02:51:19 | 00:00:00 | |
| DL1XH-west | 2026-08-30 13:09:09 | 51.76621 | 8.67552 | 82° | 49km/h | 5507m | -5.5m/s | -11.1°C | 3.5% | 516.9hPa | 2.6V | 07:56:15 | 02:51:18 | 00:00:00 | |
| HSKMA3-T | 2026-08-30 13:09:04 | 51.76607 | 8.67440 | 73° | 60km/h | 5535m | -5.6m/s | -11.3°C | 3.5% | 515.1hPa | 2.7V | 07:56:15 | 02:51:13 | 00:00:00 | |
| DL4XJ-10 | 2026-08-30 13:09:04 | 51.76607 | 8.67440 | 73° | 55km/h | 5535m | -5.5m/s | -10.6°C | 0% | 0hPa | 2.6V | 00:00:00 | 00:00:00 | 00:00:00 | |
| DO3DL | 2026-08-30 13:09:03 | 51.76607 | 8.67440 | 74° | 60km/h | 5535m | -5.6m/s | -11.3°C | 4.4% | 515.1hPa | 2.6V | 07:56:00 | 00:00:00 | 00:00:00 | |
| DL1ZP-14 | 2026-08-30 13:09:02 | 51.76597 | 8.67394 | 68° | 58km/h | 5546m | -5.7m/s | -11.3°C | 4.5% | 514.2hPa | 2.6V | 00:00:00 | 00:00:00 | 00:00:00 | |
| DM0DOS-11 | 2026-08-30 13:09:01 | 51.76569 | 8.67272 | 76° | 49km/h | 5578m | -5.5m/s | -11.6°C | 5.1% | 512hPa | 2.7V | 07:56:01 | 02:51:05 | 00:00:00 | |
| BIOWL1-15 | 2026-08-30 13:09:01 | 51.76591 | 8.67372 | 68° | 57km/h | 5551m | -5.8m/s | -11.4°C | 3.9% | 513.9hPa | 2.6V | 07:56:15 | 02:51:10 | 00:00:00 | |
| DO2JMG | 2026-08-30 13:09:00 | 51.76586 | 8.67351 | 67° | 55km/h | 5557m | -5.6m/s | -11.4°C | 4% | 513.5hPa | 2.6V | 07:56:15 | 02:51:09 | 00:00:00 | |
| DL1XH-west | 2026-08-30 13:08:59 | 51.76581 | 8.67331 | 68° | 53km/h | 5563m | -5.5m/s | -11.5°C | 4.1% | 513.1hPa | 2.5V | 07:56:15 | 02:51:08 | 00:00:00 | |
| HSKMA3-T | 2026-08-30 13:08:54 | 51.76564 | 8.67230 | 79° | 55km/h | 5590m | -5.6m/s | -11.7°C | 4% | 511.3hPa | 2.7V | 07:56:15 | 02:51:03 | 00:00:00 | |
| BIOWL1-15 | 2026-08-30 13:08:52 | 51.76555 | 8.67163 | 75° | 57km/h | 5606m | -5.4m/s | -11.7°C | 3.7% | 510.3hPa | 2.5V | 07:56:15 | 02:51:00 | 00:00:00 | |
| DO2JMG | 2026-08-30 13:08:50 | 51.76551 | 8.67141 | 73° | 55km/h | 5612m | -5.6m/s | -11.8°C | 3.9% | 509.8hPa | 2.6V | 07:56:15 | 02:50:59 | 00:00:00 | |
| DD8BA-10 | 2026-08-30 13:08:49 | 51.76547 | 8.67120 | 74° | 53km/h | 5617m | -5.4m/s | -11.8°C | 5.0% | 509.4hPa | 2.6V | 00:00:00 | 00:00:00 | 00:00:00 | |
| DM0DOS-11 | 2026-08-30 13:08:48 | 51.76536 | 8.67056 | 73° | 57km/h | 5634m | -5.6m/s | -11.9°C | 5% | 508.4hPa | 2.7V | 07:56:11 | 02:50:55 | 00:00:00 | |
| DL1XH-west | 2026-08-30 13:08:48 | 51.76543 | 8.67099 | 75° | 53km/h | 5623m | -5.7m/s | -11.8°C | 4% | 509.1hPa | 2.7V | 07:56:15 | 02:50:57 | 00:00:00 | |
| DL3AQ-11 | 2026-08-30 13:08:47 | 51.76540 | 8.67078 | 74° | 55km/h | 5628m | -5.7m/s | -11.9°C | 4.7% | 508.7hPa | 2.5V | 00:00:00 | 00:00:00 | 00:00:00 | |
| DC4HF-4 | 2026-08-30 13:08:45 | 51.76532 | 8.67035 | 72° | 55km/h | 5639m | -5.8m/s | -12.0°C | 4.6% | 508.0hPa | 2.5V | 00:00:00 | 00:00:00 | 00:00:00 | |
| HSKMA3-T | 2026-08-30 13:08:43 | 51.76523 | 8.66993 | 73° | 51km/h | 5651m | -5.5m/s | -12°C | 3.5% | 507.3hPa | 2.5V | 07:56:15 | 02:50:52 | 00:00:00 | |
| BIOWL1-15 | 2026-08-30 13:08:42 | 51.76507 | 8.66893 | 80° | 51km/h | 5679m | -5.7m/s | -12.3°C | 3.5% | 505.3hPa | 2.6V | 07:57:06 | 02:50:47 | 00:00:00 | |
| DM0DOS-11 | 2026-08-30 13:08:41 | 51.76503 | 8.66850 | 80° | 55km/h | 5691m | -5.5m/s | -12.4°C | 4.7% | 504.6hPa | 2.6V | 07:56:21 | 02:50:45 | 00:00:00 | |
| DO2KSM | 2026-08-30 13:08:40 | 51.76516 | 8.66953 | 75° | 51km/h | 5662m | -5.8m/s | -12.2°C | 4.3% | 506.5hPa | 2.6V | 07:57:00 | 00:00:00 | 00:00:00 | |
| DL1XH1-15 | 2026-08-30 13:08:39 | 51.76497 | 8.66804 | 77° | 58km/h | 5702m | -5.6m/s | -12.5°C | 4.7% | 503.9hPa | 2.6V | 07:56:23 | 02:50:43 | 00:00:00 | |
| DO2JMG | 2026-08-30 13:08:39 | 51.76510 | 8.66913 | 77° | 49km/h | 5674m | -5.9m/s | -12.2°C | 3.5% | 505.7hPa | 2.7V | 07:57:06 | 02:50:48 | 00:00:00 | |
| DL1XH-west | 2026-08-30 13:08:37 | 51.76505 | 8.66872 | 82° | 53km/h | 5685m | -5.6m/s | -12.4°C | 3.4% | 504.9hPa | 2.6V | 07:57:06 | 02:50:46 | 00:00:00 | |
| HSKMA3-T | 2026-08-30 13:08:33 | 51.76494 | 8.66781 | 75° | 58km/h | 5707m | -5.6m/s | -12.6°C | 3.6% | 503.5hPa | 2.6V | 07:57:06 | 02:50:42 | 00:00:00 | |
| DJ2DS-15 | 2026-08-30 13:08:32 | 51.76490 | 8.66758 | 74° | 53km/h | 5713m | -5.5m/s | -12.6°C | 4.7% | 503.0hPa | 2.6V | 00:00:00 | 02:50:41 | 00:00:00 | |
| DM0DOS-11 | 2026-08-30 13:08:31 | 51.76470 | 8.66633 | 76° | 51km/h | 5747m | -5.7m/s | -12.9°C | 4.9% | 500.9hPa | 2.6V | 07:56:31 | 02:50:35 | 00:00:00 | |
| BIOWL1-15 | 2026-08-30 13:08:29 | 51.76479 | 8.66695 | 76° | 53km/h | 5730m | -5.7m/s | -12.8°C | 3.7% | 502hPa | 2.6V | 07:57:06 | 02:50:38 | 00:00:00 | |
| DO2JMG | 2026-08-30 13:08:28 | 51.76476 | 8.66674 | 77° | 53km/h | 5735m | -5.7m/s | -12.8°C | 3.8% | 501.7hPa | 2.5V | 07:57:06 | 02:50:37 | 00:00:00 | |
| DL1XH1-15 | 2026-08-30 13:08:26 | 51.76464 | 8.66593 | 79° | 51km/h | 5758m | -5.7m/s | -13°C | 4.9% | 500.1hPa | 2.6V | 07:56:33 | 02:50:33 | 00:00:00 | |
| DL1XH-west | 2026-08-30 13:08:26 | 51.76470 | 8.66633 | 76° | 51km/h | 5747m | -5.7m/s | -12.9°C | 3.9% | 500.9hPa | 2.6V | 07:57:06 | 02:50:35 | 00:00:00 | |
| HSKMA3-T | 2026-08-30 13:08:22 | 51.76460 | 8.66551 | 79° | 55km/h | 5770m | -5.6m/s | -13.1°C | 3.9% | 499.4hPa | 2.5V | 07:57:06 | 02:50:31 | 00:00:00 | |
| BIOWL1-15 | 2026-08-30 13:08:21 | 51.76451 | 8.66486 | 78° | 53km/h | 5786m | -5.7m/s | -13.3°C | 4% | 498.3hPa | 2.6V | 07:57:06 | 02:50:28 | 00:00:00 | |
| DL1XH1-15 | 2026-08-30 13:08:19 | 51.76435 | 8.66374 | 73° | 55km/h | 5815m | -5.9m/s | -13.5°C | 5.2% | 496.4hPa | 2.5V | 07:56:43 | 02:50:23 | 00:00:00 | |
| DO2JMG | 2026-08-30 13:08:17 | 51.76446 | 8.66442 | 79° | 57km/h | 5798m | -5.7m/s | -13.4°C | 4.2% | 497.5hPa | 2.6V | 07:57:06 | 02:50:26 | 00:00:00 | |
| DL1XH-west | 2026-08-30 13:08:15 | 51.76439 | 8.66396 | 75° | 57km/h | 5809m | -5.8m/s | -13.5°C | 4.2% | 496.8hPa | 2.5V | 07:57:06 | 02:50:24 | 00:00:00 | |
| HSKMA3-T | 2026-08-30 13:08:11 | 51.76425 | 8.66312 | 76° | 51km/h | 5832m | -6.1m/s | -13.6°C | 4.5% | 495.3hPa | 2.6V | 07:57:06 | 02:50:20 | 00:00:00 | |
| DO2KSM | 2026-08-30 13:08:10 | 51.76425 | 8.66312 | 77° | 51km/h | 5832m | -6.1m/s | -13.6°C | 4.9% | 495.3hPa | 2.5V | 07:57:00 | 00:00:00 | 00:00:00 | |
| DD8BA-10 | 2026-08-30 13:08:09 | 51.76418 | 8.66271 | 77° | 55km/h | 5844m | -5.6m/s | -13.6°C | 5.4% | 494.5hPa | 2.5V | 00:00:00 | 00:00:00 | 00:00:00 | |
| DL3AQ-11 | 2026-08-30 13:08:07 | 51.76413 | 8.66229 | 77° | 53km/h | 5855m | -5.7m/s | -13.8°C | 5.0% | 493.8hPa | 2.5V | 00:00:00 | 00:00:00 | 00:00:00 | |
| DL1XH1-15 | 2026-08-30 13:08:06 | 51.76405 | 8.66165 | 79° | 55km/h | 5873m | -5.8m/s | -13.9°C | 5.3% | 492.6hPa | 2.5V | 07:56:53 | 02:50:13 | 00:00:00 | |
| DO2JMG | 2026-08-30 13:08:06 | 51.76410 | 8.66208 | 78° | 53km/h | 5861m | -5.8m/s | -13.8°C | 4.6% | 493.3hPa | 2.6V | 07:57:06 | 02:50:15 | 00:00:00 | |
| DL1XH-west | 2026-08-30 13:08:05 | 51.76407 | 8.66187 | 79° | 53km/h | 5867m | -5.9m/s | -13.9°C | 4.6% | 493hPa | 2.6V | 07:57:06 | 02:50:14 | 00:00:00 | |
| DB0NH | 2026-08-30 13:08:04 | 51.76405 | 8.66165 | 80° | 57km/h | 5873m | -5.8m/s | -13.9°C | 5.3% | 492.6hPa | 2.6V | 07:56:00 | 02:50:13 | 00:00:00 | |
| DL1NUX | 2026-08-30 13:08:02 | 51.76390 | 8.66055 | 75° | 55km/h | 5902m | -5.8m/s | -14.2°C | 5.5% | 490.8hPa | 2.6V | 07:56:58 | 02:50:08 | 00:00:00 | |
| DM0DOS-11 | 2026-08-30 13:08:01 | 51.76378 | 8.65989 | 71° | 55km/h | 5918m | -5.7m/s | -14.3°C | 5.5% | 489.7hPa | 2.6V | 07:57:01 | 02:50:05 | 00:00:00 | |
| HSKMA3-T | 2026-08-30 13:08:00 | 51.76393 | 8.66077 | 76° | 55km/h | 5896m | -5.8m/s | -14.1°C | 4.9% | 491.2hPa | 2.6V | 07:57:06 | 02:50:09 | 00:00:00 | |
| DL1ZP-14 | 2026-08-30 13:08:00 | 51.76393 | 8.66077 | 75° | 53km/h | 5895m | -5.8m/s | -14.1°C | 5.1% | 491.2hPa | 2.6V | 00:00:00 | 00:00:00 | 00:00:00 | |
| DL1XH1-15 | 2026-08-30 13:07:59 | 51.76369 | 8.65947 | 72° | 53km/h | 5930m | -5.6m/s | -14.4°C | 5.6% | 488.9hPa | 2.6V | 07:57:03 | 02:50:03 | 00:00:00 | |
| DO2JMG | 2026-08-30 13:07:55 | 51.76374 | 8.65968 | 71° | 55km/h | 5924m | -5.8m/s | -14.4°C | 4.8% | 489.3hPa | 2.6V | 07:57:06 | 02:50:04 | 00:00:00 | |
| DL1XH-west | 2026-08-30 13:07:54 | 51.76369 | 8.65947 | 72° | 53km/h | 5930m | -5.6m/s | -14.4°C | 4.9% | 488.9hPa | 2.6V | 07:57:06 | 02:50:03 | 00:00:00 | |
| DD1CC1-15 | 2026-08-30 13:07:53 | 51.76369 | 8.65947 | 73° | 53km/h | 5930m | -5.6m/s | -14.4°C | 5.2% | 488.9hPa | 2.5V | 07:57:00 | 00:00:00 | 00:00:00 | |
| DJ2DS-15 | 2026-08-30 13:07:52 | 51.76362 | 8.65906 | 76° | 58km/h | 5941m | -5.6m/s | -14.5°C | 5.5% | 488.2hPa | 2.5V | 00:00:00 | 02:50:01 | 00:00:00 | |
| DM0DOS-11 | 2026-08-30 13:07:51 | 51.76342 | 8.65771 | 77° | 58km/h | 5975m | -5.8m/s | -14.8°C | 4.7% | 486hPa | 2.5V | 07:57:11 | 02:49:55 | 00:00:00 | |
| HSKMA3-T | 2026-08-30 13:07:50 | 51.76355 | 8.65861 | 76° | 57km/h | 5952m | -5.6m/s | -14.7°C | 4.5% | 487.5hPa | 2.6V | 07:57:57 | 02:49:59 | 00:00:00 | |
| BIOWL1-15 | 2026-08-30 13:07:49 | 51.76345 | 8.65794 | 78° | 57km/h | 5969m | -5.9m/s | -14.8°C | 3.8% | 486.4hPa | 2.5V | 07:57:57 | 02:49:56 | 00:00:00 | |
| DO2JMG | 2026-08-30 13:07:45 | 51.76339 | 8.65748 | 78° | 58km/h | 5980m | -5.9m/s | -14.8°C | 3.6% | 485.6hPa | 2.6V | 07:57:57 | 02:49:54 | 00:00:00 | |
| DL1XH-west | 2026-08-30 13:07:44 | 51.76336 | 8.65724 | 79° | 58km/h | 5986m | -5.8m/s | -14.9°C | 3.4% | 485.2hPa | 2.6V | 07:57:57 | 02:49:53 | 00:00:00 | |
| DL4XJ-10 | 2026-08-30 13:07:44 | 51.76336 | 8.65724 | 79° | 60km/h | 5987m | -5.8m/s | -14.2°C | 0% | 0hPa | 2.5V | 00:00:00 | 00:00:00 | 00:00:00 | |
| DO9LL-15 | 2026-08-30 13:07:43 | 51.76333 | 8.65701 | 80° | 60km/h | 5992m | -5.8m/s | -14.9°C | 4.6% | 484.9hPa | 2.5V | 00:00:00 | 02:49:52 | 00:00:00 | |
| DO3DL | 2026-08-30 13:07:42 | 51.76333 | 8.65701 | 80° | 58km/h | 5992m | -5.9m/s | -14.9°C | 4.3% | 484.9hPa | 2.5V | 07:57:00 | 00:00:00 | 00:00:00 | |
| DM0DOS-11 | 2026-08-30 13:07:41 | 51.76311 | 8.65534 | 78° | 57km/h | 6034m | -5.8m/s | -15.2°C | 5.1% | 482.2hPa | 2.5V | 07:57:21 | 02:49:45 | 00:00:00 | |
| DD1CC8 | 2026-08-30 13:07:41 | 51.76328 | 8.65653 | 79° | 62km/h | 6004m | -6.2m/s | -15.0°C | 4.4% | 484.1hPa | 2.6V | 00:00:00 | 00:00:00 | 00:00:00 | |
| DL1XH1-15 | 2026-08-30 13:07:39 | 51.76306 | 8.65486 | 79° | 62km/h | 6045m | -5.9m/s | -15.3°C | 5.4% | 481.5hPa | 2.6V | 07:57:23 | 02:49:43 | 00:00:00 | |
| HSKMA3-T | 2026-08-30 13:07:39 | 51.76321 | 8.65603 | 77° | 60km/h | 6016m | -6m/s | -15.1°C | 4.1% | 483.3hPa | 2.6V | 07:57:57 | 02:49:48 | 00:00:00 | |
| DO2JMG | 2026-08-30 13:07:35 | 51.76309 | 8.65510 | 79° | 58km/h | 6039m | -5.8m/s | -15.3°C | 4.5% | 481.9hPa | 2.6V | 07:57:57 | 02:49:44 | 00:00:00 | |
| DB0NH | 2026-08-30 13:07:34 | 51.76306 | 8.65486 | 80° | 64km/h | 6045m | -5.9m/s | -15.3°C | 5.4% | 481.4hPa | 2.6V | 00:00:00 | 02:49:43 | 00:00:00 | |
| DL1XH-west | 2026-08-30 13:07:34 | 51.76306 | 8.65486 | 79° | 62km/h | 6045m | -5.9m/s | -15.3°C | 4.7% | 481.5hPa | 2.6V | 07:57:57 | 02:49:43 | 00:00:00 | |
| DC4HF-4 | 2026-08-30 13:07:33 | 51.76303 | 8.65461 | 77° | 62km/h | 6051m | -5.7m/s | -15.4°C | 5.0% | 481.1hPa | 2.5V | 00:00:00 | 00:00:00 | 00:00:00 | |
| DJ2DS-15 | 2026-08-30 13:07:32 | 51.76299 | 8.65436 | 76° | 62km/h | 6057m | -5.9m/s | -15.4°C | 5.5% | 480.7hPa | 2.5V | 00:00:00 | 02:49:41 | 00:00:00 | |
| DM0DOS-11 | 2026-08-30 13:07:31 | 51.76278 | 8.65293 | 78° | 62km/h | 6092m | -5.8m/s | -15.8°C | 5.9% | 478.6hPa | 2.5V | 07:57:31 | 02:49:35 | 00:00:00 | |
| HSKMA3-T | 2026-08-30 13:07:28 | 51.76284 | 8.65342 | 79° | 58km/h | 6080m | -5.9m/s | -15.7°C | 5.1% | 479.3hPa | 2.6V | 07:57:57 | 02:49:37 | 00:00:00 | |
| BIOWL7-15 | 2026-08-30 13:07:27 | 51.76284 | 8.65342 | 80° | 58km/h | 6080m | -5.9m/s | -15.7°C | 5.3% | 479.3hPa | 2.6V | 00:00:00 | 00:00:00 | 00:00:00 | |
| DL1XH1-15 | 2026-08-30 13:07:26 | 51.76271 | 8.65244 | 77° | 62km/h | 6103m | -6m/s | -15.9°C | 6.2% | 477.8hPa | 2.6V | 07:57:33 | 02:49:33 | 00:00:00 | |
| DB0DAN | 2026-08-30 13:07:25 | 51.76275 | 8.65269 | 77° | 58km/h | 6098m | -5.8m/s | -15.8°C | 5.6% | 478.18hPa | 2.6V | 00:00:00 | 00:00:00 | 00:00:00 | |
| DO2JMG | 2026-08-30 13:07:24 | 51.76271 | 8.65244 | 77° | 62km/h | 6103m | -6.1m/s | -15.9°C | 5.8% | 477.8hPa | 2.6V | 07:57:57 | 02:49:33 | 00:00:00 | |
| DL1XH-west | 2026-08-30 13:07:23 | 51.76268 | 8.65219 | 78° | 64km/h | 6109m | -6.2m/s | -16°C | 5.9% | 477.4hPa | 2.6V | 07:57:57 | 02:49:32 | 00:00:00 | |
| DO3DL | 2026-08-30 13:07:22 | 51.76268 | 8.65219 | 79° | 64km/h | 6109m | -6.2m/s | -16.0°C | 5.8% | 477.4hPa | 2.5V | 07:57:00 | 00:00:00 | 00:00:00 | |
| DM0DOS-11 | 2026-08-30 13:07:21 | 51.76245 | 8.65046 | 80° | 60km/h | 6151m | -5.7m/s | -16.2°C | 7.5% | 474.8hPa | 2.5V | 07:57:41 | 02:49:25 | 00:00:00 | |
| DL1XH1-15 | 2026-08-30 13:07:19 | 51.76242 | 8.64997 | 87° | 62km/h | 6162m | -5.7m/s | -16.4°C | 8% | 474hPa | 2.6V | 07:57:43 | 02:49:23 | 00:00:00 | |
| HSKMA3-T | 2026-08-30 13:07:17 | 51.76248 | 8.65070 | 80° | 60km/h | 6145m | -5.6m/s | -16.2°C | 7.3% | 475.2hPa | 2.5V | 07:57:57 | 02:49:26 | 00:00:00 | |
| DO2JMG | 2026-08-30 13:07:13 | 51.76242 | 8.64972 | 87° | 64km/h | 6168m | -6.1m/s | -16.4°C | 8.3% | 473.6hPa | 2.6V | 07:57:57 | 02:49:22 | 00:00:00 | |
| DL1XH-west | 2026-08-30 13:07:12 | 51.76241 | 8.64945 | 87° | 68km/h | 6174m | -6.1m/s | -16.5°C | 8.5% | 473.3hPa | 2.5V | 07:57:57 | 02:49:21 | 00:00:00 | |
| DJ2DS-15 | 2026-08-30 13:07:12 | 51.76241 | 8.64945 | 87° | 68km/h | 6174m | -6.0m/s | -16.4°C | 8.2% | 473.2hPa | 2.5V | 00:00:00 | 02:49:21 | 00:00:00 | |
| DM0DOS-11 | 2026-08-30 13:07:11 | 51.76223 | 8.64771 | 73° | 71km/h | 6209m | -5.8m/s | -16.7°C | 9.6% | 471hPa | 2.5V | 07:57:51 | 02:49:15 | 00:00:00 | |
| DB0DAN | 2026-08-30 13:07:10 | 51.76238 | 8.64888 | 84° | 68km/h | 6186m | -5.9m/s | -16.5°C | 8.4% | 472.58hPa | 2.6V | 00:00:00 | 00:00:00 | 00:00:00 | |
| HSKMA3-T | 2026-08-30 13:07:07 | 51.76228 | 8.64799 | 76° | 73km/h | 6203m | -5.9m/s | -16.7°C | 10.3% | 471.4hPa | 2.5V | 07:57:57 | 02:49:16 | 00:00:00 | |
| DL1XH1-15 | 2026-08-30 13:07:06 | 51.76213 | 8.64717 | 73° | 66km/h | 6221m | -6.1m/s | -16.8°C | 9.8% | 470.3hPa | 2.6V | 07:57:53 | 02:49:13 | 00:00:00 | |
| BIOWL1-15 | 2026-08-30 13:07:03 | 51.76202 | 8.64644 | 80° | 60km/h | 6238m | -5.8m/s | -16.9°C | 11.6% | 469.3hPa | 2.5V | 07:57:57 | 02:49:10 | 00:00:00 | |
| DO2JMG | 2026-08-30 13:07:03 | 51.76208 | 8.64692 | 75° | 64km/h | 6227m | -5.8m/s | -16.8°C | 10.9% | 470hPa | 2.6V | 07:57:57 | 02:49:12 | 00:00:00 | |
| DL1XH-west | 2026-08-30 13:07:02 | 51.76205 | 8.64668 | 77° | 60km/h | 6233m | -5.8m/s | -16.9°C | 11.3% | 469.6hPa | 2.5V | 07:57:57 | 02:49:11 | 00:00:00 | |
| DM0DOS-11 | 2026-08-30 13:07:01 | 51.76192 | 8.64512 | 81° | 71km/h | 6267m | -5.7m/s | -17°C | 11.4% | 467.5hPa | 2.5V | 07:58:01 | 02:49:05 | 00:00:00 | |
| HSKMA3-T | 2026-08-30 13:06:56 | 51.76192 | 8.64512 | 82° | 71km/h | 6267m | -5.7m/s | -17°C | 12.6% | 467.5hPa | 2.5V | 07:58:48 | 02:49:05 | 00:00:00 | |
| BIOWL1-15 | 2026-08-30 13:06:53 | 51.76170 | 8.64310 | 81° | 71km/h | 6306m | -5.8m/s | -17.1°C | 14.8% | 465hPa | 2.5V | 07:58:48 | 02:48:58 | 00:00:00 | |
| DO2JMG | 2026-08-30 13:06:52 | 51.76179 | 8.64395 | 78° | 71km/h | 6289m | -5.6m/s | -17.1°C | 14.7% | 466.1hPa | 2.6V | 07:58:48 | 02:49:01 | 00:00:00 | |
| DM0DOS-11 | 2026-08-30 13:06:51 | 51.76159 | 8.64197 | 83° | 69km/h | 6329m | -5.9m/s | -17.2°C | 16.3% | 463.6hPa | 2.6V | 07:58:12 | 02:48:54 | 00:00:00 | |
| BIOWL9-15 | 2026-08-30 13:06:50 | 51.76172 | 8.64339 | 80° | 69km/h | 6301m | -5.8m/s | -17.1°C | 12.1% | 465.4hPa | 2.5V | 00:00:00 | 00:00:00 | 00:00:00 | |
| DL3AQ-11 | 2026-08-30 13:06:48 | 51.76164 | 8.64253 | 81° | 69km/h | 6318m | -5.7m/s | -17.1°C | 13.9% | 464.2hPa | 2.5V | 00:00:00 | 00:00:00 | 00:00:00 | |
| DO2KSM | 2026-08-30 13:06:47 | 51.76167 | 8.64281 | 82° | 71km/h | 6312m | -5.8m/s | -17.1°C | 13.3% | 464.7hPa | 2.5V | 07:58:00 | 00:00:00 | 00:00:00 | |
| DL1XH1-15 | 2026-08-30 13:06:46 | 51.76158 | 8.64168 | 84° | 71km/h | 6336m | -6.1m/s | -17.2°C | 18.6% | 463.2hPa | 2.5V | 07:58:13 | 02:48:53 | 00:00:00 | |
| HSKMA3-T | 2026-08-30 13:06:46 | 51.76162 | 8.64225 | 83° | 69km/h | 6324m | -6m/s | -17.2°C | 17.3% | 463.9hPa | 2.6V | 07:58:48 | 02:48:55 | 00:00:00 | |
| DO2JMG | 2026-08-30 13:06:42 | 51.76154 | 8.64109 | 82° | 75km/h | 6347m | -5.7m/s | -17.3°C | 23.5% | 462.4hPa | 2.5V | 07:58:48 | 02:48:51 | 00:00:00 | |
| BIOWL1-15 | 2026-08-30 13:06:42 | 51.76142 | 8.63988 | 81° | 73km/h | 6370m | -5.8m/s | -17.4°C | 23.7% | 461.1hPa | 2.5V | 07:58:48 | 02:48:47 | 00:00:00 | |
| DM0DOS-11 | 2026-08-30 13:06:40 | 51.76136 | 8.63927 | 81° | 77km/h | 6381m | -6m/s | -17.5°C | 21% | 460.4hPa | 2.6V | 07:58:21 | 02:48:45 | 00:00:00 | |
| DL4XJ-10 | 2026-08-30 13:06:40 | 51.76148 | 8.64047 | 81° | 77km/h | 6358m | -5.5m/s | -16.7°C | 0% | 0hPa | 2.6V | 00:00:00 | 00:00:00 | 00:00:00 | |
| DL1XH1-15 | 2026-08-30 13:06:39 | 51.76130 | 8.63866 | 80° | 75km/h | 6393m | -5.8m/s | -17.6°C | 21.1% | 459.6hPa | 2.6V | 07:58:23 | 02:48:43 | 00:00:00 | |
| DD8BA-10 | 2026-08-30 13:06:39 | 51.76145 | 8.64017 | 81° | 75km/h | 6364m | -5.7m/s | -17.3°C | 21.1% | 461.4hPa | 2.6V | 00:00:00 | 00:00:00 | 00:00:00 | |
| DL1XH-15 | 2026-08-30 13:06:38 | 51.76133 | 8.63897 | 80° | 77km/h | 6387m | -6m/s | -17.5°C | 21% | 460hPa | 2.6V | 07:58:22 | 02:48:44 | 00:00:00 | |
| HSKMA3-T | 2026-08-30 13:06:36 | 51.76136 | 8.63927 | 82° | 77km/h | 6381m | -6m/s | -17.5°C | 23.8% | 460.4hPa | 2.6V | 07:58:48 | 02:48:45 | 00:00:00 | |
| DO2JMG | 2026-08-30 13:06:32 | 51.76125 | 8.63807 | 83° | 73km/h | 6405m | -5.7m/s | -17.7°C | 24% | 458.9hPa | 2.5V | 07:58:48 | 02:48:41 | 00:00:00 | |
| DL1XH-west | 2026-08-30 13:06:31 | 51.76123 | 8.63777 | 84° | 73km/h | 6410m | -5.7m/s | -17.7°C | 24.2% | 458.6hPa | 2.5V | 07:58:48 | 02:48:40 | 00:00:00 | |
| BIOWL1-15 | 2026-08-30 13:06:29 | 51.76119 | 8.63717 | 84° | 75km/h | 6422m | -6.1m/s | -17.8°C | 24.2% | 457.8hPa | 2.6V | 07:58:48 | 02:48:38 | 00:00:00 | |
| DD8BA-10 | 2026-08-30 13:06:29 | 51.76119 | 8.63717 | 85° | 78km/h | 6422m | -6.1m/s | -17.8°C | 21.4% | 457.8hPa | 2.5V | 07:58:00 | 00:00:00 | 00:00:00 | |
| DL1XH-15 | 2026-08-30 13:06:28 | 51.76112 | 8.63593 | 84° | 78km/h | 6446m | -5.9m/s | -18°C | 21.7% | 456.4hPa | 2.5V | 07:58:32 | 02:48:34 | 00:00:00 | |
| HSKMA3-T | 2026-08-30 13:06:26 | 51.76114 | 8.63624 | 85° | 77km/h | 6440m | -6m/s | -18°C | 24.4% | 456.7hPa | 2.6V | 07:58:48 | 02:48:35 | 00:00:00 | |
| DO2JMG | 2026-08-30 13:06:21 | 51.76104 | 8.63465 | 83° | 80km/h | 6469m | -5.9m/s | -18.2°C | 25.5% | 454.9hPa | 2.6V | 07:58:48 | 02:48:30 | 00:00:00 | |
| DM0DOS-11 | 2026-08-30 13:06:20 | 51.76095 | 8.63306 | 86° | 78km/h | 6498m | -6.1m/s | -18.4°C | 29.6% | 453.2hPa | 2.5V | 07:58:41 | 02:48:25 | 00:00:00 | |
| DL4XJ-10 | 2026-08-30 13:06:20 | 51.76102 | 8.63432 | 83° | 82km/h | 6475m | -5.6m/s | -17.6°C | 0% | 0hPa | 2.6V | 00:00:00 | 00:00:00 | 00:00:00 | |
| DL1XH1-15 | 2026-08-30 13:06:19 | 51.76093 | 8.63241 | 87° | 82km/h | 6510m | -6.1m/s | -18.5°C | 31.2% | 452.4hPa | 2.6V | 07:58:43 | 02:48:23 | 00:00:00 | |
| BIOWL1-15 | 2026-08-30 13:06:18 | 51.76097 | 8.63338 | 86° | 78km/h | 6492m | -5.9m/s | -18.4°C | 29.7% | 453.5hPa | 2.5V | 07:58:48 | 02:48:26 | 00:00:00 | |
| HSKMA3-T | 2026-08-30 13:06:15 | 51.76094 | 8.63274 | 87° | 80km/h | 6504m | -6m/s | -18.5°C | 33.6% | 452.8hPa | 2.6V | 07:58:48 | 02:48:24 | 00:00:00 | |
| DL1NUX | 2026-08-30 13:06:14 | 51.76083 | 8.63072 | 82° | 82km/h | 6540m | -5.8m/s | -18.7°C | 43.5% | 450.7hPa | 2.5V | 07:58:48 | 02:48:18 | 00:00:00 | |
| DB0UT-7 | 2026-08-30 13:06:13 | 51.76092 | 8.63207 | 86° | 84km/h | 6516m | -6.0m/s | -18.5°C | 32.7% | 452.0hPa | 2.6V | 00:00:00 | 00:00:00 | 00:00:00 | |
| DJ2DS-15 | 2026-08-30 13:06:12 | 51.76090 | 8.63173 | 85° | 84km/h | 6522m | -6.0m/s | -18.5°C | 36.7% | 451.7hPa | 2.6V | 00:00:00 | 02:48:21 | 00:00:00 | |
| DD1CC1-15 | 2026-08-30 13:06:11 | 51.76090 | 8.63173 | 85° | 84km/h | 6522m | -6.0m/s | -18.6°C | 35.1% | 451.7hPa | 2.6V | 07:58:00 | 00:00:00 | 00:00:00 | |
| DM0DOS-11 | 2026-08-30 13:06:10 | 51.76076 | 8.62972 | 83° | 82km/h | 6557m | -6m/s | -18.8°C | 45.9% | 449.6hPa | 2.6V | 07:58:51 | 02:48:15 | 00:00:00 | |
| DO2JMG | 2026-08-30 13:06:10 | 51.76085 | 8.63105 | 82° | 82km/h | 6534m | -5.8m/s | -18.7°C | 44.6% | 451hPa | 2.5V | 07:58:48 | 02:48:19 | 00:00:00 | |
| DB0DAN | 2026-08-30 13:06:10 | 51.76085 | 8.63105 | 82° | 78km/h | 6534m | -5.8m/s | -18.7°C | 40.1% | 451.03hPa | 2.5V | 00:00:00 | 00:00:00 | 00:00:00 | |
| BIOWL1-15 | 2026-08-30 13:06:08 | 51.76080 | 8.63039 | 84° | 82km/h | 6546m | -6.1m/s | -18.8°C | 47.1% | 450.4hPa | 2.6V | 07:59:39 | 02:48:17 | 00:00:00 | |
| DD1CC8 | 2026-08-30 13:06:08 | 51.76078 | 8.63006 | 83° | 82km/h | 6552m | -5.7m/s | -18.8°C | 43.6% | 450.0hPa | 2.6V | 00:00:00 | 00:00:00 | 00:00:00 | |
| SO1NDE-10 | 2026-08-30 13:06:07 | 51.76078 | 8.63006 | 84° | 84km/h | 6552m | -5.7m/s | -18.7°C | 45.4% | 450.0hPa | 2.6V | 00:00:00 | 02:48:16 | 00:00:00 | |
| DO2KSM | 2026-08-30 13:06:05 | 51.76076 | 8.62972 | 85° | 82km/h | 6557m | -6.0m/s | -18.8°C | 44.1% | 449.6hPa | 2.6V | 07:59:00 | 00:00:00 | 00:00:00 | |
| DL1NUX | 2026-08-30 13:06:04 | 51.76058 | 8.62735 | 82° | 84km/h | 6598m | -6.1m/s | -19.1°C | 38.6% | 447.2hPa | 2.6V | 07:58:58 | 02:48:08 | 00:00:00 | |
| HSKMA3-T | 2026-08-30 13:06:04 | 51.76071 | 8.62905 | 84° | 82km/h | 6569m | -5.8m/s | -19°C | 46.7% | 448.9hPa | 2.5V | 07:59:39 | 02:48:13 | 00:00:00 | |
| DO2JMG | 2026-08-30 13:05:59 | 51.76058 | 8.62735 | 82° | 84km/h | 6598m | -6.1m/s | -19.1°C | 41.5% | 447.2hPa | 2.6V | 07:59:39 | 02:48:08 | 00:00:00 | |
| BIOWL1-15 | 2026-08-30 13:05:57 | 51.76050 | 8.62635 | 84° | 84km/h | 6616m | -6m/s | -19.2°C | 52.9% | 446.1hPa | 2.5V | 07:59:39 | 02:48:05 | 00:00:00 | |
| DL1XH-15 | 2026-08-30 13:05:57 | 51.76050 | 8.62635 | 83° | 84km/h | 6616m | -6m/s | -19.2°C | 50.8% | 446hPa | 2.5V | 07:59:01 | 02:48:05 | 00:00:00 | |
| DL1ZP-14 | 2026-08-30 13:05:56 | 51.76048 | 8.62600 | 83° | 84km/h | 6622m | -6.0m/s | -19.3°C | 49.1% | 445.7hPa | 2.5V | 00:00:00 | 00:00:00 | 00:00:00 | |
| DB0DAN | 2026-08-30 13:05:55 | 51.76048 | 8.62600 | 83° | 80km/h | 6622m | -6m/s | -19.3°C | 49.1% | 445.72hPa | 2.5V | 00:00:00 | 00:00:00 | 00:00:00 | |
| HSKMA3-T | 2026-08-30 13:05:54 | 51.76046 | 8.62566 | 83° | 86km/h | 6628m | -5.8m/s | -19.3°C | 53.1% | 445.4hPa | 2.6V | 07:59:39 | 02:48:03 | 00:00:00 | |
| DO2JMG | 2026-08-30 13:05:49 | 51.76033 | 8.62391 | 82° | 88km/h | 6657m | -5.8m/s | -19.5°C | 53.8% | 443.6hPa | 2.5V | 07:59:39 | 02:47:58 | 00:00:00 | |
| BIOWL1-15 | 2026-08-30 13:05:48 | 51.76024 | 8.62288 | 82° | 84km/h | 6675m | -6.2m/s | -19.6°C | 50.3% | 442.5hPa | 2.6V | 07:59:39 | 02:47:55 | 00:00:00 | |
| DL1XH-west | 2026-08-30 13:05:48 | 51.76030 | 8.62356 | 82° | 86km/h | 6663m | -5.9m/s | -19.6°C | 54.2% | 443.2hPa | 2.5V | 07:59:39 | 02:47:57 | 00:00:00 | |
| DL1XH-15 | 2026-08-30 13:05:47 | 51.76024 | 8.62288 | 82° | 84km/h | 6675m | -6.2m/s | -19.6°C | 48.1% | 442.5hPa | 2.6V | 07:59:11 | 02:47:55 | 00:00:00 | |
| DL1XH1-15 | 2026-08-30 13:05:46 | 51.76018 | 8.62220 | 80° | 84km/h | 6687m | -5.8m/s | -19.7°C | 45.8% | 441.8hPa | 2.6V | 07:59:13 | 02:47:53 | 00:00:00 | |
| DC4HF-4 | 2026-08-30 13:05:45 | 51.76021 | 8.62254 | 81° | 84km/h | 6681m | -6.1m/s | -19.7°C | 44.3% | 442.1hPa | 2.6V | 00:00:00 | 00:00:00 | 00:00:00 | |
| DL1NUX | 2026-08-30 13:05:44 | 51.76001 | 8.62050 | 80° | 84km/h | 6716m | -6m/s | -19.9°C | 47% | 440hPa | 2.6V | 07:59:18 | 02:47:48 | 00:00:00 | |
| HSKMA3-T | 2026-08-30 13:05:44 | 51.76018 | 8.62220 | 81° | 84km/h | 6687m | -5.8m/s | -19.7°C | 48% | 441.8hPa | 2.6V | 07:59:39 | 02:47:53 | 00:00:00 | |
| DL3AQ-11 | 2026-08-30 13:05:44 | 51.76015 | 8.62186 | 81° | 84km/h | 6692m | -6.1m/s | -19.8°C | 43.6% | 441.4hPa | 2.5V | 00:00:00 | 00:00:00 | 00:00:00 | |
| DB0UT-7 | 2026-08-30 13:05:43 | 51.76014 | 8.62186 | 82° | 84km/h | 6693m | -6.0m/s | -19.7°C | 45.5% | 441.4hPa | 2.5V | 00:00:00 | 02:47:52 | 00:00:00 | |
| BIOWL7-15 | 2026-08-30 13:05:42 | 51.76015 | 8.62186 | 83° | 84km/h | 6693m | -6.1m/s | -19.8°C | 43.6% | 441.4hPa | 2.6V | 00:00:00 | 00:00:00 | 00:00:00 | |
| DB0DAN | 2026-08-30 13:05:40 | 51.76004 | 8.62084 | 80° | 80km/h | 6710m | -5.8m/s | -19.9°C | 44.7% | 440.37hPa | 2.6V | 00:00:00 | 00:00:00 | 00:00:00 | |
| DL4XJ-10 | 2026-08-30 13:05:40 | 51.76004 | 8.62084 | 81° | 84km/h | 6711m | -5.8m/s | -19.3°C | 0% | 0hPa | 2.5V | 00:00:00 | 00:00:00 | 00:00:00 | |
| DM0DOS-11 | 2026-08-30 13:05:39 | 51.75990 | 8.61948 | 79° | 84km/h | 6734m | -6m/s | -20°C | 40% | 439hPa | 2.5V | 07:59:21 | 02:47:45 | 00:00:00 | |
| DL1XH1-15 | 2026-08-30 13:05:39 | 51.75982 | 8.61880 | 80° | 86km/h | 6746m | -6m/s | -20.1°C | 40.9% | 438.3hPa | 2.5V | 07:59:23 | 02:47:43 | 00:00:00 | |
| DO2JMG | 2026-08-30 13:05:38 | 51.75997 | 8.62016 | 80° | 86km/h | 6722m | -6.1m/s | -20°C | 48.4% | 439.7hPa | 2.6V | 07:59:39 | 02:47:47 | 00:00:00 | |
| DL1XH-west | 2026-08-30 13:05:37 | 51.75993 | 8.61982 | 79° | 86km/h | 6728m | -6.1m/s | -20°C | 45.6% | 439.4hPa | 2.6V | 07:59:39 | 02:47:46 | 00:00:00 | |
| BIOWL1-15 | 2026-08-30 13:05:36 | 51.75989 | 8.61948 | 80° | 84km/h | 6734m | -6m/s | -20°C | 42.6% | 439hPa | 2.5V | 07:59:39 | 02:47:45 | 00:00:00 | |
| DO3DL | 2026-08-30 13:05:35 | 51.75990 | 8.61947 | 81° | 84km/h | 6734m | -6.0m/s | -20.0°C | 38.3% | 439.0hPa | 2.5V | 07:59:00 | 00:00:00 | 00:00:00 | |
| DL1NUX | 2026-08-30 13:05:34 | 51.75963 | 8.61714 | 79° | 80km/h | 6775m | -6m/s | -20.4°C | 42.6% | 436.6hPa | 2.5V | 07:59:28 | 02:47:38 | 00:00:00 | |
| HSKMA3-T | 2026-08-30 13:05:33 | 51.75978 | 8.61846 | 79° | 84km/h | 6752m | -5.9m/s | -20.2°C | 43.8% | 437.9hPa | 2.6V | 07:59:39 | 02:47:42 | 00:00:00 | |
| DB0NH | 2026-08-30 13:05:31 | 51.75971 | 8.61779 | 80° | 86km/h | 6764m | -6.0m/s | -20.2°C | 41.7% | 437.2hPa | 2.6V | 00:00:00 | 02:47:40 | 00:00:00 | |
| DM0DOS-11 | 2026-08-30 13:05:29 | 51.75953 | 8.61615 | 81° | 84km/h | 6793m | -6m/s | -20.5°C | 43.3% | 435.5hPa | 2.6V | 07:59:31 | 02:47:35 | 00:00:00 | |
| BIOWL1-15 | 2026-08-30 13:05:27 | 51.75950 | 8.61581 | 80° | 84km/h | 6799m | -6.1m/s | -20.6°C | 46% | 435.1hPa | 2.6V | 07:59:39 | 02:47:34 | 00:00:00 | |
| DO2JMG | 2026-08-30 13:05:27 | 51.75956 | 8.61648 | 81° | 82km/h | 6788m | -6m/s | -20.5°C | 45.8% | 435.8hPa | 2.5V | 07:59:39 | 02:47:36 | 00:00:00 | |
| DO9LL-15 | 2026-08-30 13:05:27 | 51.75956 | 8.61648 | 82° | 86km/h | 6788m | -5.9m/s | -20.5°C | 43.3% | 435.7hPa | 2.5V | 00:00:00 | 02:47:36 | 00:00:00 | |
| DL1XH1-15 | 2026-08-30 13:05:26 | 51.75946 | 8.61548 | 80° | 84km/h | 6805m | -6.1m/s | -20.7°C | 44.2% | 434.8hPa | 2.6V | 07:59:33 | 02:47:33 | 00:00:00 | |
| DL1XH-west | 2026-08-30 13:05:26 | 51.75953 | 8.61615 | 81° | 84km/h | 6793m | -6m/s | -20.6°C | 45.8% | 435.5hPa | 2.6V | 07:59:39 | 02:47:35 | 00:00:00 | |
| DB0DAN | 2026-08-30 13:05:25 | 51.75950 | 8.61581 | 80° | 80km/h | 6799m | -6.1m/s | -20.6°C | 41.7% | 435.12hPa | 2.6V | 00:00:00 | 00:00:00 | 00:00:00 | |
| DL1ZP-14 | 2026-08-30 13:05:25 | 51.75946 | 8.61548 | 80° | 82km/h | 6805m | -6.1m/s | -20.7°C | 42.3% | 434.8hPa | 2.6V | 00:00:00 | 00:00:00 | 00:00:00 | |
| DL1NUX | 2026-08-30 13:05:24 | 51.75927 | 8.61377 | 79° | 86km/h | 6835m | -6.1m/s | -20.9°C | 42.8% | 433hPa | 2.6V | 07:59:38 | 02:47:28 | 00:00:00 | |
| HSKMA3-T | 2026-08-30 13:05:22 | 51.75939 | 8.61480 | 79° | 86km/h | 6817m | -6.1m/s | -20.8°C | 48.6% | 434.1hPa | 2.5V | 07:59:39 | 02:47:31 | 00:00:00 | |
| DO3DL | 2026-08-30 13:05:21 | 51.75939 | 8.61479 | 80° | 86km/h | 6817m | -6.1m/s | -20.8°C | 44.3% | 434.1hPa | 2.5V | 07:59:00 | 00:00:00 | 00:00:00 | |
| BUE01 | 2026-08-30 13:05:20 | 51.75927 | 8.61377 | 79° | 86km/h | 6835m | -6.1m/s | -20.9°C | 40.9% | 433.0hPa | 2.5V | 00:00:00 | 00:00:00 | 00:00:00 | |
| DM0DOS-11 | 2026-08-30 13:05:19 | 51.75914 | 8.61275 | 78° | 84km/h | 6853m | -5.7m/s | -21°C | 42.8% | 432hPa | 2.5V | 07:59:41 | 02:47:25 | 00:00:00 | |
| DD8BA-10 | 2026-08-30 13:05:19 | 51.75927 | 8.61377 | 80° | 84km/h | 6835m | -6.0m/s | -20.8°C | 42.8% | 433.0hPa | 2.6V | 00:00:00 | 00:00:00 | 00:00:00 | |
| DL1XH-15 | 2026-08-30 13:05:18 | 51.75910 | 8.61241 | 78° | 84km/h | 6859m | -6m/s | -21.1°C | 42.7% | 431.6hPa | 2.6V | 07:59:42 | 02:47:24 | 00:00:00 | |
| BIOWL9-15 | 2026-08-30 13:05:17 | 51.75918 | 8.61308 | 77° | 84km/h | 6847m | -5.8m/s | -21.0°C | 41.0% | 432.3hPa | 2.6V | 00:00:00 | 00:00:00 | 00:00:00 | |
| DO2JMG | 2026-08-30 13:05:17 | 51.75918 | 8.61308 | 78° | 84km/h | 6847m | -5.8m/s | -21°C | 45.4% | 432.3hPa | 2.5V | 08:00:30 | 02:47:26 | 00:00:00 | |
| DL1XH1-15 | 2026-08-30 13:05:16 | 51.75905 | 8.61207 | 78° | 86km/h | 6865m | -6.1m/s | -21.1°C | 41.7% | 431.3hPa | 2.6V | 07:59:43 | 02:47:23 | 00:00:00 | |
| DL1XH-west | 2026-08-30 13:05:15 | 51.75910 | 8.61241 | 78° | 84km/h | 6859m | -6m/s | -21.1°C | 45.3% | 431.6hPa | 2.6V | 08:00:30 | 02:47:24 | 00:00:00 | |
| BIOWL1-15 | 2026-08-30 13:05:14 | 51.75905 | 8.61208 | 79° | 86km/h | 6865m | -6.1m/s | -21.1°C | 44.4% | 431.4hPa | 2.6V | 08:00:30 | 02:47:23 | 00:00:00 | |
| HSKMA3-T | 2026-08-30 13:05:11 | 51.75892 | 8.61106 | 79° | 84km/h | 6883m | -5.8m/s | -21.3°C | 47% | 430.3hPa | 2.5V | 08:00:30 | 02:47:20 | 00:00:00 | |
| DB0DAN | 2026-08-30 13:05:10 | 51.75888 | 8.61072 | 79° | 80km/h | 6889m | -5.9m/s | -21.3°C | 46.4% | 429.94hPa | 2.5V | 00:00:00 | 00:00:00 | 00:00:00 | |
| DO2JMG | 2026-08-30 13:05:07 | 51.75875 | 8.60970 | 78° | 86km/h | 6907m | -5.9m/s | -21.4°C | 62.3% | 428.9hPa | 2.6V | 08:00:30 | 02:47:16 | 00:00:00 | |
| SO1NDE-10 | 2026-08-30 13:05:07 | 51.75875 | 8.60970 | 79° | 86km/h | 6907m | -5.9m/s | -21.4°C | 60.8% | 428.8hPa | 2.6V | 00:00:00 | 02:47:16 | 00:00:00 | |
| DL1XH1-15 | 2026-08-30 13:05:06 | 51.75861 | 8.60865 | 77° | 88km/h | 6925m | -6m/s | -21.6°C | 62.8% | 427.8hPa | 2.5V | 07:59:53 | 02:47:13 | 00:00:00 | |
| DD1CC8 | 2026-08-30 13:05:06 | 51.75865 | 8.60900 | 77° | 88km/h | 6919m | -6.2m/s | -21.5°C | 60.0% | 428.2hPa | 2.5V | 00:00:00 | 00:00:00 | 00:00:00 | |
| DL1NUX | 2026-08-30 13:05:04 | 51.75834 | 8.60689 | 74° | 88km/h | 6955m | -6.2m/s | -21.8°C | 62.7% | 426hPa | 2.5V | 07:59:58 | 02:47:08 | 00:00:00 | |
| BIOWL1-15 | 2026-08-30 13:05:04 | 51.75860 | 8.60865 | 77° | 88km/h | 6925m | -6.1m/s | -21.6°C | 64.3% | 427.8hPa | 2.5V | 08:00:30 | 02:47:13 | 00:00:00 | |
| DL3AQ-11 | 2026-08-30 13:05:03 | 51.75855 | 8.60830 | 77° | 88km/h | 6931m | -5.9m/s | -21.6°C | 61.0% | 427.5hPa | 2.6V | 00:00:00 | 00:00:00 | 00:00:00 | |
| DD1CC2-15 | 2026-08-30 13:05:02 | 51.75856 | 8.60830 | 78° | 88km/h | 6931m | -5.9m/s | -21.6°C | 61.0% | 427.5hPa | 2.6V | 08:00:00 | 00:00:00 | 00:00:00 | |
| DM0DOS-11 | 2026-08-30 13:05:01 | 51.75817 | 8.60589 | 75° | 84km/h | 6974m | -6.2m/s | -22°C | 61.7% | 425hPa | 2.6V | 08:00:01 | 02:47:05 | 00:00:00 | |
| HSKMA3-T | 2026-08-30 13:05:01 | 51.75845 | 8.60760 | 76° | 89km/h | 6943m | -6.2m/s | -21.7°C | 65.1% | 426.7hPa | 2.6V | 08:00:30 | 02:47:10 | 00:00:00 | |
| DB0NH | 2026-08-30 13:05:01 | 51.75845 | 8.60760 | 76° | 86km/h | 6943m | -6.1m/s | -21.7°C | 63.8% | 426.6hPa | 2.6V | 00:00:00 | 02:47:10 | 00:00:00 | |
| DL4XJ-10 | 2026-08-30 13:05:00 | 51.75839 | 8.60724 | 77° | 86km/h | 6949m | -6.1m/s | -21.2°C | 0% | 0hPa | 2.6V | 00:00:00 | 00:00:00 | 00:00:00 | |
| DD8BA-10 | 2026-08-30 13:04:59 | 51.75834 | 8.60689 | 75° | 84km/h | 6956m | -6.1m/s | -21.8°C | 62.7% | 426.0hPa | 2.6V | 00:00:00 | 00:00:00 | 00:00:00 | |
| DO9LL-15 | 2026-08-30 13:04:57 | 51.75822 | 8.60622 | 75° | 84km/h | 6967m | -6.0m/s | -21.8°C | 57.7% | 425.3hPa | 2.6V | 00:00:00 | 02:47:06 | 00:00:00 | |
| DL1XH1-15 | 2026-08-30 13:04:56 | 51.75806 | 8.60524 | 75° | 82km/h | 6986m | -6.5m/s | -22°C | 55.1% | 424.2hPa | 2.6V | 08:00:03 | 02:47:03 | 00:00:00 | |
| DO2JMG | 2026-08-30 13:04:56 | 51.75817 | 8.60589 | 75° | 84km/h | 6974m | -6.2m/s | -22°C | 63.3% | 425hPa | 2.6V | 08:00:30 | 02:47:05 | 00:00:00 | |
| SONCRA | 2026-08-30 13:04:56 | 51.75817 | 8.60589 | 75° | 82km/h | 6974m | -6.2m/s | -22.0°C | 59.2% | 425.0hPa | 2.6V | 00:00:00 | 00:00:00 | 00:00:00 | |
| DL1NUX | 2026-08-30 13:04:54 | 51.75783 | 8.60356 | 76° | 88km/h | 7015m | -6m/s | -22.3°C | 53.4% | 422.6hPa | 2.6V | 08:00:08 | 02:46:58 | 00:00:00 | |
| DL1XH-west | 2026-08-30 13:04:53 | 51.75801 | 8.60491 | 77° | 82km/h | 6992m | -5.9m/s | -22.1°C | 55.5% | 423.8hPa | 2.5V | 08:00:30 | 02:47:02 | 00:00:00 | |
| DL1XH-15 | 2026-08-30 13:04:51 | 51.75792 | 8.60425 | 77° | 86km/h | 7004m | -5.8m/s | -22.1°C | 51.4% | 423.2hPa | 2.5V | 08:00:06 | 02:47:00 | 00:00:00 | |
| HSKMA3-T | 2026-08-30 13:04:50 | 51.75788 | 8.60390 | 78° | 88km/h | 7009m | -5.9m/s | -22.2°C | 53.1% | 422.9hPa | 2.6V | 08:00:30 | 02:46:59 | 00:00:00 | |
| DO2JMG | 2026-08-30 13:04:45 | 51.75761 | 8.60220 | 77° | 84km/h | 7039m | -6.1m/s | -22.5°C | 67.6% | 421.2hPa | 2.6V | 08:00:30 | 02:46:54 | 00:00:00 | |
| DL1XH-15 | 2026-08-30 13:04:44 | 51.75740 | 8.60085 | 75° | 84km/h | 7064m | -5.9m/s | -22.7°C | 67.3% | 419.9hPa | 2.5V | 08:00:16 | 02:46:50 | 00:00:00 | |
| DL1NUX | 2026-08-30 13:04:43 | 51.75724 | 8.59985 | 75° | 84km/h | 7082m | -6.1m/s | -22.9°C | 68.9% | 418.8hPa | 2.6V | 08:00:19 | 02:46:47 | 00:00:00 | |
| DL1XH-west | 2026-08-30 13:04:42 | 51.75745 | 8.60119 | 75° | 84km/h | 7058m | -6.3m/s | -22.6°C | 68.3% | 420.2hPa | 2.5V | 08:00:30 | 02:46:51 | 00:00:00 | |
| BIOWL1-15 | 2026-08-30 13:04:41 | 51.75740 | 8.60085 | 76° | 84km/h | 7064m | -5.9m/s | -22.7°C | 68.3% | 419.9hPa | 2.5V | 08:00:30 | 02:46:50 | 00:00:00 | |
| DB0DAN | 2026-08-30 13:04:40 | 51.75734 | 8.60052 | 76° | 80km/h | 7070m | -6.1m/s | -22.7°C | 65% | 419.51hPa | 2.5V | 00:00:00 | 00:00:00 | 00:00:00 | |
| DD8BA-10 | 2026-08-30 13:04:39 | 51.75729 | 8.60018 | 75° | 84km/h | 7076m | -6.0m/s | -22.7°C | 68.2% | 419.1hPa | 2.6V | 00:00:00 | 00:00:00 | 00:00:00 | |
| HSKMA3-T | 2026-08-30 13:04:39 | 51.75729 | 8.60018 | 75° | 86km/h | 7076m | -6m/s | -22.8°C | 69.1% | 419.2hPa | 2.6V | 08:00:30 | 02:46:48 | 00:00:00 | |
| DL1XH1-15 | 2026-08-30 13:04:36 | 51.75702 | 8.59851 | 74° | 84km/h | 7106m | -6.2m/s | -23°C | 70.4% | 417.4hPa | 2.6V | 08:00:23 | 02:46:43 | 00:00:00 | |
| DL3AQ-11 | 2026-08-30 13:04:35 | 51.75702 | 8.59851 | 74° | 84km/h | 7106m | -6.2m/s | -23.0°C | 67.6% | 417.4hPa | 2.5V | 00:00:00 | 00:00:00 | 00:00:00 | |
| DL1XH-15 | 2026-08-30 13:04:34 | 51.75686 | 8.59752 | 75° | 84km/h | 7124m | -6.2m/s | -23.1°C | 70% | 416.3hPa | 2.5V | 08:00:26 | 02:46:40 | 00:00:00 | |
| DL1NUX | 2026-08-30 13:04:33 | 51.75671 | 8.59653 | 76° | 84km/h | 7142m | -6.2m/s | -23.2°C | 72.7% | 415.4hPa | 2.6V | 08:00:29 | 02:46:37 | 00:00:00 | |
| BIOWL1-15 | 2026-08-30 13:04:31 | 51.75686 | 8.59752 | 76° | 84km/h | 7124m | -6.2m/s | -23.1°C | 70.8% | 416.4hPa | 2.5V | 08:00:30 | 02:46:40 | 00:00:00 | |
| DO2JMG | 2026-08-30 13:04:30 | 51.75681 | 8.59718 | 76° | 84km/h | 7130m | -6.2m/s | -23.2°C | 71.2% | 416.1hPa | 2.5V | 08:00:30 | 02:46:39 | 00:00:00 | |
| DL1XH1-15 | 2026-08-30 13:04:29 | 51.75650 | 8.59520 | 74° | 86km/h | 7167m | -6.2m/s | -23.5°C | 74.6% | 413.9hPa | 2.5V | 08:00:33 | 02:46:33 | 00:00:00 | |
| HSKMA3-T | 2026-08-30 13:04:28 | 51.75671 | 8.59653 | 77° | 84km/h | 7142m | -6.2m/s | -23.2°C | 73.4% | 415.4hPa | 2.6V | 08:00:30 | 02:46:37 | 00:00:00 | |
| DO9LL-15 | 2026-08-30 13:04:27 | 51.75666 | 8.59619 | 77° | 84km/h | 7149m | -6.1m/s | -23.2°C | 73.4% | 414.9hPa | 2.6V | 00:00:00 | 02:46:36 | 00:00:00 | |
| SONCRA | 2026-08-30 13:04:25 | 51.75655 | 8.59553 | 75° | 82km/h | 7161m | -6.1m/s | -23.4°C | 71.4% | 414.3hPa | 2.6V | 00:00:00 | 00:00:00 | 00:00:00 | |
| DL1XH-15 | 2026-08-30 13:04:24 | 51.75632 | 8.59421 | 73° | 82km/h | 7186m | -6.1m/s | -23.6°C | 75.3% | 412.9hPa | 2.6V | 08:00:36 | 02:46:30 | 00:00:00 | |
| DL3AQ-11 | 2026-08-30 13:04:24 | 51.75644 | 8.59486 | 73° | 84km/h | 7173m | -6.4m/s | -23.5°C | 71.7% | 413.6hPa | 2.6V | 00:00:00 | 00:00:00 | 00:00:00 | |
| DL1ZP-14 | 2026-08-30 13:04:23 | 51.75638 | 8.59453 | 73° | 82km/h | 7179m | -6.4m/s | -23.6°C | 72.0% | 413.2hPa | 2.6V | 00:00:00 | 00:00:00 | 00:00:00 | |
| DL1NUX | 2026-08-30 13:04:22 | 51.75613 | 8.59291 | 77° | 84km/h | 7210m | -5.9m/s | -23.8°C | 74.7% | 411.5hPa | 2.6V | 08:00:40 | 02:46:26 | 00:00:00 | |
| DL1XH-west | 2026-08-30 13:04:21 | 51.75632 | 8.59421 | 74° | 82km/h | 7186m | -6.1m/s | -23.6°C | 75.5% | 412.9hPa | 2.6V | 08:01:21 | 02:46:30 | 00:00:00 | |
| DO2JMG | 2026-08-30 13:04:20 | 51.75627 | 8.59389 | 76° | 80km/h | 7192m | -6m/s | -23.7°C | 75.7% | 412.6hPa | 2.5V | 08:01:21 | 02:46:29 | 00:00:00 | |
| HSKMA3-T | 2026-08-30 13:04:17 | 51.75613 | 8.59291 | 78° | 84km/h | 7210m | -5.9m/s | -23.8°C | 74.9% | 411.5hPa | 2.6V | 08:01:21 | 02:46:26 | 00:00:00 | |
| BIOWL9-15 | 2026-08-30 13:04:15 | 51.75603 | 8.59224 | 74° | 84km/h | 7222m | -6.1m/s | -24.0°C | 69.9% | 410.9hPa | 2.6V | 00:00:00 | 00:00:00 | 00:00:00 | |
| DL1XH-15 | 2026-08-30 13:04:14 | 51.75582 | 8.59096 | 76° | 80km/h | 7245m | -6.2m/s | -24.1°C | 72.2% | 409.5hPa | 2.6V | 08:00:46 | 02:46:20 | 00:00:00 | |
| DB0UT-7 | 2026-08-30 13:04:13 | 51.75592 | 8.59159 | 75° | 82km/h | 7234m | -5.7m/s | -24.0°C | 72.8% | 410.2hPa | 2.5V | 00:00:00 | 00:00:00 | 00:00:00 | |
| DL1NUX | 2026-08-30 13:04:12 | 51.75561 | 8.58961 | 74° | 86km/h | 7269m | -6.1m/s | -24.2°C | 67.8% | 408.2hPa | 2.6V | 08:00:50 | 02:46:16 | 00:00:00 | |
| DM0DOS-11 | 2026-08-30 13:04:11 | 51.75555 | 8.58928 | 74° | 84km/h | 7275m | -5.8m/s | -24.2°C | 66.4% | 407.8hPa | 2.6V | 08:00:51 | 02:46:15 | 00:00:00 | |
| DL1XH-west | 2026-08-30 13:04:11 | 51.75582 | 8.59096 | 76° | 80km/h | 7245m | -6.2m/s | -24.1°C | 72.5% | 409.5hPa | 2.6V | 08:01:21 | 02:46:20 | 00:00:00 | |
| BIOWL1-15 | 2026-08-30 13:04:10 | 51.75577 | 8.59063 | 77° | 84km/h | 7251m | -6.1m/s | -24.1°C | 71.3% | 409.2hPa | 2.5V | 08:01:21 | 02:46:19 | 00:00:00 | |
| DO2JMG | 2026-08-30 13:04:09 | 51.75572 | 8.59030 | 77° | 86km/h | 7257m | -5.9m/s | -24.2°C | 70.7% | 408.8hPa | 2.5V | 08:01:21 | 02:46:18 | 00:00:00 | |
| HSKMA3-T | 2026-08-30 13:04:07 | 51.75561 | 8.58961 | 74° | 86km/h | 7269m | -6.1m/s | -24.2°C | 68.9% | 408.2hPa | 2.6V | 08:01:21 | 02:46:16 | 00:00:00 | |
| BIOWL1-15 | 2026-08-30 13:04:03 | 51.75520 | 8.58698 | 73° | 82km/h | 7318m | -6m/s | -24.5°C | 64.5% | 405.5hPa | 2.5V | 08:01:21 | 02:46:08 | 00:00:00 | |
| DL1NUX | 2026-08-30 13:04:02 | 51.75507 | 8.58636 | 72° | 78km/h | 7330m | -6.3m/s | -24.6°C | 62.8% | 404.8hPa | 2.6V | 08:01:00 | 02:46:06 | 00:00:00 | |
| DL1XH-15 | 2026-08-30 13:04:01 | 51.75526 | 8.58731 | 74° | 84km/h | 7312m | -6.3m/s | -24.5°C | 62.4% | 405.8hPa | 2.6V | 08:00:57 | 02:46:09 | 00:00:00 | |
| DL1XH-west | 2026-08-30 13:04:00 | 51.75526 | 8.58731 | 74° | 84km/h | 7312m | -6.3m/s | -24.5°C | 64.3% | 405.8hPa | 2.6V | 08:01:21 | 02:46:09 | 00:00:00 | |
| DM0DOS-11 | 2026-08-30 13:03:59 | 51.75502 | 8.58605 | 72° | 80km/h | 7336m | -6.3m/s | -24.7°C | 62.9% | 404.5hPa | 2.6V | 08:01:01 | 02:46:05 | 00:00:00 | |
| DO2JMG | 2026-08-30 13:03:58 | 51.75514 | 8.58667 | 72° | 80km/h | 7324m | -6.2m/s | -24.6°C | 64.6% | 405.2hPa | 2.5V | 08:01:21 | 02:46:07 | 00:00:00 | |
| HSKMA3-T | 2026-08-30 13:03:57 | 51.75508 | 8.58636 | 72° | 78km/h | 7330m | -6.3m/s | -24.7°C | 64.6% | 404.8hPa | 2.6V | 08:01:21 | 02:46:06 | 00:00:00 | |
| DO9LL-15 | 2026-08-30 13:03:57 | 51.75508 | 8.58636 | 73° | 84km/h | 7330m | -6.2m/s | -24.6°C | 62.8% | 404.8hPa | 2.6V | 00:00:00 | 02:46:06 | 00:00:00 | |
| DL1XH-15 | 2026-08-30 13:03:55 | 51.75466 | 8.58413 | 76° | 84km/h | 7373m | -6.1m/s | -25°C | 64.9% | 402.3hPa | 2.6V | 08:01:07 | 02:45:59 | 00:00:00 | |
| DL3AQ-11 | 2026-08-30 13:03:55 | 51.75489 | 8.58542 | 71° | 82km/h | 7348m | -5.8m/s | -24.8°C | 60.2% | 403.8hPa | 2.5V | 00:00:00 | 00:00:00 | 00:00:00 | |
| SONCRA | 2026-08-30 13:03:54 | 51.75489 | 8.58542 | 71° | 82km/h | 7348m | -5.8m/s | -24.8°C | 60.2% | 403.8hPa | 2.5V | 00:00:00 | 00:00:00 | 00:00:00 | |
| DK9SH | 2026-08-30 13:03:53 | 51.75489 | 8.58542 | 73° | 82km/h | 7349m | -5.8m/s | -24.8°C | 60.2% | 403.8hPa | 2.5V | 08:01:00 | 00:00:00 | 00:00:00 | |
| DL1NUX | 2026-08-30 13:03:52 | 51.75451 | 8.58311 | 75° | 86km/h | 7392m | -6.3m/s | -25.1°C | 65.2% | 401.3hPa | 2.5V | 08:01:10 | 02:45:56 | 00:00:00 | |
| DM0DOS-11 | 2026-08-30 13:03:51 | 51.75445 | 8.58278 | 75° | 84km/h | 7398m | -6.2m/s | -25.2°C | 65% | 401.1hPa | 2.5V | 08:01:11 | 02:45:55 | 00:00:00 | |
| DL1XH-west | 2026-08-30 13:03:49 | 51.75461 | 8.58380 | 77° | 86km/h | 7379m | -6.2m/s | -25.1°C | 66.9% | 402.1hPa | 2.6V | 08:01:21 | 02:45:58 | 00:00:00 | |
| DO2JMG | 2026-08-30 13:03:48 | 51.75456 | 8.58345 | 76° | 88km/h | 7385m | -6.3m/s | -25.1°C | 67% | 401.8hPa | 2.5V | 08:01:21 | 02:45:57 | 00:00:00 | |
| HSKMA3-T | 2026-08-30 13:03:47 | 51.75451 | 8.58311 | 76° | 86km/h | 7392m | -6.3m/s | -25.1°C | 66.9% | 401.3hPa | 2.5V | 08:01:21 | 02:45:56 | 00:00:00 | |
| BUE01 | 2026-08-30 13:03:46 | 51.75445 | 8.58278 | 75° | 84km/h | 7398m | -6.2m/s | -25.2°C | 62.1% | 401.1hPa | 2.6V | 00:00:00 | 00:00:00 | 00:00:00 | |
| DD1CC3-15 | 2026-08-30 13:03:45 | 51.75445 | 8.58277 | 77° | 84km/h | 7398m | -6.2m/s | -25.2°C | 62.1% | 401.1hPa | 2.6V | 08:01:00 | 00:00:00 | 00:00:00 | |
| DL1XH-15 | 2026-08-30 13:03:44 | 51.75414 | 8.58074 | 74° | 91km/h | 7434m | -6.3m/s | -25.5°C | 63.2% | 399hPa | 2.6V | 08:01:17 | 02:45:49 | 00:00:00 | |
| DL3AQ-11 | 2026-08-30 13:03:44 | 51.75430 | 8.58178 | 77° | 84km/h | 7416m | -6.2m/s | -25.3°C | 61.2% | 400.0hPa | 2.5V | 00:00:00 | 00:00:00 | 00:00:00 | |
| DB0UT-7 | 2026-08-30 13:03:43 | 51.75430 | 8.58178 | 78° | 82km/h | 7416m | -6.2m/s | -25.3°C | 64.1% | 399.9hPa | 2.5V | 00:00:00 | 02:45:52 | 00:00:00 | |
| DL1NUX | 2026-08-30 13:03:42 | 51.75394 | 8.57971 | 72° | 84km/h | 7453m | -6.2m/s | -25.7°C | 63.4% | 398hPa | 2.5V | 08:01:20 | 02:45:46 | 00:00:00 | |
| DO3DL | 2026-08-30 13:03:41 | 51.75425 | 8.58144 | 78° | 88km/h | 7422m | -6.2m/s | -25.4°C | 60.7% | 399.7hPa | 2.5V | 08:01:00 | 00:00:00 | 00:00:00 | |
| DD1CC2-15 | 2026-08-30 13:03:40 | 51.75420 | 8.58109 | 77° | 89km/h | 7429m | -6.2m/s | -25.4°C | 60.5% | 399.3hPa | 2.5V | 08:01:00 | 00:00:00 | 00:00:00 | |
| BIOWL1-15 | 2026-08-30 13:03:40 | 51.75383 | 8.57907 | 76° | 80km/h | 7465m | -6.2m/s | -25.7°C | 65.4% | 397.3hPa | 2.5V | 08:02:12 | 02:45:44 | 00:00:00 | |
| DM0DOS-11 | 2026-08-30 13:03:39 | 51.75389 | 8.57938 | 74° | 80km/h | 7459m | -6m/s | -25.7°C | 63.6% | 397.7hPa | 2.5V | 08:01:21 | 02:45:45 | 00:00:00 | |
| DL1XH-west | 2026-08-30 13:03:38 | 51.75401 | 8.58004 | 73° | 88km/h | 7447m | -6.2m/s | -25.6°C | 65.1% | 398.3hPa | 2.6V | 08:01:21 | 02:45:47 | 00:00:00 | |
| DO2JMG | 2026-08-30 13:03:37 | 51.75395 | 8.57971 | 72° | 84km/h | 7453m | -6.2m/s | -25.7°C | 65.2% | 398.1hPa | 2.5V | 08:01:21 | 02:45:46 | 00:00:00 | |
| HSKMA3-T | 2026-08-30 13:03:36 | 51.75389 | 8.57938 | 74° | 82km/h | 7459m | -6m/s | -25.7°C | 65.3% | 397.7hPa | 2.5V | 08:01:21 | 02:45:45 | 00:00:00 | |
| SO1NDE-10 | 2026-08-30 13:03:35 | 51.75383 | 8.57907 | 76° | 82km/h | 7465m | -6.1m/s | -25.7°C | 63.8% | 397.2hPa | 2.5V | 00:00:00 | 02:45:44 | 00:00:00 | |
| DL3OBA | 2026-08-30 13:03:34 | 51.75383 | 8.57907 | 77° | 80km/h | 7465m | -6.2m/s | -25.7°C | 60.8% | 397.3hPa | 2.6V | 00:00:00 | 00:00:00 | 00:00:00 | |
| DD1CC8 | 2026-08-30 13:03:32 | 51.75369 | 8.57809 | 76° | 84km/h | 7484m | -6.2m/s | -25.9°C | 62.4% | 396.3hPa | 2.6V | 00:00:00 | 00:00:00 | 00:00:00 | |
| DM0DOS-11 | 2026-08-30 13:03:31 | 51.75335 | 8.57614 | 75° | 82km/h | 7521m | -6m/s | -26°C | 59.8% | 394.3hPa | 2.6V | 08:01:31 | 02:45:35 | 00:00:00 | |
| DL1XH-15 | 2026-08-30 13:03:31 | 51.75358 | 8.57743 | 73° | 84km/h | 7496m | -6.3m/s | -25.9°C | 65% | 395.6hPa | 2.5V | 08:01:27 | 02:45:39 | 00:00:00 | |
| DL1NUX | 2026-08-30 13:03:31 | 51.75340 | 8.57646 | 74° | 82km/h | 7515m | -6.2m/s | -26°C | 61.1% | 394.6hPa | 2.6V | 08:01:30 | 02:45:36 | 00:00:00 | |
| DJ2DS-15 | 2026-08-30 13:03:31 | 51.75364 | 8.57776 | 76° | 82km/h | 7490m | -6.2m/s | -25.9°C | 64.9% | 396.0hPa | 2.5V | 08:01:00 | 02:45:40 | 00:00:00 | |
| DL1XH1-15 | 2026-08-30 13:03:29 | 51.75324 | 8.57548 | 75° | 84km/h | 7533m | -6.3m/s | -26.1°C | 58% | 393.6hPa | 2.5V | 08:01:33 | 02:45:33 | 00:00:00 | |
| DL1XH-west | 2026-08-30 13:03:28 | 51.75345 | 8.57678 | 74° | 80km/h | 7509m | -6.5m/s | -26°C | 65.5% | 395hPa | 2.6V | 08:02:12 | 02:45:37 | 00:00:00 | |
| DO2JMG | 2026-08-30 13:03:27 | 51.75340 | 8.57646 | 75° | 82km/h | 7515m | -6.2m/s | -26°C | 63.2% | 394.6hPa | 2.6V | 08:02:12 | 02:45:36 | 00:00:00 | |
| HSKMA3-T | 2026-08-30 13:03:26 | 51.75335 | 8.57614 | 76° | 82km/h | 7521m | -6m/s | -26°C | 62.1% | 394.3hPa | 2.6V | 08:02:12 | 02:45:35 | 00:00:00 | |
| DB0DAN | 2026-08-30 13:03:25 | 51.75329 | 8.57581 | 76° | 80km/h | 7527m | -6.1m/s | -26.1°C | 56.2% | 393.9hPa | 2.5V | 00:00:00 | 00:00:00 | 00:00:00 | |
| DL1XH-15 | 2026-08-30 13:03:24 | 51.75304 | 8.57421 | 77° | 77km/h | 7558m | -6.1m/s | -26.3°C | 51.6% | 392.2hPa | 2.5V | 08:01:37 | 02:45:29 | 00:00:00 | |
| SONCRA | 2026-08-30 13:03:23 | 51.75319 | 8.57515 | 74° | 82km/h | 7540m | -6.2m/s | -26.2°C | 54.0% | 393.3hPa | 2.6V | 00:00:00 | 00:00:00 | 00:00:00 | |
| DL1NUX | 2026-08-30 13:03:22 | 51.75290 | 8.57327 | 74° | 80km/h | 7576m | -6.2m/s | -26.5°C | 48.5% | 391.2hPa | 2.6V | 08:01:40 | 02:45:26 | 00:00:00 | |
| DC4HF-4 | 2026-08-30 13:03:21 | 51.75308 | 8.57452 | 76° | 77km/h | 7551m | -6.1m/s | -26.3°C | 50.2% | 392.5hPa | 2.6V | 00:00:00 | 00:00:00 | 00:00:00 | |
| DL1ZP-14 | 2026-08-30 13:03:20 | 51.75299 | 8.57390 | 77° | 78km/h | 7564m | -6.4m/s | -26.4°C | 48.2% | 391.9hPa | 2.6V | 00:00:00 | 00:00:00 | 00:00:00 | |
| DM0DOS-11 | 2026-08-30 13:03:19 | 51.75285 | 8.57295 | 75° | 80km/h | 7583m | -6.5m/s | -26.5°C | 47% | 390.8hPa | 2.5V | 08:01:41 | 02:45:25 | 00:00:00 | |
| DD8BA-10 | 2026-08-30 13:03:19 | 51.75299 | 8.57390 | 78° | 80km/h | 7564m | -6.4m/s | -26.3°C | 50.8% | 391.8hPa | 2.6V | 08:01:00 | 00:00:00 | 00:00:00 | |
| DL1XH1-15 | 2026-08-30 13:03:18 | 51.75274 | 8.57232 | 75° | 80km/h | 7595m | -6.5m/s | -26.6°C | 43.1% | 390.1hPa | 2.5V | 08:01:43 | 02:45:23 | 00:00:00 | |
| BIOWL1-15 | 2026-08-30 13:03:18 | 51.75295 | 8.57358 | 77° | 80km/h | 7570m | -6.3m/s | -26.4°C | 52.4% | 391.6hPa | 2.6V | 08:02:12 | 02:45:27 | 00:00:00 | |
| DO2JMG | 2026-08-30 13:03:17 | 51.75290 | 8.57327 | 75° | 80km/h | 7576m | -6.2m/s | -26.5°C | 51.4% | 391.2hPa | 2.6V | 08:02:12 | 02:45:26 | 00:00:00 | |
| HSKMA3-T | 2026-08-30 13:03:15 | 51.75279 | 8.57263 | 75° | 80km/h | 7589m | -6.4m/s | -26.6°C | 48.1% | 390.6hPa | 2.5V | 08:02:12 | 02:45:24 | 00:00:00 | |
| DL3AQ-11 | 2026-08-30 13:03:14 | 51.75274 | 8.57232 | 75° | 80km/h | 7595m | -6.5m/s | -26.6°C | 40.8% | 390.1hPa | 2.6V | 00:00:00 | 00:00:00 | 00:00:00 | |
| DB0UT-7 | 2026-08-30 13:03:13 | 51.75269 | 8.57200 | 76° | 80km/h | 7602m | -6.3m/s | -26.6°C | 42.5% | 389.8hPa | 2.6V | 00:00:00 | 00:00:00 | 00:00:00 | |
| DK9SH | 2026-08-30 13:03:12 | 51.75269 | 8.57200 | 77° | 82km/h | 7602m | -6.4m/s | -26.6°C | 40.1% | 389.8hPa | 2.6V | 08:02:00 | 00:00:00 | 00:00:00 | |
| DM0DOS-11 | 2026-08-30 13:03:11 | 51.75232 | 8.56977 | 75° | 78km/h | 7647m | -6.3m/s | -26.9°C | 43.7% | 387.4hPa | 2.6V | 08:01:51 | 02:45:15 | 00:00:00 | |
| BIOWL1-15 | 2026-08-30 13:03:11 | 51.75237 | 8.57008 | 74° | 78km/h | 7641m | -6.4m/s | -26.8°C | 44% | 387.7hPa | 2.6V | 08:02:12 | 02:45:16 | 00:00:00 | |
| DB0DAN | 2026-08-30 13:03:10 | 51.75253 | 8.57103 | 76° | 78km/h | 7622m | -6.6m/s | -26.7°C | 35.9% | 388.73hPa | 2.5V | 00:00:00 | 00:00:00 | 00:00:00 | |
| DD8BA-10 | 2026-08-30 13:03:09 | 51.75248 | 8.57070 | 75° | 80km/h | 7628m | -6.6m/s | -26.7°C | 36.0% | 388.3hPa | 2.6V | 00:00:00 | 00:00:00 | 00:00:00 | |
| DL1NUX | 2026-08-30 13:03:08 | 51.75237 | 8.57008 | 74° | 78km/h | 7641m | -6.4m/s | -26.8°C | 40.6% | 387.7hPa | 2.6V | 08:01:50 | 02:45:16 | 00:00:00 | |
| GOEST3-10 | 2026-08-30 13:03:08 | 51.75242 | 8.57038 | 75° | 78km/h | 7635m | -6.6m/s | -26.7°C | 36.8% | 388.1hPa | 2.5V | 08:01:00 | 00:00:00 | 00:00:00 | |
| DL8OAI-8 | 2026-08-30 13:03:07 | 51.75242 | 8.57038 | 75° | 80km/h | 7635m | -6.7m/s | -26.8°C | 34.6% | 388.1hPa | 2.5V | 08:02:00 | 00:00:00 | 00:00:00 | |
| DL1XH1-15 | 2026-08-30 13:03:06 | 51.75222 | 8.56914 | 75° | 80km/h | 7660m | -6.4m/s | -27°C | 43.6% | 386.7hPa | 2.5V | 08:01:53 | 02:45:13 | 00:00:00 | |
| DO2JMG | 2026-08-30 13:03:06 | 51.75232 | 8.56977 | 76° | 78km/h | 7647m | -6.3m/s | -26.9°C | 47% | 387.4hPa | 2.6V | 08:02:12 | 02:45:15 | 00:00:00 | |
| HSKMA3-T | 2026-08-30 13:03:05 | 51.75227 | 8.56945 | 75° | 80km/h | 7654m | -6.4m/s | -26.9°C | 47.1% | 387hPa | 2.6V | 08:02:12 | 02:45:14 | 00:00:00 | |
| DL9SK-14 | 2026-08-30 13:03:04 | 51.75217 | 8.56882 | 74° | 80km/h | 7666m | -6.4m/s | -27.0°C | 40.8% | 386.3hPa | 2.6V | 00:00:00 | 00:00:00 | 00:00:00 | |
| GOEST3-10 | 2026-08-30 13:03:03 | 51.75217 | 8.56882 | 75° | 82km/h | 7667m | -6.3m/s | -27.0°C | 43.2% | 386.2hPa | 2.6V | 00:00:00 | 02:45:12 | 00:00:00 | |
| DD1CC8 | 2026-08-30 13:03:01 | 51.75206 | 8.56818 | 76° | 80km/h | 7679m | -6.5m/s | -27.1°C | 41.0% | 385.7hPa | 2.6V | 00:00:00 | 00:00:00 | 00:00:00 | |
| DM0DOS-11 | 2026-08-30 13:02:59 | 51.75179 | 8.56658 | 74° | 78km/h | 7711m | -6.3m/s | -27.4°C | 44.6% | 383.9hPa | 2.6V | 08:02:01 | 02:45:05 | 00:00:00 | |
| DL1XH1-15 | 2026-08-30 13:02:59 | 51.75169 | 8.56596 | 75° | 78km/h | 7724m | -6.2m/s | -27.5°C | 46.5% | 383.2hPa | 2.5V | 08:02:03 | 02:45:03 | 00:00:00 | |
| DL4XJ-10 | 2026-08-30 13:02:59 | 51.75196 | 8.56753 | 75° | 80km/h | 7692m | -6.5m/s | -26.6°C | 0% | 0hPa | 2.5V | 00:00:00 | 00:00:00 | 00:00:00 | |
| DL1NUX | 2026-08-30 13:02:58 | 51.75185 | 8.56689 | 74° | 80km/h | 7704m | -6.6m/s | -27.3°C | 43.6% | 384.3hPa | 2.5V | 08:02:00 | 02:45:06 | 00:00:00 | |
| DO2JMG | 2026-08-30 13:02:56 | 51.75179 | 8.56658 | 74° | 78km/h | 7711m | -6.3m/s | -27.4°C | 47.9% | 383.9hPa | 2.6V | 08:02:12 | 02:45:05 | 00:00:00 | |
| HSKMA3-T | 2026-08-30 13:02:54 | 51.75169 | 8.56596 | 76° | 78km/h | 7724m | -6.2m/s | -27.5°C | 49.5% | 383.2hPa | 2.5V | 08:02:12 | 02:45:03 | 00:00:00 | |
| DL1NUX | 2026-08-30 13:02:52 | 51.75135 | 8.56375 | 75° | 80km/h | 7769m | -6.7m/s | -27.8°C | 49.2% | 380.8hPa | 2.6V | 08:02:10 | 02:44:56 | 00:00:00 | |
| SONCRA | 2026-08-30 13:02:52 | 51.75159 | 8.56533 | 76° | 80km/h | 7736m | -6.5m/s | -27.6°C | 44.5% | 382.6hPa | 2.6V | 00:00:00 | 00:00:00 | 00:00:00 | |
| GOEST3-10 | 2026-08-30 13:02:51 | 51.75154 | 8.56501 | 76° | 80km/h | 7743m | -6.9m/s | -27.6°C | 47.3% | 382.2hPa | 2.6V | 00:00:00 | 02:45:00 | 00:00:00 | |
| DD8BA-10 | 2026-08-30 13:02:49 | 51.75145 | 8.56438 | 77° | 82km/h | 7756m | -6.5m/s | -27.7°C | 48.7% | 381.5hPa | 2.5V | 00:00:00 | 00:00:00 | 00:00:00 | |
| DM0DOS-11 | 2026-08-30 13:02:48 | 51.75130 | 8.56342 | 76° | 82km/h | 7775m | -6.7m/s | -27.9°C | 49.7% | 380.4hPa | 2.6V | 08:02:11 | 02:44:55 | 00:00:00 | |
| DL1XH1-15 | 2026-08-30 13:02:48 | 51.75119 | 8.56277 | 74° | 82km/h | 7789m | -6.6m/s | -28°C | 52.3% | 379.9hPa | 2.5V | 08:02:13 | 02:44:53 | 00:00:00 | |
| DL1XH-west | 2026-08-30 13:02:46 | 51.75130 | 8.56342 | 76° | 82km/h | 7775m | -6.7m/s | -27.9°C | 52.8% | 380.4hPa | 2.6V | 08:02:12 | 02:44:55 | 00:00:00 | |
| DO2JMG | 2026-08-30 13:02:45 | 51.75124 | 8.56310 | 75° | 82km/h | 7782m | -6.6m/s | -27.9°C | 53.4% | 380.1hPa | 2.5V | 08:02:12 | 02:44:54 | 00:00:00 | |
| HSKMA3-T | 2026-08-30 13:02:44 | 51.75119 | 8.56277 | 75° | 82km/h | 7789m | -6.6m/s | -28°C | 55.2% | 379.9hPa | 2.5V | 08:03:03 | 02:44:53 | 00:00:00 | |
| DB0UT-7 | 2026-08-30 13:02:43 | 51.75114 | 8.56245 | 76° | 84km/h | 7795m | -6.6m/s | -28.0°C | 53.2% | 379.3hPa | 2.5V | 00:00:00 | 02:44:52 | 00:00:00 | |
| DL1NUX | 2026-08-30 13:02:42 | 51.75082 | 8.56051 | 76° | 82km/h | 7835m | -6.7m/s | -28.4°C | 57.3% | 377.4hPa | 2.5V | 08:02:20 | 02:44:46 | 00:00:00 | |
| BIOWL9-15 | 2026-08-30 13:02:42 | 51.75103 | 8.56180 | 74° | 82km/h | 7809m | -6.7m/s | -28.2°C | 51.5% | 378.7hPa | 2.6V | 00:00:00 | 00:00:00 | 00:00:00 | |
| DM0DOS-11 | 2026-08-30 13:02:41 | 51.75077 | 8.56018 | 76° | 82km/h | 7842m | -6.8m/s | -28.4°C | 57.8% | 376.9hPa | 2.6V | 08:02:21 | 02:44:45 | 00:00:00 | |
| GOEST3-10 | 2026-08-30 13:02:41 | 51.75103 | 8.56180 | 75° | 82km/h | 7809m | -6.7m/s | -28.1°C | 54.4% | 378.7hPa | 2.6V | 00:00:00 | 02:44:50 | 00:00:00 | |
| DD8BA-10 | 2026-08-30 13:02:39 | 51.75092 | 8.56115 | 76° | 84km/h | 7822m | -6.8m/s | -28.2°C | 56.1% | 377.9hPa | 2.6V | 00:00:00 | 00:00:00 | 00:00:00 | |
| DD1CC2-15 | 2026-08-30 13:02:37 | 51.75087 | 8.56083 | 78° | 82km/h | 7829m | -6.8m/s | -28.3°C | 53.8% | 377.6hPa | 2.6V | 08:03:00 | 00:00:00 | 00:00:00 | |
| DL1XH1-15 | 2026-08-30 13:02:36 | 51.75068 | 8.55953 | 78° | 82km/h | 7856m | -6.8m/s | -28.5°C | 58.3% | 376.3hPa | 2.6V | 08:02:23 | 02:44:43 | 00:00:00 | |
| BIOWL1-15 | 2026-08-30 13:02:35 | 51.75068 | 8.55953 | 78° | 82km/h | 7856m | -6.8m/s | -28.5°C | 60.8% | 376.3hPa | 2.6V | 08:03:03 | 02:44:43 | 00:00:00 | |
| DO2JMG | 2026-08-30 13:02:35 | 51.75073 | 8.55985 | 77° | 82km/h | 7849m | -7m/s | -28.5°C | 60.6% | 376.6hPa | 2.6V | 08:03:03 | 02:44:44 | 00:00:00 | |
| DL3AQ-11 | 2026-08-30 13:02:35 | 51.75068 | 8.55953 | 78° | 82km/h | 7856m | -6.8m/s | -28.5°C | 55.2% | 376.3hPa | 2.5V | 00:00:00 | 00:00:00 | 00:00:00 | |
| DJ2DS-15 | 2026-08-30 13:02:34 | 51.75060 | 8.55885 | 78° | 86km/h | 7869m | -6.6m/s | -28.6°C | 55.7% | 375.6hPa | 2.5V | 00:00:00 | 00:00:00 | 00:00:00 | |
| DL9SK-14 | 2026-08-30 13:02:33 | 51.75060 | 8.55885 | 78° | 86km/h | 7869m | -6.6m/s | -28.6°C | 55.7% | 375.6hPa | 2.5V | 00:00:00 | 00:00:00 | 00:00:00 | |
| HSKMA3-T | 2026-08-30 13:02:33 | 51.75064 | 8.55919 | 79° | 84km/h | 7862m | -6.7m/s | -28.6°C | 61% | 375.9hPa | 2.5V | 08:03:03 | 02:44:42 | 00:00:00 | |
| DJ2DS-15 | 2026-08-30 13:02:31 | 51.75055 | 8.55851 | 78° | 86km/h | 7875m | -6.4m/s | -28.6°C | 59.1% | 375.1hPa | 2.5V | 00:00:00 | 02:44:40 | 00:00:00 | |
| DD1CC8 | 2026-08-30 13:02:30 | 51.75050 | 8.55817 | 75° | 84km/h | 7882m | -6.2m/s | -28.7°C | 56.3% | 374.9hPa | 2.5V | 00:00:00 | 00:00:00 | 00:00:00 | |
| DM0DOS-11 | 2026-08-30 13:02:29 | 51.75031 | 8.55684 | 77° | 86km/h | 7907m | -6.4m/s | -28.9°C | 60.1% | 373.5hPa | 2.5V | 08:02:31 | 02:44:35 | 00:00:00 | |
| DD8BA-10 | 2026-08-30 13:02:29 | 51.75045 | 8.55784 | 76° | 84km/h | 7888m | -6.5m/s | -28.7°C | 59.8% | 374.4hPa | 2.6V | 00:00:00 | 00:00:00 | 00:00:00 | |
| DL1XH1-15 | 2026-08-30 13:02:28 | 51.75020 | 8.55616 | 74° | 86km/h | 7920m | -6.8m/s | -29°C | 59.8% | 372.8hPa | 2.6V | 08:02:33 | 02:44:33 | 00:00:00 | |
| BIOWL1-15 | 2026-08-30 13:02:25 | 51.75025 | 8.55650 | 76° | 88km/h | 7914m | -6.7m/s | -29°C | 62.3% | 373.2hPa | 2.5V | 08:03:03 | 02:44:34 | 00:00:00 | |
| DL1XH-west | 2026-08-30 13:02:24 | 51.75020 | 8.55616 | 75° | 86km/h | 7921m | -6.8m/s | -29°C | 62% | 372.8hPa | 2.6V | 08:03:03 | 02:44:33 | 00:00:00 | |
| HSKMA3-T | 2026-08-30 13:02:22 | 51.75008 | 8.55549 | 75° | 84km/h | 7934m | -6.7m/s | -29.1°C | 61% | 372.1hPa | 2.6V | 08:03:03 | 02:44:31 | 00:00:00 | |
| NBG1-10 | 2026-08-30 13:02:21 | 51.75003 | 8.55516 | 76° | 86km/h | 7941m | -6.5m/s | -29.1°C | 58.6% | 371.8hPa | 2.5V | 08:02:00 | 02:44:30 | 00:00:00 | |
| DL4XJ-10 | 2026-08-30 13:02:19 | 51.74992 | 8.55449 | 76° | 88km/h | 7953m | -6.6m/s | -28.7°C | 0% | 0hPa | 2.6V | 00:00:00 | 00:00:00 | 00:00:00 | |
| DL1ZP-14 | 2026-08-30 13:02:18 | 51.74987 | 8.55415 | 74° | 84km/h | 7960m | -6.9m/s | -29.3°C | 55.8% | 370.9hPa | 2.6V | 00:00:00 | 00:00:00 | 00:00:00 | |
| DL1NUX | 2026-08-30 13:02:17 | 51.74976 | 8.55348 | 75° | 86km/h | 7973m | -6.5m/s | -29.4°C | 59.5% | 370.1hPa | 2.6V | 08:02:41 | 02:44:25 | 00:00:00 | |
| DL1XH1-15 | 2026-08-30 13:02:16 | 51.74965 | 8.55281 | 76° | 86km/h | 7987m | -6.8m/s | -29.5°C | 59.6% | 369.4hPa | 2.5V | 08:02:43 | 02:44:23 | 00:00:00 | |
| BIOWL1-15 | 2026-08-30 13:02:14 | 51.74960 | 8.55247 | 76° | 84km/h | 7993m | -6.5m/s | -29.6°C | 62.2% | 369.1hPa | 2.5V | 08:03:03 | 02:44:22 | 00:00:00 | |
| DL1XH-15 | 2026-08-30 13:02:14 | 51.74947 | 8.55143 | 79° | 89km/h | 8013m | -6.5m/s | -29.8°C | 59.7% | 368hPa | 2.6V | 08:02:47 | 02:44:19 | 00:00:00 | |
| DO2JMG | 2026-08-30 13:02:14 | 51.74965 | 8.55281 | 76° | 86km/h | 7987m | -6.8m/s | -29.6°C | 62% | 369.4hPa | 2.5V | 08:03:03 | 02:44:23 | 00:00:00 | |
| HSKMA3-T | 2026-08-30 13:02:11 | 51.74951 | 8.55179 | 80° | 88km/h | 8006m | -6.8m/s | -29.7°C | 62.5% | 368.4hPa | 2.6V | 08:03:03 | 02:44:20 | 00:00:00 | |
| DJ2DS-15 | 2026-08-30 13:02:11 | 51.74951 | 8.55179 | 80° | 89km/h | 8007m | -6.7m/s | -29.7°C | 59.9% | 368.3hPa | 2.6V | 00:00:00 | 02:44:20 | 00:00:00 | |
| GOEST3-10 | 2026-08-30 13:02:10 | 51.74947 | 8.55143 | 80° | 91km/h | 8013m | -6.5m/s | -29.7°C | 59.7% | 368.0hPa | 2.6V | 00:00:00 | 02:44:19 | 00:00:00 | |
| DD8BA-10 | 2026-08-30 13:02:09 | 51.74942 | 8.55107 | 79° | 89km/h | 8020m | -6.7m/s | -29.8°C | 59.7% | 367.7hPa | 2.6V | 00:00:00 | 00:00:00 | 00:00:00 | |
| DL1XH1-15 | 2026-08-30 13:02:08 | 51.74912 | 8.54927 | 72° | 89km/h | 8053m | -6.7m/s | -30.1°C | 58.4% | 366.1hPa | 2.6V | 08:02:53 | 02:44:13 | 00:00:00 | |
| DL3AQ-11 | 2026-08-30 13:02:07 | 51.74932 | 8.55034 | 75° | 91km/h | 8033m | -6.3m/s | -30.0°C | 55.7% | 367.0hPa | 2.6V | 00:00:00 | 00:00:00 | 00:00:00 | |
| DL1CLM-18 | 2026-08-30 13:02:06 | 51.74932 | 8.55034 | 76° | 93km/h | 8033m | -6.3m/s | -30.0°C | 55.7% | 367.0hPa | 2.6V | 08:03:00 | 00:00:00 | 00:00:00 | |
| SO1NDE-10 | 2026-08-30 13:02:05 | 51.74919 | 8.54962 | 73° | 88km/h | 8046m | -6.6m/s | -30.0°C | 58.4% | 366.3hPa | 2.6V | 08:02:00 | 02:44:14 | 00:00:00 | |
| DL1XH-15 | 2026-08-30 13:02:04 | 51.74887 | 8.54790 | 73° | 88km/h | 8078m | -6.4m/s | -30.2°C | 61% | 364.7hPa | 2.6V | 08:02:57 | 02:44:09 | 00:00:00 | |
| DL1XH-west | 2026-08-30 13:02:04 | 51.74912 | 8.54927 | 73° | 89km/h | 8053m | -6.7m/s | -30.1°C | 61.3% | 366.1hPa | 2.6V | 08:03:03 | 02:44:13 | 00:00:00 | |
| DO2JMG | 2026-08-30 13:02:03 | 51.74906 | 8.54892 | 73° | 88km/h | 8059m | -6.6m/s | -30.1°C | 62% | 365.6hPa | 2.5V | 08:03:03 | 02:44:12 | 00:00:00 | |
| HSKMA3-T | 2026-08-30 13:02:01 | 51.74893 | 8.54824 | 74° | 88km/h | 8072m | -6.5m/s | -30.2°C | 63.6% | 364.9hPa | 2.5V | 08:03:03 | 02:44:10 | 00:00:00 | |
| DD1CC8 | 2026-08-30 13:01:59 | 51.74880 | 8.54755 | 73° | 88km/h | 8085m | -6.9m/s | -30.3°C | 57.4% | 364.3hPa | 2.6V | 00:00:00 | 00:00:00 | 00:00:00 | |
| DJ2DS-15 | 2026-08-30 13:01:57 | 51.74863 | 8.54653 | 76° | 84km/h | 8106m | -6.9m/s | -30.5°C | 56.4% | 363.2hPa | 2.6V | 00:00:00 | 00:00:00 | 00:00:00 | |
| DL1XH1-15 | 2026-08-30 13:01:56 | 51.74852 | 8.54583 | 76° | 89km/h | 8119m | -6.5m/s | -30.6°C | 59.3% | 362.6hPa | 2.6V | 08:03:03 | 02:44:03 | 00:00:00 | |
| DB0DAN | 2026-08-30 13:01:55 | 51.74858 | 8.54619 | 77° | 84km/h | 8113m | -6.6m/s | -30.5°C | 56% | 362.92hPa | 2.5V | 00:00:00 | 00:00:00 | 00:00:00 | |
| DL1XH-west | 2026-08-30 13:01:53 | 51.74847 | 8.54548 | 75° | 91km/h | 8125m | -6.7m/s | -30.6°C | 62.2% | 362.2hPa | 2.6V | 08:03:54 | 02:44:02 | 00:00:00 | |
| BIOWL1-15 | 2026-08-30 13:01:52 | 51.74825 | 8.54441 | 70° | 89km/h | 8146m | -6.9m/s | -30.8°C | 61.8% | 361.3hPa | 2.5V | 08:03:54 | 02:43:59 | 00:00:00 | |
| DO2JMG | 2026-08-30 13:01:52 | 51.74840 | 8.54511 | 73° | 93km/h | 8132m | -6.8m/s | -30.7°C | 62.3% | 362hPa | 2.6V | 08:03:54 | 02:44:01 | 00:00:00 | |
| DB0NH | 2026-08-30 13:01:52 | 51.74840 | 8.54511 | 73° | 86km/h | 8132m | -6.7m/s | -30.6°C | 59.2% | 361.9hPa | 2.5V | 00:00:00 | 02:44:01 | 00:00:00 | |
| DL1XH-15 | 2026-08-30 13:01:51 | 51.74826 | 8.54441 | 70° | 89km/h | 8146m | -6.9m/s | -30.8°C | 58.7% | 361.3hPa | 2.5V | 08:03:07 | 02:43:59 | 00:00:00 | |
| HSKMA3-T | 2026-08-30 13:01:51 | 51.74833 | 8.54476 | 71° | 91km/h | 8139m | -7m/s | -30.8°C | 62.1% | 361.6hPa | 2.5V | 08:03:54 | 02:44:00 | 00:00:00 | |
| SONCRA | 2026-08-30 13:01:50 | 51.74818 | 8.54407 | 70° | 86km/h | 8153m | -7.0m/s | -30.9°C | 55.6% | 360.9hPa | 2.6V | 00:00:00 | 00:00:00 | 00:00:00 | |
| DM0DOS-11 | 2026-08-30 13:01:49 | 51.74797 | 8.54308 | 73° | 86km/h | 8174m | -6.8m/s | -31°C | 58.9% | 359.9hPa | 2.6V | 08:03:11 | 02:43:55 | 00:00:00 | |
| DL1ZP-14 | 2026-08-30 13:01:47 | 51.74804 | 8.54341 | 72° | 84km/h | 8167m | -6.9m/s | -31.0°C | 55.6% | 360.2hPa | 2.6V | 00:00:00 | 00:00:00 | 00:00:00 | |
| DJ2KF-10 | 2026-08-30 13:01:46 | 51.74797 | 8.54308 | 74° | 86km/h | 8174m | -6.8m/s | -31.0°C | 58.9% | 359.9hPa | 2.5V | 00:00:00 | 02:43:55 | 00:00:00 | |
| GOEST3-10 | 2026-08-30 13:01:45 | 51.74791 | 8.54275 | 74° | 84km/h | 8181m | -6.6m/s | -31.1°C | 58.5% | 359.5hPa | 2.5V | 00:00:00 | 02:43:54 | 00:00:00 | |
| DL1XH-15 | 2026-08-30 13:01:44 | 51.74758 | 8.54108 | 73° | 84km/h | 8214m | -6.7m/s | -31.4°C | 56.4% | 357.9hPa | 2.6V | 08:03:17 | 02:43:49 | 00:00:00 | |
| DL1XH-west | 2026-08-30 13:01:43 | 51.74778 | 8.54207 | 72° | 88km/h | 8194m | -6.5m/s | -31.2°C | 60.1% | 358.9hPa | 2.5V | 08:03:54 | 02:43:52 | 00:00:00 | |
| DO2JMG | 2026-08-30 13:01:42 | 51.74771 | 8.54173 | 71° | 86km/h | 8200m | -6.7m/s | -31.3°C | 59.3% | 358.6hPa | 2.6V | 08:03:54 | 02:43:51 | 00:00:00 | |
| HSKMA3-T | 2026-08-30 13:01:40 | 51.74758 | 8.54108 | 73° | 84km/h | 8214m | -6.7m/s | -31.4°C | 58.9% | 357.9hPa | 2.6V | 08:03:54 | 02:43:49 | 00:00:00 | |
| BIOWL1-15 | 2026-08-30 13:01:39 | 51.74752 | 8.54075 | 74° | 84km/h | 8220m | -6.6m/s | -31.4°C | 58.6% | 357.6hPa | 2.5V | 08:03:54 | 02:43:48 | 00:00:00 | |
| DM0DOS-11 | 2026-08-30 13:01:37 | 51.74734 | 8.53976 | 74° | 84km/h | 8240m | -6.7m/s | -31.6°C | 55.2% | 356.5hPa | 2.6V | 08:03:21 | 02:43:45 | 00:00:00 | |
| DL1XH-west | 2026-08-30 13:01:32 | 51.74712 | 8.53843 | 73° | 86km/h | 8268m | -6.5m/s | -31.8°C | 56.2% | 355.2hPa | 2.5V | 08:03:54 | 02:43:41 | 00:00:00 | |
| GOEST3-10 | 2026-08-30 13:01:32 | 51.74712 | 8.53842 | 73° | 84km/h | 8268m | -6.4m/s | -31.7°C | 53.7% | 355.2hPa | 2.6V | 00:00:00 | 02:43:41 | 00:00:00 | |
| DL1XH-15 | 2026-08-30 13:01:31 | 51.74699 | 8.53777 | 72° | 84km/h | 8280m | -6.7m/s | -31.9°C | 50.9% | 354.5hPa | 2.6V | 08:03:27 | 02:43:39 | 00:00:00 | |
| DO2JMG | 2026-08-30 13:01:31 | 51.74706 | 8.53809 | 73° | 84km/h | 8274m | -6m/s | -31.8°C | 55.3% | 354.9hPa | 2.5V | 08:03:54 | 02:43:40 | 00:00:00 | |
| HSKMA3-T | 2026-08-30 13:01:29 | 51.74693 | 8.53744 | 74° | 84km/h | 8287m | -6.9m/s | -31.9°C | 52.9% | 354.2hPa | 2.6V | 08:03:54 | 02:43:38 | 00:00:00 | |
| BIOWL1-15 | 2026-08-30 13:01:28 | 51.74687 | 8.53711 | 74° | 84km/h | 8294m | -6.5m/s | -32°C | 52.3% | 353.9hPa | 2.6V | 08:03:54 | 02:43:37 | 00:00:00 | |
| DO9LL-15 | 2026-08-30 13:01:27 | 51.74681 | 8.53678 | 75° | 88km/h | 8301m | -6.8m/s | -32.0°C | 48.8% | 353.5hPa | 2.5V | 00:00:00 | 02:43:36 | 00:00:00 | |
| DL1XH-15 | 2026-08-30 13:01:24 | 51.74641 | 8.53443 | 72° | 82km/h | 8348m | -6.7m/s | -32.4°C | 47.8% | 351.1hPa | 2.5V | 08:03:37 | 02:43:29 | 00:00:00 | |
| DL1XH-west | 2026-08-30 13:01:22 | 51.74654 | 8.53509 | 74° | 86km/h | 8334m | -6.7m/s | -32.3°C | 50.6% | 351.9hPa | 2.6V | 08:03:54 | 02:43:31 | 00:00:00 | |
| DO2JMG | 2026-08-30 13:01:21 | 51.74647 | 8.53476 | 72° | 84km/h | 8341m | -6.6m/s | -32.4°C | 50.7% | 351.4hPa | 2.5V | 08:03:54 | 02:43:30 | 00:00:00 | |
| DD1CC3-15 | 2026-08-30 13:01:20 | 51.74647 | 8.53476 | 73° | 84km/h | 8341m | -6.6m/s | -32.4°C | 44.8% | 351.4hPa | 2.5V | 08:03:00 | 00:00:00 | 00:00:00 | |
| DD8BA-10 | 2026-08-30 13:01:19 | 51.74635 | 8.53411 | 73° | 86km/h | 8355m | -6.6m/s | -32.4°C | 47.9% | 350.8hPa | 2.5V | 00:00:00 | 00:00:00 | 00:00:00 | |
| DL1XH1-15 | 2026-08-30 13:01:18 | 51.74603 | 8.53246 | 73° | 84km/h | 8388m | -6.7m/s | -32.8°C | 47.1% | 349.1hPa | 2.5V | 08:03:43 | 02:43:23 | 00:00:00 | |
| HSKMA3-T | 2026-08-30 13:01:18 | 51.74628 | 8.53378 | 73° | 84km/h | 8361m | -7m/s | -32.6°C | 50.8% | 350.5hPa | 2.6V | 08:03:54 | 02:43:27 | 00:00:00 | |
| BIOWL1-15 | 2026-08-30 13:01:17 | 51.74597 | 8.53214 | 76° | 84km/h | 8395m | -6.4m/s | -32.8°C | 50.9% | 348.8hPa | 2.5V | 08:03:54 | 02:43:22 | 00:00:00 | |
| DM0DOS-11 | 2026-08-30 13:01:17 | 51.74615 | 8.53312 | 72° | 86km/h | 8375m | -6.7m/s | -32.7°C | 47.5% | 349.8hPa | 2.6V | 08:03:41 | 02:43:25 | 00:00:00 | |
| GOEST3-10 | 2026-08-30 13:01:17 | 51.74622 | 8.53345 | 73° | 84km/h | 8368m | -6.7m/s | -32.6°C | 47.7% | 350.1hPa | 2.6V | 00:00:00 | 00:00:00 | 00:00:00 | |
| DJ2KF-10 | 2026-08-30 13:01:16 | 51.74615 | 8.53312 | 73° | 91km/h | 8375m | -6.6m/s | -32.6°C | 47.5% | 349.8hPa | 2.6V | 00:00:00 | 02:43:25 | 00:00:00 | |
| DL3AQ-11 | 2026-08-30 13:01:15 | 51.74603 | 8.53246 | 73° | 82km/h | 8388m | -6.7m/s | -32.8°C | 44.0% | 349.1hPa | 2.5V | 00:00:00 | 00:00:00 | 00:00:00 | |
| DB0UT-7 | 2026-08-30 13:01:13 | 51.74597 | 8.53214 | 76° | 91km/h | 8395m | -6.3m/s | -32.7°C | 47.8% | 348.8hPa | 2.5V | 08:03:00 | 00:00:00 | 00:00:00 | |
| GOEST3-10 | 2026-08-30 13:01:12 | 51.74592 | 8.53180 | 78° | 88km/h | 8402m | -6.4m/s | -32.8°C | 48.8% | 348.4hPa | 2.6V | 00:00:00 | 02:43:21 | 00:00:00 | |
| DL1XH-15 | 2026-08-30 13:01:11 | 51.74582 | 8.53112 | 76° | 88km/h | 8415m | -6.8m/s | -33°C | 50.7% | 347.8hPa | 2.6V | 08:03:47 | 02:43:19 | 00:00:00 | |
| DL1XH-west | 2026-08-30 13:01:11 | 51.74587 | 8.53146 | 78° | 88km/h | 8408m | -6.8m/s | -32.9°C | 52.8% | 348.2hPa | 2.6V | 08:03:54 | 02:43:20 | 00:00:00 | |
| DB0DAN | 2026-08-30 13:01:10 | 51.74582 | 8.53112 | 77° | 84km/h | 8415m | -6.8m/s | -33°C | 47.4% | 347.81hPa | 2.6V | 00:00:00 | 00:00:00 | 00:00:00 | |
| DO2JMG | 2026-08-30 13:01:10 | 51.74582 | 8.53112 | 77° | 88km/h | 8415m | -6.8m/s | -33°C | 53.7% | 347.8hPa | 2.6V | 08:03:54 | 02:43:19 | 00:00:00 | |
| HSKMA3-T | 2026-08-30 13:01:08 | 51.74572 | 8.53043 | 77° | 88km/h | 8428m | -7.2m/s | -33.1°C | 55.6% | 347.1hPa | 2.5V | 08:03:54 | 02:43:17 | 00:00:00 | |
| DM0DOS-11 | 2026-08-30 13:01:07 | 51.74562 | 8.52973 | 77° | 89km/h | 8443m | -7.1m/s | -33.2°C | 55.4% | 346.5hPa | 2.6V | 08:03:51 | 02:43:15 | 00:00:00 | |
| GOEST3-10 | 2026-08-30 13:01:07 | 51.74567 | 8.53008 | 78° | 91km/h | 8436m | -7.1m/s | -33.1°C | 54.1% | 346.8hPa | 2.5V | 00:00:00 | 00:00:00 | 00:00:00 | |
| DL1XH1-15 | 2026-08-30 13:01:06 | 51.74551 | 8.52900 | 75° | 93km/h | 8456m | -6.6m/s | -33.3°C | 58% | 345.8hPa | 2.5V | 08:03:53 | 02:43:13 | 00:00:00 | |
| SO1NDE-10 | 2026-08-30 13:01:05 | 51.74557 | 8.52936 | 77° | 93km/h | 8450m | -6.8m/s | -33.2°C | 56.8% | 346.1hPa | 2.5V | 00:00:00 | 02:43:14 | 00:00:00 | |
| DL1XH-15 | 2026-08-30 13:01:04 | 51.74524 | 8.52756 | 72° | 91km/h | 8483m | -6.9m/s | -33.5°C | 61.5% | 344.5hPa | 2.5V | 08:03:57 | 02:43:09 | 00:00:00 | |
| BIOWL1-15 | 2026-08-30 13:01:02 | 51.74538 | 8.52827 | 73° | 93km/h | 8469m | -6.7m/s | -33.4°C | 63.1% | 345.1hPa | 2.6V | 08:04:45 | 02:43:11 | 00:00:00 | |
| DL1XH-west | 2026-08-30 13:01:01 | 51.74531 | 8.52791 | 72° | 91km/h | 8476m | -6.8m/s | -33.5°C | 63.8% | 344.8hPa | 2.6V | 08:04:45 | 02:43:10 | 00:00:00 | |
| DO2JMG | 2026-08-30 13:00:59 | 51.74517 | 8.52720 | 74° | 91km/h | 8490m | -7m/s | -33.6°C | 64.3% | 344.2hPa | 2.5V | 08:04:45 | 02:43:08 | 00:00:00 | |
| DL4XJ-10 | 2026-08-30 13:00:59 | 51.74518 | 8.52720 | 74° | 93km/h | 8490m | -7.0m/s | -33.0°C | 0% | 0hPa | 2.5V | 00:00:00 | 00:00:00 | 00:00:00 | |
| DL1XH1-15 | 2026-08-30 13:00:58 | 51.74486 | 8.52538 | 74° | 89km/h | 8524m | -6.9m/s | -33.9°C | 63.4% | 342.4hPa | 2.5V | 08:04:03 | 02:43:03 | 00:00:00 | |
| HSKMA3-T | 2026-08-30 13:00:57 | 51.74505 | 8.52647 | 74° | 93km/h | 8504m | -6.9m/s | -33.7°C | 64.9% | 343.5hPa | 2.6V | 08:04:45 | 02:43:06 | 00:00:00 | |
| DC4HF-4 | 2026-08-30 13:00:57 | 51.74498 | 8.52611 | 74° | 93km/h | 8511m | -6.7m/s | -33.7°C | 58.9% | 343.2hPa | 2.5V | 00:00:00 | 00:00:00 | 00:00:00 | |
| HTAHTA | 2026-08-30 13:00:55 | 51.74492 | 8.52574 | 74° | 91km/h | 8517m | -7.0m/s | -33.8°C | 59.2% | 342.9hPa | 2.5V | 00:00:00 | 00:00:00 | 00:00:00 | |
| DL8DAS-14 | 2026-08-30 13:00:53 | 51.74480 | 8.52503 | 76° | 88km/h | 8531m | -6.6m/s | -33.9°C | 59.8% | 342.1hPa | 2.5V | 00:00:00 | 00:00:00 | 00:00:00 | |
| GOEST3-10 | 2026-08-30 13:00:52 | 51.74475 | 8.52468 | 78° | 93km/h | 8538m | -6.7m/s | -33.9°C | 64.0% | 341.8hPa | 2.5V | 00:00:00 | 02:43:01 | 00:00:00 | |
| DL1XH-15 | 2026-08-30 13:00:51 | 51.74466 | 8.52394 | 79° | 95km/h | 8552m | -7m/s | -34.1°C | 65% | 341.1hPa | 2.5V | 08:04:07 | 02:42:59 | 00:00:00 | |
| DL1XH-west | 2026-08-30 13:00:51 | 51.74471 | 8.52432 | 79° | 91km/h | 8545m | -7.1m/s | -34°C | 66.6% | 341.4hPa | 2.6V | 08:04:45 | 02:43:00 | 00:00:00 | |
| DM0DOS-11 | 2026-08-30 13:00:49 | 51.74445 | 8.52241 | 75° | 95km/h | 8579m | -6.7m/s | -34.2°C | 66.8% | 339.8hPa | 2.6V | 08:04:11 | 02:42:55 | 00:00:00 | |
| DO2JMG | 2026-08-30 13:00:49 | 51.74462 | 8.52356 | 79° | 97km/h | 8559m | -6.8m/s | -34.1°C | 67.4% | 340.8hPa | 2.5V | 08:04:45 | 02:42:58 | 00:00:00 | |
| HSKMA3-T | 2026-08-30 13:00:46 | 51.74445 | 8.52241 | 76° | 95km/h | 8579m | -6.7m/s | -34.3°C | 68.8% | 339.8hPa | 2.6V | 08:04:45 | 02:42:55 | 00:00:00 | |
| DL1ZP-14 | 2026-08-30 13:00:45 | 51.74439 | 8.52204 | 75° | 91km/h | 8586m | -6.6m/s | -34.3°C | 62.9% | 339.5hPa | 2.6V | 00:00:00 | 00:00:00 | 00:00:00 | |
| DB0UT-7 | 2026-08-30 13:00:43 | 51.74429 | 8.52130 | 78° | 97km/h | 8599m | -6.8m/s | -34.4°C | 66.9% | 338.8hPa | 2.5V | 00:00:00 | 02:42:52 | 00:00:00 | |
| DB0ND-19 | 2026-08-30 13:00:42 | 51.74419 | 8.52054 | 77° | 97km/h | 8613m | -6.9m/s | -34.5°C | 62.7% | 338.2hPa | 2.5V | 00:00:00 | 00:00:00 | 00:00:00 | |
| DL1NUX | 2026-08-30 13:00:41 | 51.74390 | 8.51863 | 76° | 97km/h | 8647m | -7m/s | -34.8°C | 66.7% | 336.5hPa | 2.5V | 08:04:21 | 02:42:45 | 00:00:00 | |
| DL1XH-west | 2026-08-30 13:00:40 | 51.74414 | 8.52016 | 77° | 97km/h | 8620m | -6.8m/s | -34.6°C | 68.7% | 337.9hPa | 2.6V | 08:04:45 | 02:42:49 | 00:00:00 | |
| DO2JMG | 2026-08-30 13:00:39 | 51.74408 | 8.51977 | 76° | 97km/h | 8627m | -6.6m/s | -34.7°C | 68.6% | 337.5hPa | 2.6V | 08:04:45 | 02:42:48 | 00:00:00 | |
| HSKMA3-T | 2026-08-30 13:00:35 | 51.74384 | 8.51825 | 76° | 97km/h | 8654m | -6.7m/s | -34.9°C | 68.5% | 336.1hPa | 2.6V | 08:04:45 | 02:42:44 | 00:00:00 | |
| DL3AQ-11 | 2026-08-30 13:00:35 | 51.74378 | 8.51786 | 74° | 97km/h | 8661m | -7.0m/s | -34.9°C | 62.5% | 335.8hPa | 2.5V | 00:00:00 | 00:00:00 | 00:00:00 | |
| AM1SDL-15 | 2026-08-30 13:00:34 | 51.74378 | 8.51786 | 75° | 97km/h | 8662m | -7.0m/s | -34.9°C | 66.6% | 335.8hPa | 2.5V | 00:00:00 | 02:42:43 | 00:00:00 | |
| GOEST3-10 | 2026-08-30 13:00:32 | 51.74365 | 8.51710 | 76° | 97km/h | 8676m | -7.0m/s | -35.0°C | 67.1% | 335.1hPa | 2.5V | 00:00:00 | 02:42:41 | 00:00:00 | |
| DJ2DS-15 | 2026-08-30 13:00:31 | 51.74360 | 8.51672 | 78° | 99km/h | 8683m | -6.6m/s | -35.0°C | 67.4% | 334.8hPa | 2.5V | 08:04:00 | 02:42:40 | 00:00:00 | |
| DL1NUX | 2026-08-30 13:00:30 | 51.74332 | 8.51481 | 77° | 97km/h | 8717m | -6.9m/s | -35.3°C | 67.1% | 333.2hPa | 2.6V | 08:04:31 | 02:42:35 | 00:00:00 | |
| DL1XH-west | 2026-08-30 13:00:29 | 51.74349 | 8.51595 | 76° | 97km/h | 8697m | -7.1m/s | -35.2°C | 69.3% | 334.2hPa | 2.5V | 08:04:45 | 02:42:38 | 00:00:00 | |
| DO2JMG | 2026-08-30 13:00:28 | 51.74343 | 8.51557 | 76° | 97km/h | 8704m | -6.9m/s | -35.2°C | 69.3% | 333.8hPa | 2.6V | 08:04:45 | 02:42:37 | 00:00:00 | |
| DO9LL-15 | 2026-08-30 13:00:28 | 51.74337 | 8.51519 | 78° | 99km/h | 8711m | -6.6m/s | -35.2°C | 67.4% | 333.4hPa | 2.6V | 00:00:00 | 02:42:36 | 00:00:00 | |
| GOEST3-10 | 2026-08-30 13:00:27 | 51.74337 | 8.51519 | 78° | 97km/h | 8711m | -6.6m/s | -35.2°C | 67.4% | 333.4hPa | 2.6V | 00:00:00 | 00:00:00 | 00:00:00 | |
| DD1CC8 | 2026-08-30 13:00:26 | 51.74332 | 8.51481 | 77° | 97km/h | 8717m | -6.9m/s | -35.3°C | 62.9% | 333.2hPa | 2.6V | 00:00:00 | 00:00:00 | 00:00:00 | |
| DL1XH-15 | 2026-08-30 13:00:25 | 51.74300 | 8.51243 | 76° | 102km/h | 8759m | -6.7m/s | -35.7°C | 64.8% | 331.1hPa | 2.6V | 08:04:37 | 02:42:29 | 00:00:00 | |
| HSKMA3-T | 2026-08-30 13:00:24 | 51.74322 | 8.51402 | 78° | 99km/h | 8731m | -7.2m/s | -35.5°C | 68.3% | 332.5hPa | 2.5V | 08:04:45 | 02:42:33 | 00:00:00 | |
| DL3AQ-11 | 2026-08-30 13:00:24 | 51.74316 | 8.51363 | 77° | 97km/h | 8739m | -7.0m/s | -35.5°C | 62.0% | 332.1hPa | 2.6V | 00:00:00 | 00:00:00 | 00:00:00 | |
| GOEST3-10 | 2026-08-30 13:00:22 | 51.74311 | 8.51324 | 79° | 102km/h | 8746m | -6.8m/s | -35.5°C | 65.7% | 331.7hPa | 2.6V | 00:00:00 | 02:42:31 | 00:00:00 | |
| DC4HF-4 | 2026-08-30 13:00:21 | 51.74300 | 8.51243 | 76° | 102km/h | 8759m | -6.7m/s | -35.7°C | 60.6% | 331.1hPa | 2.6V | 00:00:00 | 00:00:00 | 00:00:00 | |
| DM0DOS-11 | 2026-08-30 13:00:19 | 51.74273 | 8.51086 | 73° | 95km/h | 8787m | -7m/s | -35.9°C | 62.5% | 329.8hPa | 2.6V | 08:04:41 | 02:42:25 | 00:00:00 | |
| BIOWL1-15 | 2026-08-30 13:00:19 | 51.74294 | 8.51202 | 75° | 102km/h | 8766m | -7.1m/s | -35.8°C | 66.6% | 330.8hPa | 2.5V | 08:04:45 | 02:42:28 | 00:00:00 | |
| DO2JMG | 2026-08-30 13:00:18 | 51.74287 | 8.51162 | 73° | 100km/h | 8773m | -7.1m/s | -35.8°C | 65.8% | 330.5hPa | 2.5V | 08:04:45 | 02:42:27 | 00:00:00 | |
| SONCRA | 2026-08-30 13:00:17 | 51.74273 | 8.51086 | 73° | 95km/h | 8787m | -7.0m/s | -35.9°C | 58.4% | 329.8hPa | 2.6V | 00:00:00 | 00:00:00 | 00:00:00 | |
| DJ2KF-10 | 2026-08-30 13:00:16 | 51.74273 | 8.51086 | 74° | 100km/h | 8787m | -7.0m/s | -35.9°C | 62.5% | 329.7hPa | 2.6V | 00:00:00 | 02:42:25 | 00:00:00 | |
| DO3DL | 2026-08-30 13:00:15 | 51.74273 | 8.51086 | 74° | 95km/h | 8787m | -7.0m/s | -35.9°C | 58.4% | 329.8hPa | 2.6V | 08:04:00 | 00:00:00 | 00:00:00 | |
| DL1XH-15 | 2026-08-30 13:00:14 | 51.74238 | 8.50858 | 77° | 100km/h | 8829m | -7.1m/s | -36.2°C | 62.4% | 327.8hPa | 2.6V | 08:04:47 | 02:42:19 | 00:00:00 | |
| HSKMA3-T | 2026-08-30 13:00:14 | 51.74260 | 8.51012 | 76° | 93km/h | 8801m | -6.8m/s | -36°C | 64.6% | 329.2hPa | 2.6V | 08:04:45 | 02:42:23 | 00:00:00 | |
| DB0UT-7 | 2026-08-30 13:00:13 | 51.74254 | 8.50975 | 77° | 100km/h | 8808m | -6.8m/s | -36.0°C | 62.6% | 328.8hPa | 2.5V | 00:00:00 | 00:00:00 | 00:00:00 | |
| GOEST3-10 | 2026-08-30 13:00:12 | 51.74249 | 8.50937 | 79° | 99km/h | 8815m | -6.8m/s | -36.1°C | 62.7% | 328.5hPa | 2.5V | 00:00:00 | 02:42:21 | 00:00:00 | |
| DB0ND-19 | 2026-08-30 13:00:11 | 51.74238 | 8.50858 | 77° | 99km/h | 8829m | -7.1m/s | -36.2°C | 58.3% | 327.8hPa | 2.5V | 00:00:00 | 00:00:00 | 00:00:00 | |
| DL1NUX | 2026-08-30 13:00:10 | 51.74216 | 8.50699 | 76° | 100km/h | 8857m | -7.1m/s | -36.5°C | 62.1% | 326.5hPa | 2.5V | 08:04:51 | 02:42:15 | 00:00:00 | |
| BIOWL1-15 | 2026-08-30 13:00:08 | 51.74227 | 8.50779 | 77° | 99km/h | 8843m | -7.1m/s | -36.4°C | 64.7% | 327.2hPa | 2.5V | 08:05:36 | 02:42:17 | 00:00:00 | |
| DL1XH-west | 2026-08-30 13:00:07 | 51.74222 | 8.50739 | 78° | 100km/h | 8850m | -7m/s | -36.4°C | 64.6% | 326.9hPa | 2.5V | 08:05:36 | 02:42:16 | 00:00:00 | |
| BIOWL9-15 | 2026-08-30 13:00:07 | 51.74216 | 8.50699 | 76° | 100km/h | 8857m | -7.1m/s | -36.5°C | 58.0% | 326.5hPa | 2.5V | 00:00:00 | 00:00:00 | 00:00:00 | |
| AM1SDL-15 | 2026-08-30 13:00:06 | 51.74216 | 8.50699 | 77° | 100km/h | 8857m | -7.1m/s | -36.4°C | 62.1% | 326.5hPa | 2.5V | 00:00:00 | 02:42:15 | 00:00:00 | |
| DB0NH | 2026-08-30 13:00:05 | 51.74210 | 8.50659 | 78° | 102km/h | 8864m | -7.2m/s | -36.5°C | 61.9% | 326.1hPa | 2.5V | 00:00:00 | 02:42:14 | 00:00:00 | |
| DL1XH-15 | 2026-08-30 13:00:04 | 51.74184 | 8.50460 | 79° | 99km/h | 8899m | -6.8m/s | -36.7°C | 61.3% | 324.5hPa | 2.5V | 08:04:57 | 02:42:09 | 00:00:00 | |
| HSKMA3-T | 2026-08-30 13:00:03 | 51.74199 | 8.50579 | 77° | 100km/h | 8879m | -7.1m/s | -36.6°C | 63.9% | 325.5hPa | 2.6V | 08:05:36 | 02:42:12 | 00:00:00 | |
| BIOWL1-15 | 2026-08-30 13:00:00 | 51.74174 | 8.50379 | 79° | 102km/h | 8913m | -7.1m/s | -36.8°C | 63.2% | 323.9hPa | 2.6V | 08:05:36 | 02:42:07 | 00:00:00 | |
| DD8BA-10 | 2026-08-30 12:59:59 | 51.74179 | 8.50420 | 80° | 102km/h | 8906m | -6.9m/s | -36.7°C | 61.2% | 324.2hPa | 2.5V | 00:00:00 | 00:00:00 | 00:00:00 | |
| DL1XH1-15 | 2026-08-30 12:59:58 | 51.74154 | 8.50218 | 79° | 99km/h | 8940m | -6.9m/s | -37°C | 60.3% | 322.6hPa | 2.5V | 08:05:03 | 02:42:03 | 00:00:00 | |
| DL1NUX | 2026-08-30 12:59:58 | 51.74164 | 8.50297 | 77° | 100km/h | 8927m | -6.8m/s | -36.9°C | 60.8% | 323.2hPa | 2.5V | 08:05:01 | 02:42:05 | 00:00:00 | |
| DL1XH-west | 2026-08-30 12:59:57 | 51.74169 | 8.50338 | 78° | 102km/h | 8920m | -6.8m/s | -36.9°C | 63.1% | 323.6hPa | 2.6V | 08:05:36 | 02:42:06 | 00:00:00 | |
| DO2JMG | 2026-08-30 12:59:56 | 51.74164 | 8.50297 | 78° | 100km/h | 8927m | -6.8m/s | -36.9°C | 63.1% | 323.2hPa | 2.5V | 08:05:36 | 02:42:05 | 00:00:00 | |
| HSKMA3-T | 2026-08-30 12:59:52 | 51.74146 | 8.50138 | 81° | 102km/h | 8954m | -7m/s | -37.1°C | 62.4% | 321.9hPa | 2.6V | 08:05:36 | 02:42:01 | 00:00:00 | |
| GOEST3-10 | 2026-08-30 12:59:52 | 51.74145 | 8.50138 | 82° | 104km/h | 8954m | -7.0m/s | -37.1°C | 59.8% | 321.8hPa | 2.5V | 00:00:00 | 02:42:01 | 00:00:00 | |
| DM0DOS-11 | 2026-08-30 12:59:51 | 51.74119 | 8.49886 | 79° | 104km/h | 8997m | -6.9m/s | -37.5°C | 59.5% | 319.9hPa | 2.5V | 08:05:11 | 02:41:55 | 00:00:00 | |
| DJ2DS-15 | 2026-08-30 12:59:51 | 51.74141 | 8.50096 | 81° | 104km/h | 8961m | -7.1m/s | -37.1°C | 59.6% | 321.5hPa | 2.6V | 00:00:00 | 02:42:00 | 00:00:00 | |
| DD8BA-10 | 2026-08-30 12:59:49 | 51.74133 | 8.50013 | 82° | 102km/h | 8976m | -7.5m/s | -37.3°C | 59.6% | 320.8hPa | 2.6V | 00:00:00 | 00:00:00 | 00:00:00 | |
| DL1NUX | 2026-08-30 12:59:48 | 51.74114 | 8.49845 | 78° | 102km/h | 9004m | -7.3m/s | -37.5°C | 59.4% | 319.6hPa | 2.5V | 08:05:12 | 02:41:54 | 00:00:00 | |
| BIOWL1-15 | 2026-08-30 12:59:48 | 51.74129 | 8.49970 | 80° | 106km/h | 8983m | -7.2m/s | -37.4°C | 61.9% | 320.5hPa | 2.6V | 08:05:36 | 02:41:57 | 00:00:00 | |
| GOEST3-10 | 2026-08-30 12:59:47 | 51.74124 | 8.49928 | 80° | 102km/h | 8990m | -6.9m/s | -37.4°C | 59.6% | 320.1hPa | 2.6V | 00:00:00 | 00:00:00 | 00:00:00 | |
| DL1XH1-15 | 2026-08-30 12:59:46 | 51.74109 | 8.49804 | 79° | 102km/h | 9011m | -6.9m/s | -37.6°C | 59.6% | 319.2hPa | 2.6V | 08:05:13 | 02:41:53 | 00:00:00 | |
| DL1XH-west | 2026-08-30 12:59:46 | 51.74119 | 8.49886 | 79° | 104km/h | 8997m | -6.9m/s | -37.5°C | 61.8% | 319.9hPa | 2.5V | 08:05:36 | 02:41:55 | 00:00:00 | |
| DO2JMG | 2026-08-30 12:59:45 | 51.74114 | 8.49845 | 79° | 102km/h | 9004m | -7.3m/s | -37.5°C | 61.7% | 319.6hPa | 2.5V | 08:05:36 | 02:41:54 | 00:00:00 | |
| DC4HF-4 | 2026-08-30 12:59:44 | 51.74109 | 8.49804 | 79° | 100km/h | 9011m | -6.9m/s | -37.6°C | 55.4% | 319.2hPa | 2.5V | 00:00:00 | 00:00:00 | 00:00:00 | |
| HSKMA3-T | 2026-08-30 12:59:41 | 51.74096 | 8.49681 | 80° | 102km/h | 9033m | -7.5m/s | -37.8°C | 62.5% | 318.3hPa | 2.5V | 08:05:36 | 02:41:50 | 00:00:00 | |
| DL8OAI-8 | 2026-08-30 12:59:40 | 51.74096 | 8.49681 | 81° | 102km/h | 9033m | -7.5m/s | -37.8°C | 56.0% | 318.3hPa | 2.5V | 08:05:00 | 00:00:00 | 00:00:00 | |
| DL4XJ-10 | 2026-08-30 12:59:39 | 51.74088 | 8.49599 | 83° | 106km/h | 9048m | -7.0m/s | -37.4°C | 0% | 0hPa | 2.5V | 00:00:00 | 00:00:00 | 00:00:00 | |
| DL1NUX | 2026-08-30 12:59:38 | 51.74072 | 8.49432 | 81° | 106km/h | 9077m | -7.2m/s | -38.2°C | 60.6% | 316.2hPa | 2.5V | 08:05:22 | 02:41:44 | 00:00:00 | |
| DL1XH1-15 | 2026-08-30 12:59:38 | 51.74067 | 8.49389 | 79° | 106km/h | 9084m | -7.4m/s | -38.3°C | 60.5% | 315.9hPa | 2.6V | 08:05:23 | 02:41:43 | 00:00:00 | |
| BIOWL1-15 | 2026-08-30 12:59:37 | 51.74080 | 8.49516 | 81° | 104km/h | 9062m | -7.5m/s | -38.1°C | 62.7% | 316.9hPa | 2.6V | 08:05:36 | 02:41:46 | 00:00:00 | |
| DL1XH-west | 2026-08-30 12:59:36 | 51.74076 | 8.49474 | 81° | 104km/h | 9070m | -7.4m/s | -38.1°C | 62.6% | 316.5hPa | 2.5V | 08:05:36 | 02:41:45 | 00:00:00 | |
| DO2JMG | 2026-08-30 12:59:34 | 51.74067 | 8.49389 | 80° | 106km/h | 9084m | -7.4m/s | -38.3°C | 62.5% | 315.9hPa | 2.6V | 08:05:36 | 02:41:43 | 00:00:00 | |
| DO2KSM | 2026-08-30 12:59:33 | 51.74067 | 8.49389 | 81° | 106km/h | 9084m | -7.4m/s | -38.3°C | 56.1% | 315.9hPa | 2.5V | 08:05:00 | 00:00:00 | 00:00:00 | |
| GOEST3-10 | 2026-08-30 12:59:32 | 51.74057 | 8.49305 | 80° | 104km/h | 9099m | -7.1m/s | -38.4°C | 60.5% | 315.2hPa | 2.5V | 00:00:00 | 02:41:41 | 00:00:00 | |
| DM0DOS-11 | 2026-08-30 12:59:31 | 51.74030 | 8.49051 | 81° | 106km/h | 9142m | -7.2m/s | -38.7°C | 59.8% | 313.2hPa | 2.5V | 08:05:31 | 02:41:35 | 00:00:00 | |
| HSKMA3-T | 2026-08-30 12:59:31 | 51.74053 | 8.49263 | 80° | 104km/h | 9106m | -7.1m/s | -38.5°C | 62.3% | 314.9hPa | 2.5V | 08:05:36 | 02:41:40 | 00:00:00 | |
| DJ2DS-15 | 2026-08-30 12:59:31 | 51.74053 | 8.49263 | 81° | 108km/h | 9106m | -7.0m/s | -38.4°C | 60.4% | 314.8hPa | 2.5V | 00:00:00 | 02:41:40 | 00:00:00 | |
| DL1CLM-18 | 2026-08-30 12:59:30 | 51.74052 | 8.49263 | 81° | 104km/h | 9106m | -7.1m/s | -38.5°C | 56.1% | 314.8hPa | 2.6V | 00:00:00 | 00:00:00 | 00:00:00 | |
| DD8BA-10 | 2026-08-30 12:59:29 | 51.74043 | 8.49179 | 81° | 108km/h | 9121m | -7.7m/s | -38.5°C | 59.9% | 314.2hPa | 2.6V | 00:00:00 | 00:00:00 | 00:00:00 | |
| DO9LL-15 | 2026-08-30 12:59:27 | 51.74034 | 8.49094 | 82° | 110km/h | 9135m | -7.0m/s | -38.6°C | 60.0% | 313.5hPa | 2.6V | 00:00:00 | 02:41:36 | 00:00:00 | |
| DL1XH1-15 | 2026-08-30 12:59:26 | 51.74023 | 8.48965 | 82° | 108km/h | 9156m | -7.2m/s | -38.8°C | 59.3% | 312.6hPa | 2.5V | 08:05:33 | 02:41:33 | 00:00:00 | |
| DL1XH-west | 2026-08-30 12:59:26 | 51.74030 | 8.49051 | 81° | 106km/h | 9142m | -7.3m/s | -38.7°C | 61.6% | 313.2hPa | 2.5V | 08:05:36 | 02:41:35 | 00:00:00 | |
| DO2JMG | 2026-08-30 12:59:24 | 51.74023 | 8.48965 | 83° | 108km/h | 9156m | -7.2m/s | -38.8°C | 61.2% | 312.6hPa | 2.5V | 08:05:36 | 02:41:33 | 00:00:00 | |
| HSKMA3-T | 2026-08-30 12:59:20 | 51.74008 | 8.48790 | 82° | 111km/h | 9186m | -7.5m/s | -39°C | 61.4% | 311.2hPa | 2.5V | 08:06:27 | 02:41:29 | 00:00:00 | |
| DL8DAS-14 | 2026-08-30 12:59:20 | 51.74008 | 8.48790 | 81° | 110km/h | 9186m | -7.5m/s | -39.0°C | 55.3% | 311.2hPa | 2.5V | 00:00:00 | 00:00:00 | 00:00:00 | |
| DM0DOS-11 | 2026-08-30 12:59:19 | 51.73992 | 8.48613 | 81° | 110km/h | 9214m | -7.3m/s | -39.3°C | 60.2% | 309.9hPa | 2.5V | 08:05:41 | 02:41:25 | 00:00:00 | |
| DD8BA-10 | 2026-08-30 12:59:19 | 51.74004 | 8.48746 | 82° | 110km/h | 9193m | -6.9m/s | -39.1°C | 59.9% | 310.9hPa | 2.6V | 00:00:00 | 00:00:00 | 00:00:00 | |
| DL1XH1-15 | 2026-08-30 12:59:18 | 51.73983 | 8.48525 | 80° | 110km/h | 9229m | -7.2m/s | -39.4°C | 60.5% | 309.2hPa | 2.6V | 08:05:43 | 02:41:23 | 00:00:00 | |
| DL1XH-west | 2026-08-30 12:59:15 | 51.73987 | 8.48569 | 81° | 111km/h | 9221m | -7.4m/s | -39.3°C | 61.9% | 309.6hPa | 2.5V | 08:06:27 | 02:41:24 | 00:00:00 | |
| DO2JMG | 2026-08-30 12:59:14 | 51.73983 | 8.48525 | 80° | 110km/h | 9229m | -7.2m/s | -39.4°C | 61.9% | 309.2hPa | 2.6V | 08:06:27 | 02:41:23 | 00:00:00 | |
| DB0UT-7 | 2026-08-30 12:59:13 | 51.73978 | 8.48481 | 81° | 110km/h | 9236m | -7.0m/s | -39.3°C | 60.0% | 308.9hPa | 2.6V | 00:00:00 | 00:00:00 | 00:00:00 | |
| GOEST3-10 | 2026-08-30 12:59:12 | 51.73973 | 8.48437 | 80° | 110km/h | 9243m | -7.3m/s | -39.4°C | 59.6% | 308.5hPa | 2.6V | 08:05:00 | 02:41:21 | 00:00:00 | |
| DM0DOS-11 | 2026-08-30 12:59:11 | 51.73945 | 8.48174 | 80° | 108km/h | 9287m | -7m/s | -39.7°C | 57.7% | 306.6hPa | 2.5V | 08:05:51 | 02:41:15 | 00:00:00 | |
| HSKMA3-T | 2026-08-30 12:59:09 | 51.73959 | 8.48305 | 81° | 108km/h | 9265m | -6.9m/s | -39.6°C | 61% | 307.6hPa | 2.5V | 08:06:27 | 02:41:18 | 00:00:00 | |
| DD8BA-10 | 2026-08-30 12:59:09 | 51.73958 | 8.48305 | 81° | 110km/h | 9265m | -6.9m/s | -39.5°C | 59.2% | 307.6hPa | 2.5V | 00:00:00 | 00:00:00 | 00:00:00 | |
| DL1NUX | 2026-08-30 12:59:08 | 51.73940 | 8.48130 | 79° | 110km/h | 9294m | -7.5m/s | -39.7°C | 57.2% | 306.3hPa | 2.5V | 08:05:52 | 02:41:14 | 00:00:00 | |
| DL1XH-west | 2026-08-30 12:59:05 | 51.73940 | 8.48130 | 80° | 110km/h | 9294m | -7.5m/s | -39.7°C | 59.3% | 306.3hPa | 2.5V | 08:06:27 | 02:41:14 | 00:00:00 | |
| DO2JMG | 2026-08-30 12:59:04 | 51.73935 | 8.48086 | 79° | 110km/h | 9302m | -7.3m/s | -39.8°C | 59% | 306hPa | 2.5V | 08:06:27 | 02:41:13 | 00:00:00 | |
| GOEST3-10 | 2026-08-30 12:59:01 | 51.73920 | 8.47954 | 81° | 110km/h | 9324m | -7.6m/s | -39.9°C | 55.8% | 304.9hPa | 2.6V | 00:00:00 | 02:41:10 | 00:00:00 | |
| DB0NH | 2026-08-30 12:59:00 | 51.73915 | 8.47910 | 81° | 111km/h | 9331m | -7.3m/s | -40.0°C | 55.7% | 304.6hPa | 2.6V | 00:00:00 | 02:41:09 | 00:00:00 | |
| DM0DOS-11 | 2026-08-30 12:58:59 | 51.73898 | 8.47734 | 81° | 110km/h | 9361m | -7.5m/s | -40.3°C | 56.3% | 303.3hPa | 2.6V | 08:06:01 | 02:41:05 | 00:00:00 | |
| HSKMA3-T | 2026-08-30 12:58:59 | 51.73911 | 8.47867 | 81° | 110km/h | 9338m | -7.4m/s | -40.1°C | 57.9% | 304.4hPa | 2.5V | 08:06:27 | 02:41:08 | 00:00:00 | |
| DL4XJ-10 | 2026-08-30 12:58:59 | 51.73911 | 8.47867 | 81° | 110km/h | 9339m | -7.3m/s | -39.5°C | 0% | 0hPa | 2.5V | 00:00:00 | 00:00:00 | 00:00:00 | |
| DL1NUX | 2026-08-30 12:58:58 | 51.73893 | 8.47690 | 80° | 110km/h | 9368m | -7.2m/s | -40.4°C | 56.4% | 303hPa | 2.5V | 08:06:02 | 02:41:04 | 00:00:00 | |
| DL9SK-14 | 2026-08-30 12:58:56 | 51.73893 | 8.47690 | 80° | 110km/h | 9368m | -7.2m/s | -40.4°C | 51.9% | 303.0hPa | 2.5V | 00:00:00 | 00:00:00 | 00:00:00 | |
| DL1XH-15 | 2026-08-30 12:58:54 | 51.73869 | 8.47470 | 78° | 110km/h | 9405m | -7.4m/s | -40.7°C | 55.3% | 301.4hPa | 2.5V | 08:06:07 | 02:40:59 | 00:00:00 | |
| DL1XH-west | 2026-08-30 12:58:54 | 51.73889 | 8.47646 | 80° | 110km/h | 9375m | -7.2m/s | -40.4°C | 58.3% | 302.6hPa | 2.5V | 08:06:27 | 02:41:03 | 00:00:00 | |
| DO2JMG | 2026-08-30 12:58:53 | 51.73884 | 8.47602 | 81° | 110km/h | 9383m | -7.4m/s | -40.5°C | 58.2% | 302.3hPa | 2.6V | 08:06:27 | 02:41:02 | 00:00:00 | |
| DJ2DS-15 | 2026-08-30 12:58:51 | 51.73874 | 8.47514 | 80° | 111km/h | 9398m | -7.5m/s | -40.6°C | 55.7% | 301.7hPa | 2.5V | 00:00:00 | 02:41:00 | 00:00:00 | |
| DD8BA-10 | 2026-08-30 12:58:49 | 51.73864 | 8.47427 | 79° | 111km/h | 9412m | -7.1m/s | -40.7°C | 55.0% | 301.0hPa | 2.5V | 08:06:00 | 00:00:00 | 00:00:00 | |
| DL1NUX | 2026-08-30 12:58:48 | 51.73843 | 8.47252 | 80° | 110km/h | 9441m | -7.1m/s | -41°C | 55.3% | 299.7hPa | 2.5V | 08:06:12 | 02:40:54 | 00:00:00 | |
| HSKMA3-T | 2026-08-30 12:58:48 | 51.73858 | 8.47383 | 78° | 110km/h | 9419m | -7.4m/s | -40.8°C | 57.4% | 300.7hPa | 2.6V | 08:06:27 | 02:40:57 | 00:00:00 | |
| DL3AQ-11 | 2026-08-30 12:58:48 | 51.73853 | 8.47339 | 78° | 108km/h | 9427m | -7.5m/s | -40.9°C | 50.6% | 300.3hPa | 2.5V | 00:00:00 | 00:00:00 | 00:00:00 | |
| DL1XH1-15 | 2026-08-30 12:58:46 | 51.73838 | 8.47208 | 80° | 111km/h | 9448m | -7.1m/s | -41°C | 55.4% | 299.4hPa | 2.5V | 08:06:13 | 02:40:53 | 00:00:00 | |
| GOEST3-10 | 2026-08-30 12:58:46 | 51.73847 | 8.47296 | 80° | 111km/h | 9434m | -7.1m/s | -40.9°C | 55.3% | 300.0hPa | 2.5V | 00:00:00 | 00:00:00 | 00:00:00 | |
| DL1XH-15 | 2026-08-30 12:58:44 | 51.73818 | 8.47029 | 79° | 111km/h | 9477m | -7.5m/s | -41.3°C | 55.3% | 298.1hPa | 2.5V | 08:06:17 | 02:40:49 | 00:00:00 | |
| AA1-15 | 2026-08-30 12:58:44 | 51.73838 | 8.47208 | 80° | 111km/h | 9448m | -7.1m/s | -41.1°C | 57.6% | 299.4hPa | 2.5V | 08:06:27 | 02:40:53 | 00:00:00 | |
| BIOWL1-15 | 2026-08-30 12:58:43 | 51.73833 | 8.47163 | 81° | 113km/h | 9456m | -7.4m/s | -41.1°C | 57.7% | 299.1hPa | 2.5V | 08:06:27 | 02:40:52 | 00:00:00 | |
| DO2JMG | 2026-08-30 12:58:42 | 51.73828 | 8.47118 | 80° | 111km/h | 9463m | -7.6m/s | -41.2°C | 57.6% | 298.8hPa | 2.6V | 08:06:27 | 02:40:51 | 00:00:00 | |
| DF8AY | 2026-08-30 12:58:41 | 51.73823 | 8.47073 | 80° | 111km/h | 9470m | -7.2m/s | -41.3°C | 57.6% | 0hPa | 2.6V | 08:06:27 | 02:40:50 | 00:00:00 | |
| DB0DAN | 2026-08-30 12:58:40 | 51.73818 | 8.47029 | 80° | 106km/h | 9477m | -7.5m/s | -41.3°C | 50.7% | 298.15hPa | 2.5V | 00:00:00 | 00:00:00 | 00:00:00 | |
| DD8BA-10 | 2026-08-30 12:58:39 | 51.73813 | 8.46984 | 81° | 113km/h | 9485m | -7.2m/s | -41.3°C | 55.1% | 297.8hPa | 2.6V | 00:00:00 | 00:00:00 | 00:00:00 | |
| DL1NUX | 2026-08-30 12:58:38 | 51.73794 | 8.46803 | 80° | 113km/h | 9514m | -7.3m/s | -41.6°C | 57.2% | 296.5hPa | 2.6V | 08:06:22 | 02:40:44 | 00:00:00 | |
| HSKMA3-T | 2026-08-30 12:58:38 | 51.73808 | 8.46939 | 80° | 113km/h | 9492m | -7.4m/s | -41.4°C | 57.7% | 297.5hPa | 2.5V | 08:06:27 | 02:40:47 | 00:00:00 | |
| S3001 | 2026-08-30 12:58:37 | 51.73794 | 8.46803 | 80° | 113km/h | 9514m | -7.3m/s | -41.6°C | 52.5% | 296.5hPa | 2.6V | 00:00:00 | 00:00:00 | 00:00:00 | |
| BUE01 | 2026-08-30 12:58:36 | 51.73794 | 8.46803 | 80° | 113km/h | 9514m | -7.3m/s | -41.6°C | 52.5% | 296.5hPa | 2.6V | 00:00:00 | 00:00:00 | 00:00:00 | |
| DL3AQ-11 | 2026-08-30 12:58:35 | 51.73790 | 8.46757 | 81° | 111km/h | 9521m | -7.5m/s | -41.7°C | 53.2% | 296.2hPa | 2.6V | 00:00:00 | 00:00:00 | 00:00:00 | |
| DL1XH-15 | 2026-08-30 12:58:34 | 51.73772 | 8.46575 | 79° | 113km/h | 9551m | -7.3m/s | -42°C | 59.6% | 294.9hPa | 2.6V | 08:06:27 | 02:40:39 | 00:00:00 | |
| BIOWL1-15 | 2026-08-30 12:58:32 | 51.73781 | 8.46666 | 82° | 113km/h | 9536m | -7.2m/s | -41.8°C | 61.2% | 295.6hPa | 2.5V | 08:06:27 | 02:40:41 | 00:00:00 | |
| DO2JMG | 2026-08-30 12:58:31 | 51.73777 | 8.46621 | 81° | 115km/h | 9543m | -7.6m/s | -41.9°C | 61.5% | 295.3hPa | 2.6V | 08:06:27 | 02:40:40 | 00:00:00 | |
| DF8AY | 2026-08-30 12:58:30 | 51.73772 | 8.46575 | 80° | 113km/h | 9551m | -7.4m/s | 0°C | 0% | 0hPa | 2.6V | 08:06:27 | 02:40:39 | 00:00:00 | |
| DB0NH | 2026-08-30 12:58:29 | 51.73767 | 8.46529 | 81° | 117km/h | 9558m | -7.6m/s | -42.0°C | 59.7% | 294.6hPa | 2.6V | 00:00:00 | 02:40:38 | 00:00:00 | |
| DL1NUX | 2026-08-30 12:58:28 | 51.73747 | 8.46347 | 80° | 113km/h | 9587m | -7.4m/s | -42.3°C | 60.1% | 293.3hPa | 2.6V | 08:06:32 | 02:40:34 | 00:00:00 | |
| HSKMA3-T | 2026-08-30 12:58:27 | 51.73757 | 8.46438 | 80° | 113km/h | 9573m | -7.3m/s | -42.2°C | 62.2% | 293.9hPa | 2.5V | 08:07:18 | 02:40:36 | 00:00:00 | |
| DB0DAN | 2026-08-30 12:58:25 | 51.73747 | 8.46347 | 81° | 108km/h | 9587m | -7.4m/s | -42.3°C | 55.1% | 293.32hPa | 2.6V | 00:00:00 | 00:00:00 | 00:00:00 | |
| DL9SK-14 | 2026-08-30 12:58:24 | 51.73743 | 8.46302 | 81° | 113km/h | 9595m | -7.3m/s | -42.4°C | 54.8% | 293.0hPa | 2.6V | 00:00:00 | 00:00:00 | 00:00:00 | |
| DD1CC1-15 | 2026-08-30 12:58:23 | 51.73743 | 8.46302 | 82° | 113km/h | 9595m | -7.3m/s | -42.4°C | 54.8% | 293.0hPa | 2.6V | 08:07:00 | 00:00:00 | 00:00:00 | |
| DL1XH-15 | 2026-08-30 12:58:22 | 51.73724 | 8.46117 | 80° | 117km/h | 9624m | -7.7m/s | -42.6°C | 58.9% | 291.7hPa | 2.6V | 08:06:37 | 02:40:29 | 00:00:00 | |
| BIOWL1-15 | 2026-08-30 12:58:21 | 51.73728 | 8.46164 | 81° | 115km/h | 9617m | -7.6m/s | -42.5°C | 61.3% | 292.1hPa | 2.5V | 08:07:18 | 02:40:30 | 00:00:00 | |
| DO2JMG | 2026-08-30 12:58:20 | 51.73724 | 8.46117 | 81° | 117km/h | 9624m | -7.7m/s | -42.6°C | 61.1% | 291.7hPa | 2.6V | 08:07:18 | 02:40:29 | 00:00:00 | |
| DL1XH1-15 | 2026-08-30 12:58:19 | 51.73695 | 8.45833 | 80° | 119km/h | 9670m | -7.6m/s | -43°C | 58.4% | 289.8hPa | 2.6V | 08:06:43 | 02:40:23 | 00:00:00 | |
| DF8AY | 2026-08-30 12:58:18 | 51.73715 | 8.46023 | 81° | 117km/h | 9640m | -7.7m/s | 0°C | 0% | 0hPa | 2.5V | 18:12:15 | 02:40:27 | 00:00:00 | |
| HSKMA3-T | 2026-08-30 12:58:17 | 51.73710 | 8.45975 | 81° | 119km/h | 9647m | -7.5m/s | -42.8°C | 60.2% | 290.7hPa | 2.5V | 08:07:18 | 02:40:26 | 00:00:00 | |
| DJ2KF-10 | 2026-08-30 12:58:16 | 51.73705 | 8.45928 | 81° | 120km/h | 9655m | -7.5m/s | -42.8°C | 58.1% | 290.3hPa | 2.5V | 08:06:00 | 02:40:25 | 00:00:00 | |
| DL1XH-15 | 2026-08-30 12:58:15 | 51.73677 | 8.45646 | 81° | 119km/h | 9699m | -7.3m/s | -43.2°C | 57.9% | 288.5hPa | 2.5V | 08:06:47 | 02:40:19 | 00:00:00 | |
| DD1CC3-15 | 2026-08-30 12:58:14 | 51.73700 | 8.45881 | 82° | 119km/h | 9662m | -7.7m/s | -42.9°C | 53.6% | 290.1hPa | 2.5V | 08:07:00 | 00:00:00 | 00:00:00 | |
| SONCRA | 2026-08-30 12:58:13 | 51.73685 | 8.45740 | 81° | 115km/h | 9684m | -6.9m/s | -43.1°C | 53.4% | 289.1hPa | 2.5V | 00:00:00 | 00:00:00 | 00:00:00 | |
| DM0DOS-11 | 2026-08-30 12:58:11 | 51.73655 | 8.45407 | 81° | 120km/h | 9737m | -7.8m/s | -43.5°C | 57.3% | 286.9hPa | 2.5V | 08:06:52 | 02:40:14 | 00:00:00 | |
| BIOWL1-15 | 2026-08-30 12:58:11 | 51.73681 | 8.45693 | 82° | 117km/h | 9692m | -7.5m/s | -43.1°C | 60.5% | 288.9hPa | 2.5V | 08:07:18 | 02:40:20 | 00:00:00 | |
| DO2JMG | 2026-08-30 12:58:10 | 51.73677 | 8.45646 | 82° | 119km/h | 9699m | -7.4m/s | -43.2°C | 60.3% | 288.5hPa | 2.5V | 08:07:18 | 02:40:19 | 00:00:00 | |
| DF8AY | 2026-08-30 12:58:08 | 51.73668 | 8.45551 | 82° | 119km/h | 9714m | -7.8m/s | 0°C | 0% | 0hPa | 2.6V | 18:12:15 | 02:40:17 | 00:00:00 | |
| HSKMA3-T | 2026-08-30 12:58:06 | 51.73659 | 8.45456 | 81° | 119km/h | 9730m | -7.7m/s | -43.4°C | 59.8% | 287.2hPa | 2.5V | 08:07:18 | 02:40:15 | 00:00:00 | |
| DL1XH1-15 | 2026-08-30 12:58:06 | 51.73650 | 8.45359 | 80° | 120km/h | 9745m | -7.7m/s | -43.5°C | 57.1% | 286.6hPa | 2.6V | 08:06:53 | 02:40:13 | 00:00:00 | |
| GOEST3-10 | 2026-08-30 12:58:06 | 51.73659 | 8.45456 | 82° | 120km/h | 9730m | -7.7m/s | -43.4°C | 57.3% | 287.2hPa | 2.5V | 00:00:00 | 00:00:00 | 00:00:00 | |
| SO1NDE-10 | 2026-08-30 12:58:05 | 51.73655 | 8.45407 | 82° | 124km/h | 9737m | -7.7m/s | -43.4°C | 57.3% | 286.8hPa | 2.5V | 00:00:00 | 02:40:14 | 00:00:00 | |
| DK9SH | 2026-08-30 12:58:04 | 51.73655 | 8.45407 | 83° | 120km/h | 9737m | -7.8m/s | -43.5°C | 52.3% | 286.9hPa | 2.5V | 08:07:00 | 00:00:00 | 00:00:00 | |
| NBG1-10 | 2026-08-30 12:58:03 | 51.73645 | 8.45311 | 81° | 120km/h | 9753m | -7.5m/s | -43.6°C | 56.9% | 286.2hPa | 2.5V | 00:00:00 | 02:40:12 | 00:00:00 | |
| BIOWL9-15 | 2026-08-30 12:58:02 | 51.73640 | 8.45262 | 80° | 120km/h | 9760m | -7.6m/s | 0°C | -1.0% | -1.0hPa | 2.5V | 00:00:00 | 00:00:00 | 00:00:00 | |
| DL1XH-15 | 2026-08-30 12:58:01 | 51.73630 | 8.45165 | 81° | 120km/h | 9775m | -7.8m/s | -43.8°C | 57.7% | 285.3hPa | 2.5V | 08:06:57 | 02:40:09 | 00:00:00 | |
| BIOWL1-15 | 2026-08-30 12:58:01 | 51.73635 | 8.45214 | 81° | 120km/h | 9768m | -7.7m/s | -43.7°C | 60% | 285.6hPa | 2.5V | 08:07:18 | 02:40:10 | 00:00:00 | |
| DO2JMG | 2026-08-30 12:58:00 | 51.73630 | 8.45165 | 81° | 120km/h | 9775m | -7.8m/s | -43.8°C | 60.4% | 285.3hPa | 2.5V | 08:07:18 | 02:40:09 | 00:00:00 | |
| AA1-15 | 2026-08-30 12:57:59 | 51.73626 | 8.45117 | 81° | 120km/h | 9783m | -7.6m/s | -43.8°C | 60.6% | 285hPa | 2.5V | 08:07:18 | 02:40:08 | 00:00:00 | |
| DM0DOS-11 | 2026-08-30 12:57:59 | 51.73612 | 8.44970 | 81° | 122km/h | 9806m | -7.8m/s | -44°C | 58.3% | 284hPa | 2.5V | 08:07:01 | 02:40:05 | 00:00:00 | |
| DB0NH | 2026-08-30 12:57:59 | 51.73625 | 8.45117 | 82° | 124km/h | 9783m | -7.6m/s | -43.8°C | 57.9% | 284.9hPa | 2.5V | 08:06:00 | 02:40:08 | 00:00:00 | |
| DL8OAI-8 | 2026-08-30 12:57:58 | 51.73625 | 8.45117 | 82° | 120km/h | 9783m | -7.6m/s | -43.8°C | 52.8% | 285.0hPa | 2.6V | 00:00:00 | 00:00:00 | 00:00:00 | |
| DO9LL-15 | 2026-08-30 12:57:57 | 51.73616 | 8.45019 | 82° | 126km/h | 9798m | -7.7m/s | -43.9°C | 58.1% | 284.3hPa | 2.6V | 00:00:00 | 02:40:06 | 00:00:00 | |
| GOEST3-10 | 2026-08-30 12:57:56 | 51.73612 | 8.44970 | 82° | 122km/h | 9806m | -7.7m/s | -43.9°C | 58.3% | 284.0hPa | 2.5V | 00:00:00 | 00:00:00 | 00:00:00 | |
| DL1XH-15 | 2026-08-30 12:57:55 | 51.73582 | 8.44673 | 79° | 124km/h | 9851m | -7.5m/s | -44.4°C | 58.5% | 282.1hPa | 2.5V | 08:07:07 | 02:39:59 | 00:00:00 | |
| HSKMA3-T | 2026-08-30 12:57:55 | 51.73607 | 8.44921 | 81° | 122km/h | 9814m | -7.6m/s | -44°C | 61% | 283.7hPa | 2.5V | 08:07:18 | 02:40:04 | 00:00:00 | |
| DL3AQ-11 | 2026-08-30 12:57:55 | 51.73602 | 8.44872 | 80° | 122km/h | 9821m | -7.5m/s | -44.1°C | 53.2% | 283.4hPa | 2.6V | 00:00:00 | 00:00:00 | 00:00:00 | |
| DL9SK-14 | 2026-08-30 12:57:53 | 51.73598 | 8.44822 | 81° | 122km/h | 9829m | -7.4m/s | -44.2°C | 53.3% | 283.0hPa | 2.6V | 00:00:00 | 00:00:00 | 00:00:00 | |
| DL8DAS-15 | 2026-08-30 12:57:52 | 51.73597 | 8.44822 | 82° | 122km/h | 9829m | -7.4m/s | -44.2°C | 53.4% | 283.0hPa | 2.6V | 00:00:00 | 00:00:00 | 00:00:00 | |
| DM0DOS-11 | 2026-08-30 12:57:51 | 51.73561 | 8.44474 | 79° | 124km/h | 9881m | -7.6m/s | -44.5°C | 59.2% | 280.8hPa | 2.6V | 08:07:11 | 02:39:55 | 00:00:00 | |
| DD1CC8 | 2026-08-30 12:57:51 | 51.73588 | 8.44723 | 80° | 124km/h | 9844m | -7.6m/s | -44.3°C | 53.5% | 282.4hPa | 2.6V | 00:00:00 | 00:00:00 | 00:00:00 | |
| BIOWL1-15 | 2026-08-30 12:57:50 | 51.73537 | 8.44272 | 79° | 126km/h | 9912m | -7.9m/s | -44.7°C | 63% | 279.6hPa | 2.6V | 08:07:18 | 02:39:51 | 00:00:00 | |
| DO2JMG | 2026-08-30 12:57:49 | 51.73577 | 8.44623 | 80° | 124km/h | 9859m | -7.6m/s | -44.4°C | 61.2% | 281.8hPa | 2.5V | 08:07:18 | 02:39:58 | 00:00:00 | |
| HSKMA3-T | 2026-08-30 12:57:45 | 51.73555 | 8.44424 | 80° | 126km/h | 9889m | -7.8m/s | -44.6°C | 61.9% | 280.5hPa | 2.5V | 08:07:18 | 02:39:54 | 00:00:00 | |
| DL3AQ-11 | 2026-08-30 12:57:44 | 51.73543 | 8.44323 | 79° | 126km/h | 9904m | -7.7m/s | -44.7°C | 54.8% | 279.9hPa | 2.6V | 00:00:00 | 00:00:00 | 00:00:00 | |
| WEDDY | 2026-08-30 12:57:43 | 51.73543 | 8.44323 | 80° | 126km/h | 9904m | -7.7m/s | -44.7°C | 54.8% | 279.9hPa | 2.6V | 00:00:00 | 00:00:00 | 00:00:00 | |
| DO3DL | 2026-08-30 12:57:42 | 51.73543 | 8.44323 | 80° | 126km/h | 9904m | -7.7m/s | -44.7°C | 54.8% | 279.9hPa | 2.6V | 08:07:00 | 00:00:00 | 00:00:00 | |
| GOEST3-10 | 2026-08-30 12:57:41 | 51.73531 | 8.44222 | 79° | 126km/h | 9920m | -7.6m/s | -44.7°C | 60.8% | 279.2hPa | 2.6V | 08:07:00 | 02:39:50 | 00:00:00 | |
| DM0DOS-11 | 2026-08-30 12:57:39 | 51.73499 | 8.43969 | 77° | 126km/h | 9958m | -7.8m/s | -45.1°C | 63.7% | 277.6hPa | 2.5V | 08:07:21 | 02:39:45 | 00:00:00 | |
| BIOWL1-15 | 2026-08-30 12:57:39 | 51.73519 | 8.44120 | 79° | 126km/h | 9935m | -7.4m/s | -44.9°C | 64.3% | 278.5hPa | 2.5V | 08:07:18 | 02:39:48 | 00:00:00 | |
| DO2JMG | 2026-08-30 12:57:38 | 51.73512 | 8.44070 | 78° | 128km/h | 9942m | -7.5m/s | -45°C | 64.8% | 278.3hPa | 2.5V | 08:08:09 | 02:39:47 | 00:00:00 | |
| DL8OAI-8 | 2026-08-30 12:57:37 | 51.73512 | 8.44070 | 79° | 128km/h | 9943m | -7.5m/s | -45.0°C | 56.9% | 278.3hPa | 2.6V | 08:08:00 | 00:00:00 | 00:00:00 | |
| DL1NUX | 2026-08-30 12:57:36 | 51.73492 | 8.43919 | 77° | 126km/h | 9965m | -7.7m/s | -45.1°C | 64.6% | 277.3hPa | 2.6V | 08:07:22 | 02:39:44 | 00:00:00 | |
| HSKMA3-T | 2026-08-30 12:57:35 | 51.73492 | 8.43919 | 78° | 126km/h | 9965m | -7.7m/s | -45.2°C | 66.9% | 277.3hPa | 2.6V | 08:08:09 | 02:39:44 | 00:00:00 | |
| BUE01 | 2026-08-30 12:57:34 | 51.73478 | 8.43818 | 78° | 126km/h | 9980m | -7.3m/s | -45.3°C | 60.5% | 276.7hPa | 2.5V | 00:00:00 | 00:00:00 | 00:00:00 | |
| DF7PN | 2026-08-30 12:57:33 | 51.73472 | 8.43768 | 78° | 126km/h | 9987m | -7.5m/s | -45.4°C | 61.1% | 276.4hPa | 2.5V | 00:00:00 | 00:00:00 | 00:00:00 | |
| DM0DOS-11 | 2026-08-30 12:57:31 | 51.73430 | 8.43464 | 77° | 128km/h | 10032m | -7.4m/s | -45.7°C | 69.2% | 274.5hPa | 2.5V | 08:07:31 | 02:39:35 | 00:00:00 | |
| BIOWL1-15 | 2026-08-30 12:57:29 | 51.73452 | 8.43616 | 78° | 128km/h | 10010m | -7.7m/s | -45.6°C | 70.8% | 275.5hPa | 2.6V | 08:08:09 | 02:39:38 | 00:00:00 | |
| DO2JMG | 2026-08-30 12:57:28 | 51.73445 | 8.43566 | 77° | 128km/h | 10018m | -7.5m/s | -45.6°C | 71.1% | 275.2hPa | 2.6V | 08:08:09 | 02:39:37 | 00:00:00 | |
| DL1XH-west | 2026-08-30 12:57:27 | 51.73437 | 8.43515 | 77° | 128km/h | 10025m | -7.7m/s | -45.7°C | 71.3% | 274.8hPa | 2.5V | 08:08:09 | 02:39:36 | 00:00:00 | |
| DO9LL-15 | 2026-08-30 12:57:27 | 51.73437 | 8.43515 | 78° | 130km/h | 10025m | -7.6m/s | -45.6°C | 69.1% | 274.8hPa | 2.5V | 00:00:00 | 02:39:36 | 00:00:00 | |
| DL1NUX | 2026-08-30 12:57:26 | 51.73423 | 8.43414 | 77° | 128km/h | 10040m | -7.4m/s | -45.8°C | 69.3% | 274.2hPa | 2.5V | 08:07:32 | 02:39:34 | 00:00:00 | |
| HSKMA3-T | 2026-08-30 12:57:24 | 51.73417 | 8.43363 | 77° | 128km/h | 10047m | -7.7m/s | -45.9°C | 71.8% | 273.9hPa | 2.6V | 08:08:09 | 02:39:33 | 00:00:00 | |
| DK9SH | 2026-08-30 12:57:23 | 51.73417 | 8.43363 | 78° | 128km/h | 10047m | -7.7m/s | -45.9°C | 63.7% | 273.9hPa | 2.5V | 08:08:00 | 00:00:00 | 00:00:00 | |
| DL9SK-14 | 2026-08-30 12:57:22 | 51.73402 | 8.43260 | 77° | 130km/h | 10063m | -7.8m/s | -46.0°C | 64.0% | 273.3hPa | 2.5V | 00:00:00 | 00:00:00 | 00:00:00 | |
| DL1XH-15 | 2026-08-30 12:57:21 | 51.73388 | 8.43156 | 77° | 130km/h | 10078m | -7.7m/s | -46.2°C | 70.4% | 272.7hPa | 2.5V | 08:07:37 | 02:39:29 | 00:00:00 | |
| DL1NUX | 2026-08-30 12:57:20 | 51.73353 | 8.42899 | 76° | 128km/h | 10116m | -7.6m/s | -46.5°C | 70.8% | 271.1hPa | 2.5V | 08:07:42 | 02:39:24 | 00:00:00 | |
| DD1CC8 | 2026-08-30 12:57:20 | 51.73388 | 8.43156 | 77° | 130km/h | 10078m | -7.7m/s | -46.2°C | 64.3% | 272.7hPa | 2.5V | 00:00:00 | 00:00:00 | 00:00:00 | |
| DM0DOS-11 | 2026-08-30 12:57:19 | 51.73360 | 8.42950 | 77° | 130km/h | 10108m | -7.7m/s | -46.4°C | 71.1% | 271.4hPa | 2.5V | 08:07:41 | 02:39:25 | 00:00:00 | |
| DL1XH1-15 | 2026-08-30 12:57:19 | 51.73346 | 8.42849 | 76° | 126km/h | 10124m | -7.6m/s | -46.6°C | 70.3% | 270.8hPa | 2.5V | 08:07:43 | 02:39:23 | 00:00:00 | |
| DO2JMG | 2026-08-30 12:57:18 | 51.73374 | 8.43053 | 78° | 130km/h | 10093m | -7.6m/s | -46.3°C | 72.2% | 272hPa | 2.6V | 08:08:09 | 02:39:27 | 00:00:00 | |
| AA1-15 | 2026-08-30 12:57:17 | 51.73367 | 8.43002 | 78° | 130km/h | 10101m | -7.5m/s | -46.4°C | 72.3% | 271.7hPa | 2.6V | 08:08:09 | 02:39:26 | 00:00:00 | |
| DL1XH-west | 2026-08-30 12:57:16 | 51.73360 | 8.42950 | 77° | 130km/h | 10108m | -7.7m/s | -46.4°C | 72.2% | 271.4hPa | 2.5V | 08:08:09 | 02:39:25 | 00:00:00 | |
| DJ2KF-10 | 2026-08-30 12:57:16 | 51.73360 | 8.42950 | 78° | 131km/h | 10108m | -7.6m/s | -46.4°C | 71.1% | 271.4hPa | 2.5V | 00:00:00 | 02:39:25 | 00:00:00 | |
| DL1XH-15 | 2026-08-30 12:57:15 | 51.73318 | 8.42647 | 77° | 130km/h | 10153m | -7.4m/s | -46.8°C | 68.3% | 269.6hPa | 2.5V | 08:07:47 | 02:39:19 | 00:00:00 | |
| HSKMA3-T | 2026-08-30 12:57:14 | 51.73346 | 8.42849 | 77° | 126km/h | 10124m | -7.6m/s | -46.6°C | 71.4% | 270.8hPa | 2.5V | 08:08:09 | 02:39:23 | 00:00:00 | |
| DB0UT-7 | 2026-08-30 12:57:13 | 51.73338 | 8.42799 | 78° | 133km/h | 10131m | -7.3m/s | -46.5°C | 69.8% | 270.4hPa | 2.6V | 00:00:00 | 00:00:00 | 00:00:00 | |
| DD1CC3-15 | 2026-08-30 12:57:12 | 51.73339 | 8.42799 | 79° | 124km/h | 10131m | -7.3m/s | -46.6°C | 63.7% | 270.4hPa | 2.6V | 08:08:00 | 00:00:00 | 00:00:00 | |
| DM0DOS-11 | 2026-08-30 12:57:11 | 51.73283 | 8.42384 | 78° | 133km/h | 10191m | -7.6m/s | -47.2°C | 65.6% | 268.1hPa | 2.6V | 08:07:52 | 02:39:14 | 00:00:00 | |
| GOEST3-10 | 2026-08-30 12:57:11 | 51.73325 | 8.42698 | 78° | 130km/h | 10146m | -7.6m/s | -46.7°C | 68.8% | 269.9hPa | 2.6V | 00:00:00 | 02:39:20 | 00:00:00 | |
| DL1NUX | 2026-08-30 12:57:10 | 51.73283 | 8.42384 | 78° | 133km/h | 10191m | -7.6m/s | -47.2°C | 65.6% | 268.1hPa | 2.6V | 08:07:52 | 02:39:14 | 00:00:00 | |
| DO2JMG | 2026-08-30 12:57:08 | 51.73304 | 8.42543 | 78° | 131km/h | 10168m | -7.8m/s | -47°C | 68.9% | 269hPa | 2.5V | 08:08:09 | 02:39:17 | 00:00:00 | |
| BIOWL1-15 | 2026-08-30 12:57:07 | 51.73297 | 8.42491 | 78° | 133km/h | 10176m | -7.4m/s | -47°C | 68.3% | 268.7hPa | 2.5V | 08:08:09 | 02:39:16 | 00:00:00 | |
| DL1XH1-15 | 2026-08-30 12:57:06 | 51.73277 | 8.42330 | 78° | 133km/h | 10199m | -7.6m/s | -47.2°C | 64.8% | 267.8hPa | 2.6V | 08:07:53 | 02:39:13 | 00:00:00 | |
| DL1XH-west | 2026-08-30 12:57:06 | 51.73290 | 8.42437 | 79° | 135km/h | 10184m | -7.6m/s | -47.1°C | 67.6% | 268.4hPa | 2.6V | 08:08:09 | 02:39:15 | 00:00:00 | |
| HSKMA3-T | 2026-08-30 12:57:03 | 51.73269 | 8.42277 | 78° | 135km/h | 10206m | -7.5m/s | -47.3°C | 65.4% | 267.5hPa | 2.5V | 08:08:09 | 02:39:12 | 00:00:00 | |
| DK9SH | 2026-08-30 12:57:03 | 51.73269 | 8.42277 | 79° | 135km/h | 10207m | -7.5m/s | -47.3°C | 57.8% | 267.5hPa | 2.5V | 08:08:00 | 00:00:00 | 00:00:00 | |
| BIOWL7-15 | 2026-08-30 12:57:02 | 51.73269 | 8.42277 | 79° | 135km/h | 10207m | -7.5m/s | -47.3°C | 57.8% | 267.5hPa | 2.5V | 00:00:00 | 00:00:00 | 00:00:00 | |
| GOEST3-10 | 2026-08-30 12:57:01 | 51.73256 | 8.42169 | 79° | 133km/h | 10221m | -7.6m/s | -47.3°C | 61.7% | 266.8hPa | 2.5V | 00:00:00 | 02:39:10 | 00:00:00 | |
| DM0DOS-11 | 2026-08-30 12:57:00 | 51.73222 | 8.41903 | 78° | 133km/h | 10260m | -7.8m/s | -47.5°C | 58.1% | 265.3hPa | 2.5V | 08:08:01 | 02:39:05 | 00:00:00 | |
| DL1NUX | 2026-08-30 12:57:00 | 51.73215 | 8.41849 | 78° | 135km/h | 10267m | -7.8m/s | -47.5°C | 57.7% | 265hPa | 2.6V | 08:08:02 | 02:39:04 | 00:00:00 | |
| DL1XH1-15 | 2026-08-30 12:56:59 | 51.73209 | 8.41795 | 78° | 135km/h | 10275m | -7.8m/s | -47.5°C | 57.3% | 264.7hPa | 2.6V | 08:08:03 | 02:39:03 | 00:00:00 | |
| DO2JMG | 2026-08-30 12:56:57 | 51.73229 | 8.41956 | 79° | 133km/h | 10252m | -7.7m/s | -47.4°C | 60.6% | 265.7hPa | 2.5V | 08:08:09 | 02:39:06 | 00:00:00 | |
| DL8OAI-8 | 2026-08-30 12:56:56 | 51.73229 | 8.41956 | 80° | 133km/h | 10252m | -7.7m/s | -47.4°C | 52.6% | 265.7hPa | 2.6V | 08:08:00 | 00:00:00 | 00:00:00 | |
| DB0DAN | 2026-08-30 12:56:55 | 51.73216 | 8.41849 | 79° | 128km/h | 10267m | -7.8m/s | -47.5°C | 52% | 264.99hPa | 2.6V | 00:00:00 | 00:00:00 | 00:00:00 | |
| DL1XH-west | 2026-08-30 12:56:55 | 51.73216 | 8.41849 | 79° | 135km/h | 10267m | -7.8m/s | -47.5°C | 60.1% | 265hPa | 2.6V | 08:08:09 | 02:39:04 | 00:00:00 | |
| HSKMA3-T | 2026-08-30 12:56:52 | 51.73197 | 8.41688 | 80° | 133km/h | 10290m | -7.8m/s | -47.6°C | 59.3% | 264hPa | 2.5V | 08:08:09 | 02:39:01 | 00:00:00 | |
| GOEST3-10 | 2026-08-30 12:56:51 | 51.73190 | 8.41635 | 80° | 133km/h | 10298m | -7.7m/s | -47.6°C | 56.5% | 263.7hPa | 2.5V | 00:00:00 | 02:39:00 | 00:00:00 | |
| DL1NUX | 2026-08-30 12:56:50 | 51.73156 | 8.41315 | 79° | 133km/h | 10344m | -7.7m/s | -47.8°C | 54.8% | 261.9hPa | 2.5V | 08:08:12 | 02:38:54 | 00:00:00 | |
| DO2JMG | 2026-08-30 12:56:47 | 51.73168 | 8.41422 | 80° | 133km/h | 10329m | -7.7m/s | -47.8°C | 57.7% | 262.5hPa | 2.5V | 08:09:00 | 02:38:56 | 00:00:00 | |
| DL1XH1-15 | 2026-08-30 12:56:46 | 51.73149 | 8.41262 | 79° | 133km/h | 10352m | -7.8m/s | -47.9°C | 55.1% | 261.6hPa | 2.6V | 08:08:13 | 02:38:53 | 00:00:00 | |
| BIOWL1-15 | 2026-08-30 12:56:44 | 51.73149 | 8.41262 | 79° | 133km/h | 10352m | -7.8m/s | -47.9°C | 58.2% | 261.6hPa | 2.6V | 08:09:00 | 02:38:53 | 00:00:00 | |
| DF8AY | 2026-08-30 12:56:43 | 51.73143 | 8.41209 | 79° | 133km/h | 10360m | -7.8m/s | -48°C | 58.5% | 261.3hPa | 2.6V | 08:09:00 | 02:38:52 | 00:00:00 | |
| DB0UT-7 | 2026-08-30 12:56:43 | 51.73143 | 8.41209 | 80° | 137km/h | 10360m | -7.8m/s | -47.9°C | 55.5% | 261.2hPa | 2.6V | 08:08:00 | 02:38:52 | 00:00:00 | |
| DD1CC2-15 | 2026-08-30 12:56:42 | 51.73143 | 8.41208 | 80° | 133km/h | 10360m | -7.8m/s | -48.0°C | 49.9% | 261.3hPa | 2.5V | 08:09:00 | 00:00:00 | 00:00:00 | |
| DL1XH-15 | 2026-08-30 12:56:41 | 51.73125 | 8.41050 | 80° | 133km/h | 10383m | -7.5m/s | -48.1°C | 56.2% | 260.4hPa | 2.5V | 08:08:17 | 02:38:49 | 00:00:00 | |
| HSKMA3-T | 2026-08-30 12:56:41 | 51.73131 | 8.41103 | 80° | 131km/h | 10375m | -7.7m/s | -48.1°C | 59.1% | 260.7hPa | 2.5V | 08:09:00 | 02:38:50 | 00:00:00 | |
| GOEST3-10 | 2026-08-30 12:56:41 | 51.73131 | 8.41103 | 80° | 133km/h | 10375m | -7.6m/s | -48.0°C | 56.3% | 260.6hPa | 2.6V | 00:00:00 | 02:38:50 | 00:00:00 | |
| DM0DOS-11 | 2026-08-30 12:56:40 | 51.73103 | 8.40836 | 81° | 135km/h | 10413m | -8m/s | -48.4°C | 59.4% | 259.2hPa | 2.6V | 08:08:21 | 02:38:45 | 00:00:00 | |
| DL1XH1-15 | 2026-08-30 12:56:39 | 51.73093 | 8.40728 | 81° | 133km/h | 10429m | -7.8m/s | -48.5°C | 60.2% | 258.5hPa | 2.5V | 08:08:23 | 02:38:43 | 00:00:00 | |
| DO2JMG | 2026-08-30 12:56:36 | 51.73103 | 8.40836 | 81° | 135km/h | 10413m | -8m/s | -48.4°C | 62.4% | 259.2hPa | 2.6V | 08:09:00 | 02:38:45 | 00:00:00 | |
| DL1XH-15 | 2026-08-30 12:56:35 | 51.73072 | 8.40511 | 81° | 135km/h | 10461m | -7.8m/s | -48.7°C | 63.9% | 257.3hPa | 2.6V | 08:08:27 | 02:38:39 | 00:00:00 | |
| BIOWL1-15 | 2026-08-30 12:56:35 | 51.73088 | 8.40674 | 81° | 135km/h | 10437m | -7.9m/s | -48.6°C | 63.9% | 258.2hPa | 2.5V | 08:09:00 | 02:38:42 | 00:00:00 | |
| DL1XH-west | 2026-08-30 12:56:34 | 51.73093 | 8.40728 | 81° | 133km/h | 10429m | -7.8m/s | -48.5°C | 63.1% | 258.5hPa | 2.5V | 08:09:00 | 02:38:43 | 00:00:00 | |
| DF8AY | 2026-08-30 12:56:31 | 51.73077 | 8.40565 | 82° | 135km/h | 10453m | -8m/s | -48.7°C | 65.7% | 257.7hPa | 2.6V | 08:09:00 | 02:38:40 | 00:00:00 | |
| DL1NUX | 2026-08-30 12:56:30 | 51.73047 | 8.40235 | 81° | 139km/h | 10500m | -7.7m/s | -49°C | 65.1% | 255.8hPa | 2.6V | 08:08:32 | 02:38:34 | 00:00:00 | |
| HSKMA3-T | 2026-08-30 12:56:30 | 51.73072 | 8.40511 | 81° | 135km/h | 10461m | -7.8m/s | -48.7°C | 66.5% | 257.3hPa | 2.6V | 08:09:00 | 02:38:39 | 00:00:00 | |
| DO2JMG | 2026-08-30 12:56:26 | 51.73052 | 8.40291 | 82° | 139km/h | 10493m | -8m/s | -49°C | 67.9% | 256.1hPa | 2.6V | 08:09:00 | 02:38:35 | 00:00:00 | |
| AA1-15 | 2026-08-30 12:56:23 | 51.73037 | 8.40123 | 82° | 139km/h | 10516m | -7.9m/s | -49.1°C | 68.4% | 255.2hPa | 2.5V | 08:09:51 | 02:38:32 | 00:00:00 | |
| DL1XH-15 | 2026-08-30 12:56:21 | 51.73021 | 8.39955 | 81° | 139km/h | 10540m | -7.8m/s | -49.3°C | 65.8% | 254.2hPa | 2.5V | 08:08:37 | 02:38:29 | 00:00:00 | |
| DF8AY | 2026-08-30 12:56:21 | 51.73026 | 8.40011 | 81° | 139km/h | 10532m | -8m/s | -49.3°C | 68.7% | 254.6hPa | 2.5V | 08:09:00 | 02:38:30 | 00:00:00 | |
| DM0DOS-11 | 2026-08-30 12:56:20 | 51.72999 | 8.39730 | 81° | 141km/h | 10571m | -7.8m/s | -49.6°C | 65.6% | 253hPa | 2.5V | 08:08:41 | 02:38:25 | 00:00:00 | |
| DL1NUX | 2026-08-30 12:56:20 | 51.72994 | 8.39674 | 81° | 141km/h | 10579m | -8m/s | -49.7°C | 66% | 252.7hPa | 2.5V | 08:08:42 | 02:38:24 | 00:00:00 | |
| DL1XH1-15 | 2026-08-30 12:56:19 | 51.72989 | 8.39618 | 81° | 141km/h | 10587m | -7.8m/s | -49.8°C | 66.4% | 252.4hPa | 2.5V | 08:08:43 | 02:38:23 | 00:00:00 | |
| HSKMA3-T | 2026-08-30 12:56:19 | 51.73015 | 8.39898 | 81° | 139km/h | 10548m | -7.9m/s | -49.4°C | 68.9% | 253.9hPa | 2.6V | 08:09:00 | 02:38:28 | 00:00:00 | |
| DO2JMG | 2026-08-30 12:56:15 | 51.72994 | 8.39674 | 82° | 141km/h | 10579m | -8m/s | -49.7°C | 69.2% | 252.7hPa | 2.5V | 08:09:00 | 02:38:24 | 00:00:00 | |
| DL1XH-west | 2026-08-30 12:56:13 | 51.72984 | 8.39561 | 82° | 141km/h | 10595m | -8m/s | -49.8°C | 69.1% | 252.1hPa | 2.6V | 08:09:00 | 02:38:22 | 00:00:00 | |
| BIOWL1-15 | 2026-08-30 12:56:12 | 51.72979 | 8.39505 | 82° | 141km/h | 10603m | -7.9m/s | -49.9°C | 69% | 251.8hPa | 2.6V | 08:09:00 | 02:38:21 | 00:00:00 | |
| GOEST3-10 | 2026-08-30 12:56:10 | 51.72969 | 8.39391 | 82° | 141km/h | 10619m | -8.0m/s | -49.9°C | 66.2% | 251.2hPa | 2.5V | 00:00:00 | 02:38:19 | 00:00:00 | |
| DF8AY | 2026-08-30 12:56:10 | 51.72969 | 8.39391 | 82° | 141km/h | 10619m | -8m/s | -50°C | 68.8% | 251.2hPa | 2.5V | 08:09:00 | 02:38:19 | 00:00:00 | |
| DL1NUX | 2026-08-30 12:56:09 | 51.72944 | 8.39106 | 82° | 142km/h | 10659m | -7.9m/s | -50.4°C | 66.2% | 249.7hPa | 2.5V | 08:08:52 | 02:38:14 | 00:00:00 | |
| HSKMA3-T | 2026-08-30 12:56:08 | 51.72959 | 8.39278 | 82° | 142km/h | 10635m | -8.1m/s | -50.1°C | 68.6% | 250.6hPa | 2.6V | 08:09:00 | 02:38:17 | 00:00:00 | |
| AA1-15 | 2026-08-30 12:56:06 | 51.72949 | 8.39164 | 82° | 141km/h | 10651m | -8m/s | -50.3°C | 68.4% | 250hPa | 2.6V | 08:09:51 | 02:38:15 | 00:00:00 | |
| DL1XH1-15 | 2026-08-30 12:56:06 | 51.72939 | 8.39049 | 81° | 141km/h | 10666m | -7.8m/s | -50.4°C | 65.9% | 249.3hPa | 2.5V | 08:08:53 | 02:38:13 | 00:00:00 | |
| DO2JMG | 2026-08-30 12:56:05 | 51.72944 | 8.39106 | 82° | 142km/h | 10659m | -7.9m/s | -50.4°C | 68.3% | 249.7hPa | 2.5V | 08:09:00 | 02:38:14 | 00:00:00 | |
| DL1XH-west | 2026-08-30 12:56:02 | 51.72928 | 8.38936 | 82° | 141km/h | 10682m | -7.9m/s | -50.6°C | 67.8% | 248.8hPa | 2.6V | 08:09:00 | 02:38:11 | 00:00:00 | |
| DL1XH-15 | 2026-08-30 12:56:01 | 51.72918 | 8.38823 | 81° | 141km/h | 10698m | -8.2m/s | -50.6°C | 65.1% | 248.1hPa | 2.5V | 08:08:57 | 02:38:09 | 00:00:00 | |
| DM0DOS-11 | 2026-08-30 12:56:01 | 51.72897 | 8.38594 | 81° | 142km/h | 10730m | -8m/s | -50.9°C | 63.3% | 246.9hPa | 2.6V | 08:09:01 | 02:38:05 | 00:00:00 | |
| BIOWL1-15 | 2026-08-30 12:56:01 | 51.72923 | 8.38880 | 82° | 141km/h | 10690m | -8.2m/s | -50.7°C | 67.8% | 248.4hPa | 2.6V | 08:09:00 | 02:38:10 | 00:00:00 | |
| BUE01 | 2026-08-30 12:56:01 | 51.72918 | 8.38823 | 81° | 141km/h | 10698m | -8.2m/s | -50.6°C | 58.4% | 248.2hPa | 2.5V | 00:00:00 | 00:00:00 | 00:00:00 | |
| GOEST3-10 | 2026-08-30 12:56:00 | 51.72918 | 8.38823 | 82° | 142km/h | 10698m | -8.1m/s | -50.6°C | 65.1% | 248.1hPa | 2.5V | 08:08:00 | 02:38:09 | 00:00:00 | |
| DL1NUX | 2026-08-30 12:55:59 | 51.72892 | 8.38536 | 81° | 142km/h | 10738m | -8m/s | -51°C | 62.9% | 246.7hPa | 2.6V | 08:09:02 | 02:38:04 | 00:00:00 | |
| HSKMA3-T | 2026-08-30 12:55:57 | 51.72903 | 8.38651 | 81° | 142km/h | 10722m | -7.9m/s | -50.8°C | 66.2% | 247.2hPa | 2.6V | 08:09:00 | 02:38:06 | 00:00:00 | |
| DO9LL-15 | 2026-08-30 12:55:56 | 51.72897 | 8.38594 | 82° | 146km/h | 10730m | -8.0m/s | -50.9°C | 63.3% | 246.8hPa | 2.6V | 00:00:00 | 02:38:05 | 00:00:00 | |
| DL1XH-15 | 2026-08-30 12:55:55 | 51.72861 | 8.38248 | 79° | 144km/h | 10778m | -8.1m/s | -51.3°C | 62.6% | 245.1hPa | 2.6V | 08:09:07 | 02:37:59 | 00:00:00 | |
| DO2JMG | 2026-08-30 12:55:54 | 51.72886 | 8.38479 | 81° | 144km/h | 10746m | -8.1m/s | -51.1°C | 65.4% | 246.4hPa | 2.5V | 08:09:51 | 02:38:03 | 00:00:00 | |
| DF8AY | 2026-08-30 12:55:53 | 51.72880 | 8.38421 | 80° | 144km/h | 10754m | -7.8m/s | -51.1°C | 65.3% | 246hPa | 2.5V | 08:09:51 | 02:38:02 | 00:00:00 | |
| BIOWL1-15 | 2026-08-30 12:55:52 | 51.72861 | 8.38248 | 80° | 144km/h | 10778m | -8.1m/s | -51.3°C | 64.6% | 245.1hPa | 2.6V | 08:09:51 | 02:37:59 | 00:00:00 | |
| DL1XH-west | 2026-08-30 12:55:51 | 51.72867 | 8.38306 | 80° | 144km/h | 10770m | -8m/s | -51.3°C | 64.8% | 245.4hPa | 2.5V | 08:09:51 | 02:38:00 | 00:00:00 | |
| DL1NUX | 2026-08-30 12:55:50 | 51.72829 | 8.37958 | 79° | 148km/h | 10817m | -8m/s | -51.5°C | 61.4% | 243.7hPa | 2.5V | 08:09:12 | 02:37:54 | 00:00:00 | |
| HSKMA3-T | 2026-08-30 12:55:47 | 51.72842 | 8.38075 | 80° | 146km/h | 10802m | -7.6m/s | -51.4°C | 64.3% | 244.2hPa | 2.5V | 08:09:51 | 02:37:56 | 00:00:00 | |
| DD1CC8 | 2026-08-30 12:55:47 | 51.72835 | 8.38017 | 80° | 146km/h | 10809m | -7.7m/s | -51.4°C | 55.1% | 243.9hPa | 2.6V | 00:00:00 | 00:00:00 | 00:00:00 | |
| DO2JMG | 2026-08-30 12:55:43 | 51.72816 | 8.37840 | 80° | 146km/h | 10833m | -8.3m/s | -51.7°C | 63.9% | 243.1hPa | 2.6V | 08:09:51 | 02:37:52 | 00:00:00 | |
| DF8AY | 2026-08-30 12:55:42 | 51.72809 | 8.37781 | 80° | 146km/h | 10841m | -8.3m/s | -51.7°C | 63.7% | 242.7hPa | 2.5V | 08:09:51 | 02:37:51 | 00:00:00 | |
| DL1XH-west | 2026-08-30 12:55:41 | 51.72803 | 8.37723 | 80° | 146km/h | 10850m | -8.2m/s | -51.7°C | 63.7% | 242.4hPa | 2.5V | 08:09:51 | 02:37:50 | 00:00:00 | |
| DM0DOS-11 | 2026-08-30 12:55:40 | 51.72769 | 8.37431 | 79° | 146km/h | 10891m | -8m/s | -52°C | 60.4% | 240.9hPa | 2.5V | 08:09:21 | 02:37:45 | 00:00:00 | |
| DL1XH-15 | 2026-08-30 12:55:40 | 51.72796 | 8.37665 | 79° | 146km/h | 10858m | -8.3m/s | -51.7°C | 61.3% | 242.1hPa | 2.5V | 08:09:17 | 02:37:49 | 00:00:00 | |
| BIOWL1-15 | 2026-08-30 12:55:39 | 51.72783 | 8.37548 | 80° | 146km/h | 10874m | -8.3m/s | -51.8°C | 63.4% | 241.5hPa | 2.6V | 08:09:51 | 02:37:47 | 00:00:00 | |
| DL1XH1-15 | 2026-08-30 12:55:39 | 51.72755 | 8.37313 | 78° | 148km/h | 10907m | -8.3m/s | -52.2°C | 60.6% | 240.3hPa | 2.5V | 08:09:23 | 02:37:43 | 00:00:00 | |
| HSKMA3-T | 2026-08-30 12:55:36 | 51.72769 | 8.37431 | 79° | 146km/h | 10891m | -8m/s | -52°C | 63.2% | 240.9hPa | 2.5V | 08:09:51 | 02:37:45 | 00:00:00 | |
| DL1XH-15 | 2026-08-30 12:55:35 | 51.72726 | 8.37077 | 78° | 148km/h | 10940m | -8.3m/s | -52.4°C | 60.1% | 239.1hPa | 2.5V | 08:09:27 | 02:37:39 | 00:00:00 | |
| AA1-15 | 2026-08-30 12:55:33 | 51.72748 | 8.37254 | 79° | 148km/h | 10915m | -8.2m/s | -52.2°C | 62.9% | 240hPa | 2.6V | 08:09:51 | 02:37:42 | 00:00:00 | |
| DO2JMG | 2026-08-30 12:55:32 | 51.72740 | 8.37195 | 79° | 148km/h | 10923m | -8.2m/s | -52.3°C | 62.8% | 239.7hPa | 2.6V | 08:09:51 | 02:37:41 | 00:00:00 | |
| DL1XH-west | 2026-08-30 12:55:30 | 51.72726 | 8.37077 | 79° | 148km/h | 10940m | -8.3m/s | -52.4°C | 62.6% | 239.1hPa | 2.5V | 08:09:51 | 02:37:39 | 00:00:00 | |
| DL1NUX | 2026-08-30 12:55:30 | 51.72690 | 8.36781 | 79° | 148km/h | 10980m | -8.1m/s | -52.8°C | 59.3% | 237.6hPa | 2.5V | 08:09:32 | 02:37:34 | 00:00:00 | |
| GOEST3-10 | 2026-08-30 12:55:30 | 51.72726 | 8.37077 | 79° | 148km/h | 10940m | -8.2m/s | -52.4°C | 60.1% | 239.1hPa | 2.5V | 00:00:00 | 02:37:39 | 00:00:00 | |
| DM0DOS-11 | 2026-08-30 12:55:29 | 51.72697 | 8.36840 | 78° | 148km/h | 10972m | -8.1m/s | -52.7°C | 59.7% | 237.8hPa | 2.6V | 08:09:31 | 02:37:35 | 00:00:00 | |
| BIOWL1-15 | 2026-08-30 12:55:28 | 51.72712 | 8.36958 | 79° | 148km/h | 10956m | -8m/s | -52.6°C | 62.3% | 238.5hPa | 2.6V | 08:09:51 | 02:37:37 | 00:00:00 | |
| DJ2DS-15 | 2026-08-30 12:55:28 | 51.72712 | 8.36958 | 80° | 150km/h | 10956m | -8.0m/s | -52.6°C | 60.1% | 238.4hPa | 2.6V | 00:00:00 | 02:37:37 | 00:00:00 | |
| EDDB2-11 | 2026-08-30 12:55:27 | 51.72704 | 8.36899 | 79° | 148km/h | 10964m | -8.2m/s | -52.7°C | 53.0% | 238.2hPa | 2.5V | 00:00:00 | 00:00:00 | 00:00:00 | |
| DB0DAN | 2026-08-30 12:55:25 | 51.72690 | 8.36781 | 79° | 141km/h | 10980m | -8.1m/s | -52.8°C | 52.5% | 237.56hPa | 2.5V | 00:00:00 | 00:00:00 | 00:00:00 | |
| HSKMA3-T | 2026-08-30 12:55:25 | 51.72690 | 8.36781 | 80° | 148km/h | 10980m | -8.1m/s | -52.8°C | 61.7% | 237.6hPa | 2.5V | 08:09:51 | 02:37:34 | 00:00:00 | |
| AA1-15 | 2026-08-30 12:55:23 | 51.72677 | 8.36662 | 80° | 148km/h | 10997m | -8.1m/s | -52.9°C | 61.1% | 237hPa | 2.5V | 08:09:51 | 02:37:32 | 00:00:00 | |
| DO2JMG | 2026-08-30 12:55:22 | 51.72670 | 8.36602 | 80° | 150km/h | 11005m | -8.1m/s | -52.9°C | 60.9% | 236.7hPa | 2.5V | 08:09:51 | 02:37:31 | 00:00:00 | |
| DM0DOS-11 | 2026-08-30 12:55:21 | 51.72627 | 8.36238 | 77° | 153km/h | 11053m | -8.2m/s | -53.2°C | 56.3% | 234.9hPa | 2.5V | 08:09:41 | 02:37:25 | 00:00:00 | |
| BIOWL1-15 | 2026-08-30 12:55:21 | 51.72635 | 8.36299 | 78° | 153km/h | 11045m | -8.3m/s | -53.2°C | 59.3% | 235.2hPa | 2.5V | 08:09:51 | 02:37:26 | 00:00:00 | |
| DL1NUX | 2026-08-30 12:55:20 | 51.72619 | 8.36177 | 77° | 151km/h | 11061m | -8.3m/s | -53.3°C | 56% | 234.6hPa | 2.6V | 08:09:42 | 02:37:24 | 00:00:00 | |
| DL1XH-west | 2026-08-30 12:55:19 | 51.72650 | 8.36421 | 79° | 153km/h | 11029m | -8.1m/s | -53.1°C | 60% | 235.8hPa | 2.6V | 08:09:51 | 02:37:28 | 00:00:00 | |
| HSKMA3-T | 2026-08-30 12:55:15 | 51.72619 | 8.36177 | 78° | 151km/h | 11061m | -8.3m/s | -53.3°C | 58.5% | 234.6hPa | 2.6V | 08:09:51 | 02:37:24 | 00:00:00 | |
| DF8AY | 2026-08-30 12:55:12 | 51.72594 | 8.35998 | 78° | 146km/h | 11086m | -7.9m/s | -53.5°C | 57.4% | 233.7hPa | 2.5V | 08:09:51 | 02:37:21 | 00:00:00 | |
| DO2JMG | 2026-08-30 12:55:11 | 51.72587 | 8.35940 | 79° | 146km/h | 11094m | -7.6m/s | -53.6°C | 57% | 233.4hPa | 2.5V | 08:09:51 | 02:37:20 | 00:00:00 | |
| DL1NUX | 2026-08-30 12:55:10 | 51.72546 | 8.35581 | 78° | 150km/h | 11142m | -8.3m/s | -54°C | 52.4% | 231.7hPa | 2.5V | 08:09:52 | 02:37:14 | 00:00:00 | |
| BIOWL1-15 | 2026-08-30 12:55:09 | 51.72560 | 8.35701 | 80° | 150km/h | 11125m | -8.4m/s | -53.9°C | 55.2% | 232.3hPa | 2.5V | 08:09:51 | 02:37:16 | 00:00:00 | |
| DL1XH-west | 2026-08-30 12:55:08 | 51.72567 | 8.35761 | 80° | 150km/h | 11117m | -8m/s | -53.8°C | 55.6% | 232.6hPa | 2.6V | 08:09:51 | 02:37:17 | 00:00:00 | |
| DJ2DS-15 | 2026-08-30 12:55:08 | 51.72567 | 8.35761 | 81° | 142km/h | 11117m | -8.0m/s | -53.8°C | 54.0% | 232.5hPa | 2.6V | 00:00:00 | 02:37:17 | 00:00:00 | |
| DD1CC3-15 | 2026-08-30 12:55:07 | 51.72567 | 8.35761 | 81° | 150km/h | 11117m | -8.0m/s | -53.8°C | 47.3% | 232.6hPa | 2.6V | 08:09:00 | 00:00:00 | 00:00:00 | |
| DL1XH1-15 | 2026-08-30 12:55:06 | 51.72539 | 8.35521 | 78° | 148km/h | 11150m | -8.1m/s | -54.1°C | 51.4% | 231.3hPa | 2.6V | 08:09:53 | 02:37:13 | 00:00:00 | |
| HSKMA3-T | 2026-08-30 12:55:04 | 51.72539 | 8.35521 | 78° | 148km/h | 11150m | -8.1m/s | -54.1°C | 53.4% | 231.3hPa | 2.6V | 08:10:42 | 02:37:13 | 00:00:00 | |
| DF8AY | 2026-08-30 12:55:03 | 51.72523 | 8.35404 | 77° | 146km/h | 11167m | -8.3m/s | -54.3°C | 51.9% | 230.8hPa | 2.5V | 08:11:33 | 02:37:11 | 00:00:00 | |
| DO2JMG | 2026-08-30 12:55:01 | 51.72515 | 8.35346 | 77° | 144km/h | 11175m | -8.1m/s | -54.3°C | 51% | 230.5hPa | 2.5V | 08:10:42 | 02:37:10 | 00:00:00 | |
| BIOWL1-15 | 2026-08-30 12:55:00 | 51.72478 | 8.35068 | 81° | 137km/h | 11215m | -7.8m/s | -54.6°C | 46.7% | 229.1hPa | 2.5V | 08:10:42 | 02:37:05 | 00:00:00 | |
| GOEST3-10 | 2026-08-30 12:55:00 | 51.72506 | 8.35289 | 77° | 139km/h | 11183m | -8.1m/s | -54.4°C | 47.6% | 230.2hPa | 2.5V | 00:00:00 | 02:37:09 | 00:00:00 | |
| DL1XH1-15 | 2026-08-30 12:54:59 | 51.72467 | 8.34957 | 80° | 139km/h | 11230m | -7.7m/s | -54.5°C | 43.5% | 228.4hPa | 2.5V | 08:10:03 | 02:37:03 | 00:00:00 | |
| DL1XH-west | 2026-08-30 12:54:58 | 51.72491 | 8.35178 | 79° | 137km/h | 11199m | -7.7m/s | -54.6°C | 48.3% | 229.6hPa | 2.6V | 08:10:42 | 02:37:07 | 00:00:00 | |
| DL1XH-15 | 2026-08-30 12:54:58 | 51.72491 | 8.35178 | 78° | 137km/h | 11199m | -7.7m/s | -54.6°C | 46.4% | 229.6hPa | 2.6V | 08:09:59 | 02:37:07 | 00:00:00 | |
| HSKMA3-T | 2026-08-30 12:54:54 | 51.72467 | 8.34957 | 81° | 139km/h | 11230m | -7.7m/s | -54.5°C | 45.1% | 228.4hPa | 2.5V | 08:10:42 | 02:37:03 | 00:00:00 | |
| DL1XH-15 | 2026-08-30 12:54:53 | 51.72429 | 8.34620 | 79° | 139km/h | 11279m | -8.5m/s | -54.9°C | 41.4% | 226.8hPa | 2.5V | 08:10:09 | 02:36:57 | 00:00:00 | |
| DO2JMG | 2026-08-30 12:54:51 | 51.72448 | 8.34788 | 79° | 141km/h | 11254m | -8.2m/s | -54.7°C | 44.1% | 227.7hPa | 2.6V | 08:10:42 | 02:37:00 | 00:00:00 | |
| AA1-15 | 2026-08-30 12:54:50 | 51.72441 | 8.34732 | 79° | 141km/h | 11262m | -8.4m/s | -54.7°C | 43.7% | 227.4hPa | 2.6V | 08:10:42 | 02:36:59 | 00:00:00 | |
| GOEST3-10 | 2026-08-30 12:54:49 | 51.72435 | 8.34676 | 80° | 139km/h | 11270m | -8.3m/s | -54.7°C | 41.7% | 227.0hPa | 2.6V | 00:00:00 | 02:36:58 | 00:00:00 | |
| DM0DOS-11 | 2026-08-30 12:54:48 | 51.72416 | 8.34509 | 79° | 139km/h | 11296m | -8.5m/s | -55°C | 41% | 226.1hPa | 2.6V | 08:10:11 | 02:36:55 | 00:00:00 | |
| DL1XH-west | 2026-08-30 12:54:47 | 51.72422 | 8.34565 | 80° | 139km/h | 11287m | -8.6m/s | -54.9°C | 42.8% | 226.5hPa | 2.5V | 08:10:42 | 02:36:56 | 00:00:00 | |
| BIOWL1-15 | 2026-08-30 12:54:46 | 51.72416 | 8.34509 | 80° | 139km/h | 11296m | -8.5m/s | -55°C | 42.5% | 226.1hPa | 2.6V | 08:10:42 | 02:36:55 | 00:00:00 | |
| HSKMA3-T | 2026-08-30 12:54:44 | 51.72403 | 8.34397 | 79° | 141km/h | 11312m | -8.1m/s | -55.1°C | 41.8% | 225.6hPa | 2.5V | 08:10:42 | 02:36:53 | 00:00:00 | |
| GOEST3-10 | 2026-08-30 12:54:44 | 51.72403 | 8.34397 | 80° | 137km/h | 11312m | -8.1m/s | -55.0°C | 40.3% | 225.6hPa | 2.5V | 00:00:00 | 00:00:00 | 00:00:00 | |
| DL1XH-15 | 2026-08-30 12:54:43 | 51.72364 | 8.34068 | 78° | 137km/h | 11362m | -8.4m/s | -55.5°C | 38.9% | 223.8hPa | 2.5V | 08:10:19 | 02:36:47 | 00:00:00 | |
| DF8AY | 2026-08-30 12:54:41 | 51.72383 | 8.34231 | 79° | 137km/h | 11337m | -8.4m/s | -55.3°C | 40.8% | 224.7hPa | 2.6V | 08:11:33 | 02:36:50 | 00:00:00 | |
| DL8DAS-14 | 2026-08-30 12:54:41 | 51.72376 | 8.34177 | 79° | 135km/h | 11346m | -8.5m/s | -55.4°C | 33.2% | 224.4hPa | 2.6V | 00:00:00 | 00:00:00 | 00:00:00 | |
| DL1NUX | 2026-08-30 12:54:40 | 51.72344 | 8.33906 | 79° | 135km/h | 11388m | -8.7m/s | -55.4°C | 37.3% | 223hPa | 2.6V | 08:10:22 | 02:36:44 | 00:00:00 | |
| DO2JMG | 2026-08-30 12:54:40 | 51.72376 | 8.34177 | 79° | 137km/h | 11346m | -8.5m/s | -55.4°C | 40.5% | 224.4hPa | 2.6V | 08:10:42 | 02:36:49 | 00:00:00 | |
| AA1-15 | 2026-08-30 12:54:40 | 51.72370 | 8.34122 | 80° | 135km/h | 11354m | -8.3m/s | -55.4°C | 40.1% | 224.1hPa | 2.6V | 08:10:42 | 02:36:48 | 00:00:00 | |
| DL4BBY-15 | 2026-08-30 12:54:39 | 51.72370 | 8.34122 | 80° | 131km/h | 11355m | -8.2m/s | -54.9°C | 0% | 0hPa | 2.5V | 00:00:00 | 00:00:00 | 00:00:00 | |
| DM0DOS-11 | 2026-08-30 12:54:38 | 51.72351 | 8.33960 | 79° | 135km/h | 11379m | -8.4m/s | -55.4°C | 37.7% | 223.2hPa | 2.5V | 08:10:21 | 02:36:45 | 00:00:00 | |
| DL1XH-west | 2026-08-30 12:54:37 | 51.72357 | 8.34014 | 79° | 135km/h | 11371m | -8.5m/s | -55.5°C | 39.2% | 223.5hPa | 2.5V | 08:10:42 | 02:36:46 | 00:00:00 | |
| BIOWL1-15 | 2026-08-30 12:54:35 | 51.72344 | 8.33906 | 79° | 135km/h | 11388m | -8.7m/s | -55.4°C | 38.3% | 223hPa | 2.6V | 08:10:42 | 02:36:44 | 00:00:00 | |
| HSKMA3-T | 2026-08-30 12:54:34 | 51.72338 | 8.33853 | 79° | 133km/h | 11396m | -8.3m/s | -55.4°C | 37.8% | 222.6hPa | 2.6V | 08:10:42 | 02:36:43 | 00:00:00 | |
| GOEST3-10 | 2026-08-30 12:54:34 | 51.72338 | 8.33853 | 80° | 133km/h | 11396m | -8.3m/s | -55.4°C | 36.7% | 222.6hPa | 2.5V | 00:00:00 | 00:00:00 | 00:00:00 | |
| DL1ZP-14 | 2026-08-30 12:54:32 | 51.72325 | 8.33747 | 79° | 131km/h | 11413m | -8.6m/s | -55.4°C | 29.9% | 222.1hPa | 2.5V | 00:00:00 | 00:00:00 | 00:00:00 | |
| DO3DL | 2026-08-30 12:54:31 | 51.72325 | 8.33747 | 80° | 131km/h | 11413m | -8.6m/s | -55.4°C | 29.9% | 222.1hPa | 2.5V | 08:10:00 | 00:00:00 | 00:00:00 | |
| DL1NUX | 2026-08-30 12:54:30 | 51.72284 | 8.33379 | 80° | 131km/h | 11473m | -8.6m/s | -55.6°C | 33.8% | 220hPa | 2.5V | 08:10:32 | 02:36:34 | 00:00:00 | |
| DL1XH-15 | 2026-08-30 12:54:29 | 51.72301 | 8.33537 | 79° | 131km/h | 11447m | -8.4m/s | -55.5°C | 34.5% | 220.9hPa | 2.6V | 08:10:29 | 02:36:37 | 00:00:00 | |
| DF8AY | 2026-08-30 12:54:29 | 51.72301 | 8.33536 | 80° | 131km/h | 11447m | -8.4m/s | -55.5°C | 35.8% | 220.9hPa | 2.6V | 08:11:33 | 02:36:37 | 00:00:00 | |
| DO2JMG | 2026-08-30 12:54:29 | 51.72307 | 8.33589 | 80° | 131km/h | 11439m | -8.4m/s | -55.4°C | 36.1% | 221.2hPa | 2.6V | 08:10:42 | 02:36:38 | 00:00:00 | |
| DB0NH | 2026-08-30 12:54:29 | 51.72307 | 8.33589 | 80° | 128km/h | 11439m | -8.4m/s | -55.4°C | 34.7% | 221.1hPa | 2.5V | 00:00:00 | 02:36:38 | 00:00:00 | |
| DM0DOS-11 | 2026-08-30 12:54:28 | 51.72290 | 8.33432 | 80° | 131km/h | 11464m | -8.4m/s | -55.5°C | 34% | 220.3hPa | 2.5V | 08:10:31 | 02:36:35 | 00:00:00 | |
| DL1XH-west | 2026-08-30 12:54:27 | 51.72296 | 8.33484 | 80° | 131km/h | 11456m | -8.6m/s | -55.5°C | 35.6% | 220.6hPa | 2.5V | 08:10:42 | 02:36:36 | 00:00:00 | |
| DO9LL-15 | 2026-08-30 12:54:26 | 51.72290 | 8.33432 | 81° | 130km/h | 11464m | -8.4m/s | -55.5°C | 34.0% | 220.2hPa | 2.6V | 00:00:00 | 02:36:35 | 00:00:00 | |
| DO1YAY-16 | 2026-08-30 12:54:25 | 51.72279 | 8.33326 | 80° | 131km/h | 11481m | -8.5m/s | -55.6°C | 27.5% | 219.7hPa | 2.6V | 00:00:00 | 00:00:00 | 00:00:00 | |
| GOEST3-10 | 2026-08-30 12:54:24 | 51.72279 | 8.33326 | 81° | 133km/h | 11481m | -8.4m/s | -55.6°C | 33.2% | 219.6hPa | 2.6V | 00:00:00 | 00:00:00 | 00:00:00 | |
| DL1XH-15 | 2026-08-30 12:54:23 | 51.72241 | 8.33007 | 78° | 131km/h | 11533m | -8.6m/s | -55.9°C | 31.6% | 217.9hPa | 2.6V | 08:10:39 | 02:36:27 | 00:00:00 | |
| HSKMA3-T | 2026-08-30 12:54:23 | 51.72273 | 8.33273 | 80° | 133km/h | 11490m | -8.6m/s | -55.7°C | 34.3% | 219.4hPa | 2.6V | 08:10:42 | 02:36:32 | 00:00:00 | |
| DL1NUX | 2026-08-30 12:54:20 | 51.72223 | 8.32852 | 80° | 128km/h | 11558m | -8.3m/s | -55.9°C | 30.9% | 217.1hPa | 2.5V | 08:10:42 | 02:36:24 | 00:00:00 | |
| DC4HF-4 | 2026-08-30 12:54:20 | 51.72248 | 8.33060 | 78° | 131km/h | 11524m | -8.5m/s | -55.8°C | 26.1% | 218.2hPa | 2.5V | 00:00:00 | 00:00:00 | 00:00:00 | |
| DL4XJ-10 | 2026-08-30 12:54:19 | 51.72247 | 8.33060 | 79° | 128km/h | 11524m | -8.4m/s | -55.3°C | 0% | 0hPa | 2.5V | 00:00:00 | 00:00:00 | 00:00:00 | |
| DM0DOS-11 | 2026-08-30 12:54:18 | 51.72229 | 8.32904 | 79° | 128km/h | 11549m | -8.3m/s | -55.9°C | 31.2% | 217.3hPa | 2.5V | 08:10:41 | 02:36:25 | 00:00:00 | |
| DO2JMG | 2026-08-30 12:54:18 | 51.72241 | 8.33007 | 78° | 131km/h | 11533m | -8.6m/s | -55.9°C | 32.5% | 217.9hPa | 2.6V | 08:10:42 | 02:36:27 | 00:00:00 | |
| DL1XH-west | 2026-08-30 12:54:16 | 51.72229 | 8.32904 | 80° | 128km/h | 11549m | -8.3m/s | -55.9°C | 31.9% | 217.4hPa | 2.5V | 08:10:42 | 02:36:25 | 00:00:00 | |
| BIOWL1-15 | 2026-08-30 12:54:14 | 51.72218 | 8.32801 | 80° | 128km/h | 11566m | -8.6m/s | -56°C | 31% | 216.8hPa | 2.5V | 08:11:33 | 02:36:23 | 00:00:00 | |
| HSKMA3-T | 2026-08-30 12:54:13 | 51.72212 | 8.32750 | 80° | 128km/h | 11575m | -8.6m/s | -55.9°C | 30.7% | 216.5hPa | 2.6V | 08:11:33 | 02:36:22 | 00:00:00 | |
| DB0UT-7 | 2026-08-30 12:54:13 | 51.72212 | 8.32749 | 81° | 126km/h | 11575m | -8.6m/s | -55.9°C | 30.1% | 216.5hPa | 2.6V | 00:00:00 | 00:00:00 | 00:00:00 | |
| HTAHTA | 2026-08-30 12:54:12 | 51.72201 | 8.32647 | 79° | 126km/h | 11592m | -8.5m/s | -56.1°C | 23.8% | 215.9hPa | 2.6V | 00:00:00 | 00:00:00 | 00:00:00 | |
| DM0DOS-11 | 2026-08-30 12:54:11 | 51.72170 | 8.32393 | 78° | 128km/h | 11635m | -8.5m/s | -56.3°C | 27.3% | 214.5hPa | 2.6V | 08:10:51 | 02:36:15 | 00:00:00 | |
| AA1-15 | 2026-08-30 12:54:08 | 51.72176 | 8.32444 | 78° | 128km/h | 11626m | -8.7m/s | -56.2°C | 27.8% | 214.8hPa | 2.6V | 08:11:33 | 02:36:16 | 00:00:00 | |
| DO2JMG | 2026-08-30 12:54:08 | 51.72183 | 8.32495 | 79° | 128km/h | 11617m | -8.6m/s | -56.1°C | 28.3% | 215hPa | 2.6V | 08:11:33 | 02:36:17 | 00:00:00 | |
| DJ2DS-15 | 2026-08-30 12:54:07 | 51.72176 | 8.32444 | 79° | 126km/h | 11626m | -8.7m/s | -56.2°C | 27.4% | 214.7hPa | 2.5V | 00:00:00 | 02:36:16 | 00:00:00 | |
| DL1XH1-15 | 2026-08-30 12:54:06 | 51.72157 | 8.32291 | 77° | 128km/h | 11652m | -8.6m/s | -56.3°C | 26.4% | 213.9hPa | 2.5V | 08:10:53 | 02:36:13 | 00:00:00 | |
| DL1XH-west | 2026-08-30 12:54:06 | 51.72170 | 8.32393 | 79° | 128km/h | 11635m | -8.5m/s | -56.3°C | 27.4% | 214.5hPa | 2.6V | 08:11:33 | 02:36:15 | 00:00:00 | |
| BIOWL1-15 | 2026-08-30 12:54:04 | 51.72157 | 8.32291 | 78° | 128km/h | 11652m | -8.6m/s | -56.3°C | 26.3% | 213.9hPa | 2.5V | 08:11:33 | 02:36:13 | 00:00:00 | |
| HSKMA3-T | 2026-08-30 12:54:03 | 51.72150 | 8.32241 | 78° | 126km/h | 11660m | -8.5m/s | -56.3°C | 25.7% | 213.6hPa | 2.5V | 08:11:33 | 02:36:12 | 00:00:00 | |
| AA1-15 | 2026-08-30 12:53:59 | 51.72122 | 8.31990 | 82° | 126km/h | 11703m | -8.5m/s | -56.2°C | 23% | 212.1hPa | 2.5V | 08:11:33 | 02:36:07 | 00:00:00 | |
| DL1XH1-15 | 2026-08-30 12:53:58 | 51.72103 | 8.31783 | 80° | 128km/h | 11737m | -8.3m/s | -56.1°C | 22% | 211.1hPa | 2.5V | 08:11:03 | 02:36:03 | 00:00:00 | |
| DM0DOS-11 | 2026-08-30 12:53:58 | 51.72113 | 8.31887 | 81° | 130km/h | 11720m | -8.3m/s | -56.1°C | 22.9% | 211.6hPa | 2.6V | 08:11:01 | 02:36:05 | 00:00:00 | |
| DL1XH-15 | 2026-08-30 12:53:58 | 51.72122 | 8.31990 | 81° | 126km/h | 11703m | -8.5m/s | -56.2°C | 23.9% | 212.1hPa | 2.5V | 08:10:59 | 02:36:07 | 00:00:00 | |
| DO2JMG | 2026-08-30 12:53:57 | 51.72118 | 8.31939 | 82° | 128km/h | 11712m | -8.6m/s | -56.1°C | 22.3% | 211.9hPa | 2.6V | 08:11:33 | 02:36:06 | 00:00:00 | |
| DL1XH-west | 2026-08-30 12:53:55 | 51.72108 | 8.31835 | 81° | 130km/h | 11728m | -8.3m/s | -56.2°C | 21.4% | 211.3hPa | 2.6V | 08:11:33 | 02:36:04 | 00:00:00 | |
| DF8AY | 2026-08-30 12:53:53 | 51.72073 | 8.31534 | 79° | 122km/h | 11779m | -8.8m/s | -56.1°C | 17.7% | 209.7hPa | 2.5V | 08:11:33 | 02:35:58 | 00:00:00 | |
| BIOWL1-15 | 2026-08-30 12:53:53 | 51.72097 | 8.31733 | 80° | 126km/h | 11745m | -8.1m/s | -56.1°C | 20.2% | 210.8hPa | 2.5V | 08:11:33 | 02:36:02 | 00:00:00 | |
| HSKMA3-T | 2026-08-30 12:53:52 | 51.72091 | 8.31683 | 79° | 124km/h | 11753m | -8.7m/s | -56.1°C | 19.6% | 210.5hPa | 2.5V | 08:11:33 | 02:36:01 | 00:00:00 | |
| DM0DOS-11 | 2026-08-30 12:53:51 | 51.72057 | 8.31388 | 80° | 120km/h | 11805m | -8.8m/s | -55.9°C | 17% | 208.8hPa | 2.6V | 08:11:11 | 02:35:55 | 00:00:00 | |
| DL1NUX | 2026-08-30 12:53:50 | 51.72052 | 8.31339 | 80° | 120km/h | 11814m | -9m/s | -55.8°C | 16.4% | 208.5hPa | 2.6V | 08:11:12 | 02:35:54 | 00:00:00 | |
| AA1-15 | 2026-08-30 12:53:47 | 51.72062 | 8.31436 | 80° | 122km/h | 11796m | -8.9m/s | -56°C | 16.4% | 209.1hPa | 2.5V | 08:11:33 | 02:35:56 | 00:00:00 | |
| DJ2DS-15 | 2026-08-30 12:53:47 | 51.72062 | 8.31436 | 81° | 113km/h | 11797m | -8.8m/s | -56.0°C | 17.5% | 209.1hPa | 2.6V | 00:00:00 | 02:35:56 | 00:00:00 | |
| DL1XH1-15 | 2026-08-30 12:53:46 | 51.72047 | 8.31291 | 81° | 119km/h | 11823m | -9m/s | -55.7°C | 15.9% | 208.2hPa | 2.6V | 08:11:13 | 02:35:53 | 00:00:00 | |
| DO2JMG | 2026-08-30 12:53:46 | 51.72057 | 8.31388 | 81° | 120km/h | 11805m | -8.8m/s | -55.9°C | 15.8% | 208.8hPa | 2.6V | 08:11:33 | 02:35:55 | 00:00:00 | |
| DL1XH-west | 2026-08-30 12:53:44 | 51.72047 | 8.31291 | 81° | 119km/h | 11823m | -9m/s | -55.7°C | 14.6% | 208.2hPa | 2.6V | 08:11:33 | 02:35:53 | 00:00:00 | |
| DF8AY | 2026-08-30 12:53:43 | 51.72043 | 8.31243 | 81° | 117km/h | 11832m | -8.9m/s | -55.4°C | 13.9% | 207.9hPa | 2.5V | 08:11:33 | 02:35:52 | 00:00:00 | |
| BIOWL1-15 | 2026-08-30 12:53:43 | 51.72023 | 8.31057 | 80° | 115km/h | 11868m | -8.9m/s | -54.9°C | 12.4% | 206.8hPa | 2.6V | 08:11:33 | 02:35:48 | 00:00:00 | |
| HSKMA3-T | 2026-08-30 12:53:41 | 51.72033 | 8.31150 | 80° | 115km/h | 11850m | -8.8m/s | -55.1°C | 13% | 207.3hPa | 2.5V | 08:11:33 | 02:35:50 | 00:00:00 | |
| DL1NUX | 2026-08-30 12:53:40 | 51.72002 | 8.30877 | 78° | 110km/h | 11903m | -9.1m/s | -54.6°C | 12.7% | 205.6hPa | 2.5V | 08:11:22 | 02:35:44 | 00:00:00 | |
| SONDE2-11 | 2026-08-30 12:53:40 | 51.72023 | 8.31057 | 79° | 113km/h | 11867m | -8.9m/s | -54.9°C | 9.6% | 206.8hPa | 2.5V | 00:00:00 | 00:00:00 | 00:00:00 | |
| DL8DAS-14 | 2026-08-30 12:53:39 | 51.72018 | 8.31012 | 79° | 113km/h | 11876m | -8.8m/s | -54.8°C | 9.5% | 206.5hPa | 2.5V | 00:00:00 | 00:00:00 | 00:00:00 | |
| DL1XH1-15 | 2026-08-30 12:53:38 | 51.71996 | 8.30833 | 78° | 110km/h | 11912m | -9m/s | -54.6°C | 12.6% | 205.3hPa | 2.5V | 08:11:23 | 02:35:43 | 00:00:00 | |
| AA1-15 | 2026-08-30 12:53:37 | 51.72007 | 8.30921 | 79° | 111km/h | 11894m | -8.9m/s | -54.6°C | 11.8% | 205.9hPa | 2.5V | 08:11:33 | 02:35:45 | 00:00:00 | |
| DO2JMG | 2026-08-30 12:53:35 | 51.72002 | 8.30877 | 79° | 110km/h | 11903m | -9.1m/s | -54.6°C | 11.8% | 205.6hPa | 2.5V | 08:11:33 | 02:35:44 | 00:00:00 | |
| SO1NDE-10 | 2026-08-30 12:53:35 | 51.72001 | 8.30877 | 79° | 111km/h | 11904m | -9.0m/s | -54.6°C | 12.7% | 205.6hPa | 2.5V | 00:00:00 | 02:35:44 | 00:00:00 | |
| DL1XH-15 | 2026-08-30 12:53:33 | 51.71962 | 8.30574 | 76° | 110km/h | 11966m | -9m/s | -54.6°C | 12.1% | 203.6hPa | 2.5V | 08:11:29 | 02:35:37 | 00:00:00 | |
| DL1XH-west | 2026-08-30 12:53:33 | 51.71991 | 8.30790 | 78° | 110km/h | 11921m | -9.1m/s | -54.7°C | 11.6% | 205.1hPa | 2.6V | 08:11:33 | 02:35:42 | 00:00:00 | |
| DF8AY | 2026-08-30 12:53:32 | 51.71985 | 8.30746 | 79° | 108km/h | 11930m | -9m/s | -54.8°C | 11.6% | 204.7hPa | 2.6V | 08:11:33 | 02:35:41 | 00:00:00 | |
| HSKMA3-T | 2026-08-30 12:53:31 | 51.71979 | 8.30703 | 78° | 108km/h | 11939m | -9.1m/s | -54.8°C | 11.5% | 204.5hPa | 2.6V | 08:11:33 | 02:35:40 | 00:00:00 | |
| DL1NUX | 2026-08-30 12:53:30 | 51.71941 | 8.30446 | 74° | 108km/h | 11994m | -9m/s | -54.5°C | 11.8% | 202.8hPa | 2.6V | 08:11:32 | 02:35:34 | 00:00:00 | |
| AA1-15 | 2026-08-30 12:53:26 | 51.71948 | 8.30488 | 75° | 108km/h | 11984m | -9.1m/s | -54.6°C | 10.7% | 203hPa | 2.6V | 08:11:33 | 02:35:35 | 00:00:00 | |
| DL1XH1-15 | 2026-08-30 12:53:26 | 51.71934 | 8.30404 | 74° | 108km/h | 12002m | -9.1m/s | -54.4°C | 11.6% | 202.4hPa | 2.6V | 08:11:33 | 02:35:33 | 00:00:00 | |
| DO2JMG | 2026-08-30 12:53:24 | 51.71934 | 8.30404 | 74° | 108km/h | 12003m | -9.1m/s | -54.4°C | 10.4% | 202.4hPa | 2.6V | 08:11:33 | 02:35:33 | 00:00:00 | |
| DL1XH-15 | 2026-08-30 12:53:23 | 51.71885 | 8.30147 | 71° | 111km/h | 12057m | -9.1m/s | -54.1°C | 10.8% | 200.7hPa | 2.5V | 08:11:39 | 02:35:27 | 00:00:00 | |
| DL1XH-west | 2026-08-30 12:53:22 | 51.71919 | 8.30319 | 74° | 110km/h | 12021m | -9.1m/s | -54.1°C | 10.1% | 201.9hPa | 2.5V | 08:12:24 | 02:35:31 | 00:00:00 | |
| BIOWL1-15 | 2026-08-30 12:53:22 | 51.71902 | 8.30233 | 72° | 111km/h | 12039m | -9.1m/s | -54.1°C | 9.9% | 201.3hPa | 2.6V | 08:12:24 | 02:35:29 | 00:00:00 | |
| HSKMA3-T | 2026-08-30 12:53:21 | 51.71911 | 8.30276 | 73° | 110km/h | 12030m | -9.1m/s | -54.1°C | 9.9% | 201.6hPa | 2.5V | 08:12:24 | 02:35:30 | 00:00:00 | |
| DO3DL | 2026-08-30 12:53:20 | 51.71902 | 8.30233 | 73° | 111km/h | 12039m | -9.1m/s | -54.1°C | 7.6% | 201.3hPa | 2.5V | 08:12:00 | 00:00:00 | 00:00:00 | |
| DL4XJ-10 | 2026-08-30 12:53:19 | 51.71894 | 8.30190 | 73° | 115km/h | 12048m | -9.1m/s | -53.6°C | 0% | 0hPa | 2.5V | 00:00:00 | 00:00:00 | 00:00:00 | |
| DL1XH1-15 | 2026-08-30 12:53:18 | 51.71848 | 8.29975 | 71° | 113km/h | 12094m | -9.2m/s | -53.7°C | 10.3% | 199.6hPa | 2.5V | 08:11:43 | 02:35:23 | 00:00:00 | |
| AA1-15 | 2026-08-30 12:53:16 | 51.71858 | 8.30018 | 71° | 111km/h | 12084m | -9.2m/s | -53.7°C | 9.2% | 199.8hPa | 2.6V | 08:12:24 | 02:35:24 | 00:00:00 | |
| DO2JMG | 2026-08-30 12:53:13 | 51.71839 | 8.29931 | 71° | 113km/h | 12103m | -9.2m/s | -53.7°C | 9.1% | 199.3hPa | 2.5V | 08:12:24 | 02:35:22 | 00:00:00 | |
| DD1CC8 | 2026-08-30 12:53:12 | 51.71821 | 8.29844 | 71° | 113km/h | 12121m | -9.1m/s | -53.6°C | 6.8% | 198.8hPa | 2.5V | 00:00:00 | 00:00:00 | 00:00:00 | |
| DM0DOS-11 | 2026-08-30 12:53:11 | 51.71777 | 8.29619 | 73° | 117km/h | 12166m | -9.1m/s | -53.6°C | 9.8% | 197.4hPa | 2.5V | 08:11:51 | 02:35:15 | 00:00:00 | |
| DL1XH-west | 2026-08-30 12:53:11 | 51.71821 | 8.29844 | 72° | 115km/h | 12121m | -9.1m/s | -53.6°C | 8.9% | 198.8hPa | 2.6V | 08:12:24 | 02:35:20 | 00:00:00 | |
| HSKMA3-T | 2026-08-30 12:53:10 | 51.71812 | 8.29800 | 72° | 115km/h | 12130m | -9m/s | -53.5°C | 8.8% | 198.4hPa | 2.6V | 08:12:24 | 02:35:19 | 00:00:00 | |
| BIOWL1-15 | 2026-08-30 12:53:09 | 51.71769 | 8.29574 | 73° | 117km/h | 12175m | -9.1m/s | -53.7°C | 8.2% | 197.1hPa | 2.5V | 08:12:24 | 02:35:14 | 00:00:00 | |
| DL1XH-15 | 2026-08-30 12:53:09 | 51.71795 | 8.29710 | 72° | 117km/h | 12148m | -9m/s | -53.6°C | 9.9% | 197.9hPa | 2.5V | 08:11:49 | 02:35:17 | 00:00:00 | |
| DL4BBY-15 | 2026-08-30 12:53:09 | 51.71803 | 8.29755 | 73° | 110km/h | 12139m | -8.9m/s | -53.1°C | 0% | 0hPa | 2.6V | 00:00:00 | 00:00:00 | 00:00:00 | |
| DC4HF-4 | 2026-08-30 12:53:08 | 51.71786 | 8.29665 | 72° | 115km/h | 12157m | -9.0m/s | -53.7°C | 6.6% | 197.6hPa | 2.6V | 00:00:00 | 00:00:00 | 00:00:00 | |
| DJ2DS-15 | 2026-08-30 12:53:07 | 51.71786 | 8.29665 | 73° | 111km/h | 12157m | -9.0m/s | -53.6°C | 9.8% | 197.6hPa | 2.6V | 00:00:00 | 02:35:16 | 00:00:00 | |
| DL1XH1-15 | 2026-08-30 12:53:06 | 51.71760 | 8.29528 | 73° | 117km/h | 12184m | -9.1m/s | -53.6°C | 9.5% | 196.8hPa | 2.6V | 08:11:53 | 02:35:13 | 00:00:00 | |
| AA1-15 | 2026-08-30 12:53:05 | 51.71760 | 8.29528 | 74° | 117km/h | 12184m | -9.1m/s | -53.6°C | 8.2% | 196.8hPa | 2.6V | 08:12:24 | 02:35:13 | 00:00:00 | |
| DO2JMG | 2026-08-30 12:53:03 | 51.71752 | 8.29483 | 74° | 115km/h | 12194m | -9.2m/s | -53.7°C | 8.1% | 196.5hPa | 2.6V | 08:12:24 | 02:35:12 | 00:00:00 | |
| SONCRA | 2026-08-30 12:53:02 | 51.71736 | 8.29393 | 74° | 113km/h | 12212m | -9.3m/s | -53.6°C | 6.0% | 195.9hPa | 2.5V | 00:00:00 | 00:00:00 | 00:00:00 | |
| DL1NUX | 2026-08-30 12:53:00 | 51.71694 | 8.29126 | 76° | 110km/h | 12268m | -9.1m/s | -53.4°C | 8.7% | 194.2hPa | 2.5V | 08:12:02 | 02:35:04 | 00:00:00 | |
| DL1XH-west | 2026-08-30 12:53:00 | 51.71729 | 8.29348 | 75° | 113km/h | 12222m | -9.4m/s | -53.6°C | 7.7% | 195.7hPa | 2.5V | 08:12:24 | 02:35:09 | 00:00:00 | |
| EDDB2-12 | 2026-08-30 12:52:59 | 51.71714 | 8.29259 | 75° | 111km/h | 12240m | -9.3m/s | -53.6°C | 5.8% | 195.1hPa | 2.6V | 00:00:00 | 00:00:00 | 00:00:00 | |
| HSKMA3-T | 2026-08-30 12:52:59 | 51.71721 | 8.29303 | 75° | 113km/h | 12231m | -9.4m/s | -53.6°C | 7.6% | 195.4hPa | 2.5V | 08:12:24 | 02:35:08 | 00:00:00 | |
| DM0DOS-11 | 2026-08-30 12:52:58 | 51.71700 | 8.29170 | 75° | 111km/h | 12259m | -9.2m/s | -53.6°C | 8.8% | 194.5hPa | 2.6V | 08:12:01 | 02:35:05 | 00:00:00 | |
| BIOWL1-15 | 2026-08-30 12:52:57 | 51.71707 | 8.29215 | 76° | 113km/h | 12250m | -9.2m/s | -53.7°C | 7.4% | 194.8hPa | 2.6V | 08:12:24 | 02:35:06 | 00:00:00 | |
| AA1-15 | 2026-08-30 12:52:54 | 51.71687 | 8.29083 | 76° | 110km/h | 12277m | -9m/s | -53.2°C | 7.1% | 194hPa | 2.5V | 08:12:24 | 02:35:03 | 00:00:00 | |
| BUE01 | 2026-08-30 12:52:54 | 51.71687 | 8.29083 | 75° | 110km/h | 12277m | -9.0m/s | -53.2°C | 5.4% | 194.0hPa | 2.5V | 00:00:00 | 00:00:00 | 00:00:00 | |
| DL1XH-15 | 2026-08-30 12:52:53 | 51.71646 | 8.28828 | 74° | 106km/h | 12332m | -9.3m/s | -53.1°C | 8.3% | 192.3hPa | 2.5V | 08:12:09 | 02:34:57 | 00:00:00 | |
| DO2JMG | 2026-08-30 12:52:53 | 51.71680 | 8.29039 | 76° | 110km/h | 12286m | -9.2m/s | -53°C | 7% | 193.7hPa | 2.5V | 08:12:24 | 02:35:02 | 00:00:00 | |
| DO1YAY-16 | 2026-08-30 12:52:52 | 51.71625 | 8.28708 | 75° | 100km/h | 12359m | -9.1m/s | -53.1°C | 5.4% | 191.5hPa | 2.5V | 00:00:00 | 00:00:00 | 00:00:00 | |
| DM0DOS-11 | 2026-08-30 12:52:51 | 51.71631 | 8.28747 | 74° | 100km/h | 12350m | -9m/s | -53.1°C | 8.3% | 191.8hPa | 2.5V | 08:12:11 | 02:34:55 | 00:00:00 | |
| DL1NUX | 2026-08-30 12:52:50 | 51.71625 | 8.28708 | 75° | 100km/h | 12359m | -9.1m/s | -53.1°C | 8.3% | 191.5hPa | 2.6V | 08:12:12 | 02:34:54 | 00:00:00 | |
| BIOWL1-15 | 2026-08-30 12:52:49 | 51.71639 | 8.28787 | 74° | 102km/h | 12341m | -8.9m/s | -53.1°C | 6.9% | 192.1hPa | 2.5V | 08:12:24 | 02:34:56 | 00:00:00 | |
| DL1XH-west | 2026-08-30 12:52:49 | 51.71653 | 8.28869 | 75° | 106km/h | 12323m | -9.3m/s | -53.1°C | 6.9% | 192.6hPa | 2.6V | 08:12:24 | 02:34:58 | 00:00:00 | |
| AA1-15 | 2026-08-30 12:52:44 | 51.71618 | 8.28668 | 76° | 102km/h | 12368m | -8.8m/s | -53.2°C | 6.8% | 191.2hPa | 2.6V | 08:12:24 | 02:34:53 | 00:00:00 | |
| DL1XH-15 | 2026-08-30 12:52:43 | 51.71577 | 8.28423 | 74° | 102km/h | 12423m | -9.1m/s | -53.3°C | 8.2% | 189.7hPa | 2.5V | 08:12:19 | 02:34:47 | 00:00:00 | |
| DO2JMG | 2026-08-30 12:52:42 | 51.71605 | 8.28586 | 75° | 104km/h | 12386m | -9.3m/s | -53.2°C | 6.8% | 190.7hPa | 2.5V | 08:12:24 | 02:34:51 | 00:00:00 | |
| GOEST3-10 | 2026-08-30 12:52:42 | 51.71605 | 8.28586 | 76° | 104km/h | 12386m | -9.3m/s | -53.2°C | 8.2% | 190.7hPa | 2.5V | 00:00:00 | 00:00:00 | 00:00:00 | |
| DL1NUX | 2026-08-30 12:52:40 | 51.71557 | 8.28303 | 74° | 100km/h | 12450m | -9.3m/s | -53.5°C | 8.1% | 188.9hPa | 2.6V | 08:12:22 | 02:34:44 | 00:00:00 | |
| DB0DAN | 2026-08-30 12:52:40 | 51.71592 | 8.28504 | 75° | 100km/h | 12405m | -9.3m/s | -53.3°C | 5.2% | 190.15hPa | 2.6V | 00:00:00 | 00:00:00 | 00:00:00 | |
| DF8AY | 2026-08-30 12:52:39 | 51.71550 | 8.28264 | 74° | 100km/h | 12460m | -9.4m/s | -53.5°C | 6.5% | 188.6hPa | 2.6V | 08:12:24 | 02:34:43 | 00:00:00 | |
| DL4XJ-10 | 2026-08-30 12:52:39 | 51.71584 | 8.28463 | 75° | 100km/h | 12414m | -9.1m/s | -52.8°C | 0% | 0hPa | 2.6V | 00:00:00 | 00:00:00 | 00:00:00 | |
| DM0DOS-11 | 2026-08-30 12:52:38 | 51.71564 | 8.28343 | 75° | 102km/h | 12441m | -9.1m/s | -53.4°C | 8.1% | 189.1hPa | 2.6V | 08:12:21 | 02:34:45 | 00:00:00 | |
| DL1XH1-15 | 2026-08-30 12:52:38 | 51.71550 | 8.28264 | 74° | 100km/h | 12460m | -9.4m/s | -53.5°C | 8.1% | 188.6hPa | 2.6V | 08:12:23 | 02:34:43 | 00:00:00 | |
| DL1XH-west | 2026-08-30 12:52:38 | 51.71577 | 8.28423 | 74° | 102km/h | 12423m | -9.1m/s | -53.3°C | 6.7% | 189.7hPa | 2.5V | 08:12:24 | 02:34:47 | 00:00:00 | |
| BIOWL1-15 | 2026-08-30 12:52:37 | 51.71557 | 8.28303 | 74° | 100km/h | 12450m | -9.3m/s | -53.5°C | 6.5% | 188.9hPa | 2.6V | 08:12:24 | 02:34:44 | 00:00:00 | |
| AA1-15 | 2026-08-30 12:52:33 | 51.71543 | 8.28224 | 75° | 100km/h | 12469m | -9.1m/s | -53.5°C | 6.5% | 188.3hPa | 2.5V | 08:12:24 | 02:34:42 | 00:00:00 | |
| DO2JMG | 2026-08-30 12:52:31 | 51.71529 | 8.28145 | 74° | 100km/h | 12487m | -9.3m/s | -53.6°C | 6.3% | 187.7hPa | 2.5V | 08:13:15 | 02:34:40 | 00:00:00 | |
| SONCRA | 2026-08-30 12:52:31 | 51.71529 | 8.28145 | 73° | 99km/h | 12487m | -9.3m/s | -53.6°C | 5.0% | 187.7hPa | 2.5V | 00:00:00 | 00:00:00 | 00:00:00 | |
| DL1NUX | 2026-08-30 12:52:30 | 51.71484 | 8.27912 | 71° | 100km/h | 12543m | -9.1m/s | -53.7°C | 7.8% | 186.1hPa | 2.5V | 08:12:32 | 02:34:34 | 00:00:00 | |
| HSKMA3-T | 2026-08-30 12:52:28 | 51.71508 | 8.28028 | 73° | 100km/h | 12515m | -9.3m/s | -53.5°C | 6.1% | 187hPa | 2.6V | 08:13:15 | 02:34:37 | 00:00:00 | |
| DD8BA-10 | 2026-08-30 12:52:28 | 51.71492 | 8.27950 | 72° | 102km/h | 12534m | -9.2m/s | -53.6°C | 7.8% | 186.3hPa | 2.5V | 00:00:00 | 00:00:00 | 00:00:00 | |
| DL1XH-west | 2026-08-30 12:52:28 | 51.71492 | 8.27950 | 72° | 100km/h | 12534m | -9.2m/s | -53.6°C | 6% | 186.4hPa | 2.5V | 08:13:15 | 02:34:35 | 00:00:00 | |
| DO9LL-15 | 2026-08-30 12:52:27 | 51.71492 | 8.27950 | 72° | 104km/h | 12534m | -9.2m/s | -53.6°C | 7.8% | 186.3hPa | 2.5V | 00:00:00 | 02:34:35 | 00:00:00 | |
| DL1XH1-15 | 2026-08-30 12:52:25 | 51.71476 | 8.27873 | 70° | 100km/h | 12552m | -9.4m/s | -53.6°C | 7.8% | 185.9hPa | 2.5V | 08:12:33 | 02:34:33 | 00:00:00 | |
| AA1-15 | 2026-08-30 12:52:23 | 51.71467 | 8.27835 | 70° | 100km/h | 12561m | -9.3m/s | -53.6°C | 5.8% | 185.6hPa | 2.6V | 08:13:15 | 02:34:32 | 00:00:00 | |
| BIOWL1-15 | 2026-08-30 12:52:23 | 51.71394 | 8.27521 | 71° | 104km/h | 12636m | -9.6m/s | -53.7°C | 5.1% | 183.5hPa | 2.6V | 08:13:15 | 02:34:24 | 00:00:00 | |
| DO2JMG | 2026-08-30 12:52:21 | 51.71449 | 8.27758 | 69° | 102km/h | 12580m | -9.4m/s | -53.6°C | 5.6% | 185.1hPa | 2.6V | 08:13:15 | 02:34:30 | 00:00:00 | |
| DO1YAY-16 | 2026-08-30 12:52:21 | 51.71439 | 8.27719 | 68° | 102km/h | 12589m | -9.3m/s | -53.5°C | 4.5% | 184.8hPa | 2.6V | 00:00:00 | 00:00:00 | 00:00:00 | |
| DL1NUX | 2026-08-30 12:52:20 | 51.71394 | 8.27521 | 70° | 104km/h | 12636m | -9.6m/s | -53.6°C | 7.2% | 183.5hPa | 2.6V | 08:12:42 | 02:34:24 | 00:00:00 | |
| DL1XH-15 | 2026-08-30 12:52:19 | 51.71421 | 8.27641 | 69° | 104km/h | 12608m | -9.3m/s | -53.6°C | 7.4% | 184.3hPa | 2.5V | 08:12:39 | 02:34:27 | 00:00:00 | |
| DL4XJ-10 | 2026-08-30 12:52:19 | 51.71430 | 8.27680 | 69° | 104km/h | 12599m | -9.3m/s | -53.1°C | 0% | 0hPa | 2.6V | 00:00:00 | 00:00:00 | 00:00:00 | |
| DL1XH1-15 | 2026-08-30 12:52:18 | 51.71385 | 8.27481 | 71° | 104km/h | 12645m | -9.5m/s | -53.7°C | 7.1% | 183.2hPa | 2.6V | 08:12:43 | 02:34:23 | 00:00:00 | |
| DL1XH-west | 2026-08-30 12:52:17 | 51.71411 | 8.27601 | 70° | 104km/h | 12617m | -8.9m/s | -53.5°C | 5.2% | 183.9hPa | 2.5V | 08:13:15 | 02:34:26 | 00:00:00 | |
| GOEST3-10 | 2026-08-30 12:52:17 | 51.71411 | 8.27601 | 71° | 104km/h | 12618m | -8.8m/s | -53.5°C | 7.3% | 183.9hPa | 2.6V | 00:00:00 | 02:34:26 | 00:00:00 | |
| DO3DL | 2026-08-30 12:52:16 | 51.71402 | 8.27561 | 71° | 104km/h | 12627m | -9.4m/s | -53.6°C | 4.3% | 183.7hPa | 2.6V | 08:13:00 | 00:00:00 | 00:00:00 | |
| DD1CC2-15 | 2026-08-30 12:52:15 | 51.71402 | 8.27561 | 71° | 104km/h | 12627m | -9.4m/s | -53.6°C | 4.3% | 183.7hPa | 2.6V | 08:13:00 | 00:00:00 | 00:00:00 | |
| DK9SH | 2026-08-30 12:52:14 | 51.71393 | 8.27521 | 72° | 104km/h | 12636m | -9.6m/s | -53.7°C | 4.2% | 183.5hPa | 2.6V | 08:13:00 | 00:00:00 | 00:00:00 | |
| DL1XH-15 | 2026-08-30 12:52:13 | 51.71332 | 8.27241 | 68° | 104km/h | 12702m | -9.4m/s | -53.6°C | 6.7% | 181.6hPa | 2.6V | 08:12:49 | 02:34:17 | 00:00:00 | |
| AA1-15 | 2026-08-30 12:52:12 | 51.71368 | 8.27400 | 71° | 104km/h | 12664m | -9.4m/s | -53.8°C | 4.7% | 182.7hPa | 2.5V | 08:13:15 | 02:34:21 | 00:00:00 | |
| DO2JMG | 2026-08-30 12:52:10 | 51.71350 | 8.27320 | 70° | 104km/h | 12683m | -9.3m/s | -53.7°C | 4.5% | 182.1hPa | 2.6V | 08:13:15 | 02:34:19 | 00:00:00 | |
| DO3DL | 2026-08-30 12:52:09 | 51.71341 | 8.27280 | 70° | 104km/h | 12693m | -9.5m/s | -53.7°C | 3.9% | 181.9hPa | 2.5V | 08:13:00 | 00:00:00 | 00:00:00 | |
| DM0DOS-11 | 2026-08-30 12:52:08 | 51.71312 | 8.27162 | 68° | 104km/h | 12721m | -9.2m/s | -53.4°C | 6.4% | 181.1hPa | 2.5V | 08:12:51 | 02:34:15 | 00:00:00 | |
| DL1XH-west | 2026-08-30 12:52:07 | 51.71322 | 8.27202 | 68° | 104km/h | 12711m | -9.2m/s | -53.5°C | 4.1% | 181.3hPa | 2.5V | 08:13:15 | 02:34:16 | 00:00:00 | |
| DL1XH1-15 | 2026-08-30 12:52:06 | 51.71293 | 8.27084 | 68° | 106km/h | 12739m | -9.4m/s | -53.2°C | 6.2% | 180.5hPa | 2.5V | 08:12:53 | 02:34:13 | 00:00:00 | |
| BIOWL1-15 | 2026-08-30 12:52:04 | 51.71293 | 8.27084 | 69° | 106km/h | 12739m | -9.4m/s | -53.2°C | 3.7% | 180.5hPa | 2.5V | 08:13:15 | 02:34:13 | 00:00:00 | |
| DL1XH-15 | 2026-08-30 12:52:03 | 51.71236 | 8.26841 | 69° | 108km/h | 12796m | -9.5m/s | -53°C | 5.6% | 178.9hPa | 2.5V | 08:12:59 | 02:34:07 | 00:00:00 | |
| AA1-15 | 2026-08-30 12:52:01 | 51.71264 | 8.26964 | 69° | 106km/h | 12768m | -9.6m/s | -52.9°C | 3.2% | 179.8hPa | 2.6V | 08:13:15 | 02:34:10 | 00:00:00 | |
| DO2JMG | 2026-08-30 12:52:00 | 51.71255 | 8.26923 | 69° | 106km/h | 12777m | -9.4m/s | -52.9°C | 3.2% | 179.4hPa | 2.5V | 08:13:15 | 02:34:09 | 00:00:00 | |
| DL1XH-west | 2026-08-30 12:51:57 | 51.71226 | 8.26800 | 69° | 110km/h | 12806m | -9.4m/s | -53°C | 2.9% | 178.7hPa | 2.6V | 08:13:15 | 02:34:06 | 00:00:00 | |
| HSKMA3-T | 2026-08-30 12:51:56 | 51.71217 | 8.26758 | 70° | 110km/h | 12815m | -9.5m/s | -53.1°C | 2.9% | 178.4hPa | 2.6V | 08:13:15 | 02:34:05 | 00:00:00 | |
| BIOWL1-15 | 2026-08-30 12:51:53 | 51.71187 | 8.26632 | 69° | 111km/h | 12844m | -9.7m/s | -53.1°C | 2.7% | 177.7hPa | 2.5V | 08:13:15 | 02:34:02 | 00:00:00 | |
| AA1-15 | 2026-08-30 12:51:51 | 51.71166 | 8.26547 | 69° | 111km/h | 12863m | -9.6m/s | -53°C | 2.5% | 177.1hPa | 2.5V | 08:13:15 | 02:34:00 | 00:00:00 | |
| DO2JMG | 2026-08-30 12:51:49 | 51.71146 | 8.26462 | 69° | 110km/h | 12881m | -9.4m/s | -52.5°C | 2.4% | 176.6hPa | 2.6V | 08:13:15 | 02:33:58 | 00:00:00 | |
| DO3DL | 2026-08-30 12:51:48 | 51.71146 | 8.26462 | 70° | 110km/h | 12882m | -9.4m/s | -52.5°C | 2.5% | 176.6hPa | 2.5V | 08:13:00 | 00:00:00 | 00:00:00 | |
| DM0DOS-11 | 2026-08-30 12:51:47 | 51.71117 | 8.26337 | 69° | 110km/h | 12910m | -9.6m/s | -52.3°C | 4.8% | 175.8hPa | 2.5V | 08:13:11 | 02:33:55 | 00:00:00 | |
| DJ2DS-15 | 2026-08-30 12:51:47 | 51.71126 | 8.26379 | 70° | 102km/h | 12901m | -9.5m/s | -52.3°C | 4.9% | 176.0hPa | 2.6V | 00:00:00 | 02:33:56 | 00:00:00 | |
| DL1XH1-15 | 2026-08-30 12:51:46 | 51.71098 | 8.26254 | 71° | 108km/h | 12929m | -9.5m/s | -52.4°C | 4.9% | 175.3hPa | 2.6V | 08:13:13 | 02:33:53 | 00:00:00 | |
| DL1XH-west | 2026-08-30 12:51:46 | 51.71117 | 8.26337 | 70° | 110km/h | 12910m | -9.6m/s | -52.3°C | 2.2% | 175.8hPa | 2.5V | 08:13:15 | 02:33:55 | 00:00:00 | |
| HSKMA3-T | 2026-08-30 12:51:45 | 51.71107 | 8.26295 | 71° | 110km/h | 12920m | -9.5m/s | -52.3°C | 2.2% | 175.6hPa | 2.5V | 08:13:15 | 02:33:54 | 00:00:00 | |
| DL3AQ-11 | 2026-08-30 12:51:44 | 51.71090 | 8.26212 | 71° | 106km/h | 12939m | -9.4m/s | -52.4°C | 2.4% | 175.0hPa | 2.5V | 00:00:00 | 00:00:00 | 00:00:00 | |
| DL1XH-15 | 2026-08-30 12:51:43 | 51.71051 | 8.26009 | 73° | 102km/h | 12986m | -9.6m/s | -52.6°C | 4.8% | 173.8hPa | 2.5V | 08:13:19 | 02:33:47 | 00:00:00 | |
| DB0UT-7 | 2026-08-30 12:51:43 | 51.71090 | 8.26212 | 72° | 93km/h | 12939m | -9.4m/s | -52.4°C | 4.8% | 175.0hPa | 2.6V | 00:00:00 | 02:33:52 | 00:00:00 | |
| GOEST3-10 | 2026-08-30 12:51:42 | 51.71082 | 8.26171 | 73° | 104km/h | 12949m | -9.5m/s | -52.5°C | 4.8% | 174.7hPa | 2.6V | 08:13:00 | 00:00:00 | 00:00:00 | |
| DM0DOS-11 | 2026-08-30 12:51:41 | 51.71037 | 8.25931 | 73° | 100km/h | 13006m | -9.7m/s | -52.6°C | 4.9% | 173.2hPa | 2.6V | 08:13:21 | 02:33:45 | 00:00:00 | |
| AA1-15 | 2026-08-30 12:51:40 | 51.71066 | 8.26089 | 73° | 102km/h | 12967m | -9.6m/s | -52.6°C | 2.1% | 174.3hPa | 2.5V | 08:15:48 | 02:33:49 | 00:00:00 | |
| DL4BBY-15 | 2026-08-30 12:51:39 | 51.71058 | 8.26049 | 74° | 89km/h | 12977m | -9.5m/s | -52.2°C | 0% | 0hPa | 2.5V | 00:00:00 | 00:00:00 | 00:00:00 | |
| DL1XH1-15 | 2026-08-30 12:51:38 | 51.71022 | 8.25853 | 73° | 99km/h | 13025m | -9.5m/s | -52.7°C | 4.9% | 172.7hPa | 2.5V | 08:13:23 | 02:33:43 | 00:00:00 | |
| DO2JMG | 2026-08-30 12:51:38 | 51.71051 | 8.26009 | 74° | 102km/h | 12986m | -9.6m/s | -52.6°C | 2.1% | 173.8hPa | 2.5V | 08:14:06 | 02:33:47 | 00:00:00 | |
| DL1XH-west | 2026-08-30 12:51:35 | 51.71029 | 8.25892 | 73° | 99km/h | 13015m | -9.4m/s | -52.7°C | 2% | 173hPa | 2.6V | 08:14:06 | 02:33:44 | 00:00:00 | |
| DD1CC2-15 | 2026-08-30 12:51:34 | 51.71022 | 8.25853 | 74° | 99km/h | 13025m | -9.5m/s | -52.7°C | 2.4% | 172.7hPa | 2.5V | 08:14:00 | 00:00:00 | 00:00:00 | |
| DL1XH-15 | 2026-08-30 12:51:33 | 51.70979 | 8.25630 | 71° | 91km/h | 13083m | -9.7m/s | -52.5°C | 4.8% | 171.2hPa | 2.5V | 08:13:29 | 02:33:37 | 00:00:00 | |
| BIOWL1-15 | 2026-08-30 12:51:32 | 51.71008 | 8.25777 | 73° | 97km/h | 13044m | -9.7m/s | -52.6°C | 2% | 172.2hPa | 2.5V | 08:14:06 | 02:33:41 | 00:00:00 | |
| AA1-15 | 2026-08-30 12:51:30 | 51.70986 | 8.25666 | 72° | 93km/h | 13073m | -9.6m/s | -52.6°C | 1.9% | 171.4hPa | 2.6V | 08:15:48 | 02:33:38 | 00:00:00 | |
| DM0DOS-11 | 2026-08-30 12:51:28 | 51.70957 | 8.25527 | 71° | 88km/h | 13112m | -9.7m/s | -52.4°C | 4.6% | 170.4hPa | 2.5V | 08:13:32 | 02:33:34 | 00:00:00 | |
| DO2JMG | 2026-08-30 12:51:27 | 51.70971 | 8.25596 | 71° | 89km/h | 13092m | -9.4m/s | -52.4°C | 1.8% | 170.9hPa | 2.5V | 08:14:06 | 02:33:36 | 00:00:00 | |
| DL1XH-west | 2026-08-30 12:51:24 | 51.70950 | 8.25494 | 71° | 88km/h | 13121m | -9.8m/s | -52.5°C | 1.8% | 170.2hPa | 2.6V | 08:14:06 | 02:33:33 | 00:00:00 | |
| DF8AY | 2026-08-30 12:51:20 | 51.70892 | 8.25199 | 73° | 80km/h | 13209m | -9.9m/s | -52.1°C | 1.5% | 167.8hPa | 2.5V | 08:14:57 | 02:33:24 | 00:00:00 | |
| DL1XH-15 | 2026-08-30 12:51:19 | 51.70910 | 8.25294 | 73° | 82km/h | 13180m | -9.6m/s | -52.4°C | 4.5% | 168.6hPa | 2.6V | 08:13:39 | 02:33:27 | 00:00:00 | |
| AA1-15 | 2026-08-30 12:51:19 | 51.70915 | 8.25326 | 73° | 84km/h | 13170m | -9.7m/s | -52.5°C | 1.7% | 168.9hPa | 2.5V | 08:15:48 | 02:33:28 | 00:00:00 | |
| BIOWL9-15 | 2026-08-30 12:51:19 | 51.70909 | 8.25294 | 73° | 82km/h | 13180m | -9.6m/s | -52.4°C | 2.0% | 168.7hPa | 2.6V | 00:00:00 | 00:00:00 | 00:00:00 | |
| DJ8HS-15 | 2026-08-30 12:51:18 | 51.70909 | 8.25294 | 74° | 80km/h | 13180m | -9.6m/s | -52.3°C | 4.5% | 168.6hPa | 2.6V | 00:00:00 | 02:33:27 | 00:00:00 | |
| DM0DOS-11 | 2026-08-30 12:51:17 | 51.70892 | 8.25199 | 73° | 80km/h | 13209m | -9.9m/s | -52.1°C | 4.3% | 167.8hPa | 2.5V | 08:13:42 | 02:33:24 | 00:00:00 | |
| DO2JMG | 2026-08-30 12:51:17 | 51.70903 | 8.25262 | 73° | 82km/h | 13189m | -9.7m/s | -52.2°C | 1.5% | 168.4hPa | 2.6V | 08:14:06 | 02:33:26 | 00:00:00 | |
| DL1XH-west | 2026-08-30 12:51:13 | 51.70880 | 8.25137 | 73° | 80km/h | 13229m | -9.6m/s | -52.2°C | 1.4% | 167.4hPa | 2.5V | 08:14:06 | 02:33:22 | 00:00:00 | |
| BIOWL1-15 | 2026-08-30 12:51:10 | 51.70862 | 8.25045 | 72° | 78km/h | 13257m | -9.6m/s | -52.3°C | 1.5% | 166.6hPa | 2.6V | 08:14:06 | 02:33:19 | 00:00:00 | |
| AA1-15 | 2026-08-30 12:51:08 | 51.70849 | 8.24986 | 70° | 77km/h | 13277m | -10m/s | -52.2°C | 1.5% | 166.1hPa | 2.5V | 08:15:48 | 02:33:17 | 00:00:00 | |
| DM0DOS-11 | 2026-08-30 12:51:07 | 51.70829 | 8.24898 | 68° | 77km/h | 13307m | -9.8m/s | -52.2°C | 4.4% | 165.3hPa | 2.6V | 08:13:52 | 02:33:14 | 00:00:00 | |
| GOEST3-10 | 2026-08-30 12:51:07 | 51.70842 | 8.24956 | 70° | 77km/h | 13287m | -9.7m/s | -52.1°C | 4.4% | 165.8hPa | 2.6V | 00:00:00 | 02:33:16 | 00:00:00 | |
| DL1XH1-15 | 2026-08-30 12:51:06 | 51.70822 | 8.24869 | 68° | 78km/h | 13316m | -9.9m/s | -52.2°C | 4.4% | 165.1hPa | 2.6V | 08:13:53 | 02:33:13 | 00:00:00 | |
| DO2JMG | 2026-08-30 12:51:06 | 51.70836 | 8.24927 | 69° | 77km/h | 13297m | -10m/s | -52.2°C | 1.5% | 165.6hPa | 2.5V | 08:14:06 | 02:33:15 | 00:00:00 | |
| HSKMA3-T | 2026-08-30 12:51:03 | 51.70814 | 8.24839 | 67° | 78km/h | 13326m | -9.8m/s | -52.2°C | 1.5% | 164.8hPa | 2.6V | 08:14:06 | 02:33:12 | 00:00:00 | |
| BIOWL1-15 | 2026-08-30 12:50:59 | 51.70727 | 8.24536 | 65° | 80km/h | 13425m | -10m/s | -52.6°C | 1.4% | 162.3hPa | 2.6V | 08:14:06 | 02:33:02 | 00:00:00 | |
| DL1XH1-15 | 2026-08-30 12:50:58 | 51.70736 | 8.24566 | 64° | 80km/h | 13415m | -9.9m/s | -52.5°C | 4.5% | 162.6hPa | 2.6V | 08:14:03 | 02:33:03 | 00:00:00 | |
| DF8AY | 2026-08-30 12:50:58 | 51.70772 | 8.24687 | 65° | 84km/h | 13376m | -9.9m/s | -52.3°C | 1.5% | 163.6hPa | 2.6V | 08:14:57 | 02:33:07 | 00:00:00 | |
| AA1-15 | 2026-08-30 12:50:57 | 51.70763 | 8.24656 | 65° | 82km/h | 13386m | -9.5m/s | -52.4°C | 1.5% | 163.3hPa | 2.5V | 08:15:48 | 02:33:06 | 00:00:00 | |
| DM0DOS-11 | 2026-08-30 12:50:57 | 51.70745 | 8.24596 | 64° | 82km/h | 13405m | -10m/s | -52.5°C | 4.4% | 162.8hPa | 2.5V | 08:14:02 | 02:33:04 | 00:00:00 | |
| DO2JMG | 2026-08-30 12:50:56 | 51.70754 | 8.24626 | 64° | 82km/h | 13395m | -10m/s | -52.4°C | 1.5% | 163.1hPa | 2.5V | 08:14:06 | 02:33:05 | 00:00:00 | |
| DL1XH-west | 2026-08-30 12:50:52 | 51.70719 | 8.24506 | 66° | 80km/h | 13435m | -10.1m/s | -52.6°C | 1.4% | 162.1hPa | 2.6V | 08:14:06 | 02:33:01 | 00:00:00 | |
| AA1-15 | 2026-08-30 12:50:46 | 51.70673 | 8.24318 | 70° | 88km/h | 13495m | -9.8m/s | -52°C | 1.1% | 160.6hPa | 2.6V | 08:15:48 | 02:32:55 | 00:00:00 | |
| DL1XH1-15 | 2026-08-30 12:50:46 | 51.70657 | 8.24251 | 67° | 88km/h | 13515m | -9.9m/s | -51.9°C | 4.1% | 160.1hPa | 2.5V | 08:14:13 | 02:32:53 | 00:00:00 | |
| DO2JMG | 2026-08-30 12:50:45 | 51.70666 | 8.24284 | 69° | 88km/h | 13505m | -9.9m/s | -52°C | 1.1% | 160.3hPa | 2.5V | 08:14:57 | 02:32:54 | 00:00:00 | |
| BIOWL1-15 | 2026-08-30 12:50:42 | 51.70595 | 8.24027 | 67° | 86km/h | 13584m | -10.3m/s | -51.9°C | 1% | 158.4hPa | 2.5V | 08:14:57 | 02:32:46 | 00:00:00 | |
| DL1XH-west | 2026-08-30 12:50:42 | 51.70639 | 8.24185 | 65° | 89km/h | 13535m | -9.8m/s | -51.8°C | 1% | 159.6hPa | 2.5V | 08:14:57 | 02:32:51 | 00:00:00 | |
| DL1XH-15 | 2026-08-30 12:50:41 | 51.70603 | 8.24059 | 66° | 84km/h | 13574m | -9.9m/s | -51.9°C | 4% | 158.6hPa | 2.5V | 08:14:19 | 02:32:47 | 00:00:00 | |
| AU51GT2 | 2026-08-30 12:50:39 | 51.70603 | 8.24059 | 66° | 84km/h | 13574m | -10.0m/s | -51.9°C | 1.7% | 158.6hPa | 2.6V | 00:00:00 | 00:00:00 | 00:00:00 | |
| DL1XH1-15 | 2026-08-30 12:50:38 | 51.70570 | 8.23930 | 68° | 88km/h | 13615m | -10.2m/s | -52°C | 4% | 157.6hPa | 2.6V | 08:14:23 | 02:32:43 | 00:00:00 | |
| DO2JMG | 2026-08-30 12:50:35 | 51.70578 | 8.23962 | 68° | 86km/h | 13605m | -10.2m/s | -52°C | 0.9% | 157.9hPa | 2.6V | 08:14:57 | 02:32:44 | 00:00:00 | |
| HSKMA3-T | 2026-08-30 12:50:32 | 51.70554 | 8.23863 | 69° | 89km/h | 13635m | -10m/s | -52.1°C | 1% | 157.1hPa | 2.5V | 08:14:57 | 02:32:41 | 00:00:00 | |
| BIOWL1-15 | 2026-08-30 12:50:31 | 51.70529 | 8.23762 | 69° | 88km/h | 13665m | -10.2m/s | -52.2°C | 1% | 156.4hPa | 2.5V | 08:14:57 | 02:32:38 | 00:00:00 | |
| DL1XH-west | 2026-08-30 12:50:31 | 51.70546 | 8.23829 | 68° | 89km/h | 13645m | -10m/s | -52.1°C | 1% | 156.9hPa | 2.5V | 08:14:57 | 02:32:40 | 00:00:00 | |
| DK9SH | 2026-08-30 12:50:30 | 51.70546 | 8.23829 | 69° | 89km/h | 13646m | -10.0m/s | -52.1°C | 1.7% | 156.9hPa | 2.5V | 08:14:00 | 00:00:00 | 00:00:00 | |
| DD1CC1-15 | 2026-08-30 12:50:29 | 51.70538 | 8.23796 | 69° | 88km/h | 13656m | -10.1m/s | -52.2°C | 1.7% | 156.6hPa | 2.5V | 08:14:00 | 00:00:00 | 00:00:00 | |
| DM0DOS-11 | 2026-08-30 12:50:27 | 51.70498 | 8.23633 | 69° | 82km/h | 13707m | -10.4m/s | -52.3°C | 4% | 155.4hPa | 2.5V | 08:14:32 | 02:32:34 | 00:00:00 | |
| AA1-15 | 2026-08-30 12:50:27 | 51.70505 | 8.23665 | 68° | 84km/h | 13696m | -10.3m/s | -52.3°C | 1% | 155.6hPa | 2.6V | 08:15:48 | 02:32:35 | 00:00:00 | |
| DO2JMG | 2026-08-30 12:50:24 | 51.70490 | 8.23601 | 70° | 82km/h | 13717m | -10.2m/s | -52.3°C | 0.9% | 155.2hPa | 2.5V | 08:14:57 | 02:32:33 | 00:00:00 | |
| DL1XH-west | 2026-08-30 12:50:21 | 51.70470 | 8.23506 | 73° | 84km/h | 13747m | -10.2m/s | -52.4°C | 0.9% | 154.4hPa | 2.6V | 08:14:57 | 02:32:30 | 00:00:00 | |
| BIOWL1-15 | 2026-08-30 12:50:21 | 51.70457 | 8.23441 | 73° | 86km/h | 13768m | -10.4m/s | -52.4°C | 0.9% | 153.9hPa | 2.5V | 08:14:57 | 02:32:28 | 00:00:00 | |
| SO1NDE-10 | 2026-08-30 12:50:21 | 51.70470 | 8.23506 | 73° | 77km/h | 13748m | -10.2m/s | -52.4°C | 4.1% | 154.4hPa | 2.5V | 00:00:00 | 02:32:30 | 00:00:00 | |
| DL1XH-15 | 2026-08-30 12:50:19 | 51.70451 | 8.23407 | 72° | 86km/h | 13778m | -10.5m/s | -52.5°C | 4.1% | 153.7hPa | 2.5V | 08:14:39 | 02:32:27 | 00:00:00 | |
| BUE01 | 2026-08-30 12:50:19 | 51.70457 | 8.23441 | 72° | 84km/h | 13768m | -10.4m/s | -52.4°C | 1.6% | 153.9hPa | 2.6V | 00:00:00 | 00:00:00 | 00:00:00 | |
| DL1XH1-15 | 2026-08-30 12:50:18 | 51.70422 | 8.23277 | 68° | 82km/h | 13819m | -9.9m/s | -52.5°C | 4% | 152.8hPa | 2.6V | 08:14:43 | 02:32:23 | 00:00:00 | |
| DJ8HS-15 | 2026-08-30 12:50:18 | 51.70451 | 8.23407 | 73° | 77km/h | 13778m | -10.5m/s | -52.4°C | 4.1% | 153.6hPa | 2.5V | 00:00:00 | 02:32:27 | 00:00:00 | |
| DM0DOS-11 | 2026-08-30 12:50:17 | 51.70430 | 8.23308 | 69° | 84km/h | 13809m | -10m/s | -52.5°C | 4% | 153hPa | 2.6V | 08:14:42 | 02:32:24 | 00:00:00 | |
| AA1-15 | 2026-08-30 12:50:15 | 51.70429 | 8.23308 | 70° | 84km/h | 13809m | -10m/s | -52.5°C | 0.8% | 153hPa | 2.6V | 08:15:48 | 02:32:24 | 00:00:00 | |
| DO2JMG | 2026-08-30 12:50:13 | 51.70415 | 8.23246 | 70° | 78km/h | 13829m | -9.7m/s | -52.5°C | 0.8% | 152.5hPa | 2.6V | 08:14:57 | 02:32:22 | 00:00:00 | |
| DF8AY | 2026-08-30 12:50:12 | 51.70409 | 8.23217 | 73° | 75km/h | 13838m | -9.6m/s | -52.4°C | 0.8% | 152.3hPa | 2.5V | 08:14:57 | 02:32:21 | 00:00:00 | |
| HSKMA3-T | 2026-08-30 12:50:11 | 51.70404 | 8.23187 | 75° | 75km/h | 13848m | -9.7m/s | -52.4°C | 0.8% | 152hPa | 2.5V | 08:14:57 | 02:32:20 | 00:00:00 | |
| BIOWL1-15 | 2026-08-30 12:50:10 | 51.70390 | 8.23096 | 75° | 78km/h | 13878m | -10.2m/s | -52°C | 0.7% | 151.3hPa | 2.6V | 08:14:57 | 02:32:17 | 00:00:00 | |
| DK9SH | 2026-08-30 12:50:10 | 51.70399 | 8.23158 | 78° | 77km/h | 13858m | -9.9m/s | -52.3°C | 1.5% | 151.8hPa | 2.5V | 08:14:00 | 00:00:00 | 00:00:00 | |
| DL4BBY-15 | 2026-08-30 12:50:09 | 51.70395 | 8.23127 | 78° | 73km/h | 13868m | -10.1m/s | -51.6°C | 0% | 0hPa | 2.5V | 00:00:00 | 00:00:00 | 00:00:00 | |
| DL3AQ-11 | 2026-08-30 12:50:08 | 51.70385 | 8.23066 | 72° | 77km/h | 13888m | -9.9m/s | -52.0°C | 1.5% | 151.1hPa | 2.5V | 00:00:00 | 00:00:00 | 00:00:00 | |
| GOEST3-10 | 2026-08-30 12:50:07 | 51.70384 | 8.23066 | 73° | 73km/h | 13888m | -9.8m/s | -52.0°C | 3.9% | 151.0hPa | 2.5V | 00:00:00 | 02:32:16 | 00:00:00 | |
| DL1XH1-15 | 2026-08-30 12:50:06 | 51.70364 | 8.22981 | 66° | 71km/h | 13918m | -10.1m/s | -52°C | 3.9% | 150.4hPa | 2.5V | 08:14:53 | 02:32:13 | 00:00:00 | |
| AA1-15 | 2026-08-30 12:50:04 | 51.70364 | 8.22981 | 67° | 71km/h | 13918m | -10.1m/s | -52°C | 0.7% | 150.4hPa | 2.5V | 08:15:48 | 02:32:13 | 00:00:00 | |
| DO2JMG | 2026-08-30 12:50:03 | 51.70357 | 8.22955 | 67° | 71km/h | 13928m | -10.4m/s | -52°C | 0.7% | 150.2hPa | 2.6V | 08:14:57 | 02:32:12 | 00:00:00 | |
| HSKMA3-T | 2026-08-30 12:50:01 | 51.70342 | 8.22902 | 64° | 71km/h | 13949m | -10.3m/s | -52°C | 0.7% | 149.7hPa | 2.5V | 08:14:57 | 02:32:10 | 00:00:00 | |
| DL1XH-west | 2026-08-30 12:50:00 | 51.70334 | 8.22876 | 64° | 71km/h | 13959m | -10.3m/s | -52°C | 0.6% | 149.4hPa | 2.5V | 08:14:57 | 02:32:09 | 00:00:00 | |
| DL1XH-15 | 2026-08-30 12:49:59 | 51.70318 | 8.22825 | 62° | 71km/h | 13980m | -10.6m/s | -52°C | 3.9% | 149hPa | 2.6V | 08:14:59 | 02:32:07 | 00:00:00 | |
| DJ8HS-15 | 2026-08-30 12:49:58 | 51.70318 | 8.22825 | 63° | 73km/h | 13980m | -10.6m/s | -51.9°C | 3.9% | 148.9hPa | 2.5V | 00:00:00 | 02:32:07 | 00:00:00 | |
| DM0DOS-11 | 2026-08-30 12:49:57 | 51.70295 | 8.22748 | 64° | 71km/h | 14011m | -10.4m/s | -52°C | 3.9% | 148.2hPa | 2.5V | 08:15:02 | 02:32:04 | 00:00:00 | |
| BIOWL1-15 | 2026-08-30 12:49:57 | 51.70310 | 8.22800 | 63° | 69km/h | 13990m | -10.5m/s | -51.9°C | 0.7% | 148.7hPa | 2.6V | 08:15:48 | 02:32:06 | 00:00:00 | |
| DO2JMG | 2026-08-30 12:49:52 | 51.70271 | 8.22668 | 66° | 75km/h | 14043m | -10.4m/s | -52°C | 0.6% | 147.5hPa | 2.6V | 08:15:48 | 02:32:01 | 00:00:00 | |
| HSKMA3-T | 2026-08-30 12:49:50 | 51.70257 | 8.22611 | 69° | 75km/h | 14064m | -10.1m/s | -52°C | 0.7% | 147.1hPa | 2.6V | 08:15:48 | 02:31:59 | 00:00:00 | |
| DL1XH-west | 2026-08-30 12:49:49 | 51.70250 | 8.22582 | 70° | 77km/h | 14074m | -10.3m/s | -52.1°C | 0.6% | 146.8hPa | 2.5V | 08:15:48 | 02:31:58 | 00:00:00 | |
| AA1-15 | 2026-08-30 12:49:47 | 51.70238 | 8.22524 | 72° | 75km/h | 14095m | -10.3m/s | -52.1°C | 0.6% | 146.3hPa | 2.5V | 08:15:48 | 02:31:56 | 00:00:00 | |
| GOEST3-10 | 2026-08-30 12:49:47 | 51.70238 | 8.22524 | 72° | 73km/h | 14095m | -10.3m/s | -52.1°C | 3.8% | 146.3hPa | 2.6V | 00:00:00 | 02:31:56 | 00:00:00 | |
| DL1XH1-15 | 2026-08-30 12:49:46 | 51.70221 | 8.22437 | 73° | 73km/h | 14127m | -10.8m/s | -52°C | 3.8% | 145.6hPa | 2.6V | 08:15:13 | 02:31:53 | 00:00:00 | |
| BIOWL1-15 | 2026-08-30 12:49:46 | 51.70232 | 8.22495 | 73° | 75km/h | 14105m | -10.8m/s | -52.2°C | 0.6% | 146.1hPa | 2.5V | 08:15:48 | 02:31:55 | 00:00:00 | |
| DO1YAY-16 | 2026-08-30 12:49:46 | 51.70226 | 8.22466 | 72° | 73km/h | 14116m | -10.7m/s | -52.1°C | 1.4% | 145.8hPa | 2.5V | 00:00:00 | 00:00:00 | 00:00:00 | |
| DO2JMG | 2026-08-30 12:49:41 | 51.70206 | 8.22353 | 73° | 71km/h | 14159m | -10.8m/s | -51.8°C | 0.5% | 144.9hPa | 2.5V | 08:15:48 | 02:31:50 | 00:00:00 | |
| DL1XH-15 | 2026-08-30 12:49:41 | 51.70190 | 8.22273 | 71° | 68km/h | 14191m | -10.7m/s | -51.6°C | 3.7% | 144.2hPa | 2.6V | 08:15:19 | 02:31:47 | 00:00:00 | |
| HSKMA3-T | 2026-08-30 12:49:40 | 51.70201 | 8.22326 | 73° | 69km/h | 14170m | -10.8m/s | -51.7°C | 0.5% | 144.6hPa | 2.5V | 08:15:48 | 02:31:49 | 00:00:00 | |
| DL1XH-west | 2026-08-30 12:49:38 | 51.70191 | 8.22273 | 71° | 68km/h | 14191m | -10.7m/s | -51.6°C | 0.5% | 144.2hPa | 2.6V | 08:15:48 | 02:31:47 | 00:00:00 | |
| BIOWL1-15 | 2026-08-30 12:49:35 | 51.70174 | 8.22198 | 68° | 64km/h | 14223m | -10.9m/s | -51.5°C | 0.5% | 143.5hPa | 2.5V | 08:15:48 | 02:31:44 | 00:00:00 | |
| AA1-15 | 2026-08-30 12:49:32 | 51.70156 | 8.22128 | 67° | 62km/h | 14255m | -11m/s | -51.6°C | 0.5% | 142.8hPa | 2.6V | 08:15:48 | 02:31:41 | 00:00:00 | |
| DO2JMG | 2026-08-30 12:49:30 | 51.70144 | 8.22082 | 68° | 60km/h | 14277m | -11m/s | -51.8°C | 0.5% | 142.2hPa | 2.5V | 08:15:48 | 02:31:39 | 00:00:00 | |
| DL1XH-15 | 2026-08-30 12:49:29 | 51.70133 | 8.22036 | 68° | 62km/h | 14299m | -11.1m/s | -51.9°C | 3.7% | 141.8hPa | 2.6V | 08:15:29 | 02:31:37 | 00:00:00 | |
| HSKMA3-T | 2026-08-30 12:49:29 | 51.70138 | 8.22059 | 69° | 60km/h | 14288m | -10.9m/s | -51.8°C | 0.5% | 142hPa | 2.5V | 08:15:48 | 02:31:38 | 00:00:00 | |
| DK9SH | 2026-08-30 12:49:28 | 51.70133 | 8.22036 | 70° | 62km/h | 14300m | -11.1m/s | -51.9°C | 1.4% | 141.8hPa | 2.5V | 08:15:00 | 00:00:00 | 00:00:00 | |
| DM0DOS-11 | 2026-08-30 12:49:27 | 51.70100 | 8.21920 | 60° | 66km/h | 14354m | -11m/s | -52°C | 3.7% | 140.6hPa | 2.5V | 08:15:34 | 02:31:32 | 00:00:00 | |
| DL1XH-west | 2026-08-30 12:49:27 | 51.70127 | 8.22013 | 68° | 62km/h | 14310m | -10.8m/s | -51.9°C | 0.5% | 141.6hPa | 2.6V | 08:15:48 | 02:31:36 | 00:00:00 | |
| DB0DAN | 2026-08-30 12:49:25 | 51.70115 | 8.21967 | 65° | 60km/h | 14332m | -10.8m/s | -51.9°C | 1.3% | 141.06hPa | 2.5V | 00:00:00 | 00:00:00 | 00:00:00 | |
| BIOWL1-15 | 2026-08-30 12:49:25 | 51.70115 | 8.21967 | 65° | 64km/h | 14332m | -10.8m/s | -51.9°C | 0.5% | 141.1hPa | 2.5V | 08:15:48 | 02:31:34 | 00:00:00 | |
| SONCRA | 2026-08-30 12:49:25 | 51.70107 | 8.21943 | 62° | 62km/h | 14343m | -10.9m/s | -52.0°C | 1.4% | 140.8hPa | 2.5V | 00:00:00 | 00:00:00 | 00:00:00 | |
| DL1XH-15 | 2026-08-30 12:49:24 | 51.70057 | 8.21810 | 58° | 62km/h | 14409m | -10.7m/s | -51.8°C | 3.7% | 139.4hPa | 2.5V | 08:15:39 | 02:31:27 | 00:00:00 | |
| AA1-15 | 2026-08-30 12:49:21 | 51.70083 | 8.21875 | 58° | 64km/h | 14376m | -10.9m/s | -51.8°C | 0.5% | 140.1hPa | 2.6V | 08:15:48 | 02:31:30 | 00:00:00 | |
| DO2JMG | 2026-08-30 12:49:19 | 51.70066 | 8.21832 | 57° | 62km/h | 14398m | -11m/s | -51.7°C | 0.5% | 139.6hPa | 2.5V | 08:15:48 | 02:31:28 | 00:00:00 | |
| HSKMA3-T | 2026-08-30 12:49:18 | 51.70057 | 8.21810 | 59° | 62km/h | 14409m | -10.7m/s | -51.8°C | 0.5% | 139.4hPa | 2.5V | 08:15:48 | 02:31:27 | 00:00:00 | |
| DL1XH-west | 2026-08-30 12:49:17 | 51.70049 | 8.21789 | 59° | 62km/h | 14420m | -11.1m/s | -51.8°C | 0.5% | 139.2hPa | 2.5V | 08:15:48 | 02:31:26 | 00:00:00 | |
| DF8AY | 2026-08-30 12:49:16 | 51.70041 | 8.21767 | 60° | 62km/h | 14431m | -10.9m/s | -51.8°C | 0.5% | 138.9hPa | 2.5V | 08:15:48 | 02:31:25 | 00:00:00 | |
| BIOWL1-15 | 2026-08-30 12:49:15 | 51.70000 | 8.21648 | 57° | 73km/h | 14484m | -10.2m/s | -52.1°C | 0.6% | 137.8hPa | 2.5V | 08:15:48 | 02:31:20 | 00:00:00 | |
| DL3OBA | 2026-08-30 12:49:14 | 51.70026 | 8.21721 | 64° | 66km/h | 14453m | -10.9m/s | -51.8°C | 0% | 0hPa | 2.6V | 00:00:00 | 00:00:00 | 00:00:00 | |
| DB0UT-7 | 2026-08-30 12:49:13 | 51.70018 | 8.21697 | 63° | 77km/h | 14464m | -10.7m/s | -51.9°C | 3.8% | 138.2hPa | 2.6V | 00:00:00 | 00:00:00 | 00:00:00 | |
| GOEST3-10 | 2026-08-30 12:49:12 | 51.70010 | 8.21673 | 61° | 71km/h | 14474m | -10.4m/s | -51.9°C | 3.8% | 137.9hPa | 2.5V | 00:00:00 | 00:00:00 | 00:00:00 | |
| DL1XH-15 | 2026-08-30 12:49:11 | 51.69970 | 8.21576 | 56° | 71km/h | 14516m | -10.9m/s | -52.2°C | 3.9% | 137.1hPa | 2.6V | 08:15:49 | 02:31:17 | 00:00:00 | |
| AA1-15 | 2026-08-30 12:49:10 | 51.69990 | 8.21623 | 56° | 71km/h | 14495m | -10.6m/s | -52.1°C | 0.7% | 137.6hPa | 2.5V | 08:15:48 | 02:31:19 | 00:00:00 | |
| DO2JMG | 2026-08-30 12:49:09 | 51.69980 | 8.21599 | 55° | 71km/h | 14506m | -10.9m/s | -52.1°C | 0.7% | 137.4hPa | 2.6V | 08:15:48 | 02:31:18 | 00:00:00 | |
| HSKMA3-T | 2026-08-30 12:49:08 | 51.69970 | 8.21576 | 56° | 71km/h | 14516m | -10.9m/s | -52.2°C | 0.7% | 137.1hPa | 2.6V | 08:16:39 | 02:31:17 | 00:00:00 | |
| DF8AY | 2026-08-30 12:49:06 | 51.69941 | 8.21500 | 60° | 75km/h | 14550m | -11.1m/s | -52.2°C | 0.8% | 136.4hPa | 2.5V | 08:17:30 | 02:31:14 | 00:00:00 | |
| DL1XH-west | 2026-08-30 12:49:06 | 51.69951 | 8.21526 | 59° | 73km/h | 14539m | -11.1m/s | -52.2°C | 0.7% | 136.7hPa | 2.5V | 08:16:39 | 02:31:15 | 00:00:00 | |
| AA1-15 | 2026-08-30 12:48:59 | 51.69884 | 8.21331 | 63° | 78km/h | 14616m | -11.1m/s | -52.2°C | 0.8% | 135hPa | 2.5V | 08:16:39 | 02:31:08 | 00:00:00 | |
| DO2JMG | 2026-08-30 12:48:58 | 51.69875 | 8.21303 | 63° | 78km/h | 14628m | -11.3m/s | -52.2°C | 0.8% | 134.8hPa | 2.6V | 08:16:39 | 02:31:07 | 00:00:00 | |
| DL1XH1-15 | 2026-08-30 12:48:58 | 51.69842 | 8.21197 | 66° | 69km/h | 14672m | -11.3m/s | -52.3°C | 4% | 133.8hPa | 2.5V | 08:16:03 | 02:31:03 | 00:00:00 | |
| HSKMA3-T | 2026-08-30 12:48:57 | 51.69866 | 8.21275 | 62° | 77km/h | 14639m | -11.1m/s | -52.3°C | 0.9% | 134.6hPa | 2.6V | 08:16:39 | 02:31:06 | 00:00:00 | |
| DL1XH-west | 2026-08-30 12:48:56 | 51.69857 | 8.21249 | 62° | 73km/h | 14650m | -11.2m/s | -52.3°C | 0.9% | 134.3hPa | 2.6V | 08:16:39 | 02:31:05 | 00:00:00 | |
| DF8AY | 2026-08-30 12:48:54 | 51.69842 | 8.21197 | 67° | 69km/h | 14672m | -11.3m/s | -52.3°C | 0.9% | 133.8hPa | 2.5V | 08:17:30 | 02:31:03 | 00:00:00 | |
| BIOWL1-15 | 2026-08-30 12:48:52 | 51.69817 | 8.21080 | 73° | 84km/h | 14715m | -10.7m/s | -52.5°C | 1% | 133hPa | 2.6V | 08:16:39 | 02:30:59 | 00:00:00 | |
| EDDB2-12 | 2026-08-30 12:48:51 | 51.69817 | 8.21080 | 73° | 84km/h | 14715m | -10.7m/s | -52.5°C | 1.6% | 133.0hPa | 2.5V | 00:00:00 | 00:00:00 | 00:00:00 | |
| DL1XH-15 | 2026-08-30 12:48:49 | 51.69804 | 8.21013 | 72° | 86km/h | 14737m | -10.7m/s | -52.5°C | 4.1% | 132.5hPa | 2.5V | 08:16:09 | 02:30:57 | 00:00:00 | |
| AA1-15 | 2026-08-30 12:48:48 | 51.69804 | 8.21013 | 72° | 86km/h | 14737m | -10.7m/s | -52.5°C | 1% | 132.5hPa | 2.5V | 08:16:39 | 02:30:57 | 00:00:00 | |
| DO2JMG | 2026-08-30 12:48:47 | 51.69798 | 8.20980 | 71° | 86km/h | 14748m | -10.7m/s | -52.6°C | 1% | 132.3hPa | 2.5V | 08:16:39 | 02:30:56 | 00:00:00 | |
| DL1XH1-15 | 2026-08-30 12:48:46 | 51.69779 | 8.20884 | 73° | 82km/h | 14781m | -11.3m/s | -52.7°C | 4.2% | 131.6hPa | 2.6V | 08:16:13 | 02:30:53 | 00:00:00 | |
| DL1XH-west | 2026-08-30 12:48:45 | 51.69785 | 8.20915 | 73° | 82km/h | 14770m | -11.2m/s | -52.6°C | 1% | 131.9hPa | 2.6V | 08:16:39 | 02:30:54 | 00:00:00 | |
| BIOWL9-15 | 2026-08-30 12:48:44 | 51.69773 | 8.20852 | 74° | 80km/h | 14793m | -11.7m/s | -52.7°C | 1.6% | 131.4hPa | 2.6V | 00:00:00 | 00:00:00 | 00:00:00 | |
| DL1XH-15 | 2026-08-30 12:48:43 | 51.69745 | 8.20695 | 73° | 78km/h | 14850m | -11.4m/s | -52.6°C | 4.2% | 130.3hPa | 2.6V | 08:16:19 | 02:30:47 | 00:00:00 | |
| DF8AY | 2026-08-30 12:48:42 | 51.69767 | 8.20820 | 74° | 82km/h | 14804m | -11.4m/s | -52.7°C | 1.1% | 131.2hPa | 2.5V | 08:17:30 | 02:30:51 | 00:00:00 | |
| BIOWL1-15 | 2026-08-30 12:48:40 | 51.69756 | 8.20757 | 74° | 80km/h | 14827m | -11.5m/s | -52.7°C | 1.1% | 130.7hPa | 2.5V | 08:16:39 | 02:30:49 | 00:00:00 | |
| DO3DL | 2026-08-30 12:48:40 | 51.69756 | 8.20757 | 75° | 80km/h | 14827m | -11.5m/s | -52.7°C | 1.6% | 130.7hPa | 2.5V | 08:16:00 | 00:00:00 | 00:00:00 | |
| DL4BBY-15 | 2026-08-30 12:48:39 | 51.69750 | 8.20726 | 74° | 69km/h | 14839m | -11.5m/s | -52.1°C | 0% | 0hPa | 2.5V | 00:00:00 | 00:00:00 | 00:00:00 | |
| DL1XH1-15 | 2026-08-30 12:48:38 | 51.69722 | 8.20574 | 74° | 77km/h | 14896m | -11.7m/s | -52.5°C | 4.1% | 129.3hPa | 2.5V | 08:16:23 | 02:30:43 | 00:00:00 | |
| DJ8HS-15 | 2026-08-30 12:48:38 | 51.69745 | 8.20695 | 74° | 71km/h | 14850m | -11.4m/s | -52.5°C | 4.2% | 130.2hPa | 2.6V | 00:00:00 | 02:30:47 | 00:00:00 | |
| DM0DOS-11 | 2026-08-30 12:48:37 | 51.69717 | 8.20543 | 74° | 77km/h | 14908m | -11.5m/s | -52.6°C | 4.1% | 129.1hPa | 2.6V | 08:16:24 | 02:30:42 | 00:00:00 | |
| DO2JMG | 2026-08-30 12:48:37 | 51.69739 | 8.20665 | 73° | 78km/h | 14861m | -11.4m/s | -52.6°C | 1% | 130hPa | 2.6V | 08:16:39 | 02:30:46 | 00:00:00 | |
| DL1XH-west | 2026-08-30 12:48:34 | 51.69723 | 8.20574 | 75° | 77km/h | 14896m | -11.7m/s | -52.5°C | 1% | 129.3hPa | 2.5V | 08:16:39 | 02:30:43 | 00:00:00 | |
| BIOWL1-15 | 2026-08-30 12:48:30 | 51.69703 | 8.20455 | 77° | 73km/h | 14942m | -11.2m/s | -52.8°C | 1% | 128.4hPa | 2.5V | 08:16:39 | 02:30:39 | 00:00:00 | |
| AA1-15 | 2026-08-30 12:48:27 | 51.69691 | 8.20371 | 78° | 68km/h | 14976m | -11.4m/s | -52.9°C | 1% | 127.7hPa | 2.5V | 08:16:39 | 02:30:36 | 00:00:00 | |
| HSKMA3-T | 2026-08-30 12:48:26 | 51.69687 | 8.20345 | 79° | 66km/h | 14988m | -11.4m/s | -52.8°C | 1% | 127.5hPa | 2.5V | 08:16:39 | 02:30:35 | 00:00:00 | |
| DL1XH1-15 | 2026-08-30 12:48:26 | 51.69681 | 8.20293 | 78° | 64km/h | 15010m | -11.5m/s | -52.8°C | 4.1% | 127hPa | 2.6V | 08:16:33 | 02:30:33 | 00:00:00 | |
| DJ2DS-15 | 2026-08-30 12:48:26 | 51.69687 | 8.20345 | 79° | 64km/h | 14988m | -11.3m/s | -52.7°C | 4.1% | 127.4hPa | 2.5V | 08:16:00 | 02:30:35 | 00:00:00 | |
| DM0DOS-11 | 2026-08-30 12:48:25 | 51.69678 | 8.20267 | 78° | 64km/h | 15022m | -11.4m/s | -52.7°C | 4.1% | 126.8hPa | 2.6V | 08:16:34 | 02:30:32 | 00:00:00 | |
| DL1XH-west | 2026-08-30 12:48:23 | 51.69678 | 8.20267 | 78° | 64km/h | 15022m | -11.4m/s | -52.7°C | 0.9% | 126.8hPa | 2.6V | 08:16:39 | 02:30:32 | 00:00:00 | |
| BIOWL1-15 | 2026-08-30 12:48:21 | 51.69661 | 8.20165 | 72° | 68km/h | 15067m | -11.3m/s | -52.8°C | 0.9% | 125.9hPa | 2.5V | 08:16:39 | 02:30:28 | 00:00:00 | |
| DL1XH-15 | 2026-08-30 12:48:19 | 51.69656 | 8.20139 | 70° | 68km/h | 15078m | -11.1m/s | -52.8°C | 4.1% | 125.7hPa | 2.6V | 08:16:39 | 02:30:27 | 00:00:00 | |
| DO2JMG | 2026-08-30 12:48:16 | 51.69644 | 8.20087 | 69° | 69km/h | 15101m | -11.3m/s | -52.9°C | 0.9% | 125.3hPa | 2.5V | 08:17:30 | 02:30:25 | 00:00:00 | |
| DJ2KF-10 | 2026-08-30 12:48:16 | 51.69644 | 8.20087 | 69° | 57km/h | 15101m | -11.3m/s | -52.9°C | 4.2% | 125.2hPa | 2.6V | 00:00:00 | 02:30:25 | 00:00:00 | |
| DM0DOS-11 | 2026-08-30 12:48:15 | 51.69625 | 8.20010 | 68° | 66km/h | 15135m | -11.6m/s | -53°C | 4.1% | 124.6hPa | 2.6V | 08:16:44 | 02:30:22 | 00:00:00 | |
| DL1XH-west | 2026-08-30 12:48:13 | 51.69625 | 8.20010 | 68° | 66km/h | 15135m | -11.6m/s | -53°C | 0.8% | 124.6hPa | 2.6V | 08:17:30 | 02:30:22 | 00:00:00 | |
| BIOWL1-15 | 2026-08-30 12:48:13 | 51.69604 | 8.19913 | 75° | 60km/h | 15180m | -11.3m/s | -53.2°C | 0.8% | 123.7hPa | 2.6V | 08:17:30 | 02:30:18 | 00:00:00 | |
| AA1-15 | 2026-08-30 12:48:12 | 51.69619 | 8.19985 | 69° | 64km/h | 15146m | -11.3m/s | -53°C | 0.8% | 124.4hPa | 2.5V | 08:17:30 | 02:30:21 | 00:00:00 | |
| DF8AY | 2026-08-30 12:48:10 | 51.69608 | 8.19937 | 74° | 60km/h | 15169m | -11m/s | -53.2°C | 0.8% | 124hPa | 2.5V | 08:17:30 | 02:30:19 | 00:00:00 | |
| DB0NH | 2026-08-30 12:48:10 | 51.69608 | 8.19937 | 74° | 53km/h | 15169m | -11.0m/s | -53.1°C | 4.1% | 123.9hPa | 2.5V | 08:16:00 | 02:30:19 | 00:00:00 | |
| DL1XH-15 | 2026-08-30 12:48:09 | 51.69600 | 8.19890 | 74° | 60km/h | 15191m | -11.2m/s | -53.2°C | 4.1% | 123.5hPa | 2.6V | 08:16:49 | 02:30:17 | 00:00:00 | |
| DL4BBY-15 | 2026-08-30 12:48:09 | 51.69604 | 8.19913 | 75° | 53km/h | 15180m | -11.3m/s | -52.7°C | 0% | 0hPa | 2.5V | 00:00:00 | 00:00:00 | 00:00:00 | |
| DD1CC2-15 | 2026-08-30 12:48:08 | 51.69604 | 8.19913 | 76° | 60km/h | 15180m | -11.3m/s | -53.2°C | 1.5% | 123.7hPa | 2.5V | 08:17:00 | 00:00:00 | 00:00:00 | |
| GOEST3-10 | 2026-08-30 12:48:07 | 51.69596 | 8.19867 | 74° | 57km/h | 15203m | -11.1m/s | -53.1°C | 4.1% | 123.2hPa | 2.5V | 00:00:00 | 02:30:16 | 00:00:00 | |
| DL1XH1-15 | 2026-08-30 12:48:06 | 51.69584 | 8.19800 | 71° | 58km/h | 15236m | -11m/s | -52.9°C | 4.1% | 122.7hPa | 2.5V | 08:16:53 | 02:30:13 | 00:00:00 | |
| DO2JMG | 2026-08-30 12:48:06 | 51.69592 | 8.19844 | 73° | 57km/h | 15214m | -11.4m/s | -53.1°C | 0.8% | 123.1hPa | 2.5V | 08:17:30 | 02:30:15 | 00:00:00 | |
| DL1XH-west | 2026-08-30 12:48:03 | 51.69579 | 8.19778 | 72° | 57km/h | 15247m | -11.3m/s | -52.8°C | 0.6% | 122.5hPa | 2.6V | 08:17:30 | 02:30:12 | 00:00:00 | |
| AA1-15 | 2026-08-30 12:48:01 | 51.69570 | 8.19735 | 69° | 55km/h | 15270m | -11.5m/s | -52.5°C | 0.6% | 122hPa | 2.6V | 08:17:30 | 02:30:10 | 00:00:00 | |
| HTAHTA | 2026-08-30 12:47:59 | 51.69560 | 8.19695 | 65° | 51km/h | 15292m | -11.5m/s | -52.2°C | 1.3% | 121.6hPa | 2.6V | 00:00:00 | 00:00:00 | 00:00:00 | |
| DL1XH1-15 | 2026-08-30 12:47:58 | 51.69529 | 8.19606 | 56° | 49km/h | 15349m | -11.3m/s | -52.3°C | 3.7% | 120.5hPa | 2.6V | 08:17:03 | 02:30:03 | 00:00:00 | |
| BIOWL1-15 | 2026-08-30 12:47:58 | 51.69554 | 8.19677 | 63° | 51km/h | 15304m | -11.3m/s | -52.3°C | 0.4% | 121.4hPa | 2.5V | 08:17:30 | 02:30:07 | 00:00:00 | |
| DJ8HS-15 | 2026-08-30 12:47:58 | 51.69554 | 8.19677 | 64° | 49km/h | 15304m | -11.2m/s | -52.2°C | 3.7% | 121.3hPa | 2.5V | 00:00:00 | 02:30:07 | 00:00:00 | |
| GOEST3-10 | 2026-08-30 12:47:57 | 51.69548 | 8.19658 | 63° | 49km/h | 15315m | -11.1m/s | -52.1°C | 3.7% | 121.1hPa | 2.5V | 08:17:00 | 02:30:06 | 00:00:00 | |
| DO9LL-15 | 2026-08-30 12:47:56 | 51.69542 | 8.19641 | 61° | 47km/h | 15327m | -11.3m/s | -52.2°C | 3.7% | 120.9hPa | 2.5V | 00:00:00 | 02:30:05 | 00:00:00 | |
| DM0DOS-11 | 2026-08-30 12:47:55 | 51.69522 | 8.19589 | 54° | 49km/h | 15360m | -11.3m/s | -52.4°C | 3.7% | 120.3hPa | 2.5V | 08:17:04 | 02:30:02 | 00:00:00 | |
| HSKMA3-T | 2026-08-30 12:47:55 | 51.69536 | 8.19623 | 59° | 49km/h | 15338m | -11.4m/s | -52.3°C | 0.4% | 120.8hPa | 2.6V | 08:17:30 | 02:30:04 | 00:00:00 | |
| DL1XH-west | 2026-08-30 12:47:53 | 51.69522 | 8.19589 | 55° | 49km/h | 15360m | -11.3m/s | -52.4°C | 0.4% | 120.3hPa | 2.5V | 08:17:30 | 02:30:02 | 00:00:00 | |
| AA1-15 | 2026-08-30 12:47:51 | 51.69507 | 8.19557 | 52° | 49km/h | 15383m | -11.3m/s | -52.4°C | 0.3% | 119.9hPa | 2.5V | 08:17:30 | 02:30:00 | 00:00:00 | |
| DF8AY | 2026-08-30 12:47:50 | 51.69499 | 8.19542 | 50° | 49km/h | 15394m | -11.4m/s | -52.4°C | 0.4% | 119.7hPa | 2.6V | 08:17:30 | 02:29:59 | 00:00:00 | |
| BIOWL1-15 | 2026-08-30 12:47:47 | 51.69476 | 8.19495 | 53° | 49km/h | 15428m | -11.4m/s | -51.8°C | 0.2% | 119.1hPa | 2.5V | 08:17:30 | 02:29:56 | 00:00:00 | |
| GOEST3-10 | 2026-08-30 12:47:47 | 51.69476 | 8.19495 | 53° | 51km/h | 15429m | -11.4m/s | -51.8°C | 3.5% | 119.0hPa | 2.6V | 00:00:00 | 02:29:56 | 00:00:00 | |
| DL1XH1-15 | 2026-08-30 12:47:46 | 51.69454 | 8.19445 | 56° | 51km/h | 15463m | -11.6m/s | -51.7°C | 3.5% | 118.4hPa | 2.6V | 08:17:13 | 02:29:53 | 00:00:00 | |
| DJ2DS-15 | 2026-08-30 12:47:46 | 51.69469 | 8.19479 | 55° | 46km/h | 15440m | -11.3m/s | -51.7°C | 3.5% | 118.8hPa | 2.6V | 00:00:00 | 02:29:55 | 00:00:00 | |
| DM0DOS-11 | 2026-08-30 12:47:45 | 51.69447 | 8.19428 | 57° | 51km/h | 15474m | -11.4m/s | -51.7°C | 3.5% | 118.2hPa | 2.6V | 08:17:14 | 02:29:52 | 00:00:00 | |
| DO2JMG | 2026-08-30 12:47:44 | 51.69454 | 8.19445 | 57° | 51km/h | 15463m | -11.6m/s | -51.7°C | 0.2% | 118.4hPa | 2.6V | 08:17:30 | 02:29:53 | 00:00:00 | |
| DL1NUX | 2026-08-30 12:47:43 | 51.69440 | 8.19410 | 59° | 51km/h | 15486m | -11.5m/s | -51.7°C | 3.5% | 118hPa | 2.5V | 08:17:15 | 02:29:51 | 00:00:00 | |
| DL1XH-west | 2026-08-30 12:47:42 | 51.69440 | 8.19410 | 59° | 51km/h | 15486m | -11.5m/s | -51.7°C | 0.2% | 118hPa | 2.5V | 08:17:30 | 02:29:51 | 00:00:00 | |
| AA1-15 | 2026-08-30 12:47:40 | 51.69427 | 8.19374 | 61° | 51km/h | 15508m | -11.5m/s | -51.7°C | 0.2% | 117.6hPa | 2.6V | 08:17:30 | 02:29:49 | 00:00:00 | |
| DB0NH | 2026-08-30 12:47:40 | 51.69427 | 8.19374 | 62° | 46km/h | 15509m | -11.4m/s | -51.7°C | 3.5% | 117.5hPa | 2.5V | 00:00:00 | 02:29:49 | 00:00:00 | |
| DL1XH-15 | 2026-08-30 12:47:39 | 51.69415 | 8.19337 | 61° | 51km/h | 15531m | -11.4m/s | -51.8°C | 3.5% | 117.2hPa | 2.5V | 08:17:19 | 02:29:47 | 00:00:00 | |
| DF8AY | 2026-08-30 12:47:39 | 51.69421 | 8.19356 | 62° | 51km/h | 15520m | -11.4m/s | -51.7°C | 0.2% | 117.4hPa | 2.6V | 08:17:30 | 02:29:48 | 00:00:00 | |
| BIOWL1-15 | 2026-08-30 12:47:36 | 51.69403 | 8.19302 | 63° | 47km/h | 15554m | -11.4m/s | -51.9°C | 0.2% | 116.8hPa | 2.5V | 08:17:30 | 02:29:45 | 00:00:00 | |
| DD8BA-10 | 2026-08-30 12:47:36 | 51.69403 | 8.19302 | 63° | 42km/h | 15554m | -11.4m/s | -51.8°C | 3.5% | 116.8hPa | 2.6V | 00:00:00 | 00:00:00 | 00:00:00 | |
| DM0DOS-11 | 2026-08-30 12:47:35 | 51.69386 | 8.19254 | 58° | 42km/h | 15588m | -11.3m/s | -51.8°C | 3.4% | 116.1hPa | 2.6V | 08:17:24 | 02:29:42 | 00:00:00 | |
| HSKMA3-T | 2026-08-30 12:47:34 | 51.69392 | 8.19269 | 60° | 44km/h | 15577m | -11.4m/s | -51.9°C | 0.1% | 116.4hPa | 2.6V | 08:17:30 | 02:29:43 | 00:00:00 | |
| DL1XH-15 | 2026-08-30 12:47:33 | 51.69358 | 8.19187 | 52° | 38km/h | 15645m | -11.6m/s | -51.9°C | 3.5% | 115.1hPa | 2.6V | 08:17:29 | 02:29:37 | 00:00:00 | |
| DL1NUX | 2026-08-30 12:47:33 | 51.69375 | 8.19226 | 55° | 40km/h | 15611m | -11.3m/s | -51.9°C | 3.5% | 115.8hPa | 2.5V | 08:17:26 | 02:29:40 | 00:00:00 | |
| DO2JMG | 2026-08-30 12:47:33 | 51.69386 | 8.19254 | 59° | 42km/h | 15588m | -11.4m/s | -51.8°C | 0.1% | 116.2hPa | 2.6V | 08:17:30 | 02:29:42 | 00:00:00 | |
| DL1XH-west | 2026-08-30 12:47:32 | 51.69381 | 8.19239 | 57° | 42km/h | 15599m | -11.6m/s | -51.8°C | 0.1% | 116hPa | 2.5V | 08:17:30 | 02:29:41 | 00:00:00 | |
| DF8AY | 2026-08-30 12:47:29 | 51.69364 | 8.19199 | 54° | 38km/h | 15634m | -11.6m/s | -51.9°C | 0.2% | 115.3hPa | 2.6V | 08:17:30 | 02:29:38 | 00:00:00 | |
| BIOWL1-15 | 2026-08-30 12:47:25 | 51.69340 | 8.19149 | 52° | 40km/h | 15680m | -11.5m/s | -51.6°C | 0.1% | 114.5hPa | 2.5V | 08:18:21 | 02:29:34 | 00:00:00 | |
| DK9SH | 2026-08-30 12:47:24 | 51.69340 | 8.19149 | 53° | 40km/h | 15680m | -11.5m/s | -51.6°C | 1.0% | 114.5hPa | 2.5V | 08:18:00 | 00:00:00 | 00:00:00 | |
| DL1NUX | 2026-08-30 12:47:23 | 51.69314 | 8.19095 | 54° | 44km/h | 15726m | -11.6m/s | -51.7°C | 3.5% | 113.7hPa | 2.5V | 08:17:36 | 02:29:30 | 00:00:00 | |
| DO2JMG | 2026-08-30 12:47:23 | 51.69327 | 8.19123 | 54° | 42km/h | 15702m | -11.3m/s | -51.6°C | 0.1% | 114.1hPa | 2.6V | 08:18:21 | 02:29:32 | 00:00:00 | |
| GOEST3-10 | 2026-08-30 12:47:22 | 51.69321 | 8.19109 | 53° | 44km/h | 15714m | -11.6m/s | -51.6°C | 3.5% | 113.9hPa | 2.6V | 00:00:00 | 00:00:00 | 00:00:00 | |
| DL1XH-15 | 2026-08-30 12:47:21 | 51.69294 | 8.19050 | 55° | 47km/h | 15759m | -11.3m/s | -51.8°C | 3.5% | 113.1hPa | 2.6V | 08:17:39 | 02:29:27 | 00:00:00 | |
| DL1XH-west | 2026-08-30 12:47:21 | 51.69314 | 8.19095 | 54° | 44km/h | 15726m | -11.6m/s | -51.7°C | 0.2% | 113.7hPa | 2.5V | 08:18:21 | 02:29:30 | 00:00:00 | |
| SO1NDE-10 | 2026-08-30 12:47:21 | 51.69314 | 8.19095 | 55° | 49km/h | 15726m | -11.5m/s | -51.7°C | 3.5% | 113.7hPa | 2.5V | 00:00:00 | 02:29:30 | 00:00:00 | |
| SONCRA | 2026-08-30 12:47:20 | 51.69308 | 8.19080 | 53° | 44km/h | 15737m | -11.3m/s | -51.7°C | 1.1% | 113.5hPa | 2.5V | 00:00:00 | 00:00:00 | 00:00:00 | |
| DL1XH1-15 | 2026-08-30 12:47:18 | 51.69266 | 8.18985 | 54° | 51km/h | 15805m | -11.4m/s | -52°C | 3.5% | 112.3hPa | 2.5V | 08:17:43 | 02:29:23 | 00:00:00 | |
| DF8AY | 2026-08-30 12:47:18 | 51.69294 | 8.19050 | 55° | 47km/h | 15759m | -11.3m/s | -51.8°C | 0.2% | 113.1hPa | 2.6V | 08:18:21 | 02:29:27 | 00:00:00 | |
| GOEST3-10 | 2026-08-30 12:47:17 | 51.69287 | 8.19034 | 55° | 49km/h | 15771m | -11.2m/s | -51.9°C | 3.5% | 112.9hPa | 2.6V | 00:00:00 | 02:29:26 | 00:00:00 | |
| DD8BA-10 | 2026-08-30 12:47:16 | 51.69280 | 8.19019 | 56° | 53km/h | 15783m | -11.7m/s | -51.9°C | 3.5% | 112.7hPa | 2.6V | 00:00:00 | 00:00:00 | 00:00:00 | |
| DL3AQ-11 | 2026-08-30 12:47:15 | 51.69266 | 8.18985 | 54° | 49km/h | 15805m | -11.4m/s | -52.0°C | 1.0% | 112.3hPa | 2.6V | 00:00:00 | 00:00:00 | 00:00:00 | |
| S3001 | 2026-08-30 12:47:14 | 51.69258 | 8.18969 | 53° | 51km/h | 15817m | -11.7m/s | -52.0°C | 1.1% | 112.1hPa | 2.6V | 00:00:00 | 00:00:00 | 00:00:00 | |
| BIOWL1-15 | 2026-08-30 12:47:14 | 51.69266 | 8.18985 | 54° | 51km/h | 15805m | -11.4m/s | -52°C | 0.1% | 112.3hPa | 2.5V | 08:18:21 | 02:29:23 | 00:00:00 | |
| DL1NUX | 2026-08-30 12:47:13 | 51.69242 | 8.18934 | 52° | 53km/h | 15839m | -11.5m/s | -52.1°C | 3.6% | 111.7hPa | 2.6V | 08:17:46 | 02:29:20 | 00:00:00 | |
| DO2JMG | 2026-08-30 12:47:13 | 51.69258 | 8.18969 | 53° | 51km/h | 15817m | -11.7m/s | -52°C | 0.2% | 112.1hPa | 2.5V | 08:18:21 | 02:29:22 | 00:00:00 | |
| DL1XH-west | 2026-08-30 12:47:11 | 51.69243 | 8.18934 | 53° | 53km/h | 15840m | -11.5m/s | -52.1°C | 0.2% | 111.7hPa | 2.6V | 08:18:21 | 02:29:20 | 00:00:00 | |
| AA1-15 | 2026-08-30 12:47:08 | 51.69218 | 8.18882 | 53° | 55km/h | 15874m | -11.5m/s | -52.1°C | 0.2% | 111.2hPa | 2.5V | 08:18:21 | 02:29:17 | 00:00:00 | |
| DF8AY | 2026-08-30 12:47:07 | 51.69209 | 8.18864 | 53° | 57km/h | 15885m | -11.5m/s | -52.2°C | 0.1% | 110.9hPa | 2.5V | 08:18:21 | 02:29:16 | 00:00:00 | |
| GOEST3-10 | 2026-08-30 12:47:07 | 51.69209 | 8.18864 | 53° | 55km/h | 15886m | -11.4m/s | -52.1°C | 3.5% | 110.9hPa | 2.5V | 00:00:00 | 02:29:16 | 00:00:00 | |
| DL1XH1-15 | 2026-08-30 12:47:06 | 51.69184 | 8.18810 | 52° | 55km/h | 15920m | -11.6m/s | -52.3°C | 3.6% | 110.3hPa | 2.5V | 08:17:53 | 02:29:13 | 00:00:00 | |
| DJ2DS-15 | 2026-08-30 12:47:06 | 51.69201 | 8.18845 | 53° | 46km/h | 15897m | -11.3m/s | -52.1°C | 3.6% | 110.7hPa | 2.5V | 00:00:00 | 02:29:15 | 00:00:00 | |
| DM0DOS-11 | 2026-08-30 12:47:05 | 51.69176 | 8.18793 | 52° | 53km/h | 15931m | -11.4m/s | -52.1°C | 3.5% | 110.2hPa | 2.5V | 08:17:54 | 02:29:12 | 00:00:00 | |
| DL3AQ-11 | 2026-08-30 12:47:04 | 51.69176 | 8.18793 | 52° | 53km/h | 15931m | -11.4m/s | -52.1°C | 1.1% | 110.2hPa | 2.6V | 00:00:00 | 00:00:00 | 00:00:00 | |
| DL1NUX | 2026-08-30 12:47:03 | 51.69160 | 8.18759 | 53° | 51km/h | 15954m | -11.3m/s | -51.8°C | 3.5% | 109.7hPa | 2.6V | 08:17:56 | 02:29:10 | 00:00:00 | |
| DO2JMG | 2026-08-30 12:47:03 | 51.69176 | 8.18793 | 53° | 53km/h | 15931m | -11.4m/s | -52.1°C | 0.2% | 110.2hPa | 2.5V | 08:18:21 | 02:29:12 | 00:00:00 | |
| DL1XH-west | 2026-08-30 12:47:00 | 51.69152 | 8.18742 | 54° | 49km/h | 15965m | -11.5m/s | -51.8°C | 0% | 109.6hPa | 2.5V | 08:18:21 | 02:29:09 | 00:00:00 | |
| DD1CC8 | 2026-08-30 12:46:59 | 51.69145 | 8.18726 | 54° | 47km/h | 15977m | -11.7m/s | -51.8°C | 1.1% | 109.4hPa | 2.5V | 00:00:00 | 00:00:00 | 00:00:00 | |
| DL1XH1-15 | 2026-08-30 12:46:58 | 51.69113 | 8.18651 | 55° | 42km/h | 16035m | -11.6m/s | -51.8°C | 3.4% | 108.4hPa | 2.5V | 08:18:03 | 02:29:03 | 00:00:00 | |
| AA1-15 | 2026-08-30 12:46:58 | 51.69132 | 8.18695 | 55° | 46km/h | 16000m | -11.4m/s | -51.8°C | 0.1% | 109hPa | 2.7V | 08:18:21 | 02:29:06 | 00:00:00 | |
| DF8AY | 2026-08-30 12:46:56 | 51.69125 | 8.18680 | 56° | 46km/h | 16011m | -11.8m/s | -51.8°C | 0.1% | 108.8hPa | 2.6V | 08:18:21 | 02:29:05 | 00:00:00 | |
| DO9LL-15 | 2026-08-30 12:46:56 | 51.69125 | 8.18680 | 57° | 38km/h | 16012m | -11.7m/s | -51.8°C | 3.4% | 108.7hPa | 2.5V | 00:00:00 | 02:29:05 | 00:00:00 | |
| DM0DOS-11 | 2026-08-30 12:46:55 | 51.69107 | 8.18636 | 55° | 44km/h | 16046m | -11.8m/s | -51.8°C | 3.4% | 108.2hPa | 2.5V | 08:18:04 | 02:29:02 | 00:00:00 | |
| DO2JMG | 2026-08-30 12:46:53 | 51.69107 | 8.18636 | 56° | 44km/h | 16046m | -11.8m/s | -51.8°C | 0.1% | 108.2hPa | 2.5V | 08:18:21 | 02:29:02 | 00:00:00 | |
| HSKMA3-T | 2026-08-30 12:46:52 | 51.69100 | 8.18622 | 54° | 42km/h | 16058m | -11.7m/s | -51.8°C | 0.1% | 108hPa | 2.5V | 08:18:21 | 02:29:01 | 00:00:00 | |
| BIOWL1-15 | 2026-08-30 12:46:51 | 51.69094 | 8.18608 | 56° | 42km/h | 16070m | -11.8m/s | -51.9°C | 0.1% | 107.8hPa | 2.6V | 08:18:21 | 02:29:00 | 00:00:00 | |
| DL1XH-west | 2026-08-30 12:46:50 | 51.69088 | 8.18594 | 55° | 42km/h | 16082m | -11.7m/s | -51.9°C | 0.1% | 107.6hPa | 2.6V | 08:18:21 | 02:28:59 | 00:00:00 | |
| DL1XH-15 | 2026-08-30 12:46:49 | 51.69077 | 8.18567 | 54° | 40km/h | 16105m | -11.9m/s | -51.9°C | 3.4% | 107.2hPa | 2.5V | 08:18:09 | 02:28:57 | 00:00:00 | |
| AA1-15 | 2026-08-30 12:46:47 | 51.69065 | 8.18540 | 55° | 40km/h | 16129m | -11.9m/s | -51.8°C | 0% | 106.8hPa | 2.5V | 08:18:21 | 02:28:55 | 00:00:00 | |
| EDDB2-12 | 2026-08-30 12:46:47 | 51.69065 | 8.18540 | 54° | 40km/h | 16129m | -11.9m/s | -51.8°C | 1.0% | 106.8hPa | 2.5V | 00:00:00 | 00:00:00 | 00:00:00 | |
| DJ2KF-10 | 2026-08-30 12:46:46 | 51.69065 | 8.18540 | 55° | 38km/h | 16129m | -11.8m/s | -51.8°C | 3.3% | 106.8hPa | 2.5V | 00:00:00 | 02:28:55 | 00:00:00 | |
| DM0DOS-11 | 2026-08-30 12:46:45 | 51.69048 | 8.18500 | 55° | 40km/h | 16164m | -11.7m/s | -51.9°C | 3.3% | 106.2hPa | 2.5V | 08:18:14 | 02:28:52 | 00:00:00 | |
| DO2JMG | 2026-08-30 12:46:42 | 51.69042 | 8.18486 | 54° | 40km/h | 16176m | -12m/s | -52°C | 0% | 106.1hPa | 2.5V | 08:18:21 | 02:28:51 | 00:00:00 | |
| HSKMA3-T | 2026-08-30 12:46:41 | 51.69036 | 8.18473 | 53° | 40km/h | 16188m | -12.2m/s | -52.1°C | 0% | 105.9hPa | 2.6V | 08:18:21 | 02:28:50 | 00:00:00 | |
| DB0NH | 2026-08-30 12:46:40 | 51.69030 | 8.18460 | 54° | 24km/h | 16200m | -11.9m/s | -52.1°C | 3.4% | 105.6hPa | 2.6V | 00:00:00 | 02:28:49 | 00:00:00 | |
| DL1XH-15 | 2026-08-30 12:46:39 | 51.69017 | 8.18435 | 49° | 38km/h | 16224m | -11.9m/s | -52.3°C | 3.4% | 105.3hPa | 2.5V | 08:18:19 | 02:28:47 | 00:00:00 | |
| DL1XH-west | 2026-08-30 12:46:39 | 51.69023 | 8.18447 | 51° | 40km/h | 16212m | -12m/s | -52.2°C | 0% | 105.5hPa | 2.5V | 08:18:21 | 02:28:48 | 00:00:00 | |
| AA1-15 | 2026-08-30 12:46:35 | 51.68998 | 8.18401 | 46° | 35km/h | 16260m | -12.3m/s | -52.6°C | 0.1% | 104.7hPa | 2.6V | 08:19:12 | 02:28:44 | 00:00:00 | |
| DF8AY | 2026-08-30 12:46:33 | 51.68986 | 8.18381 | 43° | 33km/h | 16285m | -12.2m/s | -52.7°C | 0.1% | 104.3hPa | 2.5V | 08:19:12 | 02:28:42 | 00:00:00 | |
| BIOWL1-15 | 2026-08-30 12:46:31 | 51.68933 | 8.18305 | 37° | 42km/h | 16383m | -12.5m/s | -53.3°C | 0.2% | 102.7hPa | 2.5V | 08:19:12 | 02:28:34 | 00:00:00 | |
| DO2JMG | 2026-08-30 12:46:31 | 51.68974 | 8.18364 | 42° | 33km/h | 16309m | -12.4m/s | -52.9°C | 0.1% | 103.9hPa | 2.5V | 08:19:12 | 02:28:40 | 00:00:00 | |
| DL1XH-west | 2026-08-30 12:46:28 | 51.68955 | 8.18336 | 44° | 35km/h | 16346m | -12.3m/s | -53.1°C | 0.2% | 103.3hPa | 2.6V | 08:19:12 | 02:28:37 | 00:00:00 | |
| DD1CC8 | 2026-08-30 12:46:28 | 51.68949 | 8.18326 | 41° | 37km/h | 16358m | -12.4m/s | -53.2°C | 1.0% | 103.1hPa | 2.5V | 00:00:00 | 00:00:00 | 00:00:00 | |
| GOEST3-10 | 2026-08-30 12:46:27 | 51.68949 | 8.18326 | 42° | 42km/h | 16358m | -12.3m/s | -53.1°C | 3.6% | 103.1hPa | 2.5V | 08:18:00 | 02:28:36 | 00:00:00 | |
| DL1XH1-15 | 2026-08-30 12:46:26 | 51.68924 | 8.18295 | 33° | 46km/h | 16395m | -12.2m/s | -53.3°C | 3.7% | 102.5hPa | 2.6V | 08:18:33 | 02:28:33 | 00:00:00 | |
| AA1-15 | 2026-08-30 12:46:24 | 51.68924 | 8.18295 | 33° | 46km/h | 16395m | -12.2m/s | -53.3°C | 0.2% | 102.5hPa | 2.6V | 08:19:12 | 02:28:33 | 00:00:00 | |
| DF8AY | 2026-08-30 12:46:23 | 51.68914 | 8.18285 | 31° | 46km/h | 16407m | -12.5m/s | -53.4°C | 0.2% | 102.3hPa | 2.6V | 08:19:12 | 02:28:32 | 00:00:00 | |
| DO2JMG | 2026-08-30 12:46:20 | 51.68884 | 8.18262 | 22° | 38km/h | 16444m | -12m/s | -53.6°C | 0.2% | 101.7hPa | 2.6V | 08:19:12 | 02:28:29 | 00:00:00 | |
| DL1XH-15 | 2026-08-30 12:46:19 | 51.68870 | 8.18249 | 41° | 29km/h | 16468m | -11.6m/s | -53.6°C | 3.8% | 101.3hPa | 2.5V | 08:18:39 | 02:28:27 | 00:00:00 | |
| BIOWL1-15 | 2026-08-30 12:46:18 | 51.68870 | 8.18249 | 42° | 29km/h | 16468m | -11.6m/s | -53.6°C | 0.2% | 101.3hPa | 2.5V | 08:19:12 | 02:28:27 | 00:00:00 | |
| DL1XH-west | 2026-08-30 12:46:17 | 51.68865 | 8.18240 | 54° | 31km/h | 16479m | -12m/s | -53.7°C | 0.2% | 101.2hPa | 2.5V | 08:19:12 | 02:28:26 | 00:00:00 | |
| DL1XH1-15 | 2026-08-30 12:46:16 | 51.68849 | 8.18198 | 57° | 47km/h | 16517m | -12m/s | -53.6°C | 3.8% | 100.6hPa | 2.5V | 08:18:43 | 02:28:23 | 00:00:00 | |
| DD8BA-10 | 2026-08-30 12:46:16 | 51.68860 | 8.18228 | 60° | 53km/h | 16492m | -12.6m/s | -53.7°C | 3.8% | 100.9hPa | 2.6V | 00:00:00 | 00:00:00 | 00:00:00 | |
| DM0DOS-11 | 2026-08-30 12:46:15 | 51.68842 | 8.18181 | 53° | 55km/h | 16528m | -11.5m/s | -53.6°C | 3.8% | 100.4hPa | 2.5V | 08:18:44 | 02:28:22 | 00:00:00 | |
| AA1-15 | 2026-08-30 12:46:14 | 51.68849 | 8.18198 | 57° | 47km/h | 16517m | -12m/s | -53.6°C | 0.2% | 100.6hPa | 2.5V | 08:19:12 | 02:28:23 | 00:00:00 | |
| BIOWL1-15 | 2026-08-30 12:46:13 | 51.68775 | 8.18099 | 24° | 46km/h | 16602m | -11.8m/s | -53.3°C | 0.2% | 99.3hPa | 2.5V | 08:19:12 | 02:28:16 | 00:00:00 | |
| DF8AY | 2026-08-30 12:46:12 | 51.68833 | 8.18164 | 48° | 58km/h | 16540m | -11.7m/s | -53.6°C | 0.2% | 100.2hPa | 2.5V | 08:19:12 | 02:28:21 | 00:00:00 | |
| S3001 | 2026-08-30 12:46:12 | 51.68822 | 8.18147 | 42° | 58km/h | 16552m | -11.7m/s | -53.4°C | 1.0% | 100.0hPa | 2.5V | 00:00:00 | 00:00:00 | 00:00:00 | |
| BUE01 | 2026-08-30 12:46:10 | 51.68810 | 8.18131 | 35° | 58km/h | 16563m | -12.2m/s | -53.3°C | 1.0% | 99.9hPa | 2.5V | 00:00:00 | 00:00:00 | 00:00:00 | |
| DL1XH-15 | 2026-08-30 12:46:09 | 51.68786 | 8.18107 | 27° | 53km/h | 16589m | -13m/s | -53.3°C | 3.6% | 99.4hPa | 2.5V | 08:18:49 | 02:28:17 | 00:00:00 | |
| DO2JMG | 2026-08-30 12:46:09 | 51.68798 | 8.18118 | 31° | 57km/h | 16576m | -13.2m/s | -53.3°C | 0.1% | 99.7hPa | 2.6V | 08:19:12 | 02:28:18 | 00:00:00 | |
| DL4BBY-15 | 2026-08-30 12:46:09 | 51.68798 | 8.18118 | 32° | 47km/h | 16576m | -13.1m/s | -52.8°C | 0% | 0hPa | 2.6V | 00:00:00 | 00:00:00 | 00:00:00 | |
| DM0DOS-11 | 2026-08-30 12:46:08 | 51.68745 | 8.18074 | 43° | 26km/h | 16649m | -12.6m/s | -53°C | 3.6% | 98.6hPa | 2.6V | 08:18:54 | 02:28:12 | 00:00:00 | |
| DL3AQ-11 | 2026-08-30 12:46:08 | 51.68775 | 8.18099 | 24° | 46km/h | 16602m | -11.8m/s | -53.3°C | 1.0% | 99.3hPa | 2.6V | 00:00:00 | 00:00:00 | 00:00:00 | |
| GOEST3-10 | 2026-08-30 12:46:07 | 51.68775 | 8.18099 | 25° | 35km/h | 16602m | -11.7m/s | -53.3°C | 3.7% | 99.3hPa | 2.6V | 00:00:00 | 02:28:16 | 00:00:00 | |
| DL1XH1-15 | 2026-08-30 12:46:06 | 51.68750 | 8.18081 | 29° | 26km/h | 16636m | -12.1m/s | -53.1°C | 3.7% | 98.7hPa | 2.6V | 08:18:53 | 02:28:13 | 00:00:00 | |
| DL1XH-west | 2026-08-30 12:46:06 | 51.68765 | 8.18092 | 23° | 40km/h | 16613m | -11.5m/s | -53.3°C | 0.1% | 99hPa | 2.5V | 08:19:12 | 02:28:15 | 00:00:00 | |
| AA1-15 | 2026-08-30 12:46:04 | 51.68750 | 8.18081 | 29° | 27km/h | 16637m | -12.1m/s | -53.1°C | 0.1% | 98.7hPa | 2.6V | 08:19:12 | 02:28:13 | 00:00:00 | |
| DL1XH-15 | 2026-08-30 12:46:03 | 51.68717 | 8.18007 | 54° | 57km/h | 16710m | -12m/s | -52.9°C | 3.6% | 97.6hPa | 2.6V | 08:18:59 | 02:28:07 | 00:00:00 | |
| DL1NUX | 2026-08-30 12:46:03 | 51.68731 | 8.18041 | 59° | 42km/h | 16686m | -11.8m/s | -52.9°C | 3.6% | 98hPa | 2.5V | 08:18:57 | 02:28:09 | 00:00:00 | |
| DF8AY | 2026-08-30 12:46:01 | 51.68736 | 8.18055 | 58° | 37km/h | 16674m | -12.3m/s | -52.9°C | 0.1% | 98.2hPa | 2.5V | 08:19:12 | 02:28:10 | 00:00:00 | |
| DO2JMG | 2026-08-30 12:45:59 | 51.68725 | 8.18025 | 57° | 51km/h | 16698m | -12m/s | -52.9°C | 0.1% | 97.8hPa | 2.6V | 08:19:12 | 02:28:08 | 00:00:00 | |
| BIOWL1-15 | 2026-08-30 12:45:58 | 51.68697 | 8.17967 | 48° | 66km/h | 16734m | -12.3m/s | -53°C | 0.1% | 97.2hPa | 2.5V | 08:19:12 | 02:28:05 | 00:00:00 | |
| DD1CC8 | 2026-08-30 12:45:57 | 51.68686 | 8.17948 | 44° | 66km/h | 16746m | -13.0m/s | -53.0°C | 1.0% | 97.1hPa | 2.5V | 00:00:00 | 00:00:00 | 00:00:00 | |
| DO9LL-15 | 2026-08-30 12:45:56 | 51.68697 | 8.17967 | 48° | 55km/h | 16734m | -12.2m/s | -53.0°C | 3.6% | 97.2hPa | 2.5V | 00:00:00 | 02:28:05 | 00:00:00 | |
| DM0DOS-11 | 2026-08-30 12:45:55 | 51.68662 | 8.17914 | 40° | 60km/h | 16771m | -12.5m/s | -53.1°C | 3.7% | 96.7hPa | 2.5V | 08:19:04 | 02:28:02 | 00:00:00 | |
| DL1XH-west | 2026-08-30 12:45:55 | 51.68686 | 8.17948 | 45° | 66km/h | 16746m | -13m/s | -53°C | 0.1% | 97.1hPa | 2.5V | 08:19:12 | 02:28:04 | 00:00:00 | |
| AA1-15 | 2026-08-30 12:45:54 | 51.68674 | 8.17930 | 41° | 64km/h | 16759m | -12.5m/s | -53.1°C | 0.2% | 96.9hPa | 2.5V | 08:19:12 | 02:28:03 | 00:00:00 | |
| DF8AY | 2026-08-30 12:45:51 | 51.68631 | 8.17872 | 44° | 46km/h | 16809m | -12.3m/s | -53.1°C | 0.1% | 96.1hPa | 2.6V | 08:19:12 | 02:27:59 | 00:00:00 | |
| DO2JMG | 2026-08-30 12:45:49 | 51.68623 | 8.17859 | 47° | 44km/h | 16821m | -12.1m/s | -53.1°C | 0.2% | 96hPa | 2.5V | 08:19:12 | 02:27:58 | 00:00:00 | |
| SO1NDE-10 | 2026-08-30 12:45:49 | 51.68623 | 8.17858 | 48° | 53km/h | 16822m | -12.0m/s | -53.1°C | 3.8% | 95.9hPa | 2.5V | 00:00:00 | 02:27:58 | 00:00:00 | |
| DM0DOS-11 | 2026-08-30 12:45:48 | 51.68575 | 8.17760 | 46° | 47km/h | 16910m | -13.4m/s | -52.5°C | 3.6% | 94.6hPa | 2.5V | 08:19:15 | 02:27:51 | 00:00:00 | |
| DL1XH-15 | 2026-08-30 12:45:48 | 51.68616 | 8.17845 | 52° | 42km/h | 16833m | -12.3m/s | -53.1°C | 3.7% | 95.8hPa | 2.5V | 08:19:09 | 02:27:57 | 00:00:00 | |
| BIOWL1-15 | 2026-08-30 12:45:46 | 51.68604 | 8.17817 | 56° | 44km/h | 16858m | -12.6m/s | -53°C | 0.2% | 95.4hPa | 2.6V | 08:19:12 | 02:27:55 | 00:00:00 | |
| DL1XH-west | 2026-08-30 12:45:45 | 51.68598 | 8.17802 | 54° | 46km/h | 16871m | -13m/s | -52.7°C | 0.1% | 95.2hPa | 2.6V | 08:19:12 | 02:27:54 | 00:00:00 | |
| AA1-15 | 2026-08-30 12:45:44 | 51.68566 | 8.17746 | 45° | 49km/h | 16924m | -13.4m/s | -52.3°C | 0% | 94.5hPa | 2.5V | 08:20:03 | 02:27:50 | 00:00:00 | |
| HSKMA3-T | 2026-08-30 12:45:39 | 51.68548 | 8.17717 | 46° | 53km/h | 16951m | -13.1m/s | -52.1°C | 0% | 94.1hPa | 2.6V | 08:20:03 | 02:27:48 | 00:00:00 | |
| DO2JMG | 2026-08-30 12:45:38 | 51.68539 | 8.17701 | 46° | 55km/h | 16964m | -13.3m/s | -51.9°C | 0% | 93.9hPa | 2.6V | 08:20:03 | 02:27:47 | 00:00:00 | |
| BIOWL1-15 | 2026-08-30 12:45:35 | 51.68509 | 8.17651 | 49° | 57km/h | 17003m | -13.6m/s | -51.9°C | 0% | 93.3hPa | 2.5V | 08:20:03 | 02:27:44 | 00:00:00 | |
| DL1XH-west | 2026-08-30 12:45:34 | 51.68500 | 8.17633 | 49° | 58km/h | 17017m | -13.5m/s | -52°C | 0% | 93.1hPa | 2.6V | 08:20:03 | 02:27:43 | 00:00:00 | |
| AA1-15 | 2026-08-30 12:45:33 | 51.68490 | 8.17615 | 50° | 57km/h | 17030m | -13.4m/s | -52°C | 0% | 92.9hPa | 2.6V | 08:20:03 | 02:27:42 | 00:00:00 | |
| DL1NUX | 2026-08-30 12:45:33 | 51.68462 | 8.17562 | 49° | 57km/h | 17071m | -13.9m/s | -51.4°C | 3.2% | 92.3hPa | 2.6V | 08:19:27 | 02:27:39 | 00:00:00 | |
| DF8AY | 2026-08-30 12:45:29 | 51.68453 | 8.17544 | 50° | 55km/h | 17085m | -13.5m/s | -51.4°C | 0% | 92.1hPa | 2.6V | 08:20:03 | 02:27:38 | 00:00:00 | |
| DO2JMG | 2026-08-30 12:45:28 | 51.68444 | 8.17527 | 51° | 55km/h | 17098m | -13.7m/s | -51.4°C | 0% | 91.9hPa | 2.5V | 08:20:03 | 02:27:37 | 00:00:00 | |
| DL3AQ-11 | 2026-08-30 12:45:28 | 51.68436 | 8.17510 | 51° | 53km/h | 17112m | -13.8m/s | -51.4°C | 0.9% | 91.7hPa | 2.6V | 00:00:00 | 00:00:00 | 00:00:00 | |
| DL1XH1-15 | 2026-08-30 12:45:27 | 51.68411 | 8.17456 | 55° | 55km/h | 17153m | -13.7m/s | -51.5°C | 3.3% | 91.1hPa | 2.6V | 08:19:33 | 02:27:33 | 00:00:00 | |
| DL1XH-west | 2026-08-30 12:45:24 | 51.68411 | 8.17456 | 56° | 55km/h | 17153m | -13.7m/s | -51.5°C | 0% | 91.1hPa | 2.6V | 08:20:03 | 02:27:33 | 00:00:00 | |
| DL1NUX | 2026-08-30 12:45:23 | 51.68381 | 8.17380 | 59° | 55km/h | 17208m | -13.9m/s | -51.4°C | 3.3% | 90.4hPa | 2.5V | 08:19:37 | 02:27:29 | 00:00:00 | |
| AA1-15 | 2026-08-30 12:45:22 | 51.68396 | 8.17419 | 58° | 57km/h | 17181m | -13.9m/s | -51.4°C | 0% | 90.8hPa | 2.5V | 08:20:03 | 02:27:31 | 00:00:00 | |
| GOEST3-10 | 2026-08-30 12:45:22 | 51.68396 | 8.17419 | 58° | 55km/h | 17181m | -13.9m/s | -51.3°C | 3.3% | 90.7hPa | 2.5V | 00:00:00 | 00:00:00 | 00:00:00 | |
| DJ3KS | 2026-08-30 12:45:21 | 51.68395 | 8.17419 | 58° | 57km/h | 17181m | -13.9m/s | -51.4°C | 0.9% | 90.8hPa | 2.5V | 00:00:00 | 00:00:00 | 00:00:00 | |
| DL1XH1-15 | 2026-08-30 12:45:19 | 51.68341 | 8.17270 | 60° | 49km/h | 17290m | -13.9m/s | -52°C | 3.4% | 89.2hPa | 2.5V | 08:19:43 | 02:27:23 | 00:00:00 | |
| DF8AY | 2026-08-30 12:45:19 | 51.68360 | 8.17324 | 59° | 53km/h | 17249m | -13.8m/s | -51.7°C | 0% | 89.8hPa | 2.6V | 08:20:03 | 02:27:26 | 00:00:00 | |
| DM0DOS-11 | 2026-08-30 12:45:18 | 51.68335 | 8.17253 | 60° | 49km/h | 17304m | -13.9m/s | -51.9°C | 3.4% | 89hPa | 2.6V | 08:19:44 | 02:27:22 | 00:00:00 | |
| DO2JMG | 2026-08-30 12:45:18 | 51.68367 | 8.17342 | 60° | 53km/h | 17236m | -13.3m/s | -51.6°C | 0% | 90hPa | 2.6V | 08:20:03 | 02:27:27 | 00:00:00 | |
| DL1XH-west | 2026-08-30 12:45:13 | 51.68335 | 8.17253 | 61° | 49km/h | 17304m | -13.9m/s | -51.9°C | 0% | 89hPa | 2.6V | 08:20:03 | 02:27:22 | 00:00:00 | |
| DL1NUX | 2026-08-30 12:45:13 | 51.68317 | 8.17201 | 61° | 51km/h | 17346m | -14.2m/s | -52°C | 3.4% | 88.5hPa | 2.5V | 08:19:47 | 02:27:19 | 00:00:00 | |
| AA1-15 | 2026-08-30 12:45:12 | 51.68329 | 8.17236 | 62° | 47km/h | 17318m | -13.7m/s | -51.9°C | 0% | 88.8hPa | 2.6V | 08:20:03 | 02:27:21 | 00:00:00 | |
| GOEST3-10 | 2026-08-30 12:45:12 | 51.68329 | 8.17236 | 62° | 49km/h | 17318m | -13.7m/s | -51.9°C | 3.4% | 88.8hPa | 2.6V | 00:00:00 | 00:00:00 | 00:00:00 | |
| DL1XH-15 | 2026-08-30 12:45:11 | 51.68305 | 8.17164 | 62° | 53km/h | 17374m | -13.7m/s | -52°C | 3.5% | 88hPa | 2.5V | 08:19:49 | 02:27:17 | 00:00:00 | |
| DO2JMG | 2026-08-30 12:45:07 | 51.68299 | 8.17144 | 63° | 55km/h | 17388m | -14.3m/s | -51.9°C | 0% | 87.9hPa | 2.6V | 08:20:03 | 02:27:16 | 00:00:00 | |
| EDDB2-11 | 2026-08-30 12:45:07 | 51.68293 | 8.17125 | 63° | 53km/h | 17402m | -14.4m/s | -51.7°C | 0.9% | 87.7hPa | 2.6V | 00:00:00 | 00:00:00 | 00:00:00 | |
| DO1YAY-16 | 2026-08-30 12:45:06 | 51.68293 | 8.17125 | 63° | 53km/h | 17402m | -14.4m/s | -51.7°C | 0.9% | 87.7hPa | 2.6V | 00:00:00 | 00:00:00 | 00:00:00 | |
| DL1XH1-15 | 2026-08-30 12:45:06 | 51.68281 | 8.17086 | 60° | 51km/h | 17431m | -14.5m/s | -51.6°C | 3.3% | 87.3hPa | 2.5V | 08:19:53 | 02:27:13 | 00:00:00 | |
| DM0DOS-11 | 2026-08-30 12:45:05 | 51.68274 | 8.17069 | 59° | 47km/h | 17445m | -14.3m/s | -51.7°C | 3.4% | 87.2hPa | 2.6V | 08:19:54 | 02:27:12 | 00:00:00 | |
| DJ2DS-15 | 2026-08-30 12:45:05 | 51.68287 | 8.17105 | 64° | 35km/h | 17417m | -14.4m/s | -51.5°C | 3.3% | 87.4hPa | 2.5V | 00:00:00 | 02:27:14 | 00:00:00 | |
| DL3AQ-11 | 2026-08-30 12:45:04 | 51.68274 | 8.17069 | 59° | 47km/h | 17445m | -14.3m/s | -51.7°C | 0.9% | 87.2hPa | 2.5V | 00:00:00 | 00:00:00 | 00:00:00 | |
| DL1NUX | 2026-08-30 12:45:03 | 51.68257 | 8.17027 | 54° | 35km/h | 17487m | -13.7m/s | -51.9°C | 3.4% | 86.6hPa | 2.5V | 08:19:57 | 02:27:09 | 00:00:00 | |
| BIOWL1-15 | 2026-08-30 12:45:02 | 51.68257 | 8.17026 | 55° | 35km/h | 17487m | -13.7m/s | -51.9°C | 0% | 86.6hPa | 2.5V | 08:20:03 | 02:27:09 | 00:00:00 | |
| DL1XH-west | 2026-08-30 12:45:02 | 51.68268 | 8.17053 | 58° | 44km/h | 17460m | -14.5m/s | -51.8°C | 0% | 87hPa | 2.6V | 08:20:03 | 02:27:11 | 00:00:00 | |
| AA1-15 | 2026-08-30 12:45:01 | 51.68263 | 8.17039 | 55° | 38km/h | 17474m | -13.2m/s | -51.9°C | 0% | 86.8hPa | 2.5V | 08:20:03 | 02:27:10 | 00:00:00 | |
| DL1CLM-18 | 2026-08-30 12:44:59 | 51.68257 | 8.17027 | 56° | 35km/h | 17487m | -13.7m/s | -51.9°C | 0.9% | 86.6hPa | 2.6V | 00:00:00 | 00:00:00 | 00:00:00 | |
| DJ8HS-15 | 2026-08-30 12:44:58 | 51.68248 | 8.17004 | 60° | 29km/h | 17515m | -14.0m/s | -51.8°C | 3.5% | 86.1hPa | 2.6V | 00:00:00 | 02:27:07 | 00:00:00 | |
| GOEST3-10 | 2026-08-30 12:44:57 | 51.68244 | 8.16993 | 63° | 31km/h | 17528m | -13.4m/s | -51.8°C | 3.5% | 86.0hPa | 2.6V | 08:20:00 | 02:27:06 | 00:00:00 | |
| DL1XH1-15 | 2026-08-30 12:44:56 | 51.68235 | 8.16957 | 67° | 31km/h | 17571m | -14.7m/s | -51.6°C | 3.4% | 85.5hPa | 2.5V | 08:20:03 | 02:27:03 | 00:00:00 | |
| DO2JMG | 2026-08-30 12:44:56 | 51.68241 | 8.16981 | 65° | 33km/h | 17542m | -13.9m/s | -51.7°C | 0% | 85.9hPa | 2.6V | 08:20:03 | 02:27:05 | 00:00:00 | |
| DF8AY | 2026-08-30 12:44:55 | 51.68238 | 8.16969 | 68° | 33km/h | 17556m | -14.3m/s | -51.7°C | 0.1% | 85.7hPa | 2.5V | 08:20:03 | 02:27:04 | 00:00:00 | |
| DD8BA-10 | 2026-08-30 12:44:55 | 51.68238 | 8.16969 | 68° | 29km/h | 17556m | -14.2m/s | -51.6°C | 3.5% | 85.6hPa | 2.5V | 00:00:00 | 00:00:00 | 00:00:00 | |
| DM0DOS-11 | 2026-08-30 12:44:54 | 51.68232 | 8.16945 | 67° | 31km/h | 17585m | -14.5m/s | -51.6°C | 3.4% | 85.3hPa | 2.5V | 08:20:04 | 02:27:02 | 00:00:00 | |
| DL1XH-west | 2026-08-30 12:44:51 | 51.68226 | 8.16922 | 67° | 31km/h | 17614m | -14.3m/s | -51.5°C | 0% | 84.9hPa | 2.6V | 08:20:54 | 02:27:00 | 00:00:00 | |
| DO2SHX-10 | 2026-08-30 12:44:50 | 51.68223 | 8.16911 | 70° | 29km/h | 17629m | -14.3m/s | -51.5°C | 3.4% | 84.7hPa | 2.5V | 00:00:00 | 02:26:59 | 00:00:00 | |
| DL1XH-15 | 2026-08-30 12:44:49 | 51.68217 | 8.16890 | 65° | 27km/h | 17657m | -14.2m/s | -51.7°C | 3.5% | 84.4hPa | 2.5V | 08:20:09 | 02:26:57 | 00:00:00 | |
| DL1XH1-15 | 2026-08-30 12:44:49 | 51.68203 | 8.16851 | 52° | 29km/h | 17714m | -14.3m/s | -51.5°C | 3.4% | 83.6hPa | 2.6V | 08:20:13 | 02:26:53 | 00:00:00 | |
| DO2JMG | 2026-08-30 12:44:45 | 51.68207 | 8.16860 | 55° | 29km/h | 17700m | -14.3m/s | -51.5°C | 0% | 83.8hPa | 2.6V | 08:20:54 | 02:26:54 | 00:00:00 | |
| DM0DOS-11 | 2026-08-30 12:44:44 | 51.68198 | 8.16842 | 47° | 29km/h | 17728m | -14.3m/s | -51.4°C | 3.4% | 83.4hPa | 2.5V | 08:20:14 | 02:26:52 | 00:00:00 | |
| DF8AY | 2026-08-30 12:44:44 | 51.68193 | 8.16833 | 42° | 29km/h | 17743m | -14.4m/s | -51.3°C | 0% | 83.2hPa | 2.5V | 08:20:54 | 02:26:51 | 00:00:00 | |
| DO3MHA-12 | 2026-08-30 12:44:44 | 51.68203 | 8.16851 | 53° | 29km/h | 17714m | -14.3m/s | -51.4°C | 3.4% | 83.6hPa | 2.6V | 00:00:00 | 02:26:53 | 00:00:00 | |
| DL1XH-15 | 2026-08-30 12:44:43 | 51.68167 | 8.16809 | 21° | 29km/h | 17800m | -14.5m/s | -50.7°C | 3.1% | 82.5hPa | 2.5V | 08:20:19 | 02:26:47 | 00:00:00 | |
| BIOWL1-15 | 2026-08-30 12:44:41 | 51.68187 | 8.16826 | 35° | 29km/h | 17757m | -14.5m/s | -51.2°C | 0% | 83.1hPa | 2.5V | 08:20:54 | 02:26:50 | 00:00:00 | |
| HSKMA3-T | 2026-08-30 12:44:35 | 51.68145 | 8.16798 | 14° | 29km/h | 17843m | -14.2m/s | -50.7°C | 0% | 82hPa | 2.6V | 08:20:54 | 02:26:44 | 00:00:00 | |
| DO2SHX-10 | 2026-08-30 12:44:35 | 51.68145 | 8.16798 | 15° | 27km/h | 17844m | -14.1m/s | -50.6°C | 3.1% | 81.9hPa | 2.5V | 00:00:00 | 02:26:44 | 00:00:00 | |
| DM0DOS-11 | 2026-08-30 12:44:34 | 51.68131 | 8.16793 | 13° | 29km/h | 17872m | -14m/s | -50.7°C | 3.1% | 81.6hPa | 2.5V | 08:20:24 | 02:26:42 | 00:00:00 | |
| DO2JMG | 2026-08-30 12:44:34 | 51.68138 | 8.16795 | 13° | 29km/h | 17858m | -14.3m/s | -50.7°C | 0% | 81.8hPa | 2.5V | 08:20:54 | 02:26:43 | 00:00:00 | |
| DO3MHA-12 | 2026-08-30 12:44:34 | 51.68138 | 8.16795 | 14° | 20km/h | 17858m | -14.2m/s | -50.6°C | 3.2% | 81.8hPa | 2.7V | 00:00:00 | 02:26:43 | 00:00:00 | |
| DL1NUX | 2026-08-30 12:44:33 | 51.68111 | 8.16784 | 20° | 27km/h | 17914m | -14.3m/s | -50.5°C | 3.1% | 81.1hPa | 2.7V | 08:20:27 | 02:26:39 | 00:00:00 | |
| GOEST3-10 | 2026-08-30 12:44:32 | 51.68124 | 8.16790 | 15° | 27km/h | 17886m | -14.0m/s | -50.6°C | 3.1% | 81.4hPa | 2.5V | 00:00:00 | 00:00:00 | 00:00:00 | |
| DL1XH-15 | 2026-08-30 12:44:31 | 51.68098 | 8.16775 | 24° | 29km/h | 17942m | -14.3m/s | -50.5°C | 3.1% | 80.7hPa | 2.5V | 08:20:29 | 02:26:37 | 00:00:00 | |
| DL1XH-west | 2026-08-30 12:44:31 | 51.68118 | 8.16787 | 17° | 27km/h | 17900m | -14m/s | -50.5°C | 0% | 81.3hPa | 2.7V | 08:20:54 | 02:26:40 | 00:00:00 | |
| BIOWL1-15 | 2026-08-30 12:44:30 | 51.68111 | 8.16784 | 20° | 27km/h | 17914m | -14.3m/s | -50.5°C | 0% | 81.1hPa | 2.7V | 08:20:54 | 02:26:39 | 00:00:00 | |
| DO2SHX-10 | 2026-08-30 12:44:30 | 51.68111 | 8.16784 | 21° | 27km/h | 17914m | -14.3m/s | -50.5°C | 3.1% | 81.0hPa | 2.6V | 00:00:00 | 02:26:39 | 00:00:00 | |
| DL1XH1-15 | 2026-08-30 12:44:29 | 51.68070 | 8.16752 | 25° | 33km/h | 17999m | -14.2m/s | -50.9°C | 3.1% | 80hPa | 2.6V | 08:20:33 | 02:26:33 | 00:00:00 | |
| DO2JMG | 2026-08-30 12:44:24 | 51.68070 | 8.16752 | 25° | 33km/h | 17999m | -14.2m/s | -50.9°C | 0% | 80hPa | 2.6V | 08:20:54 | 02:26:33 | 00:00:00 | |
| DL1KLB | 2026-08-30 12:44:24 | 51.68070 | 8.16752 | 26° | 33km/h | 17999m | -14.2m/s | -50.9°C | 0.8% | 80.0hPa | 2.5V | 08:20:00 | 00:00:00 | 00:00:00 | |
| DL1NUX | 2026-08-30 12:44:23 | 51.68039 | 8.16730 | 24° | 33km/h | 18056m | -14.2m/s | -51.2°C | 3.2% | 79.3hPa | 2.5V | 08:20:37 | 02:26:29 | 00:00:00 | |
| DF8AY | 2026-08-30 12:44:23 | 51.68062 | 8.16746 | 25° | 35km/h | 18013m | -14.4m/s | -51°C | 0% | 79.8hPa | 2.6V | 08:20:54 | 02:26:32 | 00:00:00 | |
| DL1XH-west | 2026-08-30 12:44:20 | 51.68039 | 8.16730 | 24° | 33km/h | 18056m | -14.2m/s | -51.2°C | 0% | 79.3hPa | 2.5V | 08:20:54 | 02:26:29 | 00:00:00 | |
| BIOWL1-15 | 2026-08-30 12:44:19 | 51.68024 | 8.16718 | 27° | 33km/h | 18085m | -14.4m/s | -51.4°C | 0% | 79hPa | 2.7V | 08:20:54 | 02:26:27 | 00:00:00 | |
| AA1-15 | 2026-08-30 12:44:19 | 51.68031 | 8.16724 | 25° | 33km/h | 18071m | -14.4m/s | -51.2°C | 0% | 79.2hPa | 2.7V | 08:20:54 | 02:26:28 | 00:00:00 | |
| SO1NDE-10 | 2026-08-30 12:44:19 | 51.68031 | 8.16724 | 25° | 37km/h | 18071m | -14.3m/s | -51.2°C | 3.2% | 79.1hPa | 2.7V | 00:00:00 | 02:26:28 | 00:00:00 | |
| DJ8HS-15 | 2026-08-30 12:44:18 | 51.68024 | 8.16718 | 27° | 35km/h | 18085m | -14.3m/s | -51.3°C | 3.2% | 78.9hPa | 2.7V | 00:00:00 | 02:26:27 | 00:00:00 | |
| DO2SHX-10 | 2026-08-30 12:44:17 | 51.68017 | 8.16712 | 27° | 33km/h | 18099m | -14.2m/s | -51.3°C | 3.2% | 78.7hPa | 2.6V | 00:00:00 | 02:26:26 | 00:00:00 | |
| DJ2KF-10 | 2026-08-30 12:44:16 | 51.68009 | 8.16706 | 30° | 37km/h | 18114m | -14.5m/s | -51.4°C | 3.2% | 78.6hPa | 2.5V | 00:00:00 | 02:26:25 | 00:00:00 | |
| DD8BA-10 | 2026-08-30 12:44:15 | 51.68002 | 8.16699 | 31° | 35km/h | 18128m | -14.3m/s | -51.4°C | 3.2% | 78.4hPa | 2.5V | 00:00:00 | 00:00:00 | 00:00:00 | |
| DM0DOS-11 | 2026-08-30 12:44:14 | 51.67988 | 8.16685 | 34° | 33km/h | 18157m | -14.5m/s | -51.5°C | 3.2% | 78.1hPa | 2.7V | 08:20:44 | 02:26:22 | 00:00:00 | |
| DO2SHX-10 | 2026-08-30 12:44:14 | 51.67995 | 8.16692 | 33° | 33km/h | 18143m | -14.4m/s | -51.5°C | 3.2% | 78.2hPa | 2.5V | 00:00:00 | 02:26:23 | 00:00:00 | |
| DB0UT-7 | 2026-08-30 12:44:13 | 51.67988 | 8.16685 | 35° | 37km/h | 18157m | -14.5m/s | -51.5°C | 3.2% | 78.1hPa | 2.5V | 00:00:00 | 00:00:00 | 00:00:00 | |
| DO2JMG | 2026-08-30 12:44:13 | 51.67988 | 8.16685 | 34° | 33km/h | 18157m | -14.5m/s | -51.5°C | 0% | 78.1hPa | 2.7V | 08:20:54 | 02:26:22 | 00:00:00 | |
| DL1NUX | 2026-08-30 12:44:12 | 51.67968 | 8.16660 | 40° | 35km/h | 18200m | -14.8m/s | -51.7°C | 3.3% | 77.6hPa | 2.5V | 08:20:47 | 02:26:19 | 00:00:00 | |
| DL1XH-west | 2026-08-30 12:44:09 | 51.67961 | 8.16651 | 44° | 35km/h | 18215m | -14.6m/s | -51.8°C | 0% | 77.4hPa | 2.5V | 08:20:54 | 02:26:18 | 00:00:00 | |
| BIOWL1-15 | 2026-08-30 12:44:07 | 51.67949 | 8.16631 | 46° | 35km/h | 18244m | -14.7m/s | -51.8°C | 0% | 77.1hPa | 2.7V | 08:20:54 | 02:26:16 | 00:00:00 | |
| DO2JMG | 2026-08-30 12:44:03 | 51.67924 | 8.16588 | 48° | 37km/h | 18302m | -14.5m/s | -52.1°C | 0% | 76.4hPa | 2.7V | 08:20:54 | 02:26:12 | 00:00:00 | |
| DO2SHX-10 | 2026-08-30 12:44:03 | 51.67924 | 8.16588 | 48° | 37km/h | 18303m | -14.4m/s | -52.0°C | 3.4% | 76.3hPa | 2.5V | 00:00:00 | 02:26:12 | 00:00:00 | |
| DL1NUX | 2026-08-30 12:44:02 | 51.67906 | 8.16554 | 51° | 38km/h | 18346m | -14.6m/s | -52.3°C | 3.4% | 75.9hPa | 2.5V | 08:20:57 | 02:26:09 | 00:00:00 | |
| DF8AY | 2026-08-30 12:44:02 | 51.67918 | 8.16577 | 49° | 37km/h | 18317m | -14.6m/s | -52.1°C | 0% | 76.2hPa | 2.6V | 08:21:45 | 02:26:11 | 00:00:00 | |
| DL1XH-west | 2026-08-30 12:43:58 | 51.67894 | 8.16528 | 56° | 40km/h | 18375m | -14.6m/s | -52.4°C | 0% | 75.5hPa | 2.7V | 08:21:45 | 02:26:07 | 00:00:00 | |
| BIOWL1-15 | 2026-08-30 12:43:56 | 51.67883 | 8.16500 | 60° | 42km/h | 18405m | -14.8m/s | -52.6°C | 0% | 75.2hPa | 2.6V | 08:21:45 | 02:26:05 | 00:00:00 | |
| DL1XH1-15 | 2026-08-30 12:43:56 | 51.67872 | 8.16469 | 60° | 44km/h | 18434m | -14.7m/s | -52.8°C | 3.5% | 74.8hPa | 2.5V | 08:21:03 | 02:26:03 | 00:00:00 | |
| DO2JMG | 2026-08-30 12:43:52 | 51.67862 | 8.16439 | 62° | 42km/h | 18463m | -14.8m/s | -53°C | 0% | 74.5hPa | 2.7V | 08:21:45 | 02:26:01 | 00:00:00 | |
| HSKMA3-T | 2026-08-30 12:43:51 | 51.67857 | 8.16424 | 63° | 40km/h | 18478m | -14.7m/s | -53°C | 0% | 74.3hPa | 2.7V | 08:21:45 | 02:26:00 | 00:00:00 | |
| HTAHTA | 2026-08-30 12:43:51 | 51.67853 | 8.16410 | 64° | 38km/h | 18493m | -14.9m/s | -53.1°C | 0.9% | 74.1hPa | 2.5V | 00:00:00 | 00:00:00 | 00:00:00 | |
| SONDE2-11 | 2026-08-30 12:43:50 | 51.67848 | 8.16396 | 65° | 37km/h | 18507m | -14.8m/s | -53.1°C | 1.0% | 74.0hPa | 2.5V | 00:00:00 | 00:00:00 | 00:00:00 | |
| DL1XH-15 | 2026-08-30 12:43:49 | 51.67845 | 8.16382 | 66° | 37km/h | 18522m | -15m/s | -53°C | 3.6% | 73.8hPa | 2.5V | 08:21:09 | 02:25:57 | 00:00:00 | |
| DL1XH1-15 | 2026-08-30 12:43:49 | 51.67833 | 8.16332 | 73° | 29km/h | 18582m | -15m/s | -52.8°C | 3.5% | 73.1hPa | 2.6V | 08:21:13 | 02:25:53 | 00:00:00 | |
| DL1XH-west | 2026-08-30 12:43:48 | 51.67845 | 8.16382 | 67° | 37km/h | 18522m | -15m/s | -53°C | 0.1% | 73.8hPa | 2.5V | 08:21:45 | 02:25:57 | 00:00:00 | |
| AA1-15 | 2026-08-30 12:43:47 | 51.67841 | 8.16369 | 69° | 35km/h | 18537m | -14.8m/s | -53°C | 0.1% | 73.6hPa | 2.5V | 08:21:45 | 02:25:56 | 00:00:00 | |
| BIOWL1-15 | 2026-08-30 12:43:45 | 51.67836 | 8.16344 | 73° | 31km/h | 18567m | -15m/s | -52.9°C | 0.1% | 73.3hPa | 2.7V | 08:21:45 | 02:25:54 | 00:00:00 | |
| DD8BA-10 | 2026-08-30 12:43:45 | 51.67836 | 8.16344 | 73° | 26km/h | 18567m | -15.0m/s | -52.8°C | 3.6% | 73.2hPa | 2.7V | 08:21:00 | 00:00:00 | 00:00:00 | |
| DM0DOS-11 | 2026-08-30 12:43:44 | 51.67831 | 8.16321 | 71° | 27km/h | 18597m | -14.9m/s | -52.8°C | 3.5% | 73hPa | 2.5V | 08:21:14 | 02:25:52 | 00:00:00 | |
| DL3AQ-11 | 2026-08-30 12:43:44 | 51.67831 | 8.16321 | 71° | 27km/h | 18597m | -14.9m/s | -52.8°C | 0.9% | 73.0hPa | 2.7V | 00:00:00 | 00:00:00 | 00:00:00 | |
| DL1XH-15 | 2026-08-30 12:43:43 | 51.67818 | 8.16274 | 58° | 24km/h | 18671m | -15.2m/s | -53.1°C | 3.6% | 72.1hPa | 2.7V | 08:21:19 | 02:25:47 | 00:00:00 | |
| DL1NUX | 2026-08-30 12:43:43 | 51.67824 | 8.16291 | 66° | 24km/h | 18642m | -15m/s | -52.9°C | 3.5% | 72.4hPa | 2.7V | 08:21:17 | 02:25:49 | 00:00:00 | |
| DO2JMG | 2026-08-30 12:43:42 | 51.67829 | 8.16310 | 70° | 27km/h | 18612m | -15.1m/s | -52.8°C | 0.1% | 72.8hPa | 2.5V | 08:21:45 | 02:25:51 | 00:00:00 | |
| HSKMA3-T | 2026-08-30 12:43:41 | 51.67827 | 8.16300 | 67° | 26km/h | 18627m | -14.8m/s | -52.9°C | 0% | 72.6hPa | 2.5V | 08:21:45 | 02:25:50 | 00:00:00 | |
| DL1XH-west | 2026-08-30 12:43:37 | 51.67815 | 8.16266 | 53° | 24km/h | 18687m | -15.3m/s | -53.1°C | 0.1% | 72hPa | 2.5V | 08:21:45 | 02:25:46 | 00:00:00 | |
| AA1-15 | 2026-08-30 12:43:36 | 51.67811 | 8.16259 | 47° | 22km/h | 18702m | -15m/s | -53.1°C | 0.1% | 71.8hPa | 2.5V | 08:21:45 | 02:25:45 | 00:00:00 | |
| GOEST3-10 | 2026-08-30 12:43:36 | 51.67811 | 8.16259 | 48° | 20km/h | 18702m | -15.0m/s | -53.0°C | 3.6% | 71.7hPa | 2.7V | 00:00:00 | 02:25:45 | 00:00:00 | |
| DD8BA-10 | 2026-08-30 12:43:35 | 51.67807 | 8.16253 | 42° | 20km/h | 18717m | -15.0m/s | -53.0°C | 3.6% | 71.6hPa | 2.7V | 00:00:00 | 00:00:00 | 00:00:00 | |
| DM0DOS-11 | 2026-08-30 12:43:34 | 51.67799 | 8.16243 | 35° | 18km/h | 18747m | -15.1m/s | -53°C | 3.5% | 71.3hPa | 2.7V | 08:21:24 | 02:25:42 | 00:00:00 | |
| BIOWL1-15 | 2026-08-30 12:43:34 | 51.67803 | 8.16247 | 39° | 20km/h | 18732m | -15.1m/s | -53.1°C | 0.1% | 71.5hPa | 2.7V | 08:21:45 | 02:25:43 | 00:00:00 | |
| DO1YAY-16 | 2026-08-30 12:43:33 | 51.67796 | 8.16239 | 27° | 16km/h | 18762m | -15.1m/s | -53.0°C | 0.9% | 71.1hPa | 2.7V | 00:00:00 | 00:00:00 | 00:00:00 | |
| DO2SHX-10 | 2026-08-30 12:43:32 | 51.67795 | 8.16239 | 28° | 18km/h | 18762m | -15.1m/s | -53.0°C | 3.5% | 71.1hPa | 2.7V | 00:00:00 | 02:25:41 | 00:00:00 | |
| DL1XH-15 | 2026-08-30 12:43:31 | 51.67778 | 8.16228 | 19° | 20km/h | 18822m | -15.4m/s | -53.4°C | 3.5% | 70.4hPa | 2.7V | 08:21:29 | 02:25:37 | 00:00:00 | |
| DO2JMG | 2026-08-30 12:43:31 | 51.67791 | 8.16236 | 23° | 18km/h | 18777m | -14.9m/s | -53.1°C | 0.1% | 71hPa | 2.5V | 08:21:45 | 02:25:40 | 00:00:00 | |
| DF8AY | 2026-08-30 12:43:30 | 51.67787 | 8.16233 | 19° | 20km/h | 18792m | -14.8m/s | -53.2°C | 0.1% | 70.8hPa | 2.5V | 08:21:45 | 02:25:39 | 00:00:00 | |
| DL1CLM-18 | 2026-08-30 12:43:30 | 51.67787 | 8.16233 | 20° | 20km/h | 18792m | -14.8m/s | -53.2°C | 0.9% | 70.8hPa | 2.5V | 00:00:00 | 00:00:00 | 00:00:00 | |
| DO2SHX-10 | 2026-08-30 12:43:29 | 51.67782 | 8.16230 | 21° | 20km/h | 18807m | -15.4m/s | -53.2°C | 3.6% | 70.6hPa | 2.5V | 08:21:00 | 02:25:38 | 00:00:00 | |
| DO3DL | 2026-08-30 12:43:27 | 51.67778 | 8.16228 | 20° | 20km/h | 18822m | -15.4m/s | -53.4°C | 0.9% | 70.4hPa | 2.7V | 08:21:00 | 00:00:00 | 00:00:00 | |
| DL1XH1-15 | 2026-08-30 12:43:26 | 51.67756 | 8.16213 | 26° | 29km/h | 18883m | -15.1m/s | -53.8°C | 3.7% | 69.8hPa | 2.7V | 08:21:33 | 02:25:33 | 00:00:00 | |
| DL1XH-west | 2026-08-30 12:43:26 | 51.67768 | 8.16222 | 21° | 24km/h | 18853m | -15m/s | -53.5°C | 0.1% | 70.1hPa | 2.5V | 08:21:45 | 02:25:35 | 00:00:00 | |
| AA1-15 | 2026-08-30 12:43:25 | 51.67762 | 8.16218 | 26° | 26km/h | 18868m | -15.4m/s | -53.7°C | 0.1% | 70hPa | 2.5V | 08:21:45 | 02:25:34 | 00:00:00 | |
| BIOWL1-15 | 2026-08-30 12:43:23 | 51.67716 | 8.16164 | 45° | 35km/h | 18975m | -15.3m/s | -53.8°C | 0.2% | 68.8hPa | 2.5V | 08:21:45 | 02:25:27 | 00:00:00 | |
| DO2JMG | 2026-08-30 12:43:21 | 51.67735 | 8.16193 | 38° | 35km/h | 18929m | -15.3m/s | -53.7°C | 0.1% | 69.3hPa | 2.5V | 08:21:45 | 02:25:30 | 00:00:00 | |
| DL1XH-15 | 2026-08-30 12:43:19 | 51.67716 | 8.16164 | 44° | 35km/h | 18975m | -15.3m/s | -53.8°C | 3.7% | 68.8hPa | 2.5V | 08:21:39 | 02:25:27 | 00:00:00 | |
| HSKMA3-T | 2026-08-30 12:43:19 | 51.67722 | 8.16174 | 44° | 35km/h | 18960m | -15.3m/s | -53.8°C | 0.2% | 69hPa | 2.6V | 08:21:45 | 02:25:28 | 00:00:00 | |
| DL1XH-west | 2026-08-30 12:43:15 | 51.67699 | 8.16135 | 46° | 31km/h | 19021m | -15.4m/s | -54°C | 0.2% | 68.3hPa | 2.7V | 08:21:45 | 02:25:24 | 00:00:00 | |
| AA1-15 | 2026-08-30 12:43:14 | 51.67694 | 8.16126 | 44° | 29km/h | 19036m | -14.9m/s | -54°C | 0.2% | 68.1hPa | 2.5V | 08:21:45 | 02:25:23 | 00:00:00 | |
| DL1XH-15 | 2026-08-30 12:43:13 | 51.67667 | 8.16083 | 51° | 24km/h | 19128m | -15.5m/s | -53.8°C | 3.7% | 67.2hPa | 2.5V | 08:21:49 | 02:25:17 | 00:00:00 | |
| BIOWL1-15 | 2026-08-30 12:43:12 | 51.67675 | 8.16098 | 46° | 24km/h | 19097m | -15.1m/s | -53.7°C | 0.2% | 67.5hPa | 2.7V | 08:22:36 | 02:25:19 | 00:00:00 | |
| DO2JMG | 2026-08-30 12:43:11 | 51.67679 | 8.16104 | 45° | 24km/h | 19082m | -15.4m/s | -53.7°C | 0.2% | 67.7hPa | 2.7V | 08:22:36 | 02:25:20 | 00:00:00 | |
| HSKMA3-T | 2026-08-30 12:43:09 | 51.67671 | 8.16091 | 49° | 22km/h | 19112m | -15.4m/s | -53.7°C | 0.2% | 67.4hPa | 2.6V | 08:22:36 | 02:25:18 | 00:00:00 | |
| DL1XH-west | 2026-08-30 12:43:06 | 51.67658 | 8.16057 | 69° | 26km/h | 19175m | -15.8m/s | -53.9°C | 0.2% | 66.7hPa | 2.7V | 08:22:36 | 02:25:14 | 00:00:00 | |
| AA1-15 | 2026-08-30 12:43:04 | 51.67656 | 8.16047 | 71° | 26km/h | 19191m | -15.8m/s | -53.9°C | 0.2% | 66.5hPa | 2.7V | 08:22:36 | 02:25:13 | 00:00:00 | |
| DL1NUX | 2026-08-30 12:43:03 | 51.67649 | 8.16008 | 75° | 22km/h | 19253m | -15.8m/s | -54.2°C | 3.8% | 65.9hPa | 2.5V | 08:21:57 | 02:25:09 | 00:00:00 | |
| EDDB2-11 | 2026-08-30 12:43:03 | 51.67652 | 8.16027 | 75° | 26km/h | 19222m | -15.6m/s | -54.0°C | 0.9% | 66.2hPa | 2.7V | 00:00:00 | 00:00:00 | 00:00:00 | |
| DO1YAY-16 | 2026-08-30 12:43:02 | 51.67651 | 8.16017 | 75° | 24km/h | 19238m | -15.6m/s | -54.1°C | 1.0% | 66.0hPa | 2.7V | 00:00:00 | 00:00:00 | 00:00:00 | |
| DL1XH-15 | 2026-08-30 12:43:01 | 51.67646 | 8.15992 | 71° | 18km/h | 19284m | -15.7m/s | -54.2°C | 3.8% | 65.6hPa | 2.7V | 08:21:59 | 02:25:07 | 00:00:00 | |
| DO2JMG | 2026-08-30 12:43:00 | 51.67649 | 8.16008 | 76° | 22km/h | 19253m | -15.8m/s | -54.2°C | 0.2% | 65.9hPa | 2.5V | 08:22:36 | 02:25:09 | 00:00:00 | |
| BIOWL1-15 | 2026-08-30 12:42:59 | 51.67645 | 8.15986 | 69° | 15km/h | 19300m | -15.3m/s | -54.3°C | 0.3% | 65.4hPa | 2.6V | 08:22:36 | 02:25:06 | 00:00:00 | |
| HSKMA3-T | 2026-08-30 12:42:58 | 51.67646 | 8.15992 | 71° | 18km/h | 19284m | -15.7m/s | -54.2°C | 0.2% | 65.6hPa | 2.7V | 08:22:36 | 02:25:07 | 00:00:00 | |
| DL1XH-west | 2026-08-30 12:42:54 | 51.67641 | 8.15973 | 61° | 9km/h | 19346m | -15.6m/s | -54.3°C | 0.3% | 64.9hPa | 2.5V | 08:22:36 | 02:25:03 | 00:00:00 | |
| AA1-15 | 2026-08-30 12:42:53 | 51.67640 | 8.15970 | 55° | 9km/h | 19362m | -15.8m/s | -54.3°C | 0.3% | 64.8hPa | 2.7V | 08:22:36 | 02:25:02 | 00:00:00 | |
| DL1NUX | 2026-08-30 12:42:53 | 51.67633 | 8.15963 | 19° | 15km/h | 19409m | -15.7m/s | -54°C | 3.9% | 64.3hPa | 2.5V | 08:22:07 | 02:24:59 | 00:00:00 | |
| DO2JMG | 2026-08-30 12:42:49 | 51.67630 | 8.15961 | 15° | 16km/h | 19425m | -15.7m/s | -53.9°C | 0.2% | 64.1hPa | 2.5V | 08:22:36 | 02:24:58 | 00:00:00 | |
| BIOWL1-15 | 2026-08-30 12:42:48 | 51.67625 | 8.15959 | 14° | 20km/h | 19441m | -15.6m/s | -54°C | 0.3% | 64hPa | 2.5V | 08:22:36 | 02:24:57 | 00:00:00 | |
| HSKMA3-T | 2026-08-30 12:42:47 | 51.67620 | 8.15957 | 14° | 22km/h | 19456m | -15.8m/s | -54.1°C | 0.2% | 63.8hPa | 2.7V | 08:22:36 | 02:24:56 | 00:00:00 | |
| DL1XH1-15 | 2026-08-30 12:42:46 | 51.67601 | 8.15950 | 16° | 27km/h | 19504m | -16.1m/s | -54.3°C | 3.9% | 63.3hPa | 2.5V | 08:22:13 | 02:24:53 | 00:00:00 | |
| DO2SHX-10 | 2026-08-30 12:42:46 | 51.67614 | 8.15955 | 14° | 27km/h | 19472m | -15.8m/s | -54.1°C | 3.9% | 63.6hPa | 2.7V | 00:00:00 | 02:24:55 | 00:00:00 | |
| DD8BA-10 | 2026-08-30 12:42:45 | 51.67608 | 8.15953 | 15° | 29km/h | 19489m | -16.2m/s | -54.2°C | 3.9% | 63.4hPa | 2.6V | 00:00:00 | 00:00:00 | 00:00:00 | |
| DJ2DS-15 | 2026-08-30 12:42:44 | 51.67601 | 8.15949 | 17° | 31km/h | 19505m | -16.1m/s | -54.2°C | 3.9% | 63.3hPa | 2.7V | 00:00:00 | 02:24:53 | 00:00:00 | |
| DL1NUX | 2026-08-30 12:42:43 | 51.67574 | 8.15932 | 25° | 31km/h | 19568m | -16m/s | -54.2°C | 4% | 62.7hPa | 2.7V | 08:22:17 | 02:24:49 | 00:00:00 | |
| DL1XH-west | 2026-08-30 12:42:43 | 51.67595 | 8.15946 | 19° | 29km/h | 19521m | -15.7m/s | -54.3°C | 0.4% | 63.2hPa | 2.5V | 08:22:36 | 02:24:52 | 00:00:00 | |
| DB0UT-7 | 2026-08-30 12:42:43 | 51.67595 | 8.15946 | 19° | 29km/h | 19521m | -15.7m/s | -54.3°C | 4.0% | 63.2hPa | 2.7V | 00:00:00 | 02:24:52 | 00:00:00 | |
| DF5WG-10 | 2026-08-30 12:42:42 | 51.67588 | 8.15942 | 21° | 29km/h | 19536m | -15.8m/s | -54.4°C | 4.0% | 63.0hPa | 2.7V | 00:00:00 | 02:24:51 | 00:00:00 | |
| GOEST3-10 | 2026-08-30 12:42:41 | 51.67581 | 8.15938 | 24° | 31km/h | 19552m | -16.0m/s | -54.4°C | 4.1% | 62.8hPa | 2.7V | 08:22:00 | 00:00:00 | 00:00:00 | |
| DL1KLB | 2026-08-30 12:42:40 | 51.67581 | 8.15938 | 24° | 31km/h | 19552m | -16.0m/s | -54.4°C | 1.1% | 62.9hPa | 2.7V | 08:22:00 | 00:00:00 | 00:00:00 | |
| DL1XH1-15 | 2026-08-30 12:42:39 | 51.67535 | 8.15893 | 35° | 29km/h | 19665m | -16.4m/s | -53.7°C | 3.7% | 61.8hPa | 2.7V | 08:22:23 | 02:24:43 | 00:00:00 | |
| DO2JMG | 2026-08-30 12:42:38 | 51.67560 | 8.15920 | 32° | 31km/h | 19600m | -16.3m/s | -53.7°C | 0.2% | 62.4hPa | 2.5V | 08:22:36 | 02:24:47 | 00:00:00 | |
| HSKMA3-T | 2026-08-30 12:42:37 | 51.67553 | 8.15914 | 34° | 29km/h | 19616m | -16.2m/s | -53.6°C | 0.2% | 62.2hPa | 2.5V | 08:22:36 | 02:24:46 | 00:00:00 | |
| GOEST3-10 | 2026-08-30 12:42:36 | 51.67547 | 8.15907 | 35° | 29km/h | 19633m | -16.4m/s | -53.5°C | 3.7% | 62.0hPa | 2.5V | 00:00:00 | 02:24:45 | 00:00:00 | |
| DL3AQ-11 | 2026-08-30 12:42:35 | 51.67535 | 8.15894 | 35° | 27km/h | 19665m | -16.4m/s | -53.7°C | 1.0% | 61.8hPa | 2.5V | 00:00:00 | 00:00:00 | 00:00:00 | |
| DL1NUX | 2026-08-30 12:42:34 | 51.67510 | 8.15868 | 32° | 29km/h | 19730m | -16.3m/s | -53.5°C | 3.7% | 61.2hPa | 2.5V | 08:22:27 | 02:24:39 | 00:00:00 | |
| AA1-15 | 2026-08-30 12:42:33 | 51.67529 | 8.15887 | 33° | 29km/h | 19682m | -16.1m/s | -53.8°C | 0.2% | 61.6hPa | 2.7V | 08:22:36 | 02:24:42 | 00:00:00 | |
| DL1XH-west | 2026-08-30 12:42:32 | 51.67522 | 8.15880 | 33° | 29km/h | 19698m | -16.1m/s | -53.8°C | 0.3% | 61.5hPa | 2.5V | 08:22:36 | 02:24:41 | 00:00:00 | |
| DO2SHX-10 | 2026-08-30 12:42:32 | 51.67522 | 8.15880 | 34° | 29km/h | 19698m | -16.1m/s | -53.7°C | 3.8% | 61.4hPa | 2.5V | 00:00:00 | 02:24:41 | 00:00:00 | |
| DO1YAY-16 | 2026-08-30 12:42:31 | 51.67510 | 8.15868 | 32° | 29km/h | 19730m | -16.3m/s | -53.5°C | 1.0% | 61.2hPa | 2.5V | 00:00:00 | 00:00:00 | 00:00:00 | |
| DF5WG-10 | 2026-08-30 12:42:30 | 51.67510 | 8.15868 | 33° | 29km/h | 19730m | -16.3m/s | -53.5°C | 3.7% | 61.1hPa | 2.5V | 00:00:00 | 02:24:39 | 00:00:00 | |
| DO2SHX-10 | 2026-08-30 12:42:29 | 51.67503 | 8.15861 | 35° | 31km/h | 19746m | -16.2m/s | -53.3°C | 3.6% | 60.9hPa | 2.5V | 00:00:00 | 02:24:38 | 00:00:00 | |
| DL1XH1-15 | 2026-08-30 12:42:27 | 51.67470 | 8.15824 | 38° | 31km/h | 19827m | -16.2m/s | -53.4°C | 3.6% | 60.2hPa | 2.5V | 08:22:33 | 02:24:33 | 00:00:00 | |
| DO2JMG | 2026-08-30 12:42:27 | 51.67490 | 8.15847 | 34° | 33km/h | 19778m | -16m/s | -53.3°C | 0.2% | 60.7hPa | 2.7V | 08:22:36 | 02:24:36 | 00:00:00 | |
| DO2SHX-10 | 2026-08-30 12:42:27 | 51.67483 | 8.15839 | 35° | 31km/h | 19795m | -16.3m/s | -53.3°C | 3.6% | 60.5hPa | 2.5V | 08:22:00 | 02:24:35 | 00:00:00 | |
| WEDDY | 2026-08-30 12:42:25 | 51.67477 | 8.15831 | 36° | 33km/h | 19811m | -16.3m/s | -53.4°C | 0.9% | 60.4hPa | 2.5V | 00:00:00 | 00:00:00 | 00:00:00 | |
| DL3AQ-11 | 2026-08-30 12:42:24 | 51.67464 | 8.15816 | 40° | 29km/h | 19844m | -16.5m/s | -53.5°C | 0.9% | 60.1hPa | 2.5V | 00:00:00 | 00:00:00 | 00:00:00 | |
| DM0DOS-11 | 2026-08-30 12:42:23 | 51.67449 | 8.15792 | 47° | 26km/h | 19893m | -16.4m/s | -53.8°C | 3.7% | 59.6hPa | 2.5V | 08:22:37 | 02:24:29 | 00:00:00 | |
| DL1XH-west | 2026-08-30 12:42:22 | 51.67459 | 8.15808 | 41° | 27km/h | 19860m | -16.3m/s | -53.6°C | 0.2% | 59.9hPa | 2.7V | 08:22:36 | 02:24:31 | 00:00:00 | |
| DO2JMG | 2026-08-30 12:42:17 | 51.67436 | 8.15769 | 53° | 24km/h | 19942m | -16.7m/s | -53.7°C | 0.2% | 59.2hPa | 2.7V | 08:23:27 | 02:24:26 | 00:00:00 | |
| HSKMA3-T | 2026-08-30 12:42:16 | 51.67433 | 8.15761 | 57° | 24km/h | 19959m | -16.6m/s | -53.6°C | 0.2% | 59hPa | 2.7V | 08:23:27 | 02:24:25 | 00:00:00 | |
| DL1XH1-15 | 2026-08-30 12:42:16 | 51.67426 | 8.15744 | 57° | 24km/h | 19992m | -16.6m/s | -53.6°C | 3.7% | 58.7hPa | 2.5V | 08:22:43 | 02:24:23 | 00:00:00 | |
| DJ2KF-10 | 2026-08-30 12:42:16 | 51.67433 | 8.15760 | 57° | 18km/h | 19959m | -16.5m/s | -53.6°C | 3.7% | 59.0hPa | 2.7V | 00:00:00 | 02:24:25 | 00:00:00 | |
| DL1NUX | 2026-08-30 12:42:15 | 51.67416 | 8.15711 | 69° | 22km/h | 20058m | -16.4m/s | -53.7°C | 3.6% | 58.1hPa | 2.7V | 08:22:47 | 02:24:19 | 00:00:00 | |
| DL1XH-west | 2026-08-30 12:42:12 | 51.67420 | 8.15728 | 65° | 22km/h | 20025m | -16.8m/s | -53.5°C | 0.1% | 58.4hPa | 2.5V | 08:23:27 | 02:24:21 | 00:00:00 | |
| AA1-15 | 2026-08-30 12:42:11 | 51.67418 | 8.15719 | 67° | 24km/h | 20042m | -16.5m/s | -53.6°C | 0.2% | 58.3hPa | 2.7V | 08:23:27 | 02:24:20 | 00:00:00 | |
| DO2SHX-10 | 2026-08-30 12:42:11 | 51.67418 | 8.15719 | 68° | 22km/h | 20042m | -16.5m/s | -53.5°C | 3.6% | 58.2hPa | 2.7V | 00:00:00 | 02:24:20 | 00:00:00 | |
| DO3DL | 2026-08-30 12:42:10 | 51.67416 | 8.15711 | 70° | 22km/h | 20059m | -16.4m/s | -53.7°C | 0.9% | 58.1hPa | 2.7V | 08:23:00 | 00:00:00 | 00:00:00 | |
| DO9LL-15 | 2026-08-30 12:42:09 | 51.67414 | 8.15702 | 71° | 16km/h | 20075m | -16.6m/s | -53.7°C | 3.7% | 57.9hPa | 2.7V | 00:00:00 | 02:24:18 | 00:00:00 | |
| DL3AQ-11 | 2026-08-30 12:42:08 | 51.67411 | 8.15685 | 76° | 20km/h | 20108m | -16.3m/s | -54.0°C | 0.9% | 57.7hPa | 2.7V | 00:00:00 | 00:00:00 | 00:00:00 | |
| EDDB2-12 | 2026-08-30 12:42:07 | 51.67410 | 8.15677 | 80° | 20km/h | 20124m | -16.3m/s | -54.1°C | 1.0% | 57.5hPa | 2.7V | 00:00:00 | 00:00:00 | 00:00:00 | |
| DL1XH1-15 | 2026-08-30 12:42:06 | 51.67409 | 8.15662 | 79° | 16km/h | 20157m | -16.5m/s | -54.3°C | 3.9% | 57.2hPa | 2.7V | 08:22:53 | 02:24:13 | 00:00:00 | |
| DO2JMG | 2026-08-30 12:42:06 | 51.67410 | 8.15677 | 80° | 20km/h | 20124m | -16.3m/s | -54.1°C | 0.3% | 57.5hPa | 2.6V | 08:23:27 | 02:24:15 | 00:00:00 | |
| DL1XH-west | 2026-08-30 12:42:02 | 51.67408 | 8.15651 | 78° | 13km/h | 20190m | -16.5m/s | -54.5°C | 0.4% | 56.9hPa | 2.5V | 08:23:27 | 02:24:11 | 00:00:00 | |
| AA1-15 | 2026-08-30 12:42:00 | 51.67406 | 8.15643 | 62° | 9km/h | 20223m | -16.5m/s | -54.4°C | 0.4% | 56.6hPa | 2.5V | 08:23:27 | 02:24:09 | 00:00:00 | |
| DO1YAY-16 | 2026-08-30 12:42:00 | 51.67405 | 8.15639 | 52° | 7km/h | 20240m | -16.8m/s | -54.3°C | 1.0% | 56.5hPa | 2.5V | 00:00:00 | 00:00:00 | 00:00:00 | |
| SMARD9-15 | 2026-08-30 12:41:59 | 51.67405 | 8.15639 | 52° | 7km/h | 20240m | -16.8m/s | -54.3°C | 1.0% | 56.5hPa | 2.5V | 00:00:00 | 00:00:00 | 00:00:00 | |
| WPPR-10 | 2026-08-30 12:41:57 | 51.67401 | 8.15635 | 26° | 9km/h | 20273m | -16.8m/s | -54.4°C | 1.0% | 56.2hPa | 2.5V | 00:00:00 | 00:00:00 | 00:00:00 | |
| DL1XH1-15 | 2026-08-30 12:41:56 | 51.67392 | 8.15629 | 20° | 15km/h | 20323m | -17m/s | -54.7°C | 4.2% | 55.7hPa | 2.5V | 08:23:03 | 02:24:03 | 00:00:00 | |
| HSKMA3-T | 2026-08-30 12:41:56 | 51.67398 | 8.15633 | 20° | 13km/h | 20290m | -16.9m/s | -54.5°C | 0.4% | 56hPa | 2.5V | 08:23:27 | 02:24:05 | 00:00:00 | |
| DO2JMG | 2026-08-30 12:41:55 | 51.67395 | 8.15631 | 19° | 15km/h | 20307m | -16.7m/s | -54.6°C | 0.5% | 55.9hPa | 2.5V | 08:23:27 | 02:24:04 | 00:00:00 | |
| DL1XH-west | 2026-08-30 12:41:52 | 51.67384 | 8.15624 | 25° | 18km/h | 20357m | -16.6m/s | -54.8°C | 0.5% | 55.5hPa | 2.7V | 08:23:27 | 02:24:01 | 00:00:00 | |
| AA1-15 | 2026-08-30 12:41:50 | 51.67375 | 8.15617 | 32° | 22km/h | 20391m | -17m/s | -54.3°C | 0.4% | 55.2hPa | 2.5V | 08:23:27 | 02:23:59 | 00:00:00 | |
| DL1XH-15 | 2026-08-30 12:41:49 | 51.67366 | 8.15606 | 38° | 24km/h | 20425m | -17.3m/s | -53.9°C | 3.9% | 54.9hPa | 2.6V | 08:23:09 | 02:23:57 | 00:00:00 | |
| HSKMA3-T | 2026-08-30 12:41:46 | 51.67357 | 8.15593 | 44° | 24km/h | 20460m | -17.3m/s | -53.5°C | 0.3% | 54.6hPa | 2.7V | 08:23:27 | 02:23:55 | 00:00:00 | |
| BIOWL1-15 | 2026-08-30 12:41:45 | 51.67353 | 8.15587 | 47° | 22km/h | 20476m | -16.6m/s | -53.4°C | 0.2% | 54.4hPa | 2.7V | 08:23:27 | 02:23:54 | 00:00:00 | |
| DO2JMG | 2026-08-30 12:41:44 | 51.67349 | 8.15580 | 47° | 22km/h | 20493m | -17.4m/s | -53.3°C | 0.3% | 54.3hPa | 2.5V | 08:23:27 | 02:23:53 | 00:00:00 | |
| DL1XH-west | 2026-08-30 12:41:42 | 51.67342 | 8.15569 | 39° | 18km/h | 20528m | -17.3m/s | -53.2°C | 0.2% | 54hPa | 2.6V | 08:23:27 | 02:23:51 | 00:00:00 | |
| DL1NUX | 2026-08-30 12:41:41 | 51.67335 | 8.15562 | 21° | 15km/h | 20562m | -17.3m/s | -53.2°C | 3.7% | 53.7hPa | 2.7V | 08:23:17 | 02:23:49 | 00:00:00 | |
| AA1-15 | 2026-08-30 12:41:39 | 51.67331 | 8.15561 | 13° | 15km/h | 20579m | -17.1m/s | -53.2°C | 0.2% | 53.6hPa | 2.7V | 08:23:27 | 02:23:48 | 00:00:00 | |
| HSKMA3-T | 2026-08-30 12:41:36 | 51.67320 | 8.15560 | 357° | 16km/h | 20630m | -17.5m/s | -53°C | 0.1% | 53.1hPa | 2.6V | 08:23:27 | 02:23:45 | 00:00:00 | |
| DO2JMG | 2026-08-30 12:41:34 | 51.67312 | 8.15561 | 356° | 15km/h | 20665m | -17.7m/s | -53°C | 0.2% | 52.8hPa | 2.7V | 08:23:27 | 02:23:43 | 00:00:00 | |
| DF8AY | 2026-08-30 12:41:33 | 51.67309 | 8.15561 | 356° | 15km/h | 20683m | -17.5m/s | 0°C | 0% | 0hPa | 2.7V | 08:23:27 | 02:23:42 | 00:00:00 | |
| DF5WG-10 | 2026-08-30 12:41:33 | 51.67309 | 8.15561 | 356° | 15km/h | 20683m | -17.4m/s | -53.0°C | 3.7% | 52.7hPa | 2.7V | 00:00:00 | 02:23:42 | 00:00:00 | |
| S3001 | 2026-08-30 12:41:32 | 51.67305 | 8.15562 | 357° | 15km/h | 20700m | -17.1m/s | -53.2°C | 0.9% | 52.5hPa | 2.7V | 00:00:00 | 00:00:00 | 00:00:00 | |
| DL1XH-15 | 2026-08-30 12:41:31 | 51.67291 | 8.15562 | 6° | 13km/h | 20770m | -17.6m/s | -53.4°C | 3.8% | 52hPa | 2.7V | 08:23:29 | 02:23:37 | 00:00:00 | |
| DL1NUX | 2026-08-30 12:41:31 | 51.67298 | 8.15562 | 1° | 15km/h | 20735m | -17.8m/s | -53.3°C | 3.8% | 52.2hPa | 2.6V | 08:23:27 | 02:23:39 | 00:00:00 | |
| DL1XH-west | 2026-08-30 12:41:31 | 51.67301 | 8.15562 | 357° | 13km/h | 20718m | -17.2m/s | -53.2°C | 0.2% | 52.4hPa | 2.6V | 08:23:27 | 02:23:40 | 00:00:00 | |
| AA1-15 | 2026-08-30 12:41:29 | 51.67291 | 8.15562 | 7° | 13km/h | 20770m | -17.6m/s | -53.4°C | 0.3% | 52hPa | 2.7V | 08:24:18 | 02:23:37 | 00:00:00 | |
| DF7PN | 2026-08-30 12:41:29 | 51.67291 | 8.15562 | 6° | 13km/h | 20770m | -17.6m/s | -53.4°C | 0.9% | 52.0hPa | 2.6V | 00:00:00 | 00:00:00 | 00:00:00 | |
| DO2SHX-10 | 2026-08-30 12:41:28 | 51.67291 | 8.15562 | 7° | 13km/h | 20770m | -17.5m/s | -53.3°C | 3.8% | 52.0hPa | 2.6V | 00:00:00 | 02:23:37 | 00:00:00 | |
| SMARD9-10 | 2026-08-30 12:41:27 | 51.67291 | 8.15562 | 8° | 13km/h | 20770m | -17.6m/s | -53.4°C | 0.9% | 52.0hPa | 2.6V | 00:00:00 | 00:00:00 | 00:00:00 | |
| DL1XH1-15 | 2026-08-30 12:41:26 | 51.67276 | 8.15556 | 22° | 18km/h | 20841m | -18.1m/s | -53.2°C | 3.8% | 51.4hPa | 2.6V | 08:23:33 | 02:23:33 | 00:00:00 | |
| HSKMA3-T | 2026-08-30 12:41:25 | 51.67280 | 8.15558 | 17° | 18km/h | 20823m | -17.8m/s | -53.3°C | 0.3% | 51.5hPa | 2.5V | 08:24:18 | 02:23:34 | 00:00:00 | |
| DO2JMG | 2026-08-30 12:41:23 | 51.67272 | 8.15553 | 24° | 18km/h | 20859m | -18m/s | -53.2°C | 0.3% | 51.3hPa | 2.7V | 08:24:18 | 02:23:32 | 00:00:00 | |
| BIOWL1-15 | 2026-08-30 12:41:22 | 51.67267 | 8.15549 | 29° | 18km/h | 20877m | -18.1m/s | -53.3°C | 0.3% | 51.2hPa | 2.7V | 08:24:18 | 02:23:31 | 00:00:00 | |
| DL1XH-west | 2026-08-30 12:41:21 | 51.67263 | 8.15546 | 34° | 18km/h | 20895m | -17.6m/s | -53.4°C | 0.3% | 51hPa | 2.7V | 08:24:18 | 02:23:30 | 00:00:00 | |
| AA1-15 | 2026-08-30 12:41:18 | 51.67254 | 8.15530 | 57° | 18km/h | 20948m | -17.6m/s | -53.3°C | 0.3% | 50.6hPa | 2.6V | 08:24:18 | 02:23:27 | 00:00:00 | |
| HSKMA3-T | 2026-08-30 12:41:15 | 51.67249 | 8.15509 | 76° | 18km/h | 21002m | -18.3m/s | -53°C | 0.2% | 50.1hPa | 2.7V | 08:24:18 | 02:23:24 | 00:00:00 | |
| DO2JMG | 2026-08-30 12:41:13 | 51.67247 | 8.15495 | 83° | 18km/h | 21039m | -17.9m/s | -52.9°C | 0.2% | 49.9hPa | 2.6V | 08:24:18 | 02:23:22 | 00:00:00 | |
| DO2SHX-10 | 2026-08-30 12:41:13 | 51.67247 | 8.15495 | 83° | 16km/h | 21039m | -17.9m/s | -52.8°C | 3.6% | 49.8hPa | 2.7V | 00:00:00 | 02:23:22 | 00:00:00 | |
| DM0DOS-11 | 2026-08-30 12:41:12 | 51.67246 | 8.15476 | 95° | 13km/h | 21092m | -18.1m/s | -52.5°C | 3.5% | 49.5hPa | 2.7V | 08:23:47 | 02:23:19 | 00:00:00 | |
| BIOWL1-15 | 2026-08-30 12:41:11 | 51.67249 | 8.15453 | 122° | 2km/h | 21220m | -18m/s | -52.5°C | 0.1% | 48.5hPa | 2.7V | 08:24:18 | 02:23:12 | 00:00:00 | |
| DL1XH-west | 2026-08-30 12:41:10 | 51.67246 | 8.15476 | 96° | 13km/h | 21092m | -18.1m/s | -52.6°C | 0.1% | 49.5hPa | 2.7V | 08:24:18 | 02:23:19 | 00:00:00 | |
| AA1-15 | 2026-08-30 12:41:07 | 51.67247 | 8.15462 | 93° | 9km/h | 21147m | -18.2m/s | -52.4°C | 0% | 49hPa | 2.6V | 08:24:18 | 02:23:16 | 00:00:00 | |
| DO2SHX-10 | 2026-08-30 12:41:07 | 51.67247 | 8.15462 | 93° | 7km/h | 21147m | -18.1m/s | -52.4°C | 3.4% | 49.0hPa | 2.6V | 08:23:00 | 02:23:16 | 00:00:00 | |
| DL1XH1-15 | 2026-08-30 12:41:06 | 51.67249 | 8.15454 | 119° | 4km/h | 21202m | -18.5m/s | -52.5°C | 3.5% | 48.6hPa | 2.7V | 08:23:53 | 02:23:13 | 00:00:00 | |
| HSKMA3-T | 2026-08-30 12:41:05 | 51.67249 | 8.15454 | 120° | 4km/h | 21202m | -18.5m/s | -52.5°C | 0.1% | 48.6hPa | 2.7V | 08:24:18 | 02:23:13 | 00:00:00 | |
| DO2JMG | 2026-08-30 12:41:02 | 51.67250 | 8.15453 | 184° | 4km/h | 21238m | -18.4m/s | -52.5°C | 0.1% | 48.4hPa | 2.5V | 08:24:18 | 02:23:11 | 00:00:00 | |
| BIOWL1-15 | 2026-08-30 12:41:00 | 51.67251 | 8.15459 | 276° | 7km/h | 21312m | -18.3m/s | -52.7°C | 0.1% | 47.8hPa | 2.7V | 08:24:18 | 02:23:07 | 00:00:00 | |
| DL1XH-west | 2026-08-30 12:41:00 | 51.67251 | 8.15454 | 240° | 5km/h | 21275m | -18.4m/s | -52.6°C | 0.2% | 48.1hPa | 2.6V | 08:24:18 | 02:23:09 | 00:00:00 | |
| AA1-15 | 2026-08-30 12:40:56 | 51.67249 | 8.15470 | 298° | 13km/h | 21368m | -18.5m/s | -52.8°C | 0.2% | 47.4hPa | 2.6V | 08:24:18 | 02:23:04 | 00:00:00 | |
| HSKMA3-T | 2026-08-30 12:40:53 | 51.67244 | 8.15479 | 320° | 18km/h | 21405m | -18.6m/s | -53°C | 0.2% | 47.1hPa | 2.7V | 08:24:18 | 02:23:02 | 00:00:00 | |
| DO2JMG | 2026-08-30 12:40:52 | 51.67240 | 8.15484 | 323° | 18km/h | 21423m | -18.7m/s | -53.1°C | 0.2% | 47hPa | 2.7V | 08:24:18 | 02:23:01 | 00:00:00 | |
| DO2SHX-10 | 2026-08-30 12:40:52 | 51.67240 | 8.15484 | 324° | 18km/h | 21424m | -18.6m/s | -53.0°C | 3.6% | 47.0hPa | 2.6V | 00:00:00 | 02:23:01 | 00:00:00 | |
| DL1XH-15 | 2026-08-30 12:40:51 | 51.67223 | 8.15500 | 334° | 20km/h | 21497m | -18.7m/s | -53.3°C | 3.7% | 46.4hPa | 2.6V | 08:24:09 | 02:22:57 | 00:00:00 | |
| DL1XH-west | 2026-08-30 12:40:49 | 51.67227 | 8.15496 | 332° | 22km/h | 21479m | -18.5m/s | -53.3°C | 0.2% | 46.6hPa | 2.6V | 08:24:18 | 02:22:58 | 00:00:00 | |
| BIOWL1-15 | 2026-08-30 12:40:48 | 51.67202 | 8.15517 | 332° | 18km/h | 21591m | -18.2m/s | -53.3°C | 0.3% | 45.8hPa | 2.6V | 08:24:18 | 02:22:52 | 00:00:00 | |
| DL3AQ-11 | 2026-08-30 12:40:47 | 51.67218 | 8.15504 | 330° | 18km/h | 21516m | -18.4m/s | -53.2°C | 0.9% | 46.3hPa | 2.6V | 00:00:00 | 00:00:00 | 00:00:00 | |
| DL1XH1-15 | 2026-08-30 12:40:46 | 51.67206 | 8.15514 | 333° | 18km/h | 21572m | -18.4m/s | -53.3°C | 3.8% | 45.9hPa | 2.6V | 08:24:13 | 02:22:53 | 00:00:00 | |
| AA1-15 | 2026-08-30 12:40:45 | 51.67206 | 8.15514 | 333° | 18km/h | 21572m | -18.4m/s | -53.3°C | 0.3% | 45.9hPa | 2.6V | 08:24:18 | 02:22:53 | 00:00:00 | |
| HTAHTA | 2026-08-30 12:40:44 | 51.67206 | 8.15514 | 333° | 18km/h | 21573m | -18.4m/s | -53.3°C | 0.9% | 45.9hPa | 2.6V | 00:00:00 | 00:00:00 | 00:00:00 | |
| DO2JMG | 2026-08-30 12:40:42 | 51.67197 | 8.15520 | 342° | 18km/h | 21609m | -18.7m/s | -53.4°C | 0.3% | 45.6hPa | 2.6V | 08:24:18 | 02:22:51 | 00:00:00 | |
| DO2SHX-10 | 2026-08-30 12:40:42 | 51.67197 | 8.15520 | 343° | 20km/h | 21609m | -18.7m/s | -53.3°C | 3.8% | 45.6hPa | 2.7V | 00:00:00 | 02:22:51 | 00:00:00 | |
| DL1NUX | 2026-08-30 12:40:41 | 51.67188 | 8.15524 | 347° | 20km/h | 21647m | -19m/s | -53.2°C | 3.7% | 45.4hPa | 2.7V | 08:24:17 | 02:22:49 | 00:00:00 | |
| GOEST3-10 | 2026-08-30 12:40:41 | 51.67193 | 8.15522 | 344° | 22km/h | 21628m | -18.8m/s | -53.3°C | 3.8% | 45.5hPa | 2.7V | 00:00:00 | 00:00:00 | 00:00:00 | |
| DF5WG-10 | 2026-08-30 12:40:40 | 51.67188 | 8.15524 | 348° | 24km/h | 21647m | -19.0m/s | -53.2°C | 3.7% | 45.3hPa | 2.7V | 00:00:00 | 02:22:49 | 00:00:00 | |
| DL4BBY-15 | 2026-08-30 12:40:39 | 51.67182 | 8.15526 | 353° | 16km/h | 21666m | -18.8m/s | -52.6°C | 0% | 0hPa | 2.7V | 00:00:00 | 00:00:00 | 00:00:00 | |
| DJ8HS-15 | 2026-08-30 12:40:38 | 51.67177 | 8.15527 | 356° | 18km/h | 21684m | -18.5m/s | -53.0°C | 3.6% | 45.1hPa | 2.7V | 00:00:00 | 02:22:47 | 00:00:00 | |
| DL1XH-west | 2026-08-30 12:40:38 | 51.67177 | 8.15527 | 356° | 24km/h | 21684m | -18.6m/s | -53.1°C | 0.2% | 45.1hPa | 2.5V | 08:25:09 | 02:22:47 | 00:00:00 | |
| SONCRA | 2026-08-30 12:40:37 | 51.67165 | 8.15527 | 5° | 26km/h | 21722m | -19.4m/s | -53.1°C | 0.9% | 44.9hPa | 2.7V | 00:00:00 | 00:00:00 | 00:00:00 | |
| DO3DL | 2026-08-30 12:40:36 | 51.67165 | 8.15527 | 6° | 26km/h | 21722m | -19.4m/s | -53.1°C | 0.9% | 44.8hPa | 2.7V | 08:25:00 | 00:00:00 | 00:00:00 | |
| DL1XH1-15 | 2026-08-30 12:40:35 | 51.67152 | 8.15524 | 10° | 27km/h | 21760m | -19.4m/s | -53.2°C | 3.7% | 44.6hPa | 2.7V | 08:24:23 | 02:22:43 | 00:00:00 | |
| BIOWL1-15 | 2026-08-30 12:40:34 | 51.67152 | 8.15524 | 11° | 27km/h | 21760m | -19.4m/s | -53.2°C | 0.2% | 44.6hPa | 2.7V | 08:25:09 | 02:22:43 | 00:00:00 | |
| AA1-15 | 2026-08-30 12:40:33 | 51.67145 | 8.15522 | 13° | 26km/h | 21779m | -19.3m/s | -53.3°C | 0.2% | 44.5hPa | 2.7V | 08:25:09 | 02:22:42 | 00:00:00 | |
| DL1NUX | 2026-08-30 12:40:31 | 51.67130 | 8.15514 | 24° | 16km/h | 21836m | -18.9m/s | -53.3°C | 3.7% | 44hPa | 2.6V | 08:24:27 | 02:22:39 | 00:00:00 | |
| DO2JMG | 2026-08-30 12:40:31 | 51.67134 | 8.15517 | 19° | 22km/h | 21818m | -18.9m/s | -53.3°C | 0.2% | 44.2hPa | 2.6V | 08:25:09 | 02:22:40 | 00:00:00 | |
| GOEST3-10 | 2026-08-30 12:40:31 | 51.67134 | 8.15517 | 19° | 15km/h | 21818m | -18.8m/s | -53.3°C | 3.7% | 44.1hPa | 2.6V | 00:00:00 | 00:00:00 | 00:00:00 | |
| DL1XH1-15 | 2026-08-30 12:40:30 | 51.67113 | 8.15509 | 339° | 9km/h | 21951m | -19.2m/s | -53.3°C | 3.8% | 43.2hPa | 2.6V | 08:24:33 | 02:22:33 | 00:00:00 | |
| DL1XH-west | 2026-08-30 12:40:27 | 51.67120 | 8.15508 | 12° | 11km/h | 21894m | -19.4m/s | -53.4°C | 0.2% | 43.6hPa | 2.7V | 08:25:09 | 02:22:36 | 00:00:00 | |
| BIOWL1-15 | 2026-08-30 12:40:25 | 51.67096 | 8.15520 | 340° | 18km/h | 22048m | -19.7m/s | -52.8°C | 0.2% | 42.6hPa | 2.6V | 08:25:09 | 02:22:28 | 00:00:00 | |
| DJ2DS-15 | 2026-08-30 12:40:25 | 51.67113 | 8.15509 | 340° | 11km/h | 21951m | -19.2m/s | -53.3°C | 3.8% | 43.2hPa | 2.6V | 00:00:00 | 02:22:33 | 00:00:00 | |
| DL3AQ-11 | 2026-08-30 12:40:24 | 51.67111 | 8.15510 | 345° | 11km/h | 21970m | -19.3m/s | -53.2°C | 0.9% | 43.1hPa | 2.6V | 00:00:00 | 00:00:00 | 00:00:00 | |
| DO3DL | 2026-08-30 12:40:22 | 51.67111 | 8.15510 | 347° | 11km/h | 21970m | -19.3m/s | -53.2°C | 0.9% | 43.1hPa | 2.6V | 08:25:00 | 00:00:00 | 00:00:00 | |
| AA1-15 | 2026-08-30 12:40:22 | 51.67108 | 8.15512 | 334° | 15km/h | 21989m | -19.6m/s | -53.1°C | 0.2% | 43hPa | 2.7V | 08:25:09 | 02:22:31 | 00:00:00 | |
| DL1NUX | 2026-08-30 12:40:21 | 51.67100 | 8.15517 | 334° | 18km/h | 22029m | -19.5m/s | -52.8°C | 3.6% | 42.8hPa | 2.6V | 08:24:37 | 02:22:29 | 00:00:00 | |
| DO2JMG | 2026-08-30 12:40:20 | 51.67100 | 8.15517 | 335° | 18km/h | 22029m | -19.5m/s | -52.8°C | 0.1% | 42.8hPa | 2.6V | 08:25:09 | 02:22:29 | 00:00:00 | |
| DL1XH-west | 2026-08-30 12:40:17 | 51.67088 | 8.15526 | 337° | 16km/h | 22088m | -20.2m/s | -52.8°C | 0.1% | 42.3hPa | 2.7V | 08:25:09 | 02:22:26 | 00:00:00 | |
| DL1XH1-15 | 2026-08-30 12:40:16 | 51.67080 | 8.15533 | 326° | 9km/h | 22148m | -19.8m/s | -52.8°C | 3.6% | 42hPa | 2.5V | 08:24:43 | 02:22:23 | 00:00:00 | |
| DJ2KF-10 | 2026-08-30 12:40:16 | 51.67084 | 8.15529 | 333° | 11km/h | 22108m | -20.1m/s | -52.8°C | 3.6% | 42.2hPa | 2.7V | 08:24:00 | 02:22:25 | 00:00:00 | |
| DL1NUX | 2026-08-30 12:40:15 | 51.67075 | 8.15542 | 304° | 7km/h | 22228m | -20m/s | -52.8°C | 3.6% | 41.5hPa | 2.7V | 08:24:47 | 02:22:19 | 00:00:00 | |
| AA1-15 | 2026-08-30 12:40:12 | 51.67077 | 8.15538 | 307° | 7km/h | 22188m | -20m/s | -52.8°C | 0.1% | 41.7hPa | 2.6V | 08:25:09 | 02:22:21 | 00:00:00 | |
| DL1XH-15 | 2026-08-30 12:40:11 | 51.67073 | 8.15548 | 305° | 9km/h | 22268m | -19.5m/s | -52.7°C | 3.6% | 41.2hPa | 2.6V | 08:24:49 | 02:22:17 | 00:00:00 | |
| DO2JMG | 2026-08-30 12:40:10 | 51.67075 | 8.15542 | 304° | 7km/h | 22228m | -20m/s | -52.8°C | 0.2% | 41.5hPa | 2.7V | 08:25:09 | 02:22:19 | 00:00:00 | |
| DL1XH-west | 2026-08-30 12:40:06 | 51.67069 | 8.15554 | 313° | 13km/h | 22307m | -19.8m/s | -52.7°C | 0.1% | 41hPa | 2.6V | 08:25:09 | 02:22:15 | 00:00:00 | |
| AA1-15 | 2026-08-30 12:40:02 | 51.67060 | 8.15568 | 326° | 13km/h | 22387m | -20.2m/s | -52.7°C | 0.1% | 40.5hPa | 2.5V | 08:25:09 | 02:22:11 | 00:00:00 | |
| DL1XH-15 | 2026-08-30 12:40:02 | 51.67049 | 8.15575 | 347° | 11km/h | 22468m | -19.8m/s | -52.8°C | 3.6% | 40hPa | 2.7V | 08:24:59 | 02:22:07 | 00:00:00 | |
| DL1NUX | 2026-08-30 12:40:01 | 51.67054 | 8.15573 | 338° | 13km/h | 22427m | -20.8m/s | -52.7°C | 3.6% | 40.2hPa | 2.6V | 08:24:57 | 02:22:09 | 00:00:00 | |
| BIOWL1-15 | 2026-08-30 12:40:01 | 51.67057 | 8.15571 | 335° | 13km/h | 22407m | -20.4m/s | -52.7°C | 0.2% | 40.4hPa | 2.6V | 08:25:09 | 02:22:10 | 00:00:00 | |
| HSKMA3-T | 2026-08-30 12:40:00 | 51.67054 | 8.15573 | 338° | 13km/h | 22428m | -20.8m/s | -52.7°C | 0.2% | 40.2hPa | 2.6V | 08:25:09 | 02:22:09 | 00:00:00 | |
| DO2JMG | 2026-08-30 12:39:59 | 51.67051 | 8.15574 | 351° | 13km/h | 22448m | -20.2m/s | -52.7°C | 0.2% | 40.1hPa | 2.7V | 08:25:09 | 02:22:08 | 00:00:00 | |
| DL1XH-west | 2026-08-30 12:39:56 | 51.67042 | 8.15575 | 7° | 13km/h | 22508m | -20m/s | -52.7°C | 0.2% | 39.7hPa | 2.6V | 08:25:09 | 02:22:05 | 00:00:00 | |
| AA1-15 | 2026-08-30 12:39:52 | 51.67028 | 8.15571 | 13° | 9km/h | 22610m | -19.9m/s | -52.9°C | 0.2% | 39.1hPa | 2.6V | 08:25:09 | 02:22:00 | 00:00:00 | |
| DL1XH-15 | 2026-08-30 12:39:51 | 51.67020 | 8.15569 | 1° | 9km/h | 22670m | -19.9m/s | -53°C | 3.6% | 38.7hPa | 2.6V | 08:25:09 | 02:21:57 | 00:00:00 | |
| BIOWL1-15 | 2026-08-30 12:39:50 | 51.67025 | 8.15570 | 9° | 11km/h | 22630m | -20.1m/s | -53°C | 0.2% | 39hPa | 2.7V | 08:25:09 | 02:21:59 | 00:00:00 | |
| HSKMA3-T | 2026-08-30 12:39:49 | 51.67023 | 8.15569 | 13° | 9km/h | 22650m | -20.1m/s | -52.9°C | 0.2% | 38.9hPa | 2.7V | 08:25:09 | 02:21:58 | 00:00:00 | |
| DO2JMG | 2026-08-30 12:39:48 | 51.67020 | 8.15569 | 2° | 9km/h | 22670m | -19.9m/s | -53°C | 0.2% | 38.7hPa | 2.6V | 08:25:09 | 02:21:57 | 00:00:00 | |
| DL1XH-west | 2026-08-30 12:39:45 | 51.67014 | 8.15569 | 359° | 7km/h | 22731m | -20.6m/s | -52.8°C | 0.2% | 38.3hPa | 2.7V | 08:26:00 | 02:21:54 | 00:00:00 | |
| DO2SHX-10 | 2026-08-30 12:39:44 | 51.67012 | 8.15568 | 9° | 5km/h | 22752m | -20.2m/s | -52.7°C | 3.6% | 38.1hPa | 2.7V | 08:25:00 | 02:21:53 | 00:00:00 | |
| DB0UT-7 | 2026-08-30 12:39:43 | 51.67010 | 8.15568 | 31° | 9km/h | 22772m | -20.7m/s | -52.7°C | 3.5% | 38.1hPa | 2.7V | 00:00:00 | 02:21:52 | 00:00:00 | |
| HTAHTA | 2026-08-30 12:39:42 | 51.67009 | 8.15566 | 38° | 4km/h | 22793m | -20.0m/s | -52.8°C | 0.8% | 38.0hPa | 2.7V | 00:00:00 | 00:00:00 | 00:00:00 | |
| DL1XH-15 | 2026-08-30 12:39:41 | 51.67006 | 8.15559 | 75° | 7km/h | 22875m | -21.4m/s | -52.8°C | 3.6% | 37.5hPa | 2.7V | 08:25:19 | 02:21:47 | 00:00:00 | |
| AA1-15 | 2026-08-30 12:39:40 | 51.67007 | 8.15564 | 44° | 5km/h | 22833m | -20.8m/s | -52.8°C | 0.1% | 37.7hPa | 2.7V | 08:26:00 | 02:21:49 | 00:00:00 | |
| HSKMA3-T | 2026-08-30 12:39:39 | 51.67006 | 8.15562 | 57° | 7km/h | 22855m | -20.7m/s | -52.8°C | 0.2% | 37.6hPa | 2.7V | 08:26:00 | 02:21:48 | 00:00:00 | |
| DO2JMG | 2026-08-30 12:39:38 | 51.67006 | 8.15560 | 75° | 7km/h | 22875m | -21.4m/s | -52.8°C | 0.2% | 37.5hPa | 2.7V | 08:26:00 | 02:21:47 | 00:00:00 | |
| DL1XH-west | 2026-08-30 12:39:34 | 51.67003 | 8.15544 | 79° | 13km/h | 22959m | -20.5m/s | -52.9°C | 0.2% | 37hPa | 2.7V | 08:26:00 | 02:21:43 | 00:00:00 | |
| BIOWL1-15 | 2026-08-30 12:39:33 | 51.67001 | 8.15522 | 82° | 5km/h | 23064m | -20.7m/s | -52.9°C | 0.2% | 36.4hPa | 2.6V | 08:26:00 | 02:21:38 | 00:00:00 | |
| DL4XJ-10 | 2026-08-30 12:39:33 | 51.67002 | 8.15539 | 78° | 9km/h | 22980m | -20.9m/s | -52.4°C | 0% | 0hPa | 2.7V | 00:00:00 | 00:00:00 | 00:00:00 | |
| DO3DL | 2026-08-30 12:39:32 | 51.67002 | 8.15534 | 86° | 13km/h | 23001m | -21.0m/s | -52.9°C | 0.8% | 36.8hPa | 2.7V | 08:26:00 | 00:00:00 | 00:00:00 | |
| DL1XH-15 | 2026-08-30 12:39:31 | 51.67001 | 8.15520 | 96° | 4km/h | 23085m | -21.1m/s | -52.9°C | 3.5% | 36.3hPa | 2.7V | 08:25:29 | 02:21:37 | 00:00:00 | |
| AA1-15 | 2026-08-30 12:39:30 | 51.67001 | 8.15525 | 80° | 9km/h | 23043m | -21m/s | -52.8°C | 0.1% | 36.6hPa | 2.5V | 08:26:00 | 02:21:39 | 00:00:00 | |
| DO2JMG | 2026-08-30 12:39:28 | 51.67001 | 8.15520 | 97° | 4km/h | 23085m | -21.1m/s | -52.9°C | 0.1% | 36.3hPa | 2.7V | 08:26:00 | 02:21:37 | 00:00:00 | |
| DL1XH-west | 2026-08-30 12:39:24 | 51.67002 | 8.15520 | 268° | 4km/h | 23169m | -21.3m/s | -53.2°C | 0.3% | 35.8hPa | 2.6V | 08:26:00 | 02:21:33 | 00:00:00 | |
| DD8BA-10 | 2026-08-30 12:39:24 | 51.67002 | 8.15520 | 268° | 13km/h | 23169m | -21.3m/s | -53.1°C | 3.7% | 35.8hPa | 2.6V | 00:00:00 | 00:00:00 | 00:00:00 | |
| DL1CLM-18 | 2026-08-30 12:39:23 | 51.67002 | 8.15520 | 269° | 4km/h | 23169m | -21.3m/s | -53.2°C | 0.9% | 35.8hPa | 2.6V | 00:00:00 | 00:00:00 | 00:00:00 | |
| DL1XH-15 | 2026-08-30 12:39:21 | 51.66990 | 8.15538 | 327° | 16km/h | 23295m | -21.6m/s | -53.5°C | 3.8% | 35.1hPa | 2.6V | 08:25:39 | 02:21:27 | 00:00:00 | |
| AA1-15 | 2026-08-30 12:39:19 | 51.66994 | 8.15534 | 319° | 15km/h | 23275m | -20.8m/s | -53.4°C | 0.3% | 35.2hPa | 2.5V | 08:26:00 | 02:21:28 | 00:00:00 | |
| DL1XH1-15 | 2026-08-30 12:39:19 | 51.66976 | 8.15549 | 343° | 13km/h | 23381m | -21.5m/s | -53.7°C | 3.9% | 34.7hPa | 2.6V | 08:25:43 | 02:21:23 | 00:00:00 | |
| BIOWL1-15 | 2026-08-30 12:39:19 | 51.66990 | 8.15538 | 328° | 16km/h | 23296m | -21.6m/s | -53.5°C | 0.3% | 35.1hPa | 2.6V | 08:26:00 | 02:21:27 | 00:00:00 | |
| DO2JMG | 2026-08-30 12:39:17 | 51.66987 | 8.15541 | 332° | 18km/h | 23317m | -21.2m/s | -53.6°C | 0.4% | 35hPa | 2.7V | 08:26:00 | 02:21:26 | 00:00:00 | |
| DL1XH-west | 2026-08-30 12:39:14 | 51.66976 | 8.15549 | 343° | 13km/h | 23381m | -21.5m/s | -53.7°C | 0.4% | 34.7hPa | 2.6V | 08:26:00 | 02:21:23 | 00:00:00 | |
| DD8BA-10 | 2026-08-30 12:39:14 | 51.66976 | 8.15549 | 344° | 5km/h | 23381m | -21.4m/s | -53.6°C | 3.9% | 34.6hPa | 2.6V | 08:25:00 | 00:00:00 | 00:00:00 | |
| DO3DL | 2026-08-30 12:39:13 | 51.66973 | 8.15550 | 360° | 11km/h | 23403m | -21.3m/s | -53.7°C | 0.9% | 34.6hPa | 2.7V | 08:26:00 | 00:00:00 | 00:00:00 | |
| DK9SH | 2026-08-30 12:39:12 | 51.66970 | 8.15550 | 3° | 9km/h | 23424m | -21.1m/s | -53.6°C | 0.9% | 34.4hPa | 2.7V | 08:26:00 | 00:00:00 | 00:00:00 | |
| DL1XH-15 | 2026-08-30 12:39:11 | 51.66964 | 8.15545 | 55° | 4km/h | 23510m | -21.2m/s | -53.3°C | 3.8% | 34hPa | 2.7V | 08:25:49 | 02:21:17 | 00:00:00 | |
| BIOWL1-15 | 2026-08-30 12:39:08 | 51.66964 | 8.15545 | 56° | 4km/h | 23510m | -21.2m/s | -53.3°C | 0.3% | 34hPa | 2.7V | 08:26:00 | 02:21:17 | 00:00:00 | |
| HSKMA3-T | 2026-08-30 12:39:07 | 51.66963 | 8.15544 | 78° | 2km/h | 23532m | -21.4m/s | -53.3°C | 0.3% | 33.9hPa | 2.7V | 08:26:00 | 02:21:16 | 00:00:00 | |
| SMARD9-10 | 2026-08-30 12:39:07 | 51.66963 | 8.15544 | 0° | 0km/h | 23532m | -21.4m/s | -53.3°C | 0.9% | 33.9hPa | 2.6V | 00:00:00 | 00:00:00 | 00:00:00 | |
| DL1XH1-15 | 2026-08-30 12:39:06 | 51.66963 | 8.15544 | 314° | 2km/h | 23596m | -21.7m/s | -53.1°C | 3.8% | 33.5hPa | 2.6V | 08:25:53 | 02:21:13 | 00:00:00 | |
| DO2JMG | 2026-08-30 12:39:06 | 51.66963 | 8.15544 | 246° | 0km/h | 23553m | -21.5m/s | -53.2°C | 0.3% | 33.8hPa | 2.5V | 08:26:00 | 02:21:15 | 00:00:00 | |
| DL1NUX | 2026-08-30 12:39:05 | 51.66964 | 8.15546 | 218° | 4km/h | 23684m | -22.4m/s | -52.8°C | 3.7% | 33.1hPa | 2.5V | 08:25:57 | 02:21:09 | 00:00:00 | |
| DL1XH-west | 2026-08-30 12:39:04 | 51.66963 | 8.15544 | 314° | 2km/h | 23596m | -21.7m/s | -53.1°C | 0.3% | 33.5hPa | 2.6V | 08:26:00 | 02:21:13 | 00:00:00 | |
| SONCRA | 2026-08-30 12:39:04 | 51.66963 | 8.15545 | 238° | 0km/h | 23618m | -22.2m/s | -53.1°C | 0.9% | 33.4hPa | 2.6V | 00:00:00 | 00:00:00 | 00:00:00 | |
| DL1XH-15 | 2026-08-30 12:39:01 | 51.66965 | 8.15548 | 239° | 4km/h | 23730m | -23m/s | -52.6°C | 3.6% | 32.8hPa | 2.6V | 08:25:59 | 02:21:07 | 00:00:00 | |
| EDDB2-12 | 2026-08-30 12:39:01 | 51.66964 | 8.15546 | 218° | 2km/h | 23685m | -22.4m/s | -52.8°C | 0.8% | 33.1hPa | 2.5V | 00:00:00 | 00:00:00 | 00:00:00 | |
| DL1ZP-14 | 2026-08-30 12:39:00 | 51.66964 | 8.15546 | 218° | 2km/h | 23685m | -22.4m/s | -52.8°C | 0.8% | 33.1hPa | 2.5V | 00:00:00 | 00:00:00 | 00:00:00 | |
| DL1XH1-15 | 2026-08-30 12:38:59 | 51.66965 | 8.15559 | 276° | 9km/h | 23819m | -22.5m/s | -52.5°C | 3.6% | 32.4hPa | 2.5V | 08:26:03 | 02:21:03 | 00:00:00 | |
| BIOWL1-15 | 2026-08-30 12:38:58 | 51.66965 | 8.15559 | 277° | 9km/h | 23819m | -22.5m/s | -52.5°C | 0.2% | 32.4hPa | 2.5V | 08:26:51 | 02:21:03 | 00:00:00 | |
| HSKMA3-T | 2026-08-30 12:38:57 | 51.66965 | 8.15550 | 268° | 5km/h | 23753m | -22.3m/s | -52.5°C | 0.2% | 32.7hPa | 2.7V | 08:26:00 | 02:21:06 | 00:00:00 | |
| DO2JMG | 2026-08-30 12:38:56 | 51.66965 | 8.15552 | 267° | 5km/h | 23775m | -22.1m/s | -52.4°C | 0.2% | 32.6hPa | 2.7V | 08:26:51 | 02:21:05 | 00:00:00 | |
| BUE01 | 2026-08-30 12:38:56 | 51.66965 | 8.15555 | 269° | 7km/h | 23797m | -22.0m/s | -52.5°C | 0.8% | 32.5hPa | 2.7V | 00:00:00 | 00:00:00 | 00:00:00 | |
| DF7PN | 2026-08-30 12:38:54 | 51.66964 | 8.15563 | 285° | 9km/h | 23842m | -22.6m/s | -52.5°C | 0.8% | 32.3hPa | 2.7V | 00:00:00 | 00:00:00 | 00:00:00 | |
| DM0DOS-11 | 2026-08-30 12:38:53 | 51.66964 | 8.15575 | 268° | 11km/h | 23910m | -22.3m/s | -52.6°C | 3.7% | 31.9hPa | 2.7V | 08:26:07 | 02:20:59 | 00:00:00 | |
| DL1XH-west | 2026-08-30 12:38:53 | 51.66964 | 8.15563 | 286° | 11km/h | 23842m | -22.6m/s | -52.5°C | 0.2% | 32.3hPa | 2.6V | 08:26:51 | 02:21:02 | 00:00:00 | |
| AA1-15 | 2026-08-30 12:38:47 | 51.66963 | 8.15588 | 294° | 13km/h | 23976m | -21.8m/s | -52.6°C | 0.3% | 31.6hPa | 2.6V | 08:26:51 | 02:20:56 | 00:00:00 | |
| HSKMA3-T | 2026-08-30 12:38:46 | 51.66959 | 8.15595 | 327° | 9km/h | 24021m | -23.3m/s | -52.6°C | 0.3% | 31.4hPa | 2.7V | 08:26:51 | 02:20:54 | 00:00:00 | |
| DO2JMG | 2026-08-30 12:38:46 | 51.66961 | 8.15592 | 302° | 11km/h | 23998m | -22.2m/s | -52.6°C | 0.3% | 31.5hPa | 2.7V | 08:26:51 | 02:20:55 | 00:00:00 | |
| DO3DL | 2026-08-30 12:38:46 | 51.66961 | 8.15592 | 303° | 11km/h | 23999m | -22.2m/s | -52.6°C | 0.9% | 31.5hPa | 2.6V | 08:26:00 | 00:00:00 | 00:00:00 | |
| DL1XH1-15 | 2026-08-30 12:38:45 | 51.66957 | 8.15597 | 346° | 13km/h | 24044m | -23m/s | -52.5°C | 3.7% | 31.2hPa | 2.6V | 08:26:13 | 02:20:53 | 00:00:00 | |
| AU51GT2 | 2026-08-30 12:38:45 | 51.66959 | 8.15595 | 327° | 9km/h | 24021m | -23.3m/s | -52.6°C | 0.9% | 31.4hPa | 2.6V | 00:00:00 | 00:00:00 | 00:00:00 | |
| DL1XH-west | 2026-08-30 12:38:43 | 51.66953 | 8.15598 | 350° | 16km/h | 24067m | -22.6m/s | -52.3°C | 0.3% | 31.2hPa | 2.6V | 08:26:51 | 02:20:52 | 00:00:00 | |
| DB0UT-7 | 2026-08-30 12:38:43 | 51.66953 | 8.15598 | 351° | 11km/h | 24068m | -22.5m/s | -52.3°C | 3.7% | 31.1hPa | 2.6V | 08:26:00 | 02:20:52 | 00:00:00 | |
| DC4HF-4 | 2026-08-30 12:38:42 | 51.66949 | 8.15599 | 350° | 15km/h | 24090m | -22.7m/s | -52.1°C | 0.8% | 31.1hPa | 2.7V | 00:00:00 | 00:00:00 | 00:00:00 | |
| HTAHTA | 2026-08-30 12:38:40 | 51.66941 | 8.15599 | 11° | 16km/h | 24136m | -23.4m/s | -51.8°C | 0.8% | 30.8hPa | 2.7V | 00:00:00 | 00:00:00 | 00:00:00 | |
| DL1XH1-15 | 2026-08-30 12:38:39 | 51.66924 | 8.15592 | 54° | 4km/h | 24273m | -23.9m/s | -51.7°C | 3.6% | 30.2hPa | 2.7V | 08:26:23 | 02:20:43 | 00:00:00 | |
| HSKMA3-T | 2026-08-30 12:38:36 | 51.66927 | 8.15594 | 11° | 11km/h | 24227m | -22.8m/s | -52°C | 0.2% | 30.4hPa | 2.7V | 08:26:51 | 02:20:45 | 00:00:00 | |
| DO2JMG | 2026-08-30 12:38:35 | 51.66925 | 8.15593 | 27° | 5km/h | 24250m | -22.2m/s | -51.9°C | 0.2% | 30.3hPa | 2.7V | 08:26:51 | 02:20:44 | 00:00:00 | |
| DL1XH-west | 2026-08-30 12:38:32 | 51.66924 | 8.15592 | 201° | 4km/h | 24320m | -23.6m/s | -51.4°C | 0.1% | 30hPa | 2.6V | 08:26:51 | 02:20:41 | 00:00:00 | |
| DL1XH-15 | 2026-08-30 12:38:31 | 51.66928 | 8.15603 | 261° | 11km/h | 24412m | -22.8m/s | -51.4°C | 3.5% | 29.5hPa | 2.7V | 08:26:29 | 02:20:37 | 00:00:00 | |
| AA1-15 | 2026-08-30 12:38:26 | 51.66928 | 8.15611 | 286° | 9km/h | 24458m | -23.7m/s | -51.4°C | 0.2% | 29.3hPa | 2.6V | 08:26:51 | 02:20:35 | 00:00:00 | |
| DL1XH1-15 | 2026-08-30 12:38:26 | 51.66925 | 8.15619 | 302° | 13km/h | 24505m | -23.3m/s | -51.4°C | 3.5% | 29.1hPa | 2.7V | 08:26:33 | 02:20:33 | 00:00:00 | |
| HSKMA3-T | 2026-08-30 12:38:25 | 51.66927 | 8.15615 | 301° | 13km/h | 24482m | -23.5m/s | -51.5°C | 0.1% | 29.2hPa | 2.6V | 08:26:51 | 02:20:34 | 00:00:00 | |
| DO2JMG | 2026-08-30 12:38:24 | 51.66926 | 8.15619 | 302° | 13km/h | 24505m | -23.3m/s | -51.4°C | 0.1% | 29.1hPa | 2.7V | 08:26:51 | 02:20:33 | 00:00:00 | |
| DL1XH-west | 2026-08-30 12:38:22 | 51.66921 | 8.15626 | 318° | 15km/h | 24552m | -24.1m/s | -51.3°C | 0.2% | 28.9hPa | 2.7V | 08:26:51 | 02:20:31 | 00:00:00 | |
| SMARD9-15 | 2026-08-30 12:38:21 | 51.66917 | 8.15634 | 305° | 9km/h | 24599m | -24.2m/s | -51.2°C | 0.7% | 28.7hPa | 2.7V | 00:00:00 | 00:00:00 | 00:00:00 | |
| DO9LL-15 | 2026-08-30 12:38:20 | 51.66917 | 8.15634 | 306° | 9km/h | 24600m | -24.2m/s | -51.1°C | 3.4% | 28.7hPa | 2.7V | 00:00:00 | 02:20:29 | 00:00:00 | |
| DL1XH1-15 | 2026-08-30 12:38:19 | 51.66914 | 8.15658 | 237° | 7km/h | 24742m | -24.4m/s | -50.5°C | 3.2% | 28.1hPa | 2.7V | 08:26:43 | 02:20:23 | 00:00:00 | |
| AA1-15 | 2026-08-30 12:38:15 | 51.66913 | 8.15654 | 252° | 11km/h | 24719m | -23.6m/s | -50.6°C | 0% | 28.2hPa | 2.7V | 08:26:51 | 02:20:24 | 00:00:00 | |
| HSKMA3-T | 2026-08-30 12:38:14 | 51.66914 | 8.15658 | 237° | 7km/h | 24742m | -24.4m/s | -50.5°C | 0% | 28.1hPa | 2.7V | 08:26:51 | 02:20:23 | 00:00:00 | |
| DL4XJ-10 | 2026-08-30 12:38:14 | 51.66915 | 8.15660 | 257° | 9km/h | 24767m | -24.0m/s | -49.9°C | 0% | 0hPa | 2.6V | 00:00:00 | 00:00:00 | 00:00:00 | |
| DL1NUX | 2026-08-30 12:38:13 | 51.66917 | 8.15665 | 332° | 0km/h | 24839m | -24.1m/s | -50.6°C | 3.3% | 27.7hPa | 2.6V | 08:26:47 | 02:20:19 | 00:00:00 | |
| DO2JMG | 2026-08-30 12:38:13 | 51.66915 | 8.15660 | 256° | 7km/h | 24767m | -24m/s | -50.4°C | 0% | 28hPa | 2.7V | 08:26:51 | 02:20:22 | 00:00:00 | |
| DL1XH-west | 2026-08-30 12:38:11 | 51.66917 | 8.15665 | 201° | 4km/h | 24815m | -24.6m/s | -50.5°C | 0% | 27.8hPa | 2.6V | 08:26:51 | 02:20:20 | 00:00:00 | |
| DL4BBY-15 | 2026-08-30 12:38:09 | 51.66917 | 8.15665 | 360° | 11km/h | 24863m | -23.6m/s | -50.2°C | 0% | 0hPa | 2.6V | 00:00:00 | 00:00:00 | 00:00:00 | |
| DL8DAS-14 | 2026-08-30 12:38:08 | 51.66916 | 8.15664 | 63° | 4km/h | 24887m | -24.1m/s | -50.8°C | 0.7% | 27.4hPa | 2.6V | 00:00:00 | 00:00:00 | 00:00:00 | |
| DD1CC2-15 | 2026-08-30 12:38:07 | 51.66916 | 8.15664 | 64° | 5km/h | 24887m | -24.1m/s | -50.8°C | 0.8% | 27.4hPa | 2.6V | 08:26:00 | 00:00:00 | 00:00:00 | |
| DL1XH1-15 | 2026-08-30 12:38:06 | 51.66910 | 8.15655 | 50° | 11km/h | 24981m | -24.5m/s | -50.9°C | 3.4% | 27.1hPa | 2.6V | 08:26:53 | 02:20:13 | 00:00:00 | |
| HSKMA3-T | 2026-08-30 12:38:04 | 51.66910 | 8.15655 | 50° | 11km/h | 24982m | -24.5m/s | -50.9°C | 0.1% | 27.1hPa | 2.6V | 08:27:42 | 02:20:13 | 00:00:00 | |
| DO2JMG | 2026-08-30 12:38:02 | 51.66907 | 8.15650 | 68° | 7km/h | 25030m | -23.9m/s | -50.9°C | 0.1% | 26.9hPa | 2.7V | 08:27:42 | 02:20:11 | 00:00:00 | |
| DM0DOS-11 | 2026-08-30 12:38:02 | 51.66906 | 8.15641 | 72° | 11km/h | 25079m | -23.9m/s | -51°C | 3.4% | 26.6hPa | 2.6V | 08:26:57 | 02:20:09 | 00:00:00 | |
| DL1XH-west | 2026-08-30 12:38:01 | 51.66906 | 8.15646 | 87° | 11km/h | 25054m | -24.8m/s | -50.9°C | 0.1% | 26.7hPa | 2.7V | 08:27:42 | 02:20:10 | 00:00:00 | |
| DO3DL | 2026-08-30 12:38:00 | 51.66906 | 8.15646 | 88° | 11km/h | 25054m | -24.8m/s | -50.9°C | 0.8% | 26.7hPa | 2.7V | 08:27:00 | 00:00:00 | 00:00:00 | |
| BIOWL1-15 | 2026-08-30 12:38:00 | 51.66905 | 8.15637 | 99° | 11km/h | 25103m | -24.3m/s | -50.9°C | 0.1% | 26.6hPa | 2.6V | 08:27:42 | 02:20:08 | 00:00:00 | |
| DL1XH1-15 | 2026-08-30 12:37:59 | 51.66905 | 8.15613 | 74° | 7km/h | 25225m | -24.8m/s | -50.5°C | 3.3% | 26hPa | 2.7V | 08:27:03 | 02:20:03 | 00:00:00 | |
| HSKMA3-T | 2026-08-30 12:37:53 | 51.66904 | 8.15608 | 47° | 5km/h | 25276m | -25.6m/s | -50.6°C | 0% | 25.9hPa | 2.7V | 08:27:42 | 02:20:01 | 00:00:00 | |
| AA1-15 | 2026-08-30 12:37:53 | 51.66905 | 8.15610 | 67° | 7km/h | 25250m | -25.5m/s | -50.6°C | 0% | 26hPa | 2.7V | 08:27:42 | 02:20:02 | 00:00:00 | |
| DL1NUX | 2026-08-30 12:37:53 | 51.66902 | 8.15609 | 307° | 5km/h | 25325m | -24.8m/s | -50.6°C | 3.3% | 25.7hPa | 2.6V | 08:27:07 | 02:19:59 | 00:00:00 | |
| DL1XH-west | 2026-08-30 12:37:51 | 51.66903 | 8.15608 | 333° | 5km/h | 25301m | -24.5m/s | -50.6°C | 0% | 25.8hPa | 2.6V | 08:27:42 | 02:20:00 | 00:00:00 | |
| BIOWL1-15 | 2026-08-30 12:37:50 | 51.66902 | 8.15609 | 308° | 5km/h | 25325m | -24.8m/s | -50.6°C | 0% | 25.7hPa | 2.6V | 08:27:42 | 02:19:59 | 00:00:00 | |
| DO9LL-15 | 2026-08-30 12:37:50 | 51.66902 | 8.15609 | 308° | 13km/h | 25326m | -24.8m/s | -50.6°C | 3.3% | 25.6hPa | 2.6V | 08:27:00 | 02:19:59 | 00:00:00 | |
| GOEST3-10 | 2026-08-30 12:37:49 | 51.66901 | 8.15612 | 284° | 15km/h | 25351m | -25.7m/s | -50.5°C | 3.3% | 25.5hPa | 2.7V | 00:00:00 | 00:00:00 | 00:00:00 | |
| DL1LOL-11 | 2026-08-30 12:37:48 | 51.66901 | 8.15612 | 285° | 9km/h | 25351m | -25.8m/s | -50.6°C | 0.7% | 25.6hPa | 2.7V | 08:27:00 | 00:00:00 | 00:00:00 | |
| DD1CC2-15 | 2026-08-30 12:37:47 | 51.66901 | 8.15616 | 270° | 15km/h | 25376m | -25.5m/s | -50.6°C | 0.8% | 25.5hPa | 2.7V | 08:27:00 | 00:00:00 | 00:00:00 | |
| DJ2KF-10 | 2026-08-30 12:37:46 | 51.66903 | 8.15628 | 241° | 13km/h | 25427m | -25.6m/s | -50.5°C | 3.3% | 25.2hPa | 2.7V | 00:00:00 | 02:19:55 | 00:00:00 | |
| DL1KLB | 2026-08-30 12:37:45 | 51.66903 | 8.15628 | 242° | 16km/h | 25427m | -25.6m/s | -50.5°C | 0.7% | 25.3hPa | 2.7V | 08:27:00 | 00:00:00 | 00:00:00 | |
| DL3AQ-11 | 2026-08-30 12:37:44 | 51.66912 | 8.15645 | 218° | 18km/h | 25502m | -25.0m/s | -50.5°C | 0.7% | 25.0hPa | 2.7V | 00:00:00 | 00:00:00 | 00:00:00 | |
| DM0DOS-11 | 2026-08-30 12:37:43 | 51.66922 | 8.15656 | 202° | 7km/h | 25578m | -25.7m/s | -50.3°C | 3.3% | 24.7hPa | 2.7V | 08:27:17 | 02:19:49 | 00:00:00 | |
| DO2JMG | 2026-08-30 12:37:42 | 51.66916 | 8.15650 | 216° | 18km/h | 25527m | -25.1m/s | -50.5°C | 0.1% | 24.9hPa | 2.7V | 08:27:42 | 02:19:51 | 00:00:00 | |
| DL1XH-15 | 2026-08-30 12:37:41 | 51.66923 | 8.15659 | 280° | 4km/h | 25627m | -24.2m/s | -50.1°C | 3.2% | 24.5hPa | 2.6V | 08:27:19 | 02:19:47 | 00:00:00 | |
| HSKMA3-T | 2026-08-30 12:37:41 | 51.66919 | 8.15654 | 212° | 15km/h | 25552m | -25.9m/s | -50.4°C | 0% | 24.8hPa | 2.7V | 08:27:42 | 02:19:50 | 00:00:00 | |
| DL1XH-west | 2026-08-30 12:37:41 | 51.66922 | 8.15656 | 203° | 7km/h | 25578m | -25.7m/s | -50.3°C | 0% | 24.7hPa | 2.7V | 08:27:42 | 02:19:49 | 00:00:00 | |
| BIOWL1-15 | 2026-08-30 12:37:39 | 51.66923 | 8.15657 | 239° | 4km/h | 25603m | -24.1m/s | -50.3°C | 0% | 24.6hPa | 2.6V | 08:27:42 | 02:19:48 | 00:00:00 | |
| DL1XH1-15 | 2026-08-30 12:37:39 | 51.66913 | 8.15666 | 342° | 16km/h | 25726m | -25.6m/s | -49.9°C | 3.1% | 24.1hPa | 2.6V | 08:27:23 | 02:19:43 | 00:00:00 | |
| DL4BBY-15 | 2026-08-30 12:37:39 | 51.66923 | 8.15657 | 239° | 15km/h | 25603m | -24.0m/s | -49.8°C | 0% | 0hPa | 2.6V | 00:00:00 | 00:00:00 | 00:00:00 | |
| DJ8HS-15 | 2026-08-30 12:37:38 | 51.66923 | 8.15659 | 281° | 13km/h | 25627m | -24.2m/s | -50.1°C | 3.2% | 24.4hPa | 2.6V | 00:00:00 | 02:19:47 | 00:00:00 | |
| DL8DAS-14 | 2026-08-30 12:37:37 | 51.66920 | 8.15661 | 339° | 11km/h | 25677m | -25.0m/s | -50.1°C | 0.7% | 24.3hPa | 2.6V | 00:00:00 | 00:00:00 | 00:00:00 | |
| DD1CC3-15 | 2026-08-30 12:37:36 | 51.66904 | 8.15673 | 325° | 22km/h | 25777m | -25.5m/s | -50.0°C | 0.7% | 23.9hPa | 2.6V | 08:27:00 | 00:00:00 | 00:00:00 | |
| DM0DOS-11 | 2026-08-30 12:37:35 | 51.66896 | 8.15682 | 316° | 18km/h | 25827m | -24.9m/s | -50.1°C | 3.2% | 23.7hPa | 2.6V | 08:27:27 | 02:19:39 | 00:00:00 | |
| AA1-15 | 2026-08-30 12:37:32 | 51.66904 | 8.15673 | 324° | 22km/h | 25777m | -25.5m/s | -50°C | 0% | 23.9hPa | 2.7V | 08:27:42 | 02:19:41 | 00:00:00 | |
| DO2JMG | 2026-08-30 12:37:31 | 51.66900 | 8.15677 | 319° | 16km/h | 25802m | -25.5m/s | -50.1°C | 0% | 23.9hPa | 2.7V | 08:27:42 | 02:19:40 | 00:00:00 | |
| DL1XH-15 | 2026-08-30 12:37:31 | 51.66892 | 8.15691 | 313° | 13km/h | 25878m | -26m/s | -50.3°C | 3.2% | 23.6hPa | 2.6V | 08:27:29 | 02:19:37 | 00:00:00 | |
| DL1XH-west | 2026-08-30 12:37:30 | 51.66897 | 8.15682 | 317° | 18km/h | 25827m | -24.9m/s | -50.1°C | 0% | 23.8hPa | 2.6V | 08:27:42 | 02:19:39 | 00:00:00 | |
| BIOWL1-15 | 2026-08-30 12:37:28 | 51.66892 | 8.15691 | 313° | 13km/h | 25878m | -26m/s | -50.3°C | 0% | 23.6hPa | 2.6V | 08:27:42 | 02:19:37 | 00:00:00 | |
| DL3AQ-11 | 2026-08-30 12:37:28 | 51.66890 | 8.15695 | 290° | 9km/h | 25904m | -25.8m/s | -50.4°C | 0.7% | 23.5hPa | 2.7V | 00:00:00 | 00:00:00 | 00:00:00 | |
| DL1ZP-14 | 2026-08-30 12:37:27 | 51.66889 | 8.15699 | 285° | 7km/h | 25930m | -26.4m/s | -50.6°C | 0.7% | 23.4hPa | 2.7V | 00:00:00 | 00:00:00 | 00:00:00 | |
| DL1XH1-15 | 2026-08-30 12:37:26 | 51.66890 | 8.15705 | 235° | 7km/h | 25982m | -26m/s | -50.9°C | 3.4% | 23.2hPa | 2.6V | 08:27:33 | 02:19:33 | 00:00:00 | |
| DB0ND-19 | 2026-08-30 12:37:25 | 51.66889 | 8.15702 | 259° | 9km/h | 25956m | -25.9m/s | -50.8°C | 0.8% | 23.3hPa | 2.6V | 00:00:00 | 00:00:00 | 00:00:00 | |
| DD8BA-10 | 2026-08-30 12:37:24 | 51.66890 | 8.15705 | 236° | 13km/h | 25982m | -26.0m/s | -50.8°C | 3.4% | 23.1hPa | 2.6V | 00:00:00 | 00:00:00 | 00:00:00 | |
| DO2KSM | 2026-08-30 12:37:23 | 51.66890 | 8.15705 | 236° | 7km/h | 25982m | -26.0m/s | -50.9°C | 0.8% | 23.2hPa | 2.6V | 08:27:00 | 00:00:00 | 00:00:00 | |
| DL1XH-15 | 2026-08-30 12:37:22 | 51.66895 | 8.15727 | 268° | 15km/h | 26139m | -26.1m/s | -50.6°C | 3.4% | 22.6hPa | 2.6V | 08:27:39 | 02:19:27 | 00:00:00 | |
| AA1-15 | 2026-08-30 12:37:21 | 51.66893 | 8.15714 | 249° | 11km/h | 26060m | -26.6m/s | -50.8°C | 0.1% | 22.9hPa | 2.7V | 08:27:42 | 02:19:30 | 00:00:00 | |
| DM0DOS-11 | 2026-08-30 12:37:20 | 51.66894 | 8.15718 | 248° | 9km/h | 26087m | -26.4m/s | -50.7°C | 3.4% | 22.8hPa | 2.7V | 08:27:37 | 02:19:29 | 00:00:00 | |
| DL1XH-west | 2026-08-30 12:37:20 | 51.66894 | 8.15718 | 248° | 9km/h | 26087m | -26.4m/s | -50.7°C | 0.1% | 22.8hPa | 2.7V | 08:27:42 | 02:19:29 | 00:00:00 | |
| BIOWL1-15 | 2026-08-30 12:37:17 | 51.66894 | 8.15733 | 282° | 13km/h | 26165m | -25.9m/s | -50.4°C | 0.1% | 22.5hPa | 2.6V | 08:27:42 | 02:19:26 | 00:00:00 | |
| DJ2KF-10 | 2026-08-30 12:37:16 | 51.66893 | 8.15739 | 296° | 20km/h | 26191m | -25.7m/s | -50.1°C | 3.3% | 22.4hPa | 2.7V | 00:00:00 | 02:19:25 | 00:00:00 | |
| DM0DOS-11 | 2026-08-30 12:37:15 | 51.66870 | 8.15773 | 337° | 24km/h | 26351m | -27.5m/s | -50.3°C | 3.4% | 21.9hPa | 2.7V | 08:27:47 | 02:19:19 | 00:00:00 | |
| DL3AQ-11 | 2026-08-30 12:37:15 | 51.66888 | 8.15751 | 313° | 18km/h | 26244m | -26.7m/s | -50.2°C | 0.7% | 22.3hPa | 2.6V | 00:00:00 | 00:00:00 | 00:00:00 | |
| DO3DL | 2026-08-30 12:37:14 | 51.66888 | 8.15751 | 315° | 18km/h | 26244m | -26.7m/s | -50.2°C | 0.7% | 22.3hPa | 2.6V | 08:28:00 | 00:00:00 | 00:00:00 | |
| DB0UT-7 | 2026-08-30 12:37:13 | 51.66884 | 8.15757 | 321° | 20km/h | 26271m | -26.5m/s | -50.2°C | 3.4% | 22.1hPa | 2.6V | 00:00:00 | 00:00:00 | 00:00:00 | |
| AU51GT2 | 2026-08-30 12:37:12 | 51.66880 | 8.15763 | 320° | 22km/h | 26298m | -26.9m/s | -50.3°C | 0.7% | 22.1hPa | 2.6V | 00:00:00 | 00:00:00 | 00:00:00 | |
| DL1XH-15 | 2026-08-30 12:37:11 | 51.66859 | 8.15779 | 345° | 22km/h | 26406m | -27.4m/s | -50.2°C | 3.4% | 21.7hPa | 2.6V | 08:27:49 | 02:19:17 | 00:00:00 | |
| AA1-15 | 2026-08-30 12:37:11 | 51.66875 | 8.15769 | 329° | 22km/h | 26324m | -26.9m/s | -50.3°C | 0.1% | 22hPa | 2.7V | 08:28:33 | 02:19:20 | 00:00:00 | |
| DO2JMG | 2026-08-30 12:37:10 | 51.66870 | 8.15773 | 338° | 24km/h | 26351m | -27.5m/s | -50.3°C | 0.1% | 21.9hPa | 2.7V | 08:28:33 | 02:19:19 | 00:00:00 | |
| DL1XH-west | 2026-08-30 12:37:09 | 51.66865 | 8.15776 | 343° | 24km/h | 26379m | -27.3m/s | -50.3°C | 0.1% | 21.8hPa | 2.6V | 08:28:33 | 02:19:18 | 00:00:00 | |
| BIOWL1-15 | 2026-08-30 12:37:07 | 51.66843 | 8.15787 | 345° | 18km/h | 26489m | -27.7m/s | -50°C | 0% | 21.5hPa | 2.7V | 08:28:33 | 02:19:14 | 00:00:00 | |
| DD1CC2-15 | 2026-08-30 12:37:07 | 51.66853 | 8.15781 | 347° | 24km/h | 26434m | -27.5m/s | -50.1°C | 0.8% | 21.6hPa | 2.7V | 08:28:00 | 00:00:00 | 00:00:00 | |
| SONDE2-11 | 2026-08-30 12:37:06 | 51.66848 | 8.15784 | 339° | 20km/h | 26461m | -27.6m/s | 0°C | -1.0% | -1.0hPa | 2.7V | 00:00:00 | 00:00:00 | 00:00:00 | |
| DL1NUX | 2026-08-30 12:37:05 | 51.66819 | 8.15794 | 355° | 20km/h | 26625m | -27.3m/s | -49.9°C | 3.3% | 21hPa | 2.7V | 08:27:57 | 02:19:09 | 00:00:00 | |
| DL1KLB | 2026-08-30 12:37:04 | 51.66838 | 8.15789 | 344° | 22km/h | 26517m | -27.1m/s | -50.0°C | 0.7% | 21.4hPa | 2.7V | 08:28:00 | 00:00:00 | 00:00:00 | |
| DO2KSM | 2026-08-30 12:37:02 | 51.66833 | 8.15791 | 342° | 16km/h | 26544m | -27.2m/s | -50.0°C | 0.7% | 21.3hPa | 2.7V | 08:28:00 | 00:00:00 | 00:00:00 | |
| DL1XH-15 | 2026-08-30 12:37:01 | 51.66810 | 8.15794 | 359° | 20km/h | 26680m | -28m/s | -49.8°C | 3.3% | 20.8hPa | 2.7V | 08:27:59 | 02:19:07 | 00:00:00 | |
| AA1-15 | 2026-08-30 12:37:00 | 51.66819 | 8.15794 | 356° | 20km/h | 26625m | -27.3m/s | -49.9°C | 0% | 21hPa | 2.7V | 08:28:33 | 02:19:09 | 00:00:00 | |
| DO2JMG | 2026-08-30 12:36:59 | 51.66815 | 8.15794 | 7° | 16km/h | 26652m | -28.1m/s | -49.9°C | 0% | 20.9hPa | 2.7V | 08:28:33 | 02:19:08 | 00:00:00 | |
| DL1XH-west | 2026-08-30 12:36:58 | 51.66810 | 8.15794 | 359° | 20km/h | 26680m | -28m/s | -49.8°C | 0% | 20.8hPa | 2.7V | 08:28:33 | 02:19:07 | 00:00:00 | |
| BIOWL1-15 | 2026-08-30 12:36:57 | 51.66798 | 8.15794 | 359° | 13km/h | 26763m | -27.5m/s | -49.6°C | 0% | 20.6hPa | 2.7V | 08:28:33 | 02:19:04 | 00:00:00 | |
| DL1NUX | 2026-08-30 12:36:55 | 51.66782 | 8.15805 | 313° | 18km/h | 26902m | -28.1m/s | -49°C | 3.1% | 20.1hPa | 2.7V | 08:28:07 | 02:18:59 | 00:00:00 | |
| DC4HF-4 | 2026-08-30 12:36:54 | 51.66792 | 8.15796 | 339° | 11km/h | 26819m | -28.1m/s | -49.4°C | 0.7% | 20.4hPa | 2.6V | 00:00:00 | 00:00:00 | 00:00:00 | |
| S3001 | 2026-08-30 12:36:53 | 51.66789 | 8.15797 | 337° | 11km/h | 26847m | -28.5m/s | -49.3°C | -1.0% | -1.0hPa | 2.6V | 00:00:00 | 00:00:00 | 00:00:00 | |
| BUE01 | 2026-08-30 12:36:52 | 51.66786 | 8.15800 | 324° | 16km/h | 26875m | -27.5m/s | -49.2°C | 0.7% | 20.2hPa | 2.6V | 00:00:00 | 00:00:00 | 00:00:00 | |
| DL1XH-15 | 2026-08-30 12:36:51 | 51.66776 | 8.15817 | 307° | 24km/h | 26959m | -27.8m/s | -49°C | 3.1% | 19.9hPa | 2.6V | 08:28:09 | 02:18:57 | 00:00:00 | |
| DO2JMG | 2026-08-30 12:36:49 | 51.66779 | 8.15811 | 316° | 20km/h | 26931m | -28.4m/s | -49°C | 0% | 20hPa | 2.7V | 08:28:33 | 02:18:58 | 00:00:00 | |
| DL1XH-west | 2026-08-30 12:36:48 | 51.66772 | 8.15825 | 314° | 26km/h | 26987m | -28.5m/s | -49°C | 0% | 19.9hPa | 2.6V | 08:28:33 | 02:18:56 | 00:00:00 | |
| HSKMA3-T | 2026-08-30 12:36:48 | 51.66776 | 8.15817 | 308° | 24km/h | 26959m | -27.8m/s | -49°C | 0% | 20hPa | 2.6V | 08:28:33 | 02:18:57 | 00:00:00 | |
| BIOWL1-15 | 2026-08-30 12:36:46 | 51.66767 | 8.15833 | 311° | 29km/h | 27015m | -28.5m/s | -48.9°C | 0% | 19.8hPa | 2.6V | 08:28:33 | 02:18:55 | 00:00:00 | |
| DJ2KF-10 | 2026-08-30 12:36:46 | 51.66767 | 8.15833 | 311° | 18km/h | 27015m | -28.5m/s | -48.9°C | 3.1% | 19.7hPa | 2.6V | 00:00:00 | 02:18:55 | 00:00:00 | |
| DM0DOS-11 | 2026-08-30 12:36:45 | 51.66733 | 8.15868 | 354° | 22km/h | 27186m | -28.7m/s | -49.3°C | 3.2% | 19.3hPa | 2.6V | 08:28:17 | 02:18:49 | 00:00:00 | |
| DD8BA-10 | 2026-08-30 12:36:44 | 51.66756 | 8.15848 | 323° | 24km/h | 27072m | -28.3m/s | -49.1°C | 3.1% | 19.5hPa | 2.7V | 00:00:00 | 00:00:00 | 00:00:00 | |
| DB0UT-7 | 2026-08-30 12:36:43 | 51.66751 | 8.15856 | 323° | 18km/h | 27101m | -28.9m/s | -49.2°C | 3.2% | 19.5hPa | 2.7V | 00:00:00 | 02:18:52 | 00:00:00 | |
| DL1XH-15 | 2026-08-30 12:36:41 | 51.66721 | 8.15868 | 12° | 20km/h | 27244m | -29.1m/s | -49.4°C | 3.3% | 19.1hPa | 2.7V | 08:28:19 | 02:18:47 | 00:00:00 | |
| DO2JMG | 2026-08-30 12:36:38 | 51.66721 | 8.15868 | 13° | 20km/h | 27244m | -29.1m/s | -49.4°C | 0% | 19.1hPa | 2.7V | 08:28:33 | 02:18:47 | 00:00:00 | |
| DL1XH-west | 2026-08-30 12:36:37 | 51.66716 | 8.15867 | 6° | 22km/h | 27273m | -28.4m/s | -49.5°C | 0.1% | 19hPa | 2.7V | 08:28:33 | 02:18:46 | 00:00:00 | |
| BIOWL1-15 | 2026-08-30 12:36:36 | 51.66711 | 8.15866 | 13° | 16km/h | 27301m | -28.5m/s | -49.6°C | 0.1% | 18.9hPa | 2.6V | 08:28:33 | 02:18:45 | 00:00:00 | |
| DL1NUX | 2026-08-30 12:36:35 | 51.66692 | 8.15869 | 310° | 7km/h | 27475m | -30.1m/s | -48.9°C | 3.2% | 18.4hPa | 2.7V | 08:28:27 | 02:18:39 | 00:00:00 | |
| DL3AQ-11 | 2026-08-30 12:36:35 | 51.66703 | 8.15864 | 9° | 13km/h | 27358m | -29.6m/s | -49.6°C | 0.7% | 18.8hPa | 2.7V | 00:00:00 | 00:00:00 | 00:00:00 | |
| DD8BA-10 | 2026-08-30 12:36:34 | 51.66703 | 8.15864 | 10° | 11km/h | 27358m | -29.5m/s | -49.6°C | 3.4% | 18.7hPa | 2.7V | 00:00:00 | 00:00:00 | 00:00:00 | |
| DO3DL | 2026-08-30 12:36:33 | 51.66700 | 8.15864 | 347° | 15km/h | 27388m | -28.8m/s | -49.5°C | 0.7% | 18.7hPa | 2.7V | 08:28:00 | 00:00:00 | 00:00:00 | |
| DD1CC3-15 | 2026-08-30 12:36:30 | 51.66694 | 8.15867 | 330° | 13km/h | 27447m | -29.3m/s | -49.2°C | 0.7% | 18.5hPa | 2.7V | 08:28:00 | 00:00:00 | 00:00:00 | |
| DL1XH1-15 | 2026-08-30 12:36:29 | 51.66689 | 8.15896 | 276° | 11km/h | 27655m | -30.4m/s | -47.6°C | 2.8% | 17.9hPa | 2.7V | 08:28:33 | 02:18:33 | 00:00:00 | |
| DO2JMG | 2026-08-30 12:36:28 | 51.66690 | 8.15876 | 275° | 11km/h | 27534m | -30.1m/s | -48.2°C | 0% | 18.3hPa | 2.7V | 08:28:33 | 02:18:37 | 00:00:00 | |
| HSKMA3-T | 2026-08-30 12:36:27 | 51.66690 | 8.15881 | 282° | 13km/h | 27565m | -29.7m/s | -48°C | 0% | 18.2hPa | 2.6V | 08:28:33 | 02:18:36 | 00:00:00 | |
| DL1XH-west | 2026-08-30 12:36:26 | 51.66689 | 8.15886 | 267° | 11km/h | 27594m | -30.6m/s | -47.9°C | 0% | 18.1hPa | 2.6V | 08:28:33 | 02:18:35 | 00:00:00 | |
| BIOWL1-15 | 2026-08-30 12:36:25 | 51.66689 | 8.15891 | 272° | 15km/h | 27624m | -30.4m/s | -47.8°C | 0% | 18hPa | 2.6V | 08:28:33 | 02:18:34 | 00:00:00 | |
| DD8BA-10 | 2026-08-30 12:36:24 | 51.66689 | 8.15896 | 277° | 20km/h | 27655m | -30.3m/s | -47.5°C | 2.8% | 17.9hPa | 2.6V | 00:00:00 | 00:00:00 | 00:00:00 | |
| DM0DOS-11 | 2026-08-30 12:36:23 | 51.66679 | 8.15916 | 323° | 20km/h | 27775m | -31.5m/s | -47.4°C | 2.8% | 17.6hPa | 2.6V | 08:28:37 | 02:18:29 | 00:00:00 | |
| S3001 | 2026-08-30 12:36:22 | 51.66680 | 8.15916 | 323° | 18km/h | 27775m | -31.5m/s | 0°C | -1.0% | -1.0hPa | 2.7V | 00:00:00 | 00:00:00 | 00:00:00 | |
| DL1XH-15 | 2026-08-30 12:36:21 | 51.66657 | 8.15938 | 327° | 27km/h | 27896m | -31.1m/s | -47.6°C | 2.8% | 17.3hPa | 2.7V | 08:28:41 | 02:18:25 | 00:00:00 | |
| DO2JMG | 2026-08-30 12:36:18 | 51.66669 | 8.15927 | 326° | 26km/h | 27835m | -30.3m/s | -47.2°C | 0% | 17.5hPa | 2.7V | 08:29:24 | 02:18:27 | 00:00:00 | |
| HSKMA3-T | 2026-08-30 12:36:17 | 51.66663 | 8.15932 | 333° | 29km/h | 27865m | -30.4m/s | -47.4°C | 0% | 17.4hPa | 2.7V | 08:29:24 | 02:18:26 | 00:00:00 | |
| AA1-15 | 2026-08-30 12:36:16 | 51.66657 | 8.15938 | 328° | 27km/h | 27896m | -31.1m/s | -47.6°C | 0% | 17.3hPa | 2.7V | 08:29:24 | 02:18:25 | 00:00:00 | |
| DL1XH1-15 | 2026-08-30 12:36:16 | 51.66645 | 8.15947 | 336° | 26km/h | 27958m | -30.8m/s | -48°C | 3% | 17.1hPa | 2.6V | 08:28:43 | 02:18:23 | 00:00:00 | |
| DL1XH-west | 2026-08-30 12:36:15 | 51.66651 | 8.15943 | 337° | 26km/h | 27927m | -31m/s | -47.8°C | 0% | 17.2hPa | 2.6V | 08:29:24 | 02:18:24 | 00:00:00 | |
| BIOWL1-15 | 2026-08-30 12:36:14 | 51.66635 | 8.15952 | 359° | 18km/h | 28019m | -30.9m/s | -48.2°C | 0% | 16.9hPa | 2.7V | 08:29:24 | 02:18:21 | 00:00:00 | |
| DB0NH | 2026-08-30 12:36:14 | 51.66645 | 8.15947 | 337° | 18km/h | 27958m | -30.7m/s | -47.9°C | 3.0% | 17.1hPa | 2.7V | 00:00:00 | 02:18:23 | 00:00:00 | |
| DB0UT-7 | 2026-08-30 12:36:13 | 51.66640 | 8.15951 | 342° | 18km/h | 27989m | -30.8m/s | -48.1°C | 3.0% | 17.0hPa | 2.7V | 00:00:00 | 00:00:00 | 00:00:00 | |
| DL1XH-15 | 2026-08-30 12:36:12 | 51.66611 | 8.15938 | 37° | 16km/h | 28206m | -31.7m/s | -48.4°C | 3.2% | 16.5hPa | 2.7V | 08:28:51 | 02:18:15 | 00:00:00 | |
| DO2JMG | 2026-08-30 12:36:07 | 51.66614 | 8.15942 | 28° | 16km/h | 28175m | -31.1m/s | -48.4°C | 0% | 16.6hPa | 2.7V | 08:29:24 | 02:18:16 | 00:00:00 | |
| HSKMA3-T | 2026-08-30 12:36:06 | 51.66611 | 8.15938 | 38° | 16km/h | 28206m | -31.7m/s | -48.4°C | 0% | 16.5hPa | 2.7V | 08:29:24 | 02:18:15 | 00:00:00 | |
| DL1XH-west | 2026-08-30 12:36:05 | 51.66607 | 8.15935 | 26° | 15km/h | 28237m | -31.1m/s | -48.4°C | 0% | 16.4hPa | 2.7V | 08:29:24 | 02:18:14 | 00:00:00 | |
| BIOWL1-15 | 2026-08-30 12:36:01 | 51.66598 | 8.15931 | 265° | 7km/h | 28486m | -31.6m/s | -47.6°C | 0% | 15.8hPa | 2.6V | 08:29:24 | 02:18:06 | 00:00:00 | |
| DL1XH-15 | 2026-08-30 12:36:01 | 51.66597 | 8.15934 | 293° | 7km/h | 28518m | -32.1m/s | -47.6°C | 3% | 15.7hPa | 2.7V | 08:29:01 | 02:18:05 | 00:00:00 | |
| HSKMA3-T | 2026-08-30 12:35:56 | 51.66597 | 8.15934 | 293° | 7km/h | 28518m | -32.1m/s | -47.6°C | 0% | 15.7hPa | 2.7V | 08:29:24 | 02:18:05 | 00:00:00 | |
| AA1-15 | 2026-08-30 12:35:55 | 51.66596 | 8.15938 | 296° | 13km/h | 28549m | -31.2m/s | -47.7°C | 0% | 15.6hPa | 2.7V | 08:29:24 | 02:18:04 | 00:00:00 | |
| DL1XH-west | 2026-08-30 12:35:54 | 51.66594 | 8.15942 | 311° | 15km/h | 28580m | -31m/s | -47.8°C | 0% | 15.5hPa | 2.6V | 08:29:24 | 02:18:03 | 00:00:00 | |
| BIOWL1-15 | 2026-08-30 12:35:50 | 51.66565 | 8.15989 | 324° | 35km/h | 28766m | -30.1m/s | -46.8°C | 0% | 15.1hPa | 2.6V | 08:29:24 | 02:17:57 | 00:00:00 | |
| DO9LL-15 | 2026-08-30 12:35:50 | 51.66577 | 8.15972 | 312° | 38km/h | 28706m | -30.5m/s | -47.1°C | 2.9% | 15.2hPa | 2.7V | 00:00:00 | 02:17:59 | 00:00:00 | |
| DM0DOS-11 | 2026-08-30 12:35:49 | 51.66550 | 8.16004 | 335° | 35km/h | 28824m | -29.2m/s | -46.9°C | 2.8% | 15hPa | 2.7V | 08:29:11 | 02:17:55 | 00:00:00 | |
| DL1XH1-15 | 2026-08-30 12:35:49 | 51.66533 | 8.16014 | 349° | 37km/h | 28882m | -28.5m/s | -46.9°C | 2.8% | 14.8hPa | 2.7V | 08:29:13 | 02:17:53 | 00:00:00 | |
| DO2JMG | 2026-08-30 12:35:46 | 51.66550 | 8.16004 | 336° | 35km/h | 28824m | -29.2m/s | -46.9°C | 0% | 15hPa | 2.7V | 08:29:24 | 02:17:55 | 00:00:00 | |
| HSKMA3-T | 2026-08-30 12:35:45 | 51.66542 | 8.16010 | 340° | 37km/h | 28854m | -29.2m/s | -46.9°C | 0% | 14.9hPa | 2.7V | 08:29:24 | 02:17:54 | 00:00:00 | |
| AA1-15 | 2026-08-30 12:35:44 | 51.66533 | 8.16014 | 350° | 37km/h | 28882m | -28.5m/s | -46.9°C | 0% | 14.8hPa | 2.7V | 08:29:24 | 02:17:53 | 00:00:00 | |
| DL3AQ-11 | 2026-08-30 12:35:44 | 51.66523 | 8.16016 | 351° | 38km/h | 28911m | -29.2m/s | -46.8°C | 0.6% | 14.8hPa | 2.6V | 00:00:00 | 00:00:00 | 00:00:00 | |
| DB0UT-7 | 2026-08-30 12:35:43 | 51.66523 | 8.16016 | 352° | 37km/h | 28911m | -29.1m/s | -46.7°C | 2.8% | 14.7hPa | 2.6V | 00:00:00 | 02:17:52 | 00:00:00 | |
| DL1KLB | 2026-08-30 12:35:41 | 51.66514 | 8.16018 | 356° | 37km/h | 28940m | -28.3m/s | -46.7°C | 0.6% | 14.7hPa | 2.6V | 08:29:00 | 00:00:00 | 00:00:00 | |
| DO3DL | 2026-08-30 12:35:40 | 51.66495 | 8.16018 | 2° | 37km/h | 28997m | -28.9m/s | -46.7°C | 0.6% | 14.6hPa | 2.6V | 08:29:00 | 00:00:00 | 00:00:00 | |
| AU51GT2 | 2026-08-30 12:35:39 | 51.66476 | 8.16016 | 3° | 38km/h | 29053m | -28.1m/s | -46.7°C | 0.6% | 14.4hPa | 2.6V | 00:00:00 | 00:00:00 | 00:00:00 | |
| DM0DOS-11 | 2026-08-30 12:35:38 | 51.66455 | 8.16012 | 3° | 46km/h | 29108m | -28.1m/s | -46.6°C | 2.8% | 14.3hPa | 2.6V | 08:29:21 | 02:17:45 | 00:00:00 | |
| BIOWL1-15 | 2026-08-30 12:35:38 | 51.66476 | 8.16016 | 3° | 38km/h | 29053m | -28.1m/s | -46.7°C | 0% | 14.4hPa | 2.7V | 08:29:24 | 02:17:47 | 00:00:00 | |
| DJ8HS-15 | 2026-08-30 12:35:38 | 51.66476 | 8.16016 | 4° | 42km/h | 29053m | -28.1m/s | -46.7°C | 2.9% | 14.4hPa | 2.7V | 00:00:00 | 02:17:47 | 00:00:00 | |
| DL1XH1-15 | 2026-08-30 12:35:36 | 51.66431 | 8.16010 | 1° | 51km/h | 29164m | -28m/s | -46.5°C | 2.9% | 14.2hPa | 2.7V | 08:29:23 | 02:17:43 | 00:00:00 | |
| DO2JMG | 2026-08-30 12:35:36 | 51.66455 | 8.16012 | 3° | 46km/h | 29108m | -28.1m/s | -46.6°C | 0% | 14.3hPa | 2.6V | 08:29:24 | 02:17:45 | 00:00:00 | |
| DD1CC8 | 2026-08-30 12:35:36 | 51.66431 | 8.16010 | 1° | 51km/h | 29164m | -28.0m/s | -46.5°C | 0.6% | 14.2hPa | 2.6V | 00:00:00 | 00:00:00 | 00:00:00 | |
| DL1NUX | 2026-08-30 12:35:35 | 51.66379 | 8.16006 | 12° | 49km/h | 29277m | -30.4m/s | -46.5°C | 2.8% | 14hPa | 2.6V | 08:30:00 | 02:17:39 | 00:00:00 | |
| HSKMA3-T | 2026-08-30 12:35:34 | 51.66431 | 8.16010 | 1° | 51km/h | 29164m | -28m/s | -46.5°C | 0% | 14.2hPa | 2.7V | 08:29:24 | 02:17:43 | 00:00:00 | |
| AA1-15 | 2026-08-30 12:35:33 | 51.66418 | 8.16010 | 359° | 51km/h | 29191m | -27.8m/s | -46.5°C | 0% | 14.2hPa | 2.7V | 08:29:24 | 02:17:42 | 00:00:00 | |
| DL8DAS-14 | 2026-08-30 12:35:33 | 51.66405 | 8.16010 | 3° | 51km/h | 29219m | -28.5m/s | -46.6°C | 0.6% | 14.1hPa | 2.6V | 00:00:00 | 00:00:00 | 00:00:00 | |
| GOEST3-10 | 2026-08-30 12:35:29 | 51.66367 | 8.16001 | 17° | 42km/h | 29308m | -29.4m/s | -46.4°C | 2.8% | 13.8hPa | 2.6V | 00:00:00 | 00:00:00 | 00:00:00 | |
| DM0DOS-11 | 2026-08-30 12:35:28 | 51.66339 | 8.15974 | 51° | 40km/h | 29395m | -29m/s | -46.5°C | 2.8% | 13.7hPa | 2.6V | 08:30:00 | 02:17:35 | 00:00:00 | |
| DO3DL | 2026-08-30 12:35:27 | 51.66346 | 8.15986 | 40° | 42km/h | 29366m | -29.0m/s | -46.4°C | 0.6% | 13.8hPa | 2.6V | 00:00:00 | 00:00:00 | 00:00:00 | |
| DL1XH1-15 | 2026-08-30 12:35:26 | 51.66331 | 8.15947 | 90° | 38km/h | 29450m | -27.1m/s | -46.4°C | 2.7% | 13.6hPa | 2.6V | 08:30:00 | 02:17:33 | 00:00:00 | |
| DO2JMG | 2026-08-30 12:35:25 | 51.66334 | 8.15961 | 67° | 37km/h | 29423m | -27.1m/s | -46.5°C | 0% | 13.6hPa | 2.6V | 18:12:15 | 02:17:34 | 00:00:00 | |
| HSKMA3-T | 2026-08-30 12:35:24 | 51.66332 | 8.15947 | 90° | 38km/h | 29450m | -27.1m/s | -46.4°C | 0% | 13.6hPa | 2.6V | 18:12:15 | 02:17:33 | 00:00:00 | |
| DL1XH-west | 2026-08-30 12:35:23 | 51.66333 | 8.15931 | 105° | 38km/h | 29477m | -26.7m/s | -46.4°C | 0% | 13.5hPa | 2.7V | 18:12:15 | 02:17:32 | 00:00:00 | |
| AA1-15 | 2026-08-30 12:35:22 | 51.66336 | 8.15917 | 118° | 40km/h | 29504m | -28.5m/s | -46.4°C | 0% | 13.5hPa | 2.7V | 18:12:15 | 02:17:31 | 00:00:00 | |
| BIOWL1-15 | 2026-08-30 12:35:18 | 51.66358 | 8.15881 | 68° | 4km/h | 29673m | -27.1m/s | -45.8°C | 0% | 13.1hPa | 2.6V | 18:12:15 | 02:17:25 | 00:00:00 | |
| DJ8HS-15 | 2026-08-30 12:35:18 | 51.66354 | 8.15884 | 151° | 18km/h | 29620m | -27.2m/s | -46.0°C | 2.8% | 13.2hPa | 2.7V | 00:00:00 | 02:17:27 | 00:00:00 | |
| DL1XH1-15 | 2026-08-30 12:35:16 | 51.66354 | 8.15880 | 9° | 11km/h | 29727m | -28.3m/s | -45.7°C | 2.7% | 13hPa | 2.7V | 08:30:00 | 02:17:23 | 00:00:00 | |
| DO2JMG | 2026-08-30 12:35:15 | 51.66357 | 8.15881 | 5° | 9km/h | 29700m | -26.6m/s | -45.7°C | 0% | 13.1hPa | 2.6V | 18:12:15 | 02:17:24 | 00:00:00 | |
| HSKMA3-T | 2026-08-30 12:35:13 | 51.66351 | 8.15878 | 25° | 16km/h | 29755m | -28.6m/s | -45.8°C | 0% | 12.9hPa | 2.7V | 18:12:15 | 02:17:22 | 00:00:00 | |
| AA1-15 | 2026-08-30 12:35:11 | 51.66345 | 8.15870 | 64° | 16km/h | 29813m | -27.9m/s | -45.9°C | 0% | 12.8hPa | 2.6V | 18:12:15 | 02:17:20 | 00:00:00 | |
| DB0DAN | 2026-08-30 12:35:10 | 51.66344 | 8.15863 | 80° | 20km/h | 29841m | -28m/s | -45.9°C | 0.6% | 12.8hPa | 2.6V | 00:00:00 | 00:00:00 | 00:00:00 | |
| DJTTGO | 2026-08-30 12:35:09 | 51.66343 | 8.15854 | 94° | 22km/h | 29869m | -26.9m/s | -45.9°C | 0.6% | 12.8hPa | 2.7V | 00:00:00 | 00:00:00 | 00:00:00 | |
| DM0DOS-11 | 2026-08-30 12:35:07 | 51.66353 | 8.15829 | 148° | 26km/h | 29950m | -26.9m/s | -45.8°C | 2.7% | 12.6hPa | 2.7V | 08:30:00 | 02:17:15 | 00:00:00 | |
| BIOWL1-15 | 2026-08-30 12:35:07 | 51.66359 | 8.15825 | 159° | 26km/h | 29977m | -27.4m/s | -45.7°C | 0% | 12.5hPa | 2.6V | 18:12:15 | 02:17:14 | 00:00:00 | |
| DO3DL | 2026-08-30 12:35:07 | 51.66348 | 8.15836 | 132° | 24km/h | 29923m | -27.9m/s | -45.9°C | 0.6% | 12.6hPa | 2.6V | 00:00:00 | 00:00:00 | 00:00:00 | |
| DL1XH1-15 | 2026-08-30 12:35:06 | 51.66365 | 8.15823 | 180° | 24km/h | 30004m | -26.5m/s | -45.7°C | 2.7% | 12.5hPa | 2.6V | 08:30:00 | 02:17:13 | 00:00:00 | |
| DO2JMG | 2026-08-30 12:35:04 | 51.66365 | 8.15823 | 181° | 24km/h | 30004m | -26.5m/s | -45.7°C | 0% | 12.5hPa | 2.6V | 18:12:15 | 02:17:13 | 00:00:00 | |
| HSKMA3-T | 2026-08-30 12:35:03 | 51.66371 | 8.15824 | 186° | 22km/h | 30031m | -27.8m/s | -45.7°C | 0% | 12.4hPa | 2.6V | 18:12:15 | 02:17:12 | 00:00:00 | |
| AA1-15 | 2026-08-30 12:35:00 | 51.66382 | 8.15835 | 241° | 13km/h | 30112m | -27.2m/s | -45.8°C | 0% | 12.3hPa | 2.7V | 18:12:15 | 02:17:09 | 00:00:00 | |
| DJ2DS-15 | 2026-08-30 12:35:00 | 51.66382 | 8.15835 | 241° | 15km/h | 30113m | -27.1m/s | -45.8°C | 2.8% | 12.2hPa | 2.7V | 00:00:00 | 02:17:09 | 00:00:00 | |
| GOEST3-10 | 2026-08-30 12:34:59 | 51.66383 | 8.15840 | 256° | 9km/h | 30140m | -27.9m/s | -45.8°C | 2.8% | 12.2hPa | 2.7V | 00:00:00 | 00:00:00 | 00:00:00 | |
| DJ8HS-15 | 2026-08-30 12:34:58 | 51.66383 | 8.15845 | 278° | 15km/h | 30168m | -27.9m/s | -45.8°C | 2.8% | 12.1hPa | 2.7V | 00:00:00 | 02:17:07 | 00:00:00 | |
| DM0DOS-11 | 2026-08-30 12:34:57 | 51.66383 | 8.15853 | 297° | 5km/h | 30225m | -28.8m/s | -45.9°C | 2.8% | 12.1hPa | 2.7V | 08:30:00 | 02:17:05 | 00:00:00 | |
| BIOWL1-15 | 2026-08-30 12:34:56 | 51.66383 | 8.15854 | 114° | 5km/h | 30285m | -31.8m/s | -45.8°C | 0% | 12hPa | 2.6V | 18:12:15 | 02:17:03 | 00:00:00 | |
| DO2JMG | 2026-08-30 12:34:53 | 51.66384 | 8.15852 | 134° | 13km/h | 30318m | -35.3m/s | -45.6°C | 0% | 11.9hPa | 2.7V | 18:12:15 | 02:17:02 | 00:00:00 | |
| HSKMA3-T | 2026-08-30 12:34:52 | 51.66386 | 8.15847 | 116° | 16km/h | 30356m | -40.2m/s | -45.5°C | 0% | 11.9hPa | 2.7V | 18:12:15 | 02:17:01 | 00:00:00 | |
| DM0DOS-11 | 2026-08-30 12:34:52 | 51.66405 | 8.15823 | 205° | 18km/h | 30608m | -39.6m/s | -45.1°C | 2.6% | 11.4hPa | 2.7V | 08:30:00 | 02:16:55 | 00:00:00 | |
| AA1-15 | 2026-08-30 12:34:49 | 51.66395 | 8.15828 | 134° | 16km/h | 30484m | -42.6m/s | -45.2°C | 0% | 11.7hPa | 2.6V | 18:12:15 | 02:16:58 | 00:00:00 | |
| BUE01 | 2026-08-30 12:34:47 | 51.66401 | 8.15822 | 173° | 13km/h | 30568m | -41.4m/s | -45.2°C | 0.5% | 11.5hPa | 2.7V | 00:00:00 | 00:00:00 | 00:00:00 | |
| DJ3KS | 2026-08-30 12:34:46 | 51.66405 | 8.15823 | 206° | 18km/h | 30609m | -39.6m/s | -45.2°C | 0.6% | 11.4hPa | 2.7V | 00:00:00 | 00:00:00 | 00:00:00 | |
| DL1NUX | 2026-08-30 12:34:45 | 51.66424 | 8.15864 | 233° | 13km/h | 30807m | -33.9m/s | -44.8°C | 2.6% | 11.1hPa | 2.7V | 08:30:00 | 02:16:49 | 00:00:00 | |
| BIOWL1-15 | 2026-08-30 12:34:44 | 51.66413 | 8.15833 | 234° | 22km/h | 30683m | -34.9m/s | -45°C | 0% | 11.3hPa | 2.6V | 18:12:15 | 02:16:53 | 00:00:00 | |
| DO2JMG | 2026-08-30 12:34:42 | 51.66419 | 8.15850 | 239° | 26km/h | 30745m | -28.2m/s | -44.9°C | 0% | 11.1hPa | 2.6V | 18:12:15 | 02:16:51 | 00:00:00 | |
| AA1-15 | 2026-08-30 12:34:38 | 51.66426 | 8.15866 | 109° | 7km/h | 30870m | -29.7m/s | -44.6°C | 0% | 10.9hPa | 2.6V | 18:12:15 | 02:16:47 | 00:00:00 | |
| DJ8HS-15 | 2026-08-30 12:34:38 | 51.66426 | 8.15866 | 110° | 15km/h | 30871m | -29.6m/s | -44.6°C | 2.6% | 10.9hPa | 2.7V | 00:00:00 | 02:16:47 | 00:00:00 | |
| AU51GT2 | 2026-08-30 12:34:37 | 51.66427 | 8.15852 | 86° | 26km/h | 30924m | -23.4m/s | -44.5°C | 0.5% | 10.8hPa | 2.7V | 00:00:00 | 00:00:00 | 00:00:00 | |
| DL1NUX | 2026-08-30 12:34:35 | 51.66424 | 8.15787 | 240° | 4km/h | 31074m | -27m/s | -44.3°C | 2.7% | 10.6hPa | 2.7V | 08:30:00 | 02:16:39 | 00:00:00 | |
| BIOWL1-15 | 2026-08-30 12:34:34 | 51.66425 | 8.15825 | 84° | 38km/h | 30970m | -23.8m/s | -44.5°C | 0% | 10.8hPa | 2.6V | 18:12:15 | 02:16:43 | 00:00:00 | |
| DO2JMG | 2026-08-30 12:34:32 | 51.66423 | 8.15789 | 86° | 16km/h | 31047m | -26.3m/s | -44.4°C | 0% | 10.6hPa | 2.7V | 18:12:15 | 02:16:40 | 00:00:00 | |
| AA1-15 | 2026-08-30 12:34:28 | 51.66425 | 8.15792 | 250° | 7km/h | 31114m | -11.9m/s | -44°C | 0% | 10.5hPa | 2.6V | 18:12:15 | 02:16:37 | 00:00:00 | |
| DL1XH-west | 2026-08-30 12:34:27 | 51.66426 | 8.15795 | 248° | 7km/h | 31121m | -2.5m/s | -43.9°C | 0% | 10.5hPa | 2.6V | 18:12:15 | 02:16:36 | 00:00:00 | |
| BIOWL1-15 | 2026-08-30 12:34:25 | 51.66426 | 8.15799 | 53° | 9km/h | 31100m | 6.1m/s | -44.1°C | 0% | 10.5hPa | 2.6V | 18:12:15 | 02:16:32 | 00:00:00 | |
| DL1NUX | 2026-08-30 12:34:24 | 51.66423 | 8.15781 | 112° | 7km/h | 31078m | 6.4m/s | -44.1°C | 2.7% | 10.5hPa | 2.7V | 08:30:00 | 02:16:28 | 00:00:00 | |
| DO2JMG | 2026-08-30 12:34:21 | 51.66423 | 8.15790 | 73° | 15km/h | 31090m | 4.8m/s | -44.2°C | 0% | 10.5hPa | 2.6V | 18:12:15 | 02:16:30 | 00:00:00 | |
| HSKMA3-T | 2026-08-30 12:34:20 | 51.66422 | 8.15785 | 86° | 11km/h | 31084m | 6.1m/s | -44.1°C | 0% | 10.6hPa | 2.7V | 18:12:15 | 02:16:29 | 00:00:00 | |
| AA1-15 | 2026-08-30 12:34:18 | 51.66424 | 8.15779 | 152° | 5km/h | 31072m | 5.7m/s | -44.2°C | 0% | 10.5hPa | 2.7V | 18:12:15 | 02:16:27 | 00:00:00 | |
| DL1XH-west | 2026-08-30 12:34:16 | 51.66426 | 8.15779 | 217° | 4km/h | 31061m | 5.7m/s | -44.3°C | 0% | 10.6hPa | 2.6V | 18:12:15 | 02:16:25 | 00:00:00 | |
| DL1XH1-15 | 2026-08-30 12:34:16 | 51.66426 | 8.15781 | 335° | 5km/h | 31048m | 5.9m/s | -44.2°C | 2.7% | 10.6hPa | 2.7V | 08:30:00 | 02:16:23 | 00:00:00 | |
| DJ2KF-10 | 2026-08-30 12:34:16 | 51.66426 | 8.15779 | 218° | 7km/h | 31061m | 5.7m/s | -44.2°C | 2.7% | 10.5hPa | 2.6V | 00:00:00 | 02:16:25 | 00:00:00 | |
| DL1NUX | 2026-08-30 12:34:14 | 51.66420 | 8.15790 | 257° | 4km/h | 31020m | 5.1m/s | -44.3°C | 2.7% | 10.7hPa | 2.7V | 08:30:00 | 02:16:18 | 00:00:00 | |
| BIOWL1-15 | 2026-08-30 12:34:13 | 51.66424 | 8.15782 | 338° | 7km/h | 31043m | 5.2m/s | -44.2°C | 0% | 10.6hPa | 2.6V | 18:12:15 | 02:16:22 | 00:00:00 | |
| HSKMA3-T | 2026-08-30 12:34:10 | 51.66420 | 8.15788 | 290° | 7km/h | 31026m | 6.1m/s | -44.2°C | 0% | 10.6hPa | 2.7V | 18:12:15 | 02:16:19 | 00:00:00 | |
| DB0DAN | 2026-08-30 12:34:10 | 51.66420 | 8.15788 | 290° | 5km/h | 31026m | 6.1m/s | -44.2°C | 0.5% | 10.63hPa | 2.7V | 00:00:00 | 00:00:00 | 00:00:00 | |
| AA1-15 | 2026-08-30 12:34:08 | 51.66420 | 8.15791 | 179° | 4km/h | 31015m | 4.9m/s | -44.4°C | 0% | 10.7hPa | 2.6V | 18:12:15 | 02:16:17 | 00:00:00 | |
| DL1XH-west | 2026-08-30 12:34:06 | 51.66423 | 8.15782 | 104° | 13km/h | 30997m | 5.7m/s | -44.4°C | 0% | 10.7hPa | 2.7V | 18:12:15 | 02:16:14 | 00:00:00 | |
| DD1CC3-15 | 2026-08-30 12:34:05 | 51.66422 | 8.15787 | 110° | 11km/h | 31003m | 6.9m/s | -44.5°C | 0.6% | 10.7hPa | 2.7V | 00:00:00 | 00:00:00 | 00:00:00 | |
| DL1NUX | 2026-08-30 12:34:04 | 51.66430 | 8.15778 | 256° | 9km/h | 30963m | 5.3m/s | -44.2°C | 2.7% | 10.7hPa | 2.7V | 08:30:00 | 02:16:08 | 00:00:00 | |
| BIOWL1-15 | 2026-08-30 12:34:02 | 51.66426 | 8.15771 | 169° | 7km/h | 30980m | 6.4m/s | -44.3°C | 0% | 10.7hPa | 2.6V | 18:12:15 | 02:16:11 | 00:00:00 | |
| DL1XH-15 | 2026-08-30 12:34:01 | 51.66429 | 8.15782 | 51° | 5km/h | 30945m | 5.3m/s | -44.1°C | 2.7% | 10.8hPa | 2.6V | 08:30:00 | 02:16:05 | 00:00:00 | |
| DO2JMG | 2026-08-30 12:34:00 | 51.66429 | 8.15775 | 240° | 9km/h | 30968m | 5.2m/s | -44.2°C | 0% | 10.7hPa | 2.6V | 18:12:15 | 02:16:09 | 00:00:00 | |
| HSKMA3-T | 2026-08-30 12:33:59 | 51.66430 | 8.15778 | 257° | 9km/h | 30963m | 5.3m/s | -44.2°C | 0% | 10.7hPa | 2.7V | 18:12:15 | 02:16:08 | 00:00:00 | |
| AA1-15 | 2026-08-30 12:33:57 | 51.66429 | 8.15782 | 51° | 5km/h | 30945m | 5.3m/s | -44.1°C | 0% | 10.8hPa | 2.6V | 18:12:15 | 02:16:05 | 00:00:00 | |
| DL1XH1-15 | 2026-08-30 12:33:56 | 51.66428 | 8.15776 | 98° | 7km/h | 30935m | 5.5m/s | -44.2°C | 2.7% | 10.8hPa | 2.7V | 08:30:00 | 02:16:03 | 00:00:00 | |
| DL1XH-west | 2026-08-30 12:33:55 | 51.66428 | 8.15779 | 77° | 7km/h | 30940m | 4.9m/s | -44.2°C | 0% | 10.8hPa | 2.6V | 18:12:15 | 02:16:04 | 00:00:00 | |
| DB0DAN | 2026-08-30 12:33:55 | 51.66428 | 8.15779 | 77° | 7km/h | 30940m | 4.9m/s | -44.2°C | 0.5% | 10.79hPa | 2.6V | 00:00:00 | 00:00:00 | 00:00:00 | |
| DL3AQ-11 | 2026-08-30 12:33:55 | 51.66428 | 8.15779 | 77° | 7km/h | 30940m | 4.9m/s | -44.2°C | 0.5% | 10.8hPa | 2.7V | 00:00:00 | 00:00:00 | 00:00:00 | |
| DL1NUX | 2026-08-30 12:33:54 | 51.66436 | 8.15769 | 162° | 7km/h | 30906m | 6.6m/s | -44.5°C | 2.8% | 10.8hPa | 2.7V | 08:30:00 | 02:15:58 | 00:00:00 | |
| BIOWL1-15 | 2026-08-30 12:33:51 | 51.66439 | 8.15767 | 137° | 4km/h | 30894m | 5.3m/s | -44.5°C | 0% | 10.8hPa | 2.6V | 18:12:15 | 02:15:56 | 00:00:00 | |
| DM0DOS-11 | 2026-08-30 12:33:51 | 51.66439 | 8.15766 | 158° | 4km/h | 30888m | 5.3m/s | -44.5°C | 2.8% | 10.9hPa | 2.6V | 08:30:00 | 02:15:55 | 00:00:00 | |
| DO2JMG | 2026-08-30 12:33:50 | 51.66435 | 8.15770 | 174° | 7km/h | 30912m | 5.3m/s | -44.5°C | 0% | 10.8hPa | 2.7V | 18:12:15 | 02:15:59 | 00:00:00 | |
| DO9LL-15 | 2026-08-30 12:33:50 | 51.66434 | 8.15770 | 174° | 13km/h | 30912m | 5.2m/s | -44.4°C | 2.8% | 10.8hPa | 2.7V | 00:00:00 | 02:15:59 | 00:00:00 | |
| DL1XH1-15 | 2026-08-30 12:33:49 | 51.66443 | 8.15766 | 189° | 9km/h | 30876m | 6.1m/s | -44.4°C | 2.8% | 10.9hPa | 2.7V | 08:30:00 | 02:15:53 | 00:00:00 | |
| HSKMA3-T | 2026-08-30 12:33:48 | 51.66438 | 8.15768 | 143° | 5km/h | 30899m | 6.3m/s | -44.6°C | 0% | 10.8hPa | 2.7V | 18:12:15 | 02:15:57 | 00:00:00 | |
| AA1-15 | 2026-08-30 12:33:47 | 51.66439 | 8.15766 | 158° | 4km/h | 30888m | 5.3m/s | -44.5°C | 0% | 10.9hPa | 2.6V | 18:12:15 | 02:15:55 | 00:00:00 | |
| BUE01 | 2026-08-30 12:33:45 | 51.66441 | 8.15766 | 181° | 5km/h | 30883m | 6.8m/s | -44.4°C | 0.6% | 10.9hPa | 2.7V | 00:00:00 | 00:00:00 | 00:00:00 | |
| DL1XH-west | 2026-08-30 12:33:45 | 51.66441 | 8.15766 | 182° | 7km/h | 30882m | 6.8m/s | -44.4°C | 0% | 10.9hPa | 2.6V | 18:12:15 | 02:15:54 | 00:00:00 | |
| DB0NH | 2026-08-30 12:33:44 | 51.66443 | 8.15766 | 190° | 15km/h | 30876m | 6.1m/s | -44.3°C | 2.8% | 10.8hPa | 2.7V | 00:00:00 | 02:15:53 | 08:30:00 | |
| DB0UT-7 | 2026-08-30 12:33:43 | 51.66445 | 8.15767 | 183° | 15km/h | 30870m | 5.2m/s | -44.4°C | 2.8% | 10.9hPa | 2.7V | 00:00:00 | 02:15:52 | 00:00:00 | |
| DO3DL | 2026-08-30 12:33:42 | 51.66448 | 8.15766 | 171° | 11km/h | 30865m | 5.4m/s | -44.5°C | 0.5% | 10.9hPa | 2.7V | 00:00:00 | 00:00:00 | 00:00:00 | |
| DM0DOS-11 | 2026-08-30 12:33:41 | 51.66463 | 8.15755 | 199° | 15km/h | 30830m | 6.4m/s | -44.7°C | 2.8% | 10.9hPa | 2.7V | 08:30:00 | 02:15:45 | 00:00:00 | |
| DO2JMG | 2026-08-30 12:33:39 | 51.66455 | 8.15759 | 136° | 13km/h | 30847m | 5m/s | -44.6°C | 0% | 10.9hPa | 2.6V | 18:12:15 | 02:15:48 | 00:00:00 | |
| HSKMA3-T | 2026-08-30 12:33:37 | 51.66460 | 8.15755 | 175° | 11km/h | 30836m | 6.5m/s | -44.7°C | 0% | 10.9hPa | 2.7V | 18:12:15 | 02:15:46 | 00:00:00 | |
| AA1-15 | 2026-08-30 12:33:37 | 51.66463 | 8.15755 | 199° | 15km/h | 30830m | 6.4m/s | -44.7°C | 0% | 11hPa | 2.7V | 18:12:15 | 02:15:45 | 00:00:00 | |
| DL1XH-west | 2026-08-30 12:33:34 | 51.66471 | 8.15762 | 216° | 18km/h | 30819m | 4.7m/s | -44.8°C | 0% | 11hPa | 2.6V | 18:12:15 | 02:15:43 | 00:00:00 | |
| DL1NUX | 2026-08-30 12:33:34 | 51.66484 | 8.15773 | 189° | 9km/h | 30790m | 5.7m/s | -44.8°C | 2.8% | 11hPa | 2.7V | 08:30:00 | 02:15:38 | 00:00:00 | |
| GOEST3-10 | 2026-08-30 12:33:34 | 51.66471 | 8.15762 | 216° | 13km/h | 30819m | 4.6m/s | -44.7°C | 2.8% | 10.9hPa | 2.6V | 00:00:00 | 02:15:43 | 00:00:00 | |
| DD1CC8 | 2026-08-30 12:33:32 | 51.66480 | 8.15771 | 198° | 7km/h | 30801m | 6.0m/s | -44.9°C | 0.6% | 11.0hPa | 2.6V | 00:00:00 | 00:00:00 | 00:00:00 | |
| DL1XH-15 | 2026-08-30 12:33:31 | 51.66494 | 8.15775 | 184° | 18km/h | 30772m | 5m/s | -44.6°C | 2.8% | 11hPa | 2.6V | 08:30:00 | 02:15:35 | 00:00:00 | |
| DL1XH1-15 | 2026-08-30 12:33:29 | 51.66504 | 8.15774 | 166° | 20km/h | 30760m | 7m/s | -44.7°C | 2.8% | 11.1hPa | 2.6V | 08:30:00 | 02:15:33 | 00:00:00 | |
| DO2JMG | 2026-08-30 12:33:29 | 51.66484 | 8.15773 | 190° | 9km/h | 30790m | 5.7m/s | -44.8°C | 0% | 11.1hPa | 2.7V | 18:12:15 | 02:15:38 | 00:00:00 | |
| BIOWL1-15 | 2026-08-30 12:33:26 | 51.66494 | 8.15776 | 184° | 18km/h | 30772m | 5m/s | -44.6°C | 0% | 11hPa | 2.6V | 18:12:15 | 02:15:35 | 00:00:00 | |
| AA1-15 | 2026-08-30 12:33:25 | 51.66498 | 8.15775 | 175° | 20km/h | 30766m | 6.1m/s | -44.7°C | 0% | 11.1hPa | 2.6V | 18:12:15 | 02:15:34 | 00:00:00 | |
| DL1XH-west | 2026-08-30 12:33:23 | 51.66509 | 8.15772 | 163° | 22km/h | 30753m | 5.7m/s | -44.7°C | 0% | 11.1hPa | 2.7V | 18:12:15 | 02:15:32 | 00:00:00 | |
| SONCRA | 2026-08-30 12:33:22 | 51.66520 | 8.15769 | 178° | 22km/h | 30742m | 6.4m/s | -44.8°C | 0.6% | 11.1hPa | 2.7V | 00:00:00 | 00:00:00 | 00:00:00 | |
| DM0DOS-11 | 2026-08-30 12:33:21 | 51.66542 | 8.15779 | 156° | 7km/h | 30707m | 5.6m/s | -45.1°C | 2.8% | 11.2hPa | 2.7V | 08:30:00 | 02:15:24 | 00:00:00 | |
| DO2JMG | 2026-08-30 12:33:18 | 51.66534 | 8.15775 | 208° | 16km/h | 30725m | 4.9m/s | -45°C | 0% | 11.1hPa | 2.6V | 18:12:15 | 02:15:27 | 00:00:00 | |
| HSKMA3-T | 2026-08-30 12:33:16 | 51.66540 | 8.15779 | 190° | 7km/h | 30713m | 6.4m/s | -45.2°C | 0% | 11.2hPa | 2.7V | 18:12:15 | 02:15:25 | 00:00:00 | |
| DL1XH1-15 | 2026-08-30 12:33:16 | 51.66544 | 8.15778 | 147° | 9km/h | 30702m | 4.7m/s | -45.1°C | 2.8% | 11.2hPa | 2.6V | 08:30:00 | 02:15:23 | 00:00:00 | |
| AA1-15 | 2026-08-30 12:33:15 | 51.66542 | 8.15779 | 157° | 7km/h | 30707m | 5.6m/s | -45.1°C | 0% | 11.2hPa | 2.7V | 18:12:15 | 02:15:24 | 00:00:00 | |
| DL1XH-west | 2026-08-30 12:33:12 | 51.66549 | 8.15774 | 169° | 15km/h | 30690m | 6.7m/s | -45°C | 0% | 11.2hPa | 2.7V | 18:12:15 | 02:15:21 | 00:00:00 | |
| DO1YAY-16 | 2026-08-30 12:33:12 | 51.66553 | 8.15773 | 174° | 18km/h | 30684m | 5.9m/s | -45.0°C | 0.6% | 11.2hPa | 2.7V | 00:00:00 | 00:00:00 | 00:00:00 | |
| DL1XH-15 | 2026-08-30 12:33:11 | 51.66579 | 8.15764 | 158° | 18km/h | 30655m | 5.2m/s | -45°C | 2.8% | 11.2hPa | 2.7V | 08:30:00 | 02:15:15 | 00:00:00 | |
| DD8BA-10 | 2026-08-30 12:33:11 | 51.66553 | 8.15773 | 175° | 18km/h | 30684m | 5.9m/s | -45.0°C | 2.9% | 11.2hPa | 2.7V | 00:00:00 | 00:00:00 | 08:30:00 | |
| DM0DOS-11 | 2026-08-30 12:33:10 | 51.66583 | 8.15762 | 166° | 15km/h | 30649m | 5.6m/s | -45.1°C | 2.8% | 11.3hPa | 2.6V | 08:30:00 | 02:15:14 | 00:00:00 | |
| DO3DL | 2026-08-30 12:33:10 | 51.66558 | 8.15773 | 175° | 22km/h | 30679m | 5.4m/s | -45.0°C | 0.6% | 11.2hPa | 2.6V | 00:00:00 | 00:00:00 | 00:00:00 | |
| DL1XH1-15 | 2026-08-30 12:33:09 | 51.66587 | 8.15761 | 178° | 15km/h | 30643m | 6.7m/s | -45.1°C | 2.9% | 11.3hPa | 2.6V | 08:30:00 | 02:15:13 | 00:00:00 | |
| DO2JMG | 2026-08-30 12:33:07 | 51.66575 | 8.15766 | 159° | 20km/h | 30660m | 5.7m/s | -45°C | 0% | 11.2hPa | 2.7V | 18:12:15 | 02:15:16 | 00:00:00 | |
| HSKMA3-T | 2026-08-30 12:33:06 | 51.66579 | 8.15764 | 158° | 18km/h | 30655m | 5.3m/s | -45°C | 0% | 11.2hPa | 2.7V | 18:12:15 | 02:15:15 | 00:00:00 | |
| BIOWL1-15 | 2026-08-30 12:33:05 | 51.66590 | 8.15761 | 189° | 15km/h | 30637m | 5.5m/s | -45.1°C | 0% | 11.3hPa | 2.6V | 18:12:15 | 02:15:12 | 00:00:00 | |
| AA1-15 | 2026-08-30 12:33:04 | 51.66587 | 8.15761 | 178° | 15km/h | 30643m | 6.7m/s | -45.1°C | 0% | 11.3hPa | 2.6V | 18:12:15 | 02:15:13 | 00:00:00 | |
| DL1XH-west | 2026-08-30 12:33:01 | 51.66596 | 8.15762 | 174° | 9km/h | 30627m | 5.2m/s | -45.2°C | 0% | 11.3hPa | 2.7V | 18:12:15 | 02:15:10 | 00:00:00 | |
| DD8BA-10 | 2026-08-30 12:33:01 | 51.66596 | 8.15762 | 175° | 16km/h | 30628m | 5.1m/s | -45.2°C | 2.9% | 11.3hPa | 2.7V | 00:00:00 | 00:00:00 | 00:00:00 | |
| DM0DOS-11 | 2026-08-30 12:33:00 | 51.66611 | 8.15737 | 157° | 22km/h | 30591m | 6.1m/s | -45.1°C | 2.9% | 11.4hPa | 2.7V | 08:30:00 | 02:15:04 | 00:00:00 | |
| DO2JMG | 2026-08-30 12:32:57 | 51.66607 | 8.15742 | 141° | 20km/h | 30597m | 6.6m/s | -45.2°C | 0% | 11.4hPa | 2.7V | 18:12:15 | 02:15:05 | 00:00:00 | |
| DL1XH1-15 | 2026-08-30 12:32:56 | 51.66616 | 8.15735 | 167° | 22km/h | 30585m | 5.1m/s | -45.2°C | 2.9% | 11.4hPa | 2.7V | 08:30:00 | 02:15:03 | 00:00:00 | |
| HSKMA3-T | 2026-08-30 12:32:55 | 51.66611 | 8.15737 | 157° | 22km/h | 30591m | 6.1m/s | -45.2°C | 0% | 11.4hPa | 2.7V | 18:12:15 | 02:15:04 | 00:00:00 | |
| DL1NUX | 2026-08-30 12:32:54 | 51.66635 | 8.15730 | 188° | 4km/h | 30556m | 5.3m/s | -45.2°C | 2.9% | 11.4hPa | 2.7V | 08:30:00 | 02:14:58 | 00:00:00 | |
| AA1-15 | 2026-08-30 12:32:54 | 51.66617 | 8.15735 | 167° | 22km/h | 30585m | 5.1m/s | -45.2°C | 0% | 11.4hPa | 2.7V | 18:12:15 | 02:15:03 | 00:00:00 | |
| BIOWL1-15 | 2026-08-30 12:32:53 | 51.66622 | 8.15733 | 171° | 22km/h | 30580m | 5.2m/s | -45.2°C | 0% | 11.4hPa | 2.6V | 18:12:15 | 02:15:02 | 00:00:00 | |
| NBG1-10 | 2026-08-30 12:32:53 | 51.66622 | 8.15733 | 171° | 20km/h | 30580m | 5.2m/s | -45.1°C | 2.9% | 11.3hPa | 2.7V | 00:00:00 | 02:15:02 | 00:00:00 | |
| DD8BA-10 | 2026-08-30 12:32:51 | 51.66631 | 8.15731 | 172° | 9km/h | 30568m | 6.3m/s | -45.1°C | 2.9% | 11.4hPa | 2.7V | 00:00:00 | 00:00:00 | 00:00:00 | |
| DL1XH-west | 2026-08-30 12:32:51 | 51.66631 | 8.15731 | 171° | 13km/h | 30567m | 6.4m/s | -45.2°C | 0% | 11.4hPa | 2.6V | 18:12:15 | 02:15:00 | 00:00:00 | |
| DM0DOS-11 | 2026-08-30 12:32:50 | 51.66642 | 8.15734 | 184° | 11km/h | 30533m | 5m/s | -45.1°C | 2.9% | 11.5hPa | 2.7V | 08:30:00 | 02:14:54 | 00:00:00 | |
| DO9LL-15 | 2026-08-30 12:32:50 | 51.66633 | 8.15730 | 174° | 11km/h | 30562m | 5.8m/s | -45.1°C | 2.9% | 11.4hPa | 2.7V | 00:00:00 | 02:14:59 | 00:00:00 | |
| DL1XH1-15 | 2026-08-30 12:32:49 | 51.66644 | 8.15734 | 160° | 11km/h | 30528m | 5.2m/s | -45.1°C | 2.8% | 11.5hPa | 2.7V | 08:30:00 | 02:14:53 | 00:00:00 | |
| HSKMA3-T | 2026-08-30 12:32:45 | 51.66641 | 8.15734 | 185° | 11km/h | 30533m | 5m/s | -45.1°C | 0% | 11.5hPa | 2.7V | 18:12:15 | 02:14:54 | 00:00:00 | |
| DL1NUX | 2026-08-30 12:32:44 | 51.66656 | 8.15709 | 132° | 16km/h | 30497m | 6.8m/s | -45.1°C | 2.9% | 11.5hPa | 2.7V | 08:30:00 | 02:14:48 | 00:00:00 | |
| AA1-15 | 2026-08-30 12:32:43 | 51.66647 | 8.15731 | 138° | 13km/h | 30521m | 7m/s | -45.2°C | 0% | 11.5hPa | 2.6V | 18:12:15 | 02:14:52 | 00:00:00 | |
| BIOWL1-15 | 2026-08-30 12:32:43 | 51.66653 | 8.15714 | 122° | 18km/h | 30503m | 5.5m/s | -45.2°C | 0% | 11.5hPa | 2.7V | 18:12:15 | 02:14:49 | 00:00:00 | |
| DL1XH-west | 2026-08-30 12:32:41 | 51.66651 | 8.15721 | 118° | 18km/h | 30509m | 5.6m/s | -45.2°C | 0% | 11.5hPa | 2.7V | 18:12:15 | 02:14:50 | 00:00:00 | |
| DB0DAN | 2026-08-30 12:32:40 | 51.66653 | 8.15714 | 122° | 16km/h | 30503m | 5.5m/s | -45.2°C | 0.6% | 11.52hPa | 2.7V | 00:00:00 | 00:00:00 | 00:00:00 | |
| DM0DOS-11 | 2026-08-30 12:32:40 | 51.66667 | 8.15701 | 159° | 7km/h | 30475m | 5.7m/s | -45.2°C | 2.9% | 11.6hPa | 2.7V | 08:30:00 | 02:14:44 | 00:00:00 | |
| DJ2DS-15 | 2026-08-30 12:32:40 | 51.66653 | 8.15714 | 123° | 11km/h | 30503m | 5.5m/s | -45.2°C | 2.9% | 11.5hPa | 2.7V | 00:00:00 | 02:14:49 | 00:00:00 | |
| DK9SH | 2026-08-30 12:32:39 | 51.66656 | 8.15709 | 134° | 16km/h | 30497m | 6.8m/s | -45.1°C | 0.6% | 11.5hPa | 2.7V | 00:00:00 | 00:00:00 | 00:00:00 | |
| DL4XJ-10 | 2026-08-30 12:32:38 | 51.66659 | 8.15705 | 151° | 11km/h | 30492m | 5.7m/s | -44.6°C | 0% | 0hPa | 2.7V | 00:00:00 | 00:00:00 | 00:00:00 | |
| DD1CC2-15 | 2026-08-30 12:32:37 | 51.66659 | 8.15705 | 151° | 15km/h | 30491m | 5.8m/s | -45.1°C | 0.6% | 11.5hPa | 2.7V | 00:00:00 | 00:00:00 | 00:00:00 | |
| DL1XH1-15 | 2026-08-30 12:32:36 | 51.66669 | 8.15699 | 126° | 5km/h | 30469m | 6.4m/s | -45.3°C | 2.9% | 11.6hPa | 2.7V | 08:30:00 | 02:14:43 | 00:00:00 | |
| DO2JMG | 2026-08-30 12:32:35 | 51.66667 | 8.15701 | 159° | 7km/h | 30475m | 5.7m/s | -45.3°C | 0% | 11.6hPa | 2.7V | 18:12:15 | 02:14:44 | 00:00:00 | |
| HSKMA3-T | 2026-08-30 12:32:35 | 51.66669 | 8.15699 | 127° | 7km/h | 30469m | 6.4m/s | -45.3°C | 0% | 11.6hPa | 2.7V | 18:12:15 | 02:14:43 | 00:00:00 | |
| BIOWL1-15 | 2026-08-30 12:32:32 | 51.66670 | 8.15693 | 96° | 9km/h | 30457m | 4.8m/s | -45.2°C | 0% | 11.6hPa | 2.6V | 18:12:15 | 02:14:41 | 00:00:00 | |
| DL1XH-15 | 2026-08-30 12:32:32 | 51.66686 | 8.15674 | 153° | 15km/h | 30425m | 5.2m/s | -45.2°C | 2.9% | 11.7hPa | 2.6V | 08:30:00 | 02:14:35 | 00:00:00 | |
| DL1XH-west | 2026-08-30 12:32:30 | 51.66672 | 8.15685 | 131° | 13km/h | 30447m | 6.2m/s | -45.3°C | 0% | 11.6hPa | 2.6V | 18:12:15 | 02:14:39 | 00:00:00 | |
| DL1XH1-15 | 2026-08-30 12:32:29 | 51.66690 | 8.15667 | 100° | 9km/h | 30412m | 6.3m/s | -45.2°C | 2.8% | 11.7hPa | 2.6V | 08:30:00 | 02:14:33 | 00:00:00 | |
| DD8BA-10 | 2026-08-30 12:32:29 | 51.66674 | 8.15682 | 150° | 11km/h | 30441m | 6.4m/s | -45.3°C | 2.9% | 11.6hPa | 2.6V | 00:00:00 | 00:00:00 | 00:00:00 | |
| HTAHTA | 2026-08-30 12:32:27 | 51.66682 | 8.15676 | 160° | 16km/h | 30430m | 4.7m/s | -45.3°C | 0.6% | 11.6hPa | 2.6V | 00:00:00 | 00:00:00 | 00:00:00 | |
| DB0DAN | 2026-08-30 12:32:25 | 51.66689 | 8.15671 | 137° | 11km/h | 30418m | 6.7m/s | -45.2°C | 0.6% | 11.65hPa | 2.6V | 00:00:00 | 00:00:00 | 00:00:00 | |
| DO2JMG | 2026-08-30 12:32:24 | 51.66690 | 8.15667 | 100° | 9km/h | 30412m | 6.3m/s | -45.2°C | 0% | 11.7hPa | 2.6V | 18:12:15 | 02:14:33 | 00:00:00 | |
| DL1NUX | 2026-08-30 12:32:24 | 51.66687 | 8.15654 | 84° | 2km/h | 30382m | 5.3m/s | -45.5°C | 2.9% | 11.8hPa | 2.6V | 08:30:00 | 02:14:28 | 00:00:00 | |
| BIOWL1-15 | 2026-08-30 12:32:22 | 51.66689 | 8.15660 | 62° | 9km/h | 30401m | 5.5m/s | -45.3°C | 0% | 11.7hPa | 2.7V | 18:12:15 | 02:14:31 | 00:00:00 | |
| DL1XH-west | 2026-08-30 12:32:20 | 51.66688 | 8.15656 | 70° | 4km/h | 30388m | 5.9m/s | -45.4°C | 0% | 11.7hPa | 2.6V | 18:12:15 | 02:14:29 | 00:00:00 | |
| DO9LL-15 | 2026-08-30 12:32:20 | 51.66688 | 8.15656 | 71° | 9km/h | 30389m | 5.8m/s | -45.4°C | 2.9% | 11.7hPa | 2.7V | 00:00:00 | 02:14:29 | 00:00:00 | |
| GOEST3-10 | 2026-08-30 12:32:19 | 51.66687 | 8.15654 | 85° | 4km/h | 30383m | 5.3m/s | -45.4°C | 2.9% | 11.7hPa | 2.7V | 00:00:00 | 00:00:00 | 00:00:00 | |
| DJ8HS-15 | 2026-08-30 12:32:18 | 51.66687 | 8.15653 | 90° | 7km/h | 30378m | 5.3m/s | -45.5°C | 2.9% | 11.7hPa | 2.7V | 00:00:00 | 02:14:27 | 00:00:00 | |
| DK9SH | 2026-08-30 12:32:17 | 51.66687 | 8.15653 | 90° | 2km/h | 30378m | 5.3m/s | -45.6°C | 0.6% | 11.8hPa | 2.6V | 00:00:00 | 00:00:00 | 00:00:00 | |
| DM0DOS-11 | 2026-08-30 12:32:16 | 51.66686 | 8.15650 | 86° | 4km/h | 30359m | 5m/s | -45.6°C | 2.9% | 11.8hPa | 2.6V | 08:30:00 | 02:14:24 | 00:00:00 | |
| DJ2KF-10 | 2026-08-30 12:32:16 | 51.66686 | 8.15651 | 56° | 9km/h | 30365m | 6.0m/s | -45.6°C | 3.0% | 11.7hPa | 2.6V | 00:00:00 | 02:14:25 | 00:00:00 | |
| DB0ND-19 | 2026-08-30 12:32:15 | 51.66687 | 8.15648 | 140° | 4km/h | 30354m | 5.7m/s | -45.5°C | 0.6% | 11.8hPa | 2.6V | 00:00:00 | 00:00:00 | 00:00:00 | |
| DL1NUX | 2026-08-30 12:32:14 | 51.66696 | 8.15639 | 103° | 9km/h | 30324m | 6.6m/s | -45.6°C | 3% | 11.8hPa | 2.6V | 08:30:00 | 02:14:18 | 00:00:00 | |
| DO2JMG | 2026-08-30 12:32:13 | 51.66688 | 8.15647 | 161° | 7km/h | 30347m | 6.9m/s | -45.5°C | 0% | 11.8hPa | 2.7V | 18:12:15 | 02:14:22 | 00:00:00 | |
| DB0UT-7 | 2026-08-30 12:32:13 | 51.66688 | 8.15647 | 162° | 9km/h | 30348m | 6.9m/s | -45.5°C | 2.9% | 11.8hPa | 2.7V | 00:00:00 | 00:00:00 | 00:00:00 | |
| BUE01 | 2026-08-30 12:32:12 | 51.66690 | 8.15646 | 165° | 9km/h | 30341m | 5.7m/s | -45.5°C | 0.6% | 11.8hPa | 2.7V | 00:00:00 | 00:00:00 | 00:00:00 | |
| DL1XH-15 | 2026-08-30 12:32:11 | 51.66694 | 8.15625 | 65° | 11km/h | 30309m | 4.4m/s | -45.5°C | 2.9% | 11.9hPa | 2.7V | 08:30:00 | 02:14:15 | 00:00:00 | |
| AA1-15 | 2026-08-30 12:32:11 | 51.66693 | 8.15644 | 157° | 11km/h | 30336m | 5m/s | -45.5°C | 0% | 11.8hPa | 2.6V | 18:12:15 | 02:14:20 | 00:00:00 | |
| DB0DAN | 2026-08-30 12:32:10 | 51.66695 | 8.15642 | 136° | 9km/h | 30331m | 5.7m/s | -45.6°C | 0% | 11.82hPa | 2.6V | 00:00:00 | 00:00:00 | 00:00:00 | |
| DL1XH-west | 2026-08-30 12:32:09 | 51.66696 | 8.15639 | 104° | 9km/h | 30325m | 6.6m/s | -45.6°C | 0% | 11.8hPa | 2.6V | 18:12:15 | 02:14:18 | 00:00:00 | |
| DL1XH1-15 | 2026-08-30 12:32:09 | 51.66693 | 8.15621 | 127° | 2km/h | 30297m | 6.4m/s | -45.6°C | 2.9% | 11.9hPa | 2.6V | 08:30:00 | 02:14:13 | 00:00:00 | |
| DO2JMG | 2026-08-30 12:32:02 | 51.66695 | 8.15623 | 223° | 9km/h | 30286m | 4.9m/s | -45.6°C | 0% | 11.9hPa | 2.7V | 18:12:15 | 02:14:11 | 00:00:00 | |
| DL1NUX | 2026-08-30 12:32:01 | 51.66698 | 8.15626 | 92° | 4km/h | 30270m | 6.7m/s | -45.5°C | 2.9% | 11.9hPa | 2.6V | 08:30:00 | 02:14:08 | 00:00:00 | |
| AA1-15 | 2026-08-30 12:32:01 | 51.66698 | 8.15626 | 205° | 4km/h | 30276m | 5.4m/s | -45.5°C | 0% | 11.9hPa | 2.7V | 18:12:15 | 02:14:09 | 00:00:00 | |
| DL1XH-west | 2026-08-30 12:31:58 | 51.66698 | 8.15623 | 74° | 11km/h | 30264m | 6.1m/s | -45.4°C | 0% | 12hPa | 2.6V | 18:12:15 | 02:14:07 | 00:00:00 | |
| BIOWL1-15 | 2026-08-30 12:31:58 | 51.66696 | 8.15610 | 86° | 18km/h | 30252m | 5.5m/s | -45.5°C | 0% | 12hPa | 2.7V | 18:12:15 | 02:14:05 | 00:00:00 | |
| DL8DAS-14 | 2026-08-30 12:31:56 | 51.66696 | 8.15603 | 96° | 18km/h | 30247m | 6.4m/s | -45.6°C | 0.6% | 12.0hPa | 2.7V | 00:00:00 | 00:00:00 | 00:00:00 | |
| DB0DAN | 2026-08-30 12:31:55 | 51.66696 | 8.15603 | 97° | 18km/h | 30246m | 6.4m/s | -45.6°C | 0% | 11.99hPa | 2.7V | 00:00:00 | 00:00:00 | 00:00:00 | |
| DL4XJ-10 | 2026-08-30 12:31:55 | 51.66696 | 8.15603 | 97° | 9km/h | 30247m | 6.4m/s | -45.1°C | 0% | 0hPa | 2.7V | 00:00:00 | 00:00:00 | 00:00:00 | |
| GOEST3-10 | 2026-08-30 12:31:54 | 51.66697 | 8.15596 | 111° | 9km/h | 30241m | 5.5m/s | -45.5°C | 2.9% | 12.0hPa | 2.7V | 00:00:00 | 02:14:03 | 00:00:00 | |
| DO2KSM | 2026-08-30 12:31:53 | 51.66697 | 8.15596 | 111° | 16km/h | 30241m | 5.6m/s | -45.6°C | 0.6% | 12.0hPa | 2.7V | 00:00:00 | 00:00:00 | 00:00:00 | |
| DL1XH-15 | 2026-08-30 12:31:51 | 51.66697 | 8.15587 | 264° | 7km/h | 30195m | 5.9m/s | -45.6°C | 2.9% | 12.1hPa | 2.7V | 08:30:00 | 02:13:55 | 00:00:00 | |
| HSKMA3-T | 2026-08-30 12:31:51 | 51.66701 | 8.15583 | 102° | 5km/h | 30224m | 6.8m/s | -45.7°C | 0% | 12hPa | 2.7V | 18:12:15 | 02:14:00 | 00:00:00 | |
| AA1-15 | 2026-08-30 12:31:49 | 51.66700 | 8.15582 | 348° | 5km/h | 30212m | 5.4m/s | -45.5°C | 0% | 12.1hPa | 2.6V | 18:12:15 | 02:13:58 | 00:00:00 | |
| SONCRA | 2026-08-30 12:31:49 | 51.66699 | 8.15583 | 323° | 5km/h | 30207m | 5.2m/s | -45.6°C | 0.6% | 12.1hPa | 2.6V | 00:00:00 | 00:00:00 | 00:00:00 | |
| DM0DOS-11 | 2026-08-30 12:31:48 | 51.66699 | 8.15590 | 173° | 4km/h | 30185m | 4.5m/s | -45.6°C | 2.9% | 12.1hPa | 2.6V | 08:30:00 | 02:13:53 | 00:00:00 | |
| DL1XH-west | 2026-08-30 12:31:47 | 51.66698 | 8.15585 | 296° | 7km/h | 30201m | 5.8m/s | -45.6°C | 0% | 12.1hPa | 2.7V | 18:12:15 | 02:13:56 | 00:00:00 | |
| BIOWL1-15 | 2026-08-30 12:31:45 | 51.66698 | 8.15590 | 231° | 5km/h | 30190m | 5m/s | -45.6°C | 0% | 12.1hPa | 2.7V | 18:12:15 | 02:13:54 | 00:00:00 | |
| DL1ZP-14 | 2026-08-30 12:31:45 | 51.66699 | 8.15590 | 173° | 4km/h | 30185m | 4.5m/s | -45.6°C | 0.6% | 12.1hPa | 2.6V | 00:00:00 | 00:00:00 | 00:00:00 | |
| DL1NUX | 2026-08-30 12:31:44 | 51.66695 | 8.15559 | 76° | 27km/h | 30156m | 5.2m/s | -45.6°C | 2.9% | 12.1hPa | 2.7V | 08:30:00 | 02:13:48 | 00:00:00 | |
| DO2JMG | 2026-08-30 12:31:41 | 51.66698 | 8.15579 | 72° | 20km/h | 30167m | 6.7m/s | -45.6°C | 0% | 12.1hPa | 2.7V | 18:12:15 | 02:13:50 | 00:00:00 | |
| HSKMA3-T | 2026-08-30 12:31:40 | 51.66697 | 8.15570 | 72° | 26km/h | 30161m | 5.5m/s | -45.6°C | 0% | 12.1hPa | 2.7V | 18:12:15 | 02:13:49 | 00:00:00 | |
| AA1-15 | 2026-08-30 12:31:40 | 51.66694 | 8.15549 | 84° | 26km/h | 30150m | 6m/s | -45.7°C | 0% | 12.2hPa | 2.6V | 18:12:15 | 02:13:47 | 00:00:00 | |
| DL1XH-west | 2026-08-30 12:31:37 | 51.66693 | 8.15539 | 95° | 22km/h | 30144m | 5.9m/s | -45.7°C | 0% | 12.2hPa | 2.6V | 18:12:15 | 02:13:46 | 00:00:00 | |
| BIOWL1-15 | 2026-08-30 12:31:34 | 51.66697 | 8.15524 | 16° | 2km/h | 30122m | 6.4m/s | -45.5°C | 0% | 12.2hPa | 2.7V | 18:12:15 | 02:13:42 | 00:00:00 | |
| DL1NUX | 2026-08-30 12:31:34 | 51.66692 | 8.15521 | 61° | 7km/h | 30101m | 5.7m/s | -45.4°C | 2.9% | 12.3hPa | 2.7V | 08:30:00 | 02:13:38 | 00:00:00 | |
| DO2JMG | 2026-08-30 12:31:31 | 51.66695 | 8.15524 | 15° | 7km/h | 30111m | 4.9m/s | -45.4°C | 0% | 12.2hPa | 2.6V | 18:12:15 | 02:13:40 | 00:00:00 | |
| HSKMA3-T | 2026-08-30 12:31:30 | 51.66692 | 8.15521 | 61° | 7km/h | 30101m | 5.7m/s | -45.4°C | 0% | 12.3hPa | 2.7V | 18:12:15 | 02:13:38 | 00:00:00 | |
| AA1-15 | 2026-08-30 12:31:28 | 51.66692 | 8.15514 | 97° | 11km/h | 30089m | 5.3m/s | -45.5°C | 0% | 12.3hPa | 2.7V | 18:12:15 | 02:13:36 | 00:00:00 | |
| DL1XH-west | 2026-08-30 12:31:26 | 51.66692 | 8.15509 | 89° | 13km/h | 30084m | 4.7m/s | -45.5°C | 0% | 12.3hPa | 2.6V | 18:12:15 | 02:13:35 | 00:00:00 | |
| HTAHTA | 2026-08-30 12:31:26 | 51.66692 | 8.15504 | 76° | 13km/h | 30079m | 5.8m/s | -45.6°C | 0.6% | 12.3hPa | 2.7V | 00:00:00 | 00:00:00 | 00:00:00 | |
| DL1NUX | 2026-08-30 12:31:24 | 51.66685 | 8.15480 | 142° | 7km/h | 30044m | 5.3m/s | -45.4°C | 2.9% | 12.3hPa | 2.7V | 08:30:00 | 02:13:28 | 00:00:00 | |
| BIOWL1-15 | 2026-08-30 12:31:24 | 51.66686 | 8.15489 | 54° | 13km/h | 30062m | 5.2m/s | -45.4°C | 0% | 12.3hPa | 2.6V | 18:12:15 | 02:13:31 | 00:00:00 | |
| DO2JMG | 2026-08-30 12:31:20 | 51.66684 | 8.15482 | 97° | 7km/h | 30050m | 6.3m/s | -45.4°C | 0% | 12.3hPa | 2.7V | 18:12:15 | 02:13:29 | 00:00:00 | |
| HSKMA3-T | 2026-08-30 12:31:18 | 51.66686 | 8.15478 | 167° | 7km/h | 30039m | 4.8m/s | -45.4°C | 0% | 12.4hPa | 2.6V | 18:12:15 | 02:13:27 | 00:00:00 | |
| AA1-15 | 2026-08-30 12:31:16 | 51.66688 | 8.15479 | 244° | 2km/h | 30028m | 6.5m/s | -45.3°C | 0% | 12.4hPa | 2.7V | 18:12:15 | 02:13:25 | 00:00:00 | |
| DL1XH-west | 2026-08-30 12:31:15 | 51.66688 | 8.15480 | 324° | 4km/h | 30022m | 5.6m/s | -45.3°C | 0% | 12.4hPa | 2.7V | 18:12:15 | 02:13:24 | 00:00:00 | |
| DL1NUX | 2026-08-30 12:31:15 | 51.66684 | 8.15463 | 76° | 18km/h | 29988m | 5.4m/s | -45.3°C | 2.8% | 12.5hPa | 2.7V | 08:30:00 | 02:13:18 | 00:00:00 | |
| BIOWL1-15 | 2026-08-30 12:31:11 | 51.66683 | 8.15436 | 294° | 2km/h | 29931m | 5.3m/s | -45.8°C | 0% | 12.6hPa | 2.6V | 18:12:15 | 02:13:08 | 00:00:00 | |
| DL1XH-15 | 2026-08-30 12:31:11 | 51.66679 | 8.15443 | 61° | 15km/h | 29971m | 4.9m/s | -45.5°C | 2.9% | 12.5hPa | 2.6V | 08:30:00 | 02:13:15 | 00:00:00 | |
| DO2JMG | 2026-08-30 12:31:10 | 51.66684 | 8.15469 | 84° | 15km/h | 29993m | 5m/s | -45.3°C | 0% | 12.5hPa | 2.7V | 18:12:15 | 02:13:19 | 00:00:00 | |
| DM0DOS-11 | 2026-08-30 12:31:09 | 51.66677 | 8.15435 | 113° | 7km/h | 29959m | 6.2m/s | -45.6°C | 2.9% | 12.5hPa | 2.7V | 08:30:00 | 02:13:13 | 00:00:00 | |
| HSKMA3-T | 2026-08-30 12:31:08 | 51.66682 | 8.15456 | 69° | 18km/h | 29982m | 6.6m/s | -45.4°C | 0% | 12.5hPa | 2.7V | 18:12:15 | 02:13:17 | 00:00:00 | |
| AA1-15 | 2026-08-30 12:31:05 | 51.66677 | 8.15439 | 74° | 11km/h | 29965m | 5.9m/s | -45.6°C | 0% | 12.5hPa | 2.6V | 18:12:15 | 02:13:14 | 00:00:00 | |
| DL1XH-west | 2026-08-30 12:31:04 | 51.66677 | 8.15435 | 113° | 7km/h | 29959m | 6.2m/s | -45.6°C | 0% | 12.5hPa | 2.7V | 18:12:15 | 02:13:13 | 00:00:00 | |
| BIOWL1-15 | 2026-08-30 12:31:02 | 51.66683 | 8.15436 | 37° | 2km/h | 29926m | 4.9m/s | -45.8°C | 0% | 12.6hPa | 2.7V | 18:12:15 | 02:13:07 | 00:00:00 | |
| DL1XH-15 | 2026-08-30 12:31:02 | 51.66684 | 8.15429 | 107° | 11km/h | 29909m | 5.1m/s | -45.5°C | 2.9% | 12.6hPa | 2.6V | 08:30:00 | 02:13:04 | 00:00:00 | |
| DO2JMG | 2026-08-30 12:31:00 | 51.66683 | 8.15435 | 231° | 4km/h | 29936m | 6m/s | -45.8°C | 0% | 12.6hPa | 2.6V | 18:12:15 | 02:13:09 | 00:00:00 | |
| HSKMA3-T | 2026-08-30 12:30:57 | 51.66683 | 8.15435 | 91° | 4km/h | 29920m | 5.9m/s | -45.7°C | 0% | 12.6hPa | 2.7V | 18:12:15 | 02:13:06 | 00:00:00 | |
| DL1XH-west | 2026-08-30 12:30:54 | 51.66684 | 8.15425 | 99° | 11km/h | 29904m | 4.7m/s | -45.6°C | 0% | 12.6hPa | 2.6V | 18:12:15 | 02:13:03 | 00:00:00 | |
| DL8DAS-14 | 2026-08-30 12:30:53 | 51.66684 | 8.15420 | 85° | 11km/h | 29898m | 6.1m/s | -45.6°C | 0.6% | 12.6hPa | 2.6V | 00:00:00 | 00:00:00 | 00:00:00 | |
| DO2KSM | 2026-08-30 12:30:51 | 51.66684 | 8.15416 | 72° | 11km/h | 29893m | 6.0m/s | -45.6°C | 0.6% | 12.6hPa | 2.6V | 00:00:00 | 00:00:00 | 00:00:00 | |
| DL1XH-15 | 2026-08-30 12:30:50 | 51.66687 | 8.15400 | 138° | 9km/h | 29860m | 5.1m/s | -45.8°C | 2.9% | 12.7hPa | 2.6V | 08:30:00 | 02:12:55 | 00:00:00 | |
| DO2JMG | 2026-08-30 12:30:49 | 51.66682 | 8.15407 | 114° | 5km/h | 29876m | 6.5m/s | -45.7°C | 0% | 12.7hPa | 2.7V | 18:12:15 | 02:12:58 | 00:00:00 | |
| BIOWL1-15 | 2026-08-30 12:30:47 | 51.66689 | 8.15397 | 118° | 9km/h | 29854m | 6.3m/s | -45.7°C | 0% | 12.7hPa | 2.7V | 18:12:15 | 02:12:54 | 00:00:00 | |
| DM0DOS-11 | 2026-08-30 12:30:47 | 51.66689 | 8.15394 | 91° | 9km/h | 29848m | 5.7m/s | -45.6°C | 2.9% | 12.7hPa | 2.7V | 08:30:00 | 02:12:53 | 00:00:00 | |
| HSKMA3-T | 2026-08-30 12:30:46 | 51.66687 | 8.15400 | 139° | 9km/h | 29860m | 5.1m/s | -45.8°C | 0% | 12.7hPa | 2.6V | 18:12:15 | 02:12:55 | 00:00:00 | |
| DJ2KF-10 | 2026-08-30 12:30:46 | 51.66687 | 8.15400 | 139° | 18km/h | 29860m | 5.1m/s | -45.7°C | 2.9% | 12.6hPa | 2.7V | 00:00:00 | 02:12:55 | 00:00:00 | |
| DL1NUX | 2026-08-30 12:30:44 | 51.66690 | 8.15363 | 100° | 20km/h | 29820m | 5m/s | -45.8°C | 2.9% | 12.8hPa | 2.7V | 08:30:00 | 02:12:48 | 00:00:00 | |
| AA1-15 | 2026-08-30 12:30:44 | 51.66689 | 8.15394 | 92° | 9km/h | 29848m | 5.7m/s | -45.6°C | 0% | 12.7hPa | 2.7V | 18:12:15 | 02:12:53 | 00:00:00 | |
| DL1XH-west | 2026-08-30 12:30:43 | 51.66689 | 8.15389 | 83° | 13km/h | 29843m | 5m/s | -45.6°C | 0% | 12.8hPa | 2.7V | 18:12:15 | 02:12:52 | 00:00:00 | |
| DL1ZP-14 | 2026-08-30 12:30:43 | 51.66689 | 8.15384 | 86° | 13km/h | 29838m | 5.0m/s | -45.7°C | 0.6% | 12.8hPa | 2.6V | 00:00:00 | 00:00:00 | 00:00:00 | |
| DB0ND-19 | 2026-08-30 12:30:42 | 51.66689 | 8.15378 | 95° | 16km/h | 29832m | 6.3m/s | -45.7°C | 0.6% | 12.8hPa | 2.6V | 00:00:00 | 00:00:00 | 00:00:00 | |
| DJ2DS-15 | 2026-08-30 12:30:41 | 51.66690 | 8.15371 | 102° | 18km/h | 29826m | 5.9m/s | -45.8°C | 0.6% | 12.8hPa | 2.6V | 00:00:00 | 00:00:00 | 00:00:00 | |
| DL1XH-15 | 2026-08-30 12:30:40 | 51.66690 | 8.15340 | 74° | 18km/h | 29804m | 5.2m/s | -45.7°C | 2.9% | 12.8hPa | 2.6V | 08:30:00 | 02:12:45 | 00:00:00 | |
| BIOWL1-15 | 2026-08-30 12:30:39 | 51.66691 | 8.15347 | 84° | 20km/h | 29809m | 6.4m/s | -45.7°C | 0% | 12.8hPa | 2.7V | 18:12:15 | 02:12:46 | 00:00:00 | |
| DO2JMG | 2026-08-30 12:30:38 | 51.66691 | 8.15355 | 93° | 20km/h | 29815m | 5.2m/s | -45.8°C | 0% | 12.8hPa | 2.7V | 18:12:15 | 02:12:47 | 00:00:00 | |
| DJ2DS-15 | 2026-08-30 12:30:38 | 51.66691 | 8.15355 | 94° | 18km/h | 29816m | 5.1m/s | -45.8°C | 2.9% | 12.7hPa | 2.7V | 00:00:00 | 02:12:47 | 00:00:00 | |
| BIOWL9-15 | 2026-08-30 12:30:37 | 51.66690 | 8.15340 | 74° | 18km/h | 29804m | 5.2m/s | -45.7°C | 0.6% | 12.8hPa | 2.7V | 00:00:00 | 00:00:00 | 00:00:00 | |
| DM0DOS-11 | 2026-08-30 12:30:36 | 51.66689 | 8.15322 | 105° | 13km/h | 29789m | 6.5m/s | -45.6°C | 2.9% | 12.8hPa | 2.7V | 08:30:00 | 02:12:42 | 00:00:00 | |
| DL1XH1-15 | 2026-08-30 12:30:36 | 51.66688 | 8.15327 | 85° | 13km/h | 29794m | 4.7m/s | -45.6°C | 2.9% | 12.8hPa | 2.6V | 08:30:00 | 02:12:43 | 00:00:00 | |
| HSKMA3-T | 2026-08-30 12:30:36 | 51.66690 | 8.15340 | 75° | 18km/h | 29804m | 5.2m/s | -45.7°C | 0% | 12.8hPa | 2.6V | 18:12:15 | 02:12:45 | 00:00:00 | |
| DL3AQ-11 | 2026-08-30 12:30:35 | 51.66689 | 8.15322 | 105° | 11km/h | 29789m | 6.5m/s | -45.6°C | 0.6% | 12.8hPa | 2.6V | 00:00:00 | 00:00:00 | 00:00:00 | |
| DL1NUX | 2026-08-30 12:30:34 | 51.66699 | 8.15303 | 123° | 15km/h | 29768m | 5.4m/s | -45.5°C | 2.8% | 12.9hPa | 2.6V | 08:30:00 | 02:12:38 | 00:00:00 | |
| AA1-15 | 2026-08-30 12:30:33 | 51.66689 | 8.15322 | 105° | 13km/h | 29789m | 6.5m/s | -45.6°C | 0% | 12.8hPa | 2.7V | 18:12:15 | 02:12:42 | 00:00:00 | |
| DL1XH-west | 2026-08-30 12:30:32 | 51.66690 | 8.15317 | 131° | 15km/h | 29782m | 5.9m/s | -45.6°C | 0% | 12.9hPa | 2.7V | 18:12:15 | 02:12:41 | 00:00:00 | |
| DO2KSM | 2026-08-30 12:30:30 | 51.66693 | 8.15313 | 141° | 16km/h | 29777m | 5.0m/s | -45.6°C | 0.6% | 12.9hPa | 2.6V | 00:00:00 | 00:00:00 | 00:00:00 | |
| DL1XH1-15 | 2026-08-30 12:30:29 | 51.66698 | 8.15266 | 85° | 24km/h | 29739m | 6.4m/s | -45.6°C | 2.8% | 12.9hPa | 2.6V | 08:30:00 | 02:12:33 | 00:00:00 | |
| DD8BA-10 | 2026-08-30 12:30:29 | 51.66699 | 8.15303 | 124° | 20km/h | 29768m | 5.4m/s | -45.5°C | 2.8% | 12.8hPa | 2.7V | 00:00:00 | 00:00:00 | 00:00:00 | |
| AU51GT2 | 2026-08-30 12:30:28 | 51.66700 | 8.15298 | 101° | 15km/h | 29762m | 6.1m/s | -45.5°C | 0.6% | 12.9hPa | 2.7V | 00:00:00 | 00:00:00 | 00:00:00 | |
| DL1XH-15 | 2026-08-30 12:30:27 | 51.66700 | 8.15284 | 77° | 20km/h | 29750m | 5.2m/s | -45.5°C | 2.8% | 12.9hPa | 2.7V | 08:30:00 | 02:12:35 | 00:00:00 | |
| DO2JMG | 2026-08-30 12:30:27 | 51.66700 | 8.15291 | 83° | 18km/h | 29756m | 5.6m/s | -45.5°C | 0% | 12.9hPa | 2.7V | 18:12:15 | 02:12:36 | 00:00:00 | |
| BIOWL1-15 | 2026-08-30 12:30:26 | 51.66700 | 8.15284 | 77° | 20km/h | 29751m | 5.2m/s | -45.5°C | 0% | 12.9hPa | 2.7V | 18:12:15 | 02:12:35 | 00:00:00 | |
| DD1CC8 | 2026-08-30 12:30:25 | 51.66699 | 8.15275 | 79° | 22km/h | 29745m | 5.9m/s | -45.6°C | 0.6% | 12.9hPa | 2.6V | 00:00:00 | 00:00:00 | 00:00:00 | |
| DM0DOS-11 | 2026-08-30 12:30:24 | 51.66698 | 8.15257 | 91° | 24km/h | 29733m | 5.4m/s | -45.6°C | 2.8% | 13hPa | 2.6V | 08:30:00 | 02:12:32 | 00:00:00 | |
| DL1XH-west | 2026-08-30 12:30:22 | 51.66698 | 8.15247 | 94° | 24km/h | 29728m | 5m/s | -45.6°C | 0% | 13hPa | 2.6V | 18:12:15 | 02:12:31 | 00:00:00 | |
| DL3OBA | 2026-08-30 12:30:21 | 51.66698 | 8.15247 | 95° | 24km/h | 29728m | 5.0m/s | -45.6°C | 0% | 0hPa | 2.7V | 00:00:00 | 00:00:00 | 00:00:00 | |
| DO9LL-15 | 2026-08-30 12:30:20 | 51.66698 | 8.15228 | 90° | 26km/h | 29716m | 5.8m/s | -45.6°C | 2.8% | 12.9hPa | 2.7V | 00:00:00 | 02:12:29 | 00:00:00 | |
| GOEST3-10 | 2026-08-30 12:30:19 | 51.66698 | 8.15219 | 94° | 22km/h | 29711m | 4.8m/s | -45.7°C | 2.8% | 13.0hPa | 2.6V | 00:00:00 | 00:00:00 | 00:00:00 | |
| DJ8HS-15 | 2026-08-30 12:30:18 | 51.66699 | 8.15211 | 104° | 26km/h | 29706m | 4.9m/s | -45.8°C | 2.8% | 13.0hPa | 2.6V | 00:00:00 | 02:12:27 | 00:00:00 | |
| DJ3KS | 2026-08-30 12:30:17 | 51.66699 | 8.15211 | 104° | 20km/h | 29706m | 4.9m/s | -45.8°C | 0.6% | 13.0hPa | 2.6V | 00:00:00 | 00:00:00 | 00:00:00 | |
| DL1XH1-15 | 2026-08-30 12:30:16 | 51.66708 | 8.15180 | 107° | 22km/h | 29683m | 5.5m/s | -46.1°C | 2.9% | 13.1hPa | 2.6V | 08:30:00 | 02:12:23 | 00:00:00 | |
| BIOWL1-15 | 2026-08-30 12:30:16 | 51.66703 | 8.15196 | 122° | 22km/h | 29694m | 5.6m/s | -46°C | 0% | 13hPa | 2.7V | 18:12:15 | 02:12:25 | 00:00:00 | |
| DB0NH | 2026-08-30 12:30:16 | 51.66703 | 8.15196 | 122° | 27km/h | 29694m | 5.6m/s | -45.9°C | 2.8% | 13.0hPa | 2.6V | 00:00:00 | 02:12:25 | 00:00:00 | |
| DM0DOS-11 | 2026-08-30 12:30:14 | 51.66710 | 8.15170 | 94° | 24km/h | 29677m | 6.3m/s | -46.2°C | 2.8% | 13.1hPa | 2.6V | 08:30:00 | 02:12:22 | 00:00:00 | |
| DL1NUX | 2026-08-30 12:30:14 | 51.66705 | 8.15126 | 80° | 27km/h | 29656m | 5.8m/s | -46.4°C | 2.9% | 13.1hPa | 2.6V | 08:30:00 | 02:12:18 | 00:00:00 | |
| DL1XH-west | 2026-08-30 12:30:12 | 51.66709 | 8.15160 | 82° | 27km/h | 29672m | 5.4m/s | -46.2°C | 0% | 13.1hPa | 2.7V | 18:12:15 | 02:12:21 | 00:00:00 | |
| AA1-15 | 2026-08-30 12:30:11 | 51.66708 | 8.15148 | 77° | 29km/h | 29666m | 4.5m/s | -46.3°C | 0% | 13.1hPa | 2.7V | 18:12:15 | 02:12:20 | 00:00:00 | |
| DB0ND-19 | 2026-08-30 12:30:11 | 51.66706 | 8.15137 | 76° | 27km/h | 29662m | 5.6m/s | -46.4°C | 0.6% | 13.1hPa | 2.6V | 00:00:00 | 00:00:00 | 00:00:00 | |
| DO3DL | 2026-08-30 12:30:10 | 51.66706 | 8.15137 | 78° | 29km/h | 29662m | 5.6m/s | -46.4°C | 0.6% | 13.1hPa | 2.6V | 00:00:00 | 00:00:00 | 00:00:00 | |
| DL1XH1-15 | 2026-08-30 12:30:09 | 51.66701 | 8.15077 | 76° | 24km/h | 29628m | 5.7m/s | -46.3°C | 2.9% | 13.1hPa | 2.6V | 08:30:00 | 02:12:13 | 00:00:00 | |
| DO2JMG | 2026-08-30 12:30:06 | 51.66703 | 8.15096 | 83° | 24km/h | 29640m | 5.4m/s | -46.4°C | 0% | 13.1hPa | 2.7V | 18:12:15 | 02:12:15 | 00:00:00 | |
| BIOWL1-15 | 2026-08-30 12:30:05 | 51.66699 | 8.15067 | 77° | 26km/h | 29623m | 4.8m/s | -46.3°C | 0% | 13.2hPa | 2.6V | 18:12:15 | 02:12:12 | 00:00:00 | |
| HSKMA3-T | 2026-08-30 12:30:05 | 51.66702 | 8.15086 | 80° | 24km/h | 29634m | 6.5m/s | -46.4°C | 0% | 13.1hPa | 2.6V | 18:12:15 | 02:12:14 | 00:00:00 | |
| DJ2DS-15 | 2026-08-30 12:30:05 | 51.66701 | 8.15077 | 76° | 24km/h | 29628m | 5.7m/s | -46.3°C | 0.6% | 13.1hPa | 2.7V | 00:00:00 | 00:00:00 | 00:00:00 | |
| DM0DOS-11 | 2026-08-30 12:30:04 | 51.66698 | 8.15057 | 82° | 26km/h | 29617m | 5.9m/s | -46.3°C | 3% | 13.2hPa | 2.7V | 08:30:00 | 02:12:11 | 00:00:00 | |
| DL1XH-west | 2026-08-30 12:30:02 | 51.66698 | 8.15047 | 87° | 26km/h | 29611m | 6m/s | -46.4°C | 0% | 13.2hPa | 2.7V | 18:12:15 | 02:12:10 | 00:00:00 | |
| AA1-15 | 2026-08-30 12:30:00 | 51.66697 | 8.15036 | 86° | 26km/h | 29606m | 5m/s | -46.4°C | 0% | 13.2hPa | 2.7V | 18:12:15 | 02:12:09 | 00:00:00 | |
| DD8BA-10 | 2026-08-30 12:29:59 | 51.66696 | 8.15026 | 78° | 31km/h | 29602m | 4.3m/s | -46.4°C | 3.0% | 13.2hPa | 2.6V | 00:00:00 | 00:00:00 | 00:00:00 | |
| DJ2DS-15 | 2026-08-30 12:29:58 | 51.66694 | 8.15015 | 65° | 33km/h | 29596m | 5.5m/s | -46.4°C | 3.0% | 13.2hPa | 2.6V | 00:00:00 | 02:12:07 | 00:00:00 | |
| DM0DOS-11 | 2026-08-30 12:29:57 | 51.66659 | 8.14961 | 44° | 24km/h | 29562m | 5.9m/s | -46.4°C | 3% | 13.3hPa | 2.6V | 08:30:00 | 02:12:01 | 00:00:00 | |
| HSKMA3-T | 2026-08-30 12:29:55 | 51.66677 | 8.14984 | 38° | 37km/h | 29579m | 4.5m/s | -46.4°C | 0% | 13.3hPa | 2.7V | 18:12:15 | 02:12:04 | 00:00:00 | |
| DL1NUX | 2026-08-30 12:29:55 | 51.66650 | 8.14938 | 65° | 26km/h | 29546m | 5.9m/s | -46.4°C | 3% | 13.3hPa | 2.7V | 08:30:00 | 02:11:58 | 00:00:00 | |
| DO2JMG | 2026-08-30 12:29:54 | 51.66670 | 8.14976 | 36° | 33km/h | 29574m | 5.4m/s | -46.4°C | 0% | 13.3hPa | 2.7V | 18:12:15 | 02:12:03 | 00:00:00 | |
| BIOWL1-15 | 2026-08-30 12:29:52 | 51.66656 | 8.14954 | 56° | 20km/h | 29556m | 5.2m/s | -46.4°C | 0% | 13.3hPa | 2.6V | 18:12:15 | 02:12:00 | 00:00:00 | |
| DL1XH-west | 2026-08-30 12:29:50 | 51.66653 | 8.14947 | 64° | 22km/h | 29552m | 4.8m/s | -46.4°C | 0% | 13.3hPa | 2.7V | 18:12:15 | 02:11:59 | 00:00:00 | |
| DO2KSM | 2026-08-30 12:29:50 | 51.66653 | 8.14947 | 65° | 22km/h | 29552m | 4.8m/s | -46.4°C | 0.6% | 13.3hPa | 2.7V | 00:00:00 | 00:00:00 | 00:00:00 | |
| DL1XH1-15 | 2026-08-30 12:29:49 | 51.66630 | 8.14873 | 64° | 40km/h | 29518m | 6.3m/s | -46.2°C | 2.9% | 13.4hPa | 2.7V | 08:30:00 | 02:11:53 | 00:00:00 | |
| AA1-15 | 2026-08-30 12:29:49 | 51.66650 | 8.14938 | 66° | 26km/h | 29546m | 5.9m/s | -46.4°C | 0% | 13.3hPa | 2.7V | 18:12:15 | 02:11:58 | 00:00:00 | |
| DD8BA-10 | 2026-08-30 12:29:49 | 51.66650 | 8.14938 | 66° | 35km/h | 29546m | 5.8m/s | -46.4°C | 3.0% | 13.3hPa | 2.7V | 00:00:00 | 00:00:00 | 00:00:00 | |
| DJ3KS | 2026-08-30 12:29:47 | 51.66647 | 8.14928 | 65° | 31km/h | 29540m | 6.4m/s | -46.4°C | 0.6% | 13.3hPa | 2.7V | 00:00:00 | 00:00:00 | 00:00:00 | |
| DM0DOS-11 | 2026-08-30 12:29:46 | 51.66621 | 8.14847 | 53° | 35km/h | 29507m | 4.7m/s | -46.3°C | 2.9% | 13.4hPa | 2.7V | 08:30:00 | 02:11:51 | 00:00:00 | |
| HSKMA3-T | 2026-08-30 12:29:44 | 51.66630 | 8.14873 | 64° | 40km/h | 29518m | 6.3m/s | -46.2°C | 0% | 13.4hPa | 2.7V | 18:12:15 | 02:11:53 | 00:00:00 | |
| DO2JMG | 2026-08-30 12:29:43 | 51.66626 | 8.14859 | 62° | 37km/h | 29512m | 5.5m/s | -46.2°C | 0% | 13.4hPa | 2.7V | 18:12:15 | 02:11:52 | 00:00:00 | |
| DL1XH-15 | 2026-08-30 12:29:41 | 51.66579 | 8.14802 | 33° | 26km/h | 29472m | 6.4m/s | -46.4°C | 3% | 13.5hPa | 2.7V | 08:30:00 | 02:11:45 | 00:00:00 | |
| DL1XH-west | 2026-08-30 12:29:40 | 51.66608 | 8.14827 | 35° | 35km/h | 29495m | 6.8m/s | -46.4°C | 0% | 13.4hPa | 2.6V | 18:12:15 | 02:11:49 | 00:00:00 | |
| AA1-15 | 2026-08-30 12:29:38 | 51.66593 | 8.14813 | 25° | 35km/h | 29484m | 4.9m/s | -46.4°C | 0% | 13.5hPa | 2.7V | 18:12:15 | 02:11:47 | 00:00:00 | |
| DJ8HS-15 | 2026-08-30 12:29:38 | 51.66593 | 8.14813 | 25° | 33km/h | 29484m | 4.9m/s | -46.3°C | 3.0% | 13.4hPa | 2.7V | 00:00:00 | 02:11:47 | 00:00:00 | |
| BUE01 | 2026-08-30 12:29:37 | 51.66585 | 8.14808 | 25° | 29km/h | 29479m | 6.1m/s | -46.4°C | 0.6% | 13.4hPa | 2.7V | 00:00:00 | 00:00:00 | 00:00:00 | |
| DM0DOS-11 | 2026-08-30 12:29:36 | 51.66562 | 8.14768 | 57° | 35km/h | 29449m | 6m/s | -46.4°C | 2.9% | 13.5hPa | 2.7V | 08:30:00 | 02:11:41 | 00:00:00 | |
| DL1XH1-15 | 2026-08-30 12:29:36 | 51.66570 | 8.14788 | 55° | 26km/h | 29460m | 5.2m/s | -46.4°C | 2.9% | 13.5hPa | 2.6V | 08:30:00 | 02:11:43 | 00:00:00 | |
| HSKMA3-T | 2026-08-30 12:29:34 | 51.66570 | 8.14788 | 55° | 26km/h | 29460m | 5.2m/s | -46.4°C | 0% | 13.5hPa | 2.6V | 18:12:15 | 02:11:43 | 00:00:00 | |
| DO2JMG | 2026-08-30 12:29:32 | 51.66562 | 8.14768 | 57° | 35km/h | 29449m | 6m/s | -46.4°C | 0% | 13.5hPa | 2.7V | 18:12:15 | 02:11:41 | 00:00:00 | |
| DL1XH-15 | 2026-08-30 12:29:31 | 51.66528 | 8.14704 | 34° | 33km/h | 29416m | 5.3m/s | -46.2°C | 2.9% | 13.6hPa | 2.6V | 08:30:00 | 02:11:35 | 00:00:00 | |
| DL1XH-west | 2026-08-30 12:29:30 | 51.66552 | 8.14744 | 53° | 38km/h | 29438m | 4.7m/s | -46.4°C | 0% | 13.6hPa | 2.6V | 18:12:15 | 02:11:39 | 00:00:00 | |
| DL1XH1-15 | 2026-08-30 12:29:29 | 51.66513 | 8.14691 | 22° | 38km/h | 29404m | 6.7m/s | -46.3°C | 2.9% | 13.6hPa | 2.7V | 08:30:00 | 02:11:33 | 00:00:00 | |
| AA1-15 | 2026-08-30 12:29:27 | 51.66535 | 8.14712 | 42° | 31km/h | 29421m | 5.3m/s | -46.2°C | 0% | 13.6hPa | 2.6V | 18:12:15 | 02:11:36 | 00:00:00 | |
| DM0DOS-11 | 2026-08-30 12:29:26 | 51.66494 | 8.14680 | 18° | 40km/h | 29393m | 4.5m/s | -46.2°C | 2.9% | 13.6hPa | 2.6V | 08:30:00 | 02:11:31 | 00:00:00 | |
| HSKMA3-T | 2026-08-30 12:29:23 | 51.66503 | 8.14685 | 20° | 40km/h | 29398m | 5.5m/s | -46.3°C | 0% | 13.6hPa | 2.7V | 18:12:15 | 02:11:32 | 00:00:00 | |
| DO2JMG | 2026-08-30 12:29:22 | 51.66494 | 8.14680 | 19° | 40km/h | 29393m | 4.5m/s | -46.2°C | 0% | 13.6hPa | 2.6V | 18:12:15 | 02:11:31 | 00:00:00 | |
| DL1XH-15 | 2026-08-30 12:29:21 | 51.66456 | 8.14650 | 35° | 29km/h | 29360m | 6.3m/s | -46.4°C | 2.9% | 13.7hPa | 2.6V | 08:30:00 | 02:11:25 | 00:00:00 | |
| DL1XH-west | 2026-08-30 12:29:19 | 51.66471 | 8.14666 | 26° | 24km/h | 29376m | 6.3m/s | -46.3°C | 0% | 13.7hPa | 2.7V | 18:12:15 | 02:11:28 | 00:00:00 | |
| AA1-15 | 2026-08-30 12:29:17 | 51.66461 | 8.14656 | 37° | 24km/h | 29365m | 5m/s | -46.4°C | 0% | 13.7hPa | 2.7V | 18:12:15 | 02:11:26 | 00:00:00 | |
| DL1XH1-15 | 2026-08-30 12:29:16 | 51.66441 | 8.14635 | 27° | 38km/h | 29349m | 4.7m/s | -46.3°C | 2.9% | 13.7hPa | 2.6V | 08:30:00 | 02:11:23 | 00:00:00 | |
| DB0NH | 2026-08-30 12:29:16 | 51.66456 | 8.14650 | 36° | 40km/h | 29360m | 6.2m/s | -46.4°C | 2.9% | 13.7hPa | 2.7V | 00:00:00 | 02:11:25 | 00:00:00 | |
| DM0DOS-11 | 2026-08-30 12:29:15 | 51.66423 | 8.14623 | 17° | 38km/h | 29338m | 6.3m/s | -46.4°C | 2.9% | 13.8hPa | 2.7V | 08:30:00 | 02:11:21 | 00:00:00 | |
| BIOWL1-15 | 2026-08-30 12:29:13 | 51.66331 | 8.14586 | 27° | 27km/h | 29280m | 4.7m/s | -46.6°C | 0% | 13.9hPa | 2.6V | 18:12:15 | 02:11:11 | 00:00:00 | |
| HSKMA3-T | 2026-08-30 12:29:13 | 51.66432 | 8.14629 | 23° | 40km/h | 29344m | 5.3m/s | -46.4°C | 0% | 13.8hPa | 2.7V | 18:12:15 | 02:11:22 | 00:00:00 | |
| DB0UT-7 | 2026-08-30 12:29:13 | 51.66432 | 8.14629 | 23° | 38km/h | 29344m | 5.3m/s | -46.3°C | 3.0% | 13.7hPa | 2.7V | 00:00:00 | 00:00:00 | 00:00:00 | |
| DL1XH-15 | 2026-08-30 12:29:11 | 51.66363 | 8.14607 | 14° | 42km/h | 29303m | 5.1m/s | -46.6°C | 3% | 13.8hPa | 2.7V | 08:30:00 | 02:11:15 | 00:00:00 | |
| DO2JMG | 2026-08-30 12:29:11 | 51.66414 | 8.14619 | 12° | 38km/h | 29332m | 6.1m/s | -46.5°C | 0% | 13.8hPa | 2.7V | 18:12:15 | 02:11:20 | 00:00:00 | |
| DL1XH-west | 2026-08-30 12:29:09 | 51.66394 | 8.14615 | 5° | 40km/h | 29321m | 5.2m/s | -46.7°C | 0% | 13.8hPa | 2.6V | 18:12:15 | 02:11:18 | 00:00:00 | |
| DL1XH1-15 | 2026-08-30 12:29:09 | 51.66345 | 8.14597 | 23° | 33km/h | 29292m | 6.8m/s | -46.6°C | 3% | 13.8hPa | 2.6V | 08:30:00 | 02:11:13 | 00:00:00 | |
| AA1-15 | 2026-08-30 12:29:07 | 51.66373 | 8.14611 | 11° | 44km/h | 29309m | 5.8m/s | -46.6°C | 0% | 13.8hPa | 2.7V | 18:12:15 | 02:11:16 | 00:00:00 | |
| BUE01 | 2026-08-30 12:29:06 | 51.66353 | 8.14602 | 19° | 37km/h | 29298m | 5.5m/s | -46.6°C | 0.6% | 13.8hPa | 2.7V | 00:00:00 | 00:00:00 | 00:00:00 | |
| DC4HF-4 | 2026-08-30 12:29:05 | 51.66338 | 8.14592 | 27° | 29km/h | 29286m | 5.8m/s | -46.6°C | 0.6% | 13.9hPa | 2.7V | 00:00:00 | 00:00:00 | 00:00:00 | |
| DL1NUX | 2026-08-30 12:29:04 | 51.66308 | 8.14573 | 9° | 40km/h | 29264m | 6.3m/s | -46.6°C | 3% | 13.9hPa | 2.7V | 08:30:00 | 02:11:08 | 00:00:00 | |
| HSKMA3-T | 2026-08-30 12:29:03 | 51.66338 | 8.14592 | 28° | 29km/h | 29285m | 5.8m/s | -46.6°C | 0% | 13.9hPa | 2.6V | 18:12:15 | 02:11:12 | 00:00:00 | |
| DO2JMG | 2026-08-30 12:29:01 | 51.66325 | 8.14581 | 23° | 29km/h | 29275m | 4.6m/s | -46.6°C | 0% | 13.9hPa | 2.7V | 18:12:15 | 02:11:10 | 00:00:00 | |
| DL1XH-west | 2026-08-30 12:28:59 | 51.66308 | 8.14573 | 10° | 40km/h | 29264m | 6.3m/s | -46.6°C | 0% | 13.9hPa | 2.7V | 18:12:15 | 02:11:08 | 00:00:00 | |
| BIOWL1-15 | 2026-08-30 12:28:57 | 51.66285 | 8.14571 | 359° | 47km/h | 29252m | 6.2m/s | -46.6°C | 0% | 14hPa | 2.6V | 18:12:15 | 02:11:06 | 00:00:00 | |
| AA1-15 | 2026-08-30 12:28:57 | 51.66261 | 8.14574 | 353° | 49km/h | 29240m | 5.2m/s | -46.6°C | 0% | 14hPa | 2.7V | 18:12:15 | 02:11:04 | 00:00:00 | |
| DM0DOS-11 | 2026-08-30 12:28:56 | 51.66224 | 8.14580 | 357° | 49km/h | 29224m | 6m/s | -46.4°C | 2.9% | 14hPa | 2.6V | 08:30:00 | 02:11:01 | 00:00:00 | |
| HSKMA3-T | 2026-08-30 12:28:53 | 51.66237 | 8.14579 | 354° | 49km/h | 29230m | 5.7m/s | -46.4°C | 0% | 14hPa | 2.7V | 18:12:15 | 02:11:02 | 00:00:00 | |
| DJ2DS-15 | 2026-08-30 12:28:53 | 51.66224 | 8.14580 | 357° | 49km/h | 29224m | 6.0m/s | -46.4°C | 0.6% | 14.0hPa | 2.7V | 00:00:00 | 00:00:00 | 00:00:00 | |
| DD1CC8 | 2026-08-30 12:28:52 | 51.66224 | 8.14580 | 357° | 49km/h | 29224m | 6.0m/s | -46.4°C | 0.6% | 14.0hPa | 2.7V | 00:00:00 | 00:00:00 | 00:00:00 | |
| DL1NUX | 2026-08-30 12:28:51 | 51.66191 | 8.14579 | 4° | 37km/h | 29208m | 6.6m/s | -46.6°C | 2.9% | 14hPa | 2.7V | 08:30:00 | 02:10:58 | 00:00:00 | |
| DO2JMG | 2026-08-30 12:28:51 | 51.66212 | 8.14581 | 1° | 47km/h | 29218m | 5.1m/s | -46.4°C | 0% | 14hPa | 2.6V | 18:12:15 | 02:11:00 | 00:00:00 | |
| DO9LL-15 | 2026-08-30 12:28:50 | 51.66201 | 8.14580 | 4° | 44km/h | 29214m | 4.7m/s | -46.5°C | 2.9% | 14.0hPa | 2.6V | 00:00:00 | 02:10:59 | 08:30:00 | |
| DL1XH1-15 | 2026-08-30 12:28:49 | 51.66155 | 8.14568 | 12° | 35km/h | 29178m | 5.9m/s | -46.6°C | 3% | 14.1hPa | 2.7V | 08:30:00 | 02:10:53 | 00:00:00 | |
| DL1XH-west | 2026-08-30 12:28:49 | 51.66191 | 8.14579 | 5° | 37km/h | 29208m | 6.6m/s | -46.6°C | 0% | 14hPa | 2.7V | 18:12:15 | 02:10:58 | 00:00:00 | |
| BIOWL1-15 | 2026-08-30 12:28:46 | 51.66170 | 8.14574 | 13° | 26km/h | 29190m | 4.7m/s | -46.5°C | 0% | 14.1hPa | 2.6V | 18:12:15 | 02:10:55 | 00:00:00 | |
| AA1-15 | 2026-08-30 12:28:45 | 51.66163 | 8.14571 | 15° | 29km/h | 29184m | 6.1m/s | -46.6°C | 0% | 14.1hPa | 2.6V | 18:12:15 | 02:10:54 | 00:00:00 | |
| DM0DOS-11 | 2026-08-30 12:28:45 | 51.66134 | 8.14563 | 4° | 46km/h | 29168m | 5m/s | -46.6°C | 3% | 14.1hPa | 2.6V | 08:30:00 | 02:10:51 | 00:00:00 | |
| HSKMA3-T | 2026-08-30 12:28:43 | 51.66134 | 8.14563 | 5° | 46km/h | 29168m | 5m/s | -46.6°C | 0% | 14.2hPa | 2.6V | 18:12:15 | 02:10:51 | 00:00:00 | |
| DO2JMG | 2026-08-30 12:28:40 | 51.66111 | 8.14563 | 356° | 46km/h | 29156m | 6.1m/s | -46.6°C | 0% | 14.1hPa | 2.7V | 18:12:15 | 02:10:49 | 00:00:00 | |
| DL1XH-west | 2026-08-30 12:28:38 | 51.66089 | 8.14566 | 354° | 42km/h | 29145m | 5.1m/s | -46.6°C | 0% | 14.2hPa | 2.6V | 18:12:15 | 02:10:47 | 00:00:00 | |
| DO3DL | 2026-08-30 12:28:38 | 51.66088 | 8.14566 | 355° | 42km/h | 29146m | 5.1m/s | -46.6°C | 0.6% | 14.2hPa | 2.7V | 00:00:00 | 00:00:00 | 00:00:00 | |
| DD1CC3-15 | 2026-08-30 12:28:37 | 51.66088 | 8.14566 | 355° | 42km/h | 29146m | 5.1m/s | -46.6°C | 0.6% | 14.2hPa | 2.7V | 00:00:00 | 00:00:00 | 00:00:00 | |
| DL1XH1-15 | 2026-08-30 12:28:36 | 51.66046 | 8.14564 | 7° | 46km/h | 29123m | 5.3m/s | -46.6°C | 2.9% | 14.2hPa | 2.7V | 08:30:00 | 02:10:43 | 00:00:00 | |
| BIOWL1-15 | 2026-08-30 12:28:35 | 51.66024 | 8.14560 | 7° | 40km/h | 29113m | 5.6m/s | -46.6°C | 0% | 14.2hPa | 2.6V | 18:12:15 | 02:10:41 | 00:00:00 | |
| AA1-15 | 2026-08-30 12:28:35 | 51.66057 | 8.14567 | 6° | 44km/h | 29129m | 6.1m/s | -46.6°C | 0% | 14.2hPa | 2.7V | 18:12:15 | 02:10:44 | 00:00:00 | |
| BUE01 | 2026-08-30 12:28:35 | 51.66046 | 8.14564 | 7° | 44km/h | 29123m | 5.3m/s | -46.6°C | 0.6% | 14.2hPa | 2.6V | 00:00:00 | 00:00:00 | 00:00:00 | |
| DM0DOS-11 | 2026-08-30 12:28:34 | 51.66024 | 8.14560 | 6° | 40km/h | 29113m | 5.6m/s | -46.6°C | 2.9% | 14.2hPa | 2.6V | 08:30:00 | 02:10:41 | 00:00:00 | |
| BIOWL9-15 | 2026-08-30 12:28:33 | 51.66024 | 8.14560 | 6° | 40km/h | 29113m | 5.6m/s | -46.6°C | 0.6% | 14.2hPa | 2.6V | 00:00:00 | 00:00:00 | 00:00:00 | |
| SMARD9-15 | 2026-08-30 12:28:32 | 51.66014 | 8.14558 | 5° | 37km/h | 29107m | 6.1m/s | -46.5°C | 0.6% | 14.2hPa | 2.6V | 00:00:00 | 00:00:00 | 00:00:00 | |
| DL1XH-15 | 2026-08-30 12:28:31 | 51.65970 | 8.14550 | 8° | 42km/h | 29079m | 5.5m/s | -46.4°C | 2.9% | 14.3hPa | 2.6V | 08:30:00 | 02:10:35 | 00:00:00 | |
| HSKMA3-T | 2026-08-30 12:28:31 | 51.66014 | 8.14558 | 5° | 37km/h | 29107m | 6.1m/s | -46.5°C | 0% | 14.2hPa | 2.6V | 18:12:15 | 02:10:40 | 00:00:00 | |
| DL1NUX | 2026-08-30 12:28:30 | 51.65980 | 8.14552 | 9° | 37km/h | 29085m | 6.4m/s | -46.5°C | 2.9% | 14.3hPa | 2.6V | 08:30:00 | 02:10:36 | 00:00:00 | |
| DO2JMG | 2026-08-30 12:28:30 | 51.66005 | 8.14557 | 4° | 33km/h | 29101m | 5.5m/s | -46.5°C | 0% | 14.3hPa | 2.7V | 18:12:15 | 02:10:39 | 00:00:00 | |
| WPPR-10 | 2026-08-30 12:28:30 | 51.65997 | 8.14556 | 4° | 31km/h | 29096m | 4.7m/s | -46.6°C | 0.6% | 14.3hPa | 2.7V | 00:00:00 | 00:00:00 | 00:00:00 | |
| DL1XH1-15 | 2026-08-30 12:28:29 | 51.65948 | 8.14547 | 359° | 46km/h | 29068m | 6.2m/s | -46.5°C | 2.9% | 14.3hPa | 2.7V | 08:30:00 | 02:10:33 | 00:00:00 | |
| DL1XH-west | 2026-08-30 12:28:27 | 51.65980 | 8.14552 | 10° | 37km/h | 29085m | 6.4m/s | -46.5°C | 0% | 14.3hPa | 2.6V | 18:12:15 | 02:10:36 | 00:00:00 | |
| BIOWL1-15 | 2026-08-30 12:28:25 | 51.65936 | 8.14548 | 353° | 46km/h | 29062m | 6.6m/s | -46.5°C | 0% | 14.3hPa | 2.7V | 18:12:15 | 02:10:32 | 00:00:00 | |
| AA1-15 | 2026-08-30 12:28:24 | 51.65948 | 8.14547 | 359° | 46km/h | 29068m | 6.2m/s | -46.5°C | 0% | 14.3hPa | 2.7V | 18:12:15 | 02:10:33 | 00:00:00 | |
| DO3DL | 2026-08-30 12:28:23 | 51.65948 | 8.14547 | 360° | 46km/h | 29069m | 6.2m/s | -46.5°C | 0.6% | 14.3hPa | 2.7V | 00:00:00 | 00:00:00 | 00:00:00 | |
| DL1XH-15 | 2026-08-30 12:28:22 | 51.65858 | 8.14569 | 349° | 37km/h | 29022m | 6.6m/s | -46.5°C | 2.8% | 14.4hPa | 2.7V | 08:30:00 | 02:10:25 | 00:00:00 | |
| HSKMA3-T | 2026-08-30 12:28:20 | 51.65901 | 8.14559 | 349° | 47km/h | 29045m | 6.5m/s | -46.6°C | 0% | 14.4hPa | 2.6V | 18:12:15 | 02:10:29 | 00:00:00 | |
| DO2JMG | 2026-08-30 12:28:19 | 51.65890 | 8.14562 | 352° | 47km/h | 29039m | 5.5m/s | -46.4°C | 0% | 14.4hPa | 2.6V | 18:12:15 | 02:10:28 | 00:00:00 | |
| DL1XH-west | 2026-08-30 12:28:17 | 51.65868 | 8.14567 | 352° | 40km/h | 29028m | 5.5m/s | -46.5°C | 0% | 14.4hPa | 2.7V | 18:12:15 | 02:10:26 | 00:00:00 | |
| AA1-15 | 2026-08-30 12:28:13 | 51.65834 | 8.14576 | 355° | 33km/h | 29005m | 5.9m/s | -46.7°C | 0% | 14.5hPa | 2.6V | 18:12:15 | 02:10:22 | 00:00:00 | |
| DM0DOS-11 | 2026-08-30 12:28:13 | 51.65825 | 8.14577 | 359° | 35km/h | 28999m | 6.3m/s | -46.6°C | 2.9% | 14.5hPa | 2.7V | 08:30:00 | 02:10:21 | 00:00:00 | |
| BIOWL1-15 | 2026-08-30 12:28:12 | 51.65825 | 8.14577 | 359° | 35km/h | 28999m | 6.3m/s | -46.7°C | 0% | 14.5hPa | 2.7V | 18:12:15 | 02:10:21 | 00:00:00 | |
| GOEST3-10 | 2026-08-30 12:28:12 | 51.65825 | 8.14577 | 360° | 37km/h | 29000m | 6.2m/s | -46.6°C | 2.9% | 14.5hPa | 2.7V | 00:00:00 | 02:10:21 | 00:00:00 | |
| DL1XH-15 | 2026-08-30 12:28:11 | 51.65771 | 8.14590 | 334° | 35km/h | 28965m | 4.8m/s | -46.6°C | 2.9% | 14.6hPa | 2.7V | 08:30:00 | 02:10:15 | 00:00:00 | |
| DO2JMG | 2026-08-30 12:28:09 | 51.65797 | 8.14578 | 354° | 37km/h | 28983m | 6.1m/s | -46.6°C | 0% | 14.5hPa | 2.6V | 18:12:15 | 02:10:18 | 00:00:00 | |
| DL4BBY-15 | 2026-08-30 12:28:09 | 51.65797 | 8.14578 | 354° | 33km/h | 28983m | 6.1m/s | -46.1°C | 0% | 0hPa | 2.6V | 00:00:00 | 00:00:00 | 00:00:00 | |
| DL3AQ-11 | 2026-08-30 12:28:08 | 51.65788 | 8.14580 | 345° | 35km/h | 28976m | 6.6m/s | -46.6°C | 0.6% | 14.5hPa | 2.6V | 00:00:00 | 00:00:00 | 00:00:00 | |
| DM0DOS-11 | 2026-08-30 12:28:07 | 51.65737 | 8.14611 | 343° | 37km/h | 28943m | 5.2m/s | -46.7°C | 2.9% | 14.6hPa | 2.6V | 08:30:00 | 02:10:11 | 00:00:00 | |
| DL1XH-west | 2026-08-30 12:28:06 | 51.65772 | 8.14590 | 335° | 35km/h | 28965m | 4.8m/s | -46.6°C | 0% | 14.6hPa | 2.7V | 18:12:15 | 02:10:15 | 00:00:00 | |
| AA1-15 | 2026-08-30 12:28:03 | 51.65746 | 8.14606 | 343° | 38km/h | 28948m | 5.4m/s | -46.6°C | 0% | 14.6hPa | 2.6V | 18:12:15 | 02:10:12 | 00:00:00 | |
| EDDB2-11 | 2026-08-30 12:28:02 | 51.65728 | 8.14615 | 341° | 35km/h | 28937m | 6.3m/s | -46.8°C | 0.6% | 14.6hPa | 2.6V | 00:00:00 | 00:00:00 | 00:00:00 | |
| DL1XH-15 | 2026-08-30 12:28:01 | 51.65692 | 8.14631 | 358° | 27km/h | 28909m | 6.1m/s | -46.7°C | 2.9% | 14.7hPa | 2.6V | 08:30:00 | 02:10:05 | 00:00:00 | |
| BIOWL1-15 | 2026-08-30 12:28:01 | 51.65728 | 8.14615 | 342° | 37km/h | 28937m | 6.3m/s | -46.8°C | 0% | 14.6hPa | 2.6V | 18:12:15 | 02:10:10 | 00:00:00 | |
| SMARD9-15 | 2026-08-30 12:28:01 | 51.65720 | 8.14620 | 339° | 33km/h | 28931m | 6.0m/s | -46.8°C | 0.6% | 14.7hPa | 2.6V | 00:00:00 | 00:00:00 | 00:00:00 | |
| DL1NUX | 2026-08-30 12:27:59 | 51.65699 | 8.14630 | 350° | 27km/h | 28915m | 6.6m/s | -46.7°C | 2.9% | 14.7hPa | 2.6V | 08:30:00 | 02:10:06 | 00:00:00 | |
| DO2JMG | 2026-08-30 12:27:58 | 51.65705 | 8.14628 | 344° | 29km/h | 28921m | 4.4m/s | -46.7°C | 0% | 14.7hPa | 2.7V | 18:12:15 | 02:10:07 | 00:00:00 | |
| DJ2DS-15 | 2026-08-30 12:27:58 | 51.65705 | 8.14628 | 345° | 29km/h | 28921m | 4.4m/s | -46.6°C | 2.9% | 14.6hPa | 2.7V | 00:00:00 | 02:10:07 | 00:00:00 | |
| GOEST3-10 | 2026-08-30 12:27:57 | 51.65699 | 8.14630 | 351° | 26km/h | 28916m | 6.5m/s | -46.6°C | 2.9% | 14.6hPa | 2.7V | 00:00:00 | 00:00:00 | 00:00:00 | |
| DL1XH1-15 | 2026-08-30 12:27:56 | 51.65679 | 8.14632 | 354° | 24km/h | 28898m | 5.1m/s | -46.7°C | 2.9% | 14.7hPa | 2.7V | 08:30:00 | 02:10:03 | 00:00:00 | |
| DL1XH-west | 2026-08-30 12:27:55 | 51.65685 | 8.14632 | 0° | 26km/h | 28903m | 5.5m/s | -46.7°C | 0% | 14.7hPa | 2.7V | 18:12:15 | 02:10:04 | 00:00:00 | |
| DM0DOS-11 | 2026-08-30 12:27:55 | 51.65668 | 8.14637 | 330° | 24km/h | 28886m | 5.6m/s | -46.7°C | 2.9% | 14.7hPa | 2.6V | 08:30:00 | 02:10:01 | 00:00:00 | |
| AA1-15 | 2026-08-30 12:27:53 | 51.65673 | 8.14634 | 343° | 22km/h | 28892m | 6.6m/s | -46.7°C | 0% | 14.7hPa | 2.6V | 18:12:15 | 02:10:02 | 00:00:00 | |
| BIOWL1-15 | 2026-08-30 12:27:51 | 51.65663 | 8.14643 | 326° | 27km/h | 28881m | 4.7m/s | -46.7°C | 0% | 14.8hPa | 2.7V | 18:12:15 | 02:10:00 | 00:00:00 | |
| DO9LL-15 | 2026-08-30 12:27:50 | 51.65656 | 8.14649 | 329° | 26km/h | 28876m | 5.2m/s | -46.7°C | 2.9% | 14.7hPa | 2.6V | 00:00:00 | 02:09:59 | 00:00:00 | |
| DL1XH1-15 | 2026-08-30 12:27:49 | 51.65604 | 8.14676 | 340° | 38km/h | 28841m | 6.1m/s | -46.7°C | 2.9% | 14.8hPa | 2.6V | 08:30:00 | 02:09:53 | 00:00:00 | |
| DO2JMG | 2026-08-30 12:27:48 | 51.65642 | 8.14660 | 342° | 35km/h | 28864m | 5.7m/s | -46.8°C | 0% | 14.8hPa | 2.6V | 18:12:15 | 02:09:57 | 00:00:00 | |
| DL1XH-west | 2026-08-30 12:27:45 | 51.65604 | 8.14676 | 340° | 38km/h | 28841m | 6.1m/s | -46.7°C | 0% | 14.8hPa | 2.6V | 18:12:15 | 02:09:53 | 00:00:00 | |
| AA1-15 | 2026-08-30 12:27:42 | 51.65587 | 8.14687 | 338° | 31km/h | 28830m | 5.2m/s | -46.7°C | 0% | 14.9hPa | 2.7V | 18:12:15 | 02:09:51 | 00:00:00 | |
| GOEST3-10 | 2026-08-30 12:27:42 | 51.65587 | 8.14687 | 338° | 24km/h | 28831m | 5.2m/s | -46.7°C | 2.9% | 14.8hPa | 2.7V | 00:00:00 | 02:09:51 | 00:00:00 | |
| DL1XH-15 | 2026-08-30 12:27:41 | 51.65560 | 8.14710 | 302° | 18km/h | 28795m | 5.9m/s | -46.8°C | 2.8% | 15hPa | 2.7V | 08:30:00 | 02:09:45 | 00:00:00 | |
| BIOWL1-15 | 2026-08-30 12:27:40 | 51.65570 | 8.14697 | 339° | 18km/h | 28813m | 4.8m/s | -46.9°C | 0% | 14.9hPa | 2.6V | 18:12:15 | 02:09:48 | 00:00:00 | |
| DO2JMG | 2026-08-30 12:27:37 | 51.65563 | 8.14705 | 312° | 16km/h | 28801m | 6.8m/s | -46.8°C | 0% | 14.9hPa | 2.7V | 18:12:15 | 02:09:46 | 00:00:00 | |
| DL1XH1-15 | 2026-08-30 12:27:36 | 51.65554 | 8.14723 | 318° | 24km/h | 28784m | 6.1m/s | -46.9°C | 2.9% | 15hPa | 2.6V | 08:30:00 | 02:09:43 | 00:00:00 | |
| DL1XH-west | 2026-08-30 12:27:35 | 51.65557 | 8.14717 | 308° | 22km/h | 28790m | 4.8m/s | -46.8°C | 0% | 15hPa | 2.7V | 18:12:15 | 02:09:44 | 00:00:00 | |
| DF8AY | 2026-08-30 12:27:34 | 51.65554 | 8.14723 | 319° | 24km/h | 28784m | 6.1m/s | -47°C | 0% | 15hPa | 2.6V | 18:12:15 | 02:09:43 | 00:00:00 | |
| AA1-15 | 2026-08-30 12:27:31 | 51.65534 | 8.14739 | 339° | 33km/h | 28767m | 5m/s | -47.3°C | 0% | 15hPa | 2.7V | 18:12:15 | 02:09:40 | 00:00:00 | |
| BIOWL1-15 | 2026-08-30 12:27:30 | 51.65527 | 8.14744 | 337° | 35km/h | 28762m | 6m/s | -47.4°C | 0% | 15.1hPa | 2.7V | 18:12:15 | 02:09:39 | 00:00:00 | |
| DF7PN | 2026-08-30 12:27:30 | 51.65519 | 8.14750 | 332° | 33km/h | 28756m | 5.8m/s | -47.4°C | 0.6% | 15.1hPa | 2.7V | 00:00:00 | 00:00:00 | 00:00:00 | |
| DL1XH1-15 | 2026-08-30 12:27:29 | 51.65496 | 8.14771 | 350° | 7km/h | 28729m | 5.4m/s | -47.4°C | 3% | 15.1hPa | 2.7V | 08:30:00 | 02:09:33 | 00:00:00 | |
| DL1NUX | 2026-08-30 12:27:29 | 51.65507 | 8.14762 | 325° | 24km/h | 28746m | 4.2m/s | -47.4°C | 3% | 15.1hPa | 2.6V | 08:30:00 | 02:09:36 | 00:00:00 | |
| DO2JMG | 2026-08-30 12:27:26 | 51.65502 | 8.14767 | 329° | 18km/h | 28741m | 5.5m/s | -47.4°C | 0% | 15.1hPa | 2.6V | 18:12:15 | 02:09:35 | 00:00:00 | |
| DL1XH-west | 2026-08-30 12:27:24 | 51.65497 | 8.14771 | 351° | 7km/h | 28729m | 5.4m/s | -47.4°C | 0% | 15.1hPa | 2.7V | 18:12:15 | 02:09:33 | 00:00:00 | |
| DM0DOS-11 | 2026-08-30 12:27:24 | 51.65494 | 8.14772 | 309° | 5km/h | 28719m | 5.7m/s | -47.5°C | 3% | 15.1hPa | 2.6V | 08:30:00 | 02:09:31 | 00:00:00 | |
| DL1NUX | 2026-08-30 12:27:22 | 51.65484 | 8.14797 | 323° | 22km/h | 28691m | 6.4m/s | -47.8°C | 3% | 15.2hPa | 2.7V | 08:30:00 | 02:09:26 | 00:00:00 | |
| AA1-15 | 2026-08-30 12:27:21 | 51.65493 | 8.14775 | 292° | 9km/h | 28713m | 6.1m/s | -47.6°C | 0% | 15.1hPa | 2.6V | 18:12:15 | 02:09:30 | 00:00:00 | |
| BIOWL1-15 | 2026-08-30 12:27:19 | 51.65491 | 8.14785 | 300° | 18km/h | 28702m | 5.1m/s | -47.7°C | 0% | 15.2hPa | 2.7V | 18:12:15 | 02:09:28 | 00:00:00 | |
| DF8AY | 2026-08-30 12:27:17 | 51.65484 | 8.14797 | 323° | 22km/h | 28691m | 6.4m/s | -47.8°C | 0% | 15.2hPa | 2.7V | 18:12:15 | 02:09:26 | 00:00:00 | |
| GOEST3-10 | 2026-08-30 12:27:17 | 51.65484 | 8.14797 | 324° | 22km/h | 28691m | 6.4m/s | -47.8°C | 3.0% | 15.1hPa | 2.6V | 00:00:00 | 00:00:00 | 00:00:00 | |
| DL1XH1-15 | 2026-08-30 12:27:16 | 51.65469 | 8.14811 | 328° | 24km/h | 28673m | 6.3m/s | -47.8°C | 3% | 15.2hPa | 2.6V | 08:30:00 | 02:09:23 | 00:00:00 | |
| DO2JMG | 2026-08-30 12:27:16 | 51.65479 | 8.14802 | 331° | 24km/h | 28685m | 5.5m/s | -47.9°C | 0% | 15.2hPa | 2.6V | 18:12:15 | 02:09:25 | 00:00:00 | |
| HSKMA3-T | 2026-08-30 12:27:16 | 51.65474 | 8.14806 | 333° | 24km/h | 28680m | 5.2m/s | -47.8°C | 0% | 15.2hPa | 2.6V | 18:12:15 | 02:09:24 | 00:00:00 | |
| DL1XH-west | 2026-08-30 12:27:14 | 51.65469 | 8.14811 | 329° | 24km/h | 28674m | 6.3m/s | -47.8°C | 0% | 15.2hPa | 2.6V | 18:12:15 | 02:09:23 | 00:00:00 | |
| DB0UT-7 | 2026-08-30 12:27:14 | 51.65464 | 8.14816 | 322° | 15km/h | 28668m | 5.6m/s | -47.8°C | 3.0% | 15.2hPa | 2.7V | 00:00:00 | 00:00:00 | 00:00:00 | |
| GOEST3-10 | 2026-08-30 12:27:12 | 51.65461 | 8.14821 | 315° | 9km/h | 28663m | 4.6m/s | -47.9°C | 3.0% | 15.2hPa | 2.7V | 00:00:00 | 02:09:21 | 00:00:00 | |
| DL1XH-15 | 2026-08-30 12:27:11 | 51.65464 | 8.14836 | 242° | 15km/h | 28623m | 5.1m/s | -47.9°C | 3.1% | 15.3hPa | 2.7V | 08:30:00 | 02:09:14 | 00:00:00 | |
| BIOWL1-15 | 2026-08-30 12:27:11 | 51.65457 | 8.14829 | 217° | 2km/h | 28645m | 5.7m/s | -47.9°C | 0% | 15.3hPa | 2.6V | 18:12:15 | 02:09:18 | 00:00:00 | |
| AA1-15 | 2026-08-30 12:27:10 | 51.65457 | 8.14828 | 306° | 5km/h | 28652m | 6.6m/s | -48°C | 0% | 15.3hPa | 2.6V | 18:12:15 | 02:09:19 | 00:00:00 | |
| DL1NUX | 2026-08-30 12:27:09 | 51.65459 | 8.14830 | 201° | 9km/h | 28634m | 6m/s | -47.9°C | 3.1% | 15.3hPa | 2.7V | 08:30:00 | 02:09:16 | 00:00:00 | |
| DF8AY | 2026-08-30 12:27:07 | 51.65459 | 8.14830 | 202° | 9km/h | 28634m | 6m/s | -47.9°C | 0% | 15.3hPa | 2.7V | 18:12:15 | 02:09:16 | 00:00:00 | |
| DO2JMG | 2026-08-30 12:27:05 | 51.65464 | 8.14836 | 242° | 15km/h | 28623m | 5.1m/s | -47.9°C | 0% | 15.4hPa | 2.7V | 18:12:15 | 02:09:14 | 00:00:00 | |
| DL1XH-west | 2026-08-30 12:27:04 | 51.65465 | 8.14842 | 266° | 15km/h | 28618m | 4.4m/s | -48°C | 0% | 15.4hPa | 2.6V | 18:12:15 | 02:09:13 | 00:00:00 | |
| GOEST3-10 | 2026-08-30 12:27:02 | 51.65462 | 8.14853 | 316° | 24km/h | 28607m | 6.1m/s | -47.9°C | 3.1% | 15.3hPa | 2.7V | 00:00:00 | 02:09:11 | 00:00:00 | |
| BUE01 | 2026-08-30 12:27:01 | 51.65458 | 8.14858 | 330° | 22km/h | 28601m | 5.1m/s | -48.0°C | 0.7% | 15.4hPa | 2.7V | 00:00:00 | 00:00:00 | 00:00:00 | |
| DL1XH-15 | 2026-08-30 12:27:00 | 51.65429 | 8.14880 | 4° | 7km/h | 28571m | 5.7m/s | -47.8°C | 3.1% | 15.5hPa | 2.7V | 08:30:00 | 02:09:04 | 00:00:00 | |
| AA1-15 | 2026-08-30 12:27:00 | 51.65453 | 8.14862 | 335° | 26km/h | 28596m | 5.1m/s | -48.1°C | 0% | 15.4hPa | 2.7V | 18:12:15 | 02:09:09 | 00:00:00 | |
| DL1NUX | 2026-08-30 12:26:59 | 51.65436 | 8.14876 | 331° | 20km/h | 28580m | 4.3m/s | -47.8°C | 3% | 15.5hPa | 2.6V | 08:30:00 | 02:09:06 | 00:00:00 | |
| DF8AY | 2026-08-30 12:26:56 | 51.65432 | 8.14879 | 337° | 13km/h | 28576m | 4.1m/s | -47.8°C | 0% | 15.5hPa | 2.6V | 18:12:15 | 02:09:05 | 00:00:00 | |
| DM0DOS-11 | 2026-08-30 12:26:55 | 51.65429 | 8.14870 | 109° | 13km/h | 28552m | 4.8m/s | -47.9°C | 3.1% | 15.5hPa | 2.6V | 08:30:00 | 02:09:01 | 00:00:00 | |
| DL1XH-west | 2026-08-30 12:26:54 | 51.65428 | 8.14878 | 63° | 7km/h | 28564m | 7m/s | -47.8°C | 0% | 15.5hPa | 2.7V | 18:12:15 | 02:09:03 | 00:00:00 | |
| AU51GT2 | 2026-08-30 12:26:51 | 51.65430 | 8.14866 | 122° | 9km/h | 28548m | 4.9m/s | -47.9°C | 0.7% | 15.6hPa | 2.6V | 00:00:00 | 00:00:00 | 00:00:00 | |
| DL1XH-15 | 2026-08-30 12:26:50 | 51.65426 | 8.14882 | 337° | 18km/h | 28514m | 6m/s | -48°C | 3.1% | 15.6hPa | 2.6V | 08:30:00 | 02:08:54 | 00:00:00 | |
| DO9LL-15 | 2026-08-30 12:26:50 | 51.65431 | 8.14863 | 155° | 13km/h | 28542m | 6.2m/s | -47.9°C | 3.1% | 15.5hPa | 2.7V | 00:00:00 | 02:08:59 | 00:00:00 | |
| DL1XH1-15 | 2026-08-30 12:26:49 | 51.65422 | 8.14883 | 357° | 20km/h | 28508m | 5.2m/s | -48°C | 3.2% | 15.6hPa | 2.7V | 08:30:00 | 02:08:53 | 00:00:00 | |
| AA1-15 | 2026-08-30 12:26:49 | 51.65432 | 8.14864 | 231° | 7km/h | 28536m | 6.2m/s | -48°C | 0% | 15.6hPa | 2.7V | 18:12:15 | 02:08:58 | 00:00:00 | |
| DL1NUX | 2026-08-30 12:26:49 | 51.65432 | 8.14872 | 294° | 15km/h | 28526m | 4.7m/s | -48°C | 3.1% | 15.6hPa | 2.7V | 08:30:00 | 02:08:56 | 00:00:00 | |
| DO2JMG | 2026-08-30 12:26:48 | 51.65433 | 8.14867 | 272° | 11km/h | 28530m | 4.8m/s | -48°C | 0% | 15.6hPa | 2.7V | 18:12:15 | 02:08:57 | 00:00:00 | |
| BIOWL1-15 | 2026-08-30 12:26:47 | 51.65426 | 8.14882 | 337° | 18km/h | 28514m | 6m/s | -48°C | 0% | 15.6hPa | 2.6V | 18:12:15 | 02:08:54 | 00:00:00 | |
| DF8AY | 2026-08-30 12:26:46 | 51.65430 | 8.14878 | 314° | 16km/h | 28520m | 6.2m/s | -48°C | 0% | 15.6hPa | 2.6V | 18:12:15 | 02:08:55 | 00:00:00 | |
| DO3DL | 2026-08-30 12:26:46 | 51.65430 | 8.14878 | 315° | 16km/h | 28520m | 6.2m/s | -48.0°C | 0.7% | 15.6hPa | 2.6V | 00:00:00 | 00:00:00 | 00:00:00 | |
| DM0DOS-11 | 2026-08-30 12:26:45 | 51.65413 | 8.14880 | 21° | 18km/h | 28498m | 5.6m/s | -47.9°C | 3.1% | 15.6hPa | 2.6V | 08:30:00 | 02:08:51 | 00:00:00 | |
| HSKMA3-T | 2026-08-30 12:26:44 | 51.65422 | 8.14883 | 358° | 20km/h | 28509m | 5.2m/s | -48°C | 0% | 15.6hPa | 2.7V | 18:12:15 | 02:08:53 | 00:00:00 | |
| DL1XH-west | 2026-08-30 12:26:43 | 51.65417 | 8.14882 | 12° | 18km/h | 28503m | 5.2m/s | -47.9°C | 0% | 15.6hPa | 2.7V | 18:12:15 | 02:08:52 | 00:00:00 | |
| DB0UT-7 | 2026-08-30 12:26:43 | 51.65417 | 8.14882 | 12° | 13km/h | 28504m | 5.1m/s | -47.9°C | 3.1% | 15.6hPa | 2.7V | 00:00:00 | 02:08:52 | 00:00:00 | |
| DL1NUX | 2026-08-30 12:26:42 | 51.65406 | 8.14864 | 96° | 11km/h | 28470m | 6.4m/s | -47.9°C | 3.1% | 15.7hPa | 2.6V | 08:30:00 | 02:08:46 | 00:00:00 | |
| GOEST3-10 | 2026-08-30 12:26:42 | 51.65412 | 8.14880 | 22° | 11km/h | 28498m | 5.6m/s | -47.8°C | 3.1% | 15.6hPa | 2.7V | 00:00:00 | 02:08:51 | 00:00:00 | |
| DL8DAS-15 | 2026-08-30 12:26:41 | 51.65412 | 8.14880 | 23° | 18km/h | 28498m | 5.6m/s | -47.9°C | 0.7% | 15.6hPa | 2.7V | 00:00:00 | 00:00:00 | 00:00:00 | |
| DL1XH-15 | 2026-08-30 12:26:40 | 51.65406 | 8.14856 | 88° | 9km/h | 28459m | 4.7m/s | -47.9°C | 3.1% | 15.8hPa | 2.7V | 08:30:00 | 02:08:44 | 00:00:00 | |
| AA1-15 | 2026-08-30 12:26:38 | 51.65406 | 8.14868 | 94° | 9km/h | 28476m | 5.4m/s | -47.9°C | 0% | 15.7hPa | 2.6V | 18:12:15 | 02:08:47 | 00:00:00 | |
| BIOWL1-15 | 2026-08-30 12:26:37 | 51.65406 | 8.14864 | 97° | 11km/h | 28470m | 6.4m/s | -47.9°C | 0% | 15.7hPa | 2.6V | 18:12:15 | 02:08:46 | 00:00:00 | |
| GOEST3-10 | 2026-08-30 12:26:37 | 51.65406 | 8.14864 | 97° | 7km/h | 28470m | 6.3m/s | -47.8°C | 3.1% | 15.7hPa | 2.6V | 00:00:00 | 00:00:00 | 00:00:00 | |
| DL1XH1-15 | 2026-08-30 12:26:36 | 51.65406 | 8.14853 | 77° | 5km/h | 28453m | 6.5m/s | -47.9°C | 3.1% | 15.8hPa | 2.6V | 08:30:00 | 02:08:43 | 00:00:00 | |
| DO2JMG | 2026-08-30 12:26:35 | 51.65406 | 8.14856 | 88° | 9km/h | 28459m | 4.7m/s | -47.9°C | 0% | 15.8hPa | 2.7V | 18:12:15 | 02:08:44 | 00:00:00 | |
| DF8AY | 2026-08-30 12:26:33 | 51.65406 | 8.14852 | 4° | 4km/h | 28447m | 5.9m/s | -47.9°C | 0% | 15.8hPa | 2.6V | 18:12:15 | 02:08:42 | 00:00:00 | |
| DL1XH-west | 2026-08-30 12:26:32 | 51.65404 | 8.14852 | 351° | 5km/h | 28441m | 4.7m/s | -48°C | 0% | 15.8hPa | 2.7V | 18:12:15 | 02:08:41 | 00:00:00 | |
| GOEST3-10 | 2026-08-30 12:26:32 | 51.65404 | 8.14852 | 351° | 11km/h | 28442m | 4.7m/s | -47.9°C | 3.1% | 15.7hPa | 2.7V | 00:00:00 | 02:08:41 | 00:00:00 | |
| BUE01 | 2026-08-30 12:26:31 | 51.65401 | 8.14851 | 33° | 11km/h | 28431m | 6.3m/s | -47.9°C | 0.7% | 15.8hPa | 2.7V | 00:00:00 | 00:00:00 | 00:00:00 | |
| DL1XH-15 | 2026-08-30 12:26:30 | 51.65388 | 8.14827 | 52° | 13km/h | 28403m | 5.2m/s | -48.3°C | 3.1% | 15.9hPa | 2.7V | 08:30:00 | 02:08:34 | 00:00:00 | |
| DL1XH1-15 | 2026-08-30 12:26:29 | 51.65387 | 8.14823 | 56° | 11km/h | 28398m | 5.1m/s | -48.4°C | 3.2% | 15.9hPa | 2.7V | 08:30:00 | 02:08:33 | 00:00:00 | |
| AA1-15 | 2026-08-30 12:26:27 | 51.65393 | 8.14837 | 52° | 16km/h | 28415m | 6.2m/s | -48.1°C | 0% | 15.9hPa | 2.6V | 18:12:15 | 02:08:36 | 00:00:00 | |
| DO2JMG | 2026-08-30 12:26:25 | 51.65388 | 8.14827 | 53° | 13km/h | 28403m | 5.2m/s | -48.3°C | 0% | 15.9hPa | 2.7V | 18:12:15 | 02:08:34 | 00:00:00 | |
| DL1XH-west | 2026-08-30 12:26:22 | 51.65383 | 8.14814 | 64° | 15km/h | 28386m | 6.3m/s | -48.3°C | 0% | 15.9hPa | 2.6V | 18:12:15 | 02:08:31 | 00:00:00 | |
| BIOWL1-15 | 2026-08-30 12:26:20 | 51.65348 | 8.14786 | 21° | 20km/h | 28336m | 5.1m/s | -48.6°C | 0% | 16.1hPa | 2.7V | 18:12:15 | 02:08:22 | 00:00:00 | |
| DL1XH-15 | 2026-08-30 12:26:20 | 51.65358 | 8.14791 | 16° | 22km/h | 28347m | 5.8m/s | -48.5°C | 3.2% | 16hPa | 2.6V | 08:30:00 | 02:08:24 | 00:00:00 | |
| AA1-15 | 2026-08-30 12:26:16 | 51.65363 | 8.14793 | 11° | 20km/h | 28352m | 5.9m/s | -48.5°C | 0% | 16hPa | 2.6V | 18:12:15 | 02:08:25 | 00:00:00 | |
| DL1XH1-15 | 2026-08-30 12:26:16 | 51.65353 | 8.14789 | 20° | 22km/h | 28341m | 5.1m/s | -48.5°C | 3.2% | 16hPa | 2.7V | 08:30:00 | 02:08:23 | 00:00:00 | |
| DO2JMG | 2026-08-30 12:26:15 | 51.65358 | 8.14791 | 17° | 22km/h | 28347m | 5.8m/s | -48.5°C | 0% | 16hPa | 2.6V | 18:12:15 | 02:08:24 | 00:00:00 | |
| DF8AY | 2026-08-30 12:26:14 | 51.65353 | 8.14789 | 21° | 22km/h | 28341m | 5.1m/s | -48.5°C | 0% | 16hPa | 2.7V | 18:12:15 | 02:08:23 | 00:00:00 | |
| HSKMA3-T | 2026-08-30 12:26:12 | 51.65343 | 8.14783 | 21° | 18km/h | 28330m | 6.4m/s | -48.7°C | 0.1% | 16.1hPa | 2.7V | 18:12:15 | 02:08:21 | 00:00:00 | |
| DL1XH-west | 2026-08-30 12:26:11 | 51.65340 | 8.14781 | 22° | 15km/h | 28324m | 5.7m/s | -48.7°C | 0% | 16.1hPa | 2.6V | 18:12:15 | 02:08:20 | 00:00:00 | |
| DL1XH-15 | 2026-08-30 12:26:10 | 51.65326 | 8.14748 | 56° | 16km/h | 28292m | 5.6m/s | -48.7°C | 3.3% | 16.2hPa | 2.6V | 08:30:00 | 02:08:14 | 00:00:00 | |
| AA1-15 | 2026-08-30 12:26:06 | 51.65328 | 8.14755 | 66° | 20km/h | 28297m | 4.1m/s | -48.7°C | 0.1% | 16.1hPa | 2.7V | 18:12:15 | 02:08:15 | 00:00:00 | |
| DM0DOS-11 | 2026-08-30 12:26:05 | 51.65317 | 8.14743 | 347° | 16km/h | 28276m | 4.7m/s | -48.7°C | 3.3% | 16.2hPa | 2.7V | 08:30:00 | 02:08:11 | 00:00:00 | |
| DO2JMG | 2026-08-30 12:26:04 | 51.65324 | 8.14744 | 33° | 13km/h | 28286m | 6.3m/s | -48.7°C | 0.1% | 16.2hPa | 2.6V | 18:12:15 | 02:08:13 | 00:00:00 | |
| DF8AY | 2026-08-30 12:26:03 | 51.65321 | 8.14743 | 1° | 13km/h | 28281m | 5.3m/s | -48.7°C | 0.1% | 16.2hPa | 2.6V | 18:12:15 | 02:08:12 | 00:00:00 | |
| DL1ZP-14 | 2026-08-30 12:26:03 | 51.65321 | 8.14743 | 0° | 13km/h | 28281m | 5.3m/s | -48.7°C | 0.7% | 16.2hPa | 2.6V | 00:00:00 | 00:00:00 | 00:00:00 | |
| DL1NUX | 2026-08-30 12:26:02 | 51.65290 | 8.14745 | 9° | 20km/h | 28248m | 4.6m/s | -48.6°C | 3.3% | 16.3hPa | 2.6V | 08:30:00 | 02:08:06 | 00:00:00 | |
| DL1XH-west | 2026-08-30 12:26:01 | 51.65312 | 8.14745 | 346° | 20km/h | 28271m | 5.6m/s | -48.6°C | 0.1% | 16.2hPa | 2.7V | 18:12:15 | 02:08:10 | 00:00:00 | |
| S3001 | 2026-08-30 12:26:01 | 51.65281 | 8.14743 | 11° | 13km/h | 28237m | 5.5m/s | -48.6°C | 0.7% | 16.3hPa | 2.7V | 00:00:00 | 00:00:00 | 00:00:00 | |
| DL1XH-15 | 2026-08-30 12:26:00 | 51.65281 | 8.14743 | 11° | 13km/h | 28237m | 5.5m/s | -48.6°C | 3.3% | 16.3hPa | 2.7V | 08:30:00 | 02:08:04 | 00:00:00 | |
| BUE01 | 2026-08-30 12:25:59 | 51.65301 | 8.14747 | 0° | 22km/h | 28259m | 5.8m/s | -48.5°C | 0.7% | 16.2hPa | 2.7V | 00:00:00 | 00:00:00 | 00:00:00 | |
| BIOWL9-15 | 2026-08-30 12:25:58 | 51.65290 | 8.14745 | 9° | 20km/h | 28248m | 4.6m/s | -48.6°C | 0.7% | 16.3hPa | 2.7V | 00:00:00 | 00:00:00 | 00:00:00 | |
| DF7PN | 2026-08-30 12:25:57 | 51.65285 | 8.14744 | 9° | 16km/h | 28243m | 6.3m/s | -48.6°C | 0.7% | 16.3hPa | 2.7V | 00:00:00 | 00:00:00 | 00:00:00 | |
| DL1XH1-15 | 2026-08-30 12:25:56 | 51.65278 | 8.14742 | 22° | 11km/h | 28232m | 4.7m/s | -48.6°C | 3.3% | 16.3hPa | 2.7V | 08:30:00 | 02:08:03 | 00:00:00 | |
| AA1-15 | 2026-08-30 12:25:56 | 51.65285 | 8.14744 | 9° | 18km/h | 28243m | 6.3m/s | -48.6°C | 0.1% | 16.3hPa | 2.7V | 18:12:15 | 02:08:05 | 00:00:00 | |
| DO2JMG | 2026-08-30 12:25:54 | 51.65278 | 8.14742 | 23° | 11km/h | 28232m | 4.7m/s | -48.6°C | 0.1% | 16.3hPa | 2.7V | 18:12:15 | 02:08:03 | 00:00:00 | |
| BIOWL1-15 | 2026-08-30 12:25:52 | 51.65226 | 8.14739 | 1° | 26km/h | 28174m | 5.2m/s | -48.7°C | 0.1% | 16.5hPa | 2.7V | 18:12:15 | 02:07:52 | 00:00:00 | |
| HSKMA3-T | 2026-08-30 12:25:51 | 51.65271 | 8.14731 | 49° | 16km/h | 28215m | 4.7m/s | -48.7°C | 0.1% | 16.4hPa | 2.6V | 18:12:15 | 02:08:00 | 00:00:00 | |
| DL1XH-west | 2026-08-30 12:25:50 | 51.65268 | 8.14727 | 36° | 16km/h | 28210m | 4.3m/s | -48.6°C | 0.1% | 16.4hPa | 2.7V | 18:12:15 | 02:07:59 | 00:00:00 | |
| DO9LL-15 | 2026-08-30 12:25:50 | 51.65268 | 8.14727 | 37° | 22km/h | 28211m | 4.2m/s | -48.6°C | 3.3% | 16.3hPa | 2.7V | 00:00:00 | 02:07:59 | 00:00:00 | |
| DL1XH1-15 | 2026-08-30 12:25:49 | 51.65233 | 8.14738 | 348° | 29km/h | 28179m | 5.4m/s | -48.7°C | 3.3% | 16.4hPa | 2.7V | 08:30:00 | 02:07:53 | 00:00:00 | |
| DL1NUX | 2026-08-30 12:25:49 | 51.65255 | 8.14726 | 340° | 27km/h | 28194m | 6m/s | -48.8°C | 3.3% | 16.4hPa | 2.6V | 08:30:00 | 02:07:56 | 00:00:00 | |
| DF8AY | 2026-08-30 12:25:48 | 51.65260 | 8.14724 | 355° | 20km/h | 28200m | 6.5m/s | -48.7°C | 0.1% | 16.4hPa | 2.7V | 18:12:15 | 02:07:57 | 00:00:00 | |
| AA1-15 | 2026-08-30 12:25:45 | 51.65240 | 8.14735 | 340° | 31km/h | 28184m | 4.8m/s | -48.8°C | 0.1% | 16.4hPa | 2.6V | 18:12:15 | 02:07:54 | 00:00:00 | |
| DO2JMG | 2026-08-30 12:25:44 | 51.65233 | 8.14738 | 348° | 29km/h | 28179m | 5.4m/s | -48.7°C | 0.1% | 16.5hPa | 2.7V | 18:12:15 | 02:07:53 | 00:00:00 | |
| DM0DOS-11 | 2026-08-30 12:25:43 | 51.65221 | 8.14738 | 17° | 20km/h | 28168m | 5.1m/s | -48.7°C | 3.3% | 16.5hPa | 2.7V | 08:30:00 | 02:07:51 | 00:00:00 | |
| DB0UT-7 | 2026-08-30 12:25:43 | 51.65226 | 8.14739 | 2° | 24km/h | 28174m | 5.2m/s | -48.7°C | 3.3% | 16.4hPa | 2.7V | 00:00:00 | 02:07:52 | 00:00:00 | |
| BIOWL1-15 | 2026-08-30 12:25:40 | 51.65130 | 8.14765 | 5° | 18km/h | 28078m | 4.3m/s | -48.2°C | 0% | 16.7hPa | 2.7V | 18:12:15 | 02:07:34 | 00:00:00 | |
| DL1XH-west | 2026-08-30 12:25:40 | 51.65214 | 8.14731 | 45° | 13km/h | 28157m | 6.2m/s | -48.7°C | 0.1% | 16.5hPa | 2.6V | 18:12:15 | 02:07:49 | 00:00:00 | |
| DL4BBY-15 | 2026-08-30 12:25:39 | 51.65212 | 8.14729 | 47° | 26km/h | 28152m | 5.9m/s | -48.2°C | 0% | 0hPa | 2.7V | 00:00:00 | 00:00:00 | 00:00:00 | |
| DL1NUX | 2026-08-30 12:25:38 | 51.65209 | 8.14727 | 359° | 9km/h | 28141m | 4.1m/s | -48.6°C | 3.3% | 16.5hPa | 2.7V | 08:30:00 | 02:07:46 | 00:00:00 | |
| DJ2DS-15 | 2026-08-30 12:25:38 | 51.65211 | 8.14727 | 20° | 24km/h | 28146m | 4.5m/s | -48.6°C | 3.3% | 16.5hPa | 2.7V | 00:00:00 | 02:07:47 | 00:00:00 | |
| GOEST3-10 | 2026-08-30 12:25:37 | 51.65209 | 8.14727 | 360° | 22km/h | 28142m | 4.0m/s | -48.5°C | 3.3% | 16.5hPa | 2.7V | 00:00:00 | 00:00:00 | 00:00:00 | |
| DL1XH1-15 | 2026-08-30 12:25:36 | 51.65194 | 8.14729 | 351° | 29km/h | 28125m | 4.9m/s | -48.6°C | 3.3% | 16.6hPa | 2.6V | 08:30:00 | 02:07:43 | 00:00:00 | |
| DF8AY | 2026-08-30 12:25:36 | 51.65206 | 8.14727 | 357° | 16km/h | 28136m | 5.9m/s | -48.6°C | 0.1% | 16.6hPa | 2.7V | 18:12:15 | 02:07:45 | 00:00:00 | |
| DM0DOS-11 | 2026-08-30 12:25:35 | 51.65177 | 8.14736 | 339° | 38km/h | 28114m | 6.3m/s | -48.4°C | 3.2% | 16.6hPa | 2.7V | 08:30:00 | 02:07:41 | 00:00:00 | |
| DO2JMG | 2026-08-30 12:25:34 | 51.65194 | 8.14729 | 351° | 29km/h | 28125m | 4.9m/s | -48.6°C | 0.1% | 16.6hPa | 2.6V | 18:12:15 | 02:07:43 | 00:00:00 | |
| DL1XH-west | 2026-08-30 12:25:30 | 51.65161 | 8.14749 | 329° | 35km/h | 28103m | 4.5m/s | -48.2°C | 0% | 16.6hPa | 2.7V | 18:12:15 | 02:07:39 | 00:00:00 | |
| DK9SH | 2026-08-30 12:25:29 | 51.65160 | 8.14749 | 330° | 35km/h | 28103m | 4.5m/s | -48.2°C | 0.7% | 16.7hPa | 2.6V | 00:00:00 | 00:00:00 | 00:00:00 | |
| DL1NUX | 2026-08-30 12:25:28 | 51.65141 | 8.14764 | 347° | 24km/h | 28088m | 6m/s | -48.2°C | 3.1% | 16.7hPa | 2.6V | 08:30:00 | 02:07:36 | 00:00:00 | |
| DF8AY | 2026-08-30 12:25:24 | 51.65126 | 8.14765 | 359° | 16km/h | 28073m | 4.7m/s | -48.2°C | 0% | 16.7hPa | 2.7V | 18:12:15 | 02:07:33 | 00:00:00 | |
| DM0DOS-11 | 2026-08-30 12:25:23 | 51.65118 | 8.14769 | 323° | 16km/h | 28062m | 6m/s | -48.2°C | 3.2% | 16.8hPa | 2.6V | 08:30:00 | 02:07:31 | 00:00:00 | |
| DO2JMG | 2026-08-30 12:25:23 | 51.65122 | 8.14766 | 343° | 15km/h | 28068m | 5.7m/s | -48.2°C | 0% | 16.7hPa | 2.6V | 18:12:15 | 02:07:32 | 00:00:00 | |
| GOEST3-10 | 2026-08-30 12:25:22 | 51.65118 | 8.14769 | 324° | 26km/h | 28063m | 5.9m/s | -48.2°C | 3.2% | 16.7hPa | 2.6V | 00:00:00 | 02:07:31 | 08:30:00 | |
| DL1NUX | 2026-08-30 12:25:21 | 51.65090 | 8.14801 | 335° | 37km/h | 28035m | 5m/s | -48.5°C | 3.2% | 16.8hPa | 2.6V | 08:30:00 | 02:07:26 | 00:00:00 | |
| DL1XH-west | 2026-08-30 12:25:19 | 51.65105 | 8.14788 | 324° | 29km/h | 28046m | 6.6m/s | -48.4°C | 0.1% | 16.8hPa | 2.7V | 18:12:15 | 02:07:28 | 00:00:00 | |
| BIOWL1-15 | 2026-08-30 12:25:17 | 51.65054 | 8.14833 | 328° | 24km/h | 28009m | 4.8m/s | -48.1°C | 0% | 16.9hPa | 2.7V | 18:12:15 | 02:07:21 | 00:00:00 | |
| DM0DOS-11 | 2026-08-30 12:25:17 | 51.65049 | 8.14837 | 333° | 20km/h | 28003m | 5.9m/s | -48.1°C | 3.2% | 16.9hPa | 2.6V | 08:30:00 | 02:07:20 | 00:00:00 | |
| DF8AY | 2026-08-30 12:25:14 | 51.65066 | 8.14820 | 329° | 33km/h | 28018m | 5.6m/s | -48.2°C | 0% | 16.9hPa | 2.7V | 18:12:15 | 02:07:23 | 00:00:00 | |
| DO2JMG | 2026-08-30 12:25:13 | 51.65059 | 8.14827 | 326° | 29km/h | 28014m | 4.7m/s | -48.1°C | 0% | 16.9hPa | 2.7V | 18:12:15 | 02:07:22 | 00:00:00 | |
| HSKMA3-T | 2026-08-30 12:25:09 | 51.65042 | 8.14841 | 353° | 13km/h | 27991m | 5.4m/s | -48.1°C | 0.1% | 16.9hPa | 2.6V | 18:12:15 | 02:07:18 | 00:00:00 | |
| DL4BBY-15 | 2026-08-30 12:25:09 | 51.65042 | 8.14841 | 353° | 18km/h | 27991m | 5.4m/s | -47.6°C | 0% | 0hPa | 2.7V | 00:00:00 | 00:00:00 | 00:00:00 | |
| DL1NUX | 2026-08-30 12:25:08 | 51.65036 | 8.14844 | 327° | 13km/h | 27981m | 5.3m/s | -47.9°C | 3.2% | 16.9hPa | 2.7V | 08:30:00 | 02:07:16 | 00:00:00 | |
| DL1XH-west | 2026-08-30 12:25:08 | 51.65038 | 8.14842 | 347° | 11km/h | 27986m | 4.6m/s | -48°C | 0% | 16.9hPa | 2.7V | 18:12:15 | 02:07:17 | 00:00:00 | |
| DF8AY | 2026-08-30 12:25:06 | 51.65024 | 8.14863 | 314° | 29km/h | 27965m | 4.7m/s | -47.8°C | 0% | 17hPa | 2.6V | 18:12:15 | 02:07:13 | 00:00:00 | |
| DO2JMG | 2026-08-30 12:25:03 | 51.65019 | 8.14871 | 320° | 31km/h | 27960m | 5.5m/s | -47.8°C | 0% | 17hPa | 2.6V | 18:12:15 | 02:07:12 | 00:00:00 | |
| AA1-15 | 2026-08-30 12:25:03 | 51.65012 | 8.14879 | 328° | 31km/h | 27955m | 5.6m/s | -47.8°C | 0% | 17hPa | 2.7V | 18:12:15 | 02:07:11 | 00:00:00 | |
| HSKMA3-T | 2026-08-30 12:24:59 | 51.64996 | 8.14890 | 341° | 16km/h | 27940m | 4.6m/s | -47.6°C | 0% | 17.1hPa | 2.6V | 18:12:15 | 02:07:08 | 00:00:00 | |
| DL1XH-west | 2026-08-30 12:24:58 | 51.64992 | 8.14893 | 330° | 13km/h | 27935m | 5.8m/s | -47.6°C | 0% | 17.1hPa | 2.6V | 18:12:15 | 02:07:07 | 00:00:00 | |
| DF8AY | 2026-08-30 12:24:53 | 51.64984 | 8.14912 | 315° | 13km/h | 27907m | 5.3m/s | -47.4°C | 0% | 17.1hPa | 2.6V | 18:12:15 | 02:07:02 | 00:00:00 | |
| DM0DOS-11 | 2026-08-30 12:24:53 | 51.64981 | 8.14916 | 316° | 15km/h | 27902m | 4.5m/s | -47.4°C | 3% | 17.2hPa | 2.6V | 08:30:00 | 02:07:01 | 00:00:00 | |
| BIOWL1-15 | 2026-08-30 12:24:52 | 51.64961 | 8.14955 | 323° | 20km/h | 27869m | 6.3m/s | -47.2°C | 0% | 17.3hPa | 2.6V | 18:12:15 | 02:06:55 | 00:00:00 | |
| DO2JMG | 2026-08-30 12:24:52 | 51.64982 | 8.14916 | 317° | 15km/h | 27902m | 4.5m/s | -47.4°C | 0% | 17.2hPa | 2.6V | 18:12:15 | 02:07:01 | 00:00:00 | |
| HSKMA3-T | 2026-08-30 12:24:49 | 51.64972 | 8.14934 | 305° | 24km/h | 27885m | 5.2m/s | -47.1°C | 0% | 17.2hPa | 2.7V | 18:12:15 | 02:06:58 | 00:00:00 | |
| DL1XH-west | 2026-08-30 12:24:48 | 51.64969 | 8.14942 | 307° | 24km/h | 27880m | 4.8m/s | -47.1°C | 0% | 17.2hPa | 2.7V | 18:12:15 | 02:06:57 | 00:00:00 | |
| DO2SHX-10 | 2026-08-30 12:24:47 | 51.64965 | 8.14949 | 314° | 18km/h | 27875m | 5.3m/s | -47.1°C | 2.9% | 17.2hPa | 2.6V | 00:00:00 | 02:06:56 | 00:00:00 | |
| DM0DOS-11 | 2026-08-30 12:24:45 | 51.64948 | 8.14968 | 299° | 13km/h | 27848m | 6m/s | -47.1°C | 2.9% | 17.3hPa | 2.7V | 08:30:00 | 02:06:51 | 00:00:00 | |
| DD1CC8 | 2026-08-30 12:24:44 | 51.64950 | 8.14964 | 321° | 11km/h | 27854m | 5.3m/s | -47.2°C | 0.7% | 17.3hPa | 2.6V | 00:00:00 | 00:00:00 | 00:00:00 | |
| DB0UT-7 | 2026-08-30 12:24:43 | 51.64950 | 8.14964 | 322° | 18km/h | 27854m | 5.2m/s | -47.1°C | 3.0% | 17.2hPa | 2.6V | 00:00:00 | 02:06:52 | 00:00:00 | |
| DL1CLM-18 | 2026-08-30 12:24:42 | 51.64950 | 8.14964 | 322° | 13km/h | 27854m | 5.3m/s | -47.2°C | 0.7% | 17.3hPa | 2.6V | 00:00:00 | 00:00:00 | 00:00:00 | |
| DL1XH-15 | 2026-08-30 12:24:41 | 51.64947 | 8.14974 | 286° | 16km/h | 27842m | 5.2m/s | -47.1°C | 2.9% | 17.3hPa | 2.6V | 08:30:00 | 02:06:50 | 00:00:00 | |
| DO2JMG | 2026-08-30 12:24:41 | 51.64947 | 8.14974 | 286° | 16km/h | 27842m | 5.2m/s | -47.1°C | 0% | 17.3hPa | 2.6V | 18:12:15 | 02:06:50 | 00:00:00 | |
| BIOWL1-15 | 2026-08-30 12:24:40 | 51.64944 | 8.14988 | 291° | 20km/h | 27832m | 6.4m/s | -47.2°C | 0% | 17.4hPa | 2.6V | 18:12:15 | 02:06:48 | 00:00:00 | |
| DJ2DS-15 | 2026-08-30 12:24:40 | 51.64946 | 8.14981 | 285° | 18km/h | 27837m | 4.8m/s | -47.2°C | 0.6% | 17.3hPa | 2.7V | 00:00:00 | 00:00:00 | 00:00:00 | |
| DO2KSM | 2026-08-30 12:24:39 | 51.64945 | 8.14981 | 287° | 18km/h | 27838m | 4.8m/s | -47.2°C | 0.6% | 17.3hPa | 2.7V | 00:00:00 | 00:00:00 | 00:00:00 | |
| DL1NUX | 2026-08-30 12:24:38 | 51.64939 | 8.15002 | 304° | 20km/h | 27820m | 4.8m/s | -47.3°C | 3% | 17.4hPa | 2.7V | 08:30:00 | 02:06:46 | 00:00:00 | |
| DL1XH-west | 2026-08-30 12:24:38 | 51.64942 | 8.14995 | 298° | 20km/h | 27825m | 5.8m/s | -47.3°C | 0% | 17.4hPa | 2.7V | 18:12:15 | 02:06:47 | 00:00:00 | |
| DJ8HS-15 | 2026-08-30 12:24:38 | 51.64942 | 8.14995 | 299° | 20km/h | 27826m | 5.7m/s | -47.2°C | 2.9% | 17.3hPa | 2.7V | 00:00:00 | 02:06:47 | 00:00:00 | |
| GOEST3-10 | 2026-08-30 12:24:37 | 51.64939 | 8.15002 | 305° | 22km/h | 27821m | 4.8m/s | -47.2°C | 3.0% | 17.3hPa | 2.7V | 00:00:00 | 00:00:00 | 08:30:00 | |
| DD8BA-10 | 2026-08-30 12:24:36 | 51.64936 | 8.15008 | 308° | 16km/h | 27816m | 4.9m/s | -47.2°C | 2.9% | 17.4hPa | 2.7V | 00:00:00 | 00:00:00 | 00:00:00 | |
| DO3DL | 2026-08-30 12:24:34 | 51.64933 | 8.15015 | 305° | 22km/h | 27811m | 5.6m/s | -47.3°C | 0.6% | 17.4hPa | 2.7V | 00:00:00 | 00:00:00 | 00:00:00 | |
| DM0DOS-11 | 2026-08-30 12:24:33 | 51.64925 | 8.15039 | 297° | 20km/h | 27794m | 4.5m/s | -47.4°C | 3% | 17.4hPa | 2.7V | 08:30:00 | 02:06:41 | 00:00:00 | |
| AA1-15 | 2026-08-30 12:24:31 | 51.64923 | 8.15046 | 305° | 18km/h | 27789m | 4.8m/s | -47.5°C | 0% | 17.5hPa | 2.7V | 18:12:15 | 02:06:40 | 00:00:00 | |
| DL1XH-15 | 2026-08-30 12:24:31 | 51.64923 | 8.15046 | 304° | 18km/h | 27789m | 4.8m/s | -47.5°C | 3% | 17.5hPa | 2.7V | 08:30:00 | 02:06:40 | 00:00:00 | |
| DO2JMG | 2026-08-30 12:24:30 | 51.64920 | 8.15051 | 316° | 16km/h | 27783m | 6.4m/s | -47.5°C | 0% | 17.5hPa | 2.7V | 18:12:15 | 02:06:39 | 00:00:00 | |
| BIOWL1-15 | 2026-08-30 12:24:29 | 51.64917 | 8.15054 | 327° | 13km/h | 27778m | 5.2m/s | -47.4°C | 0% | 17.5hPa | 2.6V | 18:12:15 | 02:06:38 | 00:00:00 | |
| DL1NUX | 2026-08-30 12:24:28 | 51.64914 | 8.15059 | 295° | 7km/h | 27768m | 5.1m/s | -47.4°C | 2.9% | 17.5hPa | 2.6V | 08:30:00 | 02:06:36 | 00:00:00 | |
| DL1XH-west | 2026-08-30 12:24:28 | 51.64915 | 8.15057 | 325° | 9km/h | 27773m | 4.5m/s | -47.4°C | 0% | 17.5hPa | 2.6V | 18:12:15 | 02:06:37 | 00:00:00 | |
| HSKMA3-T | 2026-08-30 12:24:27 | 51.64914 | 8.15059 | 296° | 7km/h | 27768m | 5.1m/s | -47.4°C | 0% | 17.5hPa | 2.6V | 18:12:15 | 02:06:36 | 00:00:00 | |
| GOEST3-10 | 2026-08-30 12:24:27 | 51.64914 | 8.15059 | 296° | 22km/h | 27768m | 5.0m/s | -47.3°C | 2.9% | 17.5hPa | 2.6V | 00:00:00 | 00:00:00 | 00:00:00 | |
| DD8BA-10 | 2026-08-30 12:24:26 | 51.64913 | 8.15063 | 268° | 22km/h | 27763m | 5.4m/s | -47.4°C | 3.0% | 17.5hPa | 2.6V | 00:00:00 | 00:00:00 | 00:00:00 | |
| SMARD9-15 | 2026-08-30 12:24:24 | 51.64914 | 8.15090 | 273° | 27km/h | 27748m | 5.2m/s | -47.7°C | 0.6% | 17.6hPa | 2.6V | 00:00:00 | 00:00:00 | 00:00:00 | |
| DL1XH-15 | 2026-08-30 12:24:21 | 51.64911 | 8.15113 | 287° | 27km/h | 27736m | 5.6m/s | -47.7°C | 3% | 17.6hPa | 2.6V | 08:30:00 | 02:06:30 | 00:00:00 | |
| DF8AY | 2026-08-30 12:24:20 | 51.64906 | 8.15131 | 299° | 20km/h | 27726m | 4.8m/s | -47.7°C | 0% | 17.6hPa | 2.7V | 18:12:15 | 02:06:28 | 00:00:00 | |
| DO2JMG | 2026-08-30 12:24:20 | 51.64909 | 8.15123 | 295° | 24km/h | 27731m | 5.3m/s | -47.6°C | 0% | 17.6hPa | 2.7V | 18:12:15 | 02:06:29 | 00:00:00 | |
| DO9LL-15 | 2026-08-30 12:24:20 | 51.64909 | 8.15123 | 296° | 11km/h | 27731m | 5.2m/s | -47.6°C | 2.9% | 17.6hPa | 2.7V | 00:00:00 | 02:06:29 | 08:30:00 | |
| SO1NDE-10 | 2026-08-30 12:24:19 | 51.64906 | 8.15131 | 299° | 11km/h | 27726m | 4.7m/s | -47.6°C | 3.0% | 17.6hPa | 2.7V | 00:00:00 | 02:06:28 | 00:00:00 | |
| DL1NUX | 2026-08-30 12:24:18 | 51.64903 | 8.15144 | 283° | 15km/h | 27715m | 5.9m/s | -47.8°C | 3% | 17.7hPa | 2.6V | 08:30:00 | 02:06:26 | 00:00:00 | |
| BIOWL1-15 | 2026-08-30 12:24:18 | 51.64904 | 8.15138 | 296° | 16km/h | 27721m | 5m/s | -47.7°C | 0% | 17.6hPa | 2.7V | 18:12:15 | 02:06:27 | 00:00:00 | |
| DL1XH-west | 2026-08-30 12:24:17 | 51.64903 | 8.15144 | 284° | 15km/h | 27715m | 5.9m/s | -47.8°C | 0% | 17.7hPa | 2.6V | 18:12:15 | 02:06:26 | 00:00:00 | |
| DO2JMG | 2026-08-30 12:24:09 | 51.64903 | 8.15174 | 273° | 11km/h | 27670m | 5.6m/s | -48°C | 0% | 17.8hPa | 2.6V | 18:12:15 | 02:06:18 | 00:00:00 | |
| DF8AY | 2026-08-30 12:24:08 | 51.64903 | 8.15178 | 276° | 11km/h | 27665m | 4.6m/s | -48.1°C | 0% | 17.8hPa | 2.7V | 18:12:15 | 02:06:17 | 00:00:00 | |
| DL1NUX | 2026-08-30 12:24:08 | 51.64902 | 8.15182 | 286° | 11km/h | 27660m | 5.8m/s | -48.2°C | 3.1% | 17.8hPa | 2.7V | 08:30:00 | 02:06:16 | 00:00:00 | |
| BIOWL1-15 | 2026-08-30 12:24:07 | 51.64902 | 8.15182 | 286° | 11km/h | 27660m | 5.8m/s | -48.2°C | 0% | 17.8hPa | 2.7V | 18:12:15 | 02:06:16 | 00:00:00 | |
| DL1XH-west | 2026-08-30 12:24:06 | 51.64901 | 8.15186 | 301° | 9km/h | 27654m | 6.4m/s | -48.3°C | 0% | 17.8hPa | 2.7V | 18:12:15 | 02:06:15 | 00:00:00 | |
| DO2JMG | 2026-08-30 12:23:59 | 51.64903 | 8.15215 | 254° | 15km/h | 27617m | 5m/s | -48.3°C | 0% | 17.9hPa | 2.6V | 18:12:15 | 02:06:08 | 00:00:00 | |
| DL1ZP-14 | 2026-08-30 12:23:59 | 51.64903 | 8.15220 | 272° | 11km/h | 27612m | 6.5m/s | -48.3°C | 0.7% | 17.9hPa | 2.6V | 00:00:00 | 00:00:00 | 00:00:00 | |
| DL1NUX | 2026-08-30 12:23:58 | 51.64902 | 8.15224 | 309° | 9km/h | 27605m | 5.9m/s | -48.3°C | 3% | 18hPa | 2.6V | 08:30:00 | 02:06:06 | 00:00:00 | |
| DF8AY | 2026-08-30 12:23:58 | 51.64903 | 8.15220 | 273° | 11km/h | 27612m | 6.5m/s | -48.3°C | 0% | 17.9hPa | 2.6V | 18:12:15 | 02:06:07 | 00:00:00 | |
| BIOWL1-15 | 2026-08-30 12:23:57 | 51.64902 | 8.15224 | 310° | 9km/h | 27605m | 5.9m/s | -48.3°C | 0% | 18hPa | 2.6V | 18:12:15 | 02:06:06 | 00:00:00 | |
| DL1XH1-15 | 2026-08-30 12:23:56 | 51.64895 | 8.15229 | 344° | 11km/h | 27589m | 5.6m/s | -48.4°C | 3% | 18hPa | 2.7V | 08:30:00 | 02:06:03 | 00:00:00 | |
| HSKMA3-T | 2026-08-30 12:23:56 | 51.64900 | 8.15226 | 337° | 11km/h | 27600m | 5.5m/s | -48.2°C | 0% | 18hPa | 2.7V | 18:12:15 | 02:06:05 | 00:00:00 | |
| DL1XH-west | 2026-08-30 12:23:55 | 51.64898 | 8.15228 | 347° | 11km/h | 27594m | 5.4m/s | -48.3°C | 0% | 18hPa | 2.7V | 18:12:15 | 02:06:04 | 00:00:00 | |
| SMARD9-15 | 2026-08-30 12:23:53 | 51.64892 | 8.15232 | 294° | 4km/h | 27578m | 5.0m/s | -48.5°C | 0.7% | 18.0hPa | 2.6V | 00:00:00 | 00:00:00 | 00:00:00 | |
| DL1NUX | 2026-08-30 12:23:52 | 51.64893 | 8.15233 | 76° | 0km/h | 27550m | 5.2m/s | -48.9°C | 3.2% | 18.1hPa | 2.6V | 08:30:00 | 02:05:56 | 00:00:00 | |
| DO2JMG | 2026-08-30 12:23:49 | 51.64892 | 8.15234 | 141° | 2km/h | 27561m | 6.3m/s | -48.8°C | 0% | 18.1hPa | 2.7V | 18:12:15 | 02:05:58 | 00:00:00 | |
| AA1-15 | 2026-08-30 12:23:48 | 51.64893 | 8.15233 | 76° | 0km/h | 27550m | 5.2m/s | -48.9°C | 0% | 18.1hPa | 2.6V | 18:12:15 | 02:05:56 | 00:00:00 | |
| DF8AY | 2026-08-30 12:23:48 | 51.64893 | 8.15234 | 106° | 2km/h | 27555m | 5.5m/s | -48.9°C | 0% | 18.1hPa | 2.7V | 18:12:15 | 02:05:57 | 00:00:00 | |
| HSKMA3-T | 2026-08-30 12:23:46 | 51.64893 | 8.15234 | 273° | 2km/h | 27544m | 6.5m/s | -48.9°C | 0% | 18.1hPa | 2.6V | 18:12:15 | 02:05:55 | 00:00:00 | |
| DL1XH-west | 2026-08-30 12:23:45 | 51.64892 | 8.15235 | 298° | 5km/h | 27538m | 5m/s | -48.9°C | 0% | 18.1hPa | 2.6V | 18:12:15 | 02:05:54 | 00:00:00 | |
| AU51GT2 | 2026-08-30 12:23:45 | 51.64891 | 8.15237 | 329° | 7km/h | 27534m | 4.5m/s | -48.9°C | 0.7% | 18.2hPa | 2.7V | 00:00:00 | 00:00:00 | 00:00:00 | |
| DL1NUX | 2026-08-30 12:23:42 | 51.64864 | 8.15231 | 17° | 9km/h | 27495m | 4.9m/s | -49.4°C | 3.2% | 18.3hPa | 2.7V | 08:30:00 | 02:05:46 | 00:00:00 | |
| DO2JMG | 2026-08-30 12:23:39 | 51.64871 | 8.15233 | 14° | 18km/h | 27506m | 5.8m/s | -49.3°C | 0% | 18.2hPa | 2.6V | 18:12:15 | 02:05:48 | 00:00:00 | |
| DF8AY | 2026-08-30 12:23:37 | 51.64864 | 8.15231 | 17° | 9km/h | 27495m | 4.9m/s | -49.4°C | 0% | 18.3hPa | 2.7V | 18:12:15 | 02:05:46 | 00:00:00 | |
| HSKMA3-T | 2026-08-30 12:23:36 | 51.64862 | 8.15229 | 34° | 7km/h | 27490m | 5m/s | -49.5°C | 0% | 18.3hPa | 2.7V | 18:12:15 | 02:05:45 | 00:00:00 | |
| DL1XH-west | 2026-08-30 12:23:35 | 51.64861 | 8.15227 | 52° | 9km/h | 27484m | 6.2m/s | -49.6°C | 0.1% | 18.3hPa | 2.6V | 18:12:15 | 02:05:44 | 00:00:00 | |
| DD8BA-10 | 2026-08-30 12:23:35 | 51.64861 | 8.15227 | 52° | 9km/h | 27485m | 6.2m/s | -49.5°C | 3.3% | 18.2hPa | 2.6V | 00:00:00 | 00:00:00 | 00:00:00 | |
| DM0DOS-11 | 2026-08-30 12:23:33 | 51.64857 | 8.15215 | 59° | 13km/h | 27468m | 4.2m/s | -49.8°C | 3.3% | 18.3hPa | 2.7V | 08:30:00 | 02:05:41 | 00:00:00 | |
| DL1NUX | 2026-08-30 12:23:32 | 51.64849 | 8.15206 | 23° | 9km/h | 27442m | 5.5m/s | -49.8°C | 3.3% | 18.4hPa | 2.6V | 08:30:00 | 02:05:36 | 00:00:00 | |
| DO2JMG | 2026-08-30 12:23:28 | 51.64851 | 8.15207 | 11° | 5km/h | 27447m | 4.7m/s | -49.7°C | 0.1% | 18.4hPa | 2.6V | 18:12:15 | 02:05:37 | 00:00:00 | |
| DF8AY | 2026-08-30 12:23:26 | 51.64847 | 8.15204 | 32° | 15km/h | 27436m | 6.1m/s | -49.8°C | 0.1% | 0hPa | 2.7V | 18:12:15 | 02:05:35 | 00:00:00 | |
| DO2SHX-10 | 2026-08-30 12:23:26 | 51.64847 | 8.15204 | 33° | 18km/h | 27436m | 6.0m/s | -49.8°C | 3.4% | 18.4hPa | 2.7V | 00:00:00 | 02:05:35 | 00:00:00 | |
| DM0DOS-11 | 2026-08-30 12:23:25 | 51.64828 | 8.15188 | 15° | 22km/h | 27415m | 6.2m/s | -49.7°C | 3.4% | 18.5hPa | 2.6V | 08:30:00 | 02:05:31 | 00:00:00 | |
| HSKMA3-T | 2026-08-30 12:23:25 | 51.64843 | 8.15200 | 34° | 20km/h | 27430m | 5m/s | -49.7°C | 0.2% | 18.5hPa | 2.7V | 18:12:15 | 02:05:34 | 00:00:00 | |
| DL1XH-west | 2026-08-30 12:23:24 | 51.64839 | 8.15195 | 31° | 22km/h | 27426m | 4.4m/s | -49.7°C | 0.1% | 18.5hPa | 2.7V | 18:12:15 | 02:05:33 | 00:00:00 | |
| DO2JMG | 2026-08-30 12:23:18 | 51.64807 | 8.15182 | 11° | 22km/h | 27392m | 5.4m/s | -49.6°C | 0.1% | 18.6hPa | 2.7V | 18:12:15 | 02:05:27 | 00:00:00 | |
| BIOWL1-15 | 2026-08-30 12:23:15 | 51.64790 | 8.15181 | 348° | 22km/h | 27376m | 6.3m/s | -49.7°C | 0.1% | 18.6hPa | 2.6V | 18:12:15 | 02:05:24 | 00:00:00 | |
| DL1XH-west | 2026-08-30 12:23:14 | 51.64785 | 8.15184 | 342° | 24km/h | 27370m | 5.1m/s | -49.7°C | 0.1% | 18.6hPa | 2.7V | 18:12:15 | 02:05:23 | 00:00:00 | |
| DM0DOS-11 | 2026-08-30 12:23:13 | 51.64773 | 8.15188 | 352° | 26km/h | 27360m | 6m/s | -49.7°C | 3.4% | 18.6hPa | 2.7V | 08:30:00 | 02:05:21 | 00:00:00 | |
| DO2SHX-10 | 2026-08-30 12:23:13 | 51.64779 | 8.15186 | 345° | 26km/h | 27366m | 4.7m/s | -49.7°C | 3.4% | 18.6hPa | 2.6V | 00:00:00 | 02:05:22 | 00:00:00 | |
| WEDDY | 2026-08-30 12:23:12 | 51.64773 | 8.15188 | 353° | 26km/h | 27360m | 6.0m/s | -49.7°C | 0.8% | 18.6hPa | 2.6V | 00:00:00 | 00:00:00 | 00:00:00 | |
| DL1XH1-15 | 2026-08-30 12:23:09 | 51.64721 | 8.15194 | 344° | 26km/h | 27314m | 5.8m/s | -49.5°C | 3.4% | 18.8hPa | 2.6V | 08:30:00 | 02:05:13 | 00:00:00 | |
| DO2JMG | 2026-08-30 12:23:08 | 51.64746 | 8.15186 | 0° | 26km/h | 27336m | 6.2m/s | -49.7°C | 0.2% | 18.7hPa | 2.7V | 18:12:15 | 02:05:17 | 00:00:00 | |
| AA1-15 | 2026-08-30 12:23:05 | 51.64727 | 8.15191 | 346° | 26km/h | 27320m | 6.1m/s | -49.5°C | 0.1% | 18.8hPa | 2.6V | 18:12:15 | 02:05:14 | 00:00:00 | |
| DM0DOS-11 | 2026-08-30 12:23:05 | 51.64709 | 8.15201 | 329° | 24km/h | 27303m | 5.6m/s | -49.6°C | 3.3% | 18.8hPa | 2.7V | 08:30:00 | 02:05:11 | 00:00:00 | |
| BIOWL1-15 | 2026-08-30 12:23:04 | 51.64704 | 8.15207 | 320° | 26km/h | 27297m | 6.9m/s | -49.5°C | 0.1% | 18.8hPa | 2.7V | 18:12:15 | 02:05:10 | 00:00:00 | |
| HSKMA3-T | 2026-08-30 12:23:04 | 51.64721 | 8.15194 | 345° | 26km/h | 27314m | 5.8m/s | -49.5°C | 0.1% | 18.8hPa | 2.6V | 18:12:15 | 02:05:13 | 00:00:00 | |
| DL1XH-west | 2026-08-30 12:23:03 | 51.64715 | 8.15197 | 339° | 24km/h | 27309m | 5.2m/s | -49.6°C | 0.1% | 18.8hPa | 2.6V | 18:12:15 | 02:05:12 | 00:00:00 | |
| DO2JMG | 2026-08-30 12:22:58 | 51.64691 | 8.15229 | 320° | 24km/h | 27281m | 4.9m/s | -49.4°C | 0.1% | 18.9hPa | 2.6V | 18:12:15 | 02:05:07 | 00:00:00 | |
| DJ2DS-15 | 2026-08-30 12:22:58 | 51.64690 | 8.15229 | 321° | 22km/h | 27281m | 4.8m/s | -49.4°C | 3.3% | 18.8hPa | 2.7V | 00:00:00 | 02:05:07 | 00:00:00 | |
| DL1XH1-15 | 2026-08-30 12:22:56 | 51.64669 | 8.15239 | 356° | 24km/h | 27259m | 5.4m/s | -49.4°C | 3.3% | 18.9hPa | 2.7V | 08:30:00 | 02:05:03 | 00:00:00 | |
| AA1-15 | 2026-08-30 12:22:55 | 51.64669 | 8.15239 | 356° | 24km/h | 27259m | 5.4m/s | -49.4°C | 0.1% | 18.9hPa | 2.7V | 18:12:15 | 02:05:03 | 00:00:00 | |
| BIOWL1-15 | 2026-08-30 12:22:53 | 51.64652 | 8.15248 | 328° | 26km/h | 27242m | 5.1m/s | -49.2°C | 0.1% | 19hPa | 2.6V | 18:12:15 | 02:05:00 | 00:00:00 | |
| DL1XH-west | 2026-08-30 12:22:53 | 51.64663 | 8.15240 | 348° | 24km/h | 27253m | 6.2m/s | -49.4°C | 0.1% | 19hPa | 2.6V | 18:12:15 | 02:05:02 | 00:00:00 | |
| DJ2DS-15 | 2026-08-30 12:22:52 | 51.64657 | 8.15243 | 335° | 24km/h | 27247m | 5.6m/s | -49.3°C | 0.7% | 19.0hPa | 2.7V | 00:00:00 | 00:00:00 | 00:00:00 | |
| DO1YAY-16 | 2026-08-30 12:22:51 | 51.64646 | 8.15254 | 325° | 24km/h | 27236m | 5.6m/s | -49.3°C | 0.8% | 19.0hPa | 2.7V | 00:00:00 | 00:00:00 | 00:00:00 | |
| DO3DL | 2026-08-30 12:22:50 | 51.64647 | 8.15254 | 326° | 26km/h | 27236m | 5.6m/s | -49.3°C | 0.8% | 19.0hPa | 2.7V | 00:00:00 | 00:00:00 | 00:00:00 | |
| DL1XH1-15 | 2026-08-30 12:22:49 | 51.64621 | 8.15293 | 309° | 22km/h | 27202m | 4m/s | -49.1°C | 3.3% | 19.1hPa | 2.7V | 08:30:00 | 02:04:53 | 00:00:00 | |
| DO2JMG | 2026-08-30 12:22:47 | 51.64632 | 8.15271 | 316° | 24km/h | 27219m | 5.5m/s | -49.2°C | 0.1% | 19.1hPa | 2.6V | 18:12:15 | 02:04:56 | 00:00:00 | |
| HSKMA3-T | 2026-08-30 12:22:43 | 51.64618 | 8.15299 | 318° | 20km/h | 27198m | 5.7m/s | -49.1°C | 0.1% | 19.1hPa | 2.7V | 18:12:15 | 02:04:52 | 00:00:00 | |
| DL1XH-west | 2026-08-30 12:22:42 | 51.64614 | 8.15304 | 332° | 18km/h | 27192m | 6.4m/s | -49.1°C | 0.1% | 19.1hPa | 2.7V | 18:12:15 | 02:04:51 | 00:00:00 | |
| DO2SHX-10 | 2026-08-30 12:22:42 | 51.64614 | 8.15303 | 332° | 20km/h | 27192m | 6.3m/s | -49.1°C | 3.2% | 19.1hPa | 2.6V | 00:00:00 | 02:04:51 | 00:00:00 | |
| DL1XH-15 | 2026-08-30 12:22:41 | 51.64599 | 8.15312 | 335° | 24km/h | 27176m | 6m/s | -49.2°C | 3.3% | 19.2hPa | 2.6V | 08:30:00 | 02:04:48 | 00:00:00 | |
| BIOWL1-15 | 2026-08-30 12:22:41 | 51.64610 | 8.15306 | 345° | 20km/h | 27186m | 5.2m/s | -49.2°C | 0.1% | 19.2hPa | 2.6V | 18:12:15 | 02:04:50 | 00:00:00 | |
| GOEST3-10 | 2026-08-30 12:22:40 | 51.64605 | 8.15309 | 344° | 26km/h | 27181m | 4.4m/s | -49.2°C | 3.3% | 19.1hPa | 2.6V | 00:00:00 | 02:04:49 | 00:00:00 | |
| DO2SHX-10 | 2026-08-30 12:22:39 | 51.64599 | 8.15312 | 336° | 26km/h | 27176m | 5.9m/s | -49.2°C | 3.3% | 19.1hPa | 2.6V | 00:00:00 | 02:04:48 | 08:30:00 | |
| DJ2DS-15 | 2026-08-30 12:22:38 | 51.64594 | 8.15317 | 325° | 20km/h | 27170m | 6.0m/s | -49.1°C | 3.3% | 19.1hPa | 2.6V | 00:00:00 | 02:04:47 | 00:00:00 | |
| DL8DAS-14 | 2026-08-30 12:22:37 | 51.64589 | 8.15324 | 315° | 27km/h | 27164m | 5.0m/s | -49.2°C | 0.7% | 19.2hPa | 2.6V | 00:00:00 | 00:00:00 | 00:00:00 | |
| DL1XH1-15 | 2026-08-30 12:22:36 | 51.64576 | 8.15348 | 307° | 22km/h | 27147m | 6.1m/s | -49.3°C | 3.4% | 19.3hPa | 2.6V | 08:30:00 | 02:04:43 | 00:00:00 | |
| DO2JMG | 2026-08-30 12:22:36 | 51.64584 | 8.15332 | 311° | 27km/h | 27159m | 5.1m/s | -49.2°C | 0.1% | 19.3hPa | 2.7V | 18:12:15 | 02:04:45 | 00:00:00 | |
| AA1-15 | 2026-08-30 12:22:33 | 51.64573 | 8.15355 | 306° | 18km/h | 27142m | 5.5m/s | -49.2°C | 0.1% | 19.3hPa | 2.6V | 18:12:15 | 02:04:42 | 00:00:00 | |
| DM0DOS-11 | 2026-08-30 12:22:33 | 51.64571 | 8.15361 | 301° | 18km/h | 27136m | 4.9m/s | -49.1°C | 3.3% | 19.3hPa | 2.7V | 08:30:00 | 02:04:41 | 00:00:00 | |
| DL1XH-west | 2026-08-30 12:22:32 | 51.64570 | 8.15361 | 301° | 18km/h | 27136m | 4.9m/s | -49.2°C | 0.1% | 19.3hPa | 2.7V | 18:12:15 | 02:04:41 | 00:00:00 | |
| DF8AY | 2026-08-30 12:22:31 | 51.64568 | 8.15367 | 296° | 18km/h | 27131m | 6.3m/s | 0°C | 0% | 0hPa | 2.7V | 18:12:15 | 02:04:40 | 00:00:00 | |
| DL1XH-15 | 2026-08-30 12:22:30 | 51.64565 | 8.15381 | 296° | 18km/h | 27119m | 4.9m/s | -49°C | 3.3% | 19.4hPa | 2.6V | 08:30:00 | 02:04:38 | 00:00:00 | |
| BIOWL1-15 | 2026-08-30 12:22:30 | 51.64566 | 8.15374 | 294° | 20km/h | 27124m | 5.9m/s | -49.1°C | 0.1% | 19.4hPa | 2.7V | 18:12:15 | 02:04:39 | 00:00:00 | |
| SONCRA | 2026-08-30 12:22:30 | 51.64564 | 8.15381 | 296° | 18km/h | 27119m | 4.9m/s | -49.1°C | 0.7% | 19.4hPa | 2.7V | 00:00:00 | 00:00:00 | 00:00:00 | |
| DL1XH1-15 | 2026-08-30 12:22:29 | 51.64551 | 8.15401 | 324° | 18km/h | 27090m | 6.4m/s | -48.9°C | 3.2% | 19.5hPa | 2.7V | 08:30:00 | 02:04:33 | 00:00:00 | |
| DO2JMG | 2026-08-30 12:22:26 | 51.64557 | 8.15395 | 329° | 13km/h | 27101m | 5.6m/s | -49°C | 0.1% | 19.4hPa | 2.7V | 18:12:15 | 02:04:35 | 00:00:00 | |
| DM0DOS-11 | 2026-08-30 12:22:25 | 51.64543 | 8.15412 | 314° | 24km/h | 27079m | 4.5m/s | -48.9°C | 3.2% | 19.5hPa | 2.6V | 08:30:00 | 02:04:31 | 00:00:00 | |
| AA1-15 | 2026-08-30 12:22:23 | 51.64543 | 8.15412 | 315° | 24km/h | 27079m | 4.5m/s | -48.9°C | 0% | 19.5hPa | 2.6V | 18:12:15 | 02:04:31 | 00:00:00 | |
| DL1XH-west | 2026-08-30 12:22:21 | 51.64539 | 8.15419 | 316° | 22km/h | 27074m | 5.2m/s | -48.9°C | 0% | 19.5hPa | 2.6V | 18:12:15 | 02:04:30 | 00:00:00 | |
| DL1XH-15 | 2026-08-30 12:22:20 | 51.64532 | 8.15429 | 319° | 16km/h | 27062m | 5.3m/s | -48.9°C | 3.2% | 19.5hPa | 2.7V | 08:30:00 | 02:04:28 | 00:00:00 | |
| BIOWL1-15 | 2026-08-30 12:22:20 | 51.64535 | 8.15425 | 318° | 20km/h | 27068m | 6.3m/s | -48.9°C | 0% | 19.5hPa | 2.7V | 18:12:15 | 02:04:29 | 00:00:00 | |
| DO1YAY-16 | 2026-08-30 12:22:20 | 51.64532 | 8.15430 | 319° | 16km/h | 27062m | 5.4m/s | -48.9°C | 0.7% | 19.5hPa | 2.7V | 00:00:00 | 00:00:00 | 00:00:00 | |
| SO1NDE-10 | 2026-08-30 12:22:19 | 51.64532 | 8.15430 | 320° | 16km/h | 27063m | 5.3m/s | -48.8°C | 3.2% | 19.5hPa | 2.7V | 00:00:00 | 02:04:28 | 00:00:00 | |
| DJ8HS-15 | 2026-08-30 12:22:18 | 51.64529 | 8.15434 | 317° | 18km/h | 27058m | 4.6m/s | -48.8°C | 3.2% | 19.5hPa | 2.7V | 00:00:00 | 02:04:27 | 08:30:00 | |
| DL1XH1-15 | 2026-08-30 12:22:16 | 51.64519 | 8.15456 | 305° | 16km/h | 27035m | 4.6m/s | -48.9°C | 3.2% | 19.6hPa | 2.7V | 08:30:00 | 02:04:23 | 00:00:00 | |
| DO2JMG | 2026-08-30 12:22:15 | 51.64522 | 8.15450 | 299° | 18km/h | 27040m | 5.3m/s | -48.9°C | 0% | 19.6hPa | 2.6V | 18:12:15 | 02:04:24 | 00:00:00 | |
| DD8BA-10 | 2026-08-30 12:22:15 | 51.64521 | 8.15450 | 300° | 18km/h | 27041m | 5.3m/s | -48.8°C | 3.2% | 19.5hPa | 2.7V | 00:00:00 | 00:00:00 | 00:00:00 | |
| DM0DOS-11 | 2026-08-30 12:22:13 | 51.64513 | 8.15465 | 333° | 15km/h | 27024m | 6m/s | -49°C | 3.2% | 19.6hPa | 2.7V | 08:30:00 | 02:04:21 | 00:00:00 | |
| AA1-15 | 2026-08-30 12:22:12 | 51.64513 | 8.15465 | 333° | 15km/h | 27024m | 6m/s | -49°C | 0% | 19.6hPa | 2.7V | 18:12:15 | 02:04:21 | 00:00:00 | |
| DL1XH-west | 2026-08-30 12:22:11 | 51.64510 | 8.15467 | 341° | 16km/h | 27018m | 4.7m/s | -49.1°C | 0% | 19.7hPa | 2.6V | 18:12:15 | 02:04:20 | 00:00:00 | |
| BIOWL1-15 | 2026-08-30 12:22:11 | 51.64502 | 8.15473 | 326° | 18km/h | 27008m | 6.4m/s | -49.2°C | 0.1% | 19.7hPa | 2.6V | 18:12:15 | 02:04:18 | 00:00:00 | |
| DL1XH-15 | 2026-08-30 12:22:10 | 51.64502 | 8.15473 | 326° | 18km/h | 27008m | 6.4m/s | -49.2°C | 3.2% | 19.7hPa | 2.6V | 08:30:00 | 02:04:18 | 00:00:00 | |
| HSKMA3-T | 2026-08-30 12:22:10 | 51.64506 | 8.15469 | 338° | 16km/h | 27014m | 4.5m/s | -49.2°C | 0% | 19.7hPa | 2.6V | 18:12:15 | 02:04:19 | 00:00:00 | |
| DO2SHX-10 | 2026-08-30 12:22:10 | 51.64506 | 8.15469 | 338° | 18km/h | 27014m | 4.5m/s | -49.1°C | 3.2% | 19.7hPa | 2.6V | 00:00:00 | 02:04:19 | 08:30:00 | |
| DL4BBY-15 | 2026-08-30 12:22:09 | 51.64502 | 8.15473 | 327° | 18km/h | 27009m | 6.4m/s | -48.7°C | 0% | 0hPa | 2.7V | 00:00:00 | 00:00:00 | 00:00:00 | |
| DL1NUX | 2026-08-30 12:22:08 | 51.64495 | 8.15485 | 302° | 22km/h | 26997m | 4.7m/s | -49°C | 3.2% | 19.7hPa | 2.7V | 08:30:00 | 02:04:16 | 00:00:00 | |
| DL3AQ-11 | 2026-08-30 12:22:08 | 51.64495 | 8.15485 | 302° | 22km/h | 26997m | 4.7m/s | -49.0°C | 0.7% | 19.7hPa | 2.6V | 00:00:00 | 00:00:00 | 00:00:00 | |
| DO2SHX-10 | 2026-08-30 12:22:07 | 51.64495 | 8.15484 | 303° | 22km/h | 26997m | 4.7m/s | -49.0°C | 3.2% | 19.7hPa | 2.6V | 00:00:00 | 02:04:16 | 00:00:00 | |
| DL8DAS-14 | 2026-08-30 12:22:06 | 51.64492 | 8.15492 | 300° | 22km/h | 26992m | 4.4m/s | -49.0°C | 0.7% | 19.8hPa | 2.6V | 00:00:00 | 00:00:00 | 00:00:00 | |
| DD8BA-10 | 2026-08-30 12:22:05 | 51.64490 | 8.15500 | 304° | 18km/h | 26987m | 5.7m/s | -49.0°C | 3.2% | 19.7hPa | 2.6V | 00:00:00 | 00:00:00 | 00:00:00 | |
| DO2JMG | 2026-08-30 12:22:05 | 51.64490 | 8.15500 | 303° | 22km/h | 26987m | 5.7m/s | -49.1°C | 0% | 19.8hPa | 2.6V | 18:12:15 | 02:04:14 | 00:00:00 | |
| DO2SHX-10 | 2026-08-30 12:22:04 | 51.64486 | 8.15506 | 311° | 20km/h | 26982m | 5.5m/s | -49.0°C | 3.2% | 19.7hPa | 2.7V | 00:00:00 | 02:04:13 | 00:00:00 | |
| DM0DOS-11 | 2026-08-30 12:22:03 | 51.64479 | 8.15517 | 326° | 20km/h | 26971m | 4.6m/s | -49.1°C | 3.1% | 19.8hPa | 2.7V | 08:30:00 | 02:04:11 | 00:00:00 | |
| DL1NUX | 2026-08-30 12:22:03 | 51.64459 | 8.15537 | 347° | 13km/h | 26945m | 6.6m/s | -49.2°C | 3.1% | 19.9hPa | 2.6V | 08:30:00 | 02:04:06 | 00:00:00 | |
| DL1XH-west | 2026-08-30 12:22:01 | 51.64475 | 8.15521 | 325° | 20km/h | 26966m | 6m/s | -49.1°C | 0% | 19.8hPa | 2.7V | 18:12:15 | 02:04:10 | 00:00:00 | |
| HSKMA3-T | 2026-08-30 12:22:00 | 51.64471 | 8.15526 | 323° | 22km/h | 26960m | 5.7m/s | -49°C | 0% | 19.9hPa | 2.7V | 18:12:15 | 02:04:09 | 00:00:00 | |
| BIOWL1-15 | 2026-08-30 12:21:58 | 51.64459 | 8.15537 | 348° | 13km/h | 26945m | 6.6m/s | -49.2°C | 0% | 19.9hPa | 2.6V | 18:12:15 | 02:04:06 | 00:00:00 | |
| DJ8HS-15 | 2026-08-30 12:21:58 | 51.64462 | 8.15535 | 333° | 16km/h | 26951m | 4.9m/s | -49.0°C | 3.1% | 19.8hPa | 2.7V | 00:00:00 | 02:04:07 | 00:00:00 | |
| DL1KLB | 2026-08-30 12:21:57 | 51.64459 | 8.15537 | 349° | 13km/h | 26945m | 6.6m/s | -49.2°C | 0.7% | 19.9hPa | 2.7V | 00:00:00 | 00:00:00 | 00:00:00 | |
| DL1XH1-15 | 2026-08-30 12:21:56 | 51.64451 | 8.15536 | 5° | 11km/h | 26928m | 5.8m/s | -49.3°C | 3.2% | 19.9hPa | 2.7V | 08:30:00 | 02:04:03 | 00:00:00 | |
| DO2JMG | 2026-08-30 12:21:54 | 51.64451 | 8.15536 | 6° | 11km/h | 26928m | 5.9m/s | -49.3°C | 0% | 19.9hPa | 2.7V | 18:12:15 | 02:04:03 | 00:00:00 | |
| DM0DOS-11 | 2026-08-30 12:21:53 | 51.64442 | 8.15541 | 334° | 16km/h | 26912m | 4.5m/s | -49.3°C | 3.2% | 20hPa | 2.6V | 08:30:00 | 02:04:00 | 00:00:00 | |
| DD1CC1-15 | 2026-08-30 12:21:52 | 51.64448 | 8.15536 | 347° | 11km/h | 26923m | 6.0m/s | -49.3°C | 0.8% | 20.0hPa | 2.7V | 00:00:00 | 00:00:00 | 00:00:00 | |
| DL1XH-15 | 2026-08-30 12:21:51 | 51.64434 | 8.15545 | 352° | 16km/h | 26901m | 6.5m/s | -49.4°C | 3.2% | 20hPa | 2.7V | 08:30:00 | 02:03:58 | 00:00:00 | |
| DL1XH-west | 2026-08-30 12:21:50 | 51.64438 | 8.15543 | 342° | 18km/h | 26907m | 4.8m/s | -49.4°C | 0% | 20hPa | 2.7V | 18:12:15 | 02:03:59 | 00:00:00 | |
| BIOWL1-15 | 2026-08-30 12:21:48 | 51.64429 | 8.15545 | 6° | 18km/h | 26895m | 6m/s | -49.4°C | 0% | 20.1hPa | 2.7V | 18:12:15 | 02:03:57 | 00:00:00 | |
| DL1NUX | 2026-08-30 12:21:47 | 51.64425 | 8.15544 | 12° | 18km/h | 26889m | 5.4m/s | -49.5°C | 3.2% | 20.1hPa | 2.6V | 08:30:00 | 02:03:56 | 00:00:00 | |
| DO2SHX-10 | 2026-08-30 12:21:46 | 51.64420 | 8.15542 | 13° | 18km/h | 26884m | 5.2m/s | -49.6°C | 3.2% | 20.0hPa | 2.6V | 00:00:00 | 02:03:55 | 00:00:00 | |
| DB0NH | 2026-08-30 12:21:45 | 51.64416 | 8.15541 | 8° | 24km/h | 26878m | 6.3m/s | -49.6°C | 3.3% | 20.1hPa | 2.6V | 00:00:00 | 02:03:54 | 00:00:00 | |
| DM0DOS-11 | 2026-08-30 12:21:43 | 51.64398 | 8.15536 | 24° | 16km/h | 26856m | 5.8m/s | -49.6°C | 3.2% | 20.2hPa | 2.6V | 08:30:00 | 02:03:50 | 00:00:00 | |
| DO2JMG | 2026-08-30 12:21:43 | 51.64406 | 8.15539 | 7° | 18km/h | 26868m | 4.7m/s | -49.5°C | 0% | 20.1hPa | 2.7V | 18:12:15 | 02:03:52 | 00:00:00 | |
| BIOWL1-15 | 2026-08-30 12:21:39 | 51.64381 | 8.15528 | 358° | 22km/h | 26834m | 5m/s | -49.8°C | 0% | 20.3hPa | 2.7V | 18:12:15 | 02:03:46 | 00:00:00 | |
| DL1XH-west | 2026-08-30 12:21:39 | 51.64390 | 8.15530 | 18° | 18km/h | 26845m | 5.2m/s | -49.7°C | 0% | 20.2hPa | 2.6V | 18:12:15 | 02:03:48 | 00:00:00 | |
| DO2JMG | 2026-08-30 12:21:32 | 51.64354 | 8.15522 | 22° | 18km/h | 26808m | 4.8m/s | -49.8°C | 0.1% | 20.3hPa | 2.7V | 18:12:15 | 02:03:41 | 00:00:00 | |
| DL1XH-15 | 2026-08-30 12:21:31 | 51.64339 | 8.15521 | 338° | 11km/h | 26786m | 4.9m/s | -49.8°C | 3.3% | 20.4hPa | 2.6V | 08:30:00 | 02:03:37 | 00:00:00 | |
| DL1XH-west | 2026-08-30 12:21:29 | 51.64342 | 8.15519 | 345° | 13km/h | 26791m | 5.4m/s | -49.7°C | 0.1% | 20.4hPa | 2.6V | 18:12:15 | 02:03:38 | 00:00:00 | |
| AA1-15 | 2026-08-30 12:21:28 | 51.64339 | 8.15521 | 338° | 11km/h | 26786m | 4.9m/s | -49.8°C | 0% | 20.4hPa | 2.6V | 18:12:15 | 02:03:37 | 00:00:00 | |
| SONCRA | 2026-08-30 12:21:28 | 51.64337 | 8.15522 | 347° | 9km/h | 26780m | 6.1m/s | -49.8°C | 0.8% | 20.4hPa | 2.7V | 00:00:00 | 00:00:00 | 00:00:00 | |
| DK9SH | 2026-08-30 12:21:26 | 51.64334 | 8.15522 | 4° | 9km/h | 26774m | 5.9m/s | -49.9°C | 0.7% | 20.4hPa | 2.7V | 00:00:00 | 00:00:00 | 00:00:00 | |
| DD8BA-10 | 2026-08-30 12:21:25 | 51.64332 | 8.15521 | 13° | 16km/h | 26769m | 4.7m/s | -49.8°C | 3.3% | 20.4hPa | 2.7V | 00:00:00 | 00:00:00 | 00:00:00 | |
| DL1XH-15 | 2026-08-30 12:21:23 | 51.64303 | 8.15520 | 7° | 16km/h | 26730m | 4.7m/s | -49.8°C | 3.2% | 20.6hPa | 2.7V | 08:30:00 | 02:03:27 | 00:00:00 | |
| DO2SHX-10 | 2026-08-30 12:21:23 | 51.64326 | 8.15521 | 358° | 16km/h | 26758m | 6.2m/s | -49.7°C | 3.2% | 20.4hPa | 2.6V | 00:00:00 | 02:03:32 | 00:00:00 | |
| DL1NUX | 2026-08-30 12:21:22 | 51.64299 | 8.15520 | 358° | 15km/h | 26726m | 4.5m/s | -49.9°C | 3.3% | 20.6hPa | 2.6V | 08:30:00 | 02:03:26 | 00:00:00 | |
| DF8AY | 2026-08-30 12:21:22 | 51.64322 | 8.15521 | 354° | 16km/h | 26752m | 5.4m/s | 0°C | 0% | 0hPa | 2.6V | 18:12:15 | 02:03:31 | 00:00:00 | |
| DO2JMG | 2026-08-30 12:21:21 | 51.64318 | 8.15522 | 356° | 18km/h | 26747m | 4.7m/s | -49.9°C | 0% | 20.5hPa | 2.6V | 18:12:15 | 02:03:30 | 00:00:00 | |
| DL1XH-west | 2026-08-30 12:21:18 | 51.64303 | 8.15520 | 7° | 18km/h | 26731m | 4.7m/s | -49.8°C | 0% | 20.6hPa | 2.7V | 18:12:15 | 02:03:27 | 00:00:00 | |
| BIOWL1-15 | 2026-08-30 12:21:18 | 51.64296 | 8.15521 | 340° | 13km/h | 26721m | 6m/s | -50°C | 0.1% | 20.6hPa | 2.6V | 18:12:15 | 02:03:25 | 00:00:00 | |
| AA1-15 | 2026-08-30 12:21:17 | 51.64299 | 8.15520 | 359° | 15km/h | 26726m | 4.5m/s | -49.9°C | 0.1% | 20.6hPa | 2.6V | 18:12:15 | 02:03:26 | 00:00:00 | |
| DO2SHX-10 | 2026-08-30 12:21:17 | 51.64299 | 8.15520 | 359° | 15km/h | 26726m | 4.4m/s | -49.9°C | 3.3% | 20.5hPa | 2.7V | 00:00:00 | 02:03:26 | 00:00:00 | |
| DL1XH1-15 | 2026-08-30 12:21:16 | 51.64290 | 8.15528 | 303° | 15km/h | 26709m | 4.8m/s | -49.9°C | 3.3% | 20.6hPa | 2.7V | 08:30:00 | 02:03:23 | 00:00:00 | |
| DJ2KF-10 | 2026-08-30 12:21:16 | 51.64296 | 8.15521 | 340° | 18km/h | 26721m | 6.0m/s | -49.9°C | 3.3% | 20.6hPa | 2.7V | 00:00:00 | 02:03:25 | 00:00:00 | |
| DD8BA-10 | 2026-08-30 12:21:15 | 51.64293 | 8.15524 | 318° | 11km/h | 26715m | 5.8m/s | -49.9°C | 3.3% | 20.5hPa | 2.7V | 00:00:00 | 00:00:00 | 00:00:00 | |
| DO2SHX-10 | 2026-08-30 12:21:14 | 51.64290 | 8.15528 | 304° | 13km/h | 26710m | 4.7m/s | -49.9°C | 3.3% | 20.6hPa | 2.7V | 00:00:00 | 02:03:23 | 08:30:00 | |
| DL1XH-15 | 2026-08-30 12:21:13 | 51.64281 | 8.15540 | 351° | 9km/h | 26677m | 6m/s | -49.9°C | 3.3% | 20.7hPa | 2.7V | 08:30:00 | 02:03:17 | 00:00:00 | |
| DB0UT-7 | 2026-08-30 12:21:13 | 51.64289 | 8.15533 | 299° | 20km/h | 26705m | 4.6m/s | -49.9°C | 3.3% | 20.6hPa | 2.7V | 00:00:00 | 00:00:00 | 00:00:00 | |
| DL1NUX | 2026-08-30 12:21:12 | 51.64278 | 8.15541 | 349° | 11km/h | 26672m | 5m/s | -50°C | 3.3% | 20.8hPa | 2.7V | 08:30:00 | 02:03:16 | 00:00:00 | |
| DF8AY | 2026-08-30 12:21:11 | 51.64286 | 8.15539 | 329° | 5km/h | 26693m | 5.4m/s | 0°C | 0% | 0hPa | 2.6V | 18:12:15 | 02:03:20 | 00:00:00 | |
| DO2JMG | 2026-08-30 12:21:10 | 51.64285 | 8.15539 | 354° | 5km/h | 26688m | 5.1m/s | -49.9°C | 0.1% | 20.7hPa | 2.6V | 18:12:15 | 02:03:19 | 00:00:00 | |
| DL1XH-west | 2026-08-30 12:21:08 | 51.64281 | 8.15540 | 351° | 9km/h | 26677m | 6m/s | -49.9°C | 0.1% | 20.7hPa | 2.7V | 18:12:15 | 02:03:17 | 00:00:00 | |
| HSKMA3-T | 2026-08-30 12:21:07 | 51.64278 | 8.15541 | 350° | 11km/h | 26672m | 5m/s | -50°C | 0.1% | 20.8hPa | 2.7V | 18:12:15 | 02:03:16 | 00:00:00 | |
| BIOWL1-15 | 2026-08-30 12:21:06 | 51.64275 | 8.15541 | 353° | 13km/h | 26667m | 4.4m/s | -49.9°C | 0.1% | 20.8hPa | 2.7V | 18:12:15 | 02:03:15 | 00:00:00 | |
| DO2SHX-10 | 2026-08-30 12:21:06 | 51.64275 | 8.15541 | 354° | 13km/h | 26667m | 4.4m/s | -49.9°C | 3.3% | 20.7hPa | 2.6V | 00:00:00 | 02:03:15 | 00:00:00 | |
| DD8BA-10 | 2026-08-30 12:21:05 | 51.64271 | 8.15542 | 1° | 18km/h | 26662m | 6.3m/s | -49.9°C | 3.3% | 20.7hPa | 2.6V | 00:00:00 | 00:00:00 | 08:30:00 | |
| DL3AQ-11 | 2026-08-30 12:21:04 | 51.64263 | 8.15541 | 358° | 18km/h | 26650m | 4.6m/s | -50.0°C | 0.8% | 20.8hPa | 2.6V | 00:00:00 | 00:00:00 | 00:00:00 | |
| DO2SHX-10 | 2026-08-30 12:21:03 | 51.64263 | 8.15541 | 359° | 20km/h | 26650m | 4.6m/s | -49.9°C | 3.3% | 20.8hPa | 2.6V | 00:00:00 | 02:03:12 | 00:00:00 | |
| DL1NUX | 2026-08-30 12:21:02 | 51.64236 | 8.15557 | 353° | 16km/h | 26619m | 6m/s | -49.9°C | 3.2% | 20.9hPa | 2.6V | 08:30:00 | 02:03:06 | 00:00:00 | |
| DL1XH-15 | 2026-08-30 12:21:01 | 51.64240 | 8.15555 | 339° | 18km/h | 26624m | 5.2m/s | -49.9°C | 3.3% | 20.9hPa | 2.6V | 08:30:00 | 02:03:07 | 00:00:00 | |
| DO2JMG | 2026-08-30 12:20:59 | 51.64244 | 8.15552 | 332° | 20km/h | 26629m | 4.4m/s | -49.9°C | 0.1% | 20.9hPa | 2.6V | 18:12:15 | 02:03:08 | 00:00:00 | |
| DL1XH-west | 2026-08-30 12:20:57 | 51.64236 | 8.15557 | 354° | 16km/h | 26619m | 6m/s | -49.9°C | 0% | 20.9hPa | 2.6V | 18:12:15 | 02:03:06 | 00:00:00 | |
| BIOWL1-15 | 2026-08-30 12:20:56 | 51.64199 | 8.15560 | 349° | 31km/h | 26581m | 6.4m/s | -50.1°C | 0.1% | 21.1hPa | 2.7V | 18:12:15 | 02:02:59 | 00:00:00 | |
| AA1-15 | 2026-08-30 12:20:55 | 51.64228 | 8.15555 | 15° | 16km/h | 26607m | 5.1m/s | -49.9°C | 0% | 21hPa | 2.7V | 18:12:15 | 02:03:04 | 00:00:00 | |
| DD8BA-10 | 2026-08-30 12:20:55 | 51.64228 | 8.15555 | 15° | 27km/h | 26608m | 5.0m/s | -49.9°C | 3.2% | 20.9hPa | 2.6V | 00:00:00 | 00:00:00 | 00:00:00 | |
| DO2SHX-10 | 2026-08-30 12:20:54 | 51.64219 | 8.15554 | 357° | 26km/h | 26597m | 6.2m/s | -50.0°C | 3.3% | 20.9hPa | 2.6V | 00:00:00 | 02:03:02 | 00:00:00 | |
| DL1XH-15 | 2026-08-30 12:20:53 | 51.64183 | 8.15563 | 355° | 35km/h | 26569m | 5m/s | -50.1°C | 3.3% | 21.1hPa | 2.7V | 08:30:00 | 02:02:57 | 00:00:00 | |
| DL1ZP-14 | 2026-08-30 12:20:53 | 51.64213 | 8.15555 | 348° | 24km/h | 26591m | 4.9m/s | -50.1°C | 0.8% | 21.0hPa | 2.6V | 00:00:00 | 00:00:00 | 00:00:00 | |
| DB0ND-19 | 2026-08-30 12:20:52 | 51.64199 | 8.15560 | 349° | 31km/h | 26581m | 6.4m/s | -50.1°C | 0.7% | 21.1hPa | 2.6V | 00:00:00 | 00:00:00 | 00:00:00 | |
| DL1NUX | 2026-08-30 12:20:51 | 51.64174 | 8.15564 | 355° | 35km/h | 26564m | 4.2m/s | -50.1°C | 3.3% | 21.1hPa | 2.6V | 08:30:00 | 02:02:56 | 00:00:00 | |
| DO9LL-15 | 2026-08-30 12:20:50 | 51.64199 | 8.15560 | 350° | 29km/h | 26581m | 6.3m/s | -50.0°C | 3.3% | 21.0hPa | 2.7V | 00:00:00 | 02:02:59 | 00:00:00 | |
| DL1XH1-15 | 2026-08-30 12:20:49 | 51.64149 | 8.15573 | 339° | 31km/h | 26547m | 5.5m/s | -49.8°C | 3.2% | 21.2hPa | 2.7V | 08:30:00 | 02:02:53 | 00:00:00 | |
| DO2JMG | 2026-08-30 12:20:48 | 51.64183 | 8.15563 | 356° | 35km/h | 26569m | 5m/s | -50.1°C | 0.1% | 21.1hPa | 2.7V | 18:12:15 | 02:02:57 | 00:00:00 | |
| HSKMA3-T | 2026-08-30 12:20:47 | 51.64174 | 8.15564 | 355° | 35km/h | 26564m | 4.2m/s | -50.1°C | 0.1% | 21.1hPa | 2.6V | 18:12:15 | 02:02:56 | 00:00:00 | |
| DL1XH-west | 2026-08-30 12:20:46 | 51.64165 | 8.15566 | 350° | 35km/h | 26559m | 5.5m/s | -50°C | 0.1% | 21.1hPa | 2.6V | 18:12:15 | 02:02:55 | 00:00:00 | |
| AA1-15 | 2026-08-30 12:20:45 | 51.64157 | 8.15569 | 345° | 33km/h | 26554m | 6.3m/s | -49.9°C | 0% | 21.1hPa | 2.6V | 18:12:15 | 02:02:54 | 00:00:00 | |
| BIOWL1-15 | 2026-08-30 12:20:44 | 51.64149 | 8.15573 | 340° | 31km/h | 26547m | 5.5m/s | -49.8°C | 0% | 21.2hPa | 2.7V | 18:12:15 | 02:02:53 | 00:00:00 | |
| DO2SHX-10 | 2026-08-30 12:20:43 | 51.64141 | 8.15577 | 340° | 27km/h | 26543m | 4.9m/s | -49.7°C | 3.2% | 21.1hPa | 2.7V | 00:00:00 | 02:02:52 | 00:00:00 | |
| DL1NUX | 2026-08-30 12:20:42 | 51.64106 | 8.15589 | 342° | 26km/h | 26508m | 5.1m/s | -49.9°C | 3.2% | 21.3hPa | 2.7V | 08:30:00 | 02:02:46 | 00:00:00 | |
| DL1XH-15 | 2026-08-30 12:20:41 | 51.64112 | 8.15586 | 346° | 22km/h | 26514m | 6.2m/s | -49.9°C | 3.2% | 21.3hPa | 2.7V | 08:30:00 | 02:02:47 | 00:00:00 | |
| DO2JMG | 2026-08-30 12:20:38 | 51.64112 | 8.15586 | 347° | 22km/h | 26514m | 6.2m/s | -49.9°C | 0% | 21.3hPa | 2.7V | 18:12:15 | 02:02:47 | 00:00:00 | |
| HSKMA3-T | 2026-08-30 12:20:36 | 51.64099 | 8.15592 | 344° | 29km/h | 26503m | 5m/s | -49.9°C | 0% | 21.3hPa | 2.7V | 18:12:15 | 02:02:45 | 00:00:00 | |
| DL1XH1-15 | 2026-08-30 12:20:36 | 51.64083 | 8.15598 | 347° | 37km/h | 26491m | 5.5m/s | -50°C | 3.2% | 21.3hPa | 2.6V | 08:30:00 | 02:02:43 | 00:00:00 | |
| DL1XH-west | 2026-08-30 12:20:35 | 51.64092 | 8.15595 | 346° | 33km/h | 26497m | 6.6m/s | -49.9°C | 0% | 21.3hPa | 2.6V | 18:12:15 | 02:02:44 | 00:00:00 | |
| AA1-15 | 2026-08-30 12:20:34 | 51.64083 | 8.15598 | 348° | 37km/h | 26491m | 5.5m/s | -50°C | 0% | 21.3hPa | 2.6V | 18:12:15 | 02:02:43 | 00:00:00 | |
| BIOWL1-15 | 2026-08-30 12:20:33 | 51.64047 | 8.15620 | 330° | 38km/h | 26470m | 4.7m/s | -50.2°C | 0.1% | 21.4hPa | 2.7V | 18:12:15 | 02:02:39 | 00:00:00 | |
| DO2SHX-10 | 2026-08-30 12:20:33 | 51.64074 | 8.15602 | 346° | 40km/h | 26487m | 4.3m/s | -50.1°C | 3.3% | 21.3hPa | 2.7V | 00:00:00 | 02:02:42 | 00:00:00 | |
| WEDDY | 2026-08-30 12:20:31 | 51.64055 | 8.15613 | 335° | 40km/h | 26475m | 6.0m/s | -50.2°C | 0.8% | 21.4hPa | 2.7V | 00:00:00 | 00:00:00 | 00:00:00 | |
| DO2SHX-10 | 2026-08-30 12:20:30 | 51.64047 | 8.15620 | 330° | 33km/h | 26470m | 4.7m/s | -50.1°C | 3.4% | 21.4hPa | 2.7V | 00:00:00 | 02:02:39 | 00:00:00 | |
| DD1CC1-15 | 2026-08-30 12:20:29 | 51.64039 | 8.15627 | 331° | 33km/h | 26465m | 4.9m/s | -50.2°C | 0.8% | 21.4hPa | 2.6V | 00:00:00 | 00:00:00 | 00:00:00 | |
| DM0DOS-11 | 2026-08-30 12:20:28 | 51.64009 | 8.15655 | 320° | 24km/h | 26432m | 4.9m/s | -49.8°C | 3.3% | 21.6hPa | 2.6V | 08:30:00 | 02:02:32 | 00:00:00 | |
| DL1XH-15 | 2026-08-30 12:20:28 | 51.64026 | 8.15638 | 335° | 24km/h | 26453m | 5.8m/s | -50°C | 3.3% | 21.4hPa | 2.6V | 08:30:00 | 02:02:36 | 00:00:00 | |
| DO2JMG | 2026-08-30 12:20:27 | 51.64026 | 8.15638 | 336° | 24km/h | 26453m | 5.8m/s | -50°C | 0.1% | 21.5hPa | 2.6V | 18:12:15 | 02:02:36 | 00:00:00 | |
| DL1XH-west | 2026-08-30 12:20:25 | 51.64017 | 8.15645 | 330° | 18km/h | 26442m | 5.3m/s | -49.8°C | 0.1% | 21.5hPa | 2.7V | 18:12:15 | 02:02:34 | 00:00:00 | |
| AA1-15 | 2026-08-30 12:20:24 | 51.64009 | 8.15655 | 321° | 24km/h | 26432m | 4.9m/s | -49.8°C | 0.1% | 21.6hPa | 2.6V | 18:12:15 | 02:02:32 | 00:00:00 | |
| BIOWL1-15 | 2026-08-30 12:20:23 | 51.63983 | 8.15680 | 331° | 33km/h | 26410m | 3.9m/s | -50.1°C | 0.1% | 21.6hPa | 2.7V | 18:12:15 | 02:02:28 | 00:00:00 | |
| DK9SH | 2026-08-30 12:20:23 | 51.64013 | 8.15649 | 324° | 20km/h | 26437m | 5.5m/s | -49.8°C | 0.8% | 21.5hPa | 2.6V | 00:00:00 | 00:00:00 | 00:00:00 | |
| DL1ZP-14 | 2026-08-30 12:20:21 | 51.63998 | 8.15668 | 328° | 29km/h | 26421m | 6.4m/s | -50.0°C | 0.8% | 21.6hPa | 2.6V | 00:00:00 | 00:00:00 | 00:00:00 | |
| DO9LL-15 | 2026-08-30 12:20:20 | 51.63991 | 8.15674 | 333° | 20km/h | 26415m | 5.5m/s | -50.0°C | 3.3% | 21.5hPa | 2.7V | 00:00:00 | 02:02:29 | 00:00:00 | |
| GOEST3-10 | 2026-08-30 12:20:19 | 51.63983 | 8.15680 | 332° | 29km/h | 26411m | 3.8m/s | -50.1°C | 3.3% | 21.6hPa | 2.7V | 00:00:00 | 02:02:28 | 00:00:00 | |
| DM0DOS-11 | 2026-08-30 12:20:18 | 51.63959 | 8.15727 | 283° | 15km/h | 26378m | 6m/s | -50°C | 3.3% | 21.7hPa | 2.7V | 08:30:00 | 02:02:22 | 00:00:00 | |
| DJ8HS-15 | 2026-08-30 12:20:18 | 51.63976 | 8.15687 | 327° | 22km/h | 26407m | 4.5m/s | -50.0°C | 3.3% | 21.6hPa | 2.7V | 00:00:00 | 02:02:27 | 00:00:00 | |
| EDDB2-11 | 2026-08-30 12:20:17 | 51.63965 | 8.15704 | 305° | 27km/h | 26395m | 5.9m/s | -50.0°C | 0.8% | 21.6hPa | 2.7V | 00:00:00 | 00:00:00 | 00:00:00 | |
| DL1XH1-15 | 2026-08-30 12:20:16 | 51.63960 | 8.15721 | 288° | 20km/h | 26384m | 6m/s | -50°C | 3.3% | 21.7hPa | 2.7V | 08:30:00 | 02:02:23 | 00:00:00 | |
| DO2JMG | 2026-08-30 12:20:16 | 51.63965 | 8.15704 | 306° | 27km/h | 26395m | 5.9m/s | -50°C | 0.1% | 21.6hPa | 2.6V | 18:12:15 | 02:02:25 | 00:00:00 | |
| DL1XH-west | 2026-08-30 12:20:15 | 51.63962 | 8.15713 | 295° | 24km/h | 26389m | 4.8m/s | -50°C | 0.1% | 21.7hPa | 2.6V | 18:12:15 | 02:02:24 | 00:00:00 | |
| AA1-15 | 2026-08-30 12:20:12 | 51.63958 | 8.15733 | 274° | 11km/h | 26373m | 5.1m/s | -50°C | 0.1% | 21.7hPa | 2.7V | 18:12:15 | 02:02:21 | 00:00:00 | |
| DO2SHX-10 | 2026-08-30 12:20:12 | 51.63958 | 8.15732 | 275° | 11km/h | 26373m | 5.0m/s | -50.0°C | 3.3% | 21.7hPa | 2.6V | 00:00:00 | 02:02:21 | 00:00:00 | |
| DL1KLB | 2026-08-30 12:20:11 | 51.63958 | 8.15732 | 275° | 11km/h | 26373m | 5.1m/s | -50.0°C | 0.8% | 21.7hPa | 2.6V | 00:00:00 | 00:00:00 | 00:00:00 | |
| DL1CLM-18 | 2026-08-30 12:20:10 | 51.63958 | 8.15736 | 265° | 9km/h | 26367m | 5.6m/s | -50.0°C | 0.7% | 21.7hPa | 2.6V | 00:00:00 | 00:00:00 | 00:00:00 | |
| DL1XH1-15 | 2026-08-30 12:20:09 | 51.63937 | 8.15770 | 321° | 31km/h | 26329m | 5.7m/s | -50°C | 3.3% | 21.9hPa | 2.6V | 08:30:00 | 02:02:13 | 00:00:00 | |
| BIOWL1-15 | 2026-08-30 12:20:08 | 51.63957 | 8.15749 | 308° | 13km/h | 26351m | 4.7m/s | -50°C | 0.1% | 21.8hPa | 2.7V | 18:12:15 | 02:02:17 | 00:00:00 | |
| DM0DOS-11 | 2026-08-30 12:20:08 | 51.63932 | 8.15779 | 312° | 31km/h | 26323m | 5.6m/s | -50°C | 3.3% | 21.9hPa | 2.6V | 08:30:00 | 02:02:12 | 00:00:00 | |
| DL1NUX | 2026-08-30 12:20:07 | 51.63954 | 8.15753 | 323° | 18km/h | 26346m | 6.6m/s | -50.1°C | 3.3% | 21.8hPa | 2.7V | 08:30:00 | 02:02:16 | 00:00:00 | |
| DO2JMG | 2026-08-30 12:20:06 | 51.63950 | 8.15758 | 331° | 24km/h | 26340m | 5.5m/s | -50.1°C | 0.1% | 21.8hPa | 2.7V | 18:12:15 | 02:02:15 | 00:00:00 | |
| DL1XH-west | 2026-08-30 12:20:05 | 51.63944 | 8.15763 | 328° | 29km/h | 26334m | 4.7m/s | -50°C | 0.1% | 21.9hPa | 2.6V | 18:12:15 | 02:02:14 | 00:00:00 | |
| HSKMA3-T | 2026-08-30 12:20:04 | 51.63938 | 8.15770 | 322° | 31km/h | 26329m | 5.7m/s | -50°C | 0% | 21.9hPa | 2.6V | 18:12:15 | 02:02:13 | 00:00:00 | |
| DC4HF-4 | 2026-08-30 12:20:04 | 51.63932 | 8.15779 | 312° | 29km/h | 26324m | 5.6m/s | -50.0°C | 0.8% | 21.9hPa | 2.6V | 00:00:00 | 00:00:00 | 00:00:00 | |
| DL1NUX | 2026-08-30 12:20:02 | 51.63919 | 8.15824 | 252° | 11km/h | 26292m | 5.1m/s | -50°C | 3.3% | 22hPa | 2.6V | 08:30:00 | 02:02:06 | 00:00:00 | |
| AA1-15 | 2026-08-30 12:20:01 | 51.63924 | 8.15798 | 297° | 26km/h | 26314m | 4.6m/s | -50°C | 0.1% | 21.9hPa | 2.7V | 18:12:15 | 02:02:10 | 00:00:00 | |
| DO2SHX-10 | 2026-08-30 12:19:59 | 51.63919 | 8.15814 | 289° | 15km/h | 26303m | 5.4m/s | -49.8°C | 3.3% | 21.9hPa | 2.6V | 00:00:00 | 02:02:08 | 00:00:00 | |
| DM0DOS-11 | 2026-08-30 12:19:58 | 51.63926 | 8.15839 | 248° | 7km/h | 26271m | 5.7m/s | -49.9°C | 3.3% | 22.1hPa | 2.6V | 08:30:00 | 02:02:02 | 00:00:00 | |
| DJ8HS-15 | 2026-08-30 12:19:58 | 51.63919 | 8.15819 | 276° | 16km/h | 26298m | 4.7m/s | -49.9°C | 3.3% | 21.9hPa | 2.7V | 00:00:00 | 02:02:07 | 00:00:00 | |
| DL1XH1-15 | 2026-08-30 12:19:57 | 51.63924 | 8.15836 | 229° | 11km/h | 26276m | 4.1m/s | -49.9°C | 3.3% | 22.1hPa | 2.7V | 08:30:00 | 02:02:03 | 00:00:00 | |
| DO2JMG | 2026-08-30 12:19:55 | 51.63922 | 8.15833 | 225° | 13km/h | 26280m | 5.3m/s | -49.9°C | 0% | 22.1hPa | 2.7V | 18:12:15 | 02:02:04 | 00:00:00 | |
| DL1XH-west | 2026-08-30 12:19:54 | 51.63925 | 8.15836 | 229° | 11km/h | 26276m | 4.1m/s | -49.9°C | 0.1% | 22.1hPa | 2.7V | 18:12:15 | 02:02:03 | 00:00:00 | |
| HSKMA3-T | 2026-08-30 12:19:53 | 51.63926 | 8.15840 | 248° | 7km/h | 26271m | 5.7m/s | -49.9°C | 0.1% | 22.1hPa | 2.6V | 18:12:15 | 02:02:02 | 00:00:00 | |
| DJ2DS-15 | 2026-08-30 12:19:52 | 51.63924 | 8.15846 | 319° | 15km/h | 26260m | 4.4m/s | -49.9°C | 0.8% | 22.1hPa | 2.6V | 00:00:00 | 00:00:00 | 00:00:00 | |
| DL1XH-15 | 2026-08-30 12:19:51 | 51.63909 | 8.15875 | 297° | 27km/h | 26239m | 4.5m/s | -49.8°C | 3.3% | 22.2hPa | 2.6V | 08:30:00 | 02:01:56 | 00:00:00 | |
| AA1-15 | 2026-08-30 12:19:50 | 51.63916 | 8.15857 | 311° | 24km/h | 26250m | 6.4m/s | -50°C | 0.1% | 22.1hPa | 2.7V | 18:12:15 | 02:01:58 | 00:00:00 | |
| GOEST3-10 | 2026-08-30 12:19:50 | 51.63916 | 8.15857 | 311° | 26km/h | 26250m | 6.3m/s | -49.9°C | 3.3% | 22.1hPa | 2.7V | 00:00:00 | 02:01:58 | 00:00:00 | |
| DL1XH1-15 | 2026-08-30 12:19:49 | 51.63902 | 8.15901 | 293° | 18km/h | 26223m | 5.4m/s | -49.8°C | 3.3% | 22.2hPa | 2.7V | 08:30:00 | 02:01:53 | 00:00:00 | |
| S3001 | 2026-08-30 12:19:49 | 51.63912 | 8.15866 | 302° | 26km/h | 26244m | 5.5m/s | -49.8°C | 0.7% | 22.2hPa | 2.7V | 00:00:00 | 00:00:00 | 00:00:00 | |
| DM0DOS-11 | 2026-08-30 12:19:48 | 51.63900 | 8.15907 | 287° | 13km/h | 26218m | 4.7m/s | -49.7°C | 3.2% | 22.2hPa | 2.7V | 08:30:00 | 02:01:52 | 00:00:00 | |
| DO2JMG | 2026-08-30 12:19:45 | 51.63904 | 8.15894 | 295° | 22km/h | 26229m | 5.7m/s | -49.8°C | 0.1% | 22.2hPa | 2.6V | 18:12:15 | 02:01:54 | 00:00:00 | |
| BIOWL9-15 | 2026-08-30 12:19:45 | 51.63901 | 8.15901 | 293° | 16km/h | 26223m | 5.4m/s | -49.8°C | 0.8% | 22.2hPa | 2.7V | 00:00:00 | 00:00:00 | 00:00:00 | |
| SMARD9-15 | 2026-08-30 12:19:44 | 51.63901 | 8.15901 | 293° | 16km/h | 26223m | 5.4m/s | -49.8°C | 0.8% | 22.2hPa | 2.7V | 00:00:00 | 00:00:00 | 00:00:00 | |
| DL1XH-west | 2026-08-30 12:19:43 | 51.63900 | 8.15907 | 288° | 13km/h | 26218m | 4.7m/s | -49.7°C | 0% | 22.2hPa | 2.7V | 18:12:15 | 02:01:52 | 00:00:00 | |
| AA1-15 | 2026-08-30 12:19:40 | 51.63900 | 8.15922 | 258° | 13km/h | 26202m | 4.9m/s | -49.7°C | 0% | 22.3hPa | 2.6V | 18:12:15 | 02:01:49 | 00:00:00 | |
| DL4BBY-15 | 2026-08-30 12:19:39 | 51.63900 | 8.15926 | 260° | 11km/h | 26196m | 5.2m/s | -49.2°C | 0% | 0hPa | 2.6V | 00:00:00 | 00:00:00 | 00:00:00 | |
| DM0DOS-11 | 2026-08-30 12:19:38 | 51.63897 | 8.15952 | 273° | 18km/h | 26163m | 4.4m/s | -49.8°C | 3.2% | 22.4hPa | 2.6V | 08:30:00 | 02:01:42 | 00:00:00 | |
| DL1XH-15 | 2026-08-30 12:19:38 | 51.63900 | 8.15932 | 288° | 7km/h | 26185m | 5m/s | -49.8°C | 3.2% | 22.4hPa | 2.7V | 08:30:00 | 02:01:46 | 00:00:00 | |
| DO2JMG | 2026-08-30 12:19:35 | 51.63899 | 8.15939 | 288° | 13km/h | 26174m | 6.3m/s | -49.8°C | 0% | 22.4hPa | 2.6V | 18:12:15 | 02:01:44 | 00:00:00 | |
| DL1XH-west | 2026-08-30 12:19:33 | 51.63897 | 8.15952 | 274° | 18km/h | 26163m | 4.4m/s | -49.8°C | 0% | 22.4hPa | 2.6V | 18:12:15 | 02:01:42 | 00:00:00 | |
| BIOWL1-15 | 2026-08-30 12:19:32 | 51.63897 | 8.15960 | 272° | 18km/h | 26159m | 4.5m/s | -50°C | 0.1% | 22.4hPa | 2.7V | 18:12:15 | 02:01:41 | 00:00:00 | |
| AA1-15 | 2026-08-30 12:19:29 | 51.63897 | 8.15976 | 267° | 9km/h | 26143m | 5.3m/s | -50.1°C | 0.1% | 22.5hPa | 2.6V | 18:12:15 | 02:01:38 | 00:00:00 | |
| DL1XH1-15 | 2026-08-30 12:19:29 | 51.63900 | 8.15994 | 254° | 5km/h | 26117m | 5.5m/s | -50.3°C | 3.4% | 22.6hPa | 2.7V | 08:30:00 | 02:01:33 | 00:00:00 | |
| DO2SHX-10 | 2026-08-30 12:19:29 | 51.63897 | 8.15976 | 268° | 9km/h | 26143m | 5.2m/s | -50.1°C | 3.3% | 22.5hPa | 2.6V | 00:00:00 | 02:01:38 | 08:30:00 | |
| DL1XH-15 | 2026-08-30 12:19:28 | 51.63898 | 8.15983 | 255° | 9km/h | 26132m | 6.1m/s | -50.1°C | 3.3% | 22.6hPa | 2.6V | 08:30:00 | 02:01:36 | 00:00:00 | |
| DO2JMG | 2026-08-30 12:19:25 | 51.63899 | 8.15991 | 255° | 9km/h | 26122m | 4.3m/s | -50.2°C | 0.1% | 22.6hPa | 2.7V | 18:12:15 | 02:01:34 | 00:00:00 | |
| DL1XH-west | 2026-08-30 12:19:22 | 51.63900 | 8.15997 | 255° | 2km/h | 26105m | 5m/s | -50.2°C | 0.1% | 22.6hPa | 2.6V | 18:12:15 | 02:01:31 | 00:00:00 | |
| AA1-15 | 2026-08-30 12:19:18 | 51.63904 | 8.16013 | 242° | 20km/h | 26084m | 4.3m/s | -50.2°C | 0.1% | 22.7hPa | 2.7V | 18:12:15 | 02:01:27 | 00:00:00 | |
| DM0DOS-11 | 2026-08-30 12:19:18 | 51.63918 | 8.16038 | 223° | 11km/h | 26059m | 4.8m/s | -50.1°C | 3.3% | 22.8hPa | 2.7V | 08:30:00 | 02:01:22 | 00:00:00 | |
| DD1CC3-15 | 2026-08-30 12:19:18 | 51.63904 | 8.16013 | 243° | 20km/h | 26085m | 4.3m/s | -50.2°C | 0.8% | 22.7hPa | 2.7V | 00:00:00 | 00:00:00 | 00:00:00 | |
| DD1CC2-15 | 2026-08-30 12:19:17 | 51.63906 | 8.16020 | 236° | 20km/h | 26080m | 5.0m/s | -50.2°C | 0.8% | 22.7hPa | 2.7V | 00:00:00 | 00:00:00 | 00:00:00 | |
| DL1XH1-15 | 2026-08-30 12:19:16 | 51.63916 | 8.16035 | 214° | 13km/h | 26063m | 5m/s | -50.2°C | 3.3% | 22.8hPa | 2.7V | 08:30:00 | 02:01:23 | 00:00:00 | |
| DO2JMG | 2026-08-30 12:19:14 | 51.63916 | 8.16035 | 214° | 13km/h | 26063m | 5m/s | -50.2°C | 0.1% | 22.8hPa | 2.7V | 18:12:15 | 02:01:23 | 00:00:00 | |
| DL1XH-west | 2026-08-30 12:19:12 | 51.63920 | 8.16042 | 242° | 9km/h | 26053m | 6.3m/s | -50.1°C | 0.1% | 22.8hPa | 2.7V | 18:12:15 | 02:01:21 | 00:00:00 | |
| WPPR-10 | 2026-08-30 12:19:11 | 51.63919 | 8.16053 | 296° | 9km/h | 26037m | 5.5m/s | -50.1°C | 0.7% | 22.9hPa | 2.6V | 00:00:00 | 00:00:00 | 00:00:00 | |
| DL1XH1-15 | 2026-08-30 12:19:09 | 51.63919 | 8.16068 | 244° | 13km/h | 26009m | 6m/s | -50.3°C | 3.4% | 23hPa | 2.6V | 08:30:00 | 02:01:13 | 00:00:00 | |
| DL4BBY-15 | 2026-08-30 12:19:09 | 51.63919 | 8.16053 | 297° | 9km/h | 26036m | 5.4m/s | -49.6°C | 0% | 0hPa | 2.6V | 00:00:00 | 00:00:00 | 00:00:00 | |
| DM0DOS-11 | 2026-08-30 12:19:08 | 51.63921 | 8.16073 | 239° | 15km/h | 26003m | 4.5m/s | -50.3°C | 3.4% | 23hPa | 2.6V | 08:30:00 | 02:01:12 | 00:00:00 | |
| AA1-15 | 2026-08-30 12:19:07 | 51.63917 | 8.16059 | 291° | 5km/h | 26025m | 5m/s | -50.2°C | 0% | 22.9hPa | 2.7V | 18:12:15 | 02:01:16 | 00:00:00 | |
| DO2JMG | 2026-08-30 12:19:04 | 51.63919 | 8.16068 | 244° | 13km/h | 26009m | 6m/s | -50.3°C | 0.2% | 23hPa | 2.6V | 18:12:15 | 02:01:13 | 00:00:00 | |
| DL1XH-west | 2026-08-30 12:19:02 | 51.63923 | 8.16077 | 232° | 13km/h | 25999m | 4.9m/s | -50.3°C | 0.1% | 23hPa | 2.7V | 18:12:15 | 02:01:11 | 00:00:00 | |
| HSKMA3-T | 2026-08-30 12:19:01 | 51.63925 | 8.16081 | 225° | 11km/h | 25993m | 6.2m/s | -50.3°C | 0.2% | 23.1hPa | 2.7V | 18:12:15 | 02:01:10 | 00:00:00 | |
| AA1-15 | 2026-08-30 12:18:57 | 51.63924 | 8.16097 | 308° | 11km/h | 25961m | 4.6m/s | -50.1°C | 0.1% | 23.1hPa | 2.7V | 18:12:15 | 02:01:04 | 00:00:00 | |
| DJ2DS-15 | 2026-08-30 12:18:57 | 51.63927 | 8.16090 | 296° | 11km/h | 25972m | 6.1m/s | -50.2°C | 3.4% | 23.1hPa | 2.7V | 00:00:00 | 02:01:06 | 00:00:00 | |
| DL1XH1-15 | 2026-08-30 12:18:56 | 51.63923 | 8.16100 | 318° | 9km/h | 25956m | 6m/s | -50.1°C | 3.4% | 23.2hPa | 2.7V | 08:30:00 | 02:01:03 | 00:00:00 | |
| DM0DOS-11 | 2026-08-30 12:18:55 | 51.63921 | 8.16102 | 335° | 5km/h | 25950m | 6m/s | -50.1°C | 3.3% | 23.2hPa | 2.6V | 08:30:00 | 02:01:02 | 00:00:00 | |
| DO2JMG | 2026-08-30 12:18:53 | 51.63921 | 8.16102 | 335° | 5km/h | 25950m | 6m/s | -50.1°C | 0.1% | 23.2hPa | 2.6V | 18:12:15 | 02:01:02 | 00:00:00 | |
| DL1XH-west | 2026-08-30 12:18:52 | 51.63920 | 8.16102 | 348° | 4km/h | 25944m | 5.2m/s | -50.1°C | 0.1% | 23.2hPa | 2.6V | 18:12:15 | 02:01:01 | 00:00:00 | |
| HSKMA3-T | 2026-08-30 12:18:51 | 51.63919 | 8.16103 | 332° | 4km/h | 25939m | 5.2m/s | -50.1°C | 0.1% | 23.2hPa | 2.6V | 18:12:15 | 02:01:00 | 00:00:00 | |
| DO9LL-15 | 2026-08-30 12:18:50 | 51.63918 | 8.16104 | 290° | 11km/h | 25934m | 6.2m/s | -50.1°C | 3.4% | 23.2hPa | 2.7V | 00:00:00 | 02:00:59 | 00:00:00 | |
| DL1XH1-15 | 2026-08-30 12:18:49 | 51.63912 | 8.16113 | 345° | 11km/h | 25901m | 5.4m/s | -50°C | 3.3% | 23.4hPa | 2.7V | 08:30:00 | 02:00:53 | 00:00:00 | |
| DM0DOS-11 | 2026-08-30 12:18:48 | 51.63909 | 8.16115 | 334° | 15km/h | 25895m | 6.3m/s | -50°C | 3.3% | 23.4hPa | 2.7V | 08:30:00 | 02:00:52 | 00:00:00 | |
| AA1-15 | 2026-08-30 12:18:47 | 51.63916 | 8.16112 | 340° | 5km/h | 25912m | 5.8m/s | -50°C | 0.1% | 23.3hPa | 2.6V | 18:12:15 | 02:00:55 | 00:00:00 | |
| DO2JMG | 2026-08-30 12:18:43 | 51.63909 | 8.16115 | 335° | 15km/h | 25896m | 6.4m/s | -50°C | 0.1% | 23.4hPa | 2.7V | 18:12:15 | 02:00:52 | 00:00:00 | |
| DL1XH-west | 2026-08-30 12:18:41 | 51.63902 | 8.16122 | 327° | 18km/h | 25885m | 4.1m/s | -50°C | 0.1% | 23.4hPa | 2.6V | 18:12:15 | 02:00:50 | 00:00:00 | |
| DB0NH | 2026-08-30 12:18:40 | 51.63898 | 8.16126 | 333° | 9km/h | 25881m | 4.7m/s | -49.9°C | 3.3% | 23.4hPa | 2.6V | 00:00:00 | 02:00:49 | 00:00:00 | |
| DL4BBY-15 | 2026-08-30 12:18:39 | 51.63895 | 8.16128 | 346° | 9km/h | 25875m | 6.0m/s | -49.4°C | 0% | 0hPa | 2.6V | 00:00:00 | 00:00:00 | 00:00:00 | |
| DM0DOS-11 | 2026-08-30 12:18:38 | 51.63877 | 8.16131 | 329° | 11km/h | 25843m | 4.8m/s | -49.7°C | 3.3% | 23.6hPa | 2.6V | 08:30:00 | 02:00:42 | 00:00:00 | |
| DL1XH-15 | 2026-08-30 12:18:38 | 51.63888 | 8.16128 | 12° | 11km/h | 25864m | 4.4m/s | -49.9°C | 3.3% | 23.5hPa | 2.7V | 08:30:00 | 02:00:46 | 00:00:00 | |
| DJ8HS-15 | 2026-08-30 12:18:38 | 51.63891 | 8.16129 | 3° | 11km/h | 25869m | 5.3m/s | -49.9°C | 3.3% | 23.4hPa | 2.6V | 00:00:00 | 02:00:47 | 00:00:00 | |
| DJ2DS-15 | 2026-08-30 12:18:37 | 51.63888 | 8.16128 | 13° | 11km/h | 25864m | 4.4m/s | -49.9°C | 3.3% | 23.5hPa | 2.6V | 00:00:00 | 02:00:46 | 00:00:00 | |
| DL1XH1-15 | 2026-08-30 12:18:36 | 51.63880 | 8.16129 | 335° | 11km/h | 25848m | 5.2m/s | -49.8°C | 3.3% | 23.6hPa | 2.6V | 08:30:00 | 02:00:43 | 00:00:00 | |
| BIOWL1-15 | 2026-08-30 12:18:35 | 51.63882 | 8.16128 | 352° | 11km/h | 25853m | 5.7m/s | -49.9°C | 0.1% | 23.6hPa | 2.6V | 18:12:15 | 02:00:44 | 00:00:00 | |
| DO2JMG | 2026-08-30 12:18:33 | 51.63877 | 8.16131 | 330° | 11km/h | 25843m | 4.8m/s | -49.7°C | 0.1% | 23.6hPa | 2.6V | 18:12:15 | 02:00:42 | 00:00:00 | |
| DL1XH-west | 2026-08-30 12:18:31 | 51.63873 | 8.16134 | 347° | 7km/h | 25832m | 6.3m/s | -49.7°C | 0.1% | 23.6hPa | 2.7V | 18:12:15 | 02:00:40 | 00:00:00 | |
| Es werden nur die letzten 3500 von 7845 Frames angezeigt. GPX/KML und Diagramme bleiben verfügbar. | |||||||||||||||